<?xml version='1.0' encoding='UTF-8'?><gpx version="1.1" creator="JPX - https://github.com/jenetics/jpx" xmlns="http://www.topografix.com/GPX/1/1"><trk><trkseg><trkpt lat="43.4685317" lon="11.858185"><ele>246.0</ele><time>2026-05-03T10:30:45.653Z</time></trkpt><trkpt lat="43.468545" lon="11.8580483"><ele>246.0</ele><time>2026-05-03T10:30:47.665Z</time></trkpt><trkpt lat="43.4685567" lon="11.857885"><ele>246.0</ele><time>2026-05-03T10:30:49.698Z</time></trkpt><trkpt lat="43.46856" lon="11.8577867"><ele>246.0</ele><time>2026-05-03T10:30:50.683Z</time></trkpt><trkpt lat="43.4685617" lon="11.8576833"><ele>246.0</ele><time>2026-05-03T10:30:51.704Z</time></trkpt><trkpt lat="43.468565" lon="11.8575833"><ele>246.0</ele><time>2026-05-03T10:30:52.678Z</time></trkpt><trkpt lat="43.4685733" lon="11.857485"><ele>245.8571428571429</ele><time>2026-05-03T10:30:53.677Z</time></trkpt><trkpt lat="43.4685783" lon="11.857385"><ele>245.71428571428572</ele><time>2026-05-03T10:30:54.7Z</time></trkpt><trkpt lat="43.4685783" lon="11.8572917"><ele>245.57142857142858</ele><time>2026-05-03T10:30:55.696Z</time></trkpt><trkpt lat="43.4685833" lon="11.8571917"><ele>245.42857142857144</ele><time>2026-05-03T10:30:56.71Z</time></trkpt><trkpt lat="43.4685917" lon="11.8570917"><ele>245.28571428571428</ele><time>2026-05-03T10:30:57.654Z</time></trkpt><trkpt lat="43.4685983" lon="11.8569867"><ele>245.14285714285714</ele><time>2026-05-03T10:30:58.664Z</time></trkpt><trkpt lat="43.4686033" lon="11.8568717"><ele>245.0</ele><time>2026-05-03T10:30:59.672Z</time></trkpt><trkpt lat="43.4686083" lon="11.8567517"><ele>245.33333333333334</ele><time>2026-05-03T10:31:00.658Z</time></trkpt><trkpt lat="43.4686133" lon="11.85663"><ele>245.66666666666669</ele><time>2026-05-03T10:31:01.689Z</time></trkpt><trkpt lat="43.46862" lon="11.8565083"><ele>246.0</ele><time>2026-05-03T10:31:02.688Z</time></trkpt><trkpt lat="43.4686317" lon="11.8563767"><ele>246.33333333333331</ele><time>2026-05-03T10:31:03.677Z</time></trkpt><trkpt lat="43.4686533" lon="11.8562617"><ele>246.66666666666666</ele><time>2026-05-03T10:31:04.654Z</time></trkpt><trkpt lat="43.468685" lon="11.85616"><ele>247.0</ele><time>2026-05-03T10:31:05.647Z</time></trkpt><trkpt lat="43.4687383" lon="11.8560783"><ele>247.0</ele><time>2026-05-03T10:31:06.648Z</time></trkpt><trkpt lat="43.4687933" lon="11.8560283"><ele>247.0</ele><time>2026-05-03T10:31:07.662Z</time></trkpt><trkpt lat="43.4688533" lon="11.8559933"><ele>247.0</ele><time>2026-05-03T10:31:08.663Z</time></trkpt><trkpt lat="43.4689233" lon="11.855965"><ele>247.0</ele><time>2026-05-03T10:31:09.659Z</time></trkpt><trkpt lat="43.4690017" lon="11.8559467"><ele>247.0</ele><time>2026-05-03T10:31:10.679Z</time></trkpt><trkpt lat="43.4690783" lon="11.8559517"><ele>247.0</ele><time>2026-05-03T10:31:11.706Z</time></trkpt><trkpt lat="43.46915" lon="11.8559733"><ele>247.0</ele><time>2026-05-03T10:31:12.657Z</time></trkpt><trkpt lat="43.4692067" lon="11.8560133"><ele>246.83333333333331</ele><time>2026-05-03T10:31:13.653Z</time></trkpt><trkpt lat="43.469255" lon="11.856075"><ele>246.66666666666666</ele><time>2026-05-03T10:31:14.653Z</time></trkpt><trkpt lat="43.4692983" lon="11.85621"><ele>246.5</ele><time>2026-05-03T10:31:16.652Z</time></trkpt><trkpt lat="43.4693083" lon="11.8563017"><ele>246.33333333333331</ele><time>2026-05-03T10:31:17.667Z</time></trkpt><trkpt lat="43.4693017" lon="11.856405"><ele>246.16666666666666</ele><time>2026-05-03T10:31:18.654Z</time></trkpt><trkpt lat="43.4692783" lon="11.8565083"><ele>246.0</ele><time>2026-05-03T10:31:19.65Z</time></trkpt><trkpt lat="43.4692317" lon="11.8566"><ele>246.0</ele><time>2026-05-03T10:31:20.662Z</time></trkpt><trkpt lat="43.4691817" lon="11.8566717"><ele>246.0</ele><time>2026-05-03T10:31:21.672Z</time></trkpt><trkpt lat="43.46912" lon="11.8567183"><ele>246.0</ele><time>2026-05-03T10:31:22.665Z</time></trkpt><trkpt lat="43.4690383" lon="11.85673"><ele>246.0</ele><time>2026-05-03T10:31:23.68Z</time></trkpt><trkpt lat="43.468945" lon="11.8567183"><ele>246.0</ele><time>2026-05-03T10:31:24.674Z</time></trkpt><trkpt lat="43.468845" lon="11.8567"><ele>246.0</ele><time>2026-05-03T10:31:25.672Z</time></trkpt><trkpt lat="43.4687417" lon="11.8566917"><ele>246.20000000000002</ele><time>2026-05-03T10:31:26.666Z</time></trkpt><trkpt lat="43.468635" lon="11.8566817"><ele>246.40000000000003</ele><time>2026-05-03T10:31:27.713Z</time></trkpt><trkpt lat="43.46852" lon="11.85668"><ele>246.6</ele><time>2026-05-03T10:31:28.665Z</time></trkpt><trkpt lat="43.468405" lon="11.8566683"><ele>246.8</ele><time>2026-05-03T10:31:29.662Z</time></trkpt><trkpt lat="43.4683067" lon="11.8566317"><ele>247.0</ele><time>2026-05-03T10:31:30.661Z</time></trkpt><trkpt lat="43.4682367" lon="11.8565967"><ele>247.0</ele><time>2026-05-03T10:31:31.667Z</time></trkpt><trkpt lat="43.46816" lon="11.8565167"><ele>247.0</ele><time>2026-05-03T10:31:32.646Z</time></trkpt><trkpt lat="43.46811" lon="11.8564"><ele>247.0</ele><time>2026-05-03T10:31:33.644Z</time></trkpt><trkpt lat="43.4680883" lon="11.8562733"><ele>247.0</ele><time>2026-05-03T10:31:34.66Z</time></trkpt><trkpt lat="43.4681017" lon="11.8561417"><ele>247.0</ele><time>2026-05-03T10:31:35.651Z</time></trkpt><trkpt lat="43.4681467" lon="11.856005"><ele>247.0</ele><time>2026-05-03T10:31:36.654Z</time></trkpt><trkpt lat="43.4682133" lon="11.855885"><ele>247.0</ele><time>2026-05-03T10:31:37.677Z</time></trkpt><trkpt lat="43.468285" lon="11.8557617"><ele>247.0</ele><time>2026-05-03T10:31:38.664Z</time></trkpt><trkpt lat="43.4683533" lon="11.8556383"><ele>247.0</ele><time>2026-05-03T10:31:39.654Z</time></trkpt><trkpt lat="43.4684017" lon="11.8554917"><ele>247.0</ele><time>2026-05-03T10:31:40.659Z</time></trkpt><trkpt lat="43.4684333" lon="11.8553283"><ele>247.0</ele><time>2026-05-03T10:31:41.663Z</time></trkpt><trkpt lat="43.4684533" lon="11.8551517"><ele>247.0</ele><time>2026-05-03T10:31:42.648Z</time></trkpt><trkpt lat="43.4684717" lon="11.85496"><ele>247.0</ele><time>2026-05-03T10:31:43.657Z</time></trkpt><trkpt lat="43.4684833" lon="11.8547617"><ele>246.66666666666666</ele><time>2026-05-03T10:31:44.649Z</time></trkpt><trkpt lat="43.4684867" lon="11.854555"><ele>246.33333333333331</ele><time>2026-05-03T10:31:45.651Z</time></trkpt><trkpt lat="43.46848" lon="11.8543467"><ele>246.0</ele><time>2026-05-03T10:31:46.647Z</time></trkpt><trkpt lat="43.4684683" lon="11.854135"><ele>246.0</ele><time>2026-05-03T10:31:47.646Z</time></trkpt><trkpt lat="43.4684533" lon="11.8539217"><ele>246.0</ele><time>2026-05-03T10:31:48.656Z</time></trkpt><trkpt lat="43.4684383" lon="11.853705"><ele>246.0</ele><time>2026-05-03T10:31:49.662Z</time></trkpt><trkpt lat="43.4684233" lon="11.8534767"><ele>247.0</ele><time>2026-05-03T10:31:50.672Z</time></trkpt><trkpt lat="43.4684067" lon="11.8532483"><ele>248.0</ele><time>2026-05-03T10:31:51.674Z</time></trkpt><trkpt lat="43.4683883" lon="11.85303"><ele>249.0</ele><time>2026-05-03T10:31:52.666Z</time></trkpt><trkpt lat="43.468365" lon="11.8528183"><ele>249.25</ele><time>2026-05-03T10:31:53.653Z</time></trkpt><trkpt lat="43.4683333" lon="11.85262"><ele>249.5</ele><time>2026-05-03T10:31:54.657Z</time></trkpt><trkpt lat="43.46829" lon="11.85243"><ele>249.75</ele><time>2026-05-03T10:31:55.663Z</time></trkpt><trkpt lat="43.4682317" lon="11.85225"><ele>250.0</ele><time>2026-05-03T10:31:56.652Z</time></trkpt><trkpt lat="43.4681567" lon="11.8520733"><ele>250.0</ele><time>2026-05-03T10:31:57.652Z</time></trkpt><trkpt lat="43.4680733" lon="11.8519067"><ele>250.0</ele><time>2026-05-03T10:31:58.654Z</time></trkpt><trkpt lat="43.46798" lon="11.85177"><ele>250.0</ele><time>2026-05-03T10:31:59.649Z</time></trkpt><trkpt lat="43.467875" lon="11.8516533"><ele>250.0</ele><time>2026-05-03T10:32:00.653Z</time></trkpt><trkpt lat="43.4677733" lon="11.8515483"><ele>249.6</ele><time>2026-05-03T10:32:01.655Z</time></trkpt><trkpt lat="43.4676983" lon="11.8514283"><ele>249.2</ele><time>2026-05-03T10:32:02.651Z</time></trkpt><trkpt lat="43.46765" lon="11.851295"><ele>248.8</ele><time>2026-05-03T10:32:03.652Z</time></trkpt><trkpt lat="43.46762" lon="11.851165"><ele>248.4</ele><time>2026-05-03T10:32:04.649Z</time></trkpt><trkpt lat="43.4676033" lon="11.85105"><ele>248.0</ele><time>2026-05-03T10:32:05.674Z</time></trkpt><trkpt lat="43.4675917" lon="11.85094"><ele>248.00000000000003</ele><time>2026-05-03T10:32:06.653Z</time></trkpt><trkpt lat="43.46759" lon="11.8508233"><ele>248.0</ele><time>2026-05-03T10:32:07.654Z</time></trkpt><trkpt lat="43.4675933" lon="11.8507133"><ele>248.0</ele><time>2026-05-03T10:32:08.657Z</time></trkpt><trkpt lat="43.4675967" lon="11.8506217"><ele>248.0</ele><time>2026-05-03T10:32:09.655Z</time></trkpt><trkpt lat="43.4675933" lon="11.8504783"><ele>248.00000000000003</ele><time>2026-05-03T10:32:11.654Z</time></trkpt><trkpt lat="43.467615" lon="11.8503467"><ele>248.0</ele><time>2026-05-03T10:32:29.66Z</time></trkpt><trkpt lat="43.4676083" lon="11.8502217"><ele>248.0</ele><time>2026-05-03T10:32:32.641Z</time></trkpt><trkpt lat="43.467545" lon="11.8501117"><ele>248.0</ele><time>2026-05-03T10:32:34.649Z</time></trkpt><trkpt lat="43.467425" lon="11.850065"><ele>248.0</ele><time>2026-05-03T10:32:36.651Z</time></trkpt><trkpt lat="43.4673383" lon="11.85007"><ele>248.0</ele><time>2026-05-03T10:32:37.691Z</time></trkpt><trkpt lat="43.46723" lon="11.850085"><ele>248.0</ele><time>2026-05-03T10:32:38.737Z</time></trkpt><trkpt lat="43.467115" lon="11.8500983"><ele>248.0</ele><time>2026-05-03T10:32:39.731Z</time></trkpt><trkpt lat="43.4669867" lon="11.8501083"><ele>248.0</ele><time>2026-05-03T10:32:40.661Z</time></trkpt><trkpt lat="43.4668417" lon="11.8501233"><ele>248.0</ele><time>2026-05-03T10:32:41.684Z</time></trkpt><trkpt lat="43.4666883" lon="11.8501433"><ele>248.0</ele><time>2026-05-03T10:32:42.715Z</time></trkpt><trkpt lat="43.466535" lon="11.8501533"><ele>248.33333333333334</ele><time>2026-05-03T10:32:43.695Z</time></trkpt><trkpt lat="43.4663783" lon="11.8501583"><ele>248.66666666666669</ele><time>2026-05-03T10:32:44.697Z</time></trkpt><trkpt lat="43.4662217" lon="11.850155"><ele>249.0</ele><time>2026-05-03T10:32:45.748Z</time></trkpt><trkpt lat="43.4660717" lon="11.8501617"><ele>249.0</ele><time>2026-05-03T10:32:46.771Z</time></trkpt><trkpt lat="43.4659267" lon="11.8501683"><ele>249.0</ele><time>2026-05-03T10:32:47.699Z</time></trkpt><trkpt lat="43.4657917" lon="11.850175"><ele>249.0</ele><time>2026-05-03T10:32:48.708Z</time></trkpt><trkpt lat="43.4656583" lon="11.85019"><ele>249.0</ele><time>2026-05-03T10:32:49.674Z</time></trkpt><trkpt lat="43.4655267" lon="11.8501983"><ele>248.5</ele><time>2026-05-03T10:32:50.706Z</time></trkpt><trkpt lat="43.465395" lon="11.850205"><ele>248.0</ele><time>2026-05-03T10:32:51.671Z</time></trkpt><trkpt lat="43.4652583" lon="11.8502133"><ele>247.5</ele><time>2026-05-03T10:32:52.685Z</time></trkpt><trkpt lat="43.46511" lon="11.8502283"><ele>247.0</ele><time>2026-05-03T10:32:53.67Z</time></trkpt><trkpt lat="43.4649583" lon="11.85024"><ele>247.0</ele><time>2026-05-03T10:32:54.702Z</time></trkpt><trkpt lat="43.4647933" lon="11.85025"><ele>247.0</ele><time>2026-05-03T10:32:55.693Z</time></trkpt><trkpt lat="43.4646217" lon="11.85026"><ele>247.0</ele><time>2026-05-03T10:32:56.662Z</time></trkpt><trkpt lat="43.4644533" lon="11.8502817"><ele>247.33333333333331</ele><time>2026-05-03T10:32:57.661Z</time></trkpt><trkpt lat="43.4642917" lon="11.8503"><ele>247.66666666666669</ele><time>2026-05-03T10:32:58.667Z</time></trkpt><trkpt lat="43.464135" lon="11.850315"><ele>248.0</ele><time>2026-05-03T10:32:59.672Z</time></trkpt><trkpt lat="43.463995" lon="11.85033"><ele>248.0</ele><time>2026-05-03T10:33:00.671Z</time></trkpt><trkpt lat="43.4638633" lon="11.850345"><ele>248.0</ele><time>2026-05-03T10:33:01.648Z</time></trkpt><trkpt lat="43.46374" lon="11.8503617"><ele>248.0</ele><time>2026-05-03T10:33:02.669Z</time></trkpt><trkpt lat="43.463615" lon="11.850345"><ele>248.0</ele><time>2026-05-03T10:33:03.656Z</time></trkpt><trkpt lat="43.4635083" lon="11.8502917"><ele>248.2</ele><time>2026-05-03T10:33:04.652Z</time></trkpt><trkpt lat="43.46341" lon="11.8502333"><ele>248.4</ele><time>2026-05-03T10:33:05.652Z</time></trkpt><trkpt lat="43.4633133" lon="11.8501783"><ele>248.59999999999997</ele><time>2026-05-03T10:33:06.664Z</time></trkpt><trkpt lat="43.4632183" lon="11.85016"><ele>248.79999999999998</ele><time>2026-05-03T10:33:07.648Z</time></trkpt><trkpt lat="43.463125" lon="11.8501767"><ele>249.0</ele><time>2026-05-03T10:33:08.654Z</time></trkpt><trkpt lat="43.4630333" lon="11.8502317"><ele>249.0</ele><time>2026-05-03T10:33:09.647Z</time></trkpt><trkpt lat="43.462935" lon="11.850315"><ele>249.0</ele><time>2026-05-03T10:33:10.654Z</time></trkpt><trkpt lat="43.462835" lon="11.8504083"><ele>249.0</ele><time>2026-05-03T10:33:11.652Z</time></trkpt><trkpt lat="43.4627217" lon="11.8504967"><ele>249.0</ele><time>2026-05-03T10:33:12.701Z</time></trkpt><trkpt lat="43.4625983" lon="11.850565"><ele>249.0</ele><time>2026-05-03T10:33:13.661Z</time></trkpt><trkpt lat="43.4624633" lon="11.850605"><ele>249.0</ele><time>2026-05-03T10:33:14.662Z</time></trkpt><trkpt lat="43.462335" lon="11.8506383"><ele>249.0</ele><time>2026-05-03T10:33:15.653Z</time></trkpt><trkpt lat="43.4622" lon="11.8506683"><ele>249.0</ele><time>2026-05-03T10:33:16.663Z</time></trkpt><trkpt lat="43.4620683" lon="11.850705"><ele>248.75</ele><time>2026-05-03T10:33:17.674Z</time></trkpt><trkpt lat="43.4619417" lon="11.8507383"><ele>248.5</ele><time>2026-05-03T10:33:18.669Z</time></trkpt><trkpt lat="43.4618183" lon="11.8507717"><ele>248.25</ele><time>2026-05-03T10:33:19.648Z</time></trkpt><trkpt lat="43.4616983" lon="11.8508033"><ele>248.0</ele><time>2026-05-03T10:33:20.648Z</time></trkpt><trkpt lat="43.4615833" lon="11.850835"><ele>248.0</ele><time>2026-05-03T10:33:21.654Z</time></trkpt><trkpt lat="43.4614733" lon="11.8508583"><ele>248.0</ele><time>2026-05-03T10:33:22.652Z</time></trkpt><trkpt lat="43.4613517" lon="11.850885"><ele>248.0</ele><time>2026-05-03T10:33:23.645Z</time></trkpt><trkpt lat="43.46123" lon="11.8509217"><ele>248.0</ele><time>2026-05-03T10:33:24.671Z</time></trkpt><trkpt lat="43.4611133" lon="11.850955"><ele>247.5</ele><time>2026-05-03T10:33:25.639Z</time></trkpt><trkpt lat="43.46099" lon="11.850985"><ele>247.0</ele><time>2026-05-03T10:33:26.644Z</time></trkpt><trkpt lat="43.46086" lon="11.8510167"><ele>246.5</ele><time>2026-05-03T10:33:27.659Z</time></trkpt><trkpt lat="43.4607217" lon="11.851055"><ele>246.0</ele><time>2026-05-03T10:33:28.655Z</time></trkpt><trkpt lat="43.46058" lon="11.8510917"><ele>246.66666666666669</ele><time>2026-05-03T10:33:29.64Z</time></trkpt><trkpt lat="43.4604283" lon="11.8511333"><ele>247.33333333333334</ele><time>2026-05-03T10:33:30.662Z</time></trkpt><trkpt lat="43.4602717" lon="11.8511817"><ele>248.0</ele><time>2026-05-03T10:33:31.646Z</time></trkpt><trkpt lat="43.4601167" lon="11.8512483"><ele>248.0</ele><time>2026-05-03T10:33:32.656Z</time></trkpt><trkpt lat="43.45996" lon="11.8513333"><ele>248.0</ele><time>2026-05-03T10:33:33.654Z</time></trkpt><trkpt lat="43.459805" lon="11.8514467"><ele>248.0</ele><time>2026-05-03T10:33:34.653Z</time></trkpt><trkpt lat="43.4596567" lon="11.85159"><ele>248.0</ele><time>2026-05-03T10:33:35.643Z</time></trkpt><trkpt lat="43.4595133" lon="11.8517467"><ele>248.0</ele><time>2026-05-03T10:33:36.654Z</time></trkpt><trkpt lat="43.4593833" lon="11.8519167"><ele>248.0</ele><time>2026-05-03T10:33:37.646Z</time></trkpt><trkpt lat="43.45927" lon="11.8521"><ele>248.0</ele><time>2026-05-03T10:33:38.653Z</time></trkpt><trkpt lat="43.4591733" lon="11.85228"><ele>248.0</ele><time>2026-05-03T10:33:39.66Z</time></trkpt><trkpt lat="43.4590867" lon="11.852445"><ele>248.0</ele><time>2026-05-03T10:33:40.651Z</time></trkpt><trkpt lat="43.45901" lon="11.8525983"><ele>248.0</ele><time>2026-05-03T10:33:41.658Z</time></trkpt><trkpt lat="43.45894" lon="11.85273"><ele>248.0</ele><time>2026-05-03T10:33:42.672Z</time></trkpt><trkpt lat="43.4588717" lon="11.8528433"><ele>248.0</ele><time>2026-05-03T10:33:43.653Z</time></trkpt><trkpt lat="43.458825" lon="11.8529383"><ele>248.0</ele><time>2026-05-03T10:33:44.647Z</time></trkpt><trkpt lat="43.4587433" lon="11.853035"><ele>248.0</ele><time>2026-05-03T10:33:46.644Z</time></trkpt><trkpt lat="43.458655" lon="11.8530133"><ele>248.0</ele><time>2026-05-03T10:33:48.696Z</time></trkpt><trkpt lat="43.458595" lon="11.85297"><ele>248.0</ele><time>2026-05-03T10:33:49.662Z</time></trkpt><trkpt lat="43.4585267" lon="11.852915"><ele>248.0</ele><time>2026-05-03T10:33:50.654Z</time></trkpt><trkpt lat="43.4584533" lon="11.852845"><ele>248.0</ele><time>2026-05-03T10:33:51.659Z</time></trkpt><trkpt lat="43.458375" lon="11.8527733"><ele>248.0</ele><time>2026-05-03T10:33:52.641Z</time></trkpt><trkpt lat="43.45829" lon="11.8527017"><ele>248.0</ele><time>2026-05-03T10:33:53.66Z</time></trkpt><trkpt lat="43.4582" lon="11.8526183"><ele>248.0</ele><time>2026-05-03T10:33:54.641Z</time></trkpt><trkpt lat="43.45812" lon="11.85251"><ele>248.0</ele><time>2026-05-03T10:33:55.655Z</time></trkpt><trkpt lat="43.4580467" lon="11.8523917"><ele>248.0</ele><time>2026-05-03T10:33:56.663Z</time></trkpt><trkpt lat="43.4579867" lon="11.8522633"><ele>248.0</ele><time>2026-05-03T10:33:57.666Z</time></trkpt><trkpt lat="43.4579367" lon="11.85213"><ele>248.0</ele><time>2026-05-03T10:33:58.652Z</time></trkpt><trkpt lat="43.4579083" lon="11.851985"><ele>248.0</ele><time>2026-05-03T10:33:59.653Z</time></trkpt><trkpt lat="43.457895" lon="11.8518333"><ele>248.0</ele><time>2026-05-03T10:34:00.652Z</time></trkpt><trkpt lat="43.4578867" lon="11.8516883"><ele>248.0</ele><time>2026-05-03T10:34:01.652Z</time></trkpt><trkpt lat="43.45788" lon="11.8515383"><ele>248.0</ele><time>2026-05-03T10:34:02.653Z</time></trkpt><trkpt lat="43.4578817" lon="11.8513967"><ele>248.0</ele><time>2026-05-03T10:34:03.646Z</time></trkpt><trkpt lat="43.45788" lon="11.8512767"><ele>247.83333333333334</ele><time>2026-05-03T10:34:04.659Z</time></trkpt><trkpt lat="43.4578783" lon="11.8511883"><ele>247.66666666666669</ele><time>2026-05-03T10:34:05.653Z</time></trkpt><trkpt lat="43.4578633" lon="11.8510783"><ele>247.5</ele><time>2026-05-03T10:34:07.659Z</time></trkpt><trkpt lat="43.4577767" lon="11.85106"><ele>247.33333333333331</ele><time>2026-05-03T10:34:10.665Z</time></trkpt><trkpt lat="43.4576783" lon="11.8510783"><ele>247.16666666666666</ele><time>2026-05-03T10:34:13.657Z</time></trkpt><trkpt lat="43.4575917" lon="11.8511033"><ele>247.0</ele><time>2026-05-03T10:34:15.665Z</time></trkpt><trkpt lat="43.4575" lon="11.8511183"><ele>247.0</ele><time>2026-05-03T10:34:17.663Z</time></trkpt><trkpt lat="43.4574067" lon="11.8511533"><ele>247.0</ele><time>2026-05-03T10:34:19.657Z</time></trkpt><trkpt lat="43.457295" lon="11.8511767"><ele>247.0</ele><time>2026-05-03T10:34:21.65Z</time></trkpt><trkpt lat="43.45719" lon="11.85115"><ele>247.0</ele><time>2026-05-03T10:34:23.654Z</time></trkpt><trkpt lat="43.4570883" lon="11.8511"><ele>247.0</ele><time>2026-05-03T10:34:25.659Z</time></trkpt><trkpt lat="43.457" lon="11.8510417"><ele>247.16666666666666</ele><time>2026-05-03T10:34:27.661Z</time></trkpt><trkpt lat="43.456915" lon="11.8509867"><ele>247.33333333333331</ele><time>2026-05-03T10:34:29.647Z</time></trkpt><trkpt lat="43.456835" lon="11.8509417"><ele>247.5</ele><time>2026-05-03T10:34:31.661Z</time></trkpt><trkpt lat="43.45676" lon="11.8509567"><ele>247.66666666666669</ele><time>2026-05-03T10:34:33.654Z</time></trkpt><trkpt lat="43.45672" lon="11.8510517"><ele>247.83333333333334</ele><time>2026-05-03T10:34:35.661Z</time></trkpt><trkpt lat="43.4566817" lon="11.85116"><ele>248.0</ele><time>2026-05-03T10:34:37.651Z</time></trkpt><trkpt lat="43.4566317" lon="11.85126"><ele>248.00000000000003</ele><time>2026-05-03T10:34:39.659Z</time></trkpt><trkpt lat="43.4565917" lon="11.8513567"><ele>248.0</ele><time>2026-05-03T10:34:41.653Z</time></trkpt><trkpt lat="43.4565583" lon="11.8514467"><ele>248.0</ele><time>2026-05-03T10:34:43.66Z</time></trkpt><trkpt lat="43.4565167" lon="11.8515467"><ele>248.0</ele><time>2026-05-03T10:34:45.659Z</time></trkpt><trkpt lat="43.4564783" lon="11.8516383"><ele>248.00000000000003</ele><time>2026-05-03T10:34:47.66Z</time></trkpt><trkpt lat="43.4564333" lon="11.851725"><ele>248.0</ele><time>2026-05-03T10:34:49.654Z</time></trkpt><trkpt lat="43.4563767" lon="11.851875"><ele>248.00000000000003</ele><time>2026-05-03T10:34:51.651Z</time></trkpt><trkpt lat="43.4563433" lon="11.85196"><ele>248.0</ele><time>2026-05-03T10:34:52.64Z</time></trkpt><trkpt lat="43.4563033" lon="11.8520533"><ele>248.0</ele><time>2026-05-03T10:34:53.652Z</time></trkpt><trkpt lat="43.4562683" lon="11.8521483"><ele>248.0</ele><time>2026-05-03T10:34:54.652Z</time></trkpt><trkpt lat="43.45623" lon="11.8522433"><ele>248.00000000000003</ele><time>2026-05-03T10:34:55.653Z</time></trkpt><trkpt lat="43.4561867" lon="11.8523333"><ele>248.0</ele><time>2026-05-03T10:34:56.65Z</time></trkpt><trkpt lat="43.4561433" lon="11.85244"><ele>248.00000000000003</ele><time>2026-05-03T10:34:57.651Z</time></trkpt><trkpt lat="43.4561" lon="11.852545"><ele>248.0</ele><time>2026-05-03T10:34:58.655Z</time></trkpt><trkpt lat="43.4560617" lon="11.8526467"><ele>248.0</ele><time>2026-05-03T10:34:59.653Z</time></trkpt><trkpt lat="43.4560183" lon="11.8527533"><ele>248.0</ele><time>2026-05-03T10:35:00.643Z</time></trkpt><trkpt lat="43.45597" lon="11.8528483"><ele>248.00000000000003</ele><time>2026-05-03T10:35:01.651Z</time></trkpt><trkpt lat="43.4559233" lon="11.8529433"><ele>248.0</ele><time>2026-05-03T10:35:02.655Z</time></trkpt><trkpt lat="43.4558767" lon="11.8530317"><ele>248.16666666666669</ele><time>2026-05-03T10:35:03.657Z</time></trkpt><trkpt lat="43.4558217" lon="11.8531"><ele>248.33333333333334</ele><time>2026-05-03T10:35:04.658Z</time></trkpt><trkpt lat="43.455775" lon="11.8531683"><ele>248.5</ele><time>2026-05-03T10:35:05.653Z</time></trkpt><trkpt lat="43.455725" lon="11.85323"><ele>248.66666666666669</ele><time>2026-05-03T10:35:06.653Z</time></trkpt><trkpt lat="43.455645" lon="11.8533317"><ele>248.83333333333334</ele><time>2026-05-03T10:35:08.641Z</time></trkpt><trkpt lat="43.4555583" lon="11.853355"><ele>249.0</ele><time>2026-05-03T10:35:11.653Z</time></trkpt><trkpt lat="43.45549" lon="11.8533017"><ele>249.0</ele><time>2026-05-03T10:35:13.669Z</time></trkpt><trkpt lat="43.455415" lon="11.8532233"><ele>248.99999999999997</ele><time>2026-05-03T10:35:15.645Z</time></trkpt><trkpt lat="43.455315" lon="11.8531383"><ele>248.99999999999997</ele><time>2026-05-03T10:35:17.656Z</time></trkpt><trkpt lat="43.45522" lon="11.8530633"><ele>249.0</ele><time>2026-05-03T10:35:19.647Z</time></trkpt><trkpt lat="43.4551333" lon="11.853"><ele>249.0</ele><time>2026-05-03T10:35:21.654Z</time></trkpt><trkpt lat="43.4550433" lon="11.852935"><ele>249.0</ele><time>2026-05-03T10:35:23.649Z</time></trkpt><trkpt lat="43.454965" lon="11.8528717"><ele>248.99999999999997</ele><time>2026-05-03T10:35:25.645Z</time></trkpt><trkpt lat="43.45488" lon="11.8528133"><ele>248.99999999999997</ele><time>2026-05-03T10:35:27.644Z</time></trkpt><trkpt lat="43.454795" lon="11.852765"><ele>249.0</ele><time>2026-05-03T10:35:29.643Z</time></trkpt><trkpt lat="43.4547033" lon="11.8526933"><ele>249.0</ele><time>2026-05-03T10:35:31.642Z</time></trkpt><trkpt lat="43.4546033" lon="11.85261"><ele>249.0</ele><time>2026-05-03T10:35:33.645Z</time></trkpt><trkpt lat="43.4545483" lon="11.8525633"><ele>249.0</ele><time>2026-05-03T10:35:34.658Z</time></trkpt><trkpt lat="43.4544867" lon="11.8525067"><ele>249.0</ele><time>2026-05-03T10:35:35.653Z</time></trkpt><trkpt lat="43.454425" lon="11.8524633"><ele>249.0</ele><time>2026-05-03T10:35:36.66Z</time></trkpt><trkpt lat="43.4543667" lon="11.85242"><ele>249.0</ele><time>2026-05-03T10:35:37.659Z</time></trkpt><trkpt lat="43.45431" lon="11.8523783"><ele>249.0</ele><time>2026-05-03T10:35:38.65Z</time></trkpt><trkpt lat="43.454195" lon="11.8522983"><ele>249.0</ele><time>2026-05-03T10:35:40.655Z</time></trkpt><trkpt lat="43.4541317" lon="11.8522467"><ele>248.99999999999997</ele><time>2026-05-03T10:35:41.648Z</time></trkpt><trkpt lat="43.4540767" lon="11.8521983"><ele>249.0</ele><time>2026-05-03T10:35:42.66Z</time></trkpt><trkpt lat="43.4540133" lon="11.8521533"><ele>249.0</ele><time>2026-05-03T10:35:43.655Z</time></trkpt><trkpt lat="43.4539517" lon="11.8521117"><ele>248.99999999999997</ele><time>2026-05-03T10:35:44.649Z</time></trkpt><trkpt lat="43.4538867" lon="11.8520583"><ele>249.0</ele><time>2026-05-03T10:35:45.667Z</time></trkpt><trkpt lat="43.4538267" lon="11.8520033"><ele>249.0</ele><time>2026-05-03T10:35:46.652Z</time></trkpt><trkpt lat="43.4537667" lon="11.8519533"><ele>249.0</ele><time>2026-05-03T10:35:47.654Z</time></trkpt><trkpt lat="43.453695" lon="11.8518983"><ele>249.0</ele><time>2026-05-03T10:35:48.654Z</time></trkpt><trkpt lat="43.4536217" lon="11.8518483"><ele>249.0</ele><time>2026-05-03T10:35:49.649Z</time></trkpt><trkpt lat="43.4535483" lon="11.8518017"><ele>249.0</ele><time>2026-05-03T10:35:50.649Z</time></trkpt><trkpt lat="43.45348" lon="11.851755"><ele>249.0</ele><time>2026-05-03T10:35:51.65Z</time></trkpt><trkpt lat="43.4534117" lon="11.8516983"><ele>249.0</ele><time>2026-05-03T10:35:52.672Z</time></trkpt><trkpt lat="43.4533517" lon="11.8516433"><ele>249.0</ele><time>2026-05-03T10:35:53.65Z</time></trkpt><trkpt lat="43.4532867" lon="11.8515967"><ele>249.0</ele><time>2026-05-03T10:35:54.682Z</time></trkpt><trkpt lat="43.4532167" lon="11.8515417"><ele>249.0</ele><time>2026-05-03T10:35:55.667Z</time></trkpt><trkpt lat="43.453145" lon="11.8514833"><ele>249.0</ele><time>2026-05-03T10:35:56.699Z</time></trkpt><trkpt lat="43.4530767" lon="11.8514333"><ele>249.0</ele><time>2026-05-03T10:35:57.664Z</time></trkpt><trkpt lat="43.4530117" lon="11.8513817"><ele>249.0</ele><time>2026-05-03T10:35:58.665Z</time></trkpt><trkpt lat="43.45295" lon="11.8513317"><ele>248.85714285714283</ele><time>2026-05-03T10:35:59.663Z</time></trkpt><trkpt lat="43.4528817" lon="11.8512717"><ele>248.7142857142857</ele><time>2026-05-03T10:36:00.666Z</time></trkpt><trkpt lat="43.4528117" lon="11.851215"><ele>248.57142857142856</ele><time>2026-05-03T10:36:01.683Z</time></trkpt><trkpt lat="43.4527433" lon="11.8511667"><ele>248.42857142857144</ele><time>2026-05-03T10:36:02.655Z</time></trkpt><trkpt lat="43.45268" lon="11.8511233"><ele>248.2857142857143</ele><time>2026-05-03T10:36:03.646Z</time></trkpt><trkpt lat="43.45262" lon="11.8510783"><ele>248.14285714285717</ele><time>2026-05-03T10:36:04.652Z</time></trkpt><trkpt lat="43.4525583" lon="11.8510317"><ele>248.0</ele><time>2026-05-03T10:36:05.649Z</time></trkpt><trkpt lat="43.4525" lon="11.8509883"><ele>248.00000000000003</ele><time>2026-05-03T10:36:06.645Z</time></trkpt><trkpt lat="43.452395" lon="11.8509017"><ele>248.0</ele><time>2026-05-03T10:36:08.678Z</time></trkpt><trkpt lat="43.4523367" lon="11.8508533"><ele>248.0</ele><time>2026-05-03T10:36:09.652Z</time></trkpt><trkpt lat="43.4522267" lon="11.8507917"><ele>248.0</ele><time>2026-05-03T10:36:11.703Z</time></trkpt><trkpt lat="43.4521633" lon="11.8507783"><ele>248.00000000000003</ele><time>2026-05-03T10:36:12.711Z</time></trkpt><trkpt lat="43.4520933" lon="11.8507767"><ele>248.0</ele><time>2026-05-03T10:36:13.69Z</time></trkpt><trkpt lat="43.452015" lon="11.8507633"><ele>248.00000000000003</ele><time>2026-05-03T10:36:14.637Z</time></trkpt><trkpt lat="43.4519283" lon="11.85075"><ele>248.0</ele><time>2026-05-03T10:36:15.647Z</time></trkpt><trkpt lat="43.45184" lon="11.850735"><ele>248.0</ele><time>2026-05-03T10:36:16.655Z</time></trkpt><trkpt lat="43.4517633" lon="11.8507233"><ele>248.0</ele><time>2026-05-03T10:36:17.66Z</time></trkpt><trkpt lat="43.4516767" lon="11.85071"><ele>248.00000000000003</ele><time>2026-05-03T10:36:18.658Z</time></trkpt><trkpt lat="43.4515867" lon="11.8506967"><ele>248.0</ele><time>2026-05-03T10:36:19.656Z</time></trkpt><trkpt lat="43.4514883" lon="11.8506767"><ele>248.0</ele><time>2026-05-03T10:36:20.653Z</time></trkpt><trkpt lat="43.4513917" lon="11.8506517"><ele>248.0</ele><time>2026-05-03T10:36:21.648Z</time></trkpt><trkpt lat="43.451295" lon="11.8506367"><ele>248.0</ele><time>2026-05-03T10:36:22.65Z</time></trkpt><trkpt lat="43.4511983" lon="11.8506167"><ele>248.0</ele><time>2026-05-03T10:36:23.645Z</time></trkpt><trkpt lat="43.451105" lon="11.8505967"><ele>248.0</ele><time>2026-05-03T10:36:24.656Z</time></trkpt><trkpt lat="43.45101" lon="11.8505767"><ele>248.16666666666669</ele><time>2026-05-03T10:36:25.67Z</time></trkpt><trkpt lat="43.4509217" lon="11.8505583"><ele>248.33333333333334</ele><time>2026-05-03T10:36:26.684Z</time></trkpt><trkpt lat="43.4508417" lon="11.85054"><ele>248.5</ele><time>2026-05-03T10:36:27.672Z</time></trkpt><trkpt lat="43.4507717" lon="11.8505283"><ele>248.66666666666669</ele><time>2026-05-03T10:36:28.685Z</time></trkpt><trkpt lat="43.4506717" lon="11.8505333"><ele>248.83333333333334</ele><time>2026-05-03T10:36:30.646Z</time></trkpt><trkpt lat="43.4506317" lon="11.850455"><ele>249.0</ele><time>2026-05-03T10:36:45.648Z</time></trkpt><trkpt lat="43.45065" lon="11.8503517"><ele>249.0</ele><time>2026-05-03T10:36:47.692Z</time></trkpt><trkpt lat="43.4506733" lon="11.8502217"><ele>248.99999999999997</ele><time>2026-05-03T10:36:49.65Z</time></trkpt><trkpt lat="43.450705" lon="11.850075"><ele>248.99999999999997</ele><time>2026-05-03T10:36:51.652Z</time></trkpt><trkpt lat="43.4507367" lon="11.8499117"><ele>249.0</ele><time>2026-05-03T10:36:53.652Z</time></trkpt><trkpt lat="43.4507567" lon="11.8498183"><ele>249.0</ele><time>2026-05-03T10:36:54.644Z</time></trkpt><trkpt lat="43.4507733" lon="11.849725"><ele>249.0</ele><time>2026-05-03T10:36:55.652Z</time></trkpt><trkpt lat="43.450785" lon="11.8496217"><ele>249.0</ele><time>2026-05-03T10:36:56.65Z</time></trkpt><trkpt lat="43.4507983" lon="11.8495167"><ele>249.0</ele><time>2026-05-03T10:36:57.651Z</time></trkpt><trkpt lat="43.4508133" lon="11.8494117"><ele>249.0</ele><time>2026-05-03T10:36:58.643Z</time></trkpt><trkpt lat="43.45083" lon="11.8493033"><ele>249.0</ele><time>2026-05-03T10:36:59.654Z</time></trkpt><trkpt lat="43.45085" lon="11.849195"><ele>249.0</ele><time>2026-05-03T10:37:00.647Z</time></trkpt><trkpt lat="43.4508717" lon="11.84908"><ele>249.0</ele><time>2026-05-03T10:37:01.648Z</time></trkpt><trkpt lat="43.4508983" lon="11.8489567"><ele>248.99999999999997</ele><time>2026-05-03T10:37:02.652Z</time></trkpt><trkpt lat="43.4509217" lon="11.848825"><ele>248.99999999999997</ele><time>2026-05-03T10:37:03.661Z</time></trkpt><trkpt lat="43.4509517" lon="11.84869"><ele>249.0</ele><time>2026-05-03T10:37:04.65Z</time></trkpt><trkpt lat="43.4509883" lon="11.848535"><ele>249.0</ele><time>2026-05-03T10:37:05.649Z</time></trkpt><trkpt lat="43.4510267" lon="11.8483817"><ele>248.75</ele><time>2026-05-03T10:37:06.645Z</time></trkpt><trkpt lat="43.45106" lon="11.8482167"><ele>248.5</ele><time>2026-05-03T10:37:07.649Z</time></trkpt><trkpt lat="43.45109" lon="11.848045"><ele>248.25</ele><time>2026-05-03T10:37:08.646Z</time></trkpt><trkpt lat="43.4511217" lon="11.847865"><ele>248.0</ele><time>2026-05-03T10:37:09.653Z</time></trkpt><trkpt lat="43.451155" lon="11.8476783"><ele>247.75</ele><time>2026-05-03T10:37:10.653Z</time></trkpt><trkpt lat="43.4511917" lon="11.8474883"><ele>247.5</ele><time>2026-05-03T10:37:11.66Z</time></trkpt><trkpt lat="43.4512283" lon="11.847295"><ele>247.25</ele><time>2026-05-03T10:37:12.677Z</time></trkpt><trkpt lat="43.4512633" lon="11.8470983"><ele>247.0</ele><time>2026-05-03T10:37:13.65Z</time></trkpt><trkpt lat="43.4513" lon="11.8469033"><ele>247.75</ele><time>2026-05-03T10:37:14.641Z</time></trkpt><trkpt lat="43.4513367" lon="11.8467217"><ele>248.5</ele><time>2026-05-03T10:37:15.661Z</time></trkpt><trkpt lat="43.4513717" lon="11.8465417"><ele>249.25</ele><time>2026-05-03T10:37:16.657Z</time></trkpt><trkpt lat="43.4514033" lon="11.8463717"><ele>250.0</ele><time>2026-05-03T10:37:17.656Z</time></trkpt><trkpt lat="43.4514267" lon="11.8462183"><ele>250.0</ele><time>2026-05-03T10:37:18.644Z</time></trkpt><trkpt lat="43.451455" lon="11.84607"><ele>250.0</ele><time>2026-05-03T10:37:19.652Z</time></trkpt><trkpt lat="43.4514833" lon="11.84593"><ele>250.0</ele><time>2026-05-03T10:37:20.659Z</time></trkpt><trkpt lat="43.451505" lon="11.8458067"><ele>250.0</ele><time>2026-05-03T10:37:21.655Z</time></trkpt><trkpt lat="43.4515183" lon="11.845705"><ele>250.0</ele><time>2026-05-03T10:37:22.649Z</time></trkpt><trkpt lat="43.45154" lon="11.8455583"><ele>249.8</ele><time>2026-05-03T10:37:24.655Z</time></trkpt><trkpt lat="43.451525" lon="11.8454667"><ele>249.6</ele><time>2026-05-03T10:37:26.663Z</time></trkpt><trkpt lat="43.45141" lon="11.8454067"><ele>249.39999999999998</ele><time>2026-05-03T10:37:28.655Z</time></trkpt><trkpt lat="43.45133" lon="11.8454017"><ele>249.2</ele><time>2026-05-03T10:37:29.658Z</time></trkpt><trkpt lat="43.4512383" lon="11.8454017"><ele>249.0</ele><time>2026-05-03T10:37:30.654Z</time></trkpt><trkpt lat="43.4511317" lon="11.845415"><ele>248.79999999999998</ele><time>2026-05-03T10:37:31.652Z</time></trkpt><trkpt lat="43.4510233" lon="11.84542"><ele>248.59999999999997</ele><time>2026-05-03T10:37:32.646Z</time></trkpt><trkpt lat="43.4509117" lon="11.8454283"><ele>248.4</ele><time>2026-05-03T10:37:33.656Z</time></trkpt><trkpt lat="43.4508017" lon="11.845435"><ele>248.2</ele><time>2026-05-03T10:37:34.655Z</time></trkpt><trkpt lat="43.45069" lon="11.8454417"><ele>248.0</ele><time>2026-05-03T10:37:35.655Z</time></trkpt><trkpt lat="43.4505717" lon="11.8454367"><ele>248.0</ele><time>2026-05-03T10:37:36.641Z</time></trkpt><trkpt lat="43.4504467" lon="11.8454267"><ele>248.0</ele><time>2026-05-03T10:37:37.653Z</time></trkpt><trkpt lat="43.4503167" lon="11.845415"><ele>248.0</ele><time>2026-05-03T10:37:38.642Z</time></trkpt><trkpt lat="43.4501883" lon="11.845395"><ele>248.0</ele><time>2026-05-03T10:37:39.661Z</time></trkpt><trkpt lat="43.4500633" lon="11.84537"><ele>248.0</ele><time>2026-05-03T10:37:40.677Z</time></trkpt><trkpt lat="43.449935" lon="11.8453367"><ele>248.0</ele><time>2026-05-03T10:37:41.653Z</time></trkpt><trkpt lat="43.4498083" lon="11.8452833"><ele>248.0</ele><time>2026-05-03T10:37:42.643Z</time></trkpt><trkpt lat="43.4496767" lon="11.8452383"><ele>248.0</ele><time>2026-05-03T10:37:43.662Z</time></trkpt><trkpt lat="43.4495483" lon="11.84521"><ele>247.75</ele><time>2026-05-03T10:37:44.667Z</time></trkpt><trkpt lat="43.4494283" lon="11.8451867"><ele>247.5</ele><time>2026-05-03T10:37:45.663Z</time></trkpt><trkpt lat="43.4493033" lon="11.8451583"><ele>247.25</ele><time>2026-05-03T10:37:46.665Z</time></trkpt><trkpt lat="43.4491733" lon="11.845135"><ele>247.0</ele><time>2026-05-03T10:37:47.653Z</time></trkpt><trkpt lat="43.449035" lon="11.84512"><ele>247.0</ele><time>2026-05-03T10:37:48.66Z</time></trkpt><trkpt lat="43.4489017" lon="11.8450967"><ele>247.0</ele><time>2026-05-03T10:37:49.65Z</time></trkpt><trkpt lat="43.448775" lon="11.845075"><ele>247.0</ele><time>2026-05-03T10:37:50.667Z</time></trkpt><trkpt lat="43.44865" lon="11.8450567"><ele>247.0</ele><time>2026-05-03T10:37:51.654Z</time></trkpt><trkpt lat="43.448515" lon="11.8450233"><ele>247.0</ele><time>2026-05-03T10:37:52.66Z</time></trkpt><trkpt lat="43.4483817" lon="11.8450067"><ele>247.0</ele><time>2026-05-03T10:37:53.65Z</time></trkpt><trkpt lat="43.4482467" lon="11.8449767"><ele>247.0</ele><time>2026-05-03T10:37:54.649Z</time></trkpt><trkpt lat="43.4481067" lon="11.84496"><ele>247.0</ele><time>2026-05-03T10:37:55.647Z</time></trkpt><trkpt lat="43.4479617" lon="11.8449367"><ele>247.0</ele><time>2026-05-03T10:37:56.658Z</time></trkpt><trkpt lat="43.447815" lon="11.8449333"><ele>247.0</ele><time>2026-05-03T10:37:57.644Z</time></trkpt><trkpt lat="43.4476567" lon="11.8449217"><ele>247.0</ele><time>2026-05-03T10:37:58.657Z</time></trkpt><trkpt lat="43.4475067" lon="11.8449033"><ele>247.0</ele><time>2026-05-03T10:37:59.646Z</time></trkpt><trkpt lat="43.4473733" lon="11.8448733"><ele>247.0</ele><time>2026-05-03T10:38:00.645Z</time></trkpt><trkpt lat="43.4472567" lon="11.8448433"><ele>247.0</ele><time>2026-05-03T10:38:01.646Z</time></trkpt><trkpt lat="43.447145" lon="11.8448283"><ele>247.0</ele><time>2026-05-03T10:38:02.647Z</time></trkpt><trkpt lat="43.4470367" lon="11.8448217"><ele>247.6</ele><time>2026-05-03T10:38:03.661Z</time></trkpt><trkpt lat="43.4469267" lon="11.84482"><ele>248.2</ele><time>2026-05-03T10:38:04.644Z</time></trkpt><trkpt lat="43.4468167" lon="11.84482"><ele>248.8</ele><time>2026-05-03T10:38:05.644Z</time></trkpt><trkpt lat="43.4467017" lon="11.84482"><ele>249.4</ele><time>2026-05-03T10:38:06.65Z</time></trkpt><trkpt lat="43.4465917" lon="11.8448167"><ele>250.0</ele><time>2026-05-03T10:38:07.66Z</time></trkpt><trkpt lat="43.4464917" lon="11.8448417"><ele>250.0</ele><time>2026-05-03T10:38:08.661Z</time></trkpt><trkpt lat="43.4464033" lon="11.8449"><ele>250.0</ele><time>2026-05-03T10:38:09.651Z</time></trkpt><trkpt lat="43.44632" lon="11.8450133"><ele>250.0</ele><time>2026-05-03T10:38:10.676Z</time></trkpt><trkpt lat="43.446235" lon="11.84514"><ele>250.0</ele><time>2026-05-03T10:38:11.667Z</time></trkpt><trkpt lat="43.446155" lon="11.845275"><ele>250.25</ele><time>2026-05-03T10:38:12.636Z</time></trkpt><trkpt lat="43.4460667" lon="11.8454217"><ele>250.5</ele><time>2026-05-03T10:38:13.645Z</time></trkpt><trkpt lat="43.445965" lon="11.8455717"><ele>250.75</ele><time>2026-05-03T10:38:14.658Z</time></trkpt><trkpt lat="43.4458633" lon="11.8457233"><ele>251.0</ele><time>2026-05-03T10:38:15.67Z</time></trkpt><trkpt lat="43.4457767" lon="11.8458967"><ele>251.0</ele><time>2026-05-03T10:38:16.661Z</time></trkpt><trkpt lat="43.44569" lon="11.8460883"><ele>251.0</ele><time>2026-05-03T10:38:17.659Z</time></trkpt><trkpt lat="43.4456067" lon="11.8462783"><ele>251.0</ele><time>2026-05-03T10:38:18.668Z</time></trkpt><trkpt lat="43.4455283" lon="11.84647"><ele>251.66666666666669</ele><time>2026-05-03T10:38:19.687Z</time></trkpt><trkpt lat="43.4454483" lon="11.8466633"><ele>252.33333333333331</ele><time>2026-05-03T10:38:20.665Z</time></trkpt><trkpt lat="43.4453667" lon="11.8468567"><ele>253.0</ele><time>2026-05-03T10:38:21.674Z</time></trkpt><trkpt lat="43.4452917" lon="11.8470433"><ele>253.0</ele><time>2026-05-03T10:38:22.681Z</time></trkpt><trkpt lat="43.4452167" lon="11.8472133"><ele>253.0</ele><time>2026-05-03T10:38:23.652Z</time></trkpt><trkpt lat="43.445135" lon="11.8473817"><ele>253.0</ele><time>2026-05-03T10:38:24.657Z</time></trkpt><trkpt lat="43.44507" lon="11.8475633"><ele>253.0</ele><time>2026-05-03T10:38:25.655Z</time></trkpt><trkpt lat="43.4450117" lon="11.8477617"><ele>253.33333333333331</ele><time>2026-05-03T10:38:26.653Z</time></trkpt><trkpt lat="43.444965" lon="11.8479667"><ele>253.66666666666669</ele><time>2026-05-03T10:38:27.656Z</time></trkpt><trkpt lat="43.4449217" lon="11.8481717"><ele>254.0</ele><time>2026-05-03T10:38:28.694Z</time></trkpt><trkpt lat="43.44487" lon="11.8483783"><ele>253.33333333333334</ele><time>2026-05-03T10:38:29.655Z</time></trkpt><trkpt lat="43.44482" lon="11.8485833"><ele>252.66666666666669</ele><time>2026-05-03T10:38:30.651Z</time></trkpt><trkpt lat="43.4447633" lon="11.848785"><ele>252.0</ele><time>2026-05-03T10:38:31.653Z</time></trkpt><trkpt lat="43.4447083" lon="11.8489867"><ele>252.0</ele><time>2026-05-03T10:38:32.647Z</time></trkpt><trkpt lat="43.4446533" lon="11.8491983"><ele>252.0</ele><time>2026-05-03T10:38:33.664Z</time></trkpt><trkpt lat="43.4446" lon="11.8494083"><ele>252.0</ele><time>2026-05-03T10:38:34.653Z</time></trkpt><trkpt lat="43.4445417" lon="11.8496217"><ele>252.66666666666669</ele><time>2026-05-03T10:38:35.663Z</time></trkpt><trkpt lat="43.44449" lon="11.849835"><ele>253.33333333333334</ele><time>2026-05-03T10:38:36.647Z</time></trkpt><trkpt lat="43.444435" lon="11.850045"><ele>254.0</ele><time>2026-05-03T10:38:37.66Z</time></trkpt><trkpt lat="43.44437" lon="11.85024"><ele>254.5</ele><time>2026-05-03T10:38:38.652Z</time></trkpt><trkpt lat="43.4443033" lon="11.8504233"><ele>255.0</ele><time>2026-05-03T10:38:39.663Z</time></trkpt><trkpt lat="43.444245" lon="11.8506117"><ele>255.5</ele><time>2026-05-03T10:38:40.687Z</time></trkpt><trkpt lat="43.4442067" lon="11.8507983"><ele>256.0</ele><time>2026-05-03T10:38:41.666Z</time></trkpt><trkpt lat="43.4441833" lon="11.8509933"><ele>256.0</ele><time>2026-05-03T10:38:42.671Z</time></trkpt><trkpt lat="43.4441633" lon="11.8511883"><ele>256.0</ele><time>2026-05-03T10:38:43.652Z</time></trkpt><trkpt lat="43.444145" lon="11.8513783"><ele>256.0</ele><time>2026-05-03T10:38:44.654Z</time></trkpt><trkpt lat="43.4441183" lon="11.8515683"><ele>256.0</ele><time>2026-05-03T10:38:45.664Z</time></trkpt><trkpt lat="43.4440933" lon="11.8517583"><ele>256.0</ele><time>2026-05-03T10:38:46.664Z</time></trkpt><trkpt lat="43.4440617" lon="11.8519283"><ele>256.0</ele><time>2026-05-03T10:38:47.654Z</time></trkpt><trkpt lat="43.44403" lon="11.8520883"><ele>256.0</ele><time>2026-05-03T10:38:48.665Z</time></trkpt><trkpt lat="43.4439967" lon="11.8522533"><ele>256.0</ele><time>2026-05-03T10:38:49.643Z</time></trkpt><trkpt lat="43.4439533" lon="11.8524067"><ele>256.0</ele><time>2026-05-03T10:38:50.646Z</time></trkpt><trkpt lat="43.44389" lon="11.8525417"><ele>256.0</ele><time>2026-05-03T10:38:51.645Z</time></trkpt><trkpt lat="43.4438183" lon="11.8526733"><ele>256.0</ele><time>2026-05-03T10:38:52.648Z</time></trkpt><trkpt lat="43.4437333" lon="11.8527917"><ele>256.0</ele><time>2026-05-03T10:38:53.645Z</time></trkpt><trkpt lat="43.4436383" lon="11.85291"><ele>256.0</ele><time>2026-05-03T10:38:54.645Z</time></trkpt><trkpt lat="43.4435433" lon="11.8530117"><ele>256.0</ele><time>2026-05-03T10:38:55.639Z</time></trkpt><trkpt lat="43.44345" lon="11.85311"><ele>256.0</ele><time>2026-05-03T10:38:56.64Z</time></trkpt><trkpt lat="43.4433467" lon="11.8531967"><ele>256.0</ele><time>2026-05-03T10:38:57.643Z</time></trkpt><trkpt lat="43.44325" lon="11.8532817"><ele>256.0</ele><time>2026-05-03T10:38:58.637Z</time></trkpt><trkpt lat="43.4431633" lon="11.8533683"><ele>256.0</ele><time>2026-05-03T10:38:59.641Z</time></trkpt><trkpt lat="43.4430717" lon="11.85346"><ele>256.0</ele><time>2026-05-03T10:39:00.645Z</time></trkpt><trkpt lat="43.442985" lon="11.8535283"><ele>256.0</ele><time>2026-05-03T10:39:01.648Z</time></trkpt><trkpt lat="43.44291" lon="11.8535867"><ele>256.0</ele><time>2026-05-03T10:39:02.656Z</time></trkpt><trkpt lat="43.4428383" lon="11.8536417"><ele>256.16666666666663</ele><time>2026-05-03T10:39:03.656Z</time></trkpt><trkpt lat="43.4427767" lon="11.8536833"><ele>256.3333333333333</ele><time>2026-05-03T10:39:04.661Z</time></trkpt><trkpt lat="43.4426867" lon="11.8537533"><ele>256.5</ele><time>2026-05-03T10:39:06.668Z</time></trkpt><trkpt lat="43.442615" lon="11.8538567"><ele>256.6666666666667</ele><time>2026-05-03T10:39:08.653Z</time></trkpt><trkpt lat="43.4425767" lon="11.85393"><ele>256.83333333333337</ele><time>2026-05-03T10:39:09.641Z</time></trkpt><trkpt lat="43.4425317" lon="11.85402"><ele>257.0</ele><time>2026-05-03T10:39:10.653Z</time></trkpt><trkpt lat="43.4424967" lon="11.8541267"><ele>257.0</ele><time>2026-05-03T10:39:11.654Z</time></trkpt><trkpt lat="43.4424683" lon="11.8542433"><ele>257.0</ele><time>2026-05-03T10:39:12.654Z</time></trkpt><trkpt lat="43.442455" lon="11.8543683"><ele>257.0</ele><time>2026-05-03T10:39:13.652Z</time></trkpt><trkpt lat="43.44245" lon="11.8544817"><ele>257.0</ele><time>2026-05-03T10:39:14.653Z</time></trkpt><trkpt lat="43.44245" lon="11.854585"><ele>257.0</ele><time>2026-05-03T10:39:15.656Z</time></trkpt><trkpt lat="43.4424167" lon="11.8547117"><ele>257.0</ele><time>2026-05-03T10:39:17.649Z</time></trkpt><trkpt lat="43.4423483" lon="11.8547267"><ele>257.1666666666667</ele><time>2026-05-03T10:39:19.646Z</time></trkpt><trkpt lat="43.4422883" lon="11.8547"><ele>257.33333333333337</ele><time>2026-05-03T10:39:21.675Z</time></trkpt><trkpt lat="43.4422067" lon="11.8546267"><ele>257.5</ele><time>2026-05-03T10:39:23.667Z</time></trkpt><trkpt lat="43.4421533" lon="11.8545683"><ele>257.6666666666667</ele><time>2026-05-03T10:39:24.655Z</time></trkpt><trkpt lat="43.4420883" lon="11.8544967"><ele>257.8333333333333</ele><time>2026-05-03T10:39:25.637Z</time></trkpt><trkpt lat="43.4420183" lon="11.8544133"><ele>258.0</ele><time>2026-05-03T10:39:26.647Z</time></trkpt><trkpt lat="43.4419367" lon="11.854325"><ele>258.25</ele><time>2026-05-03T10:39:27.645Z</time></trkpt><trkpt lat="43.4418483" lon="11.8542267"><ele>258.5</ele><time>2026-05-03T10:39:28.648Z</time></trkpt><trkpt lat="43.4417533" lon="11.8541233"><ele>258.75</ele><time>2026-05-03T10:39:29.635Z</time></trkpt><trkpt lat="43.4416517" lon="11.8540183"><ele>259.0</ele><time>2026-05-03T10:39:30.64Z</time></trkpt><trkpt lat="43.44154" lon="11.8539167"><ele>259.0</ele><time>2026-05-03T10:39:31.637Z</time></trkpt><trkpt lat="43.4414233" lon="11.8538133"><ele>259.0</ele><time>2026-05-03T10:39:32.643Z</time></trkpt><trkpt lat="43.44129" lon="11.8537217"><ele>259.0</ele><time>2026-05-03T10:39:33.644Z</time></trkpt><trkpt lat="43.4411483" lon="11.8536317"><ele>259.0</ele><time>2026-05-03T10:39:34.648Z</time></trkpt><trkpt lat="43.441" lon="11.8535417"><ele>260.66666666666663</ele><time>2026-05-03T10:39:35.636Z</time></trkpt><trkpt lat="43.4408467" lon="11.8534633"><ele>262.3333333333333</ele><time>2026-05-03T10:39:36.642Z</time></trkpt><trkpt lat="43.44069" lon="11.8533917"><ele>264.0</ele><time>2026-05-03T10:39:37.643Z</time></trkpt><trkpt lat="43.440525" lon="11.853325"><ele>265.3333333333333</ele><time>2026-05-03T10:39:38.641Z</time></trkpt><trkpt lat="43.4403583" lon="11.8532667"><ele>266.66666666666663</ele><time>2026-05-03T10:39:39.642Z</time></trkpt><trkpt lat="43.4401933" lon="11.8532067"><ele>268.0</ele><time>2026-05-03T10:39:40.658Z</time></trkpt><trkpt lat="43.4400317" lon="11.8531567"><ele>268.0</ele><time>2026-05-03T10:39:41.657Z</time></trkpt><trkpt lat="43.4398683" lon="11.8531033"><ele>268.0</ele><time>2026-05-03T10:39:42.66Z</time></trkpt><trkpt lat="43.4397083" lon="11.8530433"><ele>268.0</ele><time>2026-05-03T10:39:43.639Z</time></trkpt><trkpt lat="43.43954" lon="11.8529883"><ele>270.3333333333333</ele><time>2026-05-03T10:39:44.647Z</time></trkpt><trkpt lat="43.43938" lon="11.8529183"><ele>272.6666666666667</ele><time>2026-05-03T10:39:45.642Z</time></trkpt><trkpt lat="43.4392217" lon="11.852825"><ele>275.0</ele><time>2026-05-03T10:39:46.641Z</time></trkpt><trkpt lat="43.4390683" lon="11.85273"><ele>275.6666666666667</ele><time>2026-05-03T10:39:47.642Z</time></trkpt><trkpt lat="43.4389133" lon="11.8526167"><ele>276.3333333333333</ele><time>2026-05-03T10:39:48.64Z</time></trkpt><trkpt lat="43.4387683" lon="11.85251"><ele>277.0</ele><time>2026-05-03T10:39:49.659Z</time></trkpt><trkpt lat="43.43862" lon="11.8524"><ele>277.0</ele><time>2026-05-03T10:39:50.646Z</time></trkpt><trkpt lat="43.43848" lon="11.8522933"><ele>277.0</ele><time>2026-05-03T10:39:51.641Z</time></trkpt><trkpt lat="43.438345" lon="11.852185"><ele>277.0</ele><time>2026-05-03T10:39:52.643Z</time></trkpt><trkpt lat="43.4382083" lon="11.8520917"><ele>277.0</ele><time>2026-05-03T10:39:53.646Z</time></trkpt><trkpt lat="43.43808" lon="11.852"><ele>277.0</ele><time>2026-05-03T10:39:54.655Z</time></trkpt><trkpt lat="43.4379633" lon="11.851915"><ele>277.0</ele><time>2026-05-03T10:39:55.64Z</time></trkpt><trkpt lat="43.4378617" lon="11.8518367"><ele>277.0</ele><time>2026-05-03T10:39:56.649Z</time></trkpt><trkpt lat="43.437755" lon="11.851755"><ele>278.0</ele><time>2026-05-03T10:39:57.645Z</time></trkpt><trkpt lat="43.43765" lon="11.8516867"><ele>279.0</ele><time>2026-05-03T10:39:58.641Z</time></trkpt><trkpt lat="43.4375633" lon="11.8516233"><ele>280.0</ele><time>2026-05-03T10:39:59.634Z</time></trkpt><trkpt lat="43.43748" lon="11.85156"><ele>281.0</ele><time>2026-05-03T10:40:00.643Z</time></trkpt><trkpt lat="43.437385" lon="11.8515"><ele>282.0</ele><time>2026-05-03T10:40:01.643Z</time></trkpt><trkpt lat="43.4373017" lon="11.8514333"><ele>282.0</ele><time>2026-05-03T10:40:02.644Z</time></trkpt><trkpt lat="43.4372133" lon="11.8513733"><ele>282.0</ele><time>2026-05-03T10:40:03.64Z</time></trkpt><trkpt lat="43.43712" lon="11.851305"><ele>282.0</ele><time>2026-05-03T10:40:04.645Z</time></trkpt><trkpt lat="43.437025" lon="11.8512467"><ele>282.0</ele><time>2026-05-03T10:40:05.64Z</time></trkpt><trkpt lat="43.43693" lon="11.8511783"><ele>282.0</ele><time>2026-05-03T10:40:06.64Z</time></trkpt><trkpt lat="43.4368283" lon="11.8511117"><ele>282.25</ele><time>2026-05-03T10:40:07.64Z</time></trkpt><trkpt lat="43.4367283" lon="11.8510267"><ele>282.5</ele><time>2026-05-03T10:40:08.646Z</time></trkpt><trkpt lat="43.4366317" lon="11.8509267"><ele>282.75</ele><time>2026-05-03T10:40:09.643Z</time></trkpt><trkpt lat="43.43655" lon="11.850805"><ele>283.0</ele><time>2026-05-03T10:40:10.654Z</time></trkpt><trkpt lat="43.4364833" lon="11.8506683"><ele>283.0</ele><time>2026-05-03T10:40:11.649Z</time></trkpt><trkpt lat="43.4364367" lon="11.85052"><ele>283.0</ele><time>2026-05-03T10:40:12.65Z</time></trkpt><trkpt lat="43.4364017" lon="11.8503783"><ele>283.0</ele><time>2026-05-03T10:40:13.646Z</time></trkpt><trkpt lat="43.4363667" lon="11.850245"><ele>283.0</ele><time>2026-05-03T10:40:14.655Z</time></trkpt><trkpt lat="43.4363267" lon="11.8501283"><ele>283.0</ele><time>2026-05-03T10:40:15.657Z</time></trkpt><trkpt lat="43.4362717" lon="11.850025"><ele>282.66666666666663</ele><time>2026-05-03T10:40:16.645Z</time></trkpt><trkpt lat="43.4362183" lon="11.849925"><ele>282.3333333333333</ele><time>2026-05-03T10:40:17.648Z</time></trkpt><trkpt lat="43.4361783" lon="11.8498183"><ele>282.0</ele><time>2026-05-03T10:40:18.639Z</time></trkpt><trkpt lat="43.4361433" lon="11.8497017"><ele>281.6666666666667</ele><time>2026-05-03T10:40:19.647Z</time></trkpt><trkpt lat="43.4361067" lon="11.849605"><ele>281.33333333333337</ele><time>2026-05-03T10:40:20.64Z</time></trkpt><trkpt lat="43.4360517" lon="11.8495267"><ele>281.0</ele><time>2026-05-03T10:40:21.646Z</time></trkpt><trkpt lat="43.4359833" lon="11.84949"><ele>281.0</ele><time>2026-05-03T10:40:22.651Z</time></trkpt><trkpt lat="43.4359067" lon="11.8494833"><ele>281.0</ele><time>2026-05-03T10:40:23.637Z</time></trkpt><trkpt lat="43.4358217" lon="11.8495167"><ele>281.0</ele><time>2026-05-03T10:40:24.65Z</time></trkpt><trkpt lat="43.43574" lon="11.8495867"><ele>281.0</ele><time>2026-05-03T10:40:25.646Z</time></trkpt><trkpt lat="43.4356633" lon="11.8496567"><ele>281.0</ele><time>2026-05-03T10:40:26.649Z</time></trkpt><trkpt lat="43.4355767" lon="11.8497083"><ele>281.0</ele><time>2026-05-03T10:40:27.644Z</time></trkpt><trkpt lat="43.43549" lon="11.84973"><ele>281.5</ele><time>2026-05-03T10:40:28.644Z</time></trkpt><trkpt lat="43.4353867" lon="11.8497017"><ele>282.0</ele><time>2026-05-03T10:40:29.645Z</time></trkpt><trkpt lat="43.4352917" lon="11.849615"><ele>282.5</ele><time>2026-05-03T10:40:30.647Z</time></trkpt><trkpt lat="43.435205" lon="11.8495017"><ele>283.0</ele><time>2026-05-03T10:40:31.647Z</time></trkpt><trkpt lat="43.4351217" lon="11.84937"><ele>282.25</ele><time>2026-05-03T10:40:32.641Z</time></trkpt><trkpt lat="43.4350333" lon="11.849215"><ele>281.5</ele><time>2026-05-03T10:40:33.633Z</time></trkpt><trkpt lat="43.4349367" lon="11.8490517"><ele>280.75</ele><time>2026-05-03T10:40:34.644Z</time></trkpt><trkpt lat="43.4348417" lon="11.84889"><ele>280.0</ele><time>2026-05-03T10:40:35.646Z</time></trkpt><trkpt lat="43.4347433" lon="11.848715"><ele>280.0</ele><time>2026-05-03T10:40:36.633Z</time></trkpt><trkpt lat="43.434645" lon="11.848535"><ele>280.0</ele><time>2026-05-03T10:40:37.639Z</time></trkpt><trkpt lat="43.4345467" lon="11.8483617"><ele>280.0</ele><time>2026-05-03T10:40:38.645Z</time></trkpt><trkpt lat="43.434445" lon="11.8481733"><ele>280.3333333333333</ele><time>2026-05-03T10:40:39.643Z</time></trkpt><trkpt lat="43.43435" lon="11.847985"><ele>280.6666666666667</ele><time>2026-05-03T10:40:40.66Z</time></trkpt><trkpt lat="43.43425" lon="11.8478033"><ele>281.0</ele><time>2026-05-03T10:40:41.648Z</time></trkpt><trkpt lat="43.43415" lon="11.84762"><ele>278.6666666666667</ele><time>2026-05-03T10:40:42.643Z</time></trkpt><trkpt lat="43.4340533" lon="11.8474283"><ele>276.3333333333333</ele><time>2026-05-03T10:40:43.644Z</time></trkpt><trkpt lat="43.4339483" lon="11.8472367"><ele>274.0</ele><time>2026-05-03T10:40:44.645Z</time></trkpt><trkpt lat="43.433845" lon="11.8470383"><ele>276.0</ele><time>2026-05-03T10:40:45.649Z</time></trkpt><trkpt lat="43.433745" lon="11.8468367"><ele>278.0</ele><time>2026-05-03T10:40:46.648Z</time></trkpt><trkpt lat="43.4336467" lon="11.8466283"><ele>280.0</ele><time>2026-05-03T10:40:47.645Z</time></trkpt><trkpt lat="43.4335533" lon="11.846415"><ele>280.0</ele><time>2026-05-03T10:40:48.643Z</time></trkpt><trkpt lat="43.4334533" lon="11.8462067"><ele>280.0</ele><time>2026-05-03T10:40:49.656Z</time></trkpt><trkpt lat="43.4333483" lon="11.846005"><ele>280.0</ele><time>2026-05-03T10:40:50.638Z</time></trkpt><trkpt lat="43.4332417" lon="11.845805"><ele>278.3333333333333</ele><time>2026-05-03T10:40:51.644Z</time></trkpt><trkpt lat="43.4331367" lon="11.8456117"><ele>276.6666666666667</ele><time>2026-05-03T10:40:52.642Z</time></trkpt><trkpt lat="43.4330333" lon="11.845425"><ele>275.0</ele><time>2026-05-03T10:40:53.642Z</time></trkpt><trkpt lat="43.4329333" lon="11.84524"><ele>276.0</ele><time>2026-05-03T10:40:54.639Z</time></trkpt><trkpt lat="43.4328383" lon="11.8450567"><ele>277.0</ele><time>2026-05-03T10:40:55.648Z</time></trkpt><trkpt lat="43.4327483" lon="11.84488"><ele>278.0</ele><time>2026-05-03T10:40:56.65Z</time></trkpt><trkpt lat="43.4326583" lon="11.844705"><ele>278.0</ele><time>2026-05-03T10:40:57.643Z</time></trkpt><trkpt lat="43.4325617" lon="11.8445367"><ele>278.0</ele><time>2026-05-03T10:40:58.642Z</time></trkpt><trkpt lat="43.4324617" lon="11.8443733"><ele>278.0</ele><time>2026-05-03T10:40:59.642Z</time></trkpt><trkpt lat="43.43236" lon="11.8442183"><ele>278.0</ele><time>2026-05-03T10:41:00.643Z</time></trkpt><trkpt lat="43.43225" lon="11.8440783"><ele>278.0</ele><time>2026-05-03T10:41:01.653Z</time></trkpt><trkpt lat="43.4321333" lon="11.84394"><ele>278.0</ele><time>2026-05-03T10:41:02.65Z</time></trkpt><trkpt lat="43.4320033" lon="11.84382"><ele>278.0</ele><time>2026-05-03T10:41:03.656Z</time></trkpt><trkpt lat="43.4318633" lon="11.8437133"><ele>278.0</ele><time>2026-05-03T10:41:04.651Z</time></trkpt><trkpt lat="43.4317217" lon="11.843605"><ele>278.0</ele><time>2026-05-03T10:41:05.637Z</time></trkpt><trkpt lat="43.4315817" lon="11.8434967"><ele>276.6666666666667</ele><time>2026-05-03T10:41:06.641Z</time></trkpt><trkpt lat="43.4314433" lon="11.8434067"><ele>275.3333333333333</ele><time>2026-05-03T10:41:07.654Z</time></trkpt><trkpt lat="43.4312983" lon="11.84332"><ele>274.0</ele><time>2026-05-03T10:41:08.642Z</time></trkpt><trkpt lat="43.4311683" lon="11.8432283"><ele>274.0</ele><time>2026-05-03T10:41:09.644Z</time></trkpt><trkpt lat="43.431035" lon="11.84313"><ele>274.0</ele><time>2026-05-03T10:41:10.654Z</time></trkpt><trkpt lat="43.43089" lon="11.8430517"><ele>274.0</ele><time>2026-05-03T10:41:11.651Z</time></trkpt><trkpt lat="43.4307467" lon="11.8429883"><ele>274.0</ele><time>2026-05-03T10:41:12.653Z</time></trkpt><trkpt lat="43.4305983" lon="11.8429467"><ele>274.0</ele><time>2026-05-03T10:41:13.646Z</time></trkpt><trkpt lat="43.4304583" lon="11.8429467"><ele>274.0</ele><time>2026-05-03T10:41:14.644Z</time></trkpt><trkpt lat="43.4303083" lon="11.84298"><ele>274.0</ele><time>2026-05-03T10:41:15.651Z</time></trkpt><trkpt lat="43.4301583" lon="11.8430317"><ele>274.0</ele><time>2026-05-03T10:41:16.638Z</time></trkpt><trkpt lat="43.4300083" lon="11.8430817"><ele>274.0</ele><time>2026-05-03T10:41:17.641Z</time></trkpt><trkpt lat="43.4298567" lon="11.843135"><ele>274.0</ele><time>2026-05-03T10:41:18.643Z</time></trkpt><trkpt lat="43.429705" lon="11.84319"><ele>273.3333333333333</ele><time>2026-05-03T10:41:19.64Z</time></trkpt><trkpt lat="43.4295583" lon="11.84326"><ele>272.6666666666667</ele><time>2026-05-03T10:41:20.638Z</time></trkpt><trkpt lat="43.4294133" lon="11.8433317"><ele>272.0</ele><time>2026-05-03T10:41:21.641Z</time></trkpt><trkpt lat="43.42926" lon="11.8433833"><ele>272.0</ele><time>2026-05-03T10:41:22.648Z</time></trkpt><trkpt lat="43.4291117" lon="11.8434433"><ele>272.0</ele><time>2026-05-03T10:41:23.643Z</time></trkpt><trkpt lat="43.4289683" lon="11.8435017"><ele>272.0</ele><time>2026-05-03T10:41:24.648Z</time></trkpt><trkpt lat="43.42884" lon="11.8435483"><ele>272.0</ele><time>2026-05-03T10:41:25.641Z</time></trkpt><trkpt lat="43.42871" lon="11.8435883"><ele>272.5</ele><time>2026-05-03T10:41:26.64Z</time></trkpt><trkpt lat="43.4285917" lon="11.8436317"><ele>273.0</ele><time>2026-05-03T10:41:27.646Z</time></trkpt><trkpt lat="43.428475" lon="11.843695"><ele>273.5</ele><time>2026-05-03T10:41:28.643Z</time></trkpt><trkpt lat="43.428345" lon="11.8437533"><ele>274.0</ele><time>2026-05-03T10:41:29.638Z</time></trkpt><trkpt lat="43.4282217" lon="11.8438217"><ele>274.0</ele><time>2026-05-03T10:41:30.64Z</time></trkpt><trkpt lat="43.4280933" lon="11.843905"><ele>274.0</ele><time>2026-05-03T10:41:31.639Z</time></trkpt><trkpt lat="43.4279617" lon="11.84399"><ele>274.0</ele><time>2026-05-03T10:41:32.633Z</time></trkpt><trkpt lat="43.427835" lon="11.8440833"><ele>274.0</ele><time>2026-05-03T10:41:33.643Z</time></trkpt><trkpt lat="43.4277" lon="11.8441767"><ele>274.25</ele><time>2026-05-03T10:41:34.639Z</time></trkpt><trkpt lat="43.427565" lon="11.844265"><ele>274.5</ele><time>2026-05-03T10:41:35.639Z</time></trkpt><trkpt lat="43.4274383" lon="11.8443583"><ele>274.75</ele><time>2026-05-03T10:41:36.641Z</time></trkpt><trkpt lat="43.42731" lon="11.8444483"><ele>275.0</ele><time>2026-05-03T10:41:37.636Z</time></trkpt><trkpt lat="43.427185" lon="11.8445333"><ele>273.75</ele><time>2026-05-03T10:41:38.64Z</time></trkpt><trkpt lat="43.42706" lon="11.8446167"><ele>272.5</ele><time>2026-05-03T10:41:39.641Z</time></trkpt><trkpt lat="43.4269317" lon="11.8447017"><ele>271.25</ele><time>2026-05-03T10:41:40.641Z</time></trkpt><trkpt lat="43.4268067" lon="11.8447867"><ele>270.0</ele><time>2026-05-03T10:41:41.636Z</time></trkpt><trkpt lat="43.4266867" lon="11.8448717"><ele>270.0</ele><time>2026-05-03T10:41:42.69Z</time></trkpt><trkpt lat="43.426565" lon="11.844955"><ele>270.0</ele><time>2026-05-03T10:41:43.679Z</time></trkpt><trkpt lat="43.4264417" lon="11.84504"><ele>270.0</ele><time>2026-05-03T10:41:44.651Z</time></trkpt><trkpt lat="43.4263233" lon="11.8451233"><ele>270.0</ele><time>2026-05-03T10:41:45.641Z</time></trkpt><trkpt lat="43.4262067" lon="11.8452083"><ele>269.75</ele><time>2026-05-03T10:41:46.637Z</time></trkpt><trkpt lat="43.4260767" lon="11.8452983"><ele>269.5</ele><time>2026-05-03T10:41:47.638Z</time></trkpt><trkpt lat="43.4259467" lon="11.8453883"><ele>269.25</ele><time>2026-05-03T10:41:48.647Z</time></trkpt><trkpt lat="43.4258267" lon="11.8454767"><ele>269.0</ele><time>2026-05-03T10:41:49.637Z</time></trkpt><trkpt lat="43.425705" lon="11.845565"><ele>269.0</ele><time>2026-05-03T10:41:50.644Z</time></trkpt><trkpt lat="43.4255783" lon="11.84566"><ele>269.0</ele><time>2026-05-03T10:41:51.636Z</time></trkpt><trkpt lat="43.425445" lon="11.84574"><ele>269.0</ele><time>2026-05-03T10:41:52.642Z</time></trkpt><trkpt lat="43.4253183" lon="11.8458267"><ele>269.0</ele><time>2026-05-03T10:41:53.644Z</time></trkpt><trkpt lat="43.4251783" lon="11.8459117"><ele>269.25</ele><time>2026-05-03T10:41:54.64Z</time></trkpt><trkpt lat="43.4250467" lon="11.8460017"><ele>269.5</ele><time>2026-05-03T10:41:55.638Z</time></trkpt><trkpt lat="43.4249167" lon="11.8460933"><ele>269.75</ele><time>2026-05-03T10:41:56.647Z</time></trkpt><trkpt lat="43.424785" lon="11.8461833"><ele>270.0</ele><time>2026-05-03T10:41:57.645Z</time></trkpt><trkpt lat="43.4246433" lon="11.8462817"><ele>270.0</ele><time>2026-05-03T10:41:58.636Z</time></trkpt><trkpt lat="43.4245033" lon="11.8463783"><ele>270.0</ele><time>2026-05-03T10:41:59.639Z</time></trkpt><trkpt lat="43.42436" lon="11.8464733"><ele>270.0</ele><time>2026-05-03T10:42:00.645Z</time></trkpt><trkpt lat="43.4242167" lon="11.8465717"><ele>270.0</ele><time>2026-05-03T10:42:01.638Z</time></trkpt><trkpt lat="43.4240767" lon="11.8466683"><ele>270.0</ele><time>2026-05-03T10:42:02.645Z</time></trkpt><trkpt lat="43.42394" lon="11.8467667"><ele>270.0</ele><time>2026-05-03T10:42:03.636Z</time></trkpt><trkpt lat="43.4238117" lon="11.8468617"><ele>269.5</ele><time>2026-05-03T10:42:04.641Z</time></trkpt><trkpt lat="43.4236883" lon="11.8469433"><ele>269.0</ele><time>2026-05-03T10:42:05.638Z</time></trkpt><trkpt lat="43.42358" lon="11.84702"><ele>268.5</ele><time>2026-05-03T10:42:06.639Z</time></trkpt><trkpt lat="43.4234817" lon="11.84709"><ele>268.0</ele><time>2026-05-03T10:42:07.634Z</time></trkpt><trkpt lat="43.4233917" lon="11.8471483"><ele>268.0</ele><time>2026-05-03T10:42:08.636Z</time></trkpt><trkpt lat="43.4233167" lon="11.847185"><ele>268.0</ele><time>2026-05-03T10:42:09.64Z</time></trkpt><trkpt lat="43.4232033" lon="11.8471867"><ele>268.0</ele><time>2026-05-03T10:42:11.643Z</time></trkpt><trkpt lat="43.4231067" lon="11.847065"><ele>268.0</ele><time>2026-05-03T10:42:13.638Z</time></trkpt><trkpt lat="43.4230617" lon="11.84696"><ele>268.0</ele><time>2026-05-03T10:42:14.642Z</time></trkpt><trkpt lat="43.423015" lon="11.84685"><ele>267.4</ele><time>2026-05-03T10:42:15.643Z</time></trkpt><trkpt lat="43.422955" lon="11.84674"><ele>266.8</ele><time>2026-05-03T10:42:16.637Z</time></trkpt><trkpt lat="43.4228867" lon="11.8466417"><ele>266.2</ele><time>2026-05-03T10:42:17.637Z</time></trkpt><trkpt lat="43.4228" lon="11.846565"><ele>265.6</ele><time>2026-05-03T10:42:18.635Z</time></trkpt><trkpt lat="43.4227083" lon="11.8464967"><ele>265.0</ele><time>2026-05-03T10:42:19.644Z</time></trkpt><trkpt lat="43.4226233" lon="11.8464333"><ele>265.0</ele><time>2026-05-03T10:42:20.646Z</time></trkpt><trkpt lat="43.4225467" lon="11.846355"><ele>265.0</ele><time>2026-05-03T10:42:21.643Z</time></trkpt><trkpt lat="43.4224867" lon="11.84624"><ele>265.0</ele><time>2026-05-03T10:42:22.648Z</time></trkpt><trkpt lat="43.4224383" lon="11.8461133"><ele>265.0</ele><time>2026-05-03T10:42:23.64Z</time></trkpt><trkpt lat="43.4223983" lon="11.8459883"><ele>265.0</ele><time>2026-05-03T10:42:24.644Z</time></trkpt><trkpt lat="43.422365" lon="11.845865"><ele>264.2</ele><time>2026-05-03T10:42:25.639Z</time></trkpt><trkpt lat="43.4223367" lon="11.8457433"><ele>263.4</ele><time>2026-05-03T10:42:26.645Z</time></trkpt><trkpt lat="43.4223117" lon="11.8456233"><ele>262.6</ele><time>2026-05-03T10:42:27.644Z</time></trkpt><trkpt lat="43.4222933" lon="11.8454967"><ele>261.8</ele><time>2026-05-03T10:42:28.644Z</time></trkpt><trkpt lat="43.422285" lon="11.8453733"><ele>261.0</ele><time>2026-05-03T10:42:29.641Z</time></trkpt><trkpt lat="43.42228" lon="11.8452483"><ele>260.8</ele><time>2026-05-03T10:42:30.644Z</time></trkpt><trkpt lat="43.4222683" lon="11.8451217"><ele>260.6</ele><time>2026-05-03T10:42:31.641Z</time></trkpt><trkpt lat="43.4222633" lon="11.844985"><ele>260.4</ele><time>2026-05-03T10:42:32.641Z</time></trkpt><trkpt lat="43.42226" lon="11.8448383"><ele>260.2</ele><time>2026-05-03T10:42:33.644Z</time></trkpt><trkpt lat="43.42226" lon="11.84468"><ele>260.0</ele><time>2026-05-03T10:42:34.639Z</time></trkpt><trkpt lat="43.4222633" lon="11.84451"><ele>260.0</ele><time>2026-05-03T10:42:35.648Z</time></trkpt><trkpt lat="43.422265" lon="11.8443317"><ele>260.0</ele><time>2026-05-03T10:42:36.644Z</time></trkpt><trkpt lat="43.4222683" lon="11.8441667"><ele>260.0</ele><time>2026-05-03T10:42:37.639Z</time></trkpt><trkpt lat="43.4222717" lon="11.8440083"><ele>260.0</ele><time>2026-05-03T10:42:38.641Z</time></trkpt><trkpt lat="43.4222767" lon="11.8438583"><ele>260.0</ele><time>2026-05-03T10:42:39.637Z</time></trkpt><trkpt lat="43.4222833" lon="11.8437167"><ele>260.0</ele><time>2026-05-03T10:42:40.644Z</time></trkpt><trkpt lat="43.42229" lon="11.8435883"><ele>260.0</ele><time>2026-05-03T10:42:41.643Z</time></trkpt><trkpt lat="43.42229" lon="11.8434733"><ele>260.0</ele><time>2026-05-03T10:42:42.64Z</time></trkpt><trkpt lat="43.4222933" lon="11.84337"><ele>260.0</ele><time>2026-05-03T10:42:43.65Z</time></trkpt><trkpt lat="43.4222983" lon="11.8432367"><ele>260.0</ele><time>2026-05-03T10:42:45.642Z</time></trkpt><trkpt lat="43.42227" lon="11.8431417"><ele>260.0</ele><time>2026-05-03T10:42:48.648Z</time></trkpt><trkpt lat="43.422165" lon="11.8431317"><ele>260.0</ele><time>2026-05-03T10:42:50.638Z</time></trkpt><trkpt lat="43.42208" lon="11.8431433"><ele>260.0</ele><time>2026-05-03T10:42:51.643Z</time></trkpt><trkpt lat="43.4219883" lon="11.8431517"><ele>260.0</ele><time>2026-05-03T10:42:52.635Z</time></trkpt><trkpt lat="43.4218817" lon="11.843165"><ele>259.75</ele><time>2026-05-03T10:42:53.641Z</time></trkpt><trkpt lat="43.4217717" lon="11.8431667"><ele>259.5</ele><time>2026-05-03T10:42:54.639Z</time></trkpt><trkpt lat="43.4216467" lon="11.8431767"><ele>259.25</ele><time>2026-05-03T10:42:55.64Z</time></trkpt><trkpt lat="43.4215133" lon="11.8431783"><ele>259.0</ele><time>2026-05-03T10:42:56.636Z</time></trkpt><trkpt lat="43.4213783" lon="11.8431883"><ele>258.75</ele><time>2026-05-03T10:42:57.638Z</time></trkpt><trkpt lat="43.421245" lon="11.843205"><ele>258.5</ele><time>2026-05-03T10:42:58.637Z</time></trkpt><trkpt lat="43.4211033" lon="11.8432183"><ele>258.25</ele><time>2026-05-03T10:42:59.64Z</time></trkpt><trkpt lat="43.4209533" lon="11.8432217"><ele>258.0</ele><time>2026-05-03T10:43:00.635Z</time></trkpt><trkpt lat="43.4207967" lon="11.8432217"><ele>258.0</ele><time>2026-05-03T10:43:01.639Z</time></trkpt><trkpt lat="43.42064" lon="11.84323"><ele>258.0</ele><time>2026-05-03T10:43:02.649Z</time></trkpt><trkpt lat="43.4204783" lon="11.843235"><ele>258.0</ele><time>2026-05-03T10:43:03.637Z</time></trkpt><trkpt lat="43.4203083" lon="11.84324"><ele>258.0</ele><time>2026-05-03T10:43:04.649Z</time></trkpt><trkpt lat="43.4201417" lon="11.84324"><ele>258.0</ele><time>2026-05-03T10:43:05.639Z</time></trkpt><trkpt lat="43.41997" lon="11.843245"><ele>258.0</ele><time>2026-05-03T10:43:06.647Z</time></trkpt><trkpt lat="43.419795" lon="11.8432483"><ele>257.6666666666667</ele><time>2026-05-03T10:43:07.641Z</time></trkpt><trkpt lat="43.4196217" lon="11.8432533"><ele>257.33333333333337</ele><time>2026-05-03T10:43:08.645Z</time></trkpt><trkpt lat="43.4194417" lon="11.84326"><ele>257.0</ele><time>2026-05-03T10:43:09.647Z</time></trkpt><trkpt lat="43.4192633" lon="11.8432617"><ele>257.0</ele><time>2026-05-03T10:43:10.647Z</time></trkpt><trkpt lat="43.4190783" lon="11.84326"><ele>257.0</ele><time>2026-05-03T10:43:11.65Z</time></trkpt><trkpt lat="43.41889" lon="11.8432583"><ele>257.0</ele><time>2026-05-03T10:43:12.658Z</time></trkpt><trkpt lat="43.418705" lon="11.8432617"><ele>257.0</ele><time>2026-05-03T10:43:13.652Z</time></trkpt><trkpt lat="43.4185217" lon="11.8432667"><ele>257.0</ele><time>2026-05-03T10:43:14.65Z</time></trkpt><trkpt lat="43.4183367" lon="11.84327"><ele>257.0</ele><time>2026-05-03T10:43:15.65Z</time></trkpt><trkpt lat="43.41814" lon="11.8432717"><ele>256.6666666666667</ele><time>2026-05-03T10:43:16.645Z</time></trkpt><trkpt lat="43.4179483" lon="11.8432817"><ele>256.3333333333333</ele><time>2026-05-03T10:43:17.649Z</time></trkpt><trkpt lat="43.4177583" lon="11.843285"><ele>256.0</ele><time>2026-05-03T10:43:18.665Z</time></trkpt><trkpt lat="43.4175667" lon="11.8432883"><ele>256.0</ele><time>2026-05-03T10:43:19.653Z</time></trkpt><trkpt lat="43.417375" lon="11.8433017"><ele>256.0</ele><time>2026-05-03T10:43:20.666Z</time></trkpt><trkpt lat="43.417195" lon="11.8433083"><ele>256.0</ele><time>2026-05-03T10:43:21.66Z</time></trkpt><trkpt lat="43.417035" lon="11.84332"><ele>256.0</ele><time>2026-05-03T10:43:22.645Z</time></trkpt><trkpt lat="43.4168717" lon="11.8433283"><ele>256.0</ele><time>2026-05-03T10:43:23.647Z</time></trkpt><trkpt lat="43.416715" lon="11.84334"><ele>256.0</ele><time>2026-05-03T10:43:24.656Z</time></trkpt><trkpt lat="43.4165667" lon="11.843355"><ele>256.0</ele><time>2026-05-03T10:43:25.666Z</time></trkpt><trkpt lat="43.4164267" lon="11.8433667"><ele>256.0</ele><time>2026-05-03T10:43:26.639Z</time></trkpt><trkpt lat="43.416285" lon="11.8433717"><ele>256.0</ele><time>2026-05-03T10:43:27.661Z</time></trkpt><trkpt lat="43.4161467" lon="11.8433817"><ele>256.0</ele><time>2026-05-03T10:43:28.657Z</time></trkpt><trkpt lat="43.416005" lon="11.8433883"><ele>256.5</ele><time>2026-05-03T10:43:29.661Z</time></trkpt><trkpt lat="43.4158583" lon="11.8434"><ele>257.0</ele><time>2026-05-03T10:43:30.646Z</time></trkpt><trkpt lat="43.41571" lon="11.8434117"><ele>257.5</ele><time>2026-05-03T10:43:31.662Z</time></trkpt><trkpt lat="43.415575" lon="11.8434233"><ele>258.0</ele><time>2026-05-03T10:43:32.659Z</time></trkpt><trkpt lat="43.4154283" lon="11.8434417"><ele>258.0</ele><time>2026-05-03T10:43:33.646Z</time></trkpt><trkpt lat="43.415285" lon="11.843455"><ele>258.0</ele><time>2026-05-03T10:43:34.647Z</time></trkpt><trkpt lat="43.4151417" lon="11.8434683"><ele>258.0</ele><time>2026-05-03T10:43:35.674Z</time></trkpt><trkpt lat="43.4149883" lon="11.843485"><ele>258.0</ele><time>2026-05-03T10:43:36.651Z</time></trkpt><trkpt lat="43.4148267" lon="11.8434967"><ele>258.0</ele><time>2026-05-03T10:43:37.646Z</time></trkpt><trkpt lat="43.4146667" lon="11.8435017"><ele>258.0</ele><time>2026-05-03T10:43:38.644Z</time></trkpt><trkpt lat="43.4145067" lon="11.8435067"><ele>258.0</ele><time>2026-05-03T10:43:39.641Z</time></trkpt><trkpt lat="43.4143433" lon="11.84351"><ele>258.0</ele><time>2026-05-03T10:43:40.636Z</time></trkpt><trkpt lat="43.4141833" lon="11.8435167"><ele>258.0</ele><time>2026-05-03T10:43:41.641Z</time></trkpt><trkpt lat="43.41403" lon="11.84352"><ele>258.0</ele><time>2026-05-03T10:43:42.65Z</time></trkpt><trkpt lat="43.4138733" lon="11.84353"><ele>258.6666666666667</ele><time>2026-05-03T10:43:43.661Z</time></trkpt><trkpt lat="43.4137167" lon="11.8435367"><ele>259.33333333333337</ele><time>2026-05-03T10:43:44.645Z</time></trkpt><trkpt lat="43.413555" lon="11.8435417"><ele>260.0</ele><time>2026-05-03T10:43:45.659Z</time></trkpt><trkpt lat="43.4133917" lon="11.8435517"><ele>260.0</ele><time>2026-05-03T10:43:46.65Z</time></trkpt><trkpt lat="43.4132183" lon="11.8435567"><ele>260.0</ele><time>2026-05-03T10:43:47.642Z</time></trkpt><trkpt lat="43.4130533" lon="11.8435667"><ele>260.0</ele><time>2026-05-03T10:43:48.651Z</time></trkpt><trkpt lat="43.4128817" lon="11.8435817"><ele>260.6666666666667</ele><time>2026-05-03T10:43:49.657Z</time></trkpt><trkpt lat="43.412705" lon="11.8435933"><ele>261.3333333333333</ele><time>2026-05-03T10:43:50.656Z</time></trkpt><trkpt lat="43.4125267" lon="11.8435967"><ele>262.0</ele><time>2026-05-03T10:43:51.655Z</time></trkpt><trkpt lat="43.412345" lon="11.8436083"><ele>262.0</ele><time>2026-05-03T10:43:52.654Z</time></trkpt><trkpt lat="43.4121633" lon="11.843615"><ele>262.0</ele><time>2026-05-03T10:43:53.656Z</time></trkpt><trkpt lat="43.4119767" lon="11.843625"><ele>262.0</ele><time>2026-05-03T10:43:54.656Z</time></trkpt><trkpt lat="43.411795" lon="11.8436417"><ele>263.0</ele><time>2026-05-03T10:43:55.654Z</time></trkpt><trkpt lat="43.4116083" lon="11.8436517"><ele>264.0</ele><time>2026-05-03T10:43:56.651Z</time></trkpt><trkpt lat="43.4114283" lon="11.8436617"><ele>265.0</ele><time>2026-05-03T10:43:57.65Z</time></trkpt><trkpt lat="43.411245" lon="11.843665"><ele>265.3333333333333</ele><time>2026-05-03T10:43:58.653Z</time></trkpt><trkpt lat="43.4110683" lon="11.8436767"><ele>265.6666666666667</ele><time>2026-05-03T10:43:59.653Z</time></trkpt><trkpt lat="43.410905" lon="11.8436833"><ele>266.0</ele><time>2026-05-03T10:44:00.649Z</time></trkpt><trkpt lat="43.4107517" lon="11.8436933"><ele>266.0</ele><time>2026-05-03T10:44:01.659Z</time></trkpt><trkpt lat="43.410605" lon="11.8436983"><ele>266.0</ele><time>2026-05-03T10:44:02.652Z</time></trkpt><trkpt lat="43.4104733" lon="11.8437067"><ele>266.0</ele><time>2026-05-03T10:44:03.645Z</time></trkpt><trkpt lat="43.4103467" lon="11.8437167"><ele>266.0</ele><time>2026-05-03T10:44:04.664Z</time></trkpt><trkpt lat="43.4102267" lon="11.8437217"><ele>266.2</ele><time>2026-05-03T10:44:05.656Z</time></trkpt><trkpt lat="43.410115" lon="11.8437167"><ele>266.40000000000003</ele><time>2026-05-03T10:44:06.653Z</time></trkpt><trkpt lat="43.410015" lon="11.8437217"><ele>266.6</ele><time>2026-05-03T10:44:07.652Z</time></trkpt><trkpt lat="43.40992" lon="11.8437217"><ele>266.8</ele><time>2026-05-03T10:44:08.654Z</time></trkpt><trkpt lat="43.40984" lon="11.843725"><ele>267.0</ele><time>2026-05-03T10:44:09.667Z</time></trkpt><trkpt lat="43.4097767" lon="11.84373"><ele>267.0</ele><time>2026-05-03T10:44:10.65Z</time></trkpt><trkpt lat="43.4097083" lon="11.8436917"><ele>267.0</ele><time>2026-05-03T10:44:12.648Z</time></trkpt><trkpt lat="43.409695" lon="11.84359"><ele>267.0</ele><time>2026-05-03T10:44:14.636Z</time></trkpt><trkpt lat="43.4097167" lon="11.84341"><ele>267.0</ele><time>2026-05-03T10:44:16.638Z</time></trkpt><trkpt lat="43.4097367" lon="11.843295"><ele>267.0</ele><time>2026-05-03T10:44:17.643Z</time></trkpt><trkpt lat="43.40975" lon="11.84316"><ele>266.4</ele><time>2026-05-03T10:44:18.644Z</time></trkpt><trkpt lat="43.40976" lon="11.8430217"><ele>265.79999999999995</ele><time>2026-05-03T10:44:19.662Z</time></trkpt><trkpt lat="43.4097733" lon="11.842875"><ele>265.2</ele><time>2026-05-03T10:44:20.641Z</time></trkpt><trkpt lat="43.4097883" lon="11.842715"><ele>264.59999999999997</ele><time>2026-05-03T10:44:21.643Z</time></trkpt><trkpt lat="43.4098017" lon="11.84256"><ele>264.0</ele><time>2026-05-03T10:44:22.645Z</time></trkpt><trkpt lat="43.4098167" lon="11.8423983"><ele>263.5</ele><time>2026-05-03T10:44:23.646Z</time></trkpt><trkpt lat="43.4098233" lon="11.84224"><ele>263.0</ele><time>2026-05-03T10:44:24.643Z</time></trkpt><trkpt lat="43.4098233" lon="11.84208"><ele>262.5</ele><time>2026-05-03T10:44:25.642Z</time></trkpt><trkpt lat="43.409825" lon="11.84192"><ele>262.0</ele><time>2026-05-03T10:44:26.644Z</time></trkpt><trkpt lat="43.4098233" lon="11.8417717"><ele>261.8</ele><time>2026-05-03T10:44:27.638Z</time></trkpt><trkpt lat="43.4098183" lon="11.8416233"><ele>261.6</ele><time>2026-05-03T10:44:28.646Z</time></trkpt><trkpt lat="43.4098133" lon="11.841485"><ele>261.40000000000003</ele><time>2026-05-03T10:44:29.629Z</time></trkpt><trkpt lat="43.4098067" lon="11.84135"><ele>261.2</ele><time>2026-05-03T10:44:30.641Z</time></trkpt><trkpt lat="43.4097983" lon="11.841215"><ele>261.0</ele><time>2026-05-03T10:44:31.642Z</time></trkpt><trkpt lat="43.4097883" lon="11.84108"><ele>260.6</ele><time>2026-05-03T10:44:32.637Z</time></trkpt><trkpt lat="43.4097783" lon="11.8409467"><ele>260.20000000000005</ele><time>2026-05-03T10:44:33.645Z</time></trkpt><trkpt lat="43.4097717" lon="11.840815"><ele>259.79999999999995</ele><time>2026-05-03T10:44:34.641Z</time></trkpt><trkpt lat="43.4097633" lon="11.8406867"><ele>259.4</ele><time>2026-05-03T10:44:35.652Z</time></trkpt><trkpt lat="43.4097583" lon="11.8405617"><ele>259.0</ele><time>2026-05-03T10:44:36.644Z</time></trkpt><trkpt lat="43.40975" lon="11.8404467"><ele>259.0</ele><time>2026-05-03T10:44:37.656Z</time></trkpt><trkpt lat="43.4097433" lon="11.8403317"><ele>259.0</ele><time>2026-05-03T10:44:38.654Z</time></trkpt><trkpt lat="43.4097317" lon="11.84022"><ele>259.0</ele><time>2026-05-03T10:44:39.655Z</time></trkpt><trkpt lat="43.4097167" lon="11.8401117"><ele>259.0</ele><time>2026-05-03T10:44:40.669Z</time></trkpt><trkpt lat="43.4097017" lon="11.8399533"><ele>259.0</ele><time>2026-05-03T10:44:42.656Z</time></trkpt><trkpt lat="43.4096833" lon="11.8398417"><ele>259.0</ele><time>2026-05-03T10:44:44.653Z</time></trkpt><trkpt lat="43.4096733" lon="11.8397"><ele>259.0</ele><time>2026-05-03T10:44:46.65Z</time></trkpt><trkpt lat="43.4096633" lon="11.8396033"><ele>259.0</ele><time>2026-05-03T10:44:47.657Z</time></trkpt><trkpt lat="43.40966" lon="11.8394867"><ele>259.0</ele><time>2026-05-03T10:44:48.654Z</time></trkpt><trkpt lat="43.4096517" lon="11.83936"><ele>259.0</ele><time>2026-05-03T10:44:49.658Z</time></trkpt><trkpt lat="43.4096433" lon="11.83922"><ele>259.0</ele><time>2026-05-03T10:44:50.666Z</time></trkpt><trkpt lat="43.4096417" lon="11.83908"><ele>258.59999999999997</ele><time>2026-05-03T10:44:51.669Z</time></trkpt><trkpt lat="43.4096417" lon="11.8389383"><ele>258.2</ele><time>2026-05-03T10:44:52.653Z</time></trkpt><trkpt lat="43.409635" lon="11.8388"><ele>257.79999999999995</ele><time>2026-05-03T10:44:53.665Z</time></trkpt><trkpt lat="43.4096283" lon="11.8386483"><ele>257.4</ele><time>2026-05-03T10:44:54.648Z</time></trkpt><trkpt lat="43.40962" lon="11.8385017"><ele>257.0</ele><time>2026-05-03T10:44:55.659Z</time></trkpt><trkpt lat="43.409605" lon="11.8383583"><ele>256.4</ele><time>2026-05-03T10:44:56.654Z</time></trkpt><trkpt lat="43.40959" lon="11.8382133"><ele>255.79999999999998</ele><time>2026-05-03T10:44:57.663Z</time></trkpt><trkpt lat="43.4095783" lon="11.8380667"><ele>255.2</ele><time>2026-05-03T10:44:58.665Z</time></trkpt><trkpt lat="43.409565" lon="11.8379133"><ele>254.6</ele><time>2026-05-03T10:44:59.654Z</time></trkpt><trkpt lat="43.40955" lon="11.8377583"><ele>254.0</ele><time>2026-05-03T10:45:00.654Z</time></trkpt><trkpt lat="43.4095417" lon="11.8376067"><ele>254.0</ele><time>2026-05-03T10:45:01.663Z</time></trkpt><trkpt lat="43.4095283" lon="11.837455"><ele>253.99999999999997</ele><time>2026-05-03T10:45:02.659Z</time></trkpt><trkpt lat="43.4095183" lon="11.8372967"><ele>253.99999999999997</ele><time>2026-05-03T10:45:03.661Z</time></trkpt><trkpt lat="43.4095067" lon="11.83715"><ele>254.0</ele><time>2026-05-03T10:45:04.652Z</time></trkpt><trkpt lat="43.4094967" lon="11.8370083"><ele>254.0</ele><time>2026-05-03T10:45:05.653Z</time></trkpt><trkpt lat="43.4094917" lon="11.8368717"><ele>254.16666666666669</ele><time>2026-05-03T10:45:06.661Z</time></trkpt><trkpt lat="43.4094867" lon="11.8367483"><ele>254.33333333333334</ele><time>2026-05-03T10:45:07.656Z</time></trkpt><trkpt lat="43.409485" lon="11.83664"><ele>254.5</ele><time>2026-05-03T10:45:08.66Z</time></trkpt><trkpt lat="43.4094833" lon="11.83655"><ele>254.66666666666669</ele><time>2026-05-03T10:45:09.662Z</time></trkpt><trkpt lat="43.409475" lon="11.836405"><ele>254.83333333333334</ele><time>2026-05-03T10:45:11.657Z</time></trkpt><trkpt lat="43.4094317" lon="11.8363033"><ele>255.0</ele><time>2026-05-03T10:45:22.662Z</time></trkpt><trkpt lat="43.4094133" lon="11.8361217"><ele>255.0</ele><time>2026-05-03T10:45:24.645Z</time></trkpt><trkpt lat="43.409395" lon="11.836015"><ele>255.0</ele><time>2026-05-03T10:45:25.679Z</time></trkpt><trkpt lat="43.4093783" lon="11.8359117"><ele>255.0</ele><time>2026-05-03T10:45:26.658Z</time></trkpt><trkpt lat="43.4093683" lon="11.83581"><ele>255.0</ele><time>2026-05-03T10:45:27.65Z</time></trkpt><trkpt lat="43.4093617" lon="11.8357133"><ele>255.0</ele><time>2026-05-03T10:45:28.652Z</time></trkpt><trkpt lat="43.409365" lon="11.8356233"><ele>255.0</ele><time>2026-05-03T10:45:29.659Z</time></trkpt><trkpt lat="43.409405" lon="11.8354717"><ele>254.83333333333334</ele><time>2026-05-03T10:45:31.656Z</time></trkpt><trkpt lat="43.4095033" lon="11.8353667"><ele>254.66666666666669</ele><time>2026-05-03T10:45:33.648Z</time></trkpt><trkpt lat="43.40957" lon="11.8353467"><ele>254.5</ele><time>2026-05-03T10:45:34.644Z</time></trkpt><trkpt lat="43.4096467" lon="11.8353383"><ele>254.33333333333334</ele><time>2026-05-03T10:45:35.641Z</time></trkpt><trkpt lat="43.4097217" lon="11.8353283"><ele>254.16666666666669</ele><time>2026-05-03T10:45:36.634Z</time></trkpt><trkpt lat="43.4097933" lon="11.8353083"><ele>254.0</ele><time>2026-05-03T10:45:37.652Z</time></trkpt><trkpt lat="43.4098583" lon="11.8352783"><ele>253.83333333333334</ele><time>2026-05-03T10:45:38.648Z</time></trkpt><trkpt lat="43.4099483" lon="11.835165"><ele>253.66666666666669</ele><time>2026-05-03T10:45:40.656Z</time></trkpt><trkpt lat="43.4099767" lon="11.8350867"><ele>253.5</ele><time>2026-05-03T10:45:41.661Z</time></trkpt><trkpt lat="43.4099833" lon="11.8349967"><ele>253.33333333333331</ele><time>2026-05-03T10:45:42.636Z</time></trkpt><trkpt lat="43.4099883" lon="11.8348867"><ele>253.16666666666666</ele><time>2026-05-03T10:45:43.652Z</time></trkpt><trkpt lat="43.4099767" lon="11.8347667"><ele>253.0</ele><time>2026-05-03T10:45:44.655Z</time></trkpt><trkpt lat="43.409965" lon="11.8346367"><ele>252.60000000000002</ele><time>2026-05-03T10:45:45.665Z</time></trkpt><trkpt lat="43.4099483" lon="11.8345"><ele>252.20000000000002</ele><time>2026-05-03T10:45:46.669Z</time></trkpt><trkpt lat="43.40993" lon="11.8343617"><ele>251.8</ele><time>2026-05-03T10:45:47.654Z</time></trkpt><trkpt lat="43.4099133" lon="11.83421"><ele>251.4</ele><time>2026-05-03T10:45:48.658Z</time></trkpt><trkpt lat="43.4098967" lon="11.83406"><ele>251.0</ele><time>2026-05-03T10:45:49.674Z</time></trkpt><trkpt lat="43.409875" lon="11.83391"><ele>250.75</ele><time>2026-05-03T10:45:50.646Z</time></trkpt><trkpt lat="43.4098667" lon="11.8337533"><ele>250.5</ele><time>2026-05-03T10:45:51.657Z</time></trkpt><trkpt lat="43.4098617" lon="11.8335983"><ele>250.25</ele><time>2026-05-03T10:45:52.645Z</time></trkpt><trkpt lat="43.4098533" lon="11.8334417"><ele>250.0</ele><time>2026-05-03T10:45:53.652Z</time></trkpt><trkpt lat="43.4098433" lon="11.8332917"><ele>250.0</ele><time>2026-05-03T10:45:54.652Z</time></trkpt><trkpt lat="43.40983" lon="11.8331417"><ele>250.0</ele><time>2026-05-03T10:45:55.64Z</time></trkpt><trkpt lat="43.409815" lon="11.8329867"><ele>250.0</ele><time>2026-05-03T10:45:56.659Z</time></trkpt><trkpt lat="43.4098017" lon="11.8328267"><ele>250.0</ele><time>2026-05-03T10:45:57.642Z</time></trkpt><trkpt lat="43.40978" lon="11.8326633"><ele>249.75</ele><time>2026-05-03T10:45:58.652Z</time></trkpt><trkpt lat="43.4097633" lon="11.83251"><ele>249.5</ele><time>2026-05-03T10:45:59.669Z</time></trkpt><trkpt lat="43.4097583" lon="11.8323583"><ele>249.25</ele><time>2026-05-03T10:46:00.648Z</time></trkpt><trkpt lat="43.4097417" lon="11.8322033"><ele>249.0</ele><time>2026-05-03T10:46:01.646Z</time></trkpt><trkpt lat="43.4097317" lon="11.8320433"><ele>249.0</ele><time>2026-05-03T10:46:02.634Z</time></trkpt><trkpt lat="43.4097217" lon="11.83188"><ele>249.0</ele><time>2026-05-03T10:46:03.643Z</time></trkpt><trkpt lat="43.40972" lon="11.8317133"><ele>249.0</ele><time>2026-05-03T10:46:04.647Z</time></trkpt><trkpt lat="43.4097133" lon="11.831545"><ele>249.0</ele><time>2026-05-03T10:46:05.644Z</time></trkpt><trkpt lat="43.4096867" lon="11.8313617"><ele>249.0</ele><time>2026-05-03T10:46:06.658Z</time></trkpt><trkpt lat="43.409675" lon="11.8311767"><ele>249.0</ele><time>2026-05-03T10:46:07.643Z</time></trkpt><trkpt lat="43.4096583" lon="11.8309883"><ele>249.0</ele><time>2026-05-03T10:46:08.644Z</time></trkpt><trkpt lat="43.4096417" lon="11.8307967"><ele>249.0</ele><time>2026-05-03T10:46:09.647Z</time></trkpt><trkpt lat="43.409625" lon="11.8306067"><ele>248.25</ele><time>2026-05-03T10:46:10.642Z</time></trkpt><trkpt lat="43.4096117" lon="11.8304067"><ele>247.5</ele><time>2026-05-03T10:46:11.645Z</time></trkpt><trkpt lat="43.4096" lon="11.8302067"><ele>246.75</ele><time>2026-05-03T10:46:12.66Z</time></trkpt><trkpt lat="43.40959" lon="11.8300033"><ele>246.0</ele><time>2026-05-03T10:46:13.662Z</time></trkpt><trkpt lat="43.40958" lon="11.8297983"><ele>246.0</ele><time>2026-05-03T10:46:14.65Z</time></trkpt><trkpt lat="43.40956" lon="11.8295983"><ele>246.0</ele><time>2026-05-03T10:46:15.64Z</time></trkpt><trkpt lat="43.4095433" lon="11.8293883"><ele>246.0</ele><time>2026-05-03T10:46:16.641Z</time></trkpt><trkpt lat="43.4095333" lon="11.8291833"><ele>246.0</ele><time>2026-05-03T10:46:17.645Z</time></trkpt><trkpt lat="43.4095167" lon="11.8289867"><ele>246.0</ele><time>2026-05-03T10:46:18.644Z</time></trkpt><trkpt lat="43.4095" lon="11.8287917"><ele>246.0</ele><time>2026-05-03T10:46:19.653Z</time></trkpt><trkpt lat="43.4094817" lon="11.8285983"><ele>246.0</ele><time>2026-05-03T10:46:20.645Z</time></trkpt><trkpt lat="43.409465" lon="11.8284017"><ele>246.0</ele><time>2026-05-03T10:46:21.645Z</time></trkpt><trkpt lat="43.4094517" lon="11.8282067"><ele>245.75</ele><time>2026-05-03T10:46:22.642Z</time></trkpt><trkpt lat="43.4094333" lon="11.8280083"><ele>245.5</ele><time>2026-05-03T10:46:23.645Z</time></trkpt><trkpt lat="43.4094133" lon="11.827805"><ele>245.25</ele><time>2026-05-03T10:46:24.648Z</time></trkpt><trkpt lat="43.4093983" lon="11.8275933"><ele>245.0</ele><time>2026-05-03T10:46:25.642Z</time></trkpt><trkpt lat="43.4093833" lon="11.827385"><ele>244.66666666666669</ele><time>2026-05-03T10:46:26.642Z</time></trkpt><trkpt lat="43.40937" lon="11.82718"><ele>244.33333333333331</ele><time>2026-05-03T10:46:27.64Z</time></trkpt><trkpt lat="43.40935" lon="11.8269767"><ele>244.0</ele><time>2026-05-03T10:46:28.64Z</time></trkpt><trkpt lat="43.409335" lon="11.8267683"><ele>244.0</ele><time>2026-05-03T10:46:29.638Z</time></trkpt><trkpt lat="43.4093183" lon="11.82656"><ele>244.0</ele><time>2026-05-03T10:46:30.637Z</time></trkpt><trkpt lat="43.4092983" lon="11.826355"><ele>244.0</ele><time>2026-05-03T10:46:31.644Z</time></trkpt><trkpt lat="43.4092817" lon="11.8261483"><ele>243.75</ele><time>2026-05-03T10:46:32.654Z</time></trkpt><trkpt lat="43.409265" lon="11.8259467"><ele>243.5</ele><time>2026-05-03T10:46:33.639Z</time></trkpt><trkpt lat="43.4092483" lon="11.8257417"><ele>243.25</ele><time>2026-05-03T10:46:34.647Z</time></trkpt><trkpt lat="43.4092333" lon="11.8255517"><ele>243.0</ele><time>2026-05-03T10:46:35.65Z</time></trkpt><trkpt lat="43.40922" lon="11.8253733"><ele>243.0</ele><time>2026-05-03T10:46:36.651Z</time></trkpt><trkpt lat="43.4092017" lon="11.82522"><ele>243.0</ele><time>2026-05-03T10:46:37.646Z</time></trkpt><trkpt lat="43.4091833" lon="11.825075"><ele>243.0</ele><time>2026-05-03T10:46:38.649Z</time></trkpt><trkpt lat="43.40917" lon="11.8249417"><ele>243.0</ele><time>2026-05-03T10:46:39.649Z</time></trkpt><trkpt lat="43.40916" lon="11.824825"><ele>243.0</ele><time>2026-05-03T10:46:40.641Z</time></trkpt><trkpt lat="43.4091483" lon="11.8247233"><ele>243.16666666666666</ele><time>2026-05-03T10:46:41.648Z</time></trkpt><trkpt lat="43.4091417" lon="11.8246367"><ele>243.33333333333331</ele><time>2026-05-03T10:46:42.646Z</time></trkpt><trkpt lat="43.4091367" lon="11.8244817"><ele>243.5</ele><time>2026-05-03T10:46:44.646Z</time></trkpt><trkpt lat="43.4091183" lon="11.8243767"><ele>243.66666666666666</ele><time>2026-05-03T10:46:59.645Z</time></trkpt><trkpt lat="43.4090483" lon="11.82436"><ele>243.83333333333331</ele><time>2026-05-03T10:47:03.643Z</time></trkpt><trkpt lat="43.4089817" lon="11.8243967"><ele>244.0</ele><time>2026-05-03T10:47:05.642Z</time></trkpt><trkpt lat="43.4088667" lon="11.8244517"><ele>244.0</ele><time>2026-05-03T10:47:07.648Z</time></trkpt><trkpt lat="43.4088" lon="11.824485"><ele>243.99999999999997</ele><time>2026-05-03T10:47:08.645Z</time></trkpt><trkpt lat="43.4087217" lon="11.8245233"><ele>243.99999999999997</ele><time>2026-05-03T10:47:09.639Z</time></trkpt><trkpt lat="43.4086333" lon="11.8245633"><ele>244.0</ele><time>2026-05-03T10:47:10.645Z</time></trkpt><trkpt lat="43.4085417" lon="11.82461"><ele>244.0</ele><time>2026-05-03T10:47:11.641Z</time></trkpt><trkpt lat="43.4084433" lon="11.8246633"><ele>244.0</ele><time>2026-05-03T10:47:12.643Z</time></trkpt><trkpt lat="43.4083333" lon="11.82472"><ele>244.0</ele><time>2026-05-03T10:47:13.643Z</time></trkpt><trkpt lat="43.4082233" lon="11.82478"><ele>244.0</ele><time>2026-05-03T10:47:14.634Z</time></trkpt><trkpt lat="43.4081067" lon="11.8248367"><ele>244.0</ele><time>2026-05-03T10:47:15.65Z</time></trkpt><trkpt lat="43.40799" lon="11.82489"><ele>243.5</ele><time>2026-05-03T10:47:16.641Z</time></trkpt><trkpt lat="43.4078783" lon="11.8249483"><ele>243.0</ele><time>2026-05-03T10:47:17.644Z</time></trkpt><trkpt lat="43.407765" lon="11.82501"><ele>242.5</ele><time>2026-05-03T10:47:18.64Z</time></trkpt><trkpt lat="43.4076567" lon="11.825065"><ele>242.0</ele><time>2026-05-03T10:47:19.646Z</time></trkpt><trkpt lat="43.4075517" lon="11.8251217"><ele>242.0</ele><time>2026-05-03T10:47:20.642Z</time></trkpt><trkpt lat="43.4074567" lon="11.8251733"><ele>242.0</ele><time>2026-05-03T10:47:21.637Z</time></trkpt><trkpt lat="43.4073633" lon="11.825225"><ele>242.0</ele><time>2026-05-03T10:47:22.65Z</time></trkpt><trkpt lat="43.40726" lon="11.8252817"><ele>242.0</ele><time>2026-05-03T10:47:23.635Z</time></trkpt><trkpt lat="43.4071617" lon="11.8253267"><ele>242.0</ele><time>2026-05-03T10:47:24.64Z</time></trkpt><trkpt lat="43.4070633" lon="11.8253533"><ele>242.0</ele><time>2026-05-03T10:47:25.648Z</time></trkpt><trkpt lat="43.4069583" lon="11.8253567"><ele>242.0</ele><time>2026-05-03T10:47:26.639Z</time></trkpt><trkpt lat="43.4068433" lon="11.825325"><ele>242.0</ele><time>2026-05-03T10:47:27.646Z</time></trkpt><trkpt lat="43.406725" lon="11.8252833"><ele>242.0</ele><time>2026-05-03T10:47:28.649Z</time></trkpt><trkpt lat="43.4066" lon="11.8252233"><ele>242.0</ele><time>2026-05-03T10:47:29.638Z</time></trkpt><trkpt lat="43.406465" lon="11.8251567"><ele>242.0</ele><time>2026-05-03T10:47:30.647Z</time></trkpt><trkpt lat="43.4063333" lon="11.8250883"><ele>242.0</ele><time>2026-05-03T10:47:31.636Z</time></trkpt><trkpt lat="43.4062067" lon="11.8250183"><ele>242.0</ele><time>2026-05-03T10:47:32.647Z</time></trkpt><trkpt lat="43.4060833" lon="11.8249567"><ele>242.5</ele><time>2026-05-03T10:47:33.654Z</time></trkpt><trkpt lat="43.40596" lon="11.8249033"><ele>243.0</ele><time>2026-05-03T10:47:34.669Z</time></trkpt><trkpt lat="43.4058417" lon="11.8248467"><ele>243.5</ele><time>2026-05-03T10:47:35.67Z</time></trkpt><trkpt lat="43.4057233" lon="11.8247933"><ele>244.0</ele><time>2026-05-03T10:47:36.692Z</time></trkpt><trkpt lat="43.4055933" lon="11.8247467"><ele>244.0</ele><time>2026-05-03T10:47:37.701Z</time></trkpt><trkpt lat="43.40546" lon="11.8247067"><ele>244.0</ele><time>2026-05-03T10:47:38.67Z</time></trkpt><trkpt lat="43.4053333" lon="11.824675"><ele>244.0</ele><time>2026-05-03T10:47:39.633Z</time></trkpt><trkpt lat="43.4052017" lon="11.82465"><ele>244.0</ele><time>2026-05-03T10:47:40.638Z</time></trkpt><trkpt lat="43.405065" lon="11.8246283"><ele>244.0</ele><time>2026-05-03T10:47:41.643Z</time></trkpt><trkpt lat="43.404925" lon="11.8246067"><ele>244.0</ele><time>2026-05-03T10:47:42.639Z</time></trkpt><trkpt lat="43.4047867" lon="11.824585"><ele>244.0</ele><time>2026-05-03T10:47:43.645Z</time></trkpt><trkpt lat="43.4046467" lon="11.8245667"><ele>244.0</ele><time>2026-05-03T10:47:44.644Z</time></trkpt><trkpt lat="43.4045117" lon="11.824545"><ele>244.0</ele><time>2026-05-03T10:47:45.649Z</time></trkpt><trkpt lat="43.404385" lon="11.8245217"><ele>244.0</ele><time>2026-05-03T10:47:46.646Z</time></trkpt><trkpt lat="43.4042633" lon="11.8245067"><ele>244.0</ele><time>2026-05-03T10:47:47.654Z</time></trkpt><trkpt lat="43.40416" lon="11.8245083"><ele>244.0</ele><time>2026-05-03T10:47:48.639Z</time></trkpt><trkpt lat="43.4040633" lon="11.824525"><ele>244.0</ele><time>2026-05-03T10:47:49.651Z</time></trkpt><trkpt lat="43.4039733" lon="11.8245483"><ele>243.99999999999997</ele><time>2026-05-03T10:47:50.641Z</time></trkpt><trkpt lat="43.40389" lon="11.8245867"><ele>243.99999999999997</ele><time>2026-05-03T10:47:51.646Z</time></trkpt><trkpt lat="43.40381" lon="11.824645"><ele>244.0</ele><time>2026-05-03T10:47:52.648Z</time></trkpt><trkpt lat="43.4037267" lon="11.8247167"><ele>244.0</ele><time>2026-05-03T10:47:53.647Z</time></trkpt><trkpt lat="43.4036333" lon="11.8248033"><ele>244.0</ele><time>2026-05-03T10:47:54.645Z</time></trkpt><trkpt lat="43.4035233" lon="11.8249017"><ele>244.0</ele><time>2026-05-03T10:47:55.649Z</time></trkpt><trkpt lat="43.4034067" lon="11.8250017"><ele>244.0</ele><time>2026-05-03T10:47:56.639Z</time></trkpt><trkpt lat="43.40329" lon="11.8250983"><ele>244.0</ele><time>2026-05-03T10:47:57.645Z</time></trkpt><trkpt lat="43.4031567" lon="11.8252083"><ele>244.0</ele><time>2026-05-03T10:47:58.64Z</time></trkpt><trkpt lat="43.4030217" lon="11.825315"><ele>244.0</ele><time>2026-05-03T10:47:59.647Z</time></trkpt><trkpt lat="43.40289" lon="11.8254267"><ele>244.0</ele><time>2026-05-03T10:48:00.653Z</time></trkpt><trkpt lat="43.4027583" lon="11.82554"><ele>244.0</ele><time>2026-05-03T10:48:01.642Z</time></trkpt><trkpt lat="43.4026267" lon="11.8256483"><ele>244.0</ele><time>2026-05-03T10:48:02.653Z</time></trkpt><trkpt lat="43.4025" lon="11.8257483"><ele>244.0</ele><time>2026-05-03T10:48:03.649Z</time></trkpt><trkpt lat="43.4023717" lon="11.8258517"><ele>244.0</ele><time>2026-05-03T10:48:04.662Z</time></trkpt><trkpt lat="43.402245" lon="11.8259567"><ele>244.5</ele><time>2026-05-03T10:48:05.681Z</time></trkpt><trkpt lat="43.402115" lon="11.8260533"><ele>245.0</ele><time>2026-05-03T10:48:06.66Z</time></trkpt><trkpt lat="43.4019833" lon="11.8261483"><ele>245.5</ele><time>2026-05-03T10:48:07.645Z</time></trkpt><trkpt lat="43.40186" lon="11.8262533"><ele>246.0</ele><time>2026-05-03T10:48:08.644Z</time></trkpt><trkpt lat="43.4017367" lon="11.8263567"><ele>246.0</ele><time>2026-05-03T10:48:09.646Z</time></trkpt><trkpt lat="43.401615" lon="11.826465"><ele>246.0</ele><time>2026-05-03T10:48:10.647Z</time></trkpt><trkpt lat="43.40149" lon="11.8265633"><ele>246.0</ele><time>2026-05-03T10:48:11.644Z</time></trkpt><trkpt lat="43.4013733" lon="11.8266583"><ele>246.0</ele><time>2026-05-03T10:48:12.651Z</time></trkpt><trkpt lat="43.4012517" lon="11.8267517"><ele>245.75</ele><time>2026-05-03T10:48:13.643Z</time></trkpt><trkpt lat="43.40113" lon="11.826835"><ele>245.5</ele><time>2026-05-03T10:48:14.642Z</time></trkpt><trkpt lat="43.4010083" lon="11.8269167"><ele>245.25</ele><time>2026-05-03T10:48:15.645Z</time></trkpt><trkpt lat="43.4008883" lon="11.8269967"><ele>245.0</ele><time>2026-05-03T10:48:16.637Z</time></trkpt><trkpt lat="43.4007683" lon="11.8270817"><ele>245.0</ele><time>2026-05-03T10:48:17.652Z</time></trkpt><trkpt lat="43.4006433" lon="11.8271717"><ele>245.0</ele><time>2026-05-03T10:48:18.641Z</time></trkpt><trkpt lat="43.4005167" lon="11.8272617"><ele>245.0</ele><time>2026-05-03T10:48:19.657Z</time></trkpt><trkpt lat="43.4003967" lon="11.8273467"><ele>245.0</ele><time>2026-05-03T10:48:20.651Z</time></trkpt><trkpt lat="43.4002883" lon="11.8274233"><ele>245.0</ele><time>2026-05-03T10:48:21.668Z</time></trkpt><trkpt lat="43.4001767" lon="11.82749"><ele>245.0</ele><time>2026-05-03T10:48:22.657Z</time></trkpt><trkpt lat="43.4000633" lon="11.8275483"><ele>245.0</ele><time>2026-05-03T10:48:23.663Z</time></trkpt><trkpt lat="43.3999483" lon="11.82759"><ele>245.0</ele><time>2026-05-03T10:48:24.656Z</time></trkpt><trkpt lat="43.39983" lon="11.82761"><ele>245.0</ele><time>2026-05-03T10:48:25.654Z</time></trkpt><trkpt lat="43.3997033" lon="11.827625"><ele>245.0</ele><time>2026-05-03T10:48:26.664Z</time></trkpt><trkpt lat="43.3995717" lon="11.8276383"><ele>245.0</ele><time>2026-05-03T10:48:27.663Z</time></trkpt><trkpt lat="43.39943" lon="11.827655"><ele>245.0</ele><time>2026-05-03T10:48:28.664Z</time></trkpt><trkpt lat="43.3992883" lon="11.8276783"><ele>245.0</ele><time>2026-05-03T10:48:29.663Z</time></trkpt><trkpt lat="43.399155" lon="11.827695"><ele>245.0</ele><time>2026-05-03T10:48:30.664Z</time></trkpt><trkpt lat="43.39903" lon="11.827715"><ele>245.0</ele><time>2026-05-03T10:48:31.655Z</time></trkpt><trkpt lat="43.3989183" lon="11.82773"><ele>245.0</ele><time>2026-05-03T10:48:32.655Z</time></trkpt><trkpt lat="43.3988083" lon="11.8277467"><ele>245.0</ele><time>2026-05-03T10:48:33.665Z</time></trkpt><trkpt lat="43.3987033" lon="11.8277533"><ele>245.0</ele><time>2026-05-03T10:48:34.652Z</time></trkpt><trkpt lat="43.398595" lon="11.82774"><ele>245.0</ele><time>2026-05-03T10:48:35.668Z</time></trkpt><trkpt lat="43.3984833" lon="11.8277067"><ele>245.0</ele><time>2026-05-03T10:48:36.652Z</time></trkpt><trkpt lat="43.3983683" lon="11.8276617"><ele>245.0</ele><time>2026-05-03T10:48:37.654Z</time></trkpt><trkpt lat="43.398255" lon="11.8276067"><ele>244.75</ele><time>2026-05-03T10:48:38.65Z</time></trkpt><trkpt lat="43.3981333" lon="11.8275483"><ele>244.5</ele><time>2026-05-03T10:48:39.655Z</time></trkpt><trkpt lat="43.3980033" lon="11.82749"><ele>244.25</ele><time>2026-05-03T10:48:40.646Z</time></trkpt><trkpt lat="43.3978717" lon="11.8274267"><ele>244.0</ele><time>2026-05-03T10:48:41.635Z</time></trkpt><trkpt lat="43.3977467" lon="11.82737"><ele>244.0</ele><time>2026-05-03T10:48:42.648Z</time></trkpt><trkpt lat="43.39763" lon="11.8273183"><ele>244.0</ele><time>2026-05-03T10:48:43.648Z</time></trkpt><trkpt lat="43.39752" lon="11.8272733"><ele>244.0</ele><time>2026-05-03T10:48:44.645Z</time></trkpt><trkpt lat="43.3974133" lon="11.8272233"><ele>244.0</ele><time>2026-05-03T10:48:45.648Z</time></trkpt><trkpt lat="43.3973083" lon="11.8271767"><ele>244.0</ele><time>2026-05-03T10:48:46.644Z</time></trkpt><trkpt lat="43.39722" lon="11.8271283"><ele>243.99999999999997</ele><time>2026-05-03T10:48:47.647Z</time></trkpt><trkpt lat="43.3971417" lon="11.8270633"><ele>243.99999999999997</ele><time>2026-05-03T10:48:48.646Z</time></trkpt><trkpt lat="43.397075" lon="11.8269767"><ele>244.0</ele><time>2026-05-03T10:48:49.657Z</time></trkpt><trkpt lat="43.39702" lon="11.8268683"><ele>244.0</ele><time>2026-05-03T10:48:50.654Z</time></trkpt><trkpt lat="43.3969667" lon="11.8267383"><ele>244.0</ele><time>2026-05-03T10:48:51.645Z</time></trkpt><trkpt lat="43.39691" lon="11.8265933"><ele>244.0</ele><time>2026-05-03T10:48:52.645Z</time></trkpt><trkpt lat="43.396855" lon="11.8264417"><ele>244.0</ele><time>2026-05-03T10:48:53.646Z</time></trkpt><trkpt lat="43.3967917" lon="11.8262867"><ele>244.0</ele><time>2026-05-03T10:48:54.652Z</time></trkpt><trkpt lat="43.3967267" lon="11.82613"><ele>243.25</ele><time>2026-05-03T10:48:55.64Z</time></trkpt><trkpt lat="43.39666" lon="11.82597"><ele>242.5</ele><time>2026-05-03T10:48:56.648Z</time></trkpt><trkpt lat="43.39659" lon="11.82582"><ele>241.75</ele><time>2026-05-03T10:48:57.643Z</time></trkpt><trkpt lat="43.396525" lon="11.8256733"><ele>241.0</ele><time>2026-05-03T10:48:58.645Z</time></trkpt><trkpt lat="43.3964533" lon="11.8255333"><ele>241.0</ele><time>2026-05-03T10:48:59.643Z</time></trkpt><trkpt lat="43.3963933" lon="11.8254033"><ele>241.00000000000003</ele><time>2026-05-03T10:49:00.652Z</time></trkpt><trkpt lat="43.396345" lon="11.8252833"><ele>241.00000000000003</ele><time>2026-05-03T10:49:01.641Z</time></trkpt><trkpt lat="43.3962983" lon="11.8251733"><ele>241.0</ele><time>2026-05-03T10:49:02.641Z</time></trkpt><trkpt lat="43.3962583" lon="11.825075"><ele>241.0</ele><time>2026-05-03T10:49:03.642Z</time></trkpt><trkpt lat="43.3962183" lon="11.825005"><ele>241.20000000000002</ele><time>2026-05-03T10:49:04.643Z</time></trkpt><trkpt lat="43.3961483" lon="11.8249183"><ele>241.40000000000003</ele><time>2026-05-03T10:49:06.646Z</time></trkpt><trkpt lat="43.3960733" lon="11.824905"><ele>241.6</ele><time>2026-05-03T10:49:08.649Z</time></trkpt><trkpt lat="43.3960067" lon="11.8249867"><ele>241.8</ele><time>2026-05-03T10:49:10.643Z</time></trkpt><trkpt lat="43.395985" lon="11.8251683"><ele>242.0</ele><time>2026-05-03T10:49:12.64Z</time></trkpt><trkpt lat="43.3959733" lon="11.8253"><ele>242.25</ele><time>2026-05-03T10:49:13.653Z</time></trkpt><trkpt lat="43.3959583" lon="11.8254467"><ele>242.5</ele><time>2026-05-03T10:49:14.65Z</time></trkpt><trkpt lat="43.3959417" lon="11.8255983"><ele>242.75</ele><time>2026-05-03T10:49:15.653Z</time></trkpt><trkpt lat="43.3959233" lon="11.825775"><ele>243.0</ele><time>2026-05-03T10:49:16.654Z</time></trkpt><trkpt lat="43.395895" lon="11.8259533"><ele>243.0</ele><time>2026-05-03T10:49:17.654Z</time></trkpt><trkpt lat="43.3958733" lon="11.826135"><ele>243.0</ele><time>2026-05-03T10:49:18.653Z</time></trkpt><trkpt lat="43.395855" lon="11.8263033"><ele>243.0</ele><time>2026-05-03T10:49:19.656Z</time></trkpt><trkpt lat="43.3958433" lon="11.8264583"><ele>243.0</ele><time>2026-05-03T10:49:20.655Z</time></trkpt><trkpt lat="43.3958317" lon="11.8266083"><ele>243.0</ele><time>2026-05-03T10:49:21.654Z</time></trkpt><trkpt lat="43.395815" lon="11.82675"><ele>243.0</ele><time>2026-05-03T10:49:22.65Z</time></trkpt><trkpt lat="43.3958017" lon="11.8268867"><ele>243.0</ele><time>2026-05-03T10:49:23.65Z</time></trkpt><trkpt lat="43.3957783" lon="11.827005"><ele>243.0</ele><time>2026-05-03T10:49:24.653Z</time></trkpt><trkpt lat="43.395735" lon="11.8271083"><ele>243.0</ele><time>2026-05-03T10:49:25.658Z</time></trkpt><trkpt lat="43.3956733" lon="11.8272067"><ele>243.25</ele><time>2026-05-03T10:49:26.653Z</time></trkpt><trkpt lat="43.395595" lon="11.8272883"><ele>243.5</ele><time>2026-05-03T10:49:27.665Z</time></trkpt><trkpt lat="43.3954933" lon="11.827365"><ele>243.75</ele><time>2026-05-03T10:49:28.645Z</time></trkpt><trkpt lat="43.395375" lon="11.8274467"><ele>244.0</ele><time>2026-05-03T10:49:29.648Z</time></trkpt><trkpt lat="43.39525" lon="11.8275283"><ele>244.0</ele><time>2026-05-03T10:49:30.646Z</time></trkpt><trkpt lat="43.3951267" lon="11.8276217"><ele>244.0</ele><time>2026-05-03T10:49:31.644Z</time></trkpt><trkpt lat="43.394995" lon="11.8277133"><ele>244.0</ele><time>2026-05-03T10:49:32.643Z</time></trkpt><trkpt lat="43.3948617" lon="11.827815"><ele>244.0</ele><time>2026-05-03T10:49:33.641Z</time></trkpt><trkpt lat="43.3947183" lon="11.8279217"><ele>244.0</ele><time>2026-05-03T10:49:34.643Z</time></trkpt><trkpt lat="43.39458" lon="11.82802"><ele>244.0</ele><time>2026-05-03T10:49:35.644Z</time></trkpt><trkpt lat="43.39445" lon="11.8281167"><ele>244.0</ele><time>2026-05-03T10:49:36.64Z</time></trkpt><trkpt lat="43.3943217" lon="11.8282117"><ele>244.0</ele><time>2026-05-03T10:49:37.645Z</time></trkpt><trkpt lat="43.39419" lon="11.8283217"><ele>244.0</ele><time>2026-05-03T10:49:38.64Z</time></trkpt><trkpt lat="43.3940533" lon="11.82843"><ele>244.0</ele><time>2026-05-03T10:49:39.645Z</time></trkpt><trkpt lat="43.393915" lon="11.8285383"><ele>244.0</ele><time>2026-05-03T10:49:40.673Z</time></trkpt><trkpt lat="43.3937767" lon="11.8286367"><ele>244.75</ele><time>2026-05-03T10:49:41.646Z</time></trkpt><trkpt lat="43.3936417" lon="11.8287333"><ele>245.5</ele><time>2026-05-03T10:49:42.644Z</time></trkpt><trkpt lat="43.3935167" lon="11.8288333"><ele>246.25</ele><time>2026-05-03T10:49:43.642Z</time></trkpt><trkpt lat="43.39339" lon="11.8289217"><ele>247.0</ele><time>2026-05-03T10:49:44.644Z</time></trkpt><trkpt lat="43.3932767" lon="11.8290133"><ele>247.0</ele><time>2026-05-03T10:49:45.641Z</time></trkpt><trkpt lat="43.39316" lon="11.8290983"><ele>247.0</ele><time>2026-05-03T10:49:46.645Z</time></trkpt><trkpt lat="43.3930517" lon="11.8291783"><ele>247.0</ele><time>2026-05-03T10:49:47.643Z</time></trkpt><trkpt lat="43.3929533" lon="11.829245"><ele>247.0</ele><time>2026-05-03T10:49:48.642Z</time></trkpt><trkpt lat="43.3928533" lon="11.8293133"><ele>246.6</ele><time>2026-05-03T10:49:49.64Z</time></trkpt><trkpt lat="43.39275" lon="11.8293733"><ele>246.2</ele><time>2026-05-03T10:49:50.643Z</time></trkpt><trkpt lat="43.3926567" lon="11.8294233"><ele>245.8</ele><time>2026-05-03T10:49:51.659Z</time></trkpt><trkpt lat="43.3925717" lon="11.8294567"><ele>245.4</ele><time>2026-05-03T10:49:52.647Z</time></trkpt><trkpt lat="43.3924933" lon="11.8294833"><ele>245.0</ele><time>2026-05-03T10:49:53.66Z</time></trkpt><trkpt lat="43.39241" lon="11.8295167"><ele>245.0</ele><time>2026-05-03T10:49:54.64Z</time></trkpt><trkpt lat="43.3923217" lon="11.8295417"><ele>245.0</ele><time>2026-05-03T10:49:55.639Z</time></trkpt><trkpt lat="43.392225" lon="11.82957"><ele>245.0</ele><time>2026-05-03T10:49:56.639Z</time></trkpt><trkpt lat="43.392135" lon="11.829595"><ele>245.0</ele><time>2026-05-03T10:49:57.638Z</time></trkpt><trkpt lat="43.3920367" lon="11.8296317"><ele>245.0</ele><time>2026-05-03T10:49:58.643Z</time></trkpt><trkpt lat="43.3919367" lon="11.8296483"><ele>245.0</ele><time>2026-05-03T10:49:59.64Z</time></trkpt><trkpt lat="43.3918267" lon="11.8296617"><ele>245.0</ele><time>2026-05-03T10:50:00.644Z</time></trkpt><trkpt lat="43.391715" lon="11.829675"><ele>245.0</ele><time>2026-05-03T10:50:01.65Z</time></trkpt><trkpt lat="43.3915983" lon="11.8296767"><ele>245.0</ele><time>2026-05-03T10:50:02.64Z</time></trkpt><trkpt lat="43.3914833" lon="11.8296733"><ele>245.0</ele><time>2026-05-03T10:50:03.653Z</time></trkpt><trkpt lat="43.3913717" lon="11.82967"><ele>245.0</ele><time>2026-05-03T10:50:04.639Z</time></trkpt><trkpt lat="43.39126" lon="11.8296583"><ele>245.0</ele><time>2026-05-03T10:50:05.638Z</time></trkpt><trkpt lat="43.39114" lon="11.8296483"><ele>245.0</ele><time>2026-05-03T10:50:06.64Z</time></trkpt><trkpt lat="43.3910167" lon="11.82964"><ele>244.75</ele><time>2026-05-03T10:50:07.65Z</time></trkpt><trkpt lat="43.3908967" lon="11.8296317"><ele>244.5</ele><time>2026-05-03T10:50:08.643Z</time></trkpt><trkpt lat="43.3907717" lon="11.8296267"><ele>244.25</ele><time>2026-05-03T10:50:09.642Z</time></trkpt><trkpt lat="43.3906483" lon="11.82961"><ele>244.0</ele><time>2026-05-03T10:50:10.638Z</time></trkpt><trkpt lat="43.3905283" lon="11.8295917"><ele>243.79999999999998</ele><time>2026-05-03T10:50:11.652Z</time></trkpt><trkpt lat="43.3904167" lon="11.8295783"><ele>243.59999999999997</ele><time>2026-05-03T10:50:12.639Z</time></trkpt><trkpt lat="43.3903083" lon="11.8295567"><ele>243.4</ele><time>2026-05-03T10:50:13.651Z</time></trkpt><trkpt lat="43.390215" lon="11.8295417"><ele>243.2</ele><time>2026-05-03T10:50:14.641Z</time></trkpt><trkpt lat="43.3901317" lon="11.8295283"><ele>243.0</ele><time>2026-05-03T10:50:15.646Z</time></trkpt><trkpt lat="43.3900483" lon="11.8295183"><ele>243.0</ele><time>2026-05-03T10:50:16.642Z</time></trkpt><trkpt lat="43.3899767" lon="11.82951"><ele>243.0</ele><time>2026-05-03T10:50:17.642Z</time></trkpt><trkpt lat="43.3898667" lon="11.8295333"><ele>243.0</ele><time>2026-05-03T10:50:19.647Z</time></trkpt><trkpt lat="43.3897883" lon="11.8296367"><ele>243.0</ele><time>2026-05-03T10:50:21.647Z</time></trkpt><trkpt lat="43.3897617" lon="11.8297233"><ele>243.0</ele><time>2026-05-03T10:50:22.643Z</time></trkpt><trkpt lat="43.3897367" lon="11.8298317"><ele>243.0</ele><time>2026-05-03T10:50:23.645Z</time></trkpt><trkpt lat="43.3897167" lon="11.8299617"><ele>243.0</ele><time>2026-05-03T10:50:24.647Z</time></trkpt><trkpt lat="43.3896967" lon="11.830105"><ele>243.0</ele><time>2026-05-03T10:50:25.644Z</time></trkpt><trkpt lat="43.38968" lon="11.830255"><ele>243.0</ele><time>2026-05-03T10:50:26.657Z</time></trkpt><trkpt lat="43.38965" lon="11.83041"><ele>243.0</ele><time>2026-05-03T10:50:27.65Z</time></trkpt><trkpt lat="43.3896133" lon="11.8305617"><ele>243.0</ele><time>2026-05-03T10:50:28.651Z</time></trkpt><trkpt lat="43.3895833" lon="11.8307167"><ele>243.0</ele><time>2026-05-03T10:50:29.654Z</time></trkpt><trkpt lat="43.389555" lon="11.8308583"><ele>243.0</ele><time>2026-05-03T10:50:30.644Z</time></trkpt><trkpt lat="43.3895333" lon="11.83099"><ele>243.0</ele><time>2026-05-03T10:50:31.649Z</time></trkpt><trkpt lat="43.3895133" lon="11.8311133"><ele>243.0</ele><time>2026-05-03T10:50:32.643Z</time></trkpt><trkpt lat="43.3894783" lon="11.831225"><ele>243.0</ele><time>2026-05-03T10:50:33.653Z</time></trkpt><trkpt lat="43.3894317" lon="11.8313217"><ele>243.4</ele><time>2026-05-03T10:50:34.642Z</time></trkpt><trkpt lat="43.3893733" lon="11.831405"><ele>243.8</ele><time>2026-05-03T10:50:35.644Z</time></trkpt><trkpt lat="43.3892967" lon="11.8314633"><ele>244.2</ele><time>2026-05-03T10:50:36.646Z</time></trkpt><trkpt lat="43.3892067" lon="11.8315017"><ele>244.6</ele><time>2026-05-03T10:50:37.642Z</time></trkpt><trkpt lat="43.389085" lon="11.8315383"><ele>245.0</ele><time>2026-05-03T10:50:38.658Z</time></trkpt><trkpt lat="43.38896" lon="11.8315783"><ele>244.5</ele><time>2026-05-03T10:50:39.645Z</time></trkpt><trkpt lat="43.3888317" lon="11.8316217"><ele>244.0</ele><time>2026-05-03T10:50:40.64Z</time></trkpt><trkpt lat="43.3886917" lon="11.83167"><ele>243.5</ele><time>2026-05-03T10:50:41.635Z</time></trkpt><trkpt lat="43.3885533" lon="11.8317233"><ele>243.0</ele><time>2026-05-03T10:50:42.643Z</time></trkpt><trkpt lat="43.38841" lon="11.8317783"><ele>243.25</ele><time>2026-05-03T10:50:43.64Z</time></trkpt><trkpt lat="43.38827" lon="11.8318333"><ele>243.5</ele><time>2026-05-03T10:50:44.647Z</time></trkpt><trkpt lat="43.3881317" lon="11.8318967"><ele>243.75</ele><time>2026-05-03T10:50:45.643Z</time></trkpt><trkpt lat="43.3879867" lon="11.8319483"><ele>244.0</ele><time>2026-05-03T10:50:46.645Z</time></trkpt><trkpt lat="43.38783" lon="11.8320083"><ele>244.33333333333331</ele><time>2026-05-03T10:50:47.646Z</time></trkpt><trkpt lat="43.3876817" lon="11.8320583"><ele>244.66666666666669</ele><time>2026-05-03T10:50:48.642Z</time></trkpt><trkpt lat="43.3875317" lon="11.8321167"><ele>245.0</ele><time>2026-05-03T10:50:49.653Z</time></trkpt><trkpt lat="43.387385" lon="11.8321683"><ele>245.0</ele><time>2026-05-03T10:50:50.642Z</time></trkpt><trkpt lat="43.387255" lon="11.8322217"><ele>245.0</ele><time>2026-05-03T10:50:51.644Z</time></trkpt><trkpt lat="43.3871283" lon="11.8322717"><ele>245.0</ele><time>2026-05-03T10:50:52.639Z</time></trkpt><trkpt lat="43.3870083" lon="11.8323117"><ele>245.0</ele><time>2026-05-03T10:50:53.642Z</time></trkpt><trkpt lat="43.386895" lon="11.832345"><ele>244.8</ele><time>2026-05-03T10:50:54.632Z</time></trkpt><trkpt lat="43.3867917" lon="11.83239"><ele>244.6</ele><time>2026-05-03T10:50:55.641Z</time></trkpt><trkpt lat="43.3867" lon="11.8324283"><ele>244.39999999999998</ele><time>2026-05-03T10:50:56.654Z</time></trkpt><trkpt lat="43.3866117" lon="11.8324717"><ele>244.2</ele><time>2026-05-03T10:50:57.652Z</time></trkpt><trkpt lat="43.38652" lon="11.8325067"><ele>244.0</ele><time>2026-05-03T10:50:58.656Z</time></trkpt><trkpt lat="43.3864283" lon="11.8325333"><ele>244.2</ele><time>2026-05-03T10:50:59.653Z</time></trkpt><trkpt lat="43.386335" lon="11.8325533"><ele>244.39999999999998</ele><time>2026-05-03T10:51:00.648Z</time></trkpt><trkpt lat="43.3862367" lon="11.8325533"><ele>244.6</ele><time>2026-05-03T10:51:01.651Z</time></trkpt><trkpt lat="43.3861367" lon="11.83253"><ele>244.8</ele><time>2026-05-03T10:51:02.652Z</time></trkpt><trkpt lat="43.3860367" lon="11.8324967"><ele>245.0</ele><time>2026-05-03T10:51:03.649Z</time></trkpt><trkpt lat="43.3859267" lon="11.8324567"><ele>245.0</ele><time>2026-05-03T10:51:04.657Z</time></trkpt><trkpt lat="43.3858167" lon="11.832405"><ele>245.0</ele><time>2026-05-03T10:51:05.653Z</time></trkpt><trkpt lat="43.385695" lon="11.8323483"><ele>245.0</ele><time>2026-05-03T10:51:06.653Z</time></trkpt><trkpt lat="43.3855717" lon="11.8322967"><ele>245.0</ele><time>2026-05-03T10:51:07.651Z</time></trkpt><trkpt lat="43.3854567" lon="11.8322467"><ele>246.0</ele><time>2026-05-03T10:51:08.654Z</time></trkpt><trkpt lat="43.38534" lon="11.8322017"><ele>247.0</ele><time>2026-05-03T10:51:09.652Z</time></trkpt><trkpt lat="43.3852267" lon="11.8321533"><ele>248.0</ele><time>2026-05-03T10:51:10.658Z</time></trkpt><trkpt lat="43.3851" lon="11.8321017"><ele>249.0</ele><time>2026-05-03T10:51:11.664Z</time></trkpt><trkpt lat="43.3849783" lon="11.8320467"><ele>249.0</ele><time>2026-05-03T10:51:12.646Z</time></trkpt><trkpt lat="43.3848617" lon="11.8319983"><ele>249.0</ele><time>2026-05-03T10:51:13.645Z</time></trkpt><trkpt lat="43.38475" lon="11.8319533"><ele>249.0</ele><time>2026-05-03T10:51:14.663Z</time></trkpt><trkpt lat="43.3846367" lon="11.8318983"><ele>249.0</ele><time>2026-05-03T10:51:15.648Z</time></trkpt><trkpt lat="43.3845217" lon="11.83185"><ele>247.75</ele><time>2026-05-03T10:51:16.665Z</time></trkpt><trkpt lat="43.3844067" lon="11.8318017"><ele>246.5</ele><time>2026-05-03T10:51:17.658Z</time></trkpt><trkpt lat="43.3843" lon="11.8317667"><ele>245.25</ele><time>2026-05-03T10:51:18.651Z</time></trkpt><trkpt lat="43.3841783" lon="11.8317433"><ele>244.0</ele><time>2026-05-03T10:51:19.652Z</time></trkpt><trkpt lat="43.3840533" lon="11.8317117"><ele>244.0</ele><time>2026-05-03T10:51:20.675Z</time></trkpt><trkpt lat="43.3839433" lon="11.8316983"><ele>243.99999999999997</ele><time>2026-05-03T10:51:21.645Z</time></trkpt><trkpt lat="43.3838433" lon="11.8316883"><ele>243.99999999999997</ele><time>2026-05-03T10:51:22.641Z</time></trkpt><trkpt lat="43.3837533" lon="11.8316933"><ele>244.0</ele><time>2026-05-03T10:51:23.648Z</time></trkpt><trkpt lat="43.3836617" lon="11.83172"><ele>244.0</ele><time>2026-05-03T10:51:24.655Z</time></trkpt><trkpt lat="43.38357" lon="11.8317617"><ele>244.6</ele><time>2026-05-03T10:51:25.635Z</time></trkpt><trkpt lat="43.3834717" lon="11.8318083"><ele>245.2</ele><time>2026-05-03T10:51:26.652Z</time></trkpt><trkpt lat="43.3833633" lon="11.8318667"><ele>245.79999999999998</ele><time>2026-05-03T10:51:27.643Z</time></trkpt><trkpt lat="43.3832617" lon="11.8319083"><ele>246.39999999999998</ele><time>2026-05-03T10:51:28.646Z</time></trkpt><trkpt lat="43.3831467" lon="11.83194"><ele>247.0</ele><time>2026-05-03T10:51:29.661Z</time></trkpt><trkpt lat="43.383035" lon="11.8319783"><ele>247.25</ele><time>2026-05-03T10:51:30.649Z</time></trkpt><trkpt lat="43.3829233" lon="11.83202"><ele>247.5</ele><time>2026-05-03T10:51:31.647Z</time></trkpt><trkpt lat="43.3828183" lon="11.8320633"><ele>247.75</ele><time>2026-05-03T10:51:32.653Z</time></trkpt><trkpt lat="43.382705" lon="11.8321133"><ele>248.0</ele><time>2026-05-03T10:51:33.646Z</time></trkpt><trkpt lat="43.3825933" lon="11.8321633"><ele>248.0</ele><time>2026-05-03T10:51:34.653Z</time></trkpt><trkpt lat="43.3824867" lon="11.8322033"><ele>248.0</ele><time>2026-05-03T10:51:35.655Z</time></trkpt><trkpt lat="43.38238" lon="11.8322267"><ele>248.0</ele><time>2026-05-03T10:51:36.643Z</time></trkpt><trkpt lat="43.38228" lon="11.832235"><ele>248.0</ele><time>2026-05-03T10:51:37.653Z</time></trkpt><trkpt lat="43.3821867" lon="11.8322333"><ele>248.0</ele><time>2026-05-03T10:51:38.652Z</time></trkpt><trkpt lat="43.382105" lon="11.8322267"><ele>247.83333333333334</ele><time>2026-05-03T10:51:39.648Z</time></trkpt><trkpt lat="43.3820317" lon="11.832225"><ele>247.66666666666669</ele><time>2026-05-03T10:51:40.67Z</time></trkpt><trkpt lat="43.381925" lon="11.8322383"><ele>247.5</ele><time>2026-05-03T10:51:42.658Z</time></trkpt><trkpt lat="43.3817967" lon="11.83224"><ele>247.33333333333331</ele><time>2026-05-03T10:51:44.648Z</time></trkpt><trkpt lat="43.3817317" lon="11.8322333"><ele>247.16666666666666</ele><time>2026-05-03T10:51:45.65Z</time></trkpt><trkpt lat="43.3816667" lon="11.8322283"><ele>247.0</ele><time>2026-05-03T10:51:46.643Z</time></trkpt><trkpt lat="43.381595" lon="11.83223"><ele>247.0</ele><time>2026-05-03T10:51:47.657Z</time></trkpt><trkpt lat="43.3815117" lon="11.8322233"><ele>247.0</ele><time>2026-05-03T10:51:48.652Z</time></trkpt><trkpt lat="43.38142" lon="11.8322217"><ele>247.0</ele><time>2026-05-03T10:51:49.663Z</time></trkpt><trkpt lat="43.38132" lon="11.8322167"><ele>247.0</ele><time>2026-05-03T10:51:50.654Z</time></trkpt><trkpt lat="43.3812167" lon="11.8322267"><ele>247.0</ele><time>2026-05-03T10:51:51.653Z</time></trkpt><trkpt lat="43.3811133" lon="11.8322433"><ele>246.8</ele><time>2026-05-03T10:51:52.656Z</time></trkpt><trkpt lat="43.381015" lon="11.832265"><ele>246.6</ele><time>2026-05-03T10:51:53.642Z</time></trkpt><trkpt lat="43.3809183" lon="11.83228"><ele>246.40000000000003</ele><time>2026-05-03T10:51:54.653Z</time></trkpt><trkpt lat="43.380825" lon="11.8323067"><ele>246.20000000000002</ele><time>2026-05-03T10:51:55.645Z</time></trkpt><trkpt lat="43.3807333" lon="11.832335"><ele>246.0</ele><time>2026-05-03T10:51:56.648Z</time></trkpt><trkpt lat="43.38064" lon="11.8323583"><ele>246.0</ele><time>2026-05-03T10:51:57.641Z</time></trkpt><trkpt lat="43.3805533" lon="11.8323783"><ele>246.00000000000003</ele><time>2026-05-03T10:51:58.646Z</time></trkpt><trkpt lat="43.3804617" lon="11.8323983"><ele>246.00000000000003</ele><time>2026-05-03T10:51:59.65Z</time></trkpt><trkpt lat="43.380355" lon="11.8323933"><ele>246.0</ele><time>2026-05-03T10:52:00.654Z</time></trkpt><trkpt lat="43.3802467" lon="11.8323933"><ele>246.0</ele><time>2026-05-03T10:52:01.638Z</time></trkpt><trkpt lat="43.3801383" lon="11.8323783"><ele>245.8</ele><time>2026-05-03T10:52:02.649Z</time></trkpt><trkpt lat="43.3800283" lon="11.83237"><ele>245.60000000000002</ele><time>2026-05-03T10:52:03.65Z</time></trkpt><trkpt lat="43.379925" lon="11.832355"><ele>245.4</ele><time>2026-05-03T10:52:04.648Z</time></trkpt><trkpt lat="43.379815" lon="11.8323567"><ele>245.2</ele><time>2026-05-03T10:52:05.642Z</time></trkpt><trkpt lat="43.3796967" lon="11.83234"><ele>245.0</ele><time>2026-05-03T10:52:06.642Z</time></trkpt><trkpt lat="43.37957" lon="11.8323283"><ele>245.0</ele><time>2026-05-03T10:52:07.642Z</time></trkpt><trkpt lat="43.3794433" lon="11.8323317"><ele>245.0</ele><time>2026-05-03T10:52:08.633Z</time></trkpt><trkpt lat="43.3793067" lon="11.8323233"><ele>245.0</ele><time>2026-05-03T10:52:09.648Z</time></trkpt><trkpt lat="43.3791767" lon="11.8323183"><ele>245.0</ele><time>2026-05-03T10:52:10.641Z</time></trkpt><trkpt lat="43.3790483" lon="11.8323117"><ele>245.0</ele><time>2026-05-03T10:52:11.651Z</time></trkpt><trkpt lat="43.3789117" lon="11.8323017"><ele>245.0</ele><time>2026-05-03T10:52:12.644Z</time></trkpt><trkpt lat="43.3787817" lon="11.83229"><ele>245.0</ele><time>2026-05-03T10:52:13.659Z</time></trkpt><trkpt lat="43.378655" lon="11.832285"><ele>245.0</ele><time>2026-05-03T10:52:14.641Z</time></trkpt><trkpt lat="43.378525" lon="11.83228"><ele>245.0</ele><time>2026-05-03T10:52:15.634Z</time></trkpt><trkpt lat="43.3783983" lon="11.8322767"><ele>245.0</ele><time>2026-05-03T10:52:16.641Z</time></trkpt><trkpt lat="43.3782833" lon="11.8322683"><ele>245.0</ele><time>2026-05-03T10:52:17.645Z</time></trkpt><trkpt lat="43.3781633" lon="11.83225"><ele>245.0</ele><time>2026-05-03T10:52:18.639Z</time></trkpt><trkpt lat="43.37805" lon="11.83224"><ele>244.83333333333334</ele><time>2026-05-03T10:52:19.649Z</time></trkpt><trkpt lat="43.3779483" lon="11.8322383"><ele>244.66666666666669</ele><time>2026-05-03T10:52:20.645Z</time></trkpt><trkpt lat="43.3778633" lon="11.8322333"><ele>244.5</ele><time>2026-05-03T10:52:21.639Z</time></trkpt><trkpt lat="43.377785" lon="11.8322333"><ele>244.33333333333331</ele><time>2026-05-03T10:52:22.641Z</time></trkpt><trkpt lat="43.3777217" lon="11.8322367"><ele>244.16666666666666</ele><time>2026-05-03T10:52:23.64Z</time></trkpt><trkpt lat="43.3776283" lon="11.8323083"><ele>244.0</ele><time>2026-05-03T10:52:25.65Z</time></trkpt><trkpt lat="43.37761" lon="11.832445"><ele>244.0</ele><time>2026-05-03T10:52:27.65Z</time></trkpt><trkpt lat="43.3776267" lon="11.83255"><ele>243.99999999999997</ele><time>2026-05-03T10:52:28.641Z</time></trkpt><trkpt lat="43.3776483" lon="11.8326633"><ele>243.99999999999997</ele><time>2026-05-03T10:52:29.645Z</time></trkpt><trkpt lat="43.377675" lon="11.83279"><ele>244.0</ele><time>2026-05-03T10:52:30.662Z</time></trkpt><trkpt lat="43.3776967" lon="11.8329283"><ele>244.0</ele><time>2026-05-03T10:52:31.653Z</time></trkpt><trkpt lat="43.3777167" lon="11.8330783"><ele>244.0</ele><time>2026-05-03T10:52:32.67Z</time></trkpt><trkpt lat="43.3777317" lon="11.833235"><ele>243.99999999999997</ele><time>2026-05-03T10:52:33.668Z</time></trkpt><trkpt lat="43.37775" lon="11.8333867"><ele>243.99999999999997</ele><time>2026-05-03T10:52:34.653Z</time></trkpt><trkpt lat="43.37777" lon="11.8335267"><ele>244.0</ele><time>2026-05-03T10:52:35.647Z</time></trkpt><trkpt lat="43.3777917" lon="11.8336683"><ele>244.0</ele><time>2026-05-03T10:52:36.661Z</time></trkpt><trkpt lat="43.3778067" lon="11.8338117"><ele>244.0</ele><time>2026-05-03T10:52:37.66Z</time></trkpt><trkpt lat="43.377825" lon="11.8339567"><ele>243.99999999999997</ele><time>2026-05-03T10:52:38.654Z</time></trkpt><trkpt lat="43.3778467" lon="11.8341017"><ele>243.99999999999997</ele><time>2026-05-03T10:52:39.656Z</time></trkpt><trkpt lat="43.37787" lon="11.8342483"><ele>244.0</ele><time>2026-05-03T10:52:40.661Z</time></trkpt><trkpt lat="43.3778867" lon="11.8343933"><ele>244.0</ele><time>2026-05-03T10:52:41.662Z</time></trkpt><trkpt lat="43.37791" lon="11.83454"><ele>244.39999999999998</ele><time>2026-05-03T10:52:42.659Z</time></trkpt><trkpt lat="43.377925" lon="11.83468"><ele>244.79999999999998</ele><time>2026-05-03T10:52:43.654Z</time></trkpt><trkpt lat="43.377955" lon="11.8348267"><ele>245.20000000000002</ele><time>2026-05-03T10:52:44.654Z</time></trkpt><trkpt lat="43.3779783" lon="11.83496"><ele>245.60000000000002</ele><time>2026-05-03T10:52:45.651Z</time></trkpt><trkpt lat="43.3780017" lon="11.835085"><ele>246.0</ele><time>2026-05-03T10:52:46.64Z</time></trkpt><trkpt lat="43.3780233" lon="11.83522"><ele>246.0</ele><time>2026-05-03T10:52:47.64Z</time></trkpt><trkpt lat="43.37804" lon="11.8353567"><ele>246.00000000000003</ele><time>2026-05-03T10:52:48.636Z</time></trkpt><trkpt lat="43.378055" lon="11.835505"><ele>246.00000000000003</ele><time>2026-05-03T10:52:49.656Z</time></trkpt><trkpt lat="43.378075" lon="11.8356583"><ele>246.0</ele><time>2026-05-03T10:52:50.635Z</time></trkpt><trkpt lat="43.3780967" lon="11.8358133"><ele>246.0</ele><time>2026-05-03T10:52:51.639Z</time></trkpt><trkpt lat="43.37812" lon="11.8359783"><ele>246.0</ele><time>2026-05-03T10:52:52.65Z</time></trkpt><trkpt lat="43.3781417" lon="11.8361517"><ele>246.0</ele><time>2026-05-03T10:52:53.66Z</time></trkpt><trkpt lat="43.3781667" lon="11.83633"><ele>246.0</ele><time>2026-05-03T10:52:54.653Z</time></trkpt><trkpt lat="43.3781967" lon="11.836515"><ele>246.0</ele><time>2026-05-03T10:52:55.655Z</time></trkpt><trkpt lat="43.3782217" lon="11.8366983"><ele>246.0</ele><time>2026-05-03T10:52:56.637Z</time></trkpt><trkpt lat="43.3782483" lon="11.8368633"><ele>246.0</ele><time>2026-05-03T10:52:57.65Z</time></trkpt><trkpt lat="43.3782717" lon="11.837035"><ele>246.0</ele><time>2026-05-03T10:52:58.652Z</time></trkpt><trkpt lat="43.3782917" lon="11.8371933"><ele>246.0</ele><time>2026-05-03T10:52:59.687Z</time></trkpt><trkpt lat="43.3783133" lon="11.8373517"><ele>246.0</ele><time>2026-05-03T10:53:00.68Z</time></trkpt><trkpt lat="43.3783333" lon="11.837495"><ele>246.00000000000003</ele><time>2026-05-03T10:53:01.648Z</time></trkpt><trkpt lat="43.3783533" lon="11.8376217"><ele>246.00000000000003</ele><time>2026-05-03T10:53:02.63Z</time></trkpt><trkpt lat="43.3783767" lon="11.8377367"><ele>246.0</ele><time>2026-05-03T10:53:03.649Z</time></trkpt><trkpt lat="43.37839" lon="11.8378417"><ele>246.0</ele><time>2026-05-03T10:53:04.648Z</time></trkpt><trkpt lat="43.3784017" lon="11.83798"><ele>246.0</ele><time>2026-05-03T10:53:06.658Z</time></trkpt><trkpt lat="43.3783833" lon="11.8380817"><ele>246.0</ele><time>2026-05-03T10:53:08.656Z</time></trkpt><trkpt lat="43.3783117" lon="11.83811"><ele>246.0</ele><time>2026-05-03T10:53:10.643Z</time></trkpt><trkpt lat="43.37819" lon="11.8381017"><ele>246.0</ele><time>2026-05-03T10:53:12.65Z</time></trkpt><trkpt lat="43.3781117" lon="11.8380933"><ele>246.0</ele><time>2026-05-03T10:53:13.644Z</time></trkpt><trkpt lat="43.3780317" lon="11.8380917"><ele>246.0</ele><time>2026-05-03T10:53:14.683Z</time></trkpt><trkpt lat="43.37795" lon="11.8380917"><ele>246.0</ele><time>2026-05-03T10:53:15.632Z</time></trkpt><trkpt lat="43.3778617" lon="11.8381"><ele>246.00000000000003</ele><time>2026-05-03T10:53:16.655Z</time></trkpt><trkpt lat="43.37777" lon="11.8381183"><ele>246.00000000000003</ele><time>2026-05-03T10:53:17.658Z</time></trkpt><trkpt lat="43.3776683" lon="11.83815"><ele>246.0</ele><time>2026-05-03T10:53:18.648Z</time></trkpt><trkpt lat="43.3775583" lon="11.8381833"><ele>246.0</ele><time>2026-05-03T10:53:19.651Z</time></trkpt><trkpt lat="43.377435" lon="11.8382183"><ele>246.0</ele><time>2026-05-03T10:53:20.647Z</time></trkpt><trkpt lat="43.377305" lon="11.83825"><ele>246.0</ele><time>2026-05-03T10:53:21.642Z</time></trkpt><trkpt lat="43.377175" lon="11.8382867"><ele>246.0</ele><time>2026-05-03T10:53:22.659Z</time></trkpt><trkpt lat="43.37704" lon="11.8383283"><ele>246.0</ele><time>2026-05-03T10:53:23.642Z</time></trkpt><trkpt lat="43.3769017" lon="11.838355"><ele>246.25</ele><time>2026-05-03T10:53:24.646Z</time></trkpt><trkpt lat="43.376775" lon="11.8383817"><ele>246.5</ele><time>2026-05-03T10:53:25.643Z</time></trkpt><trkpt lat="43.37666" lon="11.83841"><ele>246.75</ele><time>2026-05-03T10:53:26.643Z</time></trkpt><trkpt lat="43.3765383" lon="11.838445"><ele>247.0</ele><time>2026-05-03T10:53:27.641Z</time></trkpt><trkpt lat="43.3764233" lon="11.8384917"><ele>247.5</ele><time>2026-05-03T10:53:28.644Z</time></trkpt><trkpt lat="43.3763117" lon="11.8385317"><ele>248.0</ele><time>2026-05-03T10:53:29.645Z</time></trkpt><trkpt lat="43.376195" lon="11.8385667"><ele>248.5</ele><time>2026-05-03T10:53:30.641Z</time></trkpt><trkpt lat="43.37608" lon="11.8386233"><ele>249.0</ele><time>2026-05-03T10:53:31.652Z</time></trkpt><trkpt lat="43.3759683" lon="11.8386683"><ele>249.0</ele><time>2026-05-03T10:53:32.641Z</time></trkpt><trkpt lat="43.3758633" lon="11.8387"><ele>248.99999999999997</ele><time>2026-05-03T10:53:33.652Z</time></trkpt><trkpt lat="43.3757633" lon="11.8387217"><ele>248.99999999999997</ele><time>2026-05-03T10:53:34.641Z</time></trkpt><trkpt lat="43.3756617" lon="11.8387433"><ele>249.0</ele><time>2026-05-03T10:53:35.64Z</time></trkpt><trkpt lat="43.3755533" lon="11.8387467"><ele>249.0</ele><time>2026-05-03T10:53:36.65Z</time></trkpt><trkpt lat="43.3754433" lon="11.8387117"><ele>249.6</ele><time>2026-05-03T10:53:37.656Z</time></trkpt><trkpt lat="43.3753467" lon="11.8386417"><ele>250.2</ele><time>2026-05-03T10:53:38.641Z</time></trkpt><trkpt lat="43.3752467" lon="11.83857"><ele>250.79999999999998</ele><time>2026-05-03T10:53:39.632Z</time></trkpt><trkpt lat="43.3751433" lon="11.83851"><ele>251.39999999999998</ele><time>2026-05-03T10:53:40.654Z</time></trkpt><trkpt lat="43.3750417" lon="11.83846"><ele>252.0</ele><time>2026-05-03T10:53:41.638Z</time></trkpt><trkpt lat="43.374935" lon="11.838415"><ele>252.0</ele><time>2026-05-03T10:53:42.64Z</time></trkpt><trkpt lat="43.3748317" lon="11.838375"><ele>252.0</ele><time>2026-05-03T10:53:43.649Z</time></trkpt><trkpt lat="43.3747333" lon="11.8383367"><ele>252.0</ele><time>2026-05-03T10:53:44.646Z</time></trkpt><trkpt lat="43.37464" lon="11.8383017"><ele>252.0</ele><time>2026-05-03T10:53:45.637Z</time></trkpt><trkpt lat="43.37454" lon="11.8382633"><ele>252.0</ele><time>2026-05-03T10:53:46.639Z</time></trkpt><trkpt lat="43.37444" lon="11.8382233"><ele>251.8</ele><time>2026-05-03T10:53:47.637Z</time></trkpt><trkpt lat="43.3743367" lon="11.83818"><ele>251.6</ele><time>2026-05-03T10:53:48.639Z</time></trkpt><trkpt lat="43.3742333" lon="11.8381383"><ele>251.40000000000003</ele><time>2026-05-03T10:53:49.645Z</time></trkpt><trkpt lat="43.3741283" lon="11.838095"><ele>251.20000000000002</ele><time>2026-05-03T10:53:50.635Z</time></trkpt><trkpt lat="43.37402" lon="11.8380533"><ele>251.0</ele><time>2026-05-03T10:53:51.648Z</time></trkpt><trkpt lat="43.3739067" lon="11.8380117"><ele>250.25</ele><time>2026-05-03T10:53:52.635Z</time></trkpt><trkpt lat="43.3737933" lon="11.8379683"><ele>249.5</ele><time>2026-05-03T10:53:53.653Z</time></trkpt><trkpt lat="43.3736783" lon="11.8379217"><ele>248.75</ele><time>2026-05-03T10:53:54.633Z</time></trkpt><trkpt lat="43.3735567" lon="11.8378717"><ele>248.0</ele><time>2026-05-03T10:53:55.645Z</time></trkpt><trkpt lat="43.3734333" lon="11.8378233"><ele>248.0</ele><time>2026-05-03T10:53:56.644Z</time></trkpt><trkpt lat="43.3733117" lon="11.83777"><ele>248.0</ele><time>2026-05-03T10:53:57.646Z</time></trkpt><trkpt lat="43.3731917" lon="11.8377233"><ele>248.0</ele><time>2026-05-03T10:53:58.647Z</time></trkpt><trkpt lat="43.3730767" lon="11.8376783"><ele>248.0</ele><time>2026-05-03T10:53:59.647Z</time></trkpt><trkpt lat="43.3729617" lon="11.8376283"><ele>248.0</ele><time>2026-05-03T10:54:00.643Z</time></trkpt><trkpt lat="43.3728533" lon="11.8375717"><ele>248.0</ele><time>2026-05-03T10:54:01.64Z</time></trkpt><trkpt lat="43.3727533" lon="11.8375167"><ele>248.0</ele><time>2026-05-03T10:54:02.644Z</time></trkpt><trkpt lat="43.3726683" lon="11.8374617"><ele>248.0</ele><time>2026-05-03T10:54:03.638Z</time></trkpt><trkpt lat="43.37258" lon="11.83741"><ele>248.0</ele><time>2026-05-03T10:54:04.644Z</time></trkpt><trkpt lat="43.372505" lon="11.8373583"><ele>248.00000000000003</ele><time>2026-05-03T10:54:05.648Z</time></trkpt><trkpt lat="43.37244" lon="11.837315"><ele>248.0</ele><time>2026-05-03T10:54:06.647Z</time></trkpt><trkpt lat="43.3723733" lon="11.83728"><ele>248.0</ele><time>2026-05-03T10:54:07.666Z</time></trkpt><trkpt lat="43.3722733" lon="11.8372317"><ele>248.0</ele><time>2026-05-03T10:54:09.656Z</time></trkpt><trkpt lat="43.3721883" lon="11.8372483"><ele>248.00000000000003</ele><time>2026-05-03T10:54:11.64Z</time></trkpt><trkpt lat="43.3721133" lon="11.8373633"><ele>248.0</ele><time>2026-05-03T10:54:13.645Z</time></trkpt><trkpt lat="43.3720867" lon="11.8374483"><ele>247.8</ele><time>2026-05-03T10:54:14.645Z</time></trkpt><trkpt lat="43.3720617" lon="11.83756"><ele>247.60000000000002</ele><time>2026-05-03T10:54:15.639Z</time></trkpt><trkpt lat="43.3720283" lon="11.8376833"><ele>247.39999999999998</ele><time>2026-05-03T10:54:16.646Z</time></trkpt><trkpt lat="43.3719933" lon="11.837825"><ele>247.2</ele><time>2026-05-03T10:54:17.641Z</time></trkpt><trkpt lat="43.3719583" lon="11.8379683"><ele>247.0</ele><time>2026-05-03T10:54:18.639Z</time></trkpt><trkpt lat="43.37192" lon="11.8381033"><ele>247.0</ele><time>2026-05-03T10:54:19.642Z</time></trkpt><trkpt lat="43.3718783" lon="11.8382267"><ele>247.0</ele><time>2026-05-03T10:54:20.645Z</time></trkpt><trkpt lat="43.3718283" lon="11.8383483"><ele>247.0</ele><time>2026-05-03T10:54:21.639Z</time></trkpt><trkpt lat="43.3717733" lon="11.838455"><ele>247.0</ele><time>2026-05-03T10:54:22.643Z</time></trkpt><trkpt lat="43.3717033" lon="11.838555"><ele>247.0</ele><time>2026-05-03T10:54:23.645Z</time></trkpt><trkpt lat="43.3716133" lon="11.8386383"><ele>247.75</ele><time>2026-05-03T10:54:24.639Z</time></trkpt><trkpt lat="43.3715117" lon="11.8387167"><ele>248.5</ele><time>2026-05-03T10:54:25.643Z</time></trkpt><trkpt lat="43.3713967" lon="11.8387883"><ele>249.25</ele><time>2026-05-03T10:54:26.645Z</time></trkpt><trkpt lat="43.37128" lon="11.83886"><ele>250.0</ele><time>2026-05-03T10:54:27.641Z</time></trkpt><trkpt lat="43.3711617" lon="11.838945"><ele>250.0</ele><time>2026-05-03T10:54:28.642Z</time></trkpt><trkpt lat="43.37104" lon="11.839035"><ele>250.0</ele><time>2026-05-03T10:54:29.636Z</time></trkpt><trkpt lat="43.3709217" lon="11.839125"><ele>250.0</ele><time>2026-05-03T10:54:30.654Z</time></trkpt><trkpt lat="43.37081" lon="11.8392033"><ele>250.0</ele><time>2026-05-03T10:54:31.637Z</time></trkpt><trkpt lat="43.3707033" lon="11.8392817"><ele>250.4</ele><time>2026-05-03T10:54:32.638Z</time></trkpt><trkpt lat="43.370605" lon="11.8393533"><ele>250.8</ele><time>2026-05-03T10:54:33.638Z</time></trkpt><trkpt lat="43.3705167" lon="11.8394117"><ele>251.2</ele><time>2026-05-03T10:54:34.639Z</time></trkpt><trkpt lat="43.3704267" lon="11.83946"><ele>251.6</ele><time>2026-05-03T10:54:35.643Z</time></trkpt><trkpt lat="43.37035" lon="11.8394867"><ele>252.0</ele><time>2026-05-03T10:54:36.645Z</time></trkpt><trkpt lat="43.3702583" lon="11.83948"><ele>252.0</ele><time>2026-05-03T10:54:37.645Z</time></trkpt><trkpt lat="43.370165" lon="11.83944"><ele>252.0</ele><time>2026-05-03T10:54:38.653Z</time></trkpt><trkpt lat="43.37007" lon="11.839385"><ele>252.0</ele><time>2026-05-03T10:54:39.659Z</time></trkpt><trkpt lat="43.3699683" lon="11.839325"><ele>252.0</ele><time>2026-05-03T10:54:40.648Z</time></trkpt><trkpt lat="43.3698633" lon="11.83926"><ele>252.0</ele><time>2026-05-03T10:54:41.654Z</time></trkpt><trkpt lat="43.369755" lon="11.8392067"><ele>253.0</ele><time>2026-05-03T10:54:42.652Z</time></trkpt><trkpt lat="43.3696367" lon="11.8391683"><ele>254.0</ele><time>2026-05-03T10:54:43.656Z</time></trkpt><trkpt lat="43.3695233" lon="11.8391417"><ele>255.0</ele><time>2026-05-03T10:54:44.66Z</time></trkpt><trkpt lat="43.369405" lon="11.8391217"><ele>256.0</ele><time>2026-05-03T10:54:45.656Z</time></trkpt><trkpt lat="43.3692933" lon="11.8391083"><ele>256.0</ele><time>2026-05-03T10:54:46.659Z</time></trkpt><trkpt lat="43.3691733" lon="11.8390967"><ele>256.0</ele><time>2026-05-03T10:54:47.653Z</time></trkpt><trkpt lat="43.3690483" lon="11.8390833"><ele>256.0</ele><time>2026-05-03T10:54:48.644Z</time></trkpt><trkpt lat="43.3689233" lon="11.8390683"><ele>256.0</ele><time>2026-05-03T10:54:49.654Z</time></trkpt><trkpt lat="43.3687983" lon="11.83906"><ele>256.0</ele><time>2026-05-03T10:54:50.664Z</time></trkpt><trkpt lat="43.3686783" lon="11.8390417"><ele>256.0</ele><time>2026-05-03T10:54:51.667Z</time></trkpt><trkpt lat="43.3685617" lon="11.83902"><ele>256.0</ele><time>2026-05-03T10:54:52.661Z</time></trkpt><trkpt lat="43.3684517" lon="11.8390033"><ele>256.0</ele><time>2026-05-03T10:54:53.662Z</time></trkpt><trkpt lat="43.368345" lon="11.8389883"><ele>256.0</ele><time>2026-05-03T10:54:54.652Z</time></trkpt><trkpt lat="43.368245" lon="11.838975"><ele>256.0</ele><time>2026-05-03T10:54:55.65Z</time></trkpt><trkpt lat="43.36815" lon="11.8389533"><ele>256.0</ele><time>2026-05-03T10:54:56.657Z</time></trkpt><trkpt lat="43.3680617" lon="11.83891"><ele>256.0</ele><time>2026-05-03T10:54:57.661Z</time></trkpt><trkpt lat="43.3679917" lon="11.8388317"><ele>256.0</ele><time>2026-05-03T10:54:58.66Z</time></trkpt><trkpt lat="43.3679067" lon="11.8387517"><ele>256.0</ele><time>2026-05-03T10:54:59.638Z</time></trkpt><trkpt lat="43.3678283" lon="11.838675"><ele>256.0</ele><time>2026-05-03T10:55:00.649Z</time></trkpt><trkpt lat="43.367745" lon="11.838605"><ele>256.0</ele><time>2026-05-03T10:55:01.648Z</time></trkpt><trkpt lat="43.36767" lon="11.8385417"><ele>256.0</ele><time>2026-05-03T10:55:02.648Z</time></trkpt><trkpt lat="43.3675883" lon="11.83849"><ele>256.0</ele><time>2026-05-03T10:55:03.646Z</time></trkpt><trkpt lat="43.3674933" lon="11.8384517"><ele>254.60000000000002</ele><time>2026-05-03T10:55:04.647Z</time></trkpt><trkpt lat="43.3673917" lon="11.838425"><ele>253.20000000000002</ele><time>2026-05-03T10:55:05.649Z</time></trkpt><trkpt lat="43.3672917" lon="11.8384033"><ele>251.79999999999998</ele><time>2026-05-03T10:55:06.652Z</time></trkpt><trkpt lat="43.3671867" lon="11.838375"><ele>250.39999999999998</ele><time>2026-05-03T10:55:07.669Z</time></trkpt><trkpt lat="43.36709" lon="11.838355"><ele>249.0</ele><time>2026-05-03T10:55:08.645Z</time></trkpt><trkpt lat="43.367" lon="11.8383433"><ele>249.0</ele><time>2026-05-03T10:55:09.646Z</time></trkpt><trkpt lat="43.366915" lon="11.8383267"><ele>249.0</ele><time>2026-05-03T10:55:10.646Z</time></trkpt><trkpt lat="43.36683" lon="11.838305"><ele>249.0</ele><time>2026-05-03T10:55:11.647Z</time></trkpt><trkpt lat="43.3667533" lon="11.838285"><ele>249.0</ele><time>2026-05-03T10:55:12.643Z</time></trkpt><trkpt lat="43.366685" lon="11.83827"><ele>249.0</ele><time>2026-05-03T10:55:13.652Z</time></trkpt><trkpt lat="43.3665717" lon="11.8382583"><ele>249.0</ele><time>2026-05-03T10:55:15.652Z</time></trkpt><trkpt lat="43.3664967" lon="11.8382333"><ele>249.0</ele><time>2026-05-03T10:55:16.653Z</time></trkpt><trkpt lat="43.36641" lon="11.8381883"><ele>248.99999999999997</ele><time>2026-05-03T10:55:17.642Z</time></trkpt><trkpt lat="43.3663183" lon="11.8381417"><ele>248.99999999999997</ele><time>2026-05-03T10:55:18.656Z</time></trkpt><trkpt lat="43.3662183" lon="11.8380983"><ele>249.0</ele><time>2026-05-03T10:55:19.642Z</time></trkpt><trkpt lat="43.3661117" lon="11.8380533"><ele>249.0</ele><time>2026-05-03T10:55:20.642Z</time></trkpt><trkpt lat="43.366" lon="11.8380083"><ele>249.39999999999998</ele><time>2026-05-03T10:55:21.642Z</time></trkpt><trkpt lat="43.3658917" lon="11.8379683"><ele>249.79999999999998</ele><time>2026-05-03T10:55:22.644Z</time></trkpt><trkpt lat="43.365795" lon="11.83792"><ele>250.20000000000002</ele><time>2026-05-03T10:55:23.644Z</time></trkpt><trkpt lat="43.365715" lon="11.8378683"><ele>250.60000000000002</ele><time>2026-05-03T10:55:24.64Z</time></trkpt><trkpt lat="43.3656367" lon="11.83782"><ele>251.0</ele><time>2026-05-03T10:55:25.64Z</time></trkpt><trkpt lat="43.3655683" lon="11.8377883"><ele>251.20000000000002</ele><time>2026-05-03T10:55:26.64Z</time></trkpt><trkpt lat="43.3654867" lon="11.8377617"><ele>251.40000000000003</ele><time>2026-05-03T10:55:27.648Z</time></trkpt><trkpt lat="43.3654033" lon="11.837755"><ele>251.6</ele><time>2026-05-03T10:55:28.65Z</time></trkpt><trkpt lat="43.3653183" lon="11.8377717"><ele>251.8</ele><time>2026-05-03T10:55:29.658Z</time></trkpt><trkpt lat="43.36522" lon="11.837795"><ele>252.0</ele><time>2026-05-03T10:55:30.651Z</time></trkpt><trkpt lat="43.365115" lon="11.8378283"><ele>252.0</ele><time>2026-05-03T10:55:31.643Z</time></trkpt><trkpt lat="43.3650033" lon="11.8378617"><ele>252.0</ele><time>2026-05-03T10:55:32.645Z</time></trkpt><trkpt lat="43.364875" lon="11.8378983"><ele>252.0</ele><time>2026-05-03T10:55:33.645Z</time></trkpt><trkpt lat="43.36475" lon="11.83793"><ele>252.0</ele><time>2026-05-03T10:55:34.645Z</time></trkpt><trkpt lat="43.3646283" lon="11.8379683"><ele>251.39999999999998</ele><time>2026-05-03T10:55:35.648Z</time></trkpt><trkpt lat="43.364505" lon="11.8380017"><ele>250.79999999999998</ele><time>2026-05-03T10:55:36.65Z</time></trkpt><trkpt lat="43.3643967" lon="11.8380333"><ele>250.2</ele><time>2026-05-03T10:55:37.644Z</time></trkpt><trkpt lat="43.3643" lon="11.83805"><ele>249.6</ele><time>2026-05-03T10:55:38.637Z</time></trkpt><trkpt lat="43.364215" lon="11.8380783"><ele>249.0</ele><time>2026-05-03T10:55:39.65Z</time></trkpt><trkpt lat="43.3641233" lon="11.8381133"><ele>249.0</ele><time>2026-05-03T10:55:40.634Z</time></trkpt><trkpt lat="43.364035" lon="11.83816"><ele>248.99999999999997</ele><time>2026-05-03T10:55:41.641Z</time></trkpt><trkpt lat="43.3639483" lon="11.8382233"><ele>248.99999999999997</ele><time>2026-05-03T10:55:42.641Z</time></trkpt><trkpt lat="43.3638583" lon="11.8382917"><ele>249.0</ele><time>2026-05-03T10:55:43.641Z</time></trkpt><trkpt lat="43.3637633" lon="11.83837"><ele>249.0</ele><time>2026-05-03T10:55:44.653Z</time></trkpt><trkpt lat="43.3636533" lon="11.8384467"><ele>248.25</ele><time>2026-05-03T10:55:45.676Z</time></trkpt><trkpt lat="43.3635367" lon="11.8385317"><ele>247.5</ele><time>2026-05-03T10:55:46.644Z</time></trkpt><trkpt lat="43.3634233" lon="11.838625"><ele>246.75</ele><time>2026-05-03T10:55:47.639Z</time></trkpt><trkpt lat="43.363305" lon="11.8387267"><ele>246.0</ele><time>2026-05-03T10:55:48.638Z</time></trkpt><trkpt lat="43.363195" lon="11.8388267"><ele>246.0</ele><time>2026-05-03T10:55:49.632Z</time></trkpt><trkpt lat="43.3630933" lon="11.8389233"><ele>246.0</ele><time>2026-05-03T10:55:50.642Z</time></trkpt><trkpt lat="43.3629883" lon="11.839025"><ele>246.0</ele><time>2026-05-03T10:55:51.642Z</time></trkpt><trkpt lat="43.36289" lon="11.83913"><ele>246.0</ele><time>2026-05-03T10:55:52.641Z</time></trkpt><trkpt lat="43.3627917" lon="11.83923"><ele>245.8</ele><time>2026-05-03T10:55:53.645Z</time></trkpt><trkpt lat="43.3626917" lon="11.8393283"><ele>245.60000000000002</ele><time>2026-05-03T10:55:54.645Z</time></trkpt><trkpt lat="43.362605" lon="11.839425"><ele>245.4</ele><time>2026-05-03T10:55:55.644Z</time></trkpt><trkpt lat="43.3625217" lon="11.83951"><ele>245.2</ele><time>2026-05-03T10:55:56.639Z</time></trkpt><trkpt lat="43.3624367" lon="11.8395767"><ele>245.0</ele><time>2026-05-03T10:55:57.642Z</time></trkpt><trkpt lat="43.3623417" lon="11.8396217"><ele>245.0</ele><time>2026-05-03T10:55:58.64Z</time></trkpt><trkpt lat="43.3622433" lon="11.8396483"><ele>245.0</ele><time>2026-05-03T10:55:59.641Z</time></trkpt><trkpt lat="43.3621383" lon="11.83966"><ele>245.0</ele><time>2026-05-03T10:56:00.642Z</time></trkpt><trkpt lat="43.3620217" lon="11.8396583"><ele>245.0</ele><time>2026-05-03T10:56:01.646Z</time></trkpt><trkpt lat="43.36189" lon="11.8396517"><ele>245.0</ele><time>2026-05-03T10:56:02.647Z</time></trkpt><trkpt lat="43.361755" lon="11.8396517"><ele>245.0</ele><time>2026-05-03T10:56:03.644Z</time></trkpt><trkpt lat="43.361625" lon="11.8396483"><ele>245.0</ele><time>2026-05-03T10:56:04.645Z</time></trkpt><trkpt lat="43.3614967" lon="11.8396467"><ele>245.0</ele><time>2026-05-03T10:56:05.643Z</time></trkpt><trkpt lat="43.3613817" lon="11.8396417"><ele>245.2</ele><time>2026-05-03T10:56:06.644Z</time></trkpt><trkpt lat="43.361275" lon="11.8396417"><ele>245.4</ele><time>2026-05-03T10:56:07.645Z</time></trkpt><trkpt lat="43.3611667" lon="11.8396417"><ele>245.60000000000002</ele><time>2026-05-03T10:56:08.643Z</time></trkpt><trkpt lat="43.3610567" lon="11.839635"><ele>245.8</ele><time>2026-05-03T10:56:09.65Z</time></trkpt><trkpt lat="43.36094" lon="11.8396167"><ele>246.0</ele><time>2026-05-03T10:56:10.64Z</time></trkpt><trkpt lat="43.3608133" lon="11.8395767"><ele>246.0</ele><time>2026-05-03T10:56:11.639Z</time></trkpt><trkpt lat="43.3606917" lon="11.8395283"><ele>246.0</ele><time>2026-05-03T10:56:12.639Z</time></trkpt><trkpt lat="43.36056" lon="11.83948"><ele>246.0</ele><time>2026-05-03T10:56:13.64Z</time></trkpt><trkpt lat="43.3604233" lon="11.8394433"><ele>246.0</ele><time>2026-05-03T10:56:14.641Z</time></trkpt><trkpt lat="43.3602733" lon="11.8393933"><ele>245.66666666666669</ele><time>2026-05-03T10:56:15.639Z</time></trkpt><trkpt lat="43.36012" lon="11.8393417"><ele>245.33333333333334</ele><time>2026-05-03T10:56:16.64Z</time></trkpt><trkpt lat="43.359965" lon="11.83928"><ele>245.0</ele><time>2026-05-03T10:56:17.642Z</time></trkpt><trkpt lat="43.3598067" lon="11.83922"><ele>244.66666666666669</ele><time>2026-05-03T10:56:18.642Z</time></trkpt><trkpt lat="43.35965" lon="11.83916"><ele>244.33333333333331</ele><time>2026-05-03T10:56:19.642Z</time></trkpt><trkpt lat="43.3594933" lon="11.8391017"><ele>244.0</ele><time>2026-05-03T10:56:20.64Z</time></trkpt><trkpt lat="43.3593417" lon="11.8390517"><ele>244.0</ele><time>2026-05-03T10:56:21.641Z</time></trkpt><trkpt lat="43.3591983" lon="11.8389917"><ele>244.0</ele><time>2026-05-03T10:56:22.64Z</time></trkpt><trkpt lat="43.35907" lon="11.8389433"><ele>244.0</ele><time>2026-05-03T10:56:23.644Z</time></trkpt><trkpt lat="43.35896" lon="11.838905"><ele>244.0</ele><time>2026-05-03T10:56:24.648Z</time></trkpt><trkpt lat="43.3588667" lon="11.8388783"><ele>244.16666666666666</ele><time>2026-05-03T10:56:25.637Z</time></trkpt><trkpt lat="43.3587867" lon="11.8388683"><ele>244.33333333333331</ele><time>2026-05-03T10:56:26.641Z</time></trkpt><trkpt lat="43.35872" lon="11.8388767"><ele>244.5</ele><time>2026-05-03T10:56:27.646Z</time></trkpt><trkpt lat="43.358655" lon="11.8389"><ele>244.66666666666669</ele><time>2026-05-03T10:56:28.651Z</time></trkpt><trkpt lat="43.3585817" lon="11.8389383"><ele>244.83333333333334</ele><time>2026-05-03T10:56:29.646Z</time></trkpt><trkpt lat="43.3584967" lon="11.8389833"><ele>245.0</ele><time>2026-05-03T10:56:30.649Z</time></trkpt><trkpt lat="43.3584083" lon="11.8390433"><ele>245.0</ele><time>2026-05-03T10:56:31.645Z</time></trkpt><trkpt lat="43.3583167" lon="11.8391083"><ele>245.0</ele><time>2026-05-03T10:56:32.646Z</time></trkpt><trkpt lat="43.3582117" lon="11.8391683"><ele>245.0</ele><time>2026-05-03T10:56:33.642Z</time></trkpt><trkpt lat="43.35811" lon="11.83923"><ele>245.0</ele><time>2026-05-03T10:56:34.647Z</time></trkpt><trkpt lat="43.358005" lon="11.8392833"><ele>245.0</ele><time>2026-05-03T10:56:35.64Z</time></trkpt><trkpt lat="43.3579083" lon="11.8393467"><ele>245.50000000000003</ele><time>2026-05-03T10:56:36.675Z</time></trkpt><trkpt lat="43.3578133" lon="11.8394083"><ele>246.0</ele><time>2026-05-03T10:56:37.677Z</time></trkpt><trkpt lat="43.3577317" lon="11.8394567"><ele>246.5</ele><time>2026-05-03T10:56:38.735Z</time></trkpt><trkpt lat="43.3576617" lon="11.8394983"><ele>247.0</ele><time>2026-05-03T10:56:39.667Z</time></trkpt><trkpt lat="43.3575967" lon="11.83954"><ele>247.50000000000003</ele><time>2026-05-03T10:56:40.672Z</time></trkpt><trkpt lat="43.35752" lon="11.8395817"><ele>248.0</ele><time>2026-05-03T10:56:41.67Z</time></trkpt><trkpt lat="43.3574367" lon="11.8396283"><ele>248.0</ele><time>2026-05-03T10:56:42.705Z</time></trkpt><trkpt lat="43.35735" lon="11.8396933"><ele>248.0</ele><time>2026-05-03T10:56:43.663Z</time></trkpt><trkpt lat="43.3572533" lon="11.8397617"><ele>248.0</ele><time>2026-05-03T10:56:44.641Z</time></trkpt><trkpt lat="43.357165" lon="11.8398267"><ele>248.0</ele><time>2026-05-03T10:56:45.651Z</time></trkpt><trkpt lat="43.3570783" lon="11.8398817"><ele>248.0</ele><time>2026-05-03T10:56:46.648Z</time></trkpt><trkpt lat="43.356985" lon="11.83993"><ele>248.2</ele><time>2026-05-03T10:56:47.654Z</time></trkpt><trkpt lat="43.3568983" lon="11.8399783"><ele>248.4</ele><time>2026-05-03T10:56:48.645Z</time></trkpt><trkpt lat="43.356805" lon="11.840025"><ele>248.59999999999997</ele><time>2026-05-03T10:56:49.64Z</time></trkpt><trkpt lat="43.35671" lon="11.8400783"><ele>248.79999999999998</ele><time>2026-05-03T10:56:50.637Z</time></trkpt><trkpt lat="43.3566067" lon="11.8401283"><ele>249.0</ele><time>2026-05-03T10:56:51.648Z</time></trkpt><trkpt lat="43.3565067" lon="11.8401633"><ele>249.25</ele><time>2026-05-03T10:56:52.639Z</time></trkpt><trkpt lat="43.3563967" lon="11.840185"><ele>249.5</ele><time>2026-05-03T10:56:53.643Z</time></trkpt><trkpt lat="43.35628" lon="11.8401933"><ele>249.75</ele><time>2026-05-03T10:56:54.646Z</time></trkpt><trkpt lat="43.356155" lon="11.8401983"><ele>250.0</ele><time>2026-05-03T10:56:55.64Z</time></trkpt><trkpt lat="43.3560233" lon="11.8401883"><ele>250.25</ele><time>2026-05-03T10:56:56.644Z</time></trkpt><trkpt lat="43.3558933" lon="11.840165"><ele>250.5</ele><time>2026-05-03T10:56:57.652Z</time></trkpt><trkpt lat="43.3557617" lon="11.8401233"><ele>250.75</ele><time>2026-05-03T10:56:58.649Z</time></trkpt><trkpt lat="43.355635" lon="11.84008"><ele>251.0</ele><time>2026-05-03T10:56:59.661Z</time></trkpt><trkpt lat="43.35551" lon="11.8400333"><ele>250.25</ele><time>2026-05-03T10:57:00.654Z</time></trkpt><trkpt lat="43.3553817" lon="11.8399867"><ele>249.5</ele><time>2026-05-03T10:57:01.642Z</time></trkpt><trkpt lat="43.3552533" lon="11.8399483"><ele>248.75</ele><time>2026-05-03T10:57:02.644Z</time></trkpt><trkpt lat="43.3551217" lon="11.8399067"><ele>248.0</ele><time>2026-05-03T10:57:03.642Z</time></trkpt><trkpt lat="43.3549783" lon="11.8398567"><ele>248.0</ele><time>2026-05-03T10:57:04.644Z</time></trkpt><trkpt lat="43.3548383" lon="11.83981"><ele>248.0</ele><time>2026-05-03T10:57:05.658Z</time></trkpt><trkpt lat="43.3546967" lon="11.83976"><ele>248.0</ele><time>2026-05-03T10:57:06.66Z</time></trkpt><trkpt lat="43.3545517" lon="11.8397117"><ele>248.0</ele><time>2026-05-03T10:57:07.657Z</time></trkpt><trkpt lat="43.3544067" lon="11.8396617"><ele>249.0</ele><time>2026-05-03T10:57:08.659Z</time></trkpt><trkpt lat="43.3542633" lon="11.8395983"><ele>250.0</ele><time>2026-05-03T10:57:09.655Z</time></trkpt><trkpt lat="43.354125" lon="11.839525"><ele>251.0</ele><time>2026-05-03T10:57:10.654Z</time></trkpt><trkpt lat="43.3539867" lon="11.8394333"><ele>250.33333333333334</ele><time>2026-05-03T10:57:11.656Z</time></trkpt><trkpt lat="43.353855" lon="11.8393317"><ele>249.66666666666669</ele><time>2026-05-03T10:57:12.658Z</time></trkpt><trkpt lat="43.3537417" lon="11.839195"><ele>249.0</ele><time>2026-05-03T10:57:13.656Z</time></trkpt><trkpt lat="43.3536417" lon="11.8390433"><ele>249.0</ele><time>2026-05-03T10:57:14.657Z</time></trkpt><trkpt lat="43.353545" lon="11.8388733"><ele>249.0</ele><time>2026-05-03T10:57:15.649Z</time></trkpt><trkpt lat="43.3534717" lon="11.8386767"><ele>249.0</ele><time>2026-05-03T10:57:16.645Z</time></trkpt><trkpt lat="43.3534133" lon="11.8384667"><ele>248.0</ele><time>2026-05-03T10:57:17.64Z</time></trkpt><trkpt lat="43.3533617" lon="11.838235"><ele>247.0</ele><time>2026-05-03T10:57:18.638Z</time></trkpt><trkpt lat="43.35333" lon="11.8379967"><ele>246.0</ele><time>2026-05-03T10:57:19.656Z</time></trkpt><trkpt lat="43.3533033" lon="11.8377583"><ele>245.66666666666669</ele><time>2026-05-03T10:57:20.643Z</time></trkpt><trkpt lat="43.3532767" lon="11.8375133"><ele>245.33333333333334</ele><time>2026-05-03T10:57:21.658Z</time></trkpt><trkpt lat="43.35325" lon="11.8372683"><ele>245.0</ele><time>2026-05-03T10:57:22.654Z</time></trkpt><trkpt lat="43.3532267" lon="11.837015"><ele>244.66666666666669</ele><time>2026-05-03T10:57:23.648Z</time></trkpt><trkpt lat="43.3532083" lon="11.8367567"><ele>244.33333333333331</ele><time>2026-05-03T10:57:24.67Z</time></trkpt><trkpt lat="43.353185" lon="11.8364967"><ele>244.0</ele><time>2026-05-03T10:57:25.672Z</time></trkpt><trkpt lat="43.3531617" lon="11.8362317"><ele>244.0</ele><time>2026-05-03T10:57:26.666Z</time></trkpt><trkpt lat="43.35314" lon="11.835965"><ele>244.0</ele><time>2026-05-03T10:57:27.681Z</time></trkpt><trkpt lat="43.3531167" lon="11.8356983"><ele>244.0</ele><time>2026-05-03T10:57:28.685Z</time></trkpt><trkpt lat="43.3530917" lon="11.83543"><ele>244.0</ele><time>2026-05-03T10:57:29.65Z</time></trkpt><trkpt lat="43.3530633" lon="11.8351683"><ele>244.0</ele><time>2026-05-03T10:57:30.65Z</time></trkpt><trkpt lat="43.3530383" lon="11.8349033"><ele>244.0</ele><time>2026-05-03T10:57:31.645Z</time></trkpt><trkpt lat="43.35301" lon="11.8346383"><ele>244.0</ele><time>2026-05-03T10:57:32.648Z</time></trkpt><trkpt lat="43.3529833" lon="11.8343733"><ele>244.0</ele><time>2026-05-03T10:57:33.648Z</time></trkpt><trkpt lat="43.3529567" lon="11.834105"><ele>244.0</ele><time>2026-05-03T10:57:34.643Z</time></trkpt><trkpt lat="43.3529367" lon="11.8338367"><ele>244.0</ele><time>2026-05-03T10:57:35.646Z</time></trkpt><trkpt lat="43.3529083" lon="11.8335633"><ele>244.0</ele><time>2026-05-03T10:57:36.648Z</time></trkpt><trkpt lat="43.3528817" lon="11.8332917"><ele>244.0</ele><time>2026-05-03T10:57:37.641Z</time></trkpt><trkpt lat="43.3528567" lon="11.83302"><ele>244.0</ele><time>2026-05-03T10:57:38.653Z</time></trkpt><trkpt lat="43.3528283" lon="11.8327483"><ele>244.0</ele><time>2026-05-03T10:57:39.641Z</time></trkpt><trkpt lat="43.3528017" lon="11.8324783"><ele>244.0</ele><time>2026-05-03T10:57:40.636Z</time></trkpt><trkpt lat="43.3527767" lon="11.8322067"><ele>243.33333333333331</ele><time>2026-05-03T10:57:41.646Z</time></trkpt><trkpt lat="43.352755" lon="11.831935"><ele>242.66666666666669</ele><time>2026-05-03T10:57:42.641Z</time></trkpt><trkpt lat="43.3527233" lon="11.8316683"><ele>242.0</ele><time>2026-05-03T10:57:43.645Z</time></trkpt><trkpt lat="43.3526917" lon="11.8314033"><ele>242.0</ele><time>2026-05-03T10:57:44.646Z</time></trkpt><trkpt lat="43.352665" lon="11.8311367"><ele>242.0</ele><time>2026-05-03T10:57:45.636Z</time></trkpt><trkpt lat="43.352645" lon="11.83088"><ele>242.0</ele><time>2026-05-03T10:57:46.638Z</time></trkpt><trkpt lat="43.3526167" lon="11.8306183"><ele>242.0</ele><time>2026-05-03T10:57:47.646Z</time></trkpt><trkpt lat="43.352595" lon="11.8303567"><ele>242.0</ele><time>2026-05-03T10:57:48.642Z</time></trkpt><trkpt lat="43.352575" lon="11.8300933"><ele>242.0</ele><time>2026-05-03T10:57:49.655Z</time></trkpt><trkpt lat="43.3525467" lon="11.82983"><ele>242.0</ele><time>2026-05-03T10:57:50.643Z</time></trkpt><trkpt lat="43.35252" lon="11.8295583"><ele>242.0</ele><time>2026-05-03T10:57:51.639Z</time></trkpt><trkpt lat="43.352495" lon="11.8292833"><ele>242.0</ele><time>2026-05-03T10:57:52.645Z</time></trkpt><trkpt lat="43.3524717" lon="11.8290117"><ele>242.0</ele><time>2026-05-03T10:57:53.643Z</time></trkpt><trkpt lat="43.3524417" lon="11.828735"><ele>242.0</ele><time>2026-05-03T10:57:54.681Z</time></trkpt><trkpt lat="43.3524167" lon="11.8284567"><ele>242.0</ele><time>2026-05-03T10:57:55.648Z</time></trkpt><trkpt lat="43.352395" lon="11.8281817"><ele>242.0</ele><time>2026-05-03T10:57:56.626Z</time></trkpt><trkpt lat="43.3523733" lon="11.82791"><ele>242.0</ele><time>2026-05-03T10:57:57.65Z</time></trkpt><trkpt lat="43.3523467" lon="11.8276417"><ele>242.0</ele><time>2026-05-03T10:57:58.635Z</time></trkpt><trkpt lat="43.35232" lon="11.827375"><ele>242.0</ele><time>2026-05-03T10:57:59.641Z</time></trkpt><trkpt lat="43.3522867" lon="11.82712"><ele>242.0</ele><time>2026-05-03T10:58:00.636Z</time></trkpt><trkpt lat="43.3522617" lon="11.826855"><ele>242.0</ele><time>2026-05-03T10:58:01.641Z</time></trkpt><trkpt lat="43.3522383" lon="11.826595"><ele>241.66666666666669</ele><time>2026-05-03T10:58:02.642Z</time></trkpt><trkpt lat="43.3522183" lon="11.8263333"><ele>241.33333333333331</ele><time>2026-05-03T10:58:03.654Z</time></trkpt><trkpt lat="43.3521933" lon="11.8260717"><ele>241.0</ele><time>2026-05-03T10:58:04.642Z</time></trkpt><trkpt lat="43.3521667" lon="11.8258083"><ele>242.0</ele><time>2026-05-03T10:58:05.648Z</time></trkpt><trkpt lat="43.3521417" lon="11.8255433"><ele>243.0</ele><time>2026-05-03T10:58:06.644Z</time></trkpt><trkpt lat="43.3521167" lon="11.8252783"><ele>244.0</ele><time>2026-05-03T10:58:07.642Z</time></trkpt><trkpt lat="43.3520883" lon="11.8250133"><ele>244.0</ele><time>2026-05-03T10:58:08.637Z</time></trkpt><trkpt lat="43.3520583" lon="11.824745"><ele>244.0</ele><time>2026-05-03T10:58:09.636Z</time></trkpt><trkpt lat="43.3520317" lon="11.8244733"><ele>244.0</ele><time>2026-05-03T10:58:10.64Z</time></trkpt><trkpt lat="43.3520033" lon="11.8242067"><ele>243.66666666666666</ele><time>2026-05-03T10:58:11.638Z</time></trkpt><trkpt lat="43.35198" lon="11.8239367"><ele>243.33333333333331</ele><time>2026-05-03T10:58:12.645Z</time></trkpt><trkpt lat="43.3519483" lon="11.8236633"><ele>243.0</ele><time>2026-05-03T10:58:13.65Z</time></trkpt><trkpt lat="43.351925" lon="11.8233883"><ele>243.0</ele><time>2026-05-03T10:58:14.649Z</time></trkpt><trkpt lat="43.3519017" lon="11.8231133"><ele>243.0</ele><time>2026-05-03T10:58:15.645Z</time></trkpt><trkpt lat="43.3518767" lon="11.8228433"><ele>243.0</ele><time>2026-05-03T10:58:16.639Z</time></trkpt><trkpt lat="43.3518483" lon="11.82257"><ele>243.66666666666669</ele><time>2026-05-03T10:58:17.649Z</time></trkpt><trkpt lat="43.3518233" lon="11.8223033"><ele>244.33333333333334</ele><time>2026-05-03T10:58:18.647Z</time></trkpt><trkpt lat="43.3518" lon="11.8220433"><ele>245.0</ele><time>2026-05-03T10:58:19.639Z</time></trkpt><trkpt lat="43.351775" lon="11.8217883"><ele>245.0</ele><time>2026-05-03T10:58:20.651Z</time></trkpt><trkpt lat="43.3517533" lon="11.82153"><ele>245.0</ele><time>2026-05-03T10:58:21.648Z</time></trkpt><trkpt lat="43.3517283" lon="11.8212817"><ele>245.0</ele><time>2026-05-03T10:58:22.652Z</time></trkpt><trkpt lat="43.3517117" lon="11.8210367"><ele>244.66666666666669</ele><time>2026-05-03T10:58:23.646Z</time></trkpt><trkpt lat="43.3516817" lon="11.8208"><ele>244.33333333333331</ele><time>2026-05-03T10:58:24.636Z</time></trkpt><trkpt lat="43.3516517" lon="11.820565"><ele>244.0</ele><time>2026-05-03T10:58:25.646Z</time></trkpt><trkpt lat="43.351625" lon="11.8203333"><ele>243.66666666666666</ele><time>2026-05-03T10:58:26.646Z</time></trkpt><trkpt lat="43.3516" lon="11.8201017"><ele>243.33333333333331</ele><time>2026-05-03T10:58:27.645Z</time></trkpt><trkpt lat="43.3515783" lon="11.8198683"><ele>243.0</ele><time>2026-05-03T10:58:28.645Z</time></trkpt><trkpt lat="43.3515617" lon="11.8196267"><ele>243.0</ele><time>2026-05-03T10:58:29.652Z</time></trkpt><trkpt lat="43.3515417" lon="11.8193817"><ele>243.0</ele><time>2026-05-03T10:58:30.642Z</time></trkpt><trkpt lat="43.3515233" lon="11.81913"><ele>243.0</ele><time>2026-05-03T10:58:31.649Z</time></trkpt><trkpt lat="43.3514983" lon="11.818875"><ele>243.33333333333331</ele><time>2026-05-03T10:58:32.642Z</time></trkpt><trkpt lat="43.351475" lon="11.81862"><ele>243.66666666666666</ele><time>2026-05-03T10:58:33.644Z</time></trkpt><trkpt lat="43.35145" lon="11.8183583"><ele>244.0</ele><time>2026-05-03T10:58:34.658Z</time></trkpt><trkpt lat="43.3514267" lon="11.8180933"><ele>244.0</ele><time>2026-05-03T10:58:35.64Z</time></trkpt><trkpt lat="43.3513967" lon="11.8178283"><ele>244.0</ele><time>2026-05-03T10:58:36.646Z</time></trkpt><trkpt lat="43.3513767" lon="11.81756"><ele>244.0</ele><time>2026-05-03T10:58:37.667Z</time></trkpt><trkpt lat="43.3513517" lon="11.817295"><ele>244.0</ele><time>2026-05-03T10:58:38.669Z</time></trkpt><trkpt lat="43.3513267" lon="11.8170333"><ele>244.0</ele><time>2026-05-03T10:58:39.629Z</time></trkpt><trkpt lat="43.3512933" lon="11.816765"><ele>244.0</ele><time>2026-05-03T10:58:40.651Z</time></trkpt><trkpt lat="43.3512683" lon="11.8164867"><ele>244.33333333333331</ele><time>2026-05-03T10:58:41.663Z</time></trkpt><trkpt lat="43.351245" lon="11.81621"><ele>244.66666666666669</ele><time>2026-05-03T10:58:42.647Z</time></trkpt><trkpt lat="43.3512183" lon="11.81592"><ele>245.0</ele><time>2026-05-03T10:58:43.684Z</time></trkpt><trkpt lat="43.3511883" lon="11.815625"><ele>245.0</ele><time>2026-05-03T10:58:44.667Z</time></trkpt><trkpt lat="43.35116" lon="11.8153283"><ele>245.0</ele><time>2026-05-03T10:58:45.676Z</time></trkpt><trkpt lat="43.3511317" lon="11.8150283"><ele>245.0</ele><time>2026-05-03T10:58:46.671Z</time></trkpt><trkpt lat="43.351105" lon="11.8147317"><ele>245.0</ele><time>2026-05-03T10:58:47.687Z</time></trkpt><trkpt lat="43.351075" lon="11.8144333"><ele>245.0</ele><time>2026-05-03T10:58:48.647Z</time></trkpt><trkpt lat="43.351045" lon="11.81413"><ele>245.0</ele><time>2026-05-03T10:58:49.653Z</time></trkpt><trkpt lat="43.3510133" lon="11.8138233"><ele>245.5</ele><time>2026-05-03T10:58:50.656Z</time></trkpt><trkpt lat="43.3509833" lon="11.8135133"><ele>246.0</ele><time>2026-05-03T10:58:51.643Z</time></trkpt><trkpt lat="43.350955" lon="11.81321"><ele>246.66666666666669</ele><time>2026-05-03T10:58:52.65Z</time></trkpt><trkpt lat="43.350925" lon="11.8129183"><ele>247.33333333333334</ele><time>2026-05-03T10:58:53.65Z</time></trkpt><trkpt lat="43.3509" lon="11.8126433"><ele>248.0</ele><time>2026-05-03T10:58:54.639Z</time></trkpt><trkpt lat="43.3508783" lon="11.8123883"><ele>248.33333333333334</ele><time>2026-05-03T10:58:55.642Z</time></trkpt><trkpt lat="43.3508617" lon="11.81215"><ele>248.66666666666669</ele><time>2026-05-03T10:58:56.642Z</time></trkpt><trkpt lat="43.3508433" lon="11.811935"><ele>249.0</ele><time>2026-05-03T10:58:57.636Z</time></trkpt><trkpt lat="43.3508267" lon="11.81174"><ele>249.2</ele><time>2026-05-03T10:58:58.681Z</time></trkpt><trkpt lat="43.3508083" lon="11.8115667"><ele>249.39999999999998</ele><time>2026-05-03T10:58:59.66Z</time></trkpt><trkpt lat="43.350795" lon="11.8114117"><ele>249.6</ele><time>2026-05-03T10:59:00.652Z</time></trkpt><trkpt lat="43.3507967" lon="11.811275"><ele>249.8</ele><time>2026-05-03T10:59:01.638Z</time></trkpt><trkpt lat="43.350815" lon="11.8111733"><ele>250.0</ele><time>2026-05-03T10:59:02.641Z</time></trkpt><trkpt lat="43.3508517" lon="11.8111"><ele>249.99999999999997</ele><time>2026-05-03T10:59:03.643Z</time></trkpt><trkpt lat="43.3509" lon="11.81103"><ele>250.0</ele><time>2026-05-03T10:59:04.639Z</time></trkpt><trkpt lat="43.35098" lon="11.8109983"><ele>250.0</ele><time>2026-05-03T10:59:05.647Z</time></trkpt><trkpt lat="43.3510683" lon="11.81098"><ele>250.0</ele><time>2026-05-03T10:59:06.637Z</time></trkpt><trkpt lat="43.35117" lon="11.81097"><ele>249.99999999999997</ele><time>2026-05-03T10:59:07.64Z</time></trkpt><trkpt lat="43.3512717" lon="11.8109583"><ele>250.0</ele><time>2026-05-03T10:59:08.65Z</time></trkpt><trkpt lat="43.3513867" lon="11.8109333"><ele>250.0</ele><time>2026-05-03T10:59:09.646Z</time></trkpt><trkpt lat="43.3515033" lon="11.8109033"><ele>250.0</ele><time>2026-05-03T10:59:10.646Z</time></trkpt><trkpt lat="43.3516167" lon="11.810875"><ele>250.0</ele><time>2026-05-03T10:59:11.644Z</time></trkpt><trkpt lat="43.3517383" lon="11.8108517"><ele>250.0</ele><time>2026-05-03T10:59:12.659Z</time></trkpt><trkpt lat="43.3518567" lon="11.81083"><ele>250.0</ele><time>2026-05-03T10:59:13.647Z</time></trkpt><trkpt lat="43.351965" lon="11.81081"><ele>250.0</ele><time>2026-05-03T10:59:14.643Z</time></trkpt><trkpt lat="43.3520933" lon="11.810785"><ele>250.0</ele><time>2026-05-03T10:59:15.652Z</time></trkpt><trkpt lat="43.3521883" lon="11.81074"><ele>250.0</ele><time>2026-05-03T10:59:16.644Z</time></trkpt><trkpt lat="43.3522733" lon="11.81069"><ele>250.0</ele><time>2026-05-03T10:59:17.641Z</time></trkpt><trkpt lat="43.3523517" lon="11.8106333"><ele>249.4</ele><time>2026-05-03T10:59:18.644Z</time></trkpt><trkpt lat="43.3524167" lon="11.8105717"><ele>248.8</ele><time>2026-05-03T10:59:19.646Z</time></trkpt><trkpt lat="43.352475" lon="11.8105167"><ele>248.2</ele><time>2026-05-03T10:59:20.643Z</time></trkpt><trkpt lat="43.3525833" lon="11.8104233"><ele>247.6</ele><time>2026-05-03T10:59:22.634Z</time></trkpt><trkpt lat="43.3526717" lon="11.8103483"><ele>247.0</ele><time>2026-05-03T10:59:24.639Z</time></trkpt><trkpt lat="43.3527417" lon="11.8102983"><ele>246.99999999999997</ele><time>2026-05-03T10:59:26.645Z</time></trkpt><trkpt lat="43.3527967" lon="11.8102317"><ele>247.0</ele><time>2026-05-03T10:59:29.64Z</time></trkpt><trkpt lat="43.3528133" lon="11.8101317"><ele>247.0</ele><time>2026-05-03T10:59:35.634Z</time></trkpt><trkpt lat="43.3527883" lon="11.8102183"><ele>247.0</ele><time>2026-05-03T10:59:40.644Z</time></trkpt><trkpt lat="43.3527067" lon="11.810285"><ele>246.99999999999997</ele><time>2026-05-03T10:59:42.653Z</time></trkpt><trkpt lat="43.3526" lon="11.8103833"><ele>247.0</ele><time>2026-05-03T10:59:44.642Z</time></trkpt><trkpt lat="43.35254" lon="11.8104367"><ele>246.99999999999997</ele><time>2026-05-03T10:59:45.652Z</time></trkpt><trkpt lat="43.3524767" lon="11.810495"><ele>247.0</ele><time>2026-05-03T10:59:46.638Z</time></trkpt><trkpt lat="43.3524167" lon="11.81054"><ele>247.0</ele><time>2026-05-03T10:59:47.652Z</time></trkpt><trkpt lat="43.3523417" lon="11.8105983"><ele>247.0</ele><time>2026-05-03T10:59:49.642Z</time></trkpt><trkpt lat="43.3522667" lon="11.8106233"><ele>246.99999999999997</ele><time>2026-05-03T10:59:51.641Z</time></trkpt><trkpt lat="43.3522017" lon="11.8106467"><ele>247.0</ele><time>2026-05-03T10:59:53.648Z</time></trkpt><trkpt lat="43.352125" lon="11.81065"><ele>247.6</ele><time>2026-05-03T10:59:55.648Z</time></trkpt><trkpt lat="43.3520733" lon="11.8105317"><ele>248.2</ele><time>2026-05-03T10:59:58.64Z</time></trkpt><trkpt lat="43.3520517" lon="11.8104083"><ele>248.8</ele><time>2026-05-03T11:00:00.647Z</time></trkpt><trkpt lat="43.3520333" lon="11.8102683"><ele>249.4</ele><time>2026-05-03T11:00:02.649Z</time></trkpt><trkpt lat="43.3520033" lon="11.810185"><ele>250.0</ele><time>2026-05-03T11:00:03.644Z</time></trkpt><trkpt lat="43.3519417" lon="11.81001"><ele>250.8</ele><time>2026-05-03T11:00:05.649Z</time></trkpt><trkpt lat="43.351905" lon="11.8098967"><ele>251.6</ele><time>2026-05-03T11:00:06.663Z</time></trkpt><trkpt lat="43.3518683" lon="11.80978"><ele>252.39999999999998</ele><time>2026-05-03T11:00:07.64Z</time></trkpt><trkpt lat="43.35182" lon="11.80966"><ele>253.2</ele><time>2026-05-03T11:00:08.637Z</time></trkpt><trkpt lat="43.3517833" lon="11.8095417"><ele>254.0</ele><time>2026-05-03T11:00:09.643Z</time></trkpt><trkpt lat="43.3517467" lon="11.8094183"><ele>254.79999999999998</ele><time>2026-05-03T11:00:10.647Z</time></trkpt><trkpt lat="43.3517033" lon="11.809315"><ele>255.59999999999997</ele><time>2026-05-03T11:00:11.648Z</time></trkpt><trkpt lat="43.3516683" lon="11.8091933"><ele>256.4</ele><time>2026-05-03T11:00:12.645Z</time></trkpt><trkpt lat="43.3516383" lon="11.8090717"><ele>257.2</ele><time>2026-05-03T11:00:13.647Z</time></trkpt><trkpt lat="43.3516083" lon="11.8089567"><ele>258.0</ele><time>2026-05-03T11:00:14.647Z</time></trkpt><trkpt lat="43.3515867" lon="11.8088383"><ele>258.0</ele><time>2026-05-03T11:00:15.647Z</time></trkpt><trkpt lat="43.3515817" lon="11.8087233"><ele>258.0</ele><time>2026-05-03T11:00:16.658Z</time></trkpt><trkpt lat="43.3515783" lon="11.8086033"><ele>258.0</ele><time>2026-05-03T11:00:17.645Z</time></trkpt><trkpt lat="43.351585" lon="11.8084867"><ele>258.0</ele><time>2026-05-03T11:00:18.646Z</time></trkpt><trkpt lat="43.35157" lon="11.8083883"><ele>258.0</ele><time>2026-05-03T11:00:19.646Z</time></trkpt><trkpt lat="43.351525" lon="11.8083017"><ele>258.0</ele><time>2026-05-03T11:00:20.647Z</time></trkpt><trkpt lat="43.351465" lon="11.8082083"><ele>258.4</ele><time>2026-05-03T11:00:21.631Z</time></trkpt><trkpt lat="43.3513983" lon="11.8081117"><ele>258.8</ele><time>2026-05-03T11:00:22.647Z</time></trkpt><trkpt lat="43.3513283" lon="11.8080067"><ele>259.2</ele><time>2026-05-03T11:00:23.635Z</time></trkpt><trkpt lat="43.3512717" lon="11.807895"><ele>259.6</ele><time>2026-05-03T11:00:24.642Z</time></trkpt><trkpt lat="43.3512267" lon="11.8077717"><ele>260.0</ele><time>2026-05-03T11:00:25.646Z</time></trkpt><trkpt lat="43.3511883" lon="11.80764"><ele>263.0</ele><time>2026-05-03T11:00:26.643Z</time></trkpt><trkpt lat="43.3511433" lon="11.8074933"><ele>266.0</ele><time>2026-05-03T11:00:27.668Z</time></trkpt><trkpt lat="43.3511067" lon="11.8073383"><ele>269.0</ele><time>2026-05-03T11:00:28.642Z</time></trkpt><trkpt lat="43.3510667" lon="11.807185"><ele>272.0</ele><time>2026-05-03T11:00:29.637Z</time></trkpt><trkpt lat="43.3510317" lon="11.8070383"><ele>272.0</ele><time>2026-05-03T11:00:30.645Z</time></trkpt><trkpt lat="43.35099" lon="11.80688"><ele>272.0</ele><time>2026-05-03T11:00:31.646Z</time></trkpt><trkpt lat="43.350945" lon="11.8067333"><ele>272.0</ele><time>2026-05-03T11:00:32.652Z</time></trkpt><trkpt lat="43.350915" lon="11.80658"><ele>272.0</ele><time>2026-05-03T11:00:33.64Z</time></trkpt><trkpt lat="43.3508817" lon="11.8064333"><ele>272.0</ele><time>2026-05-03T11:00:34.657Z</time></trkpt><trkpt lat="43.3508483" lon="11.8062983"><ele>272.0</ele><time>2026-05-03T11:00:35.64Z</time></trkpt><trkpt lat="43.3508183" lon="11.8061717"><ele>272.0</ele><time>2026-05-03T11:00:36.648Z</time></trkpt><trkpt lat="43.350775" lon="11.8060383"><ele>272.0</ele><time>2026-05-03T11:00:37.655Z</time></trkpt><trkpt lat="43.3507283" lon="11.8059017"><ele>272.0</ele><time>2026-05-03T11:00:38.644Z</time></trkpt><trkpt lat="43.3506833" lon="11.80577"><ele>272.4</ele><time>2026-05-03T11:00:39.67Z</time></trkpt><trkpt lat="43.35065" lon="11.805645"><ele>272.79999999999995</ele><time>2026-05-03T11:00:40.642Z</time></trkpt><trkpt lat="43.3506183" lon="11.8055167"><ele>273.2</ele><time>2026-05-03T11:00:41.658Z</time></trkpt><trkpt lat="43.3505917" lon="11.8053817"><ele>273.59999999999997</ele><time>2026-05-03T11:00:42.653Z</time></trkpt><trkpt lat="43.3505633" lon="11.8052433"><ele>274.0</ele><time>2026-05-03T11:00:43.643Z</time></trkpt><trkpt lat="43.35053" lon="11.80511"><ele>275.0</ele><time>2026-05-03T11:00:44.659Z</time></trkpt><trkpt lat="43.3504867" lon="11.8049733"><ele>276.0</ele><time>2026-05-03T11:00:45.654Z</time></trkpt><trkpt lat="43.3504333" lon="11.8048333"><ele>277.0</ele><time>2026-05-03T11:00:46.679Z</time></trkpt><trkpt lat="43.3503817" lon="11.8046883"><ele>278.0</ele><time>2026-05-03T11:00:47.672Z</time></trkpt><trkpt lat="43.3503183" lon="11.8045417"><ele>278.0</ele><time>2026-05-03T11:00:48.662Z</time></trkpt><trkpt lat="43.350265" lon="11.8043933"><ele>278.0</ele><time>2026-05-03T11:00:49.655Z</time></trkpt><trkpt lat="43.3502117" lon="11.8042467"><ele>278.0</ele><time>2026-05-03T11:00:50.646Z</time></trkpt><trkpt lat="43.3501633" lon="11.80411"><ele>278.0</ele><time>2026-05-03T11:00:51.651Z</time></trkpt><trkpt lat="43.350125" lon="11.803985"><ele>278.0</ele><time>2026-05-03T11:00:52.651Z</time></trkpt><trkpt lat="43.3500833" lon="11.8038583"><ele>278.6</ele><time>2026-05-03T11:00:53.617Z</time></trkpt><trkpt lat="43.3500367" lon="11.8037383"><ele>279.20000000000005</ele><time>2026-05-03T11:00:54.643Z</time></trkpt><trkpt lat="43.3499933" lon="11.8036033"><ele>279.8</ele><time>2026-05-03T11:00:55.644Z</time></trkpt><trkpt lat="43.349945" lon="11.80345"><ele>280.40000000000003</ele><time>2026-05-03T11:00:56.654Z</time></trkpt><trkpt lat="43.3498917" lon="11.8033017"><ele>281.0</ele><time>2026-05-03T11:00:57.645Z</time></trkpt><trkpt lat="43.3498283" lon="11.8031383"><ele>281.25</ele><time>2026-05-03T11:00:58.643Z</time></trkpt><trkpt lat="43.3497783" lon="11.8029883"><ele>281.5</ele><time>2026-05-03T11:00:59.638Z</time></trkpt><trkpt lat="43.3497317" lon="11.8028367"><ele>281.75</ele><time>2026-05-03T11:01:00.636Z</time></trkpt><trkpt lat="43.3496933" lon="11.802705"><ele>282.0</ele><time>2026-05-03T11:01:01.637Z</time></trkpt><trkpt lat="43.349655" lon="11.8025633"><ele>282.1666666666667</ele><time>2026-05-03T11:01:02.643Z</time></trkpt><trkpt lat="43.3496133" lon="11.802425"><ele>282.3333333333333</ele><time>2026-05-03T11:01:03.648Z</time></trkpt><trkpt lat="43.349575" lon="11.8023083"><ele>282.5</ele><time>2026-05-03T11:01:04.643Z</time></trkpt><trkpt lat="43.3495383" lon="11.8021967"><ele>282.66666666666663</ele><time>2026-05-03T11:01:05.644Z</time></trkpt><trkpt lat="43.3494983" lon="11.802105"><ele>282.8333333333333</ele><time>2026-05-03T11:01:06.649Z</time></trkpt><trkpt lat="43.3494533" lon="11.8020333"><ele>283.0</ele><time>2026-05-03T11:01:07.633Z</time></trkpt><trkpt lat="43.3493883" lon="11.8019533"><ele>283.0</ele><time>2026-05-03T11:01:09.644Z</time></trkpt><trkpt lat="43.3493383" lon="11.8018783"><ele>283.0</ele><time>2026-05-03T11:01:11.641Z</time></trkpt><trkpt lat="43.3493117" lon="11.8017133"><ele>283.0</ele><time>2026-05-03T11:01:13.642Z</time></trkpt><trkpt lat="43.3492917" lon="11.8015967"><ele>283.0</ele><time>2026-05-03T11:01:14.644Z</time></trkpt><trkpt lat="43.349275" lon="11.801465"><ele>283.0</ele><time>2026-05-03T11:01:15.653Z</time></trkpt><trkpt lat="43.3492483" lon="11.80133"><ele>282.5</ele><time>2026-05-03T11:01:16.64Z</time></trkpt><trkpt lat="43.3492217" lon="11.8011917"><ele>282.0</ele><time>2026-05-03T11:01:17.656Z</time></trkpt><trkpt lat="43.3491867" lon="11.8010367"><ele>281.5</ele><time>2026-05-03T11:01:18.646Z</time></trkpt><trkpt lat="43.3491383" lon="11.80086"><ele>281.0</ele><time>2026-05-03T11:01:19.648Z</time></trkpt><trkpt lat="43.3490883" lon="11.8006817"><ele>280.25</ele><time>2026-05-03T11:01:20.637Z</time></trkpt><trkpt lat="43.3490467" lon="11.8004933"><ele>279.5</ele><time>2026-05-03T11:01:21.641Z</time></trkpt><trkpt lat="43.3490067" lon="11.8002983"><ele>278.75</ele><time>2026-05-03T11:01:22.641Z</time></trkpt><trkpt lat="43.3489717" lon="11.8000933"><ele>278.0</ele><time>2026-05-03T11:01:23.638Z</time></trkpt><trkpt lat="43.34893" lon="11.7998917"><ele>278.33333333333337</ele><time>2026-05-03T11:01:24.639Z</time></trkpt><trkpt lat="43.3489067" lon="11.799685"><ele>278.6666666666667</ele><time>2026-05-03T11:01:25.651Z</time></trkpt><trkpt lat="43.3488783" lon="11.7994833"><ele>279.0</ele><time>2026-05-03T11:01:26.663Z</time></trkpt><trkpt lat="43.3488667" lon="11.7992767"><ele>279.0</ele><time>2026-05-03T11:01:27.64Z</time></trkpt><trkpt lat="43.3488633" lon="11.7990633"><ele>279.0</ele><time>2026-05-03T11:01:28.646Z</time></trkpt><trkpt lat="43.34886" lon="11.798845"><ele>279.0</ele><time>2026-05-03T11:01:29.644Z</time></trkpt><trkpt lat="43.3488583" lon="11.7986183"><ele>278.6666666666667</ele><time>2026-05-03T11:01:30.66Z</time></trkpt><trkpt lat="43.3488533" lon="11.7983983"><ele>278.33333333333337</ele><time>2026-05-03T11:01:31.672Z</time></trkpt><trkpt lat="43.3488717" lon="11.7981783"><ele>278.0</ele><time>2026-05-03T11:01:32.643Z</time></trkpt><trkpt lat="43.3488867" lon="11.79795"><ele>278.0</ele><time>2026-05-03T11:01:33.655Z</time></trkpt><trkpt lat="43.348915" lon="11.7977333"><ele>278.0</ele><time>2026-05-03T11:01:34.647Z</time></trkpt><trkpt lat="43.3489467" lon="11.7975067"><ele>278.0</ele><time>2026-05-03T11:01:35.633Z</time></trkpt><trkpt lat="43.3489733" lon="11.7972817"><ele>278.0</ele><time>2026-05-03T11:01:36.636Z</time></trkpt><trkpt lat="43.3490083" lon="11.79706"><ele>278.0</ele><time>2026-05-03T11:01:37.644Z</time></trkpt><trkpt lat="43.34904" lon="11.796825"><ele>278.0</ele><time>2026-05-03T11:01:38.639Z</time></trkpt><trkpt lat="43.3490767" lon="11.7965917"><ele>278.33333333333337</ele><time>2026-05-03T11:01:39.663Z</time></trkpt><trkpt lat="43.34911" lon="11.79635"><ele>278.6666666666667</ele><time>2026-05-03T11:01:40.65Z</time></trkpt><trkpt lat="43.3491367" lon="11.79612"><ele>279.0</ele><time>2026-05-03T11:01:41.646Z</time></trkpt><trkpt lat="43.34917" lon="11.79588"><ele>279.6666666666667</ele><time>2026-05-03T11:01:42.649Z</time></trkpt><trkpt lat="43.34921" lon="11.7956417"><ele>280.33333333333337</ele><time>2026-05-03T11:01:43.64Z</time></trkpt><trkpt lat="43.3492467" lon="11.7954017"><ele>281.0</ele><time>2026-05-03T11:01:44.668Z</time></trkpt><trkpt lat="43.34927" lon="11.7951567"><ele>282.33333333333337</ele><time>2026-05-03T11:01:45.671Z</time></trkpt><trkpt lat="43.3492817" lon="11.7949133"><ele>283.6666666666667</ele><time>2026-05-03T11:01:46.678Z</time></trkpt><trkpt lat="43.3492867" lon="11.7946567"><ele>285.0</ele><time>2026-05-03T11:01:47.68Z</time></trkpt><trkpt lat="43.3492783" lon="11.7944"><ele>285.6666666666667</ele><time>2026-05-03T11:01:48.684Z</time></trkpt><trkpt lat="43.3492583" lon="11.79415"><ele>286.33333333333337</ele><time>2026-05-03T11:01:49.677Z</time></trkpt><trkpt lat="43.349245" lon="11.7938967"><ele>287.0</ele><time>2026-05-03T11:01:50.671Z</time></trkpt><trkpt lat="43.349235" lon="11.79364"><ele>287.6666666666667</ele><time>2026-05-03T11:01:51.645Z</time></trkpt><trkpt lat="43.349225" lon="11.793385"><ele>288.3333333333333</ele><time>2026-05-03T11:01:52.66Z</time></trkpt><trkpt lat="43.349215" lon="11.7931267"><ele>289.0</ele><time>2026-05-03T11:01:53.673Z</time></trkpt><trkpt lat="43.349205" lon="11.7928683"><ele>289.3333333333333</ele><time>2026-05-03T11:01:54.684Z</time></trkpt><trkpt lat="43.34919" lon="11.7926083"><ele>289.6666666666667</ele><time>2026-05-03T11:01:55.67Z</time></trkpt><trkpt lat="43.3491767" lon="11.7923517"><ele>290.0</ele><time>2026-05-03T11:01:56.677Z</time></trkpt><trkpt lat="43.3491683" lon="11.7921033"><ele>290.0</ele><time>2026-05-03T11:01:57.679Z</time></trkpt><trkpt lat="43.3491633" lon="11.7918583"><ele>290.0</ele><time>2026-05-03T11:01:58.695Z</time></trkpt><trkpt lat="43.3491517" lon="11.7916217"><ele>290.0</ele><time>2026-05-03T11:01:59.652Z</time></trkpt><trkpt lat="43.3491367" lon="11.7913933"><ele>290.6666666666667</ele><time>2026-05-03T11:02:00.672Z</time></trkpt><trkpt lat="43.3491367" lon="11.7911733"><ele>291.3333333333333</ele><time>2026-05-03T11:02:01.641Z</time></trkpt><trkpt lat="43.3491417" lon="11.79097"><ele>292.0</ele><time>2026-05-03T11:02:02.645Z</time></trkpt><trkpt lat="43.3491667" lon="11.7907567"><ele>292.0</ele><time>2026-05-03T11:02:03.643Z</time></trkpt><trkpt lat="43.3492133" lon="11.790545"><ele>292.0</ele><time>2026-05-03T11:02:04.656Z</time></trkpt><trkpt lat="43.34927" lon="11.7903233"><ele>292.0</ele><time>2026-05-03T11:02:05.647Z</time></trkpt><trkpt lat="43.349335" lon="11.7901033"><ele>292.0</ele><time>2026-05-03T11:02:06.646Z</time></trkpt><trkpt lat="43.3493967" lon="11.7898867"><ele>292.0</ele><time>2026-05-03T11:02:07.652Z</time></trkpt><trkpt lat="43.34945" lon="11.7896817"><ele>292.0</ele><time>2026-05-03T11:02:08.659Z</time></trkpt><trkpt lat="43.3494917" lon="11.7894767"><ele>291.5</ele><time>2026-05-03T11:02:09.647Z</time></trkpt><trkpt lat="43.3495067" lon="11.7892783"><ele>291.0</ele><time>2026-05-03T11:02:10.674Z</time></trkpt><trkpt lat="43.3495033" lon="11.7890767"><ele>290.5</ele><time>2026-05-03T11:02:11.644Z</time></trkpt><trkpt lat="43.34947" lon="11.7888867"><ele>290.0</ele><time>2026-05-03T11:02:12.646Z</time></trkpt><trkpt lat="43.349415" lon="11.7886967"><ele>290.0</ele><time>2026-05-03T11:02:13.638Z</time></trkpt><trkpt lat="43.3493417" lon="11.7885117"><ele>290.0</ele><time>2026-05-03T11:02:14.647Z</time></trkpt><trkpt lat="43.3492633" lon="11.788325"><ele>290.0</ele><time>2026-05-03T11:02:15.645Z</time></trkpt><trkpt lat="43.3491817" lon="11.7881267"><ele>290.33333333333337</ele><time>2026-05-03T11:02:16.667Z</time></trkpt><trkpt lat="43.3491033" lon="11.7879417"><ele>290.6666666666667</ele><time>2026-05-03T11:02:17.674Z</time></trkpt><trkpt lat="43.349025" lon="11.78776"><ele>291.0</ele><time>2026-05-03T11:02:18.66Z</time></trkpt><trkpt lat="43.3489417" lon="11.7875733"><ele>292.3333333333333</ele><time>2026-05-03T11:02:19.68Z</time></trkpt><trkpt lat="43.3488517" lon="11.7873933"><ele>293.66666666666663</ele><time>2026-05-03T11:02:20.687Z</time></trkpt><trkpt lat="43.348755" lon="11.7872183"><ele>295.0</ele><time>2026-05-03T11:02:21.685Z</time></trkpt><trkpt lat="43.3486333" lon="11.7870517"><ele>295.0</ele><time>2026-05-03T11:02:22.656Z</time></trkpt><trkpt lat="43.34852" lon="11.7868833"><ele>295.0</ele><time>2026-05-03T11:02:23.643Z</time></trkpt><trkpt lat="43.3484" lon="11.7867083"><ele>295.0</ele><time>2026-05-03T11:02:24.676Z</time></trkpt><trkpt lat="43.3482733" lon="11.7865217"><ele>293.3333333333333</ele><time>2026-05-03T11:02:25.658Z</time></trkpt><trkpt lat="43.348145" lon="11.78634"><ele>291.6666666666667</ele><time>2026-05-03T11:02:26.68Z</time></trkpt><trkpt lat="43.3480217" lon="11.786155"><ele>290.0</ele><time>2026-05-03T11:02:27.67Z</time></trkpt><trkpt lat="43.3478983" lon="11.7859733"><ele>287.33333333333337</ele><time>2026-05-03T11:02:28.664Z</time></trkpt><trkpt lat="43.3477717" lon="11.7857883"><ele>284.6666666666667</ele><time>2026-05-03T11:02:29.66Z</time></trkpt><trkpt lat="43.3476417" lon="11.7856017"><ele>282.0</ele><time>2026-05-03T11:02:30.684Z</time></trkpt><trkpt lat="43.347515" lon="11.7854133"><ele>282.0</ele><time>2026-05-03T11:02:31.682Z</time></trkpt><trkpt lat="43.3473867" lon="11.7852333"><ele>282.0</ele><time>2026-05-03T11:02:32.648Z</time></trkpt><trkpt lat="43.3472567" lon="11.7850533"><ele>282.0</ele><time>2026-05-03T11:02:33.675Z</time></trkpt><trkpt lat="43.3471217" lon="11.7848717"><ele>281.0</ele><time>2026-05-03T11:02:34.673Z</time></trkpt><trkpt lat="43.3469883" lon="11.784685"><ele>280.0</ele><time>2026-05-03T11:02:35.681Z</time></trkpt><trkpt lat="43.3468667" lon="11.784505"><ele>279.0</ele><time>2026-05-03T11:02:36.668Z</time></trkpt><trkpt lat="43.3467483" lon="11.7843283"><ele>276.6666666666667</ele><time>2026-05-03T11:02:37.659Z</time></trkpt><trkpt lat="43.34663" lon="11.78416"><ele>274.33333333333337</ele><time>2026-05-03T11:02:38.681Z</time></trkpt><trkpt lat="43.3465133" lon="11.7839833"><ele>272.0</ele><time>2026-05-03T11:02:39.67Z</time></trkpt><trkpt lat="43.3464117" lon="11.7837883"><ele>273.0</ele><time>2026-05-03T11:02:40.686Z</time></trkpt><trkpt lat="43.346355" lon="11.78358"><ele>274.0</ele><time>2026-05-03T11:02:41.651Z</time></trkpt><trkpt lat="43.3463183" lon="11.78335"><ele>275.0</ele><time>2026-05-03T11:02:42.683Z</time></trkpt><trkpt lat="43.346295" lon="11.7831167"><ele>275.0</ele><time>2026-05-03T11:02:43.669Z</time></trkpt><trkpt lat="43.3462767" lon="11.7828783"><ele>275.0</ele><time>2026-05-03T11:02:44.667Z</time></trkpt><trkpt lat="43.34625" lon="11.782655"><ele>275.0</ele><time>2026-05-03T11:02:45.651Z</time></trkpt><trkpt lat="43.3462283" lon="11.7824317"><ele>275.0</ele><time>2026-05-03T11:02:46.665Z</time></trkpt><trkpt lat="43.3461983" lon="11.7822033"><ele>275.0</ele><time>2026-05-03T11:02:47.668Z</time></trkpt><trkpt lat="43.3461683" lon="11.78197"><ele>275.0</ele><time>2026-05-03T11:02:48.668Z</time></trkpt><trkpt lat="43.3461433" lon="11.781735"><ele>275.0</ele><time>2026-05-03T11:02:49.646Z</time></trkpt><trkpt lat="43.3461183" lon="11.7814983"><ele>275.0</ele><time>2026-05-03T11:02:50.681Z</time></trkpt><trkpt lat="43.346095" lon="11.7812517"><ele>275.0</ele><time>2026-05-03T11:02:51.664Z</time></trkpt><trkpt lat="43.3460767" lon="11.7810033"><ele>275.0</ele><time>2026-05-03T11:02:52.652Z</time></trkpt><trkpt lat="43.34605" lon="11.7807517"><ele>275.0</ele><time>2026-05-03T11:02:53.656Z</time></trkpt><trkpt lat="43.3460233" lon="11.7805"><ele>275.0</ele><time>2026-05-03T11:02:54.645Z</time></trkpt><trkpt lat="43.3460017" lon="11.7802517"><ele>274.0</ele><time>2026-05-03T11:02:55.655Z</time></trkpt><trkpt lat="43.3459783" lon="11.78"><ele>273.0</ele><time>2026-05-03T11:02:56.667Z</time></trkpt><trkpt lat="43.34595" lon="11.7797517"><ele>272.0</ele><time>2026-05-03T11:02:57.656Z</time></trkpt><trkpt lat="43.3459183" lon="11.779505"><ele>270.6666666666667</ele><time>2026-05-03T11:02:58.677Z</time></trkpt><trkpt lat="43.3458983" lon="11.7792567"><ele>269.3333333333333</ele><time>2026-05-03T11:02:59.678Z</time></trkpt><trkpt lat="43.34587" lon="11.7790133"><ele>268.0</ele><time>2026-05-03T11:03:00.657Z</time></trkpt><trkpt lat="43.3458417" lon="11.7787683"><ele>268.0</ele><time>2026-05-03T11:03:01.676Z</time></trkpt><trkpt lat="43.3458133" lon="11.77853"><ele>268.0</ele><time>2026-05-03T11:03:02.655Z</time></trkpt><trkpt lat="43.3457733" lon="11.7782933"><ele>268.0</ele><time>2026-05-03T11:03:03.661Z</time></trkpt><trkpt lat="43.3457317" lon="11.7780467"><ele>268.0</ele><time>2026-05-03T11:03:04.658Z</time></trkpt><trkpt lat="43.345675" lon="11.777815"><ele>268.0</ele><time>2026-05-03T11:03:05.647Z</time></trkpt><trkpt lat="43.3456" lon="11.7775883"><ele>268.0</ele><time>2026-05-03T11:03:06.648Z</time></trkpt><trkpt lat="43.3455217" lon="11.77737"><ele>267.3333333333333</ele><time>2026-05-03T11:03:07.669Z</time></trkpt><trkpt lat="43.3454367" lon="11.7771617"><ele>266.6666666666667</ele><time>2026-05-03T11:03:08.688Z</time></trkpt><trkpt lat="43.3453383" lon="11.7769583"><ele>266.0</ele><time>2026-05-03T11:03:09.641Z</time></trkpt><trkpt lat="43.345235" lon="11.77676"><ele>266.0</ele><time>2026-05-03T11:03:10.652Z</time></trkpt><trkpt lat="43.3451317" lon="11.7765633"><ele>266.0</ele><time>2026-05-03T11:03:11.655Z</time></trkpt><trkpt lat="43.3450267" lon="11.776375"><ele>266.0</ele><time>2026-05-03T11:03:12.661Z</time></trkpt><trkpt lat="43.344925" lon="11.7761867"><ele>266.33333333333337</ele><time>2026-05-03T11:03:13.644Z</time></trkpt><trkpt lat="43.3448367" lon="11.7760067"><ele>266.6666666666667</ele><time>2026-05-03T11:03:14.643Z</time></trkpt><trkpt lat="43.344755" lon="11.7758233"><ele>267.0</ele><time>2026-05-03T11:03:15.644Z</time></trkpt><trkpt lat="43.34468" lon="11.77562"><ele>267.0</ele><time>2026-05-03T11:03:16.636Z</time></trkpt><trkpt lat="43.34462" lon="11.7754067"><ele>267.0</ele><time>2026-05-03T11:03:17.661Z</time></trkpt><trkpt lat="43.34458" lon="11.775175"><ele>267.0</ele><time>2026-05-03T11:03:18.642Z</time></trkpt><trkpt lat="43.3445617" lon="11.7749317"><ele>266.0</ele><time>2026-05-03T11:03:19.647Z</time></trkpt><trkpt lat="43.3445717" lon="11.77468"><ele>265.0</ele><time>2026-05-03T11:03:20.653Z</time></trkpt><trkpt lat="43.3446017" lon="11.774425"><ele>264.0</ele><time>2026-05-03T11:03:21.647Z</time></trkpt><trkpt lat="43.3446583" lon="11.7741717"><ele>263.6666666666667</ele><time>2026-05-03T11:03:22.668Z</time></trkpt><trkpt lat="43.3447167" lon="11.7739167"><ele>263.33333333333337</ele><time>2026-05-03T11:03:23.656Z</time></trkpt><trkpt lat="43.3447717" lon="11.773655"><ele>263.0</ele><time>2026-05-03T11:03:24.652Z</time></trkpt><trkpt lat="43.344825" lon="11.7733883"><ele>263.6666666666667</ele><time>2026-05-03T11:03:25.646Z</time></trkpt><trkpt lat="43.3448767" lon="11.7731233"><ele>264.3333333333333</ele><time>2026-05-03T11:03:26.64Z</time></trkpt><trkpt lat="43.3449283" lon="11.772865"><ele>265.0</ele><time>2026-05-03T11:03:27.646Z</time></trkpt><trkpt lat="43.34498" lon="11.7726117"><ele>266.0</ele><time>2026-05-03T11:03:28.649Z</time></trkpt><trkpt lat="43.3450317" lon="11.7723733"><ele>267.0</ele><time>2026-05-03T11:03:29.644Z</time></trkpt><trkpt lat="43.3450733" lon="11.7721583"><ele>268.0</ele><time>2026-05-03T11:03:30.648Z</time></trkpt><trkpt lat="43.34511" lon="11.7719567"><ele>268.3333333333333</ele><time>2026-05-03T11:03:31.639Z</time></trkpt><trkpt lat="43.3451567" lon="11.7717533"><ele>268.6666666666667</ele><time>2026-05-03T11:03:32.642Z</time></trkpt><trkpt lat="43.3452033" lon="11.7715433"><ele>269.0</ele><time>2026-05-03T11:03:33.643Z</time></trkpt><trkpt lat="43.3452533" lon="11.7713233"><ele>269.0</ele><time>2026-05-03T11:03:34.647Z</time></trkpt><trkpt lat="43.345315" lon="11.7711"><ele>269.0</ele><time>2026-05-03T11:03:35.644Z</time></trkpt><trkpt lat="43.345385" lon="11.7708767"><ele>269.0</ele><time>2026-05-03T11:03:36.648Z</time></trkpt><trkpt lat="43.3454667" lon="11.7706533"><ele>267.33333333333337</ele><time>2026-05-03T11:03:37.646Z</time></trkpt><trkpt lat="43.3455517" lon="11.7704317"><ele>265.6666666666667</ele><time>2026-05-03T11:03:38.643Z</time></trkpt><trkpt lat="43.3456317" lon="11.77022"><ele>264.0</ele><time>2026-05-03T11:03:39.641Z</time></trkpt><trkpt lat="43.3457083" lon="11.7700133"><ele>263.0</ele><time>2026-05-03T11:03:40.642Z</time></trkpt><trkpt lat="43.3457733" lon="11.7698067"><ele>262.0</ele><time>2026-05-03T11:03:41.641Z</time></trkpt><trkpt lat="43.345835" lon="11.7695883"><ele>261.0</ele><time>2026-05-03T11:03:42.639Z</time></trkpt><trkpt lat="43.3458767" lon="11.76936"><ele>260.3333333333333</ele><time>2026-05-03T11:03:43.646Z</time></trkpt><trkpt lat="43.3459067" lon="11.76912"><ele>259.66666666666663</ele><time>2026-05-03T11:03:44.641Z</time></trkpt><trkpt lat="43.3459217" lon="11.7688717"><ele>259.0</ele><time>2026-05-03T11:03:45.666Z</time></trkpt><trkpt lat="43.3459217" lon="11.7686217"><ele>259.3333333333333</ele><time>2026-05-03T11:03:46.645Z</time></trkpt><trkpt lat="43.345915" lon="11.76837"><ele>259.6666666666667</ele><time>2026-05-03T11:03:47.641Z</time></trkpt><trkpt lat="43.3458967" lon="11.7681117"><ele>260.0</ele><time>2026-05-03T11:03:48.645Z</time></trkpt><trkpt lat="43.345885" lon="11.7678533"><ele>260.0</ele><time>2026-05-03T11:03:49.643Z</time></trkpt><trkpt lat="43.3458633" lon="11.7675933"><ele>260.0</ele><time>2026-05-03T11:03:50.648Z</time></trkpt><trkpt lat="43.3458517" lon="11.7673317"><ele>260.0</ele><time>2026-05-03T11:03:51.656Z</time></trkpt><trkpt lat="43.3458383" lon="11.7670667"><ele>260.0</ele><time>2026-05-03T11:03:52.647Z</time></trkpt><trkpt lat="43.345825" lon="11.7668067"><ele>260.0</ele><time>2026-05-03T11:03:53.655Z</time></trkpt><trkpt lat="43.34581" lon="11.7665517"><ele>260.0</ele><time>2026-05-03T11:03:54.639Z</time></trkpt><trkpt lat="43.3457967" lon="11.7663017"><ele>260.0</ele><time>2026-05-03T11:03:55.643Z</time></trkpt><trkpt lat="43.3457867" lon="11.7660467"><ele>260.0</ele><time>2026-05-03T11:03:56.648Z</time></trkpt><trkpt lat="43.3457783" lon="11.7657933"><ele>260.0</ele><time>2026-05-03T11:03:57.641Z</time></trkpt><trkpt lat="43.3457717" lon="11.765535"><ele>260.0</ele><time>2026-05-03T11:03:58.658Z</time></trkpt><trkpt lat="43.3457783" lon="11.7652767"><ele>260.0</ele><time>2026-05-03T11:03:59.646Z</time></trkpt><trkpt lat="43.3457867" lon="11.7650333"><ele>260.0</ele><time>2026-05-03T11:04:00.642Z</time></trkpt><trkpt lat="43.345795" lon="11.7648017"><ele>260.0</ele><time>2026-05-03T11:04:01.637Z</time></trkpt><trkpt lat="43.34581" lon="11.76459"><ele>260.0</ele><time>2026-05-03T11:04:02.646Z</time></trkpt><trkpt lat="43.345825" lon="11.76439"><ele>260.0</ele><time>2026-05-03T11:04:03.645Z</time></trkpt><trkpt lat="43.3458433" lon="11.7641933"><ele>260.0</ele><time>2026-05-03T11:04:04.632Z</time></trkpt><trkpt lat="43.3458533" lon="11.763995"><ele>260.25</ele><time>2026-05-03T11:04:05.639Z</time></trkpt><trkpt lat="43.3458633" lon="11.7638017"><ele>260.5</ele><time>2026-05-03T11:04:06.642Z</time></trkpt><trkpt lat="43.3458767" lon="11.7636183"><ele>260.75</ele><time>2026-05-03T11:04:07.639Z</time></trkpt><trkpt lat="43.3458783" lon="11.76343"><ele>261.0</ele><time>2026-05-03T11:04:08.652Z</time></trkpt><trkpt lat="43.3458583" lon="11.7632367"><ele>261.6666666666667</ele><time>2026-05-03T11:04:09.642Z</time></trkpt><trkpt lat="43.345805" lon="11.7630333"><ele>262.33333333333337</ele><time>2026-05-03T11:04:10.639Z</time></trkpt><trkpt lat="43.34572" lon="11.7628333"><ele>263.0</ele><time>2026-05-03T11:04:11.635Z</time></trkpt><trkpt lat="43.3456317" lon="11.7626367"><ele>263.0</ele><time>2026-05-03T11:04:12.644Z</time></trkpt><trkpt lat="43.3455417" lon="11.7624367"><ele>263.0</ele><time>2026-05-03T11:04:13.64Z</time></trkpt><trkpt lat="43.3454567" lon="11.76223"><ele>263.0</ele><time>2026-05-03T11:04:14.648Z</time></trkpt><trkpt lat="43.34538" lon="11.7620167"><ele>265.0</ele><time>2026-05-03T11:04:15.799Z</time></trkpt><trkpt lat="43.3452467" lon="11.761605"><ele>267.0</ele><time>2026-05-03T11:04:17.64Z</time></trkpt><trkpt lat="43.3451683" lon="11.7614133"><ele>267.0</ele><time>2026-05-03T11:04:18.634Z</time></trkpt><trkpt lat="43.345085" lon="11.761225"><ele>267.0</ele><time>2026-05-03T11:04:19.651Z</time></trkpt><trkpt lat="43.3449983" lon="11.76103"><ele>267.0</ele><time>2026-05-03T11:04:20.647Z</time></trkpt><trkpt lat="43.3449083" lon="11.7608367"><ele>266.0</ele><time>2026-05-03T11:04:21.637Z</time></trkpt><trkpt lat="43.344825" lon="11.7606333"><ele>265.0</ele><time>2026-05-03T11:04:22.649Z</time></trkpt><trkpt lat="43.3447433" lon="11.7604317"><ele>264.0</ele><time>2026-05-03T11:04:23.646Z</time></trkpt><trkpt lat="43.3446583" lon="11.7602333"><ele>265.3333333333333</ele><time>2026-05-03T11:04:24.659Z</time></trkpt><trkpt lat="43.3445767" lon="11.7600483"><ele>266.66666666666663</ele><time>2026-05-03T11:04:25.65Z</time></trkpt><trkpt lat="43.3444983" lon="11.7598683"><ele>268.0</ele><time>2026-05-03T11:04:26.639Z</time></trkpt><trkpt lat="43.3444217" lon="11.75969"><ele>268.0</ele><time>2026-05-03T11:04:27.64Z</time></trkpt><trkpt lat="43.3443417" lon="11.7595033"><ele>268.0</ele><time>2026-05-03T11:04:28.645Z</time></trkpt><trkpt lat="43.344265" lon="11.7593017"><ele>268.0</ele><time>2026-05-03T11:04:29.64Z</time></trkpt><trkpt lat="43.344195" lon="11.75909"><ele>268.66666666666663</ele><time>2026-05-03T11:04:30.649Z</time></trkpt><trkpt lat="43.3441233" lon="11.7588717"><ele>269.3333333333333</ele><time>2026-05-03T11:04:31.639Z</time></trkpt><trkpt lat="43.3440667" lon="11.7586567"><ele>270.0</ele><time>2026-05-03T11:04:32.646Z</time></trkpt><trkpt lat="43.3440083" lon="11.758445"><ele>270.0</ele><time>2026-05-03T11:04:33.645Z</time></trkpt><trkpt lat="43.3439667" lon="11.7582383"><ele>270.0</ele><time>2026-05-03T11:04:34.651Z</time></trkpt><trkpt lat="43.3439317" lon="11.7580167"><ele>270.0</ele><time>2026-05-03T11:04:35.639Z</time></trkpt><trkpt lat="43.3439133" lon="11.757785"><ele>270.3333333333333</ele><time>2026-05-03T11:04:36.641Z</time></trkpt><trkpt lat="43.3438917" lon="11.7575567"><ele>270.66666666666663</ele><time>2026-05-03T11:04:37.641Z</time></trkpt><trkpt lat="43.3438717" lon="11.757325"><ele>271.0</ele><time>2026-05-03T11:04:38.638Z</time></trkpt><trkpt lat="43.3438433" lon="11.7570967"><ele>271.0</ele><time>2026-05-03T11:04:39.645Z</time></trkpt><trkpt lat="43.3438183" lon="11.7568583"><ele>271.0</ele><time>2026-05-03T11:04:40.642Z</time></trkpt><trkpt lat="43.3437817" lon="11.7566267"><ele>271.0</ele><time>2026-05-03T11:04:41.642Z</time></trkpt><trkpt lat="43.343725" lon="11.7564"><ele>271.0</ele><time>2026-05-03T11:04:42.65Z</time></trkpt><trkpt lat="43.3436567" lon="11.756175"><ele>271.0</ele><time>2026-05-03T11:04:43.65Z</time></trkpt><trkpt lat="43.343575" lon="11.7559517"><ele>271.0</ele><time>2026-05-03T11:04:44.641Z</time></trkpt><trkpt lat="43.3435017" lon="11.75573"><ele>271.3333333333333</ele><time>2026-05-03T11:04:45.639Z</time></trkpt><trkpt lat="43.3434233" lon="11.7555133"><ele>271.6666666666667</ele><time>2026-05-03T11:04:46.646Z</time></trkpt><trkpt lat="43.3433567" lon="11.7553033"><ele>272.0</ele><time>2026-05-03T11:04:47.642Z</time></trkpt><trkpt lat="43.3432883" lon="11.7550917"><ele>272.6666666666667</ele><time>2026-05-03T11:04:48.648Z</time></trkpt><trkpt lat="43.3432267" lon="11.7548867"><ele>273.3333333333333</ele><time>2026-05-03T11:04:49.655Z</time></trkpt><trkpt lat="43.3431583" lon="11.7547017"><ele>274.0</ele><time>2026-05-03T11:04:50.649Z</time></trkpt><trkpt lat="43.3430883" lon="11.7545383"><ele>276.5</ele><time>2026-05-03T11:04:51.642Z</time></trkpt><trkpt lat="43.34303" lon="11.75439"><ele>279.0</ele><time>2026-05-03T11:04:52.642Z</time></trkpt><trkpt lat="43.3429733" lon="11.7542517"><ele>281.5</ele><time>2026-05-03T11:04:53.644Z</time></trkpt><trkpt lat="43.3429183" lon="11.75412"><ele>284.0</ele><time>2026-05-03T11:04:54.64Z</time></trkpt><trkpt lat="43.342865" lon="11.753995"><ele>284.5</ele><time>2026-05-03T11:04:55.639Z</time></trkpt><trkpt lat="43.3428067" lon="11.7538633"><ele>285.0</ele><time>2026-05-03T11:04:56.633Z</time></trkpt><trkpt lat="43.3427467" lon="11.753715"><ele>285.5</ele><time>2026-05-03T11:04:57.634Z</time></trkpt><trkpt lat="43.3426967" lon="11.7535717"><ele>286.0</ele><time>2026-05-03T11:04:58.637Z</time></trkpt><trkpt lat="43.3426667" lon="11.75343"><ele>286.0</ele><time>2026-05-03T11:04:59.641Z</time></trkpt><trkpt lat="43.342665" lon="11.753295"><ele>286.0</ele><time>2026-05-03T11:05:00.65Z</time></trkpt><trkpt lat="43.342685" lon="11.7531717"><ele>286.0</ele><time>2026-05-03T11:05:01.636Z</time></trkpt><trkpt lat="43.3427233" lon="11.75303"><ele>286.0</ele><time>2026-05-03T11:05:02.64Z</time></trkpt><trkpt lat="43.34276" lon="11.75287"><ele>286.0</ele><time>2026-05-03T11:05:03.64Z</time></trkpt><trkpt lat="43.3427933" lon="11.752705"><ele>286.0</ele><time>2026-05-03T11:05:04.644Z</time></trkpt><trkpt lat="43.3428233" lon="11.7525417"><ele>286.0</ele><time>2026-05-03T11:05:05.642Z</time></trkpt><trkpt lat="43.34286" lon="11.75237"><ele>286.0</ele><time>2026-05-03T11:05:06.641Z</time></trkpt><trkpt lat="43.342895" lon="11.7522"><ele>286.0</ele><time>2026-05-03T11:05:07.638Z</time></trkpt><trkpt lat="43.342925" lon="11.7520433"><ele>286.0</ele><time>2026-05-03T11:05:08.64Z</time></trkpt><trkpt lat="43.3429367" lon="11.7518967"><ele>286.0</ele><time>2026-05-03T11:05:09.642Z</time></trkpt><trkpt lat="43.3429283" lon="11.751765"><ele>286.0</ele><time>2026-05-03T11:05:10.64Z</time></trkpt><trkpt lat="43.3428983" lon="11.7516467"><ele>286.0</ele><time>2026-05-03T11:05:11.629Z</time></trkpt><trkpt lat="43.3428533" lon="11.7515417"><ele>286.0</ele><time>2026-05-03T11:05:12.644Z</time></trkpt><trkpt lat="43.342785" lon="11.7514517"><ele>286.2</ele><time>2026-05-03T11:05:13.636Z</time></trkpt><trkpt lat="43.3427033" lon="11.7513667"><ele>286.40000000000003</ele><time>2026-05-03T11:05:14.641Z</time></trkpt><trkpt lat="43.3426033" lon="11.75129"><ele>286.6</ele><time>2026-05-03T11:05:15.639Z</time></trkpt><trkpt lat="43.3424917" lon="11.7512317"><ele>286.8</ele><time>2026-05-03T11:05:16.653Z</time></trkpt><trkpt lat="43.3423867" lon="11.7511917"><ele>287.0</ele><time>2026-05-03T11:05:17.646Z</time></trkpt><trkpt lat="43.342285" lon="11.751155"><ele>287.83333333333337</ele><time>2026-05-03T11:05:18.634Z</time></trkpt><trkpt lat="43.3422" lon="11.75111"><ele>288.6666666666667</ele><time>2026-05-03T11:05:19.637Z</time></trkpt><trkpt lat="43.34213" lon="11.7510517"><ele>289.5</ele><time>2026-05-03T11:05:20.647Z</time></trkpt><trkpt lat="43.342075" lon="11.750965"><ele>290.3333333333333</ele><time>2026-05-03T11:05:21.64Z</time></trkpt><trkpt lat="43.34205" lon="11.7508683"><ele>291.16666666666663</ele><time>2026-05-03T11:05:22.646Z</time></trkpt><trkpt lat="43.3420383" lon="11.75077"><ele>292.0</ele><time>2026-05-03T11:05:23.65Z</time></trkpt><trkpt lat="43.342065" lon="11.7506667"><ele>292.4</ele><time>2026-05-03T11:05:24.631Z</time></trkpt><trkpt lat="43.342115" lon="11.7505783"><ele>292.79999999999995</ele><time>2026-05-03T11:05:25.645Z</time></trkpt><trkpt lat="43.342185" lon="11.7505067"><ele>293.2</ele><time>2026-05-03T11:05:26.644Z</time></trkpt><trkpt lat="43.3422817" lon="11.7504483"><ele>293.59999999999997</ele><time>2026-05-03T11:05:27.642Z</time></trkpt><trkpt lat="43.3424033" lon="11.7504"><ele>294.0</ele><time>2026-05-03T11:05:28.637Z</time></trkpt><trkpt lat="43.34254" lon="11.7503633"><ele>294.0</ele><time>2026-05-03T11:05:29.638Z</time></trkpt><trkpt lat="43.3426733" lon="11.750325"><ele>294.0</ele><time>2026-05-03T11:05:30.638Z</time></trkpt><trkpt lat="43.342815" lon="11.7502917"><ele>294.0</ele><time>2026-05-03T11:05:31.637Z</time></trkpt><trkpt lat="43.3429567" lon="11.7502583"><ele>294.0</ele><time>2026-05-03T11:05:32.643Z</time></trkpt><trkpt lat="43.3431067" lon="11.7502183"><ele>296.0</ele><time>2026-05-03T11:05:33.642Z</time></trkpt><trkpt lat="43.3432583" lon="11.7501817"><ele>298.0</ele><time>2026-05-03T11:05:34.647Z</time></trkpt><trkpt lat="43.343405" lon="11.7501417"><ele>300.0</ele><time>2026-05-03T11:05:35.64Z</time></trkpt><trkpt lat="43.3435533" lon="11.75011"><ele>300.0</ele><time>2026-05-03T11:05:36.651Z</time></trkpt><trkpt lat="43.3436967" lon="11.7500717"><ele>300.0</ele><time>2026-05-03T11:05:37.644Z</time></trkpt><trkpt lat="43.34383" lon="11.7500183"><ele>300.0</ele><time>2026-05-03T11:05:38.646Z</time></trkpt><trkpt lat="43.3439483" lon="11.7499417"><ele>300.0</ele><time>2026-05-03T11:05:39.635Z</time></trkpt><trkpt lat="43.3440683" lon="11.749845"><ele>301.0</ele><time>2026-05-03T11:05:40.636Z</time></trkpt><trkpt lat="43.3441717" lon="11.7497417"><ele>302.0</ele><time>2026-05-03T11:05:41.634Z</time></trkpt><trkpt lat="43.344285" lon="11.7496333"><ele>303.0</ele><time>2026-05-03T11:05:42.637Z</time></trkpt><trkpt lat="43.3444117" lon="11.7495433"><ele>304.0</ele><time>2026-05-03T11:05:43.64Z</time></trkpt><trkpt lat="43.344535" lon="11.7494767"><ele>304.0</ele><time>2026-05-03T11:05:44.643Z</time></trkpt><trkpt lat="43.3446767" lon="11.7494417"><ele>304.0</ele><time>2026-05-03T11:05:45.647Z</time></trkpt><trkpt lat="43.3448233" lon="11.74943"><ele>304.0</ele><time>2026-05-03T11:05:46.653Z</time></trkpt><trkpt lat="43.3449817" lon="11.7494217"><ele>304.0</ele><time>2026-05-03T11:05:47.644Z</time></trkpt><trkpt lat="43.345145" lon="11.7494167"><ele>304.0</ele><time>2026-05-03T11:05:48.686Z</time></trkpt><trkpt lat="43.3452933" lon="11.7494183"><ele>304.0</ele><time>2026-05-03T11:05:49.636Z</time></trkpt><trkpt lat="43.345435" lon="11.7494183"><ele>304.0</ele><time>2026-05-03T11:05:50.642Z</time></trkpt><trkpt lat="43.3455717" lon="11.7494"><ele>304.0</ele><time>2026-05-03T11:05:51.641Z</time></trkpt><trkpt lat="43.3456983" lon="11.7493633"><ele>302.0</ele><time>2026-05-03T11:05:52.643Z</time></trkpt><trkpt lat="43.3458167" lon="11.7493033"><ele>300.0</ele><time>2026-05-03T11:05:53.64Z</time></trkpt><trkpt lat="43.3459167" lon="11.74923"><ele>298.0</ele><time>2026-05-03T11:05:54.664Z</time></trkpt><trkpt lat="43.3460117" lon="11.7491383"><ele>296.0</ele><time>2026-05-03T11:05:55.645Z</time></trkpt><trkpt lat="43.3461133" lon="11.74903"><ele>296.0</ele><time>2026-05-03T11:05:56.643Z</time></trkpt><trkpt lat="43.34621" lon="11.74891"><ele>296.0</ele><time>2026-05-03T11:05:57.65Z</time></trkpt><trkpt lat="43.34631" lon="11.7487883"><ele>296.0</ele><time>2026-05-03T11:05:58.64Z</time></trkpt><trkpt lat="43.3464167" lon="11.7486567"><ele>296.0</ele><time>2026-05-03T11:05:59.658Z</time></trkpt><trkpt lat="43.3465167" lon="11.7485067"><ele>295.33333333333337</ele><time>2026-05-03T11:06:00.639Z</time></trkpt><trkpt lat="43.3466117" lon="11.7483317"><ele>294.6666666666667</ele><time>2026-05-03T11:06:01.64Z</time></trkpt><trkpt lat="43.3467133" lon="11.7481433"><ele>294.0</ele><time>2026-05-03T11:06:02.638Z</time></trkpt><trkpt lat="43.34681" lon="11.7479467"><ele>294.0</ele><time>2026-05-03T11:06:03.647Z</time></trkpt><trkpt lat="43.3469117" lon="11.7477383"><ele>294.0</ele><time>2026-05-03T11:06:04.639Z</time></trkpt><trkpt lat="43.3470133" lon="11.7475367"><ele>294.0</ele><time>2026-05-03T11:06:05.637Z</time></trkpt><trkpt lat="43.3471133" lon="11.7473417"><ele>294.6666666666667</ele><time>2026-05-03T11:06:06.638Z</time></trkpt><trkpt lat="43.3472083" lon="11.7471567"><ele>295.33333333333337</ele><time>2026-05-03T11:06:07.636Z</time></trkpt><trkpt lat="43.3473017" lon="11.7469783"><ele>296.0</ele><time>2026-05-03T11:06:08.679Z</time></trkpt><trkpt lat="43.3473967" lon="11.7468133"><ele>296.0</ele><time>2026-05-03T11:06:09.641Z</time></trkpt><trkpt lat="43.3475033" lon="11.7466617"><ele>296.0</ele><time>2026-05-03T11:06:10.647Z</time></trkpt><trkpt lat="43.3476233" lon="11.7465283"><ele>296.0</ele><time>2026-05-03T11:06:11.64Z</time></trkpt><trkpt lat="43.3477517" lon="11.7464167"><ele>296.0</ele><time>2026-05-03T11:06:12.649Z</time></trkpt><trkpt lat="43.34789" lon="11.7463217"><ele>296.0</ele><time>2026-05-03T11:06:13.644Z</time></trkpt><trkpt lat="43.348045" lon="11.7462433"><ele>296.0</ele><time>2026-05-03T11:06:14.655Z</time></trkpt><trkpt lat="43.3481933" lon="11.7461667"><ele>296.0</ele><time>2026-05-03T11:06:15.643Z</time></trkpt><trkpt lat="43.3483383" lon="11.74609"><ele>296.0</ele><time>2026-05-03T11:06:16.637Z</time></trkpt><trkpt lat="43.3484717" lon="11.7460117"><ele>296.0</ele><time>2026-05-03T11:06:17.641Z</time></trkpt><trkpt lat="43.3485867" lon="11.7459367"><ele>296.0</ele><time>2026-05-03T11:06:18.64Z</time></trkpt><trkpt lat="43.34868" lon="11.74588"><ele>296.6</ele><time>2026-05-03T11:06:19.659Z</time></trkpt><trkpt lat="43.3487483" lon="11.7458433"><ele>297.20000000000005</ele><time>2026-05-03T11:06:20.646Z</time></trkpt><trkpt lat="43.34885" lon="11.745795"><ele>297.79999999999995</ele><time>2026-05-03T11:06:22.642Z</time></trkpt><trkpt lat="43.3489617" lon="11.7458483"><ele>298.4</ele><time>2026-05-03T11:06:24.657Z</time></trkpt><trkpt lat="43.3490317" lon="11.7459233"><ele>299.0</ele><time>2026-05-03T11:06:25.645Z</time></trkpt><trkpt lat="43.3491133" lon="11.74602"><ele>300.0</ele><time>2026-05-03T11:06:26.641Z</time></trkpt><trkpt lat="43.3492133" lon="11.7461233"><ele>301.0</ele><time>2026-05-03T11:06:27.645Z</time></trkpt><trkpt lat="43.3493233" lon="11.7462233"><ele>302.0</ele><time>2026-05-03T11:06:28.64Z</time></trkpt><trkpt lat="43.3494367" lon="11.746335"><ele>303.0</ele><time>2026-05-03T11:06:29.657Z</time></trkpt><trkpt lat="43.3495517" lon="11.746445"><ele>303.0</ele><time>2026-05-03T11:06:30.641Z</time></trkpt><trkpt lat="43.3496617" lon="11.7465467"><ele>303.0</ele><time>2026-05-03T11:06:31.643Z</time></trkpt><trkpt lat="43.349755" lon="11.7466417"><ele>303.0</ele><time>2026-05-03T11:06:32.64Z</time></trkpt><trkpt lat="43.34984" lon="11.7467283"><ele>303.0</ele><time>2026-05-03T11:06:33.642Z</time></trkpt><trkpt lat="43.3499283" lon="11.746805"><ele>302.8</ele><time>2026-05-03T11:06:34.64Z</time></trkpt><trkpt lat="43.35003" lon="11.7468833"><ele>302.6</ele><time>2026-05-03T11:06:35.643Z</time></trkpt><trkpt lat="43.35012" lon="11.7469533"><ele>302.4</ele><time>2026-05-03T11:06:36.647Z</time></trkpt><trkpt lat="43.350205" lon="11.747015"><ele>302.2</ele><time>2026-05-03T11:06:37.638Z</time></trkpt><trkpt lat="43.350275" lon="11.7470733"><ele>302.0</ele><time>2026-05-03T11:06:38.648Z</time></trkpt><trkpt lat="43.35034" lon="11.7471233"><ele>302.0</ele><time>2026-05-03T11:06:39.642Z</time></trkpt><trkpt lat="43.3504433" lon="11.74716"><ele>302.0</ele><time>2026-05-03T11:06:41.64Z</time></trkpt><trkpt lat="43.350535" lon="11.7470733"><ele>302.0</ele><time>2026-05-03T11:06:43.641Z</time></trkpt><trkpt lat="43.3505733" lon="11.7470017"><ele>302.0</ele><time>2026-05-03T11:06:44.642Z</time></trkpt><trkpt lat="43.3505983" lon="11.7469183"><ele>302.0</ele><time>2026-05-03T11:06:45.641Z</time></trkpt><trkpt lat="43.350625" lon="11.7468367"><ele>302.0</ele><time>2026-05-03T11:06:46.644Z</time></trkpt><trkpt lat="43.3506483" lon="11.746755"><ele>301.1666666666667</ele><time>2026-05-03T11:06:47.643Z</time></trkpt><trkpt lat="43.35067" lon="11.7466667"><ele>300.33333333333337</ele><time>2026-05-03T11:06:48.641Z</time></trkpt><trkpt lat="43.3506933" lon="11.7465717"><ele>299.5</ele><time>2026-05-03T11:06:49.644Z</time></trkpt><trkpt lat="43.3507267" lon="11.746465"><ele>298.6666666666667</ele><time>2026-05-03T11:06:50.643Z</time></trkpt><trkpt lat="43.3507617" lon="11.7463567"><ele>297.8333333333333</ele><time>2026-05-03T11:06:51.648Z</time></trkpt><trkpt lat="43.3508" lon="11.7462467"><ele>297.0</ele><time>2026-05-03T11:06:52.641Z</time></trkpt><trkpt lat="43.3508283" lon="11.7461317"><ele>296.5</ele><time>2026-05-03T11:06:53.65Z</time></trkpt><trkpt lat="43.35086" lon="11.7460233"><ele>296.0</ele><time>2026-05-03T11:06:54.641Z</time></trkpt><trkpt lat="43.350895" lon="11.745925"><ele>295.5</ele><time>2026-05-03T11:06:55.648Z</time></trkpt><trkpt lat="43.350945" lon="11.745835"><ele>295.0</ele><time>2026-05-03T11:06:56.638Z</time></trkpt><trkpt lat="43.351005" lon="11.7457483"><ele>294.5</ele><time>2026-05-03T11:06:57.633Z</time></trkpt><trkpt lat="43.3510717" lon="11.745655"><ele>294.0</ele><time>2026-05-03T11:06:58.646Z</time></trkpt><trkpt lat="43.3511283" lon="11.74555"><ele>294.0</ele><time>2026-05-03T11:06:59.634Z</time></trkpt><trkpt lat="43.3511883" lon="11.745425"><ele>294.0</ele><time>2026-05-03T11:07:00.65Z</time></trkpt><trkpt lat="43.3512433" lon="11.7453033"><ele>294.0</ele><time>2026-05-03T11:07:01.642Z</time></trkpt><trkpt lat="43.3512983" lon="11.7451967"><ele>294.0</ele><time>2026-05-03T11:07:02.64Z</time></trkpt><trkpt lat="43.3513517" lon="11.7451"><ele>294.0</ele><time>2026-05-03T11:07:03.64Z</time></trkpt><trkpt lat="43.3514233" lon="11.7449983"><ele>292.2</ele><time>2026-05-03T11:07:04.65Z</time></trkpt><trkpt lat="43.3514967" lon="11.744895"><ele>290.4</ele><time>2026-05-03T11:07:05.641Z</time></trkpt><trkpt lat="43.351575" lon="11.7447867"><ele>288.6</ele><time>2026-05-03T11:07:06.641Z</time></trkpt><trkpt lat="43.3516517" lon="11.7446717"><ele>286.8</ele><time>2026-05-03T11:07:07.641Z</time></trkpt><trkpt lat="43.351725" lon="11.7445633"><ele>285.0</ele><time>2026-05-03T11:07:08.636Z</time></trkpt><trkpt lat="43.351795" lon="11.7444567"><ele>286.0</ele><time>2026-05-03T11:07:09.641Z</time></trkpt><trkpt lat="43.35187" lon="11.7443567"><ele>287.0</ele><time>2026-05-03T11:07:10.637Z</time></trkpt><trkpt lat="43.351935" lon="11.7442517"><ele>288.0</ele><time>2026-05-03T11:07:11.645Z</time></trkpt><trkpt lat="43.3519983" lon="11.7441417"><ele>289.0</ele><time>2026-05-03T11:07:12.632Z</time></trkpt><trkpt lat="43.35205" lon="11.7440167"><ele>290.0</ele><time>2026-05-03T11:07:13.642Z</time></trkpt><trkpt lat="43.35209" lon="11.7438933"><ele>290.0</ele><time>2026-05-03T11:07:14.648Z</time></trkpt><trkpt lat="43.3521267" lon="11.7437683"><ele>290.0</ele><time>2026-05-03T11:07:15.641Z</time></trkpt><trkpt lat="43.3521583" lon="11.74364"><ele>290.0</ele><time>2026-05-03T11:07:16.649Z</time></trkpt><trkpt lat="43.3521917" lon="11.7435067"><ele>290.0</ele><time>2026-05-03T11:07:17.641Z</time></trkpt><trkpt lat="43.3522183" lon="11.7433933"><ele>290.0</ele><time>2026-05-03T11:07:18.649Z</time></trkpt><trkpt lat="43.352245" lon="11.7432933"><ele>287.75</ele><time>2026-05-03T11:07:19.639Z</time></trkpt><trkpt lat="43.3523033" lon="11.743135"><ele>285.5</ele><time>2026-05-03T11:07:21.647Z</time></trkpt><trkpt lat="43.3524133" lon="11.7430317"><ele>283.25</ele><time>2026-05-03T11:07:23.647Z</time></trkpt><trkpt lat="43.3525017" lon="11.7429917"><ele>281.0</ele><time>2026-05-03T11:07:24.644Z</time></trkpt><trkpt lat="43.352605" lon="11.7429567"><ele>281.0</ele><time>2026-05-03T11:07:25.649Z</time></trkpt><trkpt lat="43.3527133" lon="11.7429283"><ele>281.0</ele><time>2026-05-03T11:07:26.659Z</time></trkpt><trkpt lat="43.352835" lon="11.742905"><ele>281.0</ele><time>2026-05-03T11:07:27.639Z</time></trkpt><trkpt lat="43.35296" lon="11.7428867"><ele>281.0</ele><time>2026-05-03T11:07:28.652Z</time></trkpt><trkpt lat="43.3530767" lon="11.742885"><ele>279.40000000000003</ele><time>2026-05-03T11:07:29.648Z</time></trkpt><trkpt lat="43.3531933" lon="11.742885"><ele>277.8</ele><time>2026-05-03T11:07:30.642Z</time></trkpt><trkpt lat="43.3533117" lon="11.7428917"><ele>276.20000000000005</ele><time>2026-05-03T11:07:31.639Z</time></trkpt><trkpt lat="43.35342" lon="11.742895"><ele>274.6</ele><time>2026-05-03T11:07:32.642Z</time></trkpt><trkpt lat="43.35352" lon="11.7428983"><ele>273.0</ele><time>2026-05-03T11:07:33.647Z</time></trkpt><trkpt lat="43.3536117" lon="11.7429"><ele>273.0</ele><time>2026-05-03T11:07:34.642Z</time></trkpt><trkpt lat="43.353695" lon="11.7429"><ele>273.0</ele><time>2026-05-03T11:07:35.639Z</time></trkpt><trkpt lat="43.353775" lon="11.7428917"><ele>273.0</ele><time>2026-05-03T11:07:36.639Z</time></trkpt><trkpt lat="43.3538517" lon="11.7428867"><ele>273.0</ele><time>2026-05-03T11:07:37.639Z</time></trkpt><trkpt lat="43.3539433" lon="11.74288"><ele>273.0</ele><time>2026-05-03T11:07:38.641Z</time></trkpt><trkpt lat="43.3540467" lon="11.7428683"><ele>273.0</ele><time>2026-05-03T11:07:39.639Z</time></trkpt><trkpt lat="43.35416" lon="11.7428533"><ele>272.75</ele><time>2026-05-03T11:07:40.64Z</time></trkpt><trkpt lat="43.35429" lon="11.7428233"><ele>272.5</ele><time>2026-05-03T11:07:41.656Z</time></trkpt><trkpt lat="43.3544117" lon="11.7427817"><ele>272.25</ele><time>2026-05-03T11:07:42.648Z</time></trkpt><trkpt lat="43.35453" lon="11.7427183"><ele>272.0</ele><time>2026-05-03T11:07:43.633Z</time></trkpt><trkpt lat="43.35463" lon="11.7426367"><ele>272.75</ele><time>2026-05-03T11:07:44.647Z</time></trkpt><trkpt lat="43.35473" lon="11.7425433"><ele>273.5</ele><time>2026-05-03T11:07:45.643Z</time></trkpt><trkpt lat="43.3548383" lon="11.742445"><ele>274.25</ele><time>2026-05-03T11:07:46.659Z</time></trkpt><trkpt lat="43.3549517" lon="11.7423517"><ele>275.0</ele><time>2026-05-03T11:07:47.641Z</time></trkpt><trkpt lat="43.35506" lon="11.7422833"><ele>275.0</ele><time>2026-05-03T11:07:48.652Z</time></trkpt><trkpt lat="43.3551683" lon="11.74222"><ele>275.0</ele><time>2026-05-03T11:07:49.639Z</time></trkpt><trkpt lat="43.3552683" lon="11.7421617"><ele>275.0</ele><time>2026-05-03T11:07:50.643Z</time></trkpt><trkpt lat="43.3553517" lon="11.7421117"><ele>275.0</ele><time>2026-05-03T11:07:51.64Z</time></trkpt><trkpt lat="43.3554233" lon="11.7420733"><ele>275.0</ele><time>2026-05-03T11:07:52.643Z</time></trkpt><trkpt lat="43.3555167" lon="11.7420217"><ele>275.2</ele><time>2026-05-03T11:07:54.648Z</time></trkpt><trkpt lat="43.3556217" lon="11.7419517"><ele>275.4</ele><time>2026-05-03T11:11:18.662Z</time></trkpt><trkpt lat="43.3557067" lon="11.7419033"><ele>275.6</ele><time>2026-05-03T11:11:21.665Z</time></trkpt><trkpt lat="43.355795" lon="11.7418583"><ele>275.8</ele><time>2026-05-03T11:11:23.658Z</time></trkpt><trkpt lat="43.355915" lon="11.741805"><ele>276.0</ele><time>2026-05-03T11:11:25.677Z</time></trkpt><trkpt lat="43.3559833" lon="11.7417717"><ele>275.5</ele><time>2026-05-03T11:11:26.658Z</time></trkpt><trkpt lat="43.35605" lon="11.7417383"><ele>275.0</ele><time>2026-05-03T11:11:27.654Z</time></trkpt><trkpt lat="43.3561183" lon="11.7417"><ele>274.5</ele><time>2026-05-03T11:11:28.644Z</time></trkpt><trkpt lat="43.3562017" lon="11.7416567"><ele>274.0</ele><time>2026-05-03T11:11:29.655Z</time></trkpt><trkpt lat="43.3562917" lon="11.7416133"><ele>273.5</ele><time>2026-05-03T11:11:30.656Z</time></trkpt><trkpt lat="43.3563833" lon="11.7415783"><ele>273.0</ele><time>2026-05-03T11:11:31.652Z</time></trkpt><trkpt lat="43.3564633" lon="11.741545"><ele>273.0</ele><time>2026-05-03T11:11:32.674Z</time></trkpt><trkpt lat="43.3565517" lon="11.7415217"><ele>273.0</ele><time>2026-05-03T11:11:33.647Z</time></trkpt><trkpt lat="43.35664" lon="11.7414933"><ele>273.0</ele><time>2026-05-03T11:11:34.653Z</time></trkpt><trkpt lat="43.3567217" lon="11.7414617"><ele>273.0</ele><time>2026-05-03T11:11:35.652Z</time></trkpt><trkpt lat="43.3567967" lon="11.7414267"><ele>273.0</ele><time>2026-05-03T11:11:36.655Z</time></trkpt><trkpt lat="43.35687" lon="11.74138"><ele>273.0</ele><time>2026-05-03T11:11:37.652Z</time></trkpt><trkpt lat="43.3569383" lon="11.7413217"><ele>273.0</ele><time>2026-05-03T11:11:38.659Z</time></trkpt><trkpt lat="43.356985" lon="11.7412617"><ele>273.0</ele><time>2026-05-03T11:11:39.663Z</time></trkpt><trkpt lat="43.3570483" lon="11.7411067"><ele>273.0</ele><time>2026-05-03T11:11:41.67Z</time></trkpt><trkpt lat="43.35706" lon="11.7410033"><ele>273.0</ele><time>2026-05-03T11:11:42.649Z</time></trkpt><trkpt lat="43.35707" lon="11.74089"><ele>273.0</ele><time>2026-05-03T11:11:43.659Z</time></trkpt><trkpt lat="43.35707" lon="11.7407617"><ele>273.0</ele><time>2026-05-03T11:11:44.648Z</time></trkpt><trkpt lat="43.3570833" lon="11.740615"><ele>272.8</ele><time>2026-05-03T11:11:45.645Z</time></trkpt><trkpt lat="43.357085" lon="11.7404767"><ele>272.6</ele><time>2026-05-03T11:11:46.643Z</time></trkpt><trkpt lat="43.3570983" lon="11.7403433"><ele>272.4</ele><time>2026-05-03T11:11:47.652Z</time></trkpt><trkpt lat="43.3571117" lon="11.74021"><ele>272.2</ele><time>2026-05-03T11:11:48.642Z</time></trkpt><trkpt lat="43.3571233" lon="11.7400867"><ele>272.0</ele><time>2026-05-03T11:11:49.652Z</time></trkpt><trkpt lat="43.3571283" lon="11.739985"><ele>271.4285714285714</ele><time>2026-05-03T11:11:50.654Z</time></trkpt><trkpt lat="43.357115" lon="11.7399"><ele>270.85714285714283</ele><time>2026-05-03T11:11:51.65Z</time></trkpt><trkpt lat="43.357105" lon="11.7398133"><ele>270.2857142857143</ele><time>2026-05-03T11:11:52.667Z</time></trkpt><trkpt lat="43.3570667" lon="11.7397367"><ele>269.71428571428567</ele><time>2026-05-03T11:11:53.653Z</time></trkpt><trkpt lat="43.3570167" lon="11.7396733"><ele>269.1428571428571</ele><time>2026-05-03T11:11:54.641Z</time></trkpt><trkpt lat="43.3569483" lon="11.73963"><ele>268.57142857142856</ele><time>2026-05-03T11:11:55.652Z</time></trkpt><trkpt lat="43.356865" lon="11.7395967"><ele>268.0</ele><time>2026-05-03T11:11:56.649Z</time></trkpt><trkpt lat="43.3567817" lon="11.7395733"><ele>268.0</ele><time>2026-05-03T11:11:57.675Z</time></trkpt><trkpt lat="43.3566967" lon="11.739545"><ele>268.0</ele><time>2026-05-03T11:11:58.652Z</time></trkpt><trkpt lat="43.3566167" lon="11.739505"><ele>268.0</ele><time>2026-05-03T11:11:59.654Z</time></trkpt><trkpt lat="43.3565433" lon="11.7394567"><ele>268.0</ele><time>2026-05-03T11:12:00.641Z</time></trkpt><trkpt lat="43.3564817" lon="11.7393917"><ele>268.0</ele><time>2026-05-03T11:12:01.655Z</time></trkpt><trkpt lat="43.3564383" lon="11.739305"><ele>268.0</ele><time>2026-05-03T11:12:02.648Z</time></trkpt><trkpt lat="43.3564183" lon="11.7391983"><ele>267.6</ele><time>2026-05-03T11:12:03.649Z</time></trkpt><trkpt lat="43.35642" lon="11.7391117"><ele>267.20000000000005</ele><time>2026-05-03T11:12:04.651Z</time></trkpt><trkpt lat="43.3564483" lon="11.738955"><ele>266.8</ele><time>2026-05-03T11:12:06.672Z</time></trkpt><trkpt lat="43.3564717" lon="11.7388467"><ele>266.40000000000003</ele><time>2026-05-03T11:12:07.645Z</time></trkpt><trkpt lat="43.356495" lon="11.7387233"><ele>266.0</ele><time>2026-05-03T11:12:08.649Z</time></trkpt><trkpt lat="43.356515" lon="11.738595"><ele>266.0</ele><time>2026-05-03T11:12:09.642Z</time></trkpt><trkpt lat="43.3565417" lon="11.7384467"><ele>266.0</ele><time>2026-05-03T11:12:10.642Z</time></trkpt><trkpt lat="43.3565533" lon="11.7382883"><ele>266.0</ele><time>2026-05-03T11:12:11.657Z</time></trkpt><trkpt lat="43.3565633" lon="11.7381233"><ele>266.0</ele><time>2026-05-03T11:12:12.649Z</time></trkpt><trkpt lat="43.3565733" lon="11.737955"><ele>266.0</ele><time>2026-05-03T11:12:13.646Z</time></trkpt><trkpt lat="43.3565783" lon="11.7377717"><ele>266.0</ele><time>2026-05-03T11:12:14.658Z</time></trkpt><trkpt lat="43.3565817" lon="11.73759"><ele>266.0</ele><time>2026-05-03T11:12:15.653Z</time></trkpt><trkpt lat="43.3565817" lon="11.7373983"><ele>266.0</ele><time>2026-05-03T11:12:16.673Z</time></trkpt><trkpt lat="43.3565817" lon="11.737205"><ele>266.0</ele><time>2026-05-03T11:12:17.655Z</time></trkpt><trkpt lat="43.3565867" lon="11.7370083"><ele>266.0</ele><time>2026-05-03T11:12:18.652Z</time></trkpt><trkpt lat="43.3565983" lon="11.7367983"><ele>266.0</ele><time>2026-05-03T11:12:19.656Z</time></trkpt><trkpt lat="43.3566033" lon="11.7365967"><ele>266.0</ele><time>2026-05-03T11:12:20.656Z</time></trkpt><trkpt lat="43.3566033" lon="11.7364067"><ele>266.40000000000003</ele><time>2026-05-03T11:12:21.655Z</time></trkpt><trkpt lat="43.3566083" lon="11.7362283"><ele>266.8</ele><time>2026-05-03T11:12:22.657Z</time></trkpt><trkpt lat="43.356615" lon="11.7360717"><ele>267.20000000000005</ele><time>2026-05-03T11:12:23.648Z</time></trkpt><trkpt lat="43.3566167" lon="11.7359267"><ele>267.6</ele><time>2026-05-03T11:12:24.658Z</time></trkpt><trkpt lat="43.3566183" lon="11.7358"><ele>268.0</ele><time>2026-05-03T11:12:25.667Z</time></trkpt><trkpt lat="43.3566183" lon="11.7356917"><ele>268.0</ele><time>2026-05-03T11:12:26.654Z</time></trkpt><trkpt lat="43.3566233" lon="11.7355483"><ele>268.0</ele><time>2026-05-03T11:12:28.658Z</time></trkpt><trkpt lat="43.356505" lon="11.7353733"><ele>268.0</ele><time>2026-05-03T11:12:41.653Z</time></trkpt><trkpt lat="43.3563767" lon="11.73534"><ele>268.0</ele><time>2026-05-03T11:12:43.657Z</time></trkpt><trkpt lat="43.3563017" lon="11.735315"><ele>268.0</ele><time>2026-05-03T11:12:44.646Z</time></trkpt><trkpt lat="43.356215" lon="11.7352933"><ele>268.0</ele><time>2026-05-03T11:12:45.652Z</time></trkpt><trkpt lat="43.3561217" lon="11.7352783"><ele>268.0</ele><time>2026-05-03T11:12:46.647Z</time></trkpt><trkpt lat="43.3560333" lon="11.7352667"><ele>268.0</ele><time>2026-05-03T11:12:47.648Z</time></trkpt><trkpt lat="43.3559433" lon="11.7352633"><ele>268.0</ele><time>2026-05-03T11:12:48.644Z</time></trkpt><trkpt lat="43.3558683" lon="11.7352633"><ele>268.0</ele><time>2026-05-03T11:12:49.66Z</time></trkpt><trkpt lat="43.355755" lon="11.7352533"><ele>268.2</ele><time>2026-05-03T11:12:51.655Z</time></trkpt><trkpt lat="43.355685" lon="11.7351967"><ele>268.4</ele><time>2026-05-03T11:12:53.655Z</time></trkpt><trkpt lat="43.3556733" lon="11.73508"><ele>268.59999999999997</ele><time>2026-05-03T11:12:55.649Z</time></trkpt><trkpt lat="43.3556933" lon="11.7349017"><ele>268.8</ele><time>2026-05-03T11:12:57.648Z</time></trkpt><trkpt lat="43.355695" lon="11.7347817"><ele>269.0</ele><time>2026-05-03T11:12:58.661Z</time></trkpt><trkpt lat="43.3557017" lon="11.7346567"><ele>269.0</ele><time>2026-05-03T11:12:59.681Z</time></trkpt><trkpt lat="43.3557117" lon="11.73452"><ele>269.0</ele><time>2026-05-03T11:13:00.643Z</time></trkpt><trkpt lat="43.3557217" lon="11.7343733"><ele>269.0</ele><time>2026-05-03T11:13:01.683Z</time></trkpt><trkpt lat="43.3557383" lon="11.7342183"><ele>269.0</ele><time>2026-05-03T11:13:02.648Z</time></trkpt><trkpt lat="43.3557533" lon="11.7340517"><ele>269.0</ele><time>2026-05-03T11:13:03.662Z</time></trkpt><trkpt lat="43.355755" lon="11.733885"><ele>270.25</ele><time>2026-05-03T11:13:04.658Z</time></trkpt><trkpt lat="43.3557617" lon="11.7336933"><ele>271.5</ele><time>2026-05-03T11:13:05.652Z</time></trkpt><trkpt lat="43.3557817" lon="11.7334983"><ele>272.75</ele><time>2026-05-03T11:13:06.655Z</time></trkpt><trkpt lat="43.3558" lon="11.7333083"><ele>274.0</ele><time>2026-05-03T11:13:07.645Z</time></trkpt><trkpt lat="43.35581" lon="11.7331083"><ele>274.66666666666663</ele><time>2026-05-03T11:13:08.676Z</time></trkpt><trkpt lat="43.3558167" lon="11.7328933"><ele>275.3333333333333</ele><time>2026-05-03T11:13:09.646Z</time></trkpt><trkpt lat="43.3558317" lon="11.732685"><ele>276.0</ele><time>2026-05-03T11:13:10.654Z</time></trkpt><trkpt lat="43.3558533" lon="11.7324667"><ele>276.3333333333333</ele><time>2026-05-03T11:13:11.656Z</time></trkpt><trkpt lat="43.3558733" lon="11.7322467"><ele>276.66666666666663</ele><time>2026-05-03T11:13:12.654Z</time></trkpt><trkpt lat="43.3558883" lon="11.73203"><ele>277.0</ele><time>2026-05-03T11:13:13.654Z</time></trkpt><trkpt lat="43.355905" lon="11.7318067"><ele>277.0</ele><time>2026-05-03T11:13:14.658Z</time></trkpt><trkpt lat="43.3559217" lon="11.7315883"><ele>277.0</ele><time>2026-05-03T11:13:15.654Z</time></trkpt><trkpt lat="43.3559433" lon="11.7313717"><ele>277.0</ele><time>2026-05-03T11:13:16.66Z</time></trkpt><trkpt lat="43.355965" lon="11.73116"><ele>278.0</ele><time>2026-05-03T11:13:17.651Z</time></trkpt><trkpt lat="43.3559717" lon="11.73095"><ele>279.0</ele><time>2026-05-03T11:13:18.658Z</time></trkpt><trkpt lat="43.3559817" lon="11.7307467"><ele>280.0</ele><time>2026-05-03T11:13:19.65Z</time></trkpt><trkpt lat="43.3559933" lon="11.7305467"><ele>281.0</ele><time>2026-05-03T11:13:20.654Z</time></trkpt><trkpt lat="43.356015" lon="11.730355"><ele>282.5</ele><time>2026-05-03T11:13:21.654Z</time></trkpt><trkpt lat="43.3560283" lon="11.730165"><ele>284.0</ele><time>2026-05-03T11:13:22.682Z</time></trkpt><trkpt lat="43.3560367" lon="11.7299867"><ele>285.5</ele><time>2026-05-03T11:13:23.666Z</time></trkpt><trkpt lat="43.3560433" lon="11.7298317"><ele>287.0</ele><time>2026-05-03T11:13:24.683Z</time></trkpt><trkpt lat="43.3560567" lon="11.7296867"><ele>287.0</ele><time>2026-05-03T11:13:25.681Z</time></trkpt><trkpt lat="43.3560667" lon="11.72957"><ele>287.0</ele><time>2026-05-03T11:13:26.665Z</time></trkpt><trkpt lat="43.3560767" lon="11.729475"><ele>287.0</ele><time>2026-05-03T11:13:27.655Z</time></trkpt><trkpt lat="43.3560767" lon="11.7293183"><ele>287.0</ele><time>2026-05-03T11:13:29.649Z</time></trkpt><trkpt lat="43.3560833" lon="11.7292283"><ele>287.0</ele><time>2026-05-03T11:13:30.653Z</time></trkpt><trkpt lat="43.3560867" lon="11.7291167"><ele>287.0</ele><time>2026-05-03T11:13:31.648Z</time></trkpt><trkpt lat="43.3560967" lon="11.7289933"><ele>286.8</ele><time>2026-05-03T11:13:32.658Z</time></trkpt><trkpt lat="43.3561033" lon="11.72887"><ele>286.6</ele><time>2026-05-03T11:13:33.641Z</time></trkpt><trkpt lat="43.35611" lon="11.72876"><ele>286.40000000000003</ele><time>2026-05-03T11:13:34.647Z</time></trkpt><trkpt lat="43.35613" lon="11.72867"><ele>286.2</ele><time>2026-05-03T11:13:35.644Z</time></trkpt><trkpt lat="43.3561867" lon="11.7285683"><ele>286.0</ele><time>2026-05-03T11:13:37.653Z</time></trkpt><trkpt lat="43.356315" lon="11.7285383"><ele>285.8</ele><time>2026-05-03T11:13:39.651Z</time></trkpt><trkpt lat="43.3564067" lon="11.7285283"><ele>285.6</ele><time>2026-05-03T11:13:40.645Z</time></trkpt><trkpt lat="43.3565117" lon="11.7285167"><ele>285.4</ele><time>2026-05-03T11:13:41.645Z</time></trkpt><trkpt lat="43.3566217" lon="11.7284783"><ele>285.2</ele><time>2026-05-03T11:13:42.654Z</time></trkpt><trkpt lat="43.3567367" lon="11.7284283"><ele>285.0</ele><time>2026-05-03T11:13:43.647Z</time></trkpt><trkpt lat="43.3568633" lon="11.7283767"><ele>285.0</ele><time>2026-05-03T11:13:44.655Z</time></trkpt><trkpt lat="43.3569867" lon="11.72834"><ele>285.0</ele><time>2026-05-03T11:13:45.646Z</time></trkpt><trkpt lat="43.3571" lon="11.7283067"><ele>285.0</ele><time>2026-05-03T11:13:46.646Z</time></trkpt><trkpt lat="43.3572083" lon="11.72828"><ele>285.0</ele><time>2026-05-03T11:13:47.641Z</time></trkpt><trkpt lat="43.3573117" lon="11.72826"><ele>285.4</ele><time>2026-05-03T11:13:48.642Z</time></trkpt><trkpt lat="43.3574033" lon="11.72825"><ele>285.8</ele><time>2026-05-03T11:13:49.64Z</time></trkpt><trkpt lat="43.3574733" lon="11.7282517"><ele>286.2</ele><time>2026-05-03T11:13:50.643Z</time></trkpt><trkpt lat="43.35757" lon="11.7282233"><ele>286.6</ele><time>2026-05-03T11:13:52.643Z</time></trkpt><trkpt lat="43.357595" lon="11.72811"><ele>287.0</ele><time>2026-05-03T11:13:54.652Z</time></trkpt><trkpt lat="43.3575383" lon="11.727955"><ele>287.0</ele><time>2026-05-03T11:13:56.655Z</time></trkpt><trkpt lat="43.3574883" lon="11.7278467"><ele>287.0</ele><time>2026-05-03T11:13:57.661Z</time></trkpt><trkpt lat="43.3574417" lon="11.7277117"><ele>287.0</ele><time>2026-05-03T11:13:58.649Z</time></trkpt><trkpt lat="43.3574017" lon="11.7275583"><ele>287.0</ele><time>2026-05-03T11:13:59.665Z</time></trkpt><trkpt lat="43.3573567" lon="11.7273933"><ele>287.0</ele><time>2026-05-03T11:14:00.654Z</time></trkpt><trkpt lat="43.357325" lon="11.7272183"><ele>287.0</ele><time>2026-05-03T11:14:01.662Z</time></trkpt><trkpt lat="43.357285" lon="11.7270317"><ele>287.0</ele><time>2026-05-03T11:14:02.653Z</time></trkpt><trkpt lat="43.35724" lon="11.726845"><ele>287.0</ele><time>2026-05-03T11:14:03.657Z</time></trkpt><trkpt lat="43.3571917" lon="11.72666"><ele>287.0</ele><time>2026-05-03T11:14:04.652Z</time></trkpt><trkpt lat="43.3571483" lon="11.7264583"><ele>284.6666666666667</ele><time>2026-05-03T11:14:05.651Z</time></trkpt><trkpt lat="43.3571167" lon="11.7262417"><ele>282.3333333333333</ele><time>2026-05-03T11:14:06.665Z</time></trkpt><trkpt lat="43.357095" lon="11.7260133"><ele>280.0</ele><time>2026-05-03T11:14:07.646Z</time></trkpt><trkpt lat="43.35707" lon="11.7257733"><ele>279.3333333333333</ele><time>2026-05-03T11:14:08.685Z</time></trkpt><trkpt lat="43.3570533" lon="11.7255217"><ele>278.6666666666667</ele><time>2026-05-03T11:14:09.663Z</time></trkpt><trkpt lat="43.3570467" lon="11.72527"><ele>278.0</ele><time>2026-05-03T11:14:10.651Z</time></trkpt><trkpt lat="43.3570517" lon="11.7250133"><ele>277.6666666666667</ele><time>2026-05-03T11:14:11.655Z</time></trkpt><trkpt lat="43.35706" lon="11.7247533"><ele>277.3333333333333</ele><time>2026-05-03T11:14:12.672Z</time></trkpt><trkpt lat="43.357075" lon="11.7244833"><ele>277.0</ele><time>2026-05-03T11:14:13.651Z</time></trkpt><trkpt lat="43.35709" lon="11.724215"><ele>275.66666666666663</ele><time>2026-05-03T11:14:14.648Z</time></trkpt><trkpt lat="43.3571083" lon="11.723955"><ele>274.3333333333333</ele><time>2026-05-03T11:14:15.664Z</time></trkpt><trkpt lat="43.3571133" lon="11.7236917"><ele>273.0</ele><time>2026-05-03T11:14:16.646Z</time></trkpt><trkpt lat="43.357125" lon="11.72344"><ele>272.3333333333333</ele><time>2026-05-03T11:14:17.666Z</time></trkpt><trkpt lat="43.357135" lon="11.723195"><ele>271.66666666666663</ele><time>2026-05-03T11:14:18.656Z</time></trkpt><trkpt lat="43.3571467" lon="11.7229633"><ele>271.0</ele><time>2026-05-03T11:14:19.663Z</time></trkpt><trkpt lat="43.3571617" lon="11.722745"><ele>271.25</ele><time>2026-05-03T11:14:20.664Z</time></trkpt><trkpt lat="43.3571783" lon="11.7225383"><ele>271.5</ele><time>2026-05-03T11:14:21.685Z</time></trkpt><trkpt lat="43.3571817" lon="11.72234"><ele>271.75</ele><time>2026-05-03T11:14:22.653Z</time></trkpt><trkpt lat="43.3571767" lon="11.7221417"><ele>272.0</ele><time>2026-05-03T11:14:23.653Z</time></trkpt><trkpt lat="43.3571617" lon="11.72193"><ele>272.0</ele><time>2026-05-03T11:14:24.646Z</time></trkpt><trkpt lat="43.3571233" lon="11.72171"><ele>272.0</ele><time>2026-05-03T11:14:25.655Z</time></trkpt><trkpt lat="43.35707" lon="11.7214983"><ele>272.0</ele><time>2026-05-03T11:14:26.653Z</time></trkpt><trkpt lat="43.3570033" lon="11.7212917"><ele>272.0</ele><time>2026-05-03T11:14:27.644Z</time></trkpt><trkpt lat="43.3569317" lon="11.7210817"><ele>272.0</ele><time>2026-05-03T11:14:28.65Z</time></trkpt><trkpt lat="43.3568617" lon="11.7208783"><ele>272.0</ele><time>2026-05-03T11:14:29.653Z</time></trkpt><trkpt lat="43.3567967" lon="11.72068"><ele>272.6666666666667</ele><time>2026-05-03T11:14:30.643Z</time></trkpt><trkpt lat="43.35673" lon="11.720475"><ele>273.3333333333333</ele><time>2026-05-03T11:14:31.654Z</time></trkpt><trkpt lat="43.3566733" lon="11.7202667"><ele>274.0</ele><time>2026-05-03T11:14:32.647Z</time></trkpt><trkpt lat="43.356625" lon="11.7200517"><ele>275.0</ele><time>2026-05-03T11:14:33.651Z</time></trkpt><trkpt lat="43.3565883" lon="11.7198267"><ele>276.0</ele><time>2026-05-03T11:14:34.654Z</time></trkpt><trkpt lat="43.3565533" lon="11.7196033"><ele>277.0</ele><time>2026-05-03T11:14:35.651Z</time></trkpt><trkpt lat="43.356535" lon="11.7193683"><ele>277.3333333333333</ele><time>2026-05-03T11:14:36.666Z</time></trkpt><trkpt lat="43.3565217" lon="11.71913"><ele>277.6666666666667</ele><time>2026-05-03T11:14:37.668Z</time></trkpt><trkpt lat="43.3565033" lon="11.718885"><ele>278.0</ele><time>2026-05-03T11:14:38.659Z</time></trkpt><trkpt lat="43.3564933" lon="11.71864"><ele>278.0</ele><time>2026-05-03T11:14:39.688Z</time></trkpt><trkpt lat="43.35648" lon="11.7183917"><ele>278.0</ele><time>2026-05-03T11:14:40.674Z</time></trkpt><trkpt lat="43.3564717" lon="11.7181367"><ele>278.0</ele><time>2026-05-03T11:14:41.659Z</time></trkpt><trkpt lat="43.3564517" lon="11.7178883"><ele>278.0</ele><time>2026-05-03T11:14:42.656Z</time></trkpt><trkpt lat="43.3564333" lon="11.7176317"><ele>278.0</ele><time>2026-05-03T11:14:43.656Z</time></trkpt><trkpt lat="43.3564233" lon="11.7173783"><ele>278.0</ele><time>2026-05-03T11:14:44.68Z</time></trkpt><trkpt lat="43.356405" lon="11.7171233"><ele>278.0</ele><time>2026-05-03T11:14:45.674Z</time></trkpt><trkpt lat="43.3563883" lon="11.7168733"><ele>278.0</ele><time>2026-05-03T11:14:46.685Z</time></trkpt><trkpt lat="43.356375" lon="11.7166417"><ele>278.0</ele><time>2026-05-03T11:14:47.65Z</time></trkpt><trkpt lat="43.3563583" lon="11.716425"><ele>276.6666666666667</ele><time>2026-05-03T11:14:48.652Z</time></trkpt><trkpt lat="43.35635" lon="11.716205"><ele>275.3333333333333</ele><time>2026-05-03T11:14:49.641Z</time></trkpt><trkpt lat="43.3563483" lon="11.716"><ele>274.0</ele><time>2026-05-03T11:14:50.65Z</time></trkpt><trkpt lat="43.3563633" lon="11.715795"><ele>274.25</ele><time>2026-05-03T11:14:51.658Z</time></trkpt><trkpt lat="43.356395" lon="11.7156"><ele>274.5</ele><time>2026-05-03T11:14:52.659Z</time></trkpt><trkpt lat="43.3564433" lon="11.7154067"><ele>274.75</ele><time>2026-05-03T11:14:53.65Z</time></trkpt><trkpt lat="43.3565083" lon="11.71523"><ele>275.0</ele><time>2026-05-03T11:14:54.652Z</time></trkpt><trkpt lat="43.3565867" lon="11.7150617"><ele>275.0</ele><time>2026-05-03T11:14:55.653Z</time></trkpt><trkpt lat="43.3566717" lon="11.7149033"><ele>275.0</ele><time>2026-05-03T11:14:56.658Z</time></trkpt><trkpt lat="43.356775" lon="11.7147533"><ele>275.0</ele><time>2026-05-03T11:14:57.654Z</time></trkpt><trkpt lat="43.35688" lon="11.7146117"><ele>275.0</ele><time>2026-05-03T11:14:58.644Z</time></trkpt><trkpt lat="43.3570017" lon="11.7145067"><ele>275.0</ele><time>2026-05-03T11:14:59.646Z</time></trkpt><trkpt lat="43.357135" lon="11.7144083"><ele>275.0</ele><time>2026-05-03T11:15:00.653Z</time></trkpt><trkpt lat="43.357265" lon="11.7143133"><ele>275.0</ele><time>2026-05-03T11:15:01.641Z</time></trkpt><trkpt lat="43.3573917" lon="11.7142133"><ele>275.0</ele><time>2026-05-03T11:15:02.654Z</time></trkpt><trkpt lat="43.35752" lon="11.7141167"><ele>275.6666666666667</ele><time>2026-05-03T11:15:03.648Z</time></trkpt><trkpt lat="43.3576567" lon="11.7140183"><ele>276.3333333333333</ele><time>2026-05-03T11:15:04.648Z</time></trkpt><trkpt lat="43.35778" lon="11.7138983"><ele>277.0</ele><time>2026-05-03T11:15:05.638Z</time></trkpt><trkpt lat="43.3578933" lon="11.7137567"><ele>277.0</ele><time>2026-05-03T11:15:06.646Z</time></trkpt><trkpt lat="43.3579933" lon="11.7136"><ele>277.0</ele><time>2026-05-03T11:15:07.671Z</time></trkpt><trkpt lat="43.3580867" lon="11.7134483"><ele>277.0</ele><time>2026-05-03T11:15:08.648Z</time></trkpt><trkpt lat="43.3581817" lon="11.7133"><ele>277.0</ele><time>2026-05-03T11:15:09.671Z</time></trkpt><trkpt lat="43.3582533" lon="11.7131517"><ele>277.0</ele><time>2026-05-03T11:15:10.64Z</time></trkpt><trkpt lat="43.3583317" lon="11.7130133"><ele>277.0</ele><time>2026-05-03T11:15:11.653Z</time></trkpt><trkpt lat="43.3584017" lon="11.7128633"><ele>277.0</ele><time>2026-05-03T11:15:12.652Z</time></trkpt><trkpt lat="43.35848" lon="11.7127283"><ele>277.0</ele><time>2026-05-03T11:15:13.649Z</time></trkpt><trkpt lat="43.358555" lon="11.71259"><ele>277.0</ele><time>2026-05-03T11:15:14.667Z</time></trkpt><trkpt lat="43.35863" lon="11.7124517"><ele>277.0</ele><time>2026-05-03T11:15:15.646Z</time></trkpt><trkpt lat="43.358705" lon="11.71232"><ele>277.0</ele><time>2026-05-03T11:15:16.643Z</time></trkpt><trkpt lat="43.3587783" lon="11.71219"><ele>277.0</ele><time>2026-05-03T11:15:17.652Z</time></trkpt><trkpt lat="43.3588567" lon="11.7120483"><ele>278.0</ele><time>2026-05-03T11:15:18.648Z</time></trkpt><trkpt lat="43.35893" lon="11.7119067"><ele>279.0</ele><time>2026-05-03T11:15:19.654Z</time></trkpt><trkpt lat="43.359005" lon="11.7117733"><ele>280.0</ele><time>2026-05-03T11:15:20.662Z</time></trkpt><trkpt lat="43.3590633" lon="11.7116233"><ele>281.0</ele><time>2026-05-03T11:15:21.661Z</time></trkpt><trkpt lat="43.3590933" lon="11.7114667"><ele>281.0</ele><time>2026-05-03T11:15:22.664Z</time></trkpt><trkpt lat="43.359105" lon="11.7112967"><ele>281.0</ele><time>2026-05-03T11:15:23.664Z</time></trkpt><trkpt lat="43.359095" lon="11.7111217"><ele>281.0</ele><time>2026-05-03T11:15:24.669Z</time></trkpt><trkpt lat="43.3590833" lon="11.7109433"><ele>281.0</ele><time>2026-05-03T11:15:25.685Z</time></trkpt><trkpt lat="43.3590683" lon="11.7107617"><ele>281.25</ele><time>2026-05-03T11:15:26.671Z</time></trkpt><trkpt lat="43.3590517" lon="11.7105767"><ele>281.5</ele><time>2026-05-03T11:15:27.652Z</time></trkpt><trkpt lat="43.3590417" lon="11.710395"><ele>281.75</ele><time>2026-05-03T11:15:28.662Z</time></trkpt><trkpt lat="43.3590217" lon="11.7102167"><ele>282.0</ele><time>2026-05-03T11:15:29.662Z</time></trkpt><trkpt lat="43.3590017" lon="11.71004"><ele>282.25</ele><time>2026-05-03T11:15:30.666Z</time></trkpt><trkpt lat="43.3589883" lon="11.7098683"><ele>282.5</ele><time>2026-05-03T11:15:31.666Z</time></trkpt><trkpt lat="43.35898" lon="11.7097033"><ele>282.75</ele><time>2026-05-03T11:15:32.653Z</time></trkpt><trkpt lat="43.3589483" lon="11.709535"><ele>283.0</ele><time>2026-05-03T11:15:33.658Z</time></trkpt><trkpt lat="43.358925" lon="11.7093533"><ele>283.25</ele><time>2026-05-03T11:15:34.662Z</time></trkpt><trkpt lat="43.3589167" lon="11.7091533"><ele>283.5</ele><time>2026-05-03T11:15:35.667Z</time></trkpt><trkpt lat="43.3589083" lon="11.7089517"><ele>283.75</ele><time>2026-05-03T11:15:36.661Z</time></trkpt><trkpt lat="43.3588983" lon="11.708755"><ele>284.0</ele><time>2026-05-03T11:15:37.649Z</time></trkpt><trkpt lat="43.358885" lon="11.7085667"><ele>282.25</ele><time>2026-05-03T11:15:38.665Z</time></trkpt><trkpt lat="43.3588667" lon="11.7083733"><ele>280.5</ele><time>2026-05-03T11:15:39.665Z</time></trkpt><trkpt lat="43.3588483" lon="11.708175"><ele>278.75</ele><time>2026-05-03T11:15:40.656Z</time></trkpt><trkpt lat="43.358825" lon="11.707975"><ele>277.0</ele><time>2026-05-03T11:15:41.657Z</time></trkpt><trkpt lat="43.3588033" lon="11.70778"><ele>276.75</ele><time>2026-05-03T11:15:42.659Z</time></trkpt><trkpt lat="43.3587767" lon="11.7075883"><ele>276.5</ele><time>2026-05-03T11:15:43.651Z</time></trkpt><trkpt lat="43.35873" lon="11.7074"><ele>276.25</ele><time>2026-05-03T11:15:44.671Z</time></trkpt><trkpt lat="43.3586583" lon="11.7072217"><ele>276.0</ele><time>2026-05-03T11:15:45.642Z</time></trkpt><trkpt lat="43.3585667" lon="11.7070667"><ele>276.0</ele><time>2026-05-03T11:15:46.66Z</time></trkpt><trkpt lat="43.35845" lon="11.706925"><ele>276.0</ele><time>2026-05-03T11:15:47.651Z</time></trkpt><trkpt lat="43.358325" lon="11.7067817"><ele>276.0</ele><time>2026-05-03T11:15:48.697Z</time></trkpt><trkpt lat="43.3581983" lon="11.706635"><ele>275.6666666666667</ele><time>2026-05-03T11:15:49.737Z</time></trkpt><trkpt lat="43.35807" lon="11.706485"><ele>275.33333333333337</ele><time>2026-05-03T11:15:50.714Z</time></trkpt><trkpt lat="43.3579433" lon="11.706335"><ele>275.0</ele><time>2026-05-03T11:15:51.683Z</time></trkpt><trkpt lat="43.3578167" lon="11.7061833"><ele>275.6666666666667</ele><time>2026-05-03T11:15:52.766Z</time></trkpt><trkpt lat="43.3576917" lon="11.7060333"><ele>276.3333333333333</ele><time>2026-05-03T11:15:53.706Z</time></trkpt><trkpt lat="43.3575817" lon="11.70589"><ele>277.0</ele><time>2026-05-03T11:15:54.658Z</time></trkpt><trkpt lat="43.3574783" lon="11.7057583"><ele>277.0</ele><time>2026-05-03T11:15:55.711Z</time></trkpt><trkpt lat="43.3573783" lon="11.70563"><ele>277.0</ele><time>2026-05-03T11:15:56.657Z</time></trkpt><trkpt lat="43.3572883" lon="11.70551"><ele>277.0</ele><time>2026-05-03T11:15:57.676Z</time></trkpt><trkpt lat="43.3572267" lon="11.7053767"><ele>277.0</ele><time>2026-05-03T11:15:58.663Z</time></trkpt><trkpt lat="43.3571883" lon="11.7052183"><ele>276.25</ele><time>2026-05-03T11:15:59.642Z</time></trkpt><trkpt lat="43.35718" lon="11.7050383"><ele>275.5</ele><time>2026-05-03T11:16:00.653Z</time></trkpt><trkpt lat="43.35719" lon="11.7048517"><ele>274.75</ele><time>2026-05-03T11:16:01.652Z</time></trkpt><trkpt lat="43.3572117" lon="11.7046583"><ele>274.0</ele><time>2026-05-03T11:16:02.662Z</time></trkpt><trkpt lat="43.3572267" lon="11.7044433"><ele>276.66666666666663</ele><time>2026-05-03T11:16:03.684Z</time></trkpt><trkpt lat="43.35723" lon="11.7042217"><ele>279.3333333333333</ele><time>2026-05-03T11:16:04.667Z</time></trkpt><trkpt lat="43.3572217" lon="11.7040017"><ele>282.0</ele><time>2026-05-03T11:16:05.693Z</time></trkpt><trkpt lat="43.3572083" lon="11.70377"><ele>279.0</ele><time>2026-05-03T11:16:06.654Z</time></trkpt><trkpt lat="43.357175" lon="11.703545"><ele>276.0</ele><time>2026-05-03T11:16:07.691Z</time></trkpt><trkpt lat="43.357135" lon="11.7033167"><ele>273.0</ele><time>2026-05-03T11:16:08.667Z</time></trkpt><trkpt lat="43.35708" lon="11.7030983"><ele>273.0</ele><time>2026-05-03T11:16:09.65Z</time></trkpt><trkpt lat="43.35703" lon="11.7028967"><ele>273.0</ele><time>2026-05-03T11:16:10.648Z</time></trkpt><trkpt lat="43.35697" lon="11.7027067"><ele>273.0</ele><time>2026-05-03T11:16:11.652Z</time></trkpt><trkpt lat="43.356915" lon="11.702525"><ele>273.0</ele><time>2026-05-03T11:16:12.644Z</time></trkpt><trkpt lat="43.356865" lon="11.7023617"><ele>273.25</ele><time>2026-05-03T11:16:13.654Z</time></trkpt><trkpt lat="43.3568083" lon="11.7022133"><ele>273.5</ele><time>2026-05-03T11:16:14.644Z</time></trkpt><trkpt lat="43.3567517" lon="11.702075"><ele>273.75</ele><time>2026-05-03T11:16:15.646Z</time></trkpt><trkpt lat="43.356695" lon="11.701945"><ele>274.0</ele><time>2026-05-03T11:16:16.646Z</time></trkpt><trkpt lat="43.3566383" lon="11.7018283"><ele>274.0</ele><time>2026-05-03T11:16:17.641Z</time></trkpt><trkpt lat="43.35657" lon="11.701705"><ele>274.0</ele><time>2026-05-03T11:16:18.653Z</time></trkpt><trkpt lat="43.3565" lon="11.7015783"><ele>274.0</ele><time>2026-05-03T11:16:19.649Z</time></trkpt><trkpt lat="43.35643" lon="11.7014383"><ele>274.0</ele><time>2026-05-03T11:16:20.645Z</time></trkpt><trkpt lat="43.3563517" lon="11.7012917"><ele>274.0</ele><time>2026-05-03T11:16:21.642Z</time></trkpt><trkpt lat="43.35627" lon="11.7011383"><ele>274.0</ele><time>2026-05-03T11:16:22.641Z</time></trkpt><trkpt lat="43.356185" lon="11.700985"><ele>274.0</ele><time>2026-05-03T11:16:23.645Z</time></trkpt><trkpt lat="43.3560967" lon="11.7008283"><ele>274.0</ele><time>2026-05-03T11:16:24.645Z</time></trkpt><trkpt lat="43.35602" lon="11.7006667"><ele>274.0</ele><time>2026-05-03T11:16:25.644Z</time></trkpt><trkpt lat="43.3559367" lon="11.7005117"><ele>274.0</ele><time>2026-05-03T11:16:26.663Z</time></trkpt><trkpt lat="43.3558467" lon="11.7003467"><ele>274.0</ele><time>2026-05-03T11:16:27.647Z</time></trkpt><trkpt lat="43.355755" lon="11.7001833"><ele>274.0</ele><time>2026-05-03T11:16:28.66Z</time></trkpt><trkpt lat="43.3556667" lon="11.700015"><ele>274.0</ele><time>2026-05-03T11:16:29.659Z</time></trkpt><trkpt lat="43.3555817" lon="11.6998467"><ele>274.0</ele><time>2026-05-03T11:16:30.669Z</time></trkpt><trkpt lat="43.3554917" lon="11.69968"><ele>274.0</ele><time>2026-05-03T11:16:31.644Z</time></trkpt><trkpt lat="43.3554" lon="11.6995117"><ele>274.25</ele><time>2026-05-03T11:16:32.642Z</time></trkpt><trkpt lat="43.35531" lon="11.6993417"><ele>274.5</ele><time>2026-05-03T11:16:33.643Z</time></trkpt><trkpt lat="43.355225" lon="11.6991833"><ele>274.75</ele><time>2026-05-03T11:16:34.652Z</time></trkpt><trkpt lat="43.3551417" lon="11.699035"><ele>275.0</ele><time>2026-05-03T11:16:35.644Z</time></trkpt><trkpt lat="43.3550633" lon="11.6988983"><ele>275.0</ele><time>2026-05-03T11:16:36.65Z</time></trkpt><trkpt lat="43.3549967" lon="11.6987733"><ele>275.0</ele><time>2026-05-03T11:16:37.642Z</time></trkpt><trkpt lat="43.3549333" lon="11.6986583"><ele>275.0</ele><time>2026-05-03T11:16:38.646Z</time></trkpt><trkpt lat="43.354875" lon="11.6985617"><ele>275.0</ele><time>2026-05-03T11:16:39.644Z</time></trkpt><trkpt lat="43.3548233" lon="11.6984833"><ele>275.0</ele><time>2026-05-03T11:16:40.645Z</time></trkpt><trkpt lat="43.35473" lon="11.698395"><ele>275.6</ele><time>2026-05-03T11:16:42.699Z</time></trkpt><trkpt lat="43.3545917" lon="11.698405"><ele>276.2</ele><time>2026-05-03T11:16:44.656Z</time></trkpt><trkpt lat="43.3545133" lon="11.6984567"><ele>276.8</ele><time>2026-05-03T11:16:45.644Z</time></trkpt><trkpt lat="43.354425" lon="11.69853"><ele>277.4</ele><time>2026-05-03T11:16:46.654Z</time></trkpt><trkpt lat="43.3543333" lon="11.6986267"><ele>278.0</ele><time>2026-05-03T11:16:47.645Z</time></trkpt><trkpt lat="43.3542467" lon="11.6987367"><ele>278.0</ele><time>2026-05-03T11:16:48.642Z</time></trkpt><trkpt lat="43.3541767" lon="11.69886"><ele>278.0</ele><time>2026-05-03T11:16:49.647Z</time></trkpt><trkpt lat="43.3541267" lon="11.6989783"><ele>278.0</ele><time>2026-05-03T11:16:50.646Z</time></trkpt><trkpt lat="43.3540817" lon="11.699085"><ele>278.0</ele><time>2026-05-03T11:16:51.647Z</time></trkpt><trkpt lat="43.3540417" lon="11.6991867"><ele>278.0</ele><time>2026-05-03T11:16:52.657Z</time></trkpt><trkpt lat="43.354005" lon="11.6992667"><ele>278.0</ele><time>2026-05-03T11:16:53.639Z</time></trkpt><trkpt lat="43.3539433" lon="11.6993283"><ele>278.0</ele><time>2026-05-03T11:16:55.641Z</time></trkpt><trkpt lat="43.3538717" lon="11.6992633"><ele>278.0</ele><time>2026-05-03T11:16:58.645Z</time></trkpt><trkpt lat="43.353835" lon="11.6991583"><ele>278.0</ele><time>2026-05-03T11:17:00.651Z</time></trkpt><trkpt lat="43.35379" lon="11.6990267"><ele>278.0</ele><time>2026-05-03T11:17:02.639Z</time></trkpt><trkpt lat="43.3537483" lon="11.69888"><ele>280.0</ele><time>2026-05-03T11:17:04.642Z</time></trkpt><trkpt lat="43.353715" lon="11.6987917"><ele>282.0</ele><time>2026-05-03T11:17:05.645Z</time></trkpt><trkpt lat="43.3536833" lon="11.698715"><ele>284.0</ele><time>2026-05-03T11:17:06.638Z</time></trkpt><trkpt lat="43.3536117" lon="11.698595"><ele>286.0</ele><time>2026-05-03T11:17:08.644Z</time></trkpt><trkpt lat="43.35355" lon="11.698565"><ele>288.0</ele><time>2026-05-03T11:17:09.64Z</time></trkpt><trkpt lat="43.3534817" lon="11.6985533"><ele>290.0</ele><time>2026-05-03T11:17:10.641Z</time></trkpt><trkpt lat="43.3534167" lon="11.6985367"><ele>291.1666666666667</ele><time>2026-05-03T11:17:11.651Z</time></trkpt><trkpt lat="43.353325" lon="11.6984583"><ele>292.33333333333337</ele><time>2026-05-03T11:17:13.652Z</time></trkpt><trkpt lat="43.35331" lon="11.6983617"><ele>293.5</ele><time>2026-05-03T11:17:15.642Z</time></trkpt><trkpt lat="43.3533683" lon="11.6983033"><ele>294.6666666666667</ele><time>2026-05-03T11:17:17.671Z</time></trkpt><trkpt lat="43.3534617" lon="11.6982783"><ele>295.8333333333333</ele><time>2026-05-03T11:17:19.645Z</time></trkpt><trkpt lat="43.3535183" lon="11.6982333"><ele>297.0</ele><time>2026-05-03T11:17:20.641Z</time></trkpt><trkpt lat="43.353575" lon="11.6981517"><ele>297.0</ele><time>2026-05-03T11:17:21.652Z</time></trkpt><trkpt lat="43.3536333" lon="11.6980417"><ele>297.0</ele><time>2026-05-03T11:17:22.642Z</time></trkpt><trkpt lat="43.35367" lon="11.697935"><ele>297.0</ele><time>2026-05-03T11:17:23.643Z</time></trkpt><trkpt lat="43.3537" lon="11.6978467"><ele>297.0</ele><time>2026-05-03T11:17:24.643Z</time></trkpt><trkpt lat="43.3537267" lon="11.6977567"><ele>297.0</ele><time>2026-05-03T11:17:25.652Z</time></trkpt><trkpt lat="43.3537517" lon="11.69766"><ele>297.0</ele><time>2026-05-03T11:17:26.644Z</time></trkpt><trkpt lat="43.353765" lon="11.6975683"><ele>298.8</ele><time>2026-05-03T11:17:27.649Z</time></trkpt><trkpt lat="43.3537683" lon="11.6974533"><ele>300.6</ele><time>2026-05-03T11:17:28.642Z</time></trkpt><trkpt lat="43.3537283" lon="11.6973367"><ele>302.40000000000003</ele><time>2026-05-03T11:17:29.65Z</time></trkpt><trkpt lat="43.3536867" lon="11.6972033"><ele>304.2</ele><time>2026-05-03T11:17:30.656Z</time></trkpt><trkpt lat="43.35365" lon="11.6970517"><ele>306.0</ele><time>2026-05-03T11:17:31.647Z</time></trkpt><trkpt lat="43.3536083" lon="11.6968867"><ele>307.6</ele><time>2026-05-03T11:17:32.654Z</time></trkpt><trkpt lat="43.353575" lon="11.696745"><ele>309.20000000000005</ele><time>2026-05-03T11:17:33.651Z</time></trkpt><trkpt lat="43.3535483" lon="11.696625"><ele>310.79999999999995</ele><time>2026-05-03T11:17:34.665Z</time></trkpt><trkpt lat="43.3535233" lon="11.696525"><ele>312.4</ele><time>2026-05-03T11:17:35.651Z</time></trkpt><trkpt lat="43.3535217" lon="11.6964367"><ele>314.0</ele><time>2026-05-03T11:17:37.649Z</time></trkpt><trkpt lat="43.3537" lon="11.6964"><ele>314.0</ele><time>2026-05-03T11:17:43.64Z</time></trkpt><trkpt lat="43.353795" lon="11.6963233"><ele>314.0</ele><time>2026-05-03T11:17:45.639Z</time></trkpt><trkpt lat="43.35387" lon="11.6961817"><ele>314.0</ele><time>2026-05-03T11:17:47.652Z</time></trkpt><trkpt lat="43.353895" lon="11.696095"><ele>314.0</ele><time>2026-05-03T11:17:48.646Z</time></trkpt><trkpt lat="43.3539117" lon="11.6959967"><ele>314.0</ele><time>2026-05-03T11:17:49.647Z</time></trkpt><trkpt lat="43.3539167" lon="11.6958467"><ele>314.1428571428571</ele><time>2026-05-03T11:17:51.643Z</time></trkpt><trkpt lat="43.3539333" lon="11.6957583"><ele>314.2857142857143</ele><time>2026-05-03T11:17:53.638Z</time></trkpt><trkpt lat="43.3539933" lon="11.6957167"><ele>314.42857142857144</ele><time>2026-05-03T11:17:55.635Z</time></trkpt><trkpt lat="43.354085" lon="11.69576"><ele>314.57142857142856</ele><time>2026-05-03T11:17:57.641Z</time></trkpt><trkpt lat="43.35414" lon="11.6958133"><ele>314.7142857142857</ele><time>2026-05-03T11:17:58.645Z</time></trkpt><trkpt lat="43.3542067" lon="11.6958633"><ele>314.85714285714283</ele><time>2026-05-03T11:17:59.643Z</time></trkpt><trkpt lat="43.35428" lon="11.6958883"><ele>315.0</ele><time>2026-05-03T11:18:00.641Z</time></trkpt><trkpt lat="43.3543583" lon="11.695895"><ele>315.0</ele><time>2026-05-03T11:18:01.643Z</time></trkpt><trkpt lat="43.35444" lon="11.6958817"><ele>315.0</ele><time>2026-05-03T11:18:02.643Z</time></trkpt><trkpt lat="43.3545333" lon="11.6958617"><ele>315.0</ele><time>2026-05-03T11:18:03.647Z</time></trkpt><trkpt lat="43.3546183" lon="11.6958267"><ele>315.0</ele><time>2026-05-03T11:18:04.654Z</time></trkpt><trkpt lat="43.354695" lon="11.6958"><ele>315.0</ele><time>2026-05-03T11:18:05.651Z</time></trkpt><trkpt lat="43.3547517" lon="11.6957583"><ele>315.0</ele><time>2026-05-03T11:18:06.65Z</time></trkpt><trkpt lat="43.3548233" lon="11.6957083"><ele>314.3333333333333</ele><time>2026-05-03T11:18:07.646Z</time></trkpt><trkpt lat="43.3548867" lon="11.695635"><ele>313.6666666666667</ele><time>2026-05-03T11:18:08.646Z</time></trkpt><trkpt lat="43.3549433" lon="11.6955533"><ele>313.0</ele><time>2026-05-03T11:18:09.645Z</time></trkpt><trkpt lat="43.3549817" lon="11.6954667"><ele>312.33333333333337</ele><time>2026-05-03T11:18:10.642Z</time></trkpt><trkpt lat="43.3550117" lon="11.6953667"><ele>311.6666666666667</ele><time>2026-05-03T11:18:11.644Z</time></trkpt><trkpt lat="43.3550417" lon="11.695255"><ele>311.0</ele><time>2026-05-03T11:18:12.646Z</time></trkpt><trkpt lat="43.355065" lon="11.6951383"><ele>313.8</ele><time>2026-05-03T11:18:13.666Z</time></trkpt><trkpt lat="43.3550733" lon="11.695015"><ele>316.6</ele><time>2026-05-03T11:18:14.683Z</time></trkpt><trkpt lat="43.3550867" lon="11.6948883"><ele>319.4</ele><time>2026-05-03T11:18:15.638Z</time></trkpt><trkpt lat="43.35509" lon="11.69475"><ele>322.2</ele><time>2026-05-03T11:18:16.648Z</time></trkpt><trkpt lat="43.3551083" lon="11.6946083"><ele>325.0</ele><time>2026-05-03T11:18:17.643Z</time></trkpt><trkpt lat="43.3551333" lon="11.6944717"><ele>326.8</ele><time>2026-05-03T11:18:18.652Z</time></trkpt><trkpt lat="43.355155" lon="11.6943367"><ele>328.6</ele><time>2026-05-03T11:18:19.642Z</time></trkpt><trkpt lat="43.3551767" lon="11.6942083"><ele>330.4</ele><time>2026-05-03T11:18:20.652Z</time></trkpt><trkpt lat="43.3551833" lon="11.6940867"><ele>332.2</ele><time>2026-05-03T11:18:21.639Z</time></trkpt><trkpt lat="43.3551767" lon="11.6939583"><ele>334.0</ele><time>2026-05-03T11:18:22.642Z</time></trkpt><trkpt lat="43.3551567" lon="11.693825"><ele>334.0</ele><time>2026-05-03T11:18:23.651Z</time></trkpt><trkpt lat="43.35513" lon="11.6936917"><ele>334.0</ele><time>2026-05-03T11:18:24.646Z</time></trkpt><trkpt lat="43.3551067" lon="11.6935683"><ele>334.0</ele><time>2026-05-03T11:18:25.642Z</time></trkpt><trkpt lat="43.3551" lon="11.6934683"><ele>334.0</ele><time>2026-05-03T11:18:26.654Z</time></trkpt><trkpt lat="43.3551" lon="11.693315"><ele>334.0</ele><time>2026-05-03T11:18:28.645Z</time></trkpt><trkpt lat="43.3550717" lon="11.6932317"><ele>334.0</ele><time>2026-05-03T11:18:30.643Z</time></trkpt><trkpt lat="43.3549883" lon="11.6932833"><ele>334.0</ele><time>2026-05-03T11:18:33.654Z</time></trkpt><trkpt lat="43.3549417" lon="11.69345"><ele>334.0</ele><time>2026-05-03T11:18:35.641Z</time></trkpt><trkpt lat="43.3549117" lon="11.69355"><ele>334.0</ele><time>2026-05-03T11:18:36.642Z</time></trkpt><trkpt lat="43.3548783" lon="11.6936567"><ele>334.0</ele><time>2026-05-03T11:18:37.648Z</time></trkpt><trkpt lat="43.3548383" lon="11.6937817"><ele>334.0</ele><time>2026-05-03T11:18:38.645Z</time></trkpt><trkpt lat="43.3548017" lon="11.69388"><ele>334.0</ele><time>2026-05-03T11:18:39.64Z</time></trkpt><trkpt lat="43.354755" lon="11.6939483"><ele>334.0</ele><time>2026-05-03T11:18:40.667Z</time></trkpt><trkpt lat="43.3547" lon="11.6939967"><ele>334.0</ele><time>2026-05-03T11:18:41.705Z</time></trkpt><trkpt lat="43.3546283" lon="11.694035"><ele>334.0</ele><time>2026-05-03T11:18:42.635Z</time></trkpt><trkpt lat="43.3545483" lon="11.6940717"><ele>334.0</ele><time>2026-05-03T11:18:43.647Z</time></trkpt><trkpt lat="43.3544617" lon="11.6941083"><ele>334.0</ele><time>2026-05-03T11:18:44.639Z</time></trkpt><trkpt lat="43.354375" lon="11.6941617"><ele>335.6</ele><time>2026-05-03T11:18:45.645Z</time></trkpt><trkpt lat="43.3542933" lon="11.6942067"><ele>337.2</ele><time>2026-05-03T11:18:46.642Z</time></trkpt><trkpt lat="43.3542283" lon="11.6942333"><ele>338.8</ele><time>2026-05-03T11:18:47.64Z</time></trkpt><trkpt lat="43.354115" lon="11.6941967"><ele>340.40000000000003</ele><time>2026-05-03T11:18:49.643Z</time></trkpt><trkpt lat="43.35404" lon="11.69407"><ele>342.0</ele><time>2026-05-03T11:18:51.648Z</time></trkpt><trkpt lat="43.3540133" lon="11.6939733"><ele>342.0</ele><time>2026-05-03T11:18:52.641Z</time></trkpt><trkpt lat="43.353985" lon="11.6938667"><ele>342.0</ele><time>2026-05-03T11:18:53.647Z</time></trkpt><trkpt lat="43.3539483" lon="11.69378"><ele>342.0</ele><time>2026-05-03T11:18:54.648Z</time></trkpt><trkpt lat="43.3539" lon="11.693645"><ele>342.0</ele><time>2026-05-03T11:18:56.657Z</time></trkpt><trkpt lat="43.3539083" lon="11.693545"><ele>342.0</ele><time>2026-05-03T11:18:59.649Z</time></trkpt><trkpt lat="43.3540367" lon="11.69368"><ele>342.0</ele><time>2026-05-03T11:19:03.649Z</time></trkpt><trkpt lat="43.3541083" lon="11.6937217"><ele>342.0</ele><time>2026-05-03T11:19:05.641Z</time></trkpt><trkpt lat="43.35419" lon="11.69363"><ele>342.0</ele><time>2026-05-03T11:19:07.635Z</time></trkpt><trkpt lat="43.354225" lon="11.6935467"><ele>342.0</ele><time>2026-05-03T11:19:08.648Z</time></trkpt><trkpt lat="43.354265" lon="11.6934467"><ele>342.0</ele><time>2026-05-03T11:19:09.64Z</time></trkpt><trkpt lat="43.3542983" lon="11.6933517"><ele>342.0</ele><time>2026-05-03T11:19:10.646Z</time></trkpt><trkpt lat="43.35433" lon="11.693275"><ele>344.0</ele><time>2026-05-03T11:19:11.645Z</time></trkpt><trkpt lat="43.3543517" lon="11.6931783"><ele>346.0</ele><time>2026-05-03T11:19:13.652Z</time></trkpt><trkpt lat="43.3542933" lon="11.6931417"><ele>348.0</ele><time>2026-05-03T11:19:17.647Z</time></trkpt><trkpt lat="43.3542283" lon="11.6932133"><ele>350.0</ele><time>2026-05-03T11:19:19.643Z</time></trkpt><trkpt lat="43.3541467" lon="11.6932467"><ele>352.0</ele><time>2026-05-03T11:19:21.639Z</time></trkpt><trkpt lat="43.3540583" lon="11.6932083"><ele>354.0</ele><time>2026-05-03T11:19:23.662Z</time></trkpt><trkpt lat="43.35396" lon="11.6931167"><ele>354.0</ele><time>2026-05-03T11:19:25.657Z</time></trkpt><trkpt lat="43.3539133" lon="11.6930467"><ele>354.0</ele><time>2026-05-03T11:19:26.646Z</time></trkpt><trkpt lat="43.353865" lon="11.6929583"><ele>354.0</ele><time>2026-05-03T11:19:27.636Z</time></trkpt><trkpt lat="43.3538133" lon="11.6928483"><ele>354.0</ele><time>2026-05-03T11:19:28.647Z</time></trkpt><trkpt lat="43.35376" lon="11.69272"><ele>354.0</ele><time>2026-05-03T11:19:29.64Z</time></trkpt><trkpt lat="43.3537083" lon="11.6925833"><ele>355.4</ele><time>2026-05-03T11:19:30.639Z</time></trkpt><trkpt lat="43.3536567" lon="11.6924467"><ele>356.79999999999995</ele><time>2026-05-03T11:19:31.64Z</time></trkpt><trkpt lat="43.353605" lon="11.6923067"><ele>358.20000000000005</ele><time>2026-05-03T11:19:32.644Z</time></trkpt><trkpt lat="43.35356" lon="11.69217"><ele>359.6</ele><time>2026-05-03T11:19:33.643Z</time></trkpt><trkpt lat="43.35351" lon="11.6920383"><ele>361.0</ele><time>2026-05-03T11:19:34.651Z</time></trkpt><trkpt lat="43.353465" lon="11.6919133"><ele>362.20000000000005</ele><time>2026-05-03T11:19:35.645Z</time></trkpt><trkpt lat="43.3534233" lon="11.6918033"><ele>363.40000000000003</ele><time>2026-05-03T11:19:36.644Z</time></trkpt><trkpt lat="43.3533733" lon="11.6917017"><ele>364.6</ele><time>2026-05-03T11:19:37.643Z</time></trkpt><trkpt lat="43.35331" lon="11.6916133"><ele>365.8</ele><time>2026-05-03T11:19:38.644Z</time></trkpt><trkpt lat="43.3532317" lon="11.6915333"><ele>367.0</ele><time>2026-05-03T11:19:39.637Z</time></trkpt><trkpt lat="43.3531417" lon="11.6914517"><ele>367.0</ele><time>2026-05-03T11:19:40.648Z</time></trkpt><trkpt lat="43.353055" lon="11.6913817"><ele>367.0</ele><time>2026-05-03T11:19:41.64Z</time></trkpt><trkpt lat="43.3529817" lon="11.6913133"><ele>367.0</ele><time>2026-05-03T11:19:42.641Z</time></trkpt><trkpt lat="43.3529283" lon="11.6912433"><ele>367.0</ele><time>2026-05-03T11:19:43.647Z</time></trkpt><trkpt lat="43.35289" lon="11.6911467"><ele>367.0</ele><time>2026-05-03T11:19:44.64Z</time></trkpt><trkpt lat="43.352865" lon="11.6910567"><ele>367.0</ele><time>2026-05-03T11:19:45.65Z</time></trkpt><trkpt lat="43.35284" lon="11.6909533"><ele>368.0</ele><time>2026-05-03T11:19:46.642Z</time></trkpt><trkpt lat="43.3528217" lon="11.6908433"><ele>369.0</ele><time>2026-05-03T11:19:47.65Z</time></trkpt><trkpt lat="43.3528083" lon="11.6907317"><ele>370.0</ele><time>2026-05-03T11:19:48.634Z</time></trkpt><trkpt lat="43.352785" lon="11.6905983"><ele>371.0</ele><time>2026-05-03T11:19:49.635Z</time></trkpt><trkpt lat="43.3527567" lon="11.69047"><ele>372.0</ele><time>2026-05-03T11:19:50.633Z</time></trkpt><trkpt lat="43.35271" lon="11.6903267"><ele>372.6</ele><time>2026-05-03T11:19:51.639Z</time></trkpt><trkpt lat="43.3526783" lon="11.6901933"><ele>373.20000000000005</ele><time>2026-05-03T11:19:52.641Z</time></trkpt><trkpt lat="43.3526583" lon="11.690045"><ele>373.8</ele><time>2026-05-03T11:19:53.637Z</time></trkpt><trkpt lat="43.3526433" lon="11.689895"><ele>374.4</ele><time>2026-05-03T11:19:54.652Z</time></trkpt><trkpt lat="43.35263" lon="11.6897367"><ele>375.0</ele><time>2026-05-03T11:19:55.645Z</time></trkpt><trkpt lat="43.3526183" lon="11.68958"><ele>375.0</ele><time>2026-05-03T11:19:56.647Z</time></trkpt><trkpt lat="43.3526017" lon="11.6894267"><ele>375.0</ele><time>2026-05-03T11:19:57.644Z</time></trkpt><trkpt lat="43.352575" lon="11.6892583"><ele>375.0</ele><time>2026-05-03T11:19:58.638Z</time></trkpt><trkpt lat="43.3525533" lon="11.6890967"><ele>375.0</ele><time>2026-05-03T11:19:59.647Z</time></trkpt><trkpt lat="43.352535" lon="11.6889333"><ele>376.5</ele><time>2026-05-03T11:20:00.642Z</time></trkpt><trkpt lat="43.3525117" lon="11.688765"><ele>378.0</ele><time>2026-05-03T11:20:01.669Z</time></trkpt><trkpt lat="43.3524933" lon="11.6885917"><ele>379.5</ele><time>2026-05-03T11:20:02.645Z</time></trkpt><trkpt lat="43.3524617" lon="11.6884183"><ele>381.0</ele><time>2026-05-03T11:20:03.646Z</time></trkpt><trkpt lat="43.35244" lon="11.6882517"><ele>382.0</ele><time>2026-05-03T11:20:04.649Z</time></trkpt><trkpt lat="43.3524267" lon="11.688095"><ele>383.0</ele><time>2026-05-03T11:20:05.645Z</time></trkpt><trkpt lat="43.3524317" lon="11.6879533"><ele>384.0</ele><time>2026-05-03T11:20:06.646Z</time></trkpt><trkpt lat="43.3524317" lon="11.6878083"><ele>385.0</ele><time>2026-05-03T11:20:07.646Z</time></trkpt><trkpt lat="43.3524333" lon="11.6876717"><ele>386.0</ele><time>2026-05-03T11:20:08.643Z</time></trkpt><trkpt lat="43.352435" lon="11.687535"><ele>386.99999999999994</ele><time>2026-05-03T11:20:09.64Z</time></trkpt><trkpt lat="43.3524517" lon="11.6874067"><ele>388.0</ele><time>2026-05-03T11:20:10.638Z</time></trkpt><trkpt lat="43.3524567" lon="11.6872967"><ele>389.0</ele><time>2026-05-03T11:20:11.64Z</time></trkpt><trkpt lat="43.3524667" lon="11.68719"><ele>390.0</ele><time>2026-05-03T11:20:12.643Z</time></trkpt><trkpt lat="43.3524617" lon="11.6870983"><ele>390.99999999999994</ele><time>2026-05-03T11:20:13.627Z</time></trkpt><trkpt lat="43.35244" lon="11.6870017"><ele>392.0</ele><time>2026-05-03T11:20:14.64Z</time></trkpt><trkpt lat="43.352405" lon="11.6868867"><ele>392.6</ele><time>2026-05-03T11:20:15.643Z</time></trkpt><trkpt lat="43.3523683" lon="11.6867683"><ele>393.20000000000005</ele><time>2026-05-03T11:20:16.642Z</time></trkpt><trkpt lat="43.3523333" lon="11.6866467"><ele>393.8</ele><time>2026-05-03T11:20:17.663Z</time></trkpt><trkpt lat="43.352295" lon="11.6865267"><ele>394.4</ele><time>2026-05-03T11:20:18.647Z</time></trkpt><trkpt lat="43.3522367" lon="11.6863967"><ele>395.0</ele><time>2026-05-03T11:20:19.645Z</time></trkpt><trkpt lat="43.352205" lon="11.6862483"><ele>396.49999999999994</ele><time>2026-05-03T11:20:20.646Z</time></trkpt><trkpt lat="43.3522" lon="11.6861133"><ele>398.0</ele><time>2026-05-03T11:20:21.638Z</time></trkpt><trkpt lat="43.35219" lon="11.6859817"><ele>399.5</ele><time>2026-05-03T11:20:22.667Z</time></trkpt><trkpt lat="43.352195" lon="11.68586"><ele>401.0</ele><time>2026-05-03T11:20:23.647Z</time></trkpt><trkpt lat="43.3522033" lon="11.6857417"><ele>402.49999999999994</ele><time>2026-05-03T11:20:24.65Z</time></trkpt><trkpt lat="43.3522267" lon="11.6856583"><ele>404.0</ele><time>2026-05-03T11:20:25.659Z</time></trkpt><trkpt lat="43.3522667" lon="11.6855867"><ele>404.0</ele><time>2026-05-03T11:20:26.651Z</time></trkpt><trkpt lat="43.35233" lon="11.68555"><ele>404.0</ele><time>2026-05-03T11:20:27.657Z</time></trkpt><trkpt lat="43.3524033" lon="11.685525"><ele>404.0</ele><time>2026-05-03T11:20:28.64Z</time></trkpt><trkpt lat="43.352495" lon="11.685515"><ele>404.0</ele><time>2026-05-03T11:20:29.648Z</time></trkpt><trkpt lat="43.3526033" lon="11.6854867"><ele>404.0</ele><time>2026-05-03T11:20:30.647Z</time></trkpt><trkpt lat="43.352715" lon="11.685455"><ele>403.99999999999994</ele><time>2026-05-03T11:20:31.65Z</time></trkpt><trkpt lat="43.3528083" lon="11.685425"><ele>404.0</ele><time>2026-05-03T11:20:32.64Z</time></trkpt><trkpt lat="43.3528933" lon="11.6853967"><ele>404.0</ele><time>2026-05-03T11:20:33.639Z</time></trkpt><trkpt lat="43.3529633" lon="11.6853467"><ele>404.0</ele><time>2026-05-03T11:20:34.644Z</time></trkpt><trkpt lat="43.3530167" lon="11.68529"><ele>403.99999999999994</ele><time>2026-05-03T11:20:35.642Z</time></trkpt><trkpt lat="43.35307" lon="11.6851483"><ele>404.0</ele><time>2026-05-03T11:20:37.65Z</time></trkpt><trkpt lat="43.35306" lon="11.68501"><ele>405.66666666666663</ele><time>2026-05-03T11:20:39.678Z</time></trkpt><trkpt lat="43.3529867" lon="11.6848833"><ele>407.3333333333333</ele><time>2026-05-03T11:20:41.64Z</time></trkpt><trkpt lat="43.3529283" lon="11.68484"><ele>409.0</ele><time>2026-05-03T11:20:42.642Z</time></trkpt><trkpt lat="43.3528467" lon="11.6848067"><ele>410.66666666666663</ele><time>2026-05-03T11:20:43.632Z</time></trkpt><trkpt lat="43.35276" lon="11.684775"><ele>412.3333333333333</ele><time>2026-05-03T11:20:44.653Z</time></trkpt><trkpt lat="43.35268" lon="11.6847467"><ele>414.0</ele><time>2026-05-03T11:20:45.655Z</time></trkpt><trkpt lat="43.352605" lon="11.6847117"><ele>414.0</ele><time>2026-05-03T11:20:46.642Z</time></trkpt><trkpt lat="43.3525317" lon="11.6846517"><ele>414.0</ele><time>2026-05-03T11:20:47.637Z</time></trkpt><trkpt lat="43.3524733" lon="11.6845767"><ele>414.0</ele><time>2026-05-03T11:20:48.645Z</time></trkpt><trkpt lat="43.3524083" lon="11.6845017"><ele>414.0</ele><time>2026-05-03T11:20:49.645Z</time></trkpt><trkpt lat="43.352355" lon="11.6844067"><ele>414.0</ele><time>2026-05-03T11:20:50.647Z</time></trkpt><trkpt lat="43.352295" lon="11.6843217"><ele>414.0</ele><time>2026-05-03T11:20:51.646Z</time></trkpt><trkpt lat="43.3522267" lon="11.68424"><ele>415.6</ele><time>2026-05-03T11:20:52.64Z</time></trkpt><trkpt lat="43.35215" lon="11.6841767"><ele>417.2</ele><time>2026-05-03T11:20:53.645Z</time></trkpt><trkpt lat="43.3520833" lon="11.68409"><ele>418.8</ele><time>2026-05-03T11:20:54.655Z</time></trkpt><trkpt lat="43.3520167" lon="11.684"><ele>420.40000000000003</ele><time>2026-05-03T11:20:55.642Z</time></trkpt><trkpt lat="43.351965" lon="11.6839033"><ele>422.0</ele><time>2026-05-03T11:20:56.686Z</time></trkpt><trkpt lat="43.351925" lon="11.683785"><ele>422.0</ele><time>2026-05-03T11:20:57.711Z</time></trkpt><trkpt lat="43.3519033" lon="11.683665"><ele>422.0</ele><time>2026-05-03T11:20:58.649Z</time></trkpt><trkpt lat="43.3518983" lon="11.683535"><ele>422.0</ele><time>2026-05-03T11:20:59.649Z</time></trkpt><trkpt lat="43.3518817" lon="11.68341"><ele>422.0</ele><time>2026-05-03T11:21:00.655Z</time></trkpt><trkpt lat="43.35185" lon="11.6832883"><ele>422.0</ele><time>2026-05-03T11:21:01.659Z</time></trkpt><trkpt lat="43.3517967" lon="11.6831683"><ele>421.8</ele><time>2026-05-03T11:21:02.643Z</time></trkpt><trkpt lat="43.3517333" lon="11.6830467"><ele>421.6</ele><time>2026-05-03T11:21:03.647Z</time></trkpt><trkpt lat="43.3516667" lon="11.682935"><ele>421.40000000000003</ele><time>2026-05-03T11:21:04.643Z</time></trkpt><trkpt lat="43.3515867" lon="11.6828233"><ele>421.20000000000005</ele><time>2026-05-03T11:21:05.645Z</time></trkpt><trkpt lat="43.35151" lon="11.6827233"><ele>421.0</ele><time>2026-05-03T11:21:06.648Z</time></trkpt><trkpt lat="43.3514233" lon="11.682625"><ele>419.0</ele><time>2026-05-03T11:21:07.647Z</time></trkpt><trkpt lat="43.3513267" lon="11.6825367"><ele>417.0</ele><time>2026-05-03T11:21:08.662Z</time></trkpt><trkpt lat="43.35123" lon="11.6824367"><ele>415.0</ele><time>2026-05-03T11:21:09.638Z</time></trkpt><trkpt lat="43.3511517" lon="11.6823533"><ele>413.0</ele><time>2026-05-03T11:21:10.64Z</time></trkpt><trkpt lat="43.3510833" lon="11.6822767"><ele>411.0</ele><time>2026-05-03T11:21:11.645Z</time></trkpt><trkpt lat="43.3510283" lon="11.6822083"><ele>411.0</ele><time>2026-05-03T11:21:12.64Z</time></trkpt><trkpt lat="43.3509733" lon="11.682125"><ele>411.0</ele><time>2026-05-03T11:21:13.644Z</time></trkpt><trkpt lat="43.3509333" lon="11.6820283"><ele>411.0</ele><time>2026-05-03T11:21:14.644Z</time></trkpt><trkpt lat="43.35089" lon="11.6818983"><ele>411.0</ele><time>2026-05-03T11:21:15.639Z</time></trkpt><trkpt lat="43.3508483" lon="11.6817533"><ele>411.0</ele><time>2026-05-03T11:21:16.649Z</time></trkpt><trkpt lat="43.3508117" lon="11.6816033"><ele>410.8</ele><time>2026-05-03T11:21:17.644Z</time></trkpt><trkpt lat="43.35078" lon="11.6814483"><ele>410.6</ele><time>2026-05-03T11:21:18.674Z</time></trkpt><trkpt lat="43.350755" lon="11.6813"><ele>410.4</ele><time>2026-05-03T11:21:19.652Z</time></trkpt><trkpt lat="43.3507167" lon="11.681155"><ele>410.2</ele><time>2026-05-03T11:21:20.655Z</time></trkpt><trkpt lat="43.3506817" lon="11.6810217"><ele>410.0</ele><time>2026-05-03T11:21:21.648Z</time></trkpt><trkpt lat="43.3506367" lon="11.6808883"><ele>410.0</ele><time>2026-05-03T11:21:22.652Z</time></trkpt><trkpt lat="43.3505767" lon="11.6807517"><ele>410.0</ele><time>2026-05-03T11:21:23.64Z</time></trkpt><trkpt lat="43.3505017" lon="11.68062"><ele>410.0</ele><time>2026-05-03T11:21:24.647Z</time></trkpt><trkpt lat="43.3504267" lon="11.6805"><ele>410.0</ele><time>2026-05-03T11:21:25.646Z</time></trkpt><trkpt lat="43.3503617" lon="11.680385"><ele>412.4</ele><time>2026-05-03T11:21:26.645Z</time></trkpt><trkpt lat="43.350285" lon="11.6802767"><ele>414.8</ele><time>2026-05-03T11:21:27.641Z</time></trkpt><trkpt lat="43.3502" lon="11.680195"><ele>417.20000000000005</ele><time>2026-05-03T11:21:28.645Z</time></trkpt><trkpt lat="43.3501117" lon="11.680125"><ele>419.6</ele><time>2026-05-03T11:21:29.647Z</time></trkpt><trkpt lat="43.3500167" lon="11.6800617"><ele>422.0</ele><time>2026-05-03T11:21:30.645Z</time></trkpt><trkpt lat="43.3499267" lon="11.6800033"><ele>423.0</ele><time>2026-05-03T11:21:31.646Z</time></trkpt><trkpt lat="43.3498267" lon="11.6799517"><ele>424.0</ele><time>2026-05-03T11:21:32.657Z</time></trkpt><trkpt lat="43.349725" lon="11.679905"><ele>425.00000000000006</ele><time>2026-05-03T11:21:33.641Z</time></trkpt><trkpt lat="43.3496183" lon="11.679855"><ele>426.0</ele><time>2026-05-03T11:21:34.64Z</time></trkpt><trkpt lat="43.3495167" lon="11.6798183"><ele>427.0</ele><time>2026-05-03T11:21:35.637Z</time></trkpt><trkpt lat="43.349415" lon="11.6797817"><ele>429.6</ele><time>2026-05-03T11:21:36.657Z</time></trkpt><trkpt lat="43.3493133" lon="11.6797483"><ele>432.20000000000005</ele><time>2026-05-03T11:21:37.642Z</time></trkpt><trkpt lat="43.3492133" lon="11.6797117"><ele>434.8</ele><time>2026-05-03T11:21:38.644Z</time></trkpt><trkpt lat="43.3491167" lon="11.679665"><ele>437.4</ele><time>2026-05-03T11:21:39.649Z</time></trkpt><trkpt lat="43.349045" lon="11.6796283"><ele>440.0</ele><time>2026-05-03T11:21:40.641Z</time></trkpt><trkpt lat="43.3489783" lon="11.6796067"><ele>439.99999999999994</ele><time>2026-05-03T11:21:41.646Z</time></trkpt><trkpt lat="43.3489083" lon="11.6796083"><ele>440.0</ele><time>2026-05-03T11:21:42.654Z</time></trkpt><trkpt lat="43.3488383" lon="11.6796367"><ele>440.0</ele><time>2026-05-03T11:21:43.644Z</time></trkpt><trkpt lat="43.348765" lon="11.6796867"><ele>440.0</ele><time>2026-05-03T11:21:44.648Z</time></trkpt><trkpt lat="43.3486967" lon="11.6797367"><ele>439.99999999999994</ele><time>2026-05-03T11:21:45.65Z</time></trkpt><trkpt lat="43.3486283" lon="11.6797733"><ele>440.0</ele><time>2026-05-03T11:21:46.64Z</time></trkpt><trkpt lat="43.348565" lon="11.67986"><ele>440.0</ele><time>2026-05-03T11:21:48.64Z</time></trkpt><trkpt lat="43.3485933" lon="11.6799633"><ele>440.0</ele><time>2026-05-03T11:21:50.641Z</time></trkpt><trkpt lat="43.348685" lon="11.6800517"><ele>440.0</ele><time>2026-05-03T11:21:52.644Z</time></trkpt><trkpt lat="43.3487633" lon="11.680105"><ele>440.0</ele><time>2026-05-03T11:21:53.643Z</time></trkpt><trkpt lat="43.3488483" lon="11.6801667"><ele>440.0</ele><time>2026-05-03T11:21:54.66Z</time></trkpt><trkpt lat="43.3489217" lon="11.680235"><ele>440.66666666666663</ele><time>2026-05-03T11:21:55.639Z</time></trkpt><trkpt lat="43.3489817" lon="11.6803217"><ele>441.3333333333333</ele><time>2026-05-03T11:21:56.642Z</time></trkpt><trkpt lat="43.34904" lon="11.680405"><ele>442.0</ele><time>2026-05-03T11:21:57.644Z</time></trkpt><trkpt lat="43.3490783" lon="11.68049"><ele>442.66666666666663</ele><time>2026-05-03T11:21:58.638Z</time></trkpt><trkpt lat="43.3491" lon="11.6805883"><ele>443.3333333333333</ele><time>2026-05-03T11:21:59.637Z</time></trkpt><trkpt lat="43.3491033" lon="11.6806967"><ele>444.0</ele><time>2026-05-03T11:22:00.646Z</time></trkpt><trkpt lat="43.3491033" lon="11.6807983"><ele>444.0</ele><time>2026-05-03T11:22:01.642Z</time></trkpt><trkpt lat="43.349085" lon="11.6809167"><ele>444.0</ele><time>2026-05-03T11:22:02.654Z</time></trkpt><trkpt lat="43.3490583" lon="11.6810483"><ele>444.0</ele><time>2026-05-03T11:22:03.641Z</time></trkpt><trkpt lat="43.3490233" lon="11.6811867"><ele>444.0</ele><time>2026-05-03T11:22:04.645Z</time></trkpt><trkpt lat="43.3489967" lon="11.6813317"><ele>444.0</ele><time>2026-05-03T11:22:05.645Z</time></trkpt><trkpt lat="43.3489733" lon="11.681485"><ele>444.2</ele><time>2026-05-03T11:22:06.645Z</time></trkpt><trkpt lat="43.348955" lon="11.68164"><ele>444.4</ele><time>2026-05-03T11:22:07.654Z</time></trkpt><trkpt lat="43.3489367" lon="11.6817717"><ele>444.6</ele><time>2026-05-03T11:22:08.635Z</time></trkpt><trkpt lat="43.348915" lon="11.6818917"><ele>444.8</ele><time>2026-05-03T11:22:09.643Z</time></trkpt><trkpt lat="43.3488867" lon="11.6819917"><ele>445.0</ele><time>2026-05-03T11:22:10.642Z</time></trkpt><trkpt lat="43.3488533" lon="11.6820883"><ele>445.6666666666667</ele><time>2026-05-03T11:22:11.638Z</time></trkpt><trkpt lat="43.34881" lon="11.6821733"><ele>446.33333333333337</ele><time>2026-05-03T11:22:12.641Z</time></trkpt><trkpt lat="43.34875" lon="11.6822467"><ele>447.0</ele><time>2026-05-03T11:22:13.641Z</time></trkpt><trkpt lat="43.348685" lon="11.6822933"><ele>447.66666666666663</ele><time>2026-05-03T11:22:14.645Z</time></trkpt><trkpt lat="43.3486117" lon="11.6823167"><ele>448.3333333333333</ele><time>2026-05-03T11:22:15.639Z</time></trkpt><trkpt lat="43.3485333" lon="11.68233"><ele>449.0</ele><time>2026-05-03T11:22:16.641Z</time></trkpt><trkpt lat="43.3484417" lon="11.6823333"><ele>449.0</ele><time>2026-05-03T11:22:17.641Z</time></trkpt><trkpt lat="43.34834" lon="11.68233"><ele>449.0</ele><time>2026-05-03T11:22:18.644Z</time></trkpt><trkpt lat="43.34823" lon="11.6823083"><ele>449.0</ele><time>2026-05-03T11:22:19.648Z</time></trkpt><trkpt lat="43.3481167" lon="11.6822833"><ele>449.0</ele><time>2026-05-03T11:22:20.639Z</time></trkpt><trkpt lat="43.347995" lon="11.68225"><ele>448.6</ele><time>2026-05-03T11:22:21.652Z</time></trkpt><trkpt lat="43.3478667" lon="11.6822267"><ele>448.2</ele><time>2026-05-03T11:22:22.636Z</time></trkpt><trkpt lat="43.3477583" lon="11.6822117"><ele>447.80000000000007</ele><time>2026-05-03T11:22:23.637Z</time></trkpt><trkpt lat="43.3476667" lon="11.6822033"><ele>447.40000000000003</ele><time>2026-05-03T11:22:24.642Z</time></trkpt><trkpt lat="43.3475833" lon="11.6821933"><ele>447.0</ele><time>2026-05-03T11:22:25.643Z</time></trkpt><trkpt lat="43.347515" lon="11.6821667"><ele>447.0</ele><time>2026-05-03T11:22:26.654Z</time></trkpt><trkpt lat="43.3474617" lon="11.682115"><ele>447.00000000000006</ele><time>2026-05-03T11:22:27.646Z</time></trkpt><trkpt lat="43.3473883" lon="11.68203"><ele>447.00000000000006</ele><time>2026-05-03T11:22:28.644Z</time></trkpt><trkpt lat="43.3473117" lon="11.6819333"><ele>447.0</ele><time>2026-05-03T11:22:29.643Z</time></trkpt><trkpt lat="43.3472333" lon="11.681825"><ele>447.0</ele><time>2026-05-03T11:22:30.638Z</time></trkpt><trkpt lat="43.3471517" lon="11.6816967"><ele>448.20000000000005</ele><time>2026-05-03T11:22:31.643Z</time></trkpt><trkpt lat="43.3470717" lon="11.681575"><ele>449.40000000000003</ele><time>2026-05-03T11:22:32.638Z</time></trkpt><trkpt lat="43.3469883" lon="11.6814733"><ele>450.59999999999997</ele><time>2026-05-03T11:22:33.635Z</time></trkpt><trkpt lat="43.34692" lon="11.6813967"><ele>451.79999999999995</ele><time>2026-05-03T11:22:34.639Z</time></trkpt><trkpt lat="43.3468683" lon="11.6813217"><ele>453.0</ele><time>2026-05-03T11:22:35.644Z</time></trkpt><trkpt lat="43.3468333" lon="11.681245"><ele>453.0</ele><time>2026-05-03T11:22:36.64Z</time></trkpt><trkpt lat="43.346825" lon="11.681155"><ele>452.99999999999994</ele><time>2026-05-03T11:22:37.646Z</time></trkpt><trkpt lat="43.3468583" lon="11.6809933"><ele>452.99999999999994</ele><time>2026-05-03T11:22:39.649Z</time></trkpt><trkpt lat="43.3468767" lon="11.6809033"><ele>453.0</ele><time>2026-05-03T11:22:40.649Z</time></trkpt><trkpt lat="43.34689" lon="11.6807233"><ele>453.0</ele><time>2026-05-03T11:22:42.649Z</time></trkpt><trkpt lat="43.3468583" lon="11.680625"><ele>455.4</ele><time>2026-05-03T11:22:43.662Z</time></trkpt><trkpt lat="43.3468" lon="11.6805367"><ele>457.79999999999995</ele><time>2026-05-03T11:22:44.636Z</time></trkpt><trkpt lat="43.3467283" lon="11.6804317"><ele>460.2</ele><time>2026-05-03T11:22:45.648Z</time></trkpt><trkpt lat="43.346655" lon="11.6803117"><ele>462.6</ele><time>2026-05-03T11:22:46.643Z</time></trkpt><trkpt lat="43.3465733" lon="11.6801833"><ele>465.0</ele><time>2026-05-03T11:22:47.634Z</time></trkpt><trkpt lat="43.3464967" lon="11.6800483"><ele>467.75</ele><time>2026-05-03T11:22:48.642Z</time></trkpt><trkpt lat="43.3464083" lon="11.6799083"><ele>470.5</ele><time>2026-05-03T11:22:49.647Z</time></trkpt><trkpt lat="43.3463267" lon="11.67979"><ele>473.25</ele><time>2026-05-03T11:22:50.651Z</time></trkpt><trkpt lat="43.3462583" lon="11.6796767"><ele>476.0</ele><time>2026-05-03T11:22:51.647Z</time></trkpt><trkpt lat="43.3461967" lon="11.679575"><ele>474.8</ele><time>2026-05-03T11:22:52.645Z</time></trkpt><trkpt lat="43.3461517" lon="11.679455"><ele>473.6</ele><time>2026-05-03T11:22:53.645Z</time></trkpt><trkpt lat="43.3461133" lon="11.6793217"><ele>472.4</ele><time>2026-05-03T11:22:54.644Z</time></trkpt><trkpt lat="43.3460833" lon="11.6791883"><ele>471.2</ele><time>2026-05-03T11:22:55.67Z</time></trkpt><trkpt lat="43.346055" lon="11.6790517"><ele>470.0</ele><time>2026-05-03T11:22:56.641Z</time></trkpt><trkpt lat="43.3460317" lon="11.6789367"><ele>469.99999999999994</ele><time>2026-05-03T11:22:57.641Z</time></trkpt><trkpt lat="43.34602" lon="11.67884"><ele>470.0</ele><time>2026-05-03T11:22:58.635Z</time></trkpt><trkpt lat="43.3460233" lon="11.678745"><ele>470.0</ele><time>2026-05-03T11:22:59.642Z</time></trkpt><trkpt lat="43.3460417" lon="11.6786383"><ele>470.0</ele><time>2026-05-03T11:23:00.637Z</time></trkpt><trkpt lat="43.34607" lon="11.6785183"><ele>469.99999999999994</ele><time>2026-05-03T11:23:01.642Z</time></trkpt><trkpt lat="43.34611" lon="11.6783933"><ele>470.0</ele><time>2026-05-03T11:23:02.664Z</time></trkpt><trkpt lat="43.3461517" lon="11.67827"><ele>471.0</ele><time>2026-05-03T11:23:03.649Z</time></trkpt><trkpt lat="43.346195" lon="11.67815"><ele>472.0</ele><time>2026-05-03T11:23:04.644Z</time></trkpt><trkpt lat="43.3462483" lon="11.6780283"><ele>473.0</ele><time>2026-05-03T11:23:05.638Z</time></trkpt><trkpt lat="43.3463" lon="11.6779"><ele>474.0</ele><time>2026-05-03T11:23:06.641Z</time></trkpt><trkpt lat="43.3463433" lon="11.6777717"><ele>475.0</ele><time>2026-05-03T11:23:07.64Z</time></trkpt><trkpt lat="43.3463783" lon="11.6776233"><ele>477.4</ele><time>2026-05-03T11:23:08.632Z</time></trkpt><trkpt lat="43.3464" lon="11.67747"><ele>479.8</ele><time>2026-05-03T11:23:09.642Z</time></trkpt><trkpt lat="43.346415" lon="11.6773217"><ele>482.20000000000005</ele><time>2026-05-03T11:23:10.643Z</time></trkpt><trkpt lat="43.3464167" lon="11.67718"><ele>484.6</ele><time>2026-05-03T11:23:11.64Z</time></trkpt><trkpt lat="43.3464033" lon="11.6770333"><ele>487.0</ele><time>2026-05-03T11:23:12.641Z</time></trkpt><trkpt lat="43.3463883" lon="11.67689"><ele>485.20000000000005</ele><time>2026-05-03T11:23:13.636Z</time></trkpt><trkpt lat="43.346375" lon="11.6767567"><ele>483.40000000000003</ele><time>2026-05-03T11:23:14.634Z</time></trkpt><trkpt lat="43.3463467" lon="11.6766167"><ele>481.59999999999997</ele><time>2026-05-03T11:23:15.655Z</time></trkpt><trkpt lat="43.3463267" lon="11.6764867"><ele>479.79999999999995</ele><time>2026-05-03T11:23:16.64Z</time></trkpt><trkpt lat="43.3462883" lon="11.6763883"><ele>478.0</ele><time>2026-05-03T11:23:17.635Z</time></trkpt><trkpt lat="43.3462483" lon="11.676305"><ele>478.0</ele><time>2026-05-03T11:23:18.651Z</time></trkpt><trkpt lat="43.346185" lon="11.6762133"><ele>477.99999999999994</ele><time>2026-05-03T11:23:19.64Z</time></trkpt><trkpt lat="43.3461033" lon="11.6761217"><ele>477.99999999999994</ele><time>2026-05-03T11:23:20.633Z</time></trkpt><trkpt lat="43.346015" lon="11.67602"><ele>478.0</ele><time>2026-05-03T11:23:21.64Z</time></trkpt><trkpt lat="43.3459183" lon="11.6759167"><ele>478.0</ele><time>2026-05-03T11:23:22.642Z</time></trkpt><trkpt lat="43.3458433" lon="11.6758"><ele>480.00000000000006</ele><time>2026-05-03T11:23:23.653Z</time></trkpt><trkpt lat="43.3457783" lon="11.6756967"><ele>482.0</ele><time>2026-05-03T11:23:24.647Z</time></trkpt><trkpt lat="43.34573" lon="11.6756183"><ele>484.0</ele><time>2026-05-03T11:23:25.655Z</time></trkpt><trkpt lat="43.3456433" lon="11.6755417"><ele>486.0</ele><time>2026-05-03T11:23:27.656Z</time></trkpt><trkpt lat="43.3455483" lon="11.6755517"><ele>488.00000000000006</ele><time>2026-05-03T11:23:29.658Z</time></trkpt><trkpt lat="43.3454867" lon="11.6756017"><ele>490.0</ele><time>2026-05-03T11:23:30.652Z</time></trkpt><trkpt lat="43.34542" lon="11.67567"><ele>491.00000000000006</ele><time>2026-05-03T11:23:31.645Z</time></trkpt><trkpt lat="43.3453567" lon="11.67574"><ele>492.0</ele><time>2026-05-03T11:23:32.643Z</time></trkpt><trkpt lat="43.3452933" lon="11.675785"><ele>493.0</ele><time>2026-05-03T11:23:33.649Z</time></trkpt><trkpt lat="43.3451767" lon="11.6757967"><ele>494.0</ele><time>2026-05-03T11:23:35.645Z</time></trkpt><trkpt lat="43.345115" lon="11.6757783"><ele>495.00000000000006</ele><time>2026-05-03T11:23:36.645Z</time></trkpt><trkpt lat="43.345045" lon="11.6757467"><ele>496.0</ele><time>2026-05-03T11:23:37.639Z</time></trkpt><trkpt lat="43.3449717" lon="11.675725"><ele>496.00000000000006</ele><time>2026-05-03T11:23:38.653Z</time></trkpt><trkpt lat="43.3449083" lon="11.6756917"><ele>496.0</ele><time>2026-05-03T11:23:39.652Z</time></trkpt><trkpt lat="43.3448283" lon="11.6755633"><ele>496.0</ele><time>2026-05-03T11:23:41.645Z</time></trkpt><trkpt lat="43.3447933" lon="11.6754733"><ele>496.0</ele><time>2026-05-03T11:23:42.642Z</time></trkpt><trkpt lat="43.344765" lon="11.6753767"><ele>496.00000000000006</ele><time>2026-05-03T11:23:43.659Z</time></trkpt><trkpt lat="43.3447383" lon="11.6752733"><ele>496.0</ele><time>2026-05-03T11:23:44.651Z</time></trkpt><trkpt lat="43.344715" lon="11.6751583"><ele>495.4</ele><time>2026-05-03T11:23:45.645Z</time></trkpt><trkpt lat="43.3446933" lon="11.6750317"><ele>494.8</ele><time>2026-05-03T11:23:46.645Z</time></trkpt><trkpt lat="43.3446633" lon="11.67489"><ele>494.19999999999993</ele><time>2026-05-03T11:23:47.642Z</time></trkpt><trkpt lat="43.3446267" lon="11.6747583"><ele>493.59999999999997</ele><time>2026-05-03T11:23:48.657Z</time></trkpt><trkpt lat="43.3445833" lon="11.6746433"><ele>493.0</ele><time>2026-05-03T11:23:49.639Z</time></trkpt><trkpt lat="43.3445283" lon="11.6745517"><ele>493.0</ele><time>2026-05-03T11:23:50.637Z</time></trkpt><trkpt lat="43.34445" lon="11.67446"><ele>492.99999999999994</ele><time>2026-05-03T11:23:51.647Z</time></trkpt><trkpt lat="43.344365" lon="11.6743883"><ele>492.99999999999994</ele><time>2026-05-03T11:23:52.637Z</time></trkpt><trkpt lat="43.34428" lon="11.6743367"><ele>493.0</ele><time>2026-05-03T11:23:53.651Z</time></trkpt><trkpt lat="43.344195" lon="11.674285"><ele>493.0</ele><time>2026-05-03T11:23:54.644Z</time></trkpt><trkpt lat="43.3441267" lon="11.6742167"><ele>496.4</ele><time>2026-05-03T11:23:55.648Z</time></trkpt><trkpt lat="43.344075" lon="11.67413"><ele>499.79999999999995</ele><time>2026-05-03T11:23:56.654Z</time></trkpt><trkpt lat="43.34404" lon="11.674035"><ele>503.2</ele><time>2026-05-03T11:23:57.633Z</time></trkpt><trkpt lat="43.344005" lon="11.67393"><ele>506.6</ele><time>2026-05-03T11:23:58.639Z</time></trkpt><trkpt lat="43.3439633" lon="11.6738083"><ele>510.0</ele><time>2026-05-03T11:23:59.643Z</time></trkpt><trkpt lat="43.343915" lon="11.6736717"><ele>508.4</ele><time>2026-05-03T11:24:00.647Z</time></trkpt><trkpt lat="43.343865" lon="11.6735333"><ele>506.8</ele><time>2026-05-03T11:24:01.638Z</time></trkpt><trkpt lat="43.3438183" lon="11.6734"><ele>505.20000000000005</ele><time>2026-05-03T11:24:02.648Z</time></trkpt><trkpt lat="43.3437633" lon="11.6732717"><ele>503.6</ele><time>2026-05-03T11:24:03.641Z</time></trkpt><trkpt lat="43.3437133" lon="11.6731333"><ele>502.0</ele><time>2026-05-03T11:24:04.648Z</time></trkpt><trkpt lat="43.3436683" lon="11.6729867"><ele>502.0</ele><time>2026-05-03T11:24:05.645Z</time></trkpt><trkpt lat="43.3436133" lon="11.6728483"><ele>502.00000000000006</ele><time>2026-05-03T11:24:06.645Z</time></trkpt><trkpt lat="43.34357" lon="11.6727083"><ele>502.00000000000006</ele><time>2026-05-03T11:24:07.641Z</time></trkpt><trkpt lat="43.3435333" lon="11.6725867"><ele>502.0</ele><time>2026-05-03T11:24:08.649Z</time></trkpt><trkpt lat="43.3434783" lon="11.67243"><ele>502.0</ele><time>2026-05-03T11:24:09.645Z</time></trkpt><trkpt lat="43.3434317" lon="11.6722833"><ele>504.5</ele><time>2026-05-03T11:24:10.638Z</time></trkpt><trkpt lat="43.34338" lon="11.6721267"><ele>507.0</ele><time>2026-05-03T11:24:11.641Z</time></trkpt><trkpt lat="43.3433367" lon="11.67196"><ele>509.5</ele><time>2026-05-03T11:24:12.651Z</time></trkpt><trkpt lat="43.3432817" lon="11.67179"><ele>512.0</ele><time>2026-05-03T11:24:13.655Z</time></trkpt><trkpt lat="43.343225" lon="11.6716117"><ele>513.75</ele><time>2026-05-03T11:24:14.652Z</time></trkpt><trkpt lat="43.34317" lon="11.6714367"><ele>515.5</ele><time>2026-05-03T11:24:15.65Z</time></trkpt><trkpt lat="43.3431167" lon="11.67128"><ele>517.25</ele><time>2026-05-03T11:24:16.649Z</time></trkpt><trkpt lat="43.3430667" lon="11.6711233"><ele>519.0</ele><time>2026-05-03T11:24:17.648Z</time></trkpt><trkpt lat="43.3430183" lon="11.670985"><ele>519.5</ele><time>2026-05-03T11:24:18.643Z</time></trkpt><trkpt lat="43.3429683" lon="11.6708517"><ele>520.0</ele><time>2026-05-03T11:24:19.641Z</time></trkpt><trkpt lat="43.342925" lon="11.67074"><ele>520.5</ele><time>2026-05-03T11:24:20.653Z</time></trkpt><trkpt lat="43.3428783" lon="11.6706417"><ele>521.0</ele><time>2026-05-03T11:24:21.65Z</time></trkpt><trkpt lat="43.34283" lon="11.6705583"><ele>521.5</ele><time>2026-05-03T11:24:22.639Z</time></trkpt><trkpt lat="43.3427733" lon="11.670495"><ele>522.0</ele><time>2026-05-03T11:24:23.649Z</time></trkpt><trkpt lat="43.3427083" lon="11.6704483"><ele>522.0</ele><time>2026-05-03T11:24:24.646Z</time></trkpt><trkpt lat="43.34264" lon="11.6704333"><ele>522.0</ele><time>2026-05-03T11:24:25.655Z</time></trkpt><trkpt lat="43.3425733" lon="11.6704433"><ele>522.0</ele><time>2026-05-03T11:24:26.638Z</time></trkpt><trkpt lat="43.34248" lon="11.6705683"><ele>522.0</ele><time>2026-05-03T11:24:28.64Z</time></trkpt><trkpt lat="43.342435" lon="11.6706333"><ele>522.0</ele><time>2026-05-03T11:24:29.641Z</time></trkpt><trkpt lat="43.3423817" lon="11.67072"><ele>522.0</ele><time>2026-05-03T11:24:30.659Z</time></trkpt><trkpt lat="43.3423283" lon="11.67082"><ele>522.0</ele><time>2026-05-03T11:24:31.641Z</time></trkpt><trkpt lat="43.34228" lon="11.6709083"><ele>522.0</ele><time>2026-05-03T11:24:32.664Z</time></trkpt><trkpt lat="43.3422283" lon="11.6709817"><ele>522.0</ele><time>2026-05-03T11:24:33.642Z</time></trkpt><trkpt lat="43.3421583" lon="11.6710383"><ele>522.0</ele><time>2026-05-03T11:24:34.646Z</time></trkpt><trkpt lat="43.3420667" lon="11.6710833"><ele>522.0</ele><time>2026-05-03T11:24:35.646Z</time></trkpt><trkpt lat="43.3419633" lon="11.6711283"><ele>522.0</ele><time>2026-05-03T11:24:36.641Z</time></trkpt><trkpt lat="43.3418567" lon="11.6711667"><ele>521.6</ele><time>2026-05-03T11:24:37.654Z</time></trkpt><trkpt lat="43.3417533" lon="11.6711983"><ele>521.2</ele><time>2026-05-03T11:24:38.652Z</time></trkpt><trkpt lat="43.3416483" lon="11.6712317"><ele>520.8</ele><time>2026-05-03T11:24:39.636Z</time></trkpt><trkpt lat="43.3415433" lon="11.671255"><ele>520.4</ele><time>2026-05-03T11:24:40.661Z</time></trkpt><trkpt lat="43.3414467" lon="11.671265"><ele>520.0</ele><time>2026-05-03T11:24:41.643Z</time></trkpt><trkpt lat="43.3413567" lon="11.6712633"><ele>520.8333333333334</ele><time>2026-05-03T11:24:42.641Z</time></trkpt><trkpt lat="43.3412717" lon="11.671255"><ele>521.6666666666667</ele><time>2026-05-03T11:24:43.642Z</time></trkpt><trkpt lat="43.3411967" lon="11.6712383"><ele>522.5</ele><time>2026-05-03T11:24:44.644Z</time></trkpt><trkpt lat="43.3411317" lon="11.6712133"><ele>523.3333333333334</ele><time>2026-05-03T11:24:45.646Z</time></trkpt><trkpt lat="43.341045" lon="11.6711467"><ele>524.1666666666666</ele><time>2026-05-03T11:24:47.641Z</time></trkpt><trkpt lat="43.3409967" lon="11.6710817"><ele>525.0</ele><time>2026-05-03T11:24:49.649Z</time></trkpt><trkpt lat="43.3409667" lon="11.67096"><ele>525.4</ele><time>2026-05-03T11:24:51.641Z</time></trkpt><trkpt lat="43.3410033" lon="11.6707933"><ele>525.8</ele><time>2026-05-03T11:24:53.649Z</time></trkpt><trkpt lat="43.34104" lon="11.67069"><ele>526.2</ele><time>2026-05-03T11:24:54.647Z</time></trkpt><trkpt lat="43.3410817" lon="11.6705833"><ele>526.6</ele><time>2026-05-03T11:24:55.651Z</time></trkpt><trkpt lat="43.3411217" lon="11.6704667"><ele>527.0</ele><time>2026-05-03T11:24:56.666Z</time></trkpt><trkpt lat="43.3411367" lon="11.6703483"><ele>528.8000000000001</ele><time>2026-05-03T11:24:57.644Z</time></trkpt><trkpt lat="43.3411417" lon="11.67022"><ele>530.6</ele><time>2026-05-03T11:24:58.652Z</time></trkpt><trkpt lat="43.341115" lon="11.6700933"><ele>532.4000000000001</ele><time>2026-05-03T11:24:59.642Z</time></trkpt><trkpt lat="43.34107" lon="11.6699583"><ele>534.2</ele><time>2026-05-03T11:25:00.657Z</time></trkpt><trkpt lat="43.3410267" lon="11.6698183"><ele>536.0</ele><time>2026-05-03T11:25:01.641Z</time></trkpt><trkpt lat="43.34099" lon="11.669675"><ele>536.0</ele><time>2026-05-03T11:25:02.641Z</time></trkpt><trkpt lat="43.340955" lon="11.6695517"><ele>536.0</ele><time>2026-05-03T11:25:03.647Z</time></trkpt><trkpt lat="43.340935" lon="11.669425"><ele>536.0</ele><time>2026-05-03T11:25:04.648Z</time></trkpt><trkpt lat="43.3409183" lon="11.6693033"><ele>536.0</ele><time>2026-05-03T11:25:05.659Z</time></trkpt><trkpt lat="43.3408967" lon="11.6691983"><ele>536.0</ele><time>2026-05-03T11:25:06.643Z</time></trkpt><trkpt lat="43.3408733" lon="11.669115"><ele>536.0</ele><time>2026-05-03T11:25:07.647Z</time></trkpt><trkpt lat="43.340825" lon="11.669045"><ele>539.2</ele><time>2026-05-03T11:25:08.639Z</time></trkpt><trkpt lat="43.3406983" lon="11.6690617"><ele>542.4000000000001</ele><time>2026-05-03T11:25:10.638Z</time></trkpt><trkpt lat="43.3406183" lon="11.66913"><ele>545.6</ele><time>2026-05-03T11:25:11.635Z</time></trkpt><trkpt lat="43.34053" lon="11.6692217"><ele>548.8000000000001</ele><time>2026-05-03T11:25:12.649Z</time></trkpt><trkpt lat="43.3404517" lon="11.6693283"><ele>552.0</ele><time>2026-05-03T11:25:13.643Z</time></trkpt><trkpt lat="43.34039" lon="11.669425"><ele>552.1666666666666</ele><time>2026-05-03T11:25:14.645Z</time></trkpt><trkpt lat="43.3403283" lon="11.66951"><ele>552.3333333333334</ele><time>2026-05-03T11:25:15.637Z</time></trkpt><trkpt lat="43.3402617" lon="11.6695633"><ele>552.5</ele><time>2026-05-03T11:25:16.642Z</time></trkpt><trkpt lat="43.3401933" lon="11.6695733"><ele>552.6666666666667</ele><time>2026-05-03T11:25:17.638Z</time></trkpt><trkpt lat="43.3401167" lon="11.6695417"><ele>552.8333333333334</ele><time>2026-05-03T11:25:18.641Z</time></trkpt><trkpt lat="43.3400417" lon="11.6694733"><ele>553.0</ele><time>2026-05-03T11:25:19.636Z</time></trkpt><trkpt lat="43.33996" lon="11.66938"><ele>553.0</ele><time>2026-05-03T11:25:20.639Z</time></trkpt><trkpt lat="43.33988" lon="11.6692633"><ele>553.0</ele><time>2026-05-03T11:25:21.642Z</time></trkpt><trkpt lat="43.3397983" lon="11.6691667"><ele>553.0</ele><time>2026-05-03T11:25:22.639Z</time></trkpt><trkpt lat="43.3397317" lon="11.669055"><ele>553.0</ele><time>2026-05-03T11:25:23.664Z</time></trkpt><trkpt lat="43.33967" lon="11.668925"><ele>553.0</ele><time>2026-05-03T11:25:24.64Z</time></trkpt><trkpt lat="43.3396217" lon="11.668775"><ele>552.25</ele><time>2026-05-03T11:25:25.645Z</time></trkpt><trkpt lat="43.33957" lon="11.6686117"><ele>551.5</ele><time>2026-05-03T11:25:26.645Z</time></trkpt><trkpt lat="43.339525" lon="11.66845"><ele>550.75</ele><time>2026-05-03T11:25:27.645Z</time></trkpt><trkpt lat="43.3394867" lon="11.66831"><ele>550.0</ele><time>2026-05-03T11:25:28.644Z</time></trkpt><trkpt lat="43.33944" lon="11.6681717"><ele>551.5</ele><time>2026-05-03T11:25:29.639Z</time></trkpt><trkpt lat="43.3393967" lon="11.6680667"><ele>553.0</ele><time>2026-05-03T11:25:30.648Z</time></trkpt><trkpt lat="43.339345" lon="11.6679767"><ele>554.5</ele><time>2026-05-03T11:25:31.645Z</time></trkpt><trkpt lat="43.3392817" lon="11.6678917"><ele>556.0</ele><time>2026-05-03T11:25:32.649Z</time></trkpt><trkpt lat="43.3392067" lon="11.667855"><ele>557.5</ele><time>2026-05-03T11:25:33.637Z</time></trkpt><trkpt lat="43.33912" lon="11.667875"><ele>559.0</ele><time>2026-05-03T11:25:34.644Z</time></trkpt><trkpt lat="43.3390467" lon="11.667945"><ele>559.0</ele><time>2026-05-03T11:25:35.638Z</time></trkpt><trkpt lat="43.3389967" lon="11.6680467"><ele>559.0</ele><time>2026-05-03T11:25:36.637Z</time></trkpt><trkpt lat="43.33896" lon="11.6681733"><ele>559.0</ele><time>2026-05-03T11:25:37.65Z</time></trkpt><trkpt lat="43.3389167" lon="11.6682917"><ele>559.0</ele><time>2026-05-03T11:25:38.644Z</time></trkpt><trkpt lat="43.3388683" lon="11.6683883"><ele>559.0</ele><time>2026-05-03T11:25:39.659Z</time></trkpt><trkpt lat="43.3388067" lon="11.6684467"><ele>559.0</ele><time>2026-05-03T11:25:40.643Z</time></trkpt><trkpt lat="43.3387333" lon="11.6684667"><ele>558.6</ele><time>2026-05-03T11:25:41.641Z</time></trkpt><trkpt lat="43.33866" lon="11.6684333"><ele>558.2</ele><time>2026-05-03T11:25:42.644Z</time></trkpt><trkpt lat="43.338585" lon="11.6683583"><ele>557.8000000000001</ele><time>2026-05-03T11:25:43.639Z</time></trkpt><trkpt lat="43.3385217" lon="11.668255"><ele>557.4</ele><time>2026-05-03T11:25:44.647Z</time></trkpt><trkpt lat="43.3384683" lon="11.66812"><ele>557.0</ele><time>2026-05-03T11:25:45.644Z</time></trkpt><trkpt lat="43.33843" lon="11.6679633"><ele>557.0</ele><time>2026-05-03T11:25:46.643Z</time></trkpt><trkpt lat="43.33839" lon="11.6678083"><ele>557.0</ele><time>2026-05-03T11:25:47.672Z</time></trkpt><trkpt lat="43.3383483" lon="11.66765"><ele>557.0</ele><time>2026-05-03T11:25:48.637Z</time></trkpt><trkpt lat="43.3382933" lon="11.6674983"><ele>557.0</ele><time>2026-05-03T11:25:49.636Z</time></trkpt><trkpt lat="43.3382267" lon="11.66737"><ele>556.75</ele><time>2026-05-03T11:25:50.636Z</time></trkpt><trkpt lat="43.338145" lon="11.6672617"><ele>556.5</ele><time>2026-05-03T11:25:51.649Z</time></trkpt><trkpt lat="43.3380417" lon="11.6671867"><ele>556.25</ele><time>2026-05-03T11:25:52.642Z</time></trkpt><trkpt lat="43.3379267" lon="11.6671383"><ele>556.0</ele><time>2026-05-03T11:25:53.647Z</time></trkpt><trkpt lat="43.3378117" lon="11.6671017"><ele>556.0</ele><time>2026-05-03T11:25:54.639Z</time></trkpt><trkpt lat="43.3377117" lon="11.6670983"><ele>556.0</ele><time>2026-05-03T11:25:55.636Z</time></trkpt><trkpt lat="43.3376133" lon="11.6671367"><ele>556.0</ele><time>2026-05-03T11:25:56.643Z</time></trkpt><trkpt lat="43.3375167" lon="11.6671767"><ele>556.0</ele><time>2026-05-03T11:25:57.644Z</time></trkpt><trkpt lat="43.3374233" lon="11.6671983"><ele>556.0</ele><time>2026-05-03T11:25:58.662Z</time></trkpt><trkpt lat="43.3373367" lon="11.6672033"><ele>556.0</ele><time>2026-05-03T11:25:59.67Z</time></trkpt><trkpt lat="43.33725" lon="11.66718"><ele>556.0</ele><time>2026-05-03T11:26:00.645Z</time></trkpt><trkpt lat="43.337185" lon="11.66713"><ele>556.0</ele><time>2026-05-03T11:26:01.66Z</time></trkpt><trkpt lat="43.33712" lon="11.6670367"><ele>556.0</ele><time>2026-05-03T11:26:03.654Z</time></trkpt><trkpt lat="43.3371233" lon="11.66695"><ele>556.0</ele><time>2026-05-03T11:26:05.638Z</time></trkpt><trkpt lat="43.33718" lon="11.6668133"><ele>556.0</ele><time>2026-05-03T11:26:07.64Z</time></trkpt><trkpt lat="43.3372333" lon="11.6667267"><ele>557.0</ele><time>2026-05-03T11:26:08.654Z</time></trkpt><trkpt lat="43.3372917" lon="11.66661"><ele>558.0</ele><time>2026-05-03T11:26:09.647Z</time></trkpt><trkpt lat="43.3373517" lon="11.6664817"><ele>559.0</ele><time>2026-05-03T11:26:10.647Z</time></trkpt><trkpt lat="43.3374067" lon="11.6663517"><ele>560.0</ele><time>2026-05-03T11:26:11.634Z</time></trkpt><trkpt lat="43.3374567" lon="11.6662133"><ele>561.0</ele><time>2026-05-03T11:26:12.646Z</time></trkpt><trkpt lat="43.337495" lon="11.66607"><ele>561.5</ele><time>2026-05-03T11:26:13.648Z</time></trkpt><trkpt lat="43.3375083" lon="11.665905"><ele>562.0</ele><time>2026-05-03T11:26:14.645Z</time></trkpt><trkpt lat="43.3374983" lon="11.6657483"><ele>562.5</ele><time>2026-05-03T11:26:15.649Z</time></trkpt><trkpt lat="43.33747" lon="11.6655833"><ele>563.0</ele><time>2026-05-03T11:26:16.645Z</time></trkpt><trkpt lat="43.33744" lon="11.6654433"><ele>563.0</ele><time>2026-05-03T11:26:17.659Z</time></trkpt><trkpt lat="43.3374117" lon="11.6653"><ele>563.0</ele><time>2026-05-03T11:26:18.641Z</time></trkpt><trkpt lat="43.33741" lon="11.6651667"><ele>563.0</ele><time>2026-05-03T11:26:19.655Z</time></trkpt><trkpt lat="43.3374283" lon="11.66503"><ele>563.0</ele><time>2026-05-03T11:26:20.643Z</time></trkpt><trkpt lat="43.3374733" lon="11.6649017"><ele>563.0</ele><time>2026-05-03T11:26:21.659Z</time></trkpt><trkpt lat="43.3375383" lon="11.664785"><ele>562.8</ele><time>2026-05-03T11:26:22.644Z</time></trkpt><trkpt lat="43.3376217" lon="11.6647083"><ele>562.5999999999999</ele><time>2026-05-03T11:26:23.643Z</time></trkpt><trkpt lat="43.3377267" lon="11.6646783"><ele>562.4000000000001</ele><time>2026-05-03T11:26:24.64Z</time></trkpt><trkpt lat="43.3378433" lon="11.6646817"><ele>562.2</ele><time>2026-05-03T11:26:25.647Z</time></trkpt><trkpt lat="43.3379667" lon="11.664675"><ele>562.0</ele><time>2026-05-03T11:26:26.643Z</time></trkpt><trkpt lat="43.3380917" lon="11.6646683"><ele>564.0</ele><time>2026-05-03T11:26:27.648Z</time></trkpt><trkpt lat="43.3382083" lon="11.6646717"><ele>566.0</ele><time>2026-05-03T11:26:28.644Z</time></trkpt><trkpt lat="43.338305" lon="11.6647217"><ele>568.0</ele><time>2026-05-03T11:26:29.643Z</time></trkpt><trkpt lat="43.3383833" lon="11.664815"><ele>570.0</ele><time>2026-05-03T11:26:30.637Z</time></trkpt><trkpt lat="43.3384533" lon="11.664935"><ele>572.0</ele><time>2026-05-03T11:26:31.646Z</time></trkpt><trkpt lat="43.338525" lon="11.66508"><ele>572.0</ele><time>2026-05-03T11:26:32.64Z</time></trkpt><trkpt lat="43.3385933" lon="11.6652283"><ele>572.0</ele><time>2026-05-03T11:26:33.639Z</time></trkpt><trkpt lat="43.338675" lon="11.6653783"><ele>572.0</ele><time>2026-05-03T11:26:34.648Z</time></trkpt><trkpt lat="43.338755" lon="11.6655283"><ele>572.0</ele><time>2026-05-03T11:26:35.642Z</time></trkpt><trkpt lat="43.3388317" lon="11.6656783"><ele>572.5</ele><time>2026-05-03T11:26:36.641Z</time></trkpt><trkpt lat="43.3389133" lon="11.6658267"><ele>573.0</ele><time>2026-05-03T11:26:37.639Z</time></trkpt><trkpt lat="43.3390033" lon="11.665945"><ele>573.5</ele><time>2026-05-03T11:26:38.641Z</time></trkpt><trkpt lat="43.33911" lon="11.666035"><ele>574.0</ele><time>2026-05-03T11:26:39.647Z</time></trkpt><trkpt lat="43.3392233" lon="11.6660833"><ele>574.0</ele><time>2026-05-03T11:26:40.637Z</time></trkpt><trkpt lat="43.3393417" lon="11.6660767"><ele>574.0</ele><time>2026-05-03T11:26:41.655Z</time></trkpt><trkpt lat="43.33945" lon="11.6660333"><ele>574.0</ele><time>2026-05-03T11:26:42.643Z</time></trkpt><trkpt lat="43.3395517" lon="11.66595"><ele>574.0</ele><time>2026-05-03T11:26:43.641Z</time></trkpt><trkpt lat="43.3396533" lon="11.6658383"><ele>575.25</ele><time>2026-05-03T11:26:44.643Z</time></trkpt><trkpt lat="43.3397517" lon="11.6657183"><ele>576.5</ele><time>2026-05-03T11:26:45.642Z</time></trkpt><trkpt lat="43.33985" lon="11.6655867"><ele>577.75</ele><time>2026-05-03T11:26:46.641Z</time></trkpt><trkpt lat="43.3399283" lon="11.6654467"><ele>579.0</ele><time>2026-05-03T11:26:47.64Z</time></trkpt><trkpt lat="43.3399983" lon="11.665275"><ele>579.0</ele><time>2026-05-03T11:26:48.644Z</time></trkpt><trkpt lat="43.3400333" lon="11.6651"><ele>579.0</ele><time>2026-05-03T11:26:49.638Z</time></trkpt><trkpt lat="43.3400667" lon="11.6649233"><ele>579.0</ele><time>2026-05-03T11:26:50.639Z</time></trkpt><trkpt lat="43.34009" lon="11.6647533"><ele>579.0</ele><time>2026-05-03T11:26:51.644Z</time></trkpt><trkpt lat="43.3401133" lon="11.6646017"><ele>579.0</ele><time>2026-05-03T11:26:52.64Z</time></trkpt><trkpt lat="43.340135" lon="11.6644767"><ele>579.0</ele><time>2026-05-03T11:26:53.641Z</time></trkpt><trkpt lat="43.34017" lon="11.6643517"><ele>579.0</ele><time>2026-05-03T11:26:54.644Z</time></trkpt><trkpt lat="43.3402183" lon="11.66425"><ele>579.0</ele><time>2026-05-03T11:26:55.639Z</time></trkpt><trkpt lat="43.3402933" lon="11.664155"><ele>579.0</ele><time>2026-05-03T11:26:56.664Z</time></trkpt><trkpt lat="43.340385" lon="11.664095"><ele>578.0</ele><time>2026-05-03T11:26:57.635Z</time></trkpt><trkpt lat="43.3405017" lon="11.664085"><ele>577.0</ele><time>2026-05-03T11:26:58.636Z</time></trkpt><trkpt lat="43.34063" lon="11.6641"><ele>576.0</ele><time>2026-05-03T11:26:59.645Z</time></trkpt><trkpt lat="43.3407633" lon="11.6641233"><ele>575.0</ele><time>2026-05-03T11:27:00.646Z</time></trkpt><trkpt lat="43.3409117" lon="11.6641233"><ele>577.0</ele><time>2026-05-03T11:27:01.65Z</time></trkpt><trkpt lat="43.34107" lon="11.6641317"><ele>579.0</ele><time>2026-05-03T11:27:02.645Z</time></trkpt><trkpt lat="43.3412333" lon="11.6641367"><ele>581.0</ele><time>2026-05-03T11:27:03.67Z</time></trkpt><trkpt lat="43.3413967" lon="11.66413"><ele>581.0</ele><time>2026-05-03T11:27:04.643Z</time></trkpt><trkpt lat="43.3415667" lon="11.6641133"><ele>581.0</ele><time>2026-05-03T11:27:05.645Z</time></trkpt><trkpt lat="43.3417417" lon="11.6640733"><ele>581.0</ele><time>2026-05-03T11:27:06.645Z</time></trkpt><trkpt lat="43.3419083" lon="11.6640133"><ele>581.0</ele><time>2026-05-03T11:27:07.644Z</time></trkpt><trkpt lat="43.34207" lon="11.6639117"><ele>581.0</ele><time>2026-05-03T11:27:08.663Z</time></trkpt><trkpt lat="43.342215" lon="11.663785"><ele>581.0</ele><time>2026-05-03T11:27:09.633Z</time></trkpt><trkpt lat="43.342345" lon="11.66364"><ele>582.25</ele><time>2026-05-03T11:27:10.65Z</time></trkpt><trkpt lat="43.3424617" lon="11.6635067"><ele>583.5</ele><time>2026-05-03T11:27:11.673Z</time></trkpt><trkpt lat="43.34259" lon="11.66339"><ele>584.75</ele><time>2026-05-03T11:27:12.657Z</time></trkpt><trkpt lat="43.3427167" lon="11.6633283"><ele>586.0</ele><time>2026-05-03T11:27:13.647Z</time></trkpt><trkpt lat="43.3428683" lon="11.663305"><ele>586.0</ele><time>2026-05-03T11:27:14.647Z</time></trkpt><trkpt lat="43.3430217" lon="11.66334"><ele>586.0</ele><time>2026-05-03T11:27:15.66Z</time></trkpt><trkpt lat="43.3431633" lon="11.6633917"><ele>586.0</ele><time>2026-05-03T11:27:16.658Z</time></trkpt><trkpt lat="43.3432933" lon="11.6634483"><ele>586.0</ele><time>2026-05-03T11:27:17.647Z</time></trkpt><trkpt lat="43.34341" lon="11.66348"><ele>587.0</ele><time>2026-05-03T11:27:18.639Z</time></trkpt><trkpt lat="43.34353" lon="11.6634783"><ele>588.0</ele><time>2026-05-03T11:27:19.637Z</time></trkpt><trkpt lat="43.3436317" lon="11.663445"><ele>589.0</ele><time>2026-05-03T11:27:20.64Z</time></trkpt><trkpt lat="43.3437183" lon="11.663355"><ele>590.0</ele><time>2026-05-03T11:27:21.645Z</time></trkpt><trkpt lat="43.3438033" lon="11.663225"><ele>590.0</ele><time>2026-05-03T11:27:22.643Z</time></trkpt><trkpt lat="43.34388" lon="11.66306"><ele>590.0</ele><time>2026-05-03T11:27:23.647Z</time></trkpt><trkpt lat="43.343965" lon="11.6628933"><ele>590.0</ele><time>2026-05-03T11:27:24.644Z</time></trkpt><trkpt lat="43.344065" lon="11.6627083"><ele>589.3333333333333</ele><time>2026-05-03T11:27:25.661Z</time></trkpt><trkpt lat="43.3441467" lon="11.6625383"><ele>588.6666666666666</ele><time>2026-05-03T11:27:26.643Z</time></trkpt><trkpt lat="43.3442467" lon="11.6623367"><ele>588.0</ele><time>2026-05-03T11:27:27.641Z</time></trkpt><trkpt lat="43.3443383" lon="11.6621483"><ele>588.0</ele><time>2026-05-03T11:27:28.642Z</time></trkpt><trkpt lat="43.3444317" lon="11.6619517"><ele>588.0</ele><time>2026-05-03T11:27:29.639Z</time></trkpt><trkpt lat="43.3445383" lon="11.6617567"><ele>588.0</ele><time>2026-05-03T11:27:30.646Z</time></trkpt><trkpt lat="43.3446383" lon="11.6615567"><ele>588.0</ele><time>2026-05-03T11:27:31.642Z</time></trkpt><trkpt lat="43.34475" lon="11.6613483"><ele>588.0</ele><time>2026-05-03T11:27:32.656Z</time></trkpt><trkpt lat="43.3448567" lon="11.6611467"><ele>588.0</ele><time>2026-05-03T11:27:33.659Z</time></trkpt><trkpt lat="43.344955" lon="11.6609517"><ele>587.6666666666666</ele><time>2026-05-03T11:27:34.659Z</time></trkpt><trkpt lat="43.3450283" lon="11.660745"><ele>587.3333333333333</ele><time>2026-05-03T11:27:35.656Z</time></trkpt><trkpt lat="43.34507" lon="11.6605433"><ele>587.0</ele><time>2026-05-03T11:27:36.664Z</time></trkpt><trkpt lat="43.3450683" lon="11.6603283"><ele>588.0</ele><time>2026-05-03T11:27:37.661Z</time></trkpt><trkpt lat="43.3450367" lon="11.66011"><ele>589.0</ele><time>2026-05-03T11:27:38.657Z</time></trkpt><trkpt lat="43.3449883" lon="11.6598883"><ele>590.0</ele><time>2026-05-03T11:27:39.665Z</time></trkpt><trkpt lat="43.3449417" lon="11.6596633"><ele>592.0</ele><time>2026-05-03T11:27:40.655Z</time></trkpt><trkpt lat="43.3448783" lon="11.6594183"><ele>594.0</ele><time>2026-05-03T11:27:41.652Z</time></trkpt><trkpt lat="43.344815" lon="11.659175"><ele>596.0</ele><time>2026-05-03T11:27:42.652Z</time></trkpt><trkpt lat="43.3447567" lon="11.6589267"><ele>589.0</ele><time>2026-05-03T11:27:43.655Z</time></trkpt><trkpt lat="43.3446983" lon="11.658685"><ele>582.0</ele><time>2026-05-03T11:27:44.682Z</time></trkpt><trkpt lat="43.3446433" lon="11.6584417"><ele>575.0</ele><time>2026-05-03T11:27:45.661Z</time></trkpt><trkpt lat="43.3445983" lon="11.6582067"><ele>575.0</ele><time>2026-05-03T11:27:46.684Z</time></trkpt><trkpt lat="43.3445483" lon="11.657985"><ele>575.0</ele><time>2026-05-03T11:27:47.648Z</time></trkpt><trkpt lat="43.344485" lon="11.6577833"><ele>575.0</ele><time>2026-05-03T11:27:48.644Z</time></trkpt><trkpt lat="43.34443" lon="11.6575933"><ele>576.75</ele><time>2026-05-03T11:27:49.688Z</time></trkpt><trkpt lat="43.3443833" lon="11.6574167"><ele>578.5</ele><time>2026-05-03T11:27:50.66Z</time></trkpt><trkpt lat="43.3443467" lon="11.6572483"><ele>580.25</ele><time>2026-05-03T11:27:51.654Z</time></trkpt><trkpt lat="43.34432" lon="11.6570767"><ele>582.0</ele><time>2026-05-03T11:27:52.642Z</time></trkpt><trkpt lat="43.3443133" lon="11.656915"><ele>582.25</ele><time>2026-05-03T11:27:53.649Z</time></trkpt><trkpt lat="43.3443383" lon="11.6567433"><ele>582.5</ele><time>2026-05-03T11:27:54.636Z</time></trkpt><trkpt lat="43.3443867" lon="11.656565"><ele>582.75</ele><time>2026-05-03T11:27:55.651Z</time></trkpt><trkpt lat="43.344455" lon="11.6563933"><ele>583.0</ele><time>2026-05-03T11:27:56.643Z</time></trkpt><trkpt lat="43.3445317" lon="11.6562333"><ele>585.0</ele><time>2026-05-03T11:27:57.638Z</time></trkpt><trkpt lat="43.34462" lon="11.656085"><ele>587.0</ele><time>2026-05-03T11:27:58.642Z</time></trkpt><trkpt lat="43.3447217" lon="11.6559433"><ele>589.0</ele><time>2026-05-03T11:27:59.642Z</time></trkpt><trkpt lat="43.3448333" lon="11.6558217"><ele>591.0</ele><time>2026-05-03T11:28:00.65Z</time></trkpt><trkpt lat="43.3449567" lon="11.6557017"><ele>591.0</ele><time>2026-05-03T11:28:01.637Z</time></trkpt><trkpt lat="43.34509" lon="11.6555717"><ele>591.0</ele><time>2026-05-03T11:28:02.645Z</time></trkpt><trkpt lat="43.34523" lon="11.6554433"><ele>591.0</ele><time>2026-05-03T11:28:03.646Z</time></trkpt><trkpt lat="43.34535" lon="11.6552967"><ele>589.6666666666666</ele><time>2026-05-03T11:28:04.644Z</time></trkpt><trkpt lat="43.3454767" lon="11.65515"><ele>588.3333333333333</ele><time>2026-05-03T11:28:05.641Z</time></trkpt><trkpt lat="43.3456133" lon="11.6550033"><ele>587.0</ele><time>2026-05-03T11:28:06.643Z</time></trkpt><trkpt lat="43.345755" lon="11.6548583"><ele>587.0</ele><time>2026-05-03T11:28:07.643Z</time></trkpt><trkpt lat="43.3458883" lon="11.6547217"><ele>587.0</ele><time>2026-05-03T11:28:08.66Z</time></trkpt><trkpt lat="43.3460117" lon="11.65459"><ele>587.0</ele><time>2026-05-03T11:28:09.653Z</time></trkpt><trkpt lat="43.34615" lon="11.6544817"><ele>585.25</ele><time>2026-05-03T11:28:10.644Z</time></trkpt><trkpt lat="43.346285" lon="11.6543983"><ele>583.5</ele><time>2026-05-03T11:28:11.642Z</time></trkpt><trkpt lat="43.3464167" lon="11.65433"><ele>581.75</ele><time>2026-05-03T11:28:12.641Z</time></trkpt><trkpt lat="43.3465483" lon="11.6542617"><ele>580.0</ele><time>2026-05-03T11:28:13.647Z</time></trkpt><trkpt lat="43.3466883" lon="11.6541933"><ele>580.0</ele><time>2026-05-03T11:28:14.649Z</time></trkpt><trkpt lat="43.34683" lon="11.65413"><ele>580.0</ele><time>2026-05-03T11:28:15.653Z</time></trkpt><trkpt lat="43.3469767" lon="11.6540583"><ele>580.0</ele><time>2026-05-03T11:28:16.654Z</time></trkpt><trkpt lat="43.347115" lon="11.653985"><ele>580.0</ele><time>2026-05-03T11:28:17.671Z</time></trkpt><trkpt lat="43.34725" lon="11.6538983"><ele>580.0</ele><time>2026-05-03T11:28:18.66Z</time></trkpt><trkpt lat="43.3473633" lon="11.6537967"><ele>580.0</ele><time>2026-05-03T11:28:19.712Z</time></trkpt><trkpt lat="43.3474567" lon="11.6536633"><ele>580.0</ele><time>2026-05-03T11:28:20.66Z</time></trkpt><trkpt lat="43.3475233" lon="11.6534833"><ele>580.0</ele><time>2026-05-03T11:28:21.657Z</time></trkpt><trkpt lat="43.3475617" lon="11.6532967"><ele>580.0</ele><time>2026-05-03T11:28:22.658Z</time></trkpt><trkpt lat="43.347575" lon="11.6530867"><ele>580.0</ele><time>2026-05-03T11:28:23.673Z</time></trkpt><trkpt lat="43.3475933" lon="11.6528783"><ele>580.0</ele><time>2026-05-03T11:28:24.643Z</time></trkpt><trkpt lat="43.34761" lon="11.6526667"><ele>580.0</ele><time>2026-05-03T11:28:25.651Z</time></trkpt><trkpt lat="43.3476233" lon="11.6524567"><ele>580.0</ele><time>2026-05-03T11:28:26.648Z</time></trkpt><trkpt lat="43.3476417" lon="11.6522717"><ele>580.0</ele><time>2026-05-03T11:28:27.649Z</time></trkpt><trkpt lat="43.34766" lon="11.6520917"><ele>580.0</ele><time>2026-05-03T11:28:28.637Z</time></trkpt><trkpt lat="43.347695" lon="11.65193"><ele>581.0</ele><time>2026-05-03T11:28:29.639Z</time></trkpt><trkpt lat="43.3477433" lon="11.6517933"><ele>582.0</ele><time>2026-05-03T11:28:30.642Z</time></trkpt><trkpt lat="43.3478133" lon="11.6516733"><ele>583.0</ele><time>2026-05-03T11:28:31.642Z</time></trkpt><trkpt lat="43.3479133" lon="11.6516083"><ele>584.0</ele><time>2026-05-03T11:28:32.635Z</time></trkpt><trkpt lat="43.34805" lon="11.6515883"><ele>584.0</ele><time>2026-05-03T11:28:33.648Z</time></trkpt><trkpt lat="43.3481883" lon="11.6516033"><ele>584.0</ele><time>2026-05-03T11:28:34.689Z</time></trkpt><trkpt lat="43.3483383" lon="11.65165"><ele>584.0</ele><time>2026-05-03T11:28:35.657Z</time></trkpt><trkpt lat="43.3484933" lon="11.6516833"><ele>584.0</ele><time>2026-05-03T11:28:36.67Z</time></trkpt><trkpt lat="43.34866" lon="11.651715"><ele>584.0</ele><time>2026-05-03T11:28:37.648Z</time></trkpt><trkpt lat="43.348815" lon="11.65174"><ele>584.0</ele><time>2026-05-03T11:28:38.65Z</time></trkpt><trkpt lat="43.3489633" lon="11.65177"><ele>584.0</ele><time>2026-05-03T11:28:39.644Z</time></trkpt><trkpt lat="43.349095" lon="11.6518117"><ele>584.0</ele><time>2026-05-03T11:28:40.648Z</time></trkpt><trkpt lat="43.3492067" lon="11.6518783"><ele>586.5</ele><time>2026-05-03T11:28:41.663Z</time></trkpt><trkpt lat="43.3493117" lon="11.6519783"><ele>589.0</ele><time>2026-05-03T11:28:42.637Z</time></trkpt><trkpt lat="43.3493833" lon="11.652125"><ele>591.5</ele><time>2026-05-03T11:28:43.649Z</time></trkpt><trkpt lat="43.3494283" lon="11.6523117"><ele>594.0</ele><time>2026-05-03T11:28:44.645Z</time></trkpt><trkpt lat="43.3494533" lon="11.6524917"><ele>594.0</ele><time>2026-05-03T11:28:45.643Z</time></trkpt><trkpt lat="43.3494783" lon="11.6526667"><ele>594.0</ele><time>2026-05-03T11:28:46.653Z</time></trkpt><trkpt lat="43.34951" lon="11.6528267"><ele>594.0</ele><time>2026-05-03T11:28:47.64Z</time></trkpt><trkpt lat="43.3495517" lon="11.6529533"><ele>594.0</ele><time>2026-05-03T11:28:48.671Z</time></trkpt><trkpt lat="43.349605" lon="11.653035"><ele>594.0</ele><time>2026-05-03T11:28:49.643Z</time></trkpt><trkpt lat="43.3496717" lon="11.65307"><ele>593.4</ele><time>2026-05-03T11:28:50.65Z</time></trkpt><trkpt lat="43.3497583" lon="11.6530433"><ele>592.8</ele><time>2026-05-03T11:28:51.642Z</time></trkpt><trkpt lat="43.34985" lon="11.65295"><ele>592.2</ele><time>2026-05-03T11:28:52.642Z</time></trkpt><trkpt lat="43.3499317" lon="11.65283"><ele>591.6</ele><time>2026-05-03T11:28:53.632Z</time></trkpt><trkpt lat="43.35001" lon="11.652695"><ele>591.0</ele><time>2026-05-03T11:28:54.638Z</time></trkpt><trkpt lat="43.35009" lon="11.652545"><ele>589.0</ele><time>2026-05-03T11:28:55.635Z</time></trkpt><trkpt lat="43.3501817" lon="11.6523967"><ele>587.0</ele><time>2026-05-03T11:28:56.646Z</time></trkpt><trkpt lat="43.3502767" lon="11.65227"><ele>585.0</ele><time>2026-05-03T11:28:57.644Z</time></trkpt><trkpt lat="43.3503833" lon="11.652185"><ele>583.0</ele><time>2026-05-03T11:28:58.648Z</time></trkpt><trkpt lat="43.3504967" lon="11.65211"><ele>583.0</ele><time>2026-05-03T11:28:59.639Z</time></trkpt><trkpt lat="43.3506283" lon="11.6520833"><ele>583.0</ele><time>2026-05-03T11:29:00.642Z</time></trkpt><trkpt lat="43.3507667" lon="11.6521017"><ele>583.0</ele><time>2026-05-03T11:29:01.643Z</time></trkpt><trkpt lat="43.3508767" lon="11.6521667"><ele>583.0</ele><time>2026-05-03T11:29:02.64Z</time></trkpt><trkpt lat="43.3509833" lon="11.6522517"><ele>583.0</ele><time>2026-05-03T11:29:03.65Z</time></trkpt><trkpt lat="43.3510917" lon="11.652335"><ele>583.0</ele><time>2026-05-03T11:29:04.646Z</time></trkpt><trkpt lat="43.3511917" lon="11.6524067"><ele>583.0</ele><time>2026-05-03T11:29:05.639Z</time></trkpt><trkpt lat="43.3513017" lon="11.652445"><ele>583.0</ele><time>2026-05-03T11:29:06.644Z</time></trkpt><trkpt lat="43.3514033" lon="11.6524183"><ele>580.75</ele><time>2026-05-03T11:29:07.643Z</time></trkpt><trkpt lat="43.3514983" lon="11.65233"><ele>578.5</ele><time>2026-05-03T11:29:08.643Z</time></trkpt><trkpt lat="43.3515717" lon="11.652185"><ele>576.25</ele><time>2026-05-03T11:29:09.651Z</time></trkpt><trkpt lat="43.3516117" lon="11.6519983"><ele>574.0</ele><time>2026-05-03T11:29:10.642Z</time></trkpt><trkpt lat="43.35163" lon="11.6518333"><ele>573.25</ele><time>2026-05-03T11:29:11.634Z</time></trkpt><trkpt lat="43.3516583" lon="11.6516717"><ele>572.5</ele><time>2026-05-03T11:29:12.634Z</time></trkpt><trkpt lat="43.3517117" lon="11.651525"><ele>571.75</ele><time>2026-05-03T11:29:13.651Z</time></trkpt><trkpt lat="43.3518067" lon="11.6514083"><ele>571.0</ele><time>2026-05-03T11:29:14.649Z</time></trkpt><trkpt lat="43.3519083" lon="11.6513417"><ele>571.0</ele><time>2026-05-03T11:29:15.646Z</time></trkpt><trkpt lat="43.3520317" lon="11.6513017"><ele>571.0</ele><time>2026-05-03T11:29:16.641Z</time></trkpt><trkpt lat="43.35216" lon="11.65124"><ele>571.0</ele><time>2026-05-03T11:29:17.642Z</time></trkpt><trkpt lat="43.3523017" lon="11.6511767"><ele>571.0</ele><time>2026-05-03T11:29:18.64Z</time></trkpt><trkpt lat="43.352445" lon="11.6511117"><ele>573.6666666666667</ele><time>2026-05-03T11:29:19.647Z</time></trkpt><trkpt lat="43.352595" lon="11.6510333"><ele>576.3333333333334</ele><time>2026-05-03T11:29:20.644Z</time></trkpt><trkpt lat="43.3527383" lon="11.6509467"><ele>579.0</ele><time>2026-05-03T11:29:21.657Z</time></trkpt><trkpt lat="43.3528833" lon="11.6508383"><ele>579.0</ele><time>2026-05-03T11:29:22.647Z</time></trkpt><trkpt lat="43.3530283" lon="11.650735"><ele>579.0</ele><time>2026-05-03T11:29:23.643Z</time></trkpt><trkpt lat="43.3531667" lon="11.6506067"><ele>579.0</ele><time>2026-05-03T11:29:24.648Z</time></trkpt><trkpt lat="43.3533083" lon="11.65048"><ele>577.6666666666666</ele><time>2026-05-03T11:29:25.646Z</time></trkpt><trkpt lat="43.353445" lon="11.6503417"><ele>576.3333333333333</ele><time>2026-05-03T11:29:26.651Z</time></trkpt><trkpt lat="43.3535817" lon="11.650215"><ele>575.0</ele><time>2026-05-03T11:29:27.645Z</time></trkpt><trkpt lat="43.353705" lon="11.6500867"><ele>574.5</ele><time>2026-05-03T11:29:28.651Z</time></trkpt><trkpt lat="43.353815" lon="11.6499517"><ele>574.0</ele><time>2026-05-03T11:29:29.654Z</time></trkpt><trkpt lat="43.3539" lon="11.6498083"><ele>573.5</ele><time>2026-05-03T11:29:30.657Z</time></trkpt><trkpt lat="43.3539633" lon="11.6496683"><ele>573.0</ele><time>2026-05-03T11:29:31.643Z</time></trkpt><trkpt lat="43.35399" lon="11.6495083"><ele>571.25</ele><time>2026-05-03T11:29:32.661Z</time></trkpt><trkpt lat="43.3539733" lon="11.64936"><ele>569.5</ele><time>2026-05-03T11:29:33.644Z</time></trkpt><trkpt lat="43.3539333" lon="11.6492117"><ele>567.75</ele><time>2026-05-03T11:29:34.645Z</time></trkpt><trkpt lat="43.3538783" lon="11.649065"><ele>566.0</ele><time>2026-05-03T11:29:35.649Z</time></trkpt><trkpt lat="43.353825" lon="11.6489067"><ele>566.0</ele><time>2026-05-03T11:29:36.656Z</time></trkpt><trkpt lat="43.3537733" lon="11.6487567"><ele>566.0</ele><time>2026-05-03T11:29:37.649Z</time></trkpt><trkpt lat="43.3537283" lon="11.6486033"><ele>566.0</ele><time>2026-05-03T11:29:38.661Z</time></trkpt><trkpt lat="43.3537" lon="11.6484417"><ele>566.0</ele><time>2026-05-03T11:29:39.644Z</time></trkpt><trkpt lat="43.3536733" lon="11.6482583"><ele>567.5</ele><time>2026-05-03T11:29:40.642Z</time></trkpt><trkpt lat="43.3536817" lon="11.6480917"><ele>569.0</ele><time>2026-05-03T11:29:41.639Z</time></trkpt><trkpt lat="43.353715" lon="11.647915"><ele>570.5</ele><time>2026-05-03T11:29:42.651Z</time></trkpt><trkpt lat="43.3537717" lon="11.647755"><ele>572.0</ele><time>2026-05-03T11:29:43.635Z</time></trkpt><trkpt lat="43.353835" lon="11.6475867"><ele>574.25</ele><time>2026-05-03T11:29:44.645Z</time></trkpt><trkpt lat="43.353905" lon="11.6474167"><ele>576.5</ele><time>2026-05-03T11:29:45.654Z</time></trkpt><trkpt lat="43.3539883" lon="11.6472517"><ele>578.75</ele><time>2026-05-03T11:29:46.64Z</time></trkpt><trkpt lat="43.354085" lon="11.6470867"><ele>581.0</ele><time>2026-05-03T11:29:47.648Z</time></trkpt><trkpt lat="43.3541983" lon="11.646935"><ele>581.0</ele><time>2026-05-03T11:29:48.648Z</time></trkpt><trkpt lat="43.3543167" lon="11.6467817"><ele>581.0</ele><time>2026-05-03T11:29:49.657Z</time></trkpt><trkpt lat="43.3544333" lon="11.6466283"><ele>581.0</ele><time>2026-05-03T11:29:50.647Z</time></trkpt><trkpt lat="43.354565" lon="11.6464583"><ele>581.0</ele><time>2026-05-03T11:29:51.643Z</time></trkpt><trkpt lat="43.35466" lon="11.646305"><ele>581.0</ele><time>2026-05-03T11:29:52.646Z</time></trkpt><trkpt lat="43.3547517" lon="11.6461617"><ele>581.0</ele><time>2026-05-03T11:29:53.647Z</time></trkpt><trkpt lat="43.35483" lon="11.6460117"><ele>581.0</ele><time>2026-05-03T11:29:54.648Z</time></trkpt><trkpt lat="43.3548967" lon="11.6458633"><ele>580.5</ele><time>2026-05-03T11:29:55.66Z</time></trkpt><trkpt lat="43.35497" lon="11.645695"><ele>580.0</ele><time>2026-05-03T11:29:56.675Z</time></trkpt><trkpt lat="43.3550433" lon="11.6455233"><ele>579.5</ele><time>2026-05-03T11:29:57.641Z</time></trkpt><trkpt lat="43.355115" lon="11.6453317"><ele>579.0</ele><time>2026-05-03T11:29:58.657Z</time></trkpt><trkpt lat="43.3551833" lon="11.6451467"><ele>578.25</ele><time>2026-05-03T11:29:59.646Z</time></trkpt><trkpt lat="43.35525" lon="11.64496"><ele>577.5</ele><time>2026-05-03T11:30:00.652Z</time></trkpt><trkpt lat="43.3552983" lon="11.6447933"><ele>576.75</ele><time>2026-05-03T11:30:01.654Z</time></trkpt><trkpt lat="43.3553467" lon="11.6446333"><ele>576.0</ele><time>2026-05-03T11:30:02.654Z</time></trkpt><trkpt lat="43.355385" lon="11.6444783"><ele>575.8</ele><time>2026-05-03T11:30:03.655Z</time></trkpt><trkpt lat="43.3553933" lon="11.644335"><ele>575.6</ele><time>2026-05-03T11:30:04.641Z</time></trkpt><trkpt lat="43.35539" lon="11.6442083"><ele>575.4</ele><time>2026-05-03T11:30:05.644Z</time></trkpt><trkpt lat="43.355355" lon="11.6440817"><ele>575.2</ele><time>2026-05-03T11:30:06.64Z</time></trkpt><trkpt lat="43.3552933" lon="11.6439667"><ele>575.0</ele><time>2026-05-03T11:30:07.637Z</time></trkpt><trkpt lat="43.3552183" lon="11.6438567"><ele>575.0</ele><time>2026-05-03T11:30:08.644Z</time></trkpt><trkpt lat="43.3551267" lon="11.6437483"><ele>575.0</ele><time>2026-05-03T11:30:09.654Z</time></trkpt><trkpt lat="43.3550267" lon="11.6436467"><ele>575.0</ele><time>2026-05-03T11:30:10.642Z</time></trkpt><trkpt lat="43.3549267" lon="11.6435433"><ele>575.0</ele><time>2026-05-03T11:30:11.646Z</time></trkpt><trkpt lat="43.3548267" lon="11.64342"><ele>573.75</ele><time>2026-05-03T11:30:12.643Z</time></trkpt><trkpt lat="43.35472" lon="11.6433117"><ele>572.5</ele><time>2026-05-03T11:30:13.648Z</time></trkpt><trkpt lat="43.354615" lon="11.6432217"><ele>571.25</ele><time>2026-05-03T11:30:14.641Z</time></trkpt><trkpt lat="43.354495" lon="11.643155"><ele>570.0</ele><time>2026-05-03T11:30:15.641Z</time></trkpt><trkpt lat="43.354355" lon="11.643115"><ele>568.25</ele><time>2026-05-03T11:30:16.647Z</time></trkpt><trkpt lat="43.3542167" lon="11.6431017"><ele>566.5</ele><time>2026-05-03T11:30:17.646Z</time></trkpt><trkpt lat="43.3540767" lon="11.6431267"><ele>564.75</ele><time>2026-05-03T11:30:18.642Z</time></trkpt><trkpt lat="43.353945" lon="11.6431583"><ele>563.0</ele><time>2026-05-03T11:30:19.656Z</time></trkpt><trkpt lat="43.3538283" lon="11.6432183"><ele>560.75</ele><time>2026-05-03T11:30:20.649Z</time></trkpt><trkpt lat="43.3537333" lon="11.6432983"><ele>558.5</ele><time>2026-05-03T11:30:21.661Z</time></trkpt><trkpt lat="43.3536567" lon="11.6434"><ele>556.25</ele><time>2026-05-03T11:30:22.657Z</time></trkpt><trkpt lat="43.3535867" lon="11.6435167"><ele>554.0</ele><time>2026-05-03T11:30:23.64Z</time></trkpt><trkpt lat="43.3535067" lon="11.6436467"><ele>554.0</ele><time>2026-05-03T11:30:24.649Z</time></trkpt><trkpt lat="43.3534167" lon="11.6437733"><ele>554.0</ele><time>2026-05-03T11:30:25.641Z</time></trkpt><trkpt lat="43.3533133" lon="11.643875"><ele>554.0</ele><time>2026-05-03T11:30:26.667Z</time></trkpt><trkpt lat="43.3531833" lon="11.6439567"><ele>554.0</ele><time>2026-05-03T11:30:27.652Z</time></trkpt><trkpt lat="43.3530533" lon="11.6440133"><ele>554.25</ele><time>2026-05-03T11:30:28.645Z</time></trkpt><trkpt lat="43.3529217" lon="11.64405"><ele>554.5</ele><time>2026-05-03T11:30:29.635Z</time></trkpt><trkpt lat="43.352785" lon="11.6440683"><ele>554.75</ele><time>2026-05-03T11:30:30.64Z</time></trkpt><trkpt lat="43.3526567" lon="11.64407"><ele>555.0</ele><time>2026-05-03T11:30:31.645Z</time></trkpt><trkpt lat="43.3525117" lon="11.64408"><ele>555.0</ele><time>2026-05-03T11:30:32.643Z</time></trkpt><trkpt lat="43.3523617" lon="11.6441233"><ele>555.0</ele><time>2026-05-03T11:30:33.676Z</time></trkpt><trkpt lat="43.35221" lon="11.6441817"><ele>555.0</ele><time>2026-05-03T11:30:34.638Z</time></trkpt><trkpt lat="43.3520683" lon="11.64426"><ele>554.25</ele><time>2026-05-03T11:30:35.66Z</time></trkpt><trkpt lat="43.351925" lon="11.64433"><ele>553.5</ele><time>2026-05-03T11:30:36.642Z</time></trkpt><trkpt lat="43.3517883" lon="11.6443683"><ele>552.75</ele><time>2026-05-03T11:30:37.627Z</time></trkpt><trkpt lat="43.3516417" lon="11.6443833"><ele>552.0</ele><time>2026-05-03T11:30:38.647Z</time></trkpt><trkpt lat="43.351495" lon="11.6443417"><ele>551.3333333333334</ele><time>2026-05-03T11:30:39.657Z</time></trkpt><trkpt lat="43.35137" lon="11.6442517"><ele>550.6666666666667</ele><time>2026-05-03T11:30:40.658Z</time></trkpt><trkpt lat="43.351245" lon="11.6441333"><ele>550.0</ele><time>2026-05-03T11:30:41.654Z</time></trkpt><trkpt lat="43.351125" lon="11.643985"><ele>550.0</ele><time>2026-05-03T11:30:42.644Z</time></trkpt><trkpt lat="43.3510183" lon="11.6438267"><ele>550.0</ele><time>2026-05-03T11:30:43.643Z</time></trkpt><trkpt lat="43.35091" lon="11.6436583"><ele>550.0</ele><time>2026-05-03T11:30:44.648Z</time></trkpt><trkpt lat="43.3508033" lon="11.6434917"><ele>551.6666666666667</ele><time>2026-05-03T11:30:45.641Z</time></trkpt><trkpt lat="43.3506967" lon="11.643325"><ele>553.3333333333334</ele><time>2026-05-03T11:30:46.648Z</time></trkpt><trkpt lat="43.3505833" lon="11.6431583"><ele>555.0</ele><time>2026-05-03T11:30:47.634Z</time></trkpt><trkpt lat="43.3504667" lon="11.6430083"><ele>555.3333333333334</ele><time>2026-05-03T11:30:48.649Z</time></trkpt><trkpt lat="43.350355" lon="11.6428683"><ele>555.6666666666667</ele><time>2026-05-03T11:30:49.646Z</time></trkpt><trkpt lat="43.3502233" lon="11.6427433"><ele>556.0</ele><time>2026-05-03T11:30:50.646Z</time></trkpt><trkpt lat="43.3500783" lon="11.6426383"><ele>558.0</ele><time>2026-05-03T11:30:51.642Z</time></trkpt><trkpt lat="43.3499367" lon="11.6425333"><ele>560.0</ele><time>2026-05-03T11:30:52.644Z</time></trkpt><trkpt lat="43.3498017" lon="11.6424233"><ele>562.0</ele><time>2026-05-03T11:30:53.646Z</time></trkpt><trkpt lat="43.3496817" lon="11.6423317"><ele>564.6</ele><time>2026-05-03T11:30:54.633Z</time></trkpt><trkpt lat="43.34957" lon="11.6422483"><ele>567.2</ele><time>2026-05-03T11:30:55.64Z</time></trkpt><trkpt lat="43.34948" lon="11.6421683"><ele>569.8</ele><time>2026-05-03T11:30:56.649Z</time></trkpt><trkpt lat="43.3494067" lon="11.6420783"><ele>572.4</ele><time>2026-05-03T11:30:57.642Z</time></trkpt><trkpt lat="43.3493533" lon="11.6419767"><ele>575.0</ele><time>2026-05-03T11:30:58.66Z</time></trkpt><trkpt lat="43.34933" lon="11.6418483"><ele>575.2</ele><time>2026-05-03T11:30:59.637Z</time></trkpt><trkpt lat="43.3493367" lon="11.6417167"><ele>575.4</ele><time>2026-05-03T11:31:00.65Z</time></trkpt><trkpt lat="43.3493717" lon="11.6415783"><ele>575.6</ele><time>2026-05-03T11:31:01.629Z</time></trkpt><trkpt lat="43.3493983" lon="11.6414367"><ele>575.8</ele><time>2026-05-03T11:31:02.643Z</time></trkpt><trkpt lat="43.3493867" lon="11.6412917"><ele>576.0</ele><time>2026-05-03T11:31:03.637Z</time></trkpt><trkpt lat="43.349335" lon="11.6411517"><ele>577.0</ele><time>2026-05-03T11:31:04.639Z</time></trkpt><trkpt lat="43.34924" lon="11.6410267"><ele>578.0</ele><time>2026-05-03T11:31:05.644Z</time></trkpt><trkpt lat="43.3491033" lon="11.640925"><ele>579.0</ele><time>2026-05-03T11:31:06.643Z</time></trkpt><trkpt lat="43.3489583" lon="11.6408317"><ele>580.0</ele><time>2026-05-03T11:31:07.642Z</time></trkpt><trkpt lat="43.3488133" lon="11.6407183"><ele>580.0</ele><time>2026-05-03T11:31:08.644Z</time></trkpt><trkpt lat="43.3486817" lon="11.640585"><ele>580.0</ele><time>2026-05-03T11:31:09.644Z</time></trkpt><trkpt lat="43.3485517" lon="11.6404433"><ele>580.0</ele><time>2026-05-03T11:31:10.639Z</time></trkpt><trkpt lat="43.3483983" lon="11.6403133"><ele>577.3333333333334</ele><time>2026-05-03T11:31:11.642Z</time></trkpt><trkpt lat="43.34823" lon="11.6402133"><ele>574.6666666666666</ele><time>2026-05-03T11:31:12.64Z</time></trkpt><trkpt lat="43.3480517" lon="11.64014"><ele>572.0</ele><time>2026-05-03T11:31:13.641Z</time></trkpt><trkpt lat="43.3478683" lon="11.64009"><ele>572.0</ele><time>2026-05-03T11:31:14.642Z</time></trkpt><trkpt lat="43.3476983" lon="11.6400283"><ele>572.0</ele><time>2026-05-03T11:31:15.66Z</time></trkpt><trkpt lat="43.3475483" lon="11.6399667"><ele>572.0</ele><time>2026-05-03T11:31:16.637Z</time></trkpt><trkpt lat="43.347405" lon="11.63991"><ele>572.0</ele><time>2026-05-03T11:31:17.645Z</time></trkpt><trkpt lat="43.3472667" lon="11.6398567"><ele>572.0</ele><time>2026-05-03T11:31:18.638Z</time></trkpt><trkpt lat="43.3471283" lon="11.6397917"><ele>572.0</ele><time>2026-05-03T11:31:19.651Z</time></trkpt><trkpt lat="43.3469967" lon="11.6397233"><ele>572.0</ele><time>2026-05-03T11:31:20.645Z</time></trkpt><trkpt lat="43.3468667" lon="11.6396217"><ele>571.3333333333333</ele><time>2026-05-03T11:31:21.651Z</time></trkpt><trkpt lat="43.3467433" lon="11.63949"><ele>570.6666666666666</ele><time>2026-05-03T11:31:22.64Z</time></trkpt><trkpt lat="43.346645" lon="11.639335"><ele>570.0</ele><time>2026-05-03T11:31:23.638Z</time></trkpt><trkpt lat="43.346555" lon="11.6391667"><ele>569.0</ele><time>2026-05-03T11:31:24.638Z</time></trkpt><trkpt lat="43.3464633" lon="11.6389867"><ele>568.0</ele><time>2026-05-03T11:31:25.637Z</time></trkpt><trkpt lat="43.3463617" lon="11.6388033"><ele>567.0</ele><time>2026-05-03T11:31:26.664Z</time></trkpt><trkpt lat="43.3462517" lon="11.6386317"><ele>565.3333333333334</ele><time>2026-05-03T11:31:27.636Z</time></trkpt><trkpt lat="43.3461183" lon="11.6384817"><ele>563.6666666666667</ele><time>2026-05-03T11:31:28.642Z</time></trkpt><trkpt lat="43.34596" lon="11.6383533"><ele>562.0</ele><time>2026-05-03T11:31:29.643Z</time></trkpt><trkpt lat="43.345795" lon="11.638225"><ele>562.0</ele><time>2026-05-03T11:31:30.638Z</time></trkpt><trkpt lat="43.3456267" lon="11.6381033"><ele>562.0</ele><time>2026-05-03T11:31:31.647Z</time></trkpt><trkpt lat="43.3454617" lon="11.6379733"><ele>562.0</ele><time>2026-05-03T11:31:32.636Z</time></trkpt><trkpt lat="43.345305" lon="11.637845"><ele>559.6666666666667</ele><time>2026-05-03T11:31:33.651Z</time></trkpt><trkpt lat="43.3451567" lon="11.6377233"><ele>557.3333333333334</ele><time>2026-05-03T11:31:34.638Z</time></trkpt><trkpt lat="43.3450117" lon="11.63761"><ele>555.0</ele><time>2026-05-03T11:31:35.632Z</time></trkpt><trkpt lat="43.3448567" lon="11.6375033"><ele>553.6666666666666</ele><time>2026-05-03T11:31:36.644Z</time></trkpt><trkpt lat="43.3447017" lon="11.6374183"><ele>552.3333333333333</ele><time>2026-05-03T11:31:37.637Z</time></trkpt><trkpt lat="43.34455" lon="11.6373533"><ele>551.0</ele><time>2026-05-03T11:31:38.645Z</time></trkpt><trkpt lat="43.3443967" lon="11.6373017"><ele>551.0</ele><time>2026-05-03T11:31:39.646Z</time></trkpt><trkpt lat="43.3442417" lon="11.637265"><ele>551.0</ele><time>2026-05-03T11:31:40.64Z</time></trkpt><trkpt lat="43.3441017" lon="11.6372217"><ele>551.0</ele><time>2026-05-03T11:31:41.653Z</time></trkpt><trkpt lat="43.3439817" lon="11.6371567"><ele>551.0</ele><time>2026-05-03T11:31:42.641Z</time></trkpt><trkpt lat="43.34387" lon="11.6370733"><ele>549.0</ele><time>2026-05-03T11:31:43.652Z</time></trkpt><trkpt lat="43.343785" lon="11.6369633"><ele>547.0</ele><time>2026-05-03T11:31:44.641Z</time></trkpt><trkpt lat="43.3437283" lon="11.6368267"><ele>545.0</ele><time>2026-05-03T11:31:45.641Z</time></trkpt><trkpt lat="43.343685" lon="11.6366733"><ele>543.0</ele><time>2026-05-03T11:31:46.641Z</time></trkpt><trkpt lat="43.34367" lon="11.6365117"><ele>543.0</ele><time>2026-05-03T11:31:47.645Z</time></trkpt><trkpt lat="43.3436917" lon="11.6363433"><ele>543.0</ele><time>2026-05-03T11:31:48.652Z</time></trkpt><trkpt lat="43.34374" lon="11.6361817"><ele>543.0</ele><time>2026-05-03T11:31:49.649Z</time></trkpt><trkpt lat="43.343815" lon="11.636045"><ele>543.0</ele><time>2026-05-03T11:31:50.642Z</time></trkpt><trkpt lat="43.3439067" lon="11.6359067"><ele>544.25</ele><time>2026-05-03T11:31:51.661Z</time></trkpt><trkpt lat="43.344015" lon="11.6357717"><ele>545.5</ele><time>2026-05-03T11:31:52.642Z</time></trkpt><trkpt lat="43.344135" lon="11.6356433"><ele>546.75</ele><time>2026-05-03T11:31:53.653Z</time></trkpt><trkpt lat="43.3442483" lon="11.63552"><ele>548.0</ele><time>2026-05-03T11:31:54.639Z</time></trkpt><trkpt lat="43.344345" lon="11.6353983"><ele>546.25</ele><time>2026-05-03T11:31:55.64Z</time></trkpt><trkpt lat="43.3444333" lon="11.6352783"><ele>544.5</ele><time>2026-05-03T11:31:56.643Z</time></trkpt><trkpt lat="43.3444967" lon="11.6351517"><ele>542.75</ele><time>2026-05-03T11:31:57.652Z</time></trkpt><trkpt lat="43.3445117" lon="11.6349883"><ele>541.0</ele><time>2026-05-03T11:31:58.632Z</time></trkpt><trkpt lat="43.3444867" lon="11.634825"><ele>541.0</ele><time>2026-05-03T11:31:59.683Z</time></trkpt><trkpt lat="43.34443" lon="11.6346583"><ele>541.0</ele><time>2026-05-03T11:32:00.638Z</time></trkpt><trkpt lat="43.3443567" lon="11.6344883"><ele>541.0</ele><time>2026-05-03T11:32:01.639Z</time></trkpt><trkpt lat="43.3442867" lon="11.6343117"><ele>541.0</ele><time>2026-05-03T11:32:02.635Z</time></trkpt><trkpt lat="43.3442267" lon="11.6341167"><ele>539.5</ele><time>2026-05-03T11:32:03.655Z</time></trkpt><trkpt lat="43.3441917" lon="11.6339233"><ele>538.0</ele><time>2026-05-03T11:32:04.641Z</time></trkpt><trkpt lat="43.3441633" lon="11.6337233"><ele>536.5</ele><time>2026-05-03T11:32:05.647Z</time></trkpt><trkpt lat="43.3441667" lon="11.63353"><ele>535.0</ele><time>2026-05-03T11:32:06.636Z</time></trkpt><trkpt lat="43.3441867" lon="11.6333183"><ele>533.0</ele><time>2026-05-03T11:32:07.642Z</time></trkpt><trkpt lat="43.3442133" lon="11.6330967"><ele>531.0</ele><time>2026-05-03T11:32:08.64Z</time></trkpt><trkpt lat="43.3442517" lon="11.6328733"><ele>529.0</ele><time>2026-05-03T11:32:09.636Z</time></trkpt><trkpt lat="43.3442967" lon="11.6326467"><ele>528.3333333333334</ele><time>2026-05-03T11:32:10.647Z</time></trkpt><trkpt lat="43.34435" lon="11.6324133"><ele>527.6666666666666</ele><time>2026-05-03T11:32:11.649Z</time></trkpt><trkpt lat="43.3443917" lon="11.6321917"><ele>527.0</ele><time>2026-05-03T11:32:12.667Z</time></trkpt><trkpt lat="43.3444333" lon="11.6319783"><ele>526.6666666666666</ele><time>2026-05-03T11:32:13.644Z</time></trkpt><trkpt lat="43.344475" lon="11.6317733"><ele>526.3333333333334</ele><time>2026-05-03T11:32:14.644Z</time></trkpt><trkpt lat="43.3445217" lon="11.6315617"><ele>526.0</ele><time>2026-05-03T11:32:15.641Z</time></trkpt><trkpt lat="43.344565" lon="11.6313567"><ele>526.0</ele><time>2026-05-03T11:32:16.644Z</time></trkpt><trkpt lat="43.3446117" lon="11.631145"><ele>526.0</ele><time>2026-05-03T11:32:17.637Z</time></trkpt><trkpt lat="43.3446667" lon="11.6309617"><ele>526.0</ele><time>2026-05-03T11:32:18.644Z</time></trkpt><trkpt lat="43.3447317" lon="11.6307667"><ele>523.6666666666667</ele><time>2026-05-03T11:32:19.638Z</time></trkpt><trkpt lat="43.344815" lon="11.6305883"><ele>521.3333333333334</ele><time>2026-05-03T11:32:20.639Z</time></trkpt><trkpt lat="43.34492" lon="11.6304233"><ele>519.0</ele><time>2026-05-03T11:32:21.642Z</time></trkpt><trkpt lat="43.34503" lon="11.6302483"><ele>518.0</ele><time>2026-05-03T11:32:22.635Z</time></trkpt><trkpt lat="43.3451383" lon="11.6300717"><ele>517.0</ele><time>2026-05-03T11:32:23.657Z</time></trkpt><trkpt lat="43.3452533" lon="11.6298917"><ele>516.0</ele><time>2026-05-03T11:32:24.644Z</time></trkpt><trkpt lat="43.3453733" lon="11.629715"><ele>516.0</ele><time>2026-05-03T11:32:25.64Z</time></trkpt><trkpt lat="43.34549" lon="11.629535"><ele>516.0</ele><time>2026-05-03T11:32:26.639Z</time></trkpt><trkpt lat="43.34559" lon="11.629365"><ele>516.0</ele><time>2026-05-03T11:32:27.647Z</time></trkpt><trkpt lat="43.3456817" lon="11.6292017"><ele>516.0</ele><time>2026-05-03T11:32:28.643Z</time></trkpt><trkpt lat="43.3457533" lon="11.6290233"><ele>516.0</ele><time>2026-05-03T11:32:29.646Z</time></trkpt><trkpt lat="43.3458" lon="11.6288133"><ele>516.0</ele><time>2026-05-03T11:32:30.645Z</time></trkpt><trkpt lat="43.3458233" lon="11.628605"><ele>517.25</ele><time>2026-05-03T11:32:31.637Z</time></trkpt><trkpt lat="43.3458417" lon="11.6284133"><ele>518.5</ele><time>2026-05-03T11:32:32.638Z</time></trkpt><trkpt lat="43.3458767" lon="11.6282317"><ele>519.75</ele><time>2026-05-03T11:32:33.644Z</time></trkpt><trkpt lat="43.345935" lon="11.628085"><ele>521.0</ele><time>2026-05-03T11:32:34.645Z</time></trkpt><trkpt lat="43.3460417" lon="11.6279833"><ele>521.0</ele><time>2026-05-03T11:32:35.649Z</time></trkpt><trkpt lat="43.3461683" lon="11.6278967"><ele>521.0</ele><time>2026-05-03T11:32:36.654Z</time></trkpt><trkpt lat="43.3463117" lon="11.627825"><ele>521.0</ele><time>2026-05-03T11:32:37.671Z</time></trkpt><trkpt lat="43.3464517" lon="11.6277333"><ele>521.0</ele><time>2026-05-03T11:32:38.642Z</time></trkpt><trkpt lat="43.346595" lon="11.6276167"><ele>518.6666666666666</ele><time>2026-05-03T11:32:39.648Z</time></trkpt><trkpt lat="43.34673" lon="11.6274667"><ele>516.3333333333334</ele><time>2026-05-03T11:32:40.642Z</time></trkpt><trkpt lat="43.34686" lon="11.6273117"><ele>514.0</ele><time>2026-05-03T11:32:41.636Z</time></trkpt><trkpt lat="43.3469767" lon="11.6271383"><ele>513.75</ele><time>2026-05-03T11:32:42.638Z</time></trkpt><trkpt lat="43.3470833" lon="11.626975"><ele>513.5</ele><time>2026-05-03T11:32:43.642Z</time></trkpt><trkpt lat="43.3471717" lon="11.6267983"><ele>513.25</ele><time>2026-05-03T11:32:44.653Z</time></trkpt><trkpt lat="43.347235" lon="11.6266367"><ele>513.0</ele><time>2026-05-03T11:32:45.64Z</time></trkpt><trkpt lat="43.3473" lon="11.626475"><ele>513.0</ele><time>2026-05-03T11:32:46.652Z</time></trkpt><trkpt lat="43.3473817" lon="11.6263333"><ele>513.0</ele><time>2026-05-03T11:32:47.64Z</time></trkpt><trkpt lat="43.34749" lon="11.626235"><ele>513.0</ele><time>2026-05-03T11:32:48.641Z</time></trkpt><trkpt lat="43.3476167" lon="11.626165"><ele>513.0</ele><time>2026-05-03T11:32:49.64Z</time></trkpt><trkpt lat="43.3477433" lon="11.6260817"><ele>510.66666666666663</ele><time>2026-05-03T11:32:50.641Z</time></trkpt><trkpt lat="43.3478767" lon="11.6259917"><ele>508.3333333333333</ele><time>2026-05-03T11:32:51.642Z</time></trkpt><trkpt lat="43.3480067" lon="11.625895"><ele>506.0</ele><time>2026-05-03T11:32:52.649Z</time></trkpt><trkpt lat="43.3481417" lon="11.6257933"><ele>506.0</ele><time>2026-05-03T11:32:53.645Z</time></trkpt><trkpt lat="43.3482783" lon="11.6257033"><ele>506.0</ele><time>2026-05-03T11:32:54.65Z</time></trkpt><trkpt lat="43.3484117" lon="11.6256067"><ele>506.0</ele><time>2026-05-03T11:32:55.641Z</time></trkpt><trkpt lat="43.348545" lon="11.62552"><ele>506.0</ele><time>2026-05-03T11:32:56.651Z</time></trkpt><trkpt lat="43.3486583" lon="11.6254217"><ele>506.0</ele><time>2026-05-03T11:32:57.645Z</time></trkpt><trkpt lat="43.3487633" lon="11.6253033"><ele>506.0</ele><time>2026-05-03T11:32:58.641Z</time></trkpt><trkpt lat="43.3488383" lon="11.6251567"><ele>506.0</ele><time>2026-05-03T11:32:59.639Z</time></trkpt><trkpt lat="43.3488833" lon="11.6249733"><ele>503.25</ele><time>2026-05-03T11:33:00.641Z</time></trkpt><trkpt lat="43.348895" lon="11.6247833"><ele>500.5</ele><time>2026-05-03T11:33:01.64Z</time></trkpt><trkpt lat="43.3489033" lon="11.6245867"><ele>497.75</ele><time>2026-05-03T11:33:02.638Z</time></trkpt><trkpt lat="43.34892" lon="11.6244017"><ele>495.0</ele><time>2026-05-03T11:33:03.649Z</time></trkpt><trkpt lat="43.3489717" lon="11.6242283"><ele>495.0</ele><time>2026-05-03T11:33:04.645Z</time></trkpt><trkpt lat="43.34905" lon="11.62407"><ele>495.0</ele><time>2026-05-03T11:33:05.644Z</time></trkpt><trkpt lat="43.3491433" lon="11.6239217"><ele>495.0</ele><time>2026-05-03T11:33:06.645Z</time></trkpt><trkpt lat="43.349235" lon="11.623775"><ele>495.0</ele><time>2026-05-03T11:33:07.646Z</time></trkpt><trkpt lat="43.3493233" lon="11.6236133"><ele>494.25</ele><time>2026-05-03T11:33:08.648Z</time></trkpt><trkpt lat="43.34938" lon="11.6234417"><ele>493.5</ele><time>2026-05-03T11:33:09.645Z</time></trkpt><trkpt lat="43.3494183" lon="11.6232467"><ele>492.75</ele><time>2026-05-03T11:33:10.653Z</time></trkpt><trkpt lat="43.3494383" lon="11.623025"><ele>492.0</ele><time>2026-05-03T11:33:11.648Z</time></trkpt><trkpt lat="43.3494583" lon="11.6227933"><ele>489.66666666666663</ele><time>2026-05-03T11:33:12.648Z</time></trkpt><trkpt lat="43.3494833" lon="11.6225517"><ele>487.3333333333333</ele><time>2026-05-03T11:33:13.654Z</time></trkpt><trkpt lat="43.3495083" lon="11.6223017"><ele>485.0</ele><time>2026-05-03T11:33:14.643Z</time></trkpt><trkpt lat="43.3495317" lon="11.62205"><ele>483.3333333333333</ele><time>2026-05-03T11:33:15.646Z</time></trkpt><trkpt lat="43.3495567" lon="11.6217933"><ele>481.66666666666663</ele><time>2026-05-03T11:33:16.637Z</time></trkpt><trkpt lat="43.3495833" lon="11.621535"><ele>480.0</ele><time>2026-05-03T11:33:17.645Z</time></trkpt><trkpt lat="43.34961" lon="11.621275"><ele>480.33333333333337</ele><time>2026-05-03T11:33:18.642Z</time></trkpt><trkpt lat="43.349635" lon="11.6210083"><ele>480.6666666666667</ele><time>2026-05-03T11:33:19.639Z</time></trkpt><trkpt lat="43.34966" lon="11.6207433"><ele>481.0</ele><time>2026-05-03T11:33:20.64Z</time></trkpt><trkpt lat="43.3496817" lon="11.6204767"><ele>482.33333333333337</ele><time>2026-05-03T11:33:21.639Z</time></trkpt><trkpt lat="43.3497067" lon="11.6202117"><ele>483.66666666666663</ele><time>2026-05-03T11:33:22.639Z</time></trkpt><trkpt lat="43.3497383" lon="11.6199483"><ele>485.0</ele><time>2026-05-03T11:33:23.648Z</time></trkpt><trkpt lat="43.34977" lon="11.61968"><ele>487.0</ele><time>2026-05-03T11:33:24.649Z</time></trkpt><trkpt lat="43.3498" lon="11.6194217"><ele>489.0</ele><time>2026-05-03T11:33:25.634Z</time></trkpt><trkpt lat="43.3498417" lon="11.6191617"><ele>491.0</ele><time>2026-05-03T11:33:26.655Z</time></trkpt><trkpt lat="43.349895" lon="11.6188983"><ele>492.66666666666663</ele><time>2026-05-03T11:33:27.638Z</time></trkpt><trkpt lat="43.349955" lon="11.618645"><ele>494.33333333333337</ele><time>2026-05-03T11:33:28.64Z</time></trkpt><trkpt lat="43.35001" lon="11.618405"><ele>496.0</ele><time>2026-05-03T11:33:29.64Z</time></trkpt><trkpt lat="43.35008" lon="11.61816"><ele>496.0</ele><time>2026-05-03T11:33:30.652Z</time></trkpt><trkpt lat="43.3501467" lon="11.6179317"><ele>496.0</ele><time>2026-05-03T11:33:31.64Z</time></trkpt><trkpt lat="43.3502017" lon="11.6177083"><ele>496.0</ele><time>2026-05-03T11:33:32.671Z</time></trkpt><trkpt lat="43.350245" lon="11.6174967"><ele>496.33333333333337</ele><time>2026-05-03T11:33:33.659Z</time></trkpt><trkpt lat="43.3502667" lon="11.6172867"><ele>496.66666666666663</ele><time>2026-05-03T11:33:34.641Z</time></trkpt><trkpt lat="43.350265" lon="11.6170617"><ele>497.0</ele><time>2026-05-03T11:33:35.646Z</time></trkpt><trkpt lat="43.3502483" lon="11.6168367"><ele>495.66666666666663</ele><time>2026-05-03T11:33:36.673Z</time></trkpt><trkpt lat="43.3501933" lon="11.6166083"><ele>494.33333333333337</ele><time>2026-05-03T11:33:37.661Z</time></trkpt><trkpt lat="43.35013" lon="11.6163783"><ele>493.0</ele><time>2026-05-03T11:33:38.663Z</time></trkpt><trkpt lat="43.35006" lon="11.6161433"><ele>493.0</ele><time>2026-05-03T11:33:39.673Z</time></trkpt><trkpt lat="43.34998" lon="11.6159067"><ele>493.0</ele><time>2026-05-03T11:33:40.649Z</time></trkpt><trkpt lat="43.3499083" lon="11.61567"><ele>493.0</ele><time>2026-05-03T11:33:41.639Z</time></trkpt><trkpt lat="43.3498267" lon="11.6154283"><ele>491.6666666666667</ele><time>2026-05-03T11:33:42.647Z</time></trkpt><trkpt lat="43.3497333" lon="11.6151917"><ele>490.33333333333337</ele><time>2026-05-03T11:33:43.657Z</time></trkpt><trkpt lat="43.3496433" lon="11.6149633"><ele>489.0</ele><time>2026-05-03T11:33:44.644Z</time></trkpt><trkpt lat="43.3495483" lon="11.6147467"><ele>489.0</ele><time>2026-05-03T11:33:45.651Z</time></trkpt><trkpt lat="43.349455" lon="11.614545"><ele>489.0</ele><time>2026-05-03T11:33:46.668Z</time></trkpt><trkpt lat="43.3493567" lon="11.6143517"><ele>489.0</ele><time>2026-05-03T11:33:47.65Z</time></trkpt><trkpt lat="43.3492483" lon="11.6141617"><ele>489.33333333333337</ele><time>2026-05-03T11:33:48.638Z</time></trkpt><trkpt lat="43.3491233" lon="11.61398"><ele>489.6666666666667</ele><time>2026-05-03T11:33:49.648Z</time></trkpt><trkpt lat="43.349" lon="11.6138133"><ele>490.0</ele><time>2026-05-03T11:33:50.638Z</time></trkpt><trkpt lat="43.3488883" lon="11.613655"><ele>489.0</ele><time>2026-05-03T11:33:51.633Z</time></trkpt><trkpt lat="43.3487767" lon="11.613515"><ele>488.0</ele><time>2026-05-03T11:33:52.633Z</time></trkpt><trkpt lat="43.3486633" lon="11.6134017"><ele>487.0</ele><time>2026-05-03T11:33:53.642Z</time></trkpt><trkpt lat="43.3485467" lon="11.6133067"><ele>486.0</ele><time>2026-05-03T11:33:54.641Z</time></trkpt><trkpt lat="43.348435" lon="11.6132167"><ele>486.0</ele><time>2026-05-03T11:33:55.632Z</time></trkpt><trkpt lat="43.3483283" lon="11.6131267"><ele>486.0</ele><time>2026-05-03T11:33:56.652Z</time></trkpt><trkpt lat="43.3482283" lon="11.6130367"><ele>486.0</ele><time>2026-05-03T11:33:57.638Z</time></trkpt><trkpt lat="43.348135" lon="11.6129567"><ele>486.0</ele><time>2026-05-03T11:33:58.651Z</time></trkpt><trkpt lat="43.3480533" lon="11.612885"><ele>485.8333333333333</ele><time>2026-05-03T11:33:59.644Z</time></trkpt><trkpt lat="43.34798" lon="11.6128167"><ele>485.66666666666663</ele><time>2026-05-03T11:34:00.648Z</time></trkpt><trkpt lat="43.3479183" lon="11.6127667"><ele>485.5</ele><time>2026-05-03T11:34:01.648Z</time></trkpt><trkpt lat="43.3478433" lon="11.6126967"><ele>485.3333333333333</ele><time>2026-05-03T11:34:03.652Z</time></trkpt><trkpt lat="43.3477917" lon="11.61277"><ele>485.16666666666663</ele><time>2026-05-03T11:34:08.648Z</time></trkpt><trkpt lat="43.3478117" lon="11.61286"><ele>485.0</ele><time>2026-05-03T11:34:12.652Z</time></trkpt><trkpt lat="43.3478867" lon="11.6129333"><ele>484.8571428571429</ele><time>2026-05-03T11:34:14.647Z</time></trkpt><trkpt lat="43.34794" lon="11.61298"><ele>484.7142857142857</ele><time>2026-05-03T11:34:15.646Z</time></trkpt><trkpt lat="43.3479933" lon="11.6130317"><ele>484.57142857142856</ele><time>2026-05-03T11:34:16.646Z</time></trkpt><trkpt lat="43.34805" lon="11.61309"><ele>484.42857142857144</ele><time>2026-05-03T11:34:17.642Z</time></trkpt><trkpt lat="43.3481133" lon="11.6131533"><ele>484.2857142857142</ele><time>2026-05-03T11:34:18.651Z</time></trkpt><trkpt lat="43.3481817" lon="11.6132117"><ele>484.1428571428571</ele><time>2026-05-03T11:34:19.649Z</time></trkpt><trkpt lat="43.3482533" lon="11.6132767"><ele>484.0</ele><time>2026-05-03T11:34:20.641Z</time></trkpt><trkpt lat="43.3483317" lon="11.6133417"><ele>484.1666666666667</ele><time>2026-05-03T11:34:21.646Z</time></trkpt><trkpt lat="43.3484083" lon="11.6134033"><ele>484.33333333333337</ele><time>2026-05-03T11:34:22.636Z</time></trkpt><trkpt lat="43.348485" lon="11.6134667"><ele>484.5</ele><time>2026-05-03T11:34:23.655Z</time></trkpt><trkpt lat="43.3485633" lon="11.6135317"><ele>484.66666666666663</ele><time>2026-05-03T11:34:24.653Z</time></trkpt><trkpt lat="43.3486283" lon="11.6135967"><ele>484.8333333333333</ele><time>2026-05-03T11:34:25.647Z</time></trkpt><trkpt lat="43.34869" lon="11.613655"><ele>485.0</ele><time>2026-05-03T11:34:26.652Z</time></trkpt><trkpt lat="43.34875" lon="11.6137267"><ele>484.99999999999994</ele><time>2026-05-03T11:34:27.647Z</time></trkpt><trkpt lat="43.3488083" lon="11.6138"><ele>485.0</ele><time>2026-05-03T11:34:28.646Z</time></trkpt><trkpt lat="43.34887" lon="11.6138817"><ele>485.0</ele><time>2026-05-03T11:34:29.644Z</time></trkpt><trkpt lat="43.34893" lon="11.6139567"><ele>485.0</ele><time>2026-05-03T11:34:30.645Z</time></trkpt><trkpt lat="43.348985" lon="11.6140383"><ele>484.99999999999994</ele><time>2026-05-03T11:34:31.648Z</time></trkpt><trkpt lat="43.34904" lon="11.614125"><ele>485.0</ele><time>2026-05-03T11:34:32.642Z</time></trkpt><trkpt lat="43.3490867" lon="11.6142067"><ele>485.8</ele><time>2026-05-03T11:34:33.66Z</time></trkpt><trkpt lat="43.349145" lon="11.61429"><ele>486.6</ele><time>2026-05-03T11:34:34.649Z</time></trkpt><trkpt lat="43.34919" lon="11.614365"><ele>487.4</ele><time>2026-05-03T11:34:35.643Z</time></trkpt><trkpt lat="43.34927" lon="11.6144817"><ele>488.2</ele><time>2026-05-03T11:34:37.647Z</time></trkpt><trkpt lat="43.3493317" lon="11.6145717"><ele>489.0</ele><time>2026-05-03T11:34:39.64Z</time></trkpt><trkpt lat="43.3494867" lon="11.6146533"><ele>489.0</ele><time>2026-05-03T11:34:45.65Z</time></trkpt><trkpt lat="43.3495417" lon="11.6148267"><ele>489.0</ele><time>2026-05-03T11:34:47.659Z</time></trkpt><trkpt lat="43.3495783" lon="11.6149267"><ele>489.0</ele><time>2026-05-03T11:34:48.651Z</time></trkpt><trkpt lat="43.34962" lon="11.6150233"><ele>489.0</ele><time>2026-05-03T11:34:49.667Z</time></trkpt><trkpt lat="43.3496517" lon="11.6151017"><ele>489.0</ele><time>2026-05-03T11:34:50.649Z</time></trkpt><trkpt lat="43.3497033" lon="11.6151967"><ele>488.79999999999995</ele><time>2026-05-03T11:34:52.639Z</time></trkpt><trkpt lat="43.349765" lon="11.61517"><ele>488.59999999999997</ele><time>2026-05-03T11:34:55.639Z</time></trkpt><trkpt lat="43.3497633" lon="11.6150367"><ele>488.4</ele><time>2026-05-03T11:34:58.655Z</time></trkpt><trkpt lat="43.3497583" lon="11.6149333"><ele>488.2</ele><time>2026-05-03T11:35:00.649Z</time></trkpt><trkpt lat="43.349755" lon="11.6148067"><ele>488.0</ele><time>2026-05-03T11:35:02.657Z</time></trkpt><trkpt lat="43.3497433" lon="11.6146333"><ele>487.99999999999994</ele><time>2026-05-03T11:35:04.658Z</time></trkpt><trkpt lat="43.349745" lon="11.6145267"><ele>488.0</ele><time>2026-05-03T11:35:05.649Z</time></trkpt><trkpt lat="43.3497517" lon="11.6144233"><ele>488.0</ele><time>2026-05-03T11:35:06.653Z</time></trkpt><trkpt lat="43.34976" lon="11.6143167"><ele>488.0</ele><time>2026-05-03T11:35:07.646Z</time></trkpt><trkpt lat="43.3497683" lon="11.614205"><ele>487.99999999999994</ele><time>2026-05-03T11:35:08.648Z</time></trkpt><trkpt lat="43.3497633" lon="11.6141083"><ele>488.0</ele><time>2026-05-03T11:35:09.648Z</time></trkpt><trkpt lat="43.3497467" lon="11.61401"><ele>488.3333333333333</ele><time>2026-05-03T11:35:10.649Z</time></trkpt><trkpt lat="43.3497267" lon="11.61391"><ele>488.66666666666663</ele><time>2026-05-03T11:35:11.655Z</time></trkpt><trkpt lat="43.3496983" lon="11.6138083"><ele>489.0</ele><time>2026-05-03T11:35:12.633Z</time></trkpt><trkpt lat="43.3496683" lon="11.613705"><ele>489.33333333333337</ele><time>2026-05-03T11:35:13.664Z</time></trkpt><trkpt lat="43.3496317" lon="11.6136067"><ele>489.6666666666667</ele><time>2026-05-03T11:35:14.652Z</time></trkpt><trkpt lat="43.3495967" lon="11.6135133"><ele>490.0</ele><time>2026-05-03T11:35:15.647Z</time></trkpt><trkpt lat="43.349555" lon="11.613365"><ele>490.1666666666667</ele><time>2026-05-03T11:35:17.634Z</time></trkpt><trkpt lat="43.3495483" lon="11.6132733"><ele>490.33333333333337</ele><time>2026-05-03T11:35:18.636Z</time></trkpt><trkpt lat="43.3495533" lon="11.6131667"><ele>490.5</ele><time>2026-05-03T11:35:19.641Z</time></trkpt><trkpt lat="43.3495617" lon="11.61306"><ele>490.66666666666663</ele><time>2026-05-03T11:35:20.644Z</time></trkpt><trkpt lat="43.3495767" lon="11.612955"><ele>490.8333333333333</ele><time>2026-05-03T11:35:21.657Z</time></trkpt><trkpt lat="43.3496033" lon="11.61284"><ele>491.0</ele><time>2026-05-03T11:35:22.646Z</time></trkpt><trkpt lat="43.349625" lon="11.6127183"><ele>489.8</ele><time>2026-05-03T11:35:23.648Z</time></trkpt><trkpt lat="43.3496517" lon="11.6125933"><ele>488.6</ele><time>2026-05-03T11:35:24.645Z</time></trkpt><trkpt lat="43.3496767" lon="11.6124633"><ele>487.4</ele><time>2026-05-03T11:35:25.644Z</time></trkpt><trkpt lat="43.349705" lon="11.612335"><ele>486.2</ele><time>2026-05-03T11:35:26.631Z</time></trkpt><trkpt lat="43.349735" lon="11.6122267"><ele>485.0</ele><time>2026-05-03T11:35:27.641Z</time></trkpt><trkpt lat="43.34977" lon="11.6121217"><ele>483.99999999999994</ele><time>2026-05-03T11:35:28.641Z</time></trkpt><trkpt lat="43.34981" lon="11.612015"><ele>483.0</ele><time>2026-05-03T11:35:29.66Z</time></trkpt><trkpt lat="43.3498517" lon="11.6119183"><ele>482.0</ele><time>2026-05-03T11:35:30.647Z</time></trkpt><trkpt lat="43.3498983" lon="11.61183"><ele>481.0</ele><time>2026-05-03T11:35:31.646Z</time></trkpt><trkpt lat="43.3499483" lon="11.6117467"><ele>479.99999999999994</ele><time>2026-05-03T11:35:32.636Z</time></trkpt><trkpt lat="43.349995" lon="11.611675"><ele>479.0</ele><time>2026-05-03T11:35:33.642Z</time></trkpt><trkpt lat="43.3500467" lon="11.6116183"><ele>478.49999999999994</ele><time>2026-05-03T11:35:34.636Z</time></trkpt><trkpt lat="43.3501017" lon="11.6115717"><ele>478.0</ele><time>2026-05-03T11:35:35.637Z</time></trkpt><trkpt lat="43.3501717" lon="11.611525"><ele>477.5</ele><time>2026-05-03T11:35:36.646Z</time></trkpt><trkpt lat="43.35025" lon="11.6114883"><ele>477.0</ele><time>2026-05-03T11:35:37.641Z</time></trkpt><trkpt lat="43.35033" lon="11.6114567"><ele>476.49999999999994</ele><time>2026-05-03T11:35:38.652Z</time></trkpt><trkpt lat="43.3504183" lon="11.6114133"><ele>476.0</ele><time>2026-05-03T11:35:39.648Z</time></trkpt><trkpt lat="43.3505183" lon="11.6113617"><ele>474.6</ele><time>2026-05-03T11:35:40.647Z</time></trkpt><trkpt lat="43.3506183" lon="11.6113067"><ele>473.20000000000005</ele><time>2026-05-03T11:35:41.636Z</time></trkpt><trkpt lat="43.35072" lon="11.6112517"><ele>471.79999999999995</ele><time>2026-05-03T11:35:42.649Z</time></trkpt><trkpt lat="43.3508183" lon="11.6111917"><ele>470.4</ele><time>2026-05-03T11:35:43.662Z</time></trkpt><trkpt lat="43.3509217" lon="11.6111283"><ele>469.0</ele><time>2026-05-03T11:35:44.682Z</time></trkpt><trkpt lat="43.35102" lon="11.61107"><ele>468.2</ele><time>2026-05-03T11:35:45.637Z</time></trkpt><trkpt lat="43.351125" lon="11.6110183"><ele>467.4</ele><time>2026-05-03T11:35:46.68Z</time></trkpt><trkpt lat="43.3512183" lon="11.6109633"><ele>466.6</ele><time>2026-05-03T11:35:47.659Z</time></trkpt><trkpt lat="43.351305" lon="11.6108967"><ele>465.8</ele><time>2026-05-03T11:35:48.663Z</time></trkpt><trkpt lat="43.3513833" lon="11.6108217"><ele>465.0</ele><time>2026-05-03T11:35:49.64Z</time></trkpt><trkpt lat="43.3514583" lon="11.6107333"><ele>465.0</ele><time>2026-05-03T11:35:50.644Z</time></trkpt><trkpt lat="43.3515267" lon="11.6106167"><ele>465.0</ele><time>2026-05-03T11:35:51.642Z</time></trkpt><trkpt lat="43.3516017" lon="11.6105083"><ele>465.0</ele><time>2026-05-03T11:35:52.641Z</time></trkpt><trkpt lat="43.351675" lon="11.6103933"><ele>465.0</ele><time>2026-05-03T11:35:53.652Z</time></trkpt><trkpt lat="43.3517383" lon="11.610265"><ele>465.0</ele><time>2026-05-03T11:35:54.638Z</time></trkpt><trkpt lat="43.3517967" lon="11.610145"><ele>465.2</ele><time>2026-05-03T11:35:55.649Z</time></trkpt><trkpt lat="43.3518417" lon="11.610015"><ele>465.4</ele><time>2026-05-03T11:35:56.645Z</time></trkpt><trkpt lat="43.35188" lon="11.609875"><ele>465.6</ele><time>2026-05-03T11:35:57.641Z</time></trkpt><trkpt lat="43.3519083" lon="11.6097233"><ele>465.8</ele><time>2026-05-03T11:35:58.638Z</time></trkpt><trkpt lat="43.35193" lon="11.60958"><ele>466.0</ele><time>2026-05-03T11:35:59.646Z</time></trkpt><trkpt lat="43.35196" lon="11.6094333"><ele>466.4</ele><time>2026-05-03T11:36:00.659Z</time></trkpt><trkpt lat="43.3519933" lon="11.6093"><ele>466.8</ele><time>2026-05-03T11:36:01.637Z</time></trkpt><trkpt lat="43.3520217" lon="11.609175"><ele>467.19999999999993</ele><time>2026-05-03T11:36:02.648Z</time></trkpt><trkpt lat="43.3520467" lon="11.609065"><ele>467.59999999999997</ele><time>2026-05-03T11:36:03.642Z</time></trkpt><trkpt lat="43.352085" lon="11.6089633"><ele>468.0</ele><time>2026-05-03T11:36:04.634Z</time></trkpt><trkpt lat="43.3521383" lon="11.6088583"><ele>468.0</ele><time>2026-05-03T11:36:05.643Z</time></trkpt><trkpt lat="43.3522033" lon="11.6087567"><ele>468.0</ele><time>2026-05-03T11:36:06.64Z</time></trkpt><trkpt lat="43.35227" lon="11.6086767"><ele>468.0</ele><time>2026-05-03T11:36:07.667Z</time></trkpt><trkpt lat="43.3523233" lon="11.6085967"><ele>468.0</ele><time>2026-05-03T11:36:08.64Z</time></trkpt><trkpt lat="43.3523633" lon="11.608505"><ele>468.0</ele><time>2026-05-03T11:36:09.643Z</time></trkpt><trkpt lat="43.3523817" lon="11.608415"><ele>468.0</ele><time>2026-05-03T11:36:10.642Z</time></trkpt><trkpt lat="43.3523817" lon="11.6083"><ele>468.3333333333333</ele><time>2026-05-03T11:36:11.648Z</time></trkpt><trkpt lat="43.352375" lon="11.6081783"><ele>468.66666666666663</ele><time>2026-05-03T11:36:12.657Z</time></trkpt><trkpt lat="43.3523617" lon="11.6080633"><ele>469.0</ele><time>2026-05-03T11:36:13.642Z</time></trkpt><trkpt lat="43.3523367" lon="11.607965"><ele>469.3333333333333</ele><time>2026-05-03T11:36:14.652Z</time></trkpt><trkpt lat="43.3523067" lon="11.6078633"><ele>469.66666666666663</ele><time>2026-05-03T11:36:15.638Z</time></trkpt><trkpt lat="43.3522717" lon="11.60776"><ele>470.0</ele><time>2026-05-03T11:36:16.64Z</time></trkpt><trkpt lat="43.3522333" lon="11.6076733"><ele>472.0</ele><time>2026-05-03T11:36:17.645Z</time></trkpt><trkpt lat="43.3521917" lon="11.607565"><ele>474.0</ele><time>2026-05-03T11:36:18.637Z</time></trkpt><trkpt lat="43.3521533" lon="11.6074517"><ele>476.0</ele><time>2026-05-03T11:36:19.657Z</time></trkpt><trkpt lat="43.3521233" lon="11.6073417"><ele>478.0</ele><time>2026-05-03T11:36:20.644Z</time></trkpt><trkpt lat="43.3520883" lon="11.6072133"><ele>480.0</ele><time>2026-05-03T11:36:21.634Z</time></trkpt><trkpt lat="43.3520583" lon="11.6070933"><ele>481.0</ele><time>2026-05-03T11:36:22.642Z</time></trkpt><trkpt lat="43.3520283" lon="11.60698"><ele>482.0</ele><time>2026-05-03T11:36:23.646Z</time></trkpt><trkpt lat="43.3520017" lon="11.6068633"><ele>483.0</ele><time>2026-05-03T11:36:24.642Z</time></trkpt><trkpt lat="43.35198" lon="11.6067417"><ele>484.0</ele><time>2026-05-03T11:36:25.647Z</time></trkpt><trkpt lat="43.351965" lon="11.606625"><ele>485.0</ele><time>2026-05-03T11:36:26.642Z</time></trkpt><trkpt lat="43.3519633" lon="11.6065183"><ele>486.0</ele><time>2026-05-03T11:36:27.641Z</time></trkpt><trkpt lat="43.3519917" lon="11.6064283"><ele>486.0</ele><time>2026-05-03T11:36:28.644Z</time></trkpt><trkpt lat="43.3520417" lon="11.6063383"><ele>486.0</ele><time>2026-05-03T11:36:29.646Z</time></trkpt><trkpt lat="43.3521" lon="11.6062667"><ele>486.0</ele><time>2026-05-03T11:36:30.65Z</time></trkpt><trkpt lat="43.352165" lon="11.6062083"><ele>486.0</ele><time>2026-05-03T11:36:31.639Z</time></trkpt><trkpt lat="43.35224" lon="11.60615"><ele>486.0</ele><time>2026-05-03T11:36:32.643Z</time></trkpt><trkpt lat="43.3523233" lon="11.6061067"><ele>486.0</ele><time>2026-05-03T11:36:33.641Z</time></trkpt><trkpt lat="43.3524" lon="11.6060833"><ele>487.20000000000005</ele><time>2026-05-03T11:36:34.641Z</time></trkpt><trkpt lat="43.3524967" lon="11.6060883"><ele>488.40000000000003</ele><time>2026-05-03T11:36:35.651Z</time></trkpt><trkpt lat="43.352595" lon="11.6061033"><ele>489.6</ele><time>2026-05-03T11:36:36.645Z</time></trkpt><trkpt lat="43.35268" lon="11.60611"><ele>490.8</ele><time>2026-05-03T11:36:37.65Z</time></trkpt><trkpt lat="43.352755" lon="11.6061"><ele>492.0</ele><time>2026-05-03T11:36:38.643Z</time></trkpt><trkpt lat="43.3528717" lon="11.6060333"><ele>492.0</ele><time>2026-05-03T11:36:40.638Z</time></trkpt><trkpt lat="43.3529183" lon="11.605965"><ele>492.0</ele><time>2026-05-03T11:36:41.641Z</time></trkpt><trkpt lat="43.3529333" lon="11.6058767"><ele>492.0</ele><time>2026-05-03T11:36:42.644Z</time></trkpt><trkpt lat="43.352945" lon="11.6057783"><ele>492.0</ele><time>2026-05-03T11:36:43.645Z</time></trkpt><trkpt lat="43.3529517" lon="11.6056717"><ele>492.0</ele><time>2026-05-03T11:36:44.636Z</time></trkpt><trkpt lat="43.3529633" lon="11.6055483"><ele>492.0</ele><time>2026-05-03T11:36:45.66Z</time></trkpt><trkpt lat="43.3529683" lon="11.6054417"><ele>492.00000000000006</ele><time>2026-05-03T11:36:46.638Z</time></trkpt><trkpt lat="43.352955" lon="11.605345"><ele>492.0</ele><time>2026-05-03T11:36:47.644Z</time></trkpt><trkpt lat="43.352935" lon="11.60526"><ele>492.00000000000006</ele><time>2026-05-03T11:36:48.645Z</time></trkpt><trkpt lat="43.35291" lon="11.6051633"><ele>492.00000000000006</ele><time>2026-05-03T11:36:49.641Z</time></trkpt><trkpt lat="43.3528933" lon="11.60506"><ele>492.0</ele><time>2026-05-03T11:36:50.638Z</time></trkpt><trkpt lat="43.352885" lon="11.604955"><ele>492.00000000000006</ele><time>2026-05-03T11:36:51.659Z</time></trkpt><trkpt lat="43.3528867" lon="11.6048517"><ele>492.00000000000006</ele><time>2026-05-03T11:36:52.641Z</time></trkpt><trkpt lat="43.3528883" lon="11.6047433"><ele>492.0</ele><time>2026-05-03T11:36:53.642Z</time></trkpt><trkpt lat="43.3529033" lon="11.6046367"><ele>492.0</ele><time>2026-05-03T11:36:54.639Z</time></trkpt><trkpt lat="43.3529267" lon="11.6045317"><ele>492.0</ele><time>2026-05-03T11:36:55.641Z</time></trkpt><trkpt lat="43.3529583" lon="11.604435"><ele>492.0</ele><time>2026-05-03T11:36:56.636Z</time></trkpt><trkpt lat="43.3529983" lon="11.60434"><ele>492.0</ele><time>2026-05-03T11:36:57.642Z</time></trkpt><trkpt lat="43.3530333" lon="11.6042517"><ele>492.0</ele><time>2026-05-03T11:36:58.642Z</time></trkpt><trkpt lat="43.3530683" lon="11.60416"><ele>492.0</ele><time>2026-05-03T11:36:59.64Z</time></trkpt><trkpt lat="43.353095" lon="11.6040667"><ele>492.0</ele><time>2026-05-03T11:37:00.638Z</time></trkpt><trkpt lat="43.3530967" lon="11.6039783"><ele>492.0</ele><time>2026-05-03T11:37:01.632Z</time></trkpt><trkpt lat="43.353085" lon="11.6038917"><ele>492.0</ele><time>2026-05-03T11:37:02.641Z</time></trkpt><trkpt lat="43.3530267" lon="11.6037617"><ele>492.0</ele><time>2026-05-03T11:37:04.659Z</time></trkpt><trkpt lat="43.3529817" lon="11.6036933"><ele>492.0</ele><time>2026-05-03T11:37:05.642Z</time></trkpt><trkpt lat="43.3529233" lon="11.6036233"><ele>494.1666666666667</ele><time>2026-05-03T11:37:06.638Z</time></trkpt><trkpt lat="43.3528733" lon="11.6035533"><ele>496.33333333333337</ele><time>2026-05-03T11:37:07.64Z</time></trkpt><trkpt lat="43.3528167" lon="11.6034117"><ele>498.5</ele><time>2026-05-03T11:37:09.64Z</time></trkpt><trkpt lat="43.352825" lon="11.6032683"><ele>500.6666666666667</ele><time>2026-05-03T11:37:11.643Z</time></trkpt><trkpt lat="43.3528517" lon="11.6031867"><ele>502.83333333333337</ele><time>2026-05-03T11:37:12.646Z</time></trkpt><trkpt lat="43.35288" lon="11.6030883"><ele>505.0</ele><time>2026-05-03T11:37:13.632Z</time></trkpt><trkpt lat="43.3529083" lon="11.6029817"><ele>505.00000000000006</ele><time>2026-05-03T11:37:14.641Z</time></trkpt><trkpt lat="43.35293" lon="11.6028683"><ele>505.0</ele><time>2026-05-03T11:37:15.642Z</time></trkpt><trkpt lat="43.352955" lon="11.60275"><ele>505.0</ele><time>2026-05-03T11:37:16.645Z</time></trkpt><trkpt lat="43.3529717" lon="11.60263"><ele>505.0</ele><time>2026-05-03T11:37:17.653Z</time></trkpt><trkpt lat="43.3529783" lon="11.602505"><ele>505.00000000000006</ele><time>2026-05-03T11:37:18.641Z</time></trkpt><trkpt lat="43.352975" lon="11.6023767"><ele>505.0</ele><time>2026-05-03T11:37:19.64Z</time></trkpt><trkpt lat="43.3529567" lon="11.6022417"><ele>505.8</ele><time>2026-05-03T11:37:20.647Z</time></trkpt><trkpt lat="43.3529383" lon="11.6021017"><ele>506.6</ele><time>2026-05-03T11:37:21.641Z</time></trkpt><trkpt lat="43.352915" lon="11.6019483"><ele>507.4</ele><time>2026-05-03T11:37:22.647Z</time></trkpt><trkpt lat="43.3529017" lon="11.6018083"><ele>508.2</ele><time>2026-05-03T11:37:23.647Z</time></trkpt><trkpt lat="43.3528883" lon="11.60166"><ele>509.0</ele><time>2026-05-03T11:37:24.647Z</time></trkpt><trkpt lat="43.3528817" lon="11.60152"><ele>508.6</ele><time>2026-05-03T11:37:25.644Z</time></trkpt><trkpt lat="43.352885" lon="11.601385"><ele>508.2</ele><time>2026-05-03T11:37:26.644Z</time></trkpt><trkpt lat="43.3528867" lon="11.601245"><ele>507.80000000000007</ele><time>2026-05-03T11:37:27.638Z</time></trkpt><trkpt lat="43.3528917" lon="11.60111"><ele>507.40000000000003</ele><time>2026-05-03T11:37:28.638Z</time></trkpt><trkpt lat="43.3528967" lon="11.6009867"><ele>507.0</ele><time>2026-05-03T11:37:29.663Z</time></trkpt><trkpt lat="43.3529183" lon="11.6008667"><ele>507.0</ele><time>2026-05-03T11:37:30.652Z</time></trkpt><trkpt lat="43.3529517" lon="11.6007417"><ele>507.00000000000006</ele><time>2026-05-03T11:37:31.641Z</time></trkpt><trkpt lat="43.3530067" lon="11.6006117"><ele>507.00000000000006</ele><time>2026-05-03T11:37:32.64Z</time></trkpt><trkpt lat="43.353065" lon="11.6004933"><ele>507.0</ele><time>2026-05-03T11:37:33.644Z</time></trkpt><trkpt lat="43.35313" lon="11.6003767"><ele>507.0</ele><time>2026-05-03T11:37:34.646Z</time></trkpt><trkpt lat="43.3531933" lon="11.60028"><ele>506.40000000000003</ele><time>2026-05-03T11:37:35.644Z</time></trkpt><trkpt lat="43.3532633" lon="11.60019"><ele>505.80000000000007</ele><time>2026-05-03T11:37:36.653Z</time></trkpt><trkpt lat="43.353325" lon="11.6001033"><ele>505.2</ele><time>2026-05-03T11:37:37.647Z</time></trkpt><trkpt lat="43.3533817" lon="11.6"><ele>504.6</ele><time>2026-05-03T11:37:38.647Z</time></trkpt><trkpt lat="43.3534283" lon="11.5998817"><ele>504.0</ele><time>2026-05-03T11:37:39.643Z</time></trkpt><trkpt lat="43.3534483" lon="11.59977"><ele>504.0</ele><time>2026-05-03T11:37:40.633Z</time></trkpt><trkpt lat="43.3534567" lon="11.5996633"><ele>504.0</ele><time>2026-05-03T11:37:41.642Z</time></trkpt><trkpt lat="43.3534567" lon="11.599555"><ele>504.0</ele><time>2026-05-03T11:37:42.643Z</time></trkpt><trkpt lat="43.3534433" lon="11.599415"><ele>504.0</ele><time>2026-05-03T11:37:43.64Z</time></trkpt><trkpt lat="43.3534283" lon="11.5992783"><ele>504.0</ele><time>2026-05-03T11:37:44.664Z</time></trkpt><trkpt lat="43.35341" lon="11.59914"><ele>503.0</ele><time>2026-05-03T11:37:45.638Z</time></trkpt><trkpt lat="43.35339" lon="11.599"><ele>502.0</ele><time>2026-05-03T11:37:46.637Z</time></trkpt><trkpt lat="43.3533733" lon="11.5988733"><ele>501.0</ele><time>2026-05-03T11:37:47.636Z</time></trkpt><trkpt lat="43.35337" lon="11.5987533"><ele>500.0</ele><time>2026-05-03T11:37:48.646Z</time></trkpt><trkpt lat="43.35337" lon="11.5986433"><ele>499.0</ele><time>2026-05-03T11:37:49.636Z</time></trkpt><trkpt lat="43.3533767" lon="11.59854"><ele>498.0</ele><time>2026-05-03T11:37:50.636Z</time></trkpt><trkpt lat="43.3533817" lon="11.5984533"><ele>496.79999999999995</ele><time>2026-05-03T11:37:51.652Z</time></trkpt><trkpt lat="43.3534033" lon="11.5983367"><ele>495.59999999999997</ele><time>2026-05-03T11:37:53.665Z</time></trkpt><trkpt lat="43.3534933" lon="11.5982767"><ele>494.40000000000003</ele><time>2026-05-03T11:37:56.636Z</time></trkpt><trkpt lat="43.3536217" lon="11.598295"><ele>493.20000000000005</ele><time>2026-05-03T11:37:58.647Z</time></trkpt><trkpt lat="43.3536933" lon="11.5983083"><ele>492.0</ele><time>2026-05-03T11:37:59.646Z</time></trkpt><trkpt lat="43.3537683" lon="11.5983133"><ele>492.0</ele><time>2026-05-03T11:38:00.647Z</time></trkpt><trkpt lat="43.3538467" lon="11.5983233"><ele>492.0</ele><time>2026-05-03T11:38:01.64Z</time></trkpt><trkpt lat="43.3539233" lon="11.5983367"><ele>492.0</ele><time>2026-05-03T11:38:02.661Z</time></trkpt><trkpt lat="43.3539933" lon="11.59834"><ele>492.0</ele><time>2026-05-03T11:38:03.64Z</time></trkpt><trkpt lat="43.3541183" lon="11.59834"><ele>492.0</ele><time>2026-05-03T11:38:05.654Z</time></trkpt><trkpt lat="43.3541833" lon="11.5983333"><ele>492.0</ele><time>2026-05-03T11:38:06.643Z</time></trkpt><trkpt lat="43.3542467" lon="11.5983167"><ele>492.3333333333333</ele><time>2026-05-03T11:38:07.646Z</time></trkpt><trkpt lat="43.3543167" lon="11.5982717"><ele>492.66666666666663</ele><time>2026-05-03T11:38:08.643Z</time></trkpt><trkpt lat="43.354395" lon="11.5982083"><ele>493.0</ele><time>2026-05-03T11:38:09.644Z</time></trkpt><trkpt lat="43.3544667" lon="11.59814"><ele>493.3333333333333</ele><time>2026-05-03T11:38:10.665Z</time></trkpt><trkpt lat="43.35454" lon="11.5980717"><ele>493.66666666666663</ele><time>2026-05-03T11:38:11.65Z</time></trkpt><trkpt lat="43.3546117" lon="11.5980083"><ele>494.0</ele><time>2026-05-03T11:38:12.635Z</time></trkpt><trkpt lat="43.35468" lon="11.5979567"><ele>494.0</ele><time>2026-05-03T11:38:13.649Z</time></trkpt><trkpt lat="43.354735" lon="11.5979017"><ele>494.0</ele><time>2026-05-03T11:38:14.646Z</time></trkpt><trkpt lat="43.3548283" lon="11.5978067"><ele>494.0</ele><time>2026-05-03T11:38:16.649Z</time></trkpt><trkpt lat="43.3549317" lon="11.5977067"><ele>494.0</ele><time>2026-05-03T11:38:18.634Z</time></trkpt><trkpt lat="43.3549933" lon="11.5976517"><ele>494.0</ele><time>2026-05-03T11:38:19.637Z</time></trkpt><trkpt lat="43.3551017" lon="11.597565"><ele>492.6</ele><time>2026-05-03T11:38:21.648Z</time></trkpt><trkpt lat="43.3552033" lon="11.59747"><ele>491.2</ele><time>2026-05-03T11:38:23.638Z</time></trkpt><trkpt lat="43.3553183" lon="11.597435"><ele>489.80000000000007</ele><time>2026-05-03T11:38:25.642Z</time></trkpt><trkpt lat="43.35543" lon="11.5975"><ele>488.40000000000003</ele><time>2026-05-03T11:38:27.647Z</time></trkpt><trkpt lat="43.3554833" lon="11.5975717"><ele>487.0</ele><time>2026-05-03T11:38:28.646Z</time></trkpt><trkpt lat="43.3555533" lon="11.5976433"><ele>486.8</ele><time>2026-05-03T11:38:29.638Z</time></trkpt><trkpt lat="43.3556283" lon="11.59772"><ele>486.6</ele><time>2026-05-03T11:38:30.652Z</time></trkpt><trkpt lat="43.3557133" lon="11.5978"><ele>486.40000000000003</ele><time>2026-05-03T11:38:31.644Z</time></trkpt><trkpt lat="43.355805" lon="11.597865"><ele>486.20000000000005</ele><time>2026-05-03T11:38:32.647Z</time></trkpt><trkpt lat="43.3558783" lon="11.5979333"><ele>486.0</ele><time>2026-05-03T11:38:33.653Z</time></trkpt><trkpt lat="43.35595" lon="11.5979933"><ele>486.0</ele><time>2026-05-03T11:38:34.666Z</time></trkpt><trkpt lat="43.3560033" lon="11.5980483"><ele>486.0</ele><time>2026-05-03T11:38:35.646Z</time></trkpt><trkpt lat="43.3560983" lon="11.5981"><ele>486.0</ele><time>2026-05-03T11:38:37.703Z</time></trkpt><trkpt lat="43.356205" lon="11.5980533"><ele>486.0</ele><time>2026-05-03T11:38:39.666Z</time></trkpt><trkpt lat="43.3562683" lon="11.598015"><ele>486.0</ele><time>2026-05-03T11:38:40.654Z</time></trkpt><trkpt lat="43.3563383" lon="11.59798"><ele>486.0</ele><time>2026-05-03T11:38:41.66Z</time></trkpt><trkpt lat="43.3564233" lon="11.5979283"><ele>485.3333333333333</ele><time>2026-05-03T11:38:42.634Z</time></trkpt><trkpt lat="43.3565033" lon="11.5978817"><ele>484.66666666666663</ele><time>2026-05-03T11:38:43.668Z</time></trkpt><trkpt lat="43.3565817" lon="11.597835"><ele>484.0</ele><time>2026-05-03T11:38:44.664Z</time></trkpt><trkpt lat="43.3566617" lon="11.5977833"><ele>483.3333333333333</ele><time>2026-05-03T11:38:45.655Z</time></trkpt><trkpt lat="43.3567367" lon="11.5977317"><ele>482.66666666666663</ele><time>2026-05-03T11:38:46.661Z</time></trkpt><trkpt lat="43.3568067" lon="11.597685"><ele>482.0</ele><time>2026-05-03T11:38:47.654Z</time></trkpt><trkpt lat="43.356875" lon="11.59764"><ele>481.0</ele><time>2026-05-03T11:38:48.648Z</time></trkpt><trkpt lat="43.35694" lon="11.5975833"><ele>480.00000000000006</ele><time>2026-05-03T11:38:49.646Z</time></trkpt><trkpt lat="43.356995" lon="11.59753"><ele>479.00000000000006</ele><time>2026-05-03T11:38:50.649Z</time></trkpt><trkpt lat="43.3570917" lon="11.5974117"><ele>478.0</ele><time>2026-05-03T11:38:52.657Z</time></trkpt><trkpt lat="43.3571683" lon="11.597295"><ele>477.0</ele><time>2026-05-03T11:38:54.654Z</time></trkpt><trkpt lat="43.35721" lon="11.5972067"><ele>477.0</ele><time>2026-05-03T11:38:55.653Z</time></trkpt><trkpt lat="43.3572433" lon="11.597115"><ele>477.0</ele><time>2026-05-03T11:38:56.648Z</time></trkpt><trkpt lat="43.3572733" lon="11.5970083"><ele>477.0</ele><time>2026-05-03T11:38:57.663Z</time></trkpt><trkpt lat="43.357305" lon="11.59689"><ele>477.0</ele><time>2026-05-03T11:38:58.646Z</time></trkpt><trkpt lat="43.3573283" lon="11.5967667"><ele>477.0</ele><time>2026-05-03T11:38:59.645Z</time></trkpt><trkpt lat="43.3573583" lon="11.5966517"><ele>477.0</ele><time>2026-05-03T11:39:00.651Z</time></trkpt><trkpt lat="43.3573967" lon="11.5965233"><ele>476.5</ele><time>2026-05-03T11:39:01.643Z</time></trkpt><trkpt lat="43.3574283" lon="11.5964033"><ele>476.0</ele><time>2026-05-03T11:39:02.652Z</time></trkpt><trkpt lat="43.357455" lon="11.5962867"><ele>475.5</ele><time>2026-05-03T11:39:03.645Z</time></trkpt><trkpt lat="43.3574867" lon="11.596175"><ele>475.0</ele><time>2026-05-03T11:39:04.644Z</time></trkpt><trkpt lat="43.3575133" lon="11.59607"><ele>474.5</ele><time>2026-05-03T11:39:05.649Z</time></trkpt><trkpt lat="43.357545" lon="11.5959717"><ele>474.0</ele><time>2026-05-03T11:39:06.656Z</time></trkpt><trkpt lat="43.3575883" lon="11.5958933"><ele>473.1666666666667</ele><time>2026-05-03T11:39:07.656Z</time></trkpt><trkpt lat="43.3576833" lon="11.5957733"><ele>472.33333333333337</ele><time>2026-05-03T11:39:09.648Z</time></trkpt><trkpt lat="43.3577483" lon="11.595715"><ele>471.5</ele><time>2026-05-03T11:39:10.644Z</time></trkpt><trkpt lat="43.35781" lon="11.5956533"><ele>470.6666666666667</ele><time>2026-05-03T11:39:11.641Z</time></trkpt><trkpt lat="43.3578717" lon="11.595595"><ele>469.83333333333337</ele><time>2026-05-03T11:39:12.656Z</time></trkpt><trkpt lat="43.3579417" lon="11.5955233"><ele>469.0</ele><time>2026-05-03T11:39:13.644Z</time></trkpt><trkpt lat="43.3580033" lon="11.5954483"><ele>468.6666666666667</ele><time>2026-05-03T11:39:14.653Z</time></trkpt><trkpt lat="43.3580533" lon="11.595365"><ele>468.33333333333337</ele><time>2026-05-03T11:39:15.657Z</time></trkpt><trkpt lat="43.3581067" lon="11.5953033"><ele>468.0</ele><time>2026-05-03T11:39:16.656Z</time></trkpt><trkpt lat="43.358165" lon="11.5952467"><ele>467.66666666666663</ele><time>2026-05-03T11:39:17.64Z</time></trkpt><trkpt lat="43.35826" lon="11.5951467"><ele>467.3333333333333</ele><time>2026-05-03T11:39:19.638Z</time></trkpt><trkpt lat="43.3583517" lon="11.5950733"><ele>467.0</ele><time>2026-05-03T11:39:21.649Z</time></trkpt><trkpt lat="43.3584783" lon="11.5950383"><ele>466.99999999999994</ele><time>2026-05-03T11:39:23.661Z</time></trkpt><trkpt lat="43.35856" lon="11.5950317"><ele>467.0</ele><time>2026-05-03T11:39:24.645Z</time></trkpt><trkpt lat="43.358635" lon="11.5950133"><ele>467.0</ele><time>2026-05-03T11:39:25.644Z</time></trkpt><trkpt lat="43.3587017" lon="11.59498"><ele>467.0</ele><time>2026-05-03T11:39:26.64Z</time></trkpt><trkpt lat="43.358765" lon="11.5949383"><ele>466.99999999999994</ele><time>2026-05-03T11:39:27.646Z</time></trkpt><trkpt lat="43.3588217" lon="11.5948733"><ele>467.0</ele><time>2026-05-03T11:39:28.637Z</time></trkpt><trkpt lat="43.35887" lon="11.594785"><ele>467.0</ele><time>2026-05-03T11:39:29.651Z</time></trkpt><trkpt lat="43.3589083" lon="11.594675"><ele>467.00000000000006</ele><time>2026-05-03T11:39:30.651Z</time></trkpt><trkpt lat="43.3589517" lon="11.5945367"><ele>467.00000000000006</ele><time>2026-05-03T11:39:31.647Z</time></trkpt><trkpt lat="43.3589867" lon="11.59439"><ele>467.0</ele><time>2026-05-03T11:39:32.641Z</time></trkpt><trkpt lat="43.35902" lon="11.5942367"><ele>467.0</ele><time>2026-05-03T11:39:33.643Z</time></trkpt><trkpt lat="43.3590617" lon="11.5940783"><ele>466.40000000000003</ele><time>2026-05-03T11:39:34.646Z</time></trkpt><trkpt lat="43.35911" lon="11.59393"><ele>465.80000000000007</ele><time>2026-05-03T11:39:35.65Z</time></trkpt><trkpt lat="43.3591567" lon="11.593785"><ele>465.2</ele><time>2026-05-03T11:39:36.653Z</time></trkpt><trkpt lat="43.3592033" lon="11.59365"><ele>464.6</ele><time>2026-05-03T11:39:37.658Z</time></trkpt><trkpt lat="43.3592317" lon="11.593525"><ele>464.0</ele><time>2026-05-03T11:39:38.649Z</time></trkpt><trkpt lat="43.3592583" lon="11.593405"><ele>462.6</ele><time>2026-05-03T11:39:39.695Z</time></trkpt><trkpt lat="43.3592867" lon="11.5932767"><ele>461.2</ele><time>2026-05-03T11:39:40.648Z</time></trkpt><trkpt lat="43.35932" lon="11.5931583"><ele>459.80000000000007</ele><time>2026-05-03T11:39:41.643Z</time></trkpt><trkpt lat="43.3593617" lon="11.5930483"><ele>458.40000000000003</ele><time>2026-05-03T11:39:42.642Z</time></trkpt><trkpt lat="43.35941" lon="11.592965"><ele>457.0</ele><time>2026-05-03T11:39:43.641Z</time></trkpt><trkpt lat="43.359495" lon="11.5928317"><ele>456.20000000000005</ele><time>2026-05-03T11:39:45.642Z</time></trkpt><trkpt lat="43.3596117" lon="11.5927683"><ele>455.40000000000003</ele><time>2026-05-03T11:39:47.632Z</time></trkpt><trkpt lat="43.3596917" lon="11.5927533"><ele>454.59999999999997</ele><time>2026-05-03T11:39:48.638Z</time></trkpt><trkpt lat="43.35977" lon="11.5927317"><ele>453.79999999999995</ele><time>2026-05-03T11:39:49.638Z</time></trkpt><trkpt lat="43.3598517" lon="11.5927083"><ele>453.0</ele><time>2026-05-03T11:39:50.639Z</time></trkpt><trkpt lat="43.3599433" lon="11.592685"><ele>453.0</ele><time>2026-05-03T11:39:51.646Z</time></trkpt><trkpt lat="43.3600283" lon="11.59267"><ele>453.0</ele><time>2026-05-03T11:39:52.64Z</time></trkpt><trkpt lat="43.3601117" lon="11.59267"><ele>453.0</ele><time>2026-05-03T11:39:53.664Z</time></trkpt><trkpt lat="43.3601867" lon="11.5926867"><ele>453.0</ele><time>2026-05-03T11:39:54.645Z</time></trkpt><trkpt lat="43.360265" lon="11.5927167"><ele>453.0</ele><time>2026-05-03T11:39:55.642Z</time></trkpt><trkpt lat="43.3603417" lon="11.592775"><ele>453.0</ele><time>2026-05-03T11:39:56.634Z</time></trkpt><trkpt lat="43.3604133" lon="11.592835"><ele>454.8333333333333</ele><time>2026-05-03T11:39:57.649Z</time></trkpt><trkpt lat="43.3604783" lon="11.5928917"><ele>456.66666666666663</ele><time>2026-05-03T11:39:58.641Z</time></trkpt><trkpt lat="43.360545" lon="11.5929417"><ele>458.5</ele><time>2026-05-03T11:39:59.637Z</time></trkpt><trkpt lat="43.3606217" lon="11.5929733"><ele>460.3333333333333</ele><time>2026-05-03T11:40:00.646Z</time></trkpt><trkpt lat="43.360705" lon="11.5929867"><ele>462.16666666666663</ele><time>2026-05-03T11:40:01.652Z</time></trkpt><trkpt lat="43.3607933" lon="11.5929883"><ele>464.0</ele><time>2026-05-03T11:40:02.642Z</time></trkpt><trkpt lat="43.3608867" lon="11.592995"><ele>463.99999999999994</ele><time>2026-05-03T11:40:03.654Z</time></trkpt><trkpt lat="43.3609717" lon="11.5930133"><ele>464.0</ele><time>2026-05-03T11:40:04.645Z</time></trkpt><trkpt lat="43.3610567" lon="11.5930433"><ele>464.0</ele><time>2026-05-03T11:40:05.656Z</time></trkpt><trkpt lat="43.3611383" lon="11.5930917"><ele>464.0</ele><time>2026-05-03T11:40:06.654Z</time></trkpt><trkpt lat="43.3612117" lon="11.5931417"><ele>463.99999999999994</ele><time>2026-05-03T11:40:07.648Z</time></trkpt><trkpt lat="43.36128" lon="11.5932"><ele>464.0</ele><time>2026-05-03T11:40:08.684Z</time></trkpt><trkpt lat="43.36135" lon="11.59326"><ele>463.49999999999994</ele><time>2026-05-03T11:40:09.657Z</time></trkpt><trkpt lat="43.3614117" lon="11.5933383"><ele>463.0</ele><time>2026-05-03T11:40:10.653Z</time></trkpt><trkpt lat="43.36147" lon="11.59342"><ele>462.5</ele><time>2026-05-03T11:40:11.64Z</time></trkpt><trkpt lat="43.3615217" lon="11.593495"><ele>462.0</ele><time>2026-05-03T11:40:12.641Z</time></trkpt><trkpt lat="43.36158" lon="11.5935667"><ele>461.49999999999994</ele><time>2026-05-03T11:40:13.64Z</time></trkpt><trkpt lat="43.361645" lon="11.5936317"><ele>461.0</ele><time>2026-05-03T11:40:14.635Z</time></trkpt><trkpt lat="43.3617117" lon="11.5936983"><ele>460.99999999999994</ele><time>2026-05-03T11:40:15.669Z</time></trkpt><trkpt lat="43.3617783" lon="11.5937483"><ele>461.0</ele><time>2026-05-03T11:40:16.638Z</time></trkpt><trkpt lat="43.36184" lon="11.5938183"><ele>461.0</ele><time>2026-05-03T11:40:17.64Z</time></trkpt><trkpt lat="43.361885" lon="11.593895"><ele>461.0</ele><time>2026-05-03T11:40:18.648Z</time></trkpt><trkpt lat="43.3619167" lon="11.59399"><ele>460.99999999999994</ele><time>2026-05-03T11:40:19.653Z</time></trkpt><trkpt lat="43.3619417" lon="11.5940867"><ele>461.0</ele><time>2026-05-03T11:40:20.653Z</time></trkpt><trkpt lat="43.3619567" lon="11.5941917"><ele>461.0</ele><time>2026-05-03T11:40:21.645Z</time></trkpt><trkpt lat="43.3619833" lon="11.5943"><ele>461.0</ele><time>2026-05-03T11:40:22.64Z</time></trkpt><trkpt lat="43.3620183" lon="11.5943783"><ele>461.0</ele><time>2026-05-03T11:40:23.641Z</time></trkpt><trkpt lat="43.3620917" lon="11.59449"><ele>461.0</ele><time>2026-05-03T11:40:25.636Z</time></trkpt><trkpt lat="43.3622" lon="11.5945667"><ele>461.0</ele><time>2026-05-03T11:40:27.644Z</time></trkpt><trkpt lat="43.3622667" lon="11.5945883"><ele>460.8333333333333</ele><time>2026-05-03T11:40:28.644Z</time></trkpt><trkpt lat="43.3623333" lon="11.5945967"><ele>460.66666666666663</ele><time>2026-05-03T11:40:29.644Z</time></trkpt><trkpt lat="43.3624067" lon="11.5945867"><ele>460.5</ele><time>2026-05-03T11:40:30.654Z</time></trkpt><trkpt lat="43.3624817" lon="11.5945583"><ele>460.33333333333337</ele><time>2026-05-03T11:40:31.661Z</time></trkpt><trkpt lat="43.362575" lon="11.5945217"><ele>460.1666666666667</ele><time>2026-05-03T11:40:32.648Z</time></trkpt><trkpt lat="43.36267" lon="11.5944933"><ele>460.0</ele><time>2026-05-03T11:40:33.674Z</time></trkpt><trkpt lat="43.36276" lon="11.594475"><ele>457.2</ele><time>2026-05-03T11:40:34.646Z</time></trkpt><trkpt lat="43.36286" lon="11.594455"><ele>454.4</ele><time>2026-05-03T11:40:35.654Z</time></trkpt><trkpt lat="43.3629583" lon="11.59445"><ele>451.6</ele><time>2026-05-03T11:40:36.644Z</time></trkpt><trkpt lat="43.3630517" lon="11.594455"><ele>448.8</ele><time>2026-05-03T11:40:37.644Z</time></trkpt><trkpt lat="43.363145" lon="11.59448"><ele>446.0</ele><time>2026-05-03T11:40:38.645Z</time></trkpt><trkpt lat="43.3632367" lon="11.5945233"><ele>445.99999999999994</ele><time>2026-05-03T11:40:39.65Z</time></trkpt><trkpt lat="43.36332" lon="11.5945733"><ele>446.0</ele><time>2026-05-03T11:40:40.645Z</time></trkpt><trkpt lat="43.3633883" lon="11.5946133"><ele>446.0</ele><time>2026-05-03T11:40:41.661Z</time></trkpt><trkpt lat="43.3634467" lon="11.594655"><ele>446.0</ele><time>2026-05-03T11:40:42.642Z</time></trkpt><trkpt lat="43.3634983" lon="11.5947067"><ele>445.99999999999994</ele><time>2026-05-03T11:40:43.644Z</time></trkpt><trkpt lat="43.3635417" lon="11.594785"><ele>446.0</ele><time>2026-05-03T11:40:44.642Z</time></trkpt><trkpt lat="43.3635867" lon="11.5948817"><ele>445.99999999999994</ele><time>2026-05-03T11:40:45.641Z</time></trkpt><trkpt lat="43.3636217" lon="11.5949833"><ele>446.0</ele><time>2026-05-03T11:40:46.644Z</time></trkpt><trkpt lat="43.3636567" lon="11.5950683"><ele>446.0</ele><time>2026-05-03T11:40:47.645Z</time></trkpt><trkpt lat="43.3637283" lon="11.595195"><ele>446.0</ele><time>2026-05-03T11:40:49.634Z</time></trkpt><trkpt lat="43.3637867" lon="11.5952567"><ele>445.99999999999994</ele><time>2026-05-03T11:40:50.664Z</time></trkpt><trkpt lat="43.3638567" lon="11.5953067"><ele>446.0</ele><time>2026-05-03T11:40:51.647Z</time></trkpt><trkpt lat="43.3639417" lon="11.59535"><ele>443.99999999999994</ele><time>2026-05-03T11:40:52.637Z</time></trkpt><trkpt lat="43.364025" lon="11.5953967"><ele>442.0</ele><time>2026-05-03T11:40:53.643Z</time></trkpt><trkpt lat="43.3641017" lon="11.5954467"><ele>440.0</ele><time>2026-05-03T11:40:54.639Z</time></trkpt><trkpt lat="43.3641733" lon="11.5954833"><ele>438.0</ele><time>2026-05-03T11:40:55.651Z</time></trkpt><trkpt lat="43.3642517" lon="11.5955083"><ele>435.99999999999994</ele><time>2026-05-03T11:40:56.646Z</time></trkpt><trkpt lat="43.36434" lon="11.5955167"><ele>434.0</ele><time>2026-05-03T11:40:57.647Z</time></trkpt><trkpt lat="43.3644383" lon="11.5955033"><ele>434.0</ele><time>2026-05-03T11:40:58.663Z</time></trkpt><trkpt lat="43.3645467" lon="11.595465"><ele>434.0</ele><time>2026-05-03T11:40:59.657Z</time></trkpt><trkpt lat="43.3646517" lon="11.5954317"><ele>434.0</ele><time>2026-05-03T11:41:00.682Z</time></trkpt><trkpt lat="43.3647583" lon="11.5954"><ele>434.0</ele><time>2026-05-03T11:41:01.652Z</time></trkpt><trkpt lat="43.3648617" lon="11.59536"><ele>434.0</ele><time>2026-05-03T11:41:02.644Z</time></trkpt><trkpt lat="43.3649633" lon="11.5953217"><ele>433.0</ele><time>2026-05-03T11:41:03.643Z</time></trkpt><trkpt lat="43.3650533" lon="11.59528"><ele>432.0</ele><time>2026-05-03T11:41:04.639Z</time></trkpt><trkpt lat="43.3651483" lon="11.5952367"><ele>431.0</ele><time>2026-05-03T11:41:05.644Z</time></trkpt><trkpt lat="43.3652333" lon="11.5951867"><ele>430.0</ele><time>2026-05-03T11:41:06.646Z</time></trkpt><trkpt lat="43.36532" lon="11.59513"><ele>429.0</ele><time>2026-05-03T11:41:07.643Z</time></trkpt><trkpt lat="43.36541" lon="11.5950683"><ele>429.0</ele><time>2026-05-03T11:41:08.64Z</time></trkpt><trkpt lat="43.3654967" lon="11.5949967"><ele>429.0</ele><time>2026-05-03T11:41:09.643Z</time></trkpt><trkpt lat="43.3655833" lon="11.594905"><ele>429.0</ele><time>2026-05-03T11:41:10.636Z</time></trkpt><trkpt lat="43.365665" lon="11.5948083"><ele>429.0</ele><time>2026-05-03T11:41:11.642Z</time></trkpt><trkpt lat="43.3657417" lon="11.5947"><ele>429.0</ele><time>2026-05-03T11:41:12.642Z</time></trkpt><trkpt lat="43.365825" lon="11.5945867"><ele>431.0</ele><time>2026-05-03T11:41:13.644Z</time></trkpt><trkpt lat="43.36591" lon="11.5944783"><ele>433.0</ele><time>2026-05-03T11:41:14.64Z</time></trkpt><trkpt lat="43.3659967" lon="11.5943667"><ele>435.0</ele><time>2026-05-03T11:41:15.649Z</time></trkpt><trkpt lat="43.3660933" lon="11.5942517"><ele>437.0</ele><time>2026-05-03T11:41:16.637Z</time></trkpt><trkpt lat="43.3661883" lon="11.5941283"><ele>437.0</ele><time>2026-05-03T11:41:17.644Z</time></trkpt><trkpt lat="43.3662867" lon="11.5940117"><ele>437.00000000000006</ele><time>2026-05-03T11:41:18.647Z</time></trkpt><trkpt lat="43.3663667" lon="11.593925"><ele>437.00000000000006</ele><time>2026-05-03T11:41:19.645Z</time></trkpt><trkpt lat="43.3664383" lon="11.5938467"><ele>437.0</ele><time>2026-05-03T11:41:20.644Z</time></trkpt><trkpt lat="43.3664933" lon="11.59379"><ele>437.0</ele><time>2026-05-03T11:41:21.646Z</time></trkpt><trkpt lat="43.3665533" lon="11.5937367"><ele>437.49999999999994</ele><time>2026-05-03T11:41:22.648Z</time></trkpt><trkpt lat="43.3666167" lon="11.5937067"><ele>438.0</ele><time>2026-05-03T11:41:23.647Z</time></trkpt><trkpt lat="43.36668" lon="11.59368"><ele>438.5</ele><time>2026-05-03T11:41:24.645Z</time></trkpt><trkpt lat="43.3667567" lon="11.5936567"><ele>439.0</ele><time>2026-05-03T11:41:25.639Z</time></trkpt><trkpt lat="43.366835" lon="11.5936133"><ele>439.49999999999994</ele><time>2026-05-03T11:41:26.64Z</time></trkpt><trkpt lat="43.3669117" lon="11.5935633"><ele>440.0</ele><time>2026-05-03T11:41:27.641Z</time></trkpt><trkpt lat="43.366985" lon="11.5934983"><ele>440.66666666666663</ele><time>2026-05-03T11:41:28.634Z</time></trkpt><trkpt lat="43.3670517" lon="11.5934133"><ele>441.3333333333333</ele><time>2026-05-03T11:41:29.639Z</time></trkpt><trkpt lat="43.36711" lon="11.5933183"><ele>442.0</ele><time>2026-05-03T11:41:30.645Z</time></trkpt><trkpt lat="43.3671533" lon="11.5932117"><ele>442.66666666666663</ele><time>2026-05-03T11:41:31.636Z</time></trkpt><trkpt lat="43.3671883" lon="11.593115"><ele>443.3333333333333</ele><time>2026-05-03T11:41:32.666Z</time></trkpt><trkpt lat="43.3672" lon="11.5930217"><ele>444.0</ele><time>2026-05-03T11:41:33.645Z</time></trkpt><trkpt lat="43.3671917" lon="11.592915"><ele>445.3333333333333</ele><time>2026-05-03T11:41:34.641Z</time></trkpt><trkpt lat="43.3671667" lon="11.5927933"><ele>446.66666666666663</ele><time>2026-05-03T11:41:35.639Z</time></trkpt><trkpt lat="43.36714" lon="11.5926767"><ele>448.0</ele><time>2026-05-03T11:41:36.646Z</time></trkpt><trkpt lat="43.3671183" lon="11.5925633"><ele>449.3333333333333</ele><time>2026-05-03T11:41:37.648Z</time></trkpt><trkpt lat="43.3671017" lon="11.592455"><ele>450.66666666666663</ele><time>2026-05-03T11:41:38.645Z</time></trkpt><trkpt lat="43.36709" lon="11.5923483"><ele>452.0</ele><time>2026-05-03T11:41:39.649Z</time></trkpt><trkpt lat="43.367095" lon="11.59223"><ele>452.0</ele><time>2026-05-03T11:41:40.641Z</time></trkpt><trkpt lat="43.367105" lon="11.5920917"><ele>452.0</ele><time>2026-05-03T11:41:41.665Z</time></trkpt><trkpt lat="43.367125" lon="11.59193"><ele>452.0</ele><time>2026-05-03T11:41:42.654Z</time></trkpt><trkpt lat="43.3671433" lon="11.5917317"><ele>452.0</ele><time>2026-05-03T11:41:43.637Z</time></trkpt><trkpt lat="43.3671617" lon="11.59155"><ele>452.40000000000003</ele><time>2026-05-03T11:41:44.647Z</time></trkpt><trkpt lat="43.3671767" lon="11.5913867"><ele>452.80000000000007</ele><time>2026-05-03T11:41:45.648Z</time></trkpt><trkpt lat="43.36719" lon="11.591235"><ele>453.2</ele><time>2026-05-03T11:41:46.644Z</time></trkpt><trkpt lat="43.3672117" lon="11.591115"><ele>453.6</ele><time>2026-05-03T11:41:47.67Z</time></trkpt><trkpt lat="43.3672517" lon="11.5910083"><ele>454.0</ele><time>2026-05-03T11:41:48.643Z</time></trkpt><trkpt lat="43.3672967" lon="11.590935"><ele>456.2</ele><time>2026-05-03T11:41:49.643Z</time></trkpt><trkpt lat="43.3673767" lon="11.590845"><ele>458.4</ele><time>2026-05-03T11:41:51.64Z</time></trkpt><trkpt lat="43.3674967" lon="11.5907917"><ele>460.6</ele><time>2026-05-03T11:41:53.639Z</time></trkpt><trkpt lat="43.3676133" lon="11.5907933"><ele>462.8</ele><time>2026-05-03T11:41:55.643Z</time></trkpt><trkpt lat="43.3676767" lon="11.590815"><ele>465.0</ele><time>2026-05-03T11:41:56.647Z</time></trkpt><trkpt lat="43.3677383" lon="11.5908333"><ele>465.0</ele><time>2026-05-03T11:41:57.644Z</time></trkpt><trkpt lat="43.3678017" lon="11.5908583"><ele>465.0</ele><time>2026-05-03T11:41:58.643Z</time></trkpt><trkpt lat="43.3678667" lon="11.590885"><ele>465.0</ele><time>2026-05-03T11:41:59.642Z</time></trkpt><trkpt lat="43.367985" lon="11.5909233"><ele>465.0</ele><time>2026-05-03T11:42:01.645Z</time></trkpt><trkpt lat="43.3680483" lon="11.590955"><ele>465.0</ele><time>2026-05-03T11:42:02.648Z</time></trkpt><trkpt lat="43.3681083" lon="11.590995"><ele>465.0</ele><time>2026-05-03T11:42:03.652Z</time></trkpt><trkpt lat="43.3681933" lon="11.5911"><ele>464.8333333333333</ele><time>2026-05-03T11:42:05.635Z</time></trkpt><trkpt lat="43.36827" lon="11.591195"><ele>464.66666666666663</ele><time>2026-05-03T11:42:07.647Z</time></trkpt><trkpt lat="43.3683833" lon="11.59124"><ele>464.5</ele><time>2026-05-03T11:42:09.645Z</time></trkpt><trkpt lat="43.3684483" lon="11.591235"><ele>464.3333333333333</ele><time>2026-05-03T11:42:10.642Z</time></trkpt><trkpt lat="43.3685167" lon="11.591205"><ele>464.16666666666663</ele><time>2026-05-03T11:42:11.644Z</time></trkpt><trkpt lat="43.3685883" lon="11.591165"><ele>464.0</ele><time>2026-05-03T11:42:12.633Z</time></trkpt><trkpt lat="43.3686533" lon="11.591125"><ele>466.1428571428572</ele><time>2026-05-03T11:42:13.665Z</time></trkpt><trkpt lat="43.3687133" lon="11.5910983"><ele>468.28571428571433</ele><time>2026-05-03T11:42:14.649Z</time></trkpt><trkpt lat="43.368775" lon="11.5910767"><ele>470.42857142857144</ele><time>2026-05-03T11:42:15.658Z</time></trkpt><trkpt lat="43.3688417" lon="11.591065"><ele>472.5714285714286</ele><time>2026-05-03T11:42:16.654Z</time></trkpt><trkpt lat="43.36891" lon="11.5910483"><ele>474.7142857142858</ele><time>2026-05-03T11:42:17.631Z</time></trkpt><trkpt lat="43.368975" lon="11.591025"><ele>476.85714285714283</ele><time>2026-05-03T11:42:18.646Z</time></trkpt><trkpt lat="43.3690617" lon="11.59095"><ele>479.0</ele><time>2026-05-03T11:42:20.642Z</time></trkpt><trkpt lat="43.3691133" lon="11.5908217"><ele>479.2</ele><time>2026-05-03T11:42:22.642Z</time></trkpt><trkpt lat="43.369185" lon="11.5907"><ele>479.4</ele><time>2026-05-03T11:42:24.645Z</time></trkpt><trkpt lat="43.369295" lon="11.590635"><ele>479.6</ele><time>2026-05-03T11:42:26.661Z</time></trkpt><trkpt lat="43.3693667" lon="11.59062"><ele>479.8</ele><time>2026-05-03T11:42:27.645Z</time></trkpt><trkpt lat="43.36944" lon="11.5905867"><ele>480.0</ele><time>2026-05-03T11:42:28.644Z</time></trkpt><trkpt lat="43.3695183" lon="11.5905383"><ele>480.0</ele><time>2026-05-03T11:42:29.644Z</time></trkpt><trkpt lat="43.3695967" lon="11.5904783"><ele>480.0</ele><time>2026-05-03T11:42:30.637Z</time></trkpt><trkpt lat="43.3696783" lon="11.590415"><ele>480.0</ele><time>2026-05-03T11:42:31.647Z</time></trkpt><trkpt lat="43.3697633" lon="11.59036"><ele>480.0</ele><time>2026-05-03T11:42:32.638Z</time></trkpt><trkpt lat="43.3698517" lon="11.5902983"><ele>480.0</ele><time>2026-05-03T11:42:33.638Z</time></trkpt><trkpt lat="43.36994" lon="11.5902533"><ele>483.6</ele><time>2026-05-03T11:42:34.646Z</time></trkpt><trkpt lat="43.3700317" lon="11.5902317"><ele>487.2</ele><time>2026-05-03T11:42:35.639Z</time></trkpt><trkpt lat="43.3701283" lon="11.5902133"><ele>490.79999999999995</ele><time>2026-05-03T11:42:36.65Z</time></trkpt><trkpt lat="43.3702167" lon="11.590175"><ele>494.4</ele><time>2026-05-03T11:42:37.637Z</time></trkpt><trkpt lat="43.370305" lon="11.59014"><ele>498.0</ele><time>2026-05-03T11:42:38.637Z</time></trkpt><trkpt lat="43.3704083" lon="11.5901067"><ele>498.0</ele><time>2026-05-03T11:42:39.645Z</time></trkpt><trkpt lat="43.3705033" lon="11.59008"><ele>497.99999999999994</ele><time>2026-05-03T11:42:40.644Z</time></trkpt><trkpt lat="43.370595" lon="11.59005"><ele>497.99999999999994</ele><time>2026-05-03T11:42:41.65Z</time></trkpt><trkpt lat="43.370685" lon="11.59002"><ele>498.0</ele><time>2026-05-03T11:42:42.644Z</time></trkpt><trkpt lat="43.3707767" lon="11.5900067"><ele>498.0</ele><time>2026-05-03T11:42:43.639Z</time></trkpt><trkpt lat="43.370865" lon="11.5900017"><ele>497.79999999999995</ele><time>2026-05-03T11:42:44.64Z</time></trkpt><trkpt lat="43.3709483" lon="11.59"><ele>497.59999999999997</ele><time>2026-05-03T11:42:45.646Z</time></trkpt><trkpt lat="43.3710283" lon="11.5900283"><ele>497.40000000000003</ele><time>2026-05-03T11:42:46.632Z</time></trkpt><trkpt lat="43.3711067" lon="11.5900667"><ele>497.20000000000005</ele><time>2026-05-03T11:42:47.659Z</time></trkpt><trkpt lat="43.3712" lon="11.5901267"><ele>497.0</ele><time>2026-05-03T11:42:48.644Z</time></trkpt><trkpt lat="43.3712883" lon="11.5902083"><ele>497.40000000000003</ele><time>2026-05-03T11:42:49.648Z</time></trkpt><trkpt lat="43.3713717" lon="11.5902767"><ele>497.80000000000007</ele><time>2026-05-03T11:42:50.647Z</time></trkpt><trkpt lat="43.3714517" lon="11.5903583"><ele>498.2</ele><time>2026-05-03T11:42:51.643Z</time></trkpt><trkpt lat="43.37153" lon="11.5904467"><ele>498.6</ele><time>2026-05-03T11:42:52.646Z</time></trkpt><trkpt lat="43.3716133" lon="11.59053"><ele>499.0</ele><time>2026-05-03T11:42:53.641Z</time></trkpt><trkpt lat="43.371695" lon="11.5905983"><ele>498.00000000000006</ele><time>2026-05-03T11:42:54.64Z</time></trkpt><trkpt lat="43.3717667" lon="11.5906583"><ele>497.0</ele><time>2026-05-03T11:42:55.649Z</time></trkpt><trkpt lat="43.37183" lon="11.5907217"><ele>496.0</ele><time>2026-05-03T11:42:56.647Z</time></trkpt><trkpt lat="43.3718883" lon="11.5907833"><ele>495.0</ele><time>2026-05-03T11:42:57.643Z</time></trkpt><trkpt lat="43.3719533" lon="11.5908433"><ele>494.00000000000006</ele><time>2026-05-03T11:42:58.642Z</time></trkpt><trkpt lat="43.3720133" lon="11.5909"><ele>493.0</ele><time>2026-05-03T11:42:59.641Z</time></trkpt><trkpt lat="43.3720733" lon="11.59097"><ele>493.00000000000006</ele><time>2026-05-03T11:43:00.643Z</time></trkpt><trkpt lat="43.372135" lon="11.5910267"><ele>493.0</ele><time>2026-05-03T11:43:01.64Z</time></trkpt><trkpt lat="43.3721967" lon="11.5910867"><ele>493.0</ele><time>2026-05-03T11:43:02.65Z</time></trkpt><trkpt lat="43.372255" lon="11.5911467"><ele>493.0</ele><time>2026-05-03T11:43:03.637Z</time></trkpt><trkpt lat="43.37231" lon="11.5911983"><ele>493.00000000000006</ele><time>2026-05-03T11:43:04.65Z</time></trkpt><trkpt lat="43.3723983" lon="11.5913033"><ele>493.0</ele><time>2026-05-03T11:43:06.642Z</time></trkpt><trkpt lat="43.37245" lon="11.5914367"><ele>491.0</ele><time>2026-05-03T11:43:08.64Z</time></trkpt><trkpt lat="43.37251" lon="11.59156"><ele>488.99999999999994</ele><time>2026-05-03T11:43:10.637Z</time></trkpt><trkpt lat="43.3725883" lon="11.5916983"><ele>486.99999999999994</ele><time>2026-05-03T11:43:12.643Z</time></trkpt><trkpt lat="43.3726283" lon="11.5917833"><ele>485.0</ele><time>2026-05-03T11:43:13.642Z</time></trkpt><trkpt lat="43.37268" lon="11.5918617"><ele>483.0</ele><time>2026-05-03T11:43:14.637Z</time></trkpt><trkpt lat="43.372745" lon="11.59194"><ele>483.0</ele><time>2026-05-03T11:43:15.644Z</time></trkpt><trkpt lat="43.3728133" lon="11.59201"><ele>483.0</ele><time>2026-05-03T11:43:16.642Z</time></trkpt><trkpt lat="43.37288" lon="11.592075"><ele>483.0</ele><time>2026-05-03T11:43:17.642Z</time></trkpt><trkpt lat="43.3729533" lon="11.5921417"><ele>483.0</ele><time>2026-05-03T11:43:18.648Z</time></trkpt><trkpt lat="43.373025" lon="11.592205"><ele>483.0</ele><time>2026-05-03T11:43:19.641Z</time></trkpt><trkpt lat="43.37309" lon="11.5922717"><ele>483.0</ele><time>2026-05-03T11:43:20.645Z</time></trkpt><trkpt lat="43.3731533" lon="11.5923317"><ele>483.0</ele><time>2026-05-03T11:43:21.641Z</time></trkpt><trkpt lat="43.3732117" lon="11.5923883"><ele>483.0</ele><time>2026-05-03T11:43:22.656Z</time></trkpt><trkpt lat="43.37327" lon="11.5924617"><ele>483.0</ele><time>2026-05-03T11:43:23.644Z</time></trkpt><trkpt lat="43.3733267" lon="11.5925317"><ele>483.0</ele><time>2026-05-03T11:43:24.643Z</time></trkpt><trkpt lat="43.3733767" lon="11.5926017"><ele>483.0</ele><time>2026-05-03T11:43:25.643Z</time></trkpt><trkpt lat="43.3734233" lon="11.5926717"><ele>483.0</ele><time>2026-05-03T11:43:26.646Z</time></trkpt><trkpt lat="43.3735233" lon="11.59276"><ele>483.0</ele><time>2026-05-03T11:43:28.647Z</time></trkpt><trkpt lat="43.37362" lon="11.5928183"><ele>483.0</ele><time>2026-05-03T11:43:30.645Z</time></trkpt><trkpt lat="43.3737033" lon="11.5928283"><ele>483.0</ele><time>2026-05-03T11:43:32.647Z</time></trkpt><trkpt lat="43.37378" lon="11.5928417"><ele>483.0</ele><time>2026-05-03T11:43:34.642Z</time></trkpt><trkpt lat="43.3738667" lon="11.5928"><ele>483.0</ele><time>2026-05-03T11:43:36.636Z</time></trkpt><trkpt lat="43.373955" lon="11.5927817"><ele>483.0</ele><time>2026-05-03T11:43:38.635Z</time></trkpt><trkpt lat="43.37402" lon="11.5927717"><ele>482.6666666666667</ele><time>2026-05-03T11:43:40.639Z</time></trkpt><trkpt lat="43.3740867" lon="11.5928367"><ele>482.33333333333337</ele><time>2026-05-03T11:43:43.643Z</time></trkpt><trkpt lat="43.3741167" lon="11.5929267"><ele>482.0</ele><time>2026-05-03T11:43:45.632Z</time></trkpt><trkpt lat="43.3741183" lon="11.593025"><ele>481.6666666666667</ele><time>2026-05-03T11:43:47.641Z</time></trkpt><trkpt lat="43.3741167" lon="11.593115"><ele>481.33333333333337</ele><time>2026-05-03T11:43:49.641Z</time></trkpt><trkpt lat="43.374075" lon="11.5931917"><ele>481.0</ele><time>2026-05-03T11:43:51.645Z</time></trkpt><trkpt lat="43.3740183" lon="11.5933133"><ele>481.5714285714285</ele><time>2026-05-03T11:43:53.645Z</time></trkpt><trkpt lat="43.3739783" lon="11.5933883"><ele>482.1428571428571</ele><time>2026-05-03T11:43:54.644Z</time></trkpt><trkpt lat="43.3739333" lon="11.5934667"><ele>482.7142857142857</ele><time>2026-05-03T11:43:55.642Z</time></trkpt><trkpt lat="43.3738833" lon="11.59354"><ele>483.2857142857143</ele><time>2026-05-03T11:43:56.637Z</time></trkpt><trkpt lat="43.3738267" lon="11.59361"><ele>483.8571428571429</ele><time>2026-05-03T11:43:57.639Z</time></trkpt><trkpt lat="43.3737717" lon="11.5936683"><ele>484.4285714285715</ele><time>2026-05-03T11:43:58.646Z</time></trkpt><trkpt lat="43.37371" lon="11.5937367"><ele>485.00000000000006</ele><time>2026-05-03T11:43:59.643Z</time></trkpt><trkpt lat="43.3736483" lon="11.5938033"><ele>483.0</ele><time>2026-05-03T11:44:00.646Z</time></trkpt><trkpt lat="43.3735833" lon="11.5938667"><ele>481.0</ele><time>2026-05-03T11:44:01.639Z</time></trkpt><trkpt lat="43.373525" lon="11.5939283"><ele>479.0</ele><time>2026-05-03T11:44:02.651Z</time></trkpt><trkpt lat="43.3734283" lon="11.594035"><ele>477.0</ele><time>2026-05-03T11:44:04.639Z</time></trkpt><trkpt lat="43.3733767" lon="11.5940867"><ele>475.0</ele><time>2026-05-03T11:44:05.644Z</time></trkpt><trkpt lat="43.373265" lon="11.5941633"><ele>475.0</ele><time>2026-05-03T11:44:07.649Z</time></trkpt><trkpt lat="43.3731567" lon="11.59421"><ele>475.0</ele><time>2026-05-03T11:44:09.651Z</time></trkpt><trkpt lat="43.3730783" lon="11.5942717"><ele>475.0</ele><time>2026-05-03T11:44:11.645Z</time></trkpt><trkpt lat="43.3730267" lon="11.5944133"><ele>475.0</ele><time>2026-05-03T11:44:13.641Z</time></trkpt><trkpt lat="43.3730117" lon="11.59451"><ele>475.0</ele><time>2026-05-03T11:44:14.638Z</time></trkpt><trkpt lat="43.3729883" lon="11.5946233"><ele>473.6</ele><time>2026-05-03T11:44:15.641Z</time></trkpt><trkpt lat="43.3729617" lon="11.5947483"><ele>472.2</ele><time>2026-05-03T11:44:16.639Z</time></trkpt><trkpt lat="43.3729283" lon="11.5948683"><ele>470.79999999999995</ele><time>2026-05-03T11:44:17.646Z</time></trkpt><trkpt lat="43.372895" lon="11.5949917"><ele>469.4</ele><time>2026-05-03T11:44:18.646Z</time></trkpt><trkpt lat="43.3728617" lon="11.5951167"><ele>468.0</ele><time>2026-05-03T11:44:19.639Z</time></trkpt><trkpt lat="43.37283" lon="11.5952367"><ele>467.6666666666667</ele><time>2026-05-03T11:44:20.663Z</time></trkpt><trkpt lat="43.372805" lon="11.5953517"><ele>467.33333333333337</ele><time>2026-05-03T11:44:21.639Z</time></trkpt><trkpt lat="43.372785" lon="11.5954583"><ele>467.0</ele><time>2026-05-03T11:44:22.639Z</time></trkpt><trkpt lat="43.3727617" lon="11.5955767"><ele>466.6666666666667</ele><time>2026-05-03T11:44:23.644Z</time></trkpt><trkpt lat="43.3727417" lon="11.5957"><ele>466.33333333333337</ele><time>2026-05-03T11:44:24.646Z</time></trkpt><trkpt lat="43.3727267" lon="11.595815"><ele>466.0</ele><time>2026-05-03T11:44:25.659Z</time></trkpt><trkpt lat="43.3727267" lon="11.595935"><ele>466.00000000000006</ele><time>2026-05-03T11:44:26.641Z</time></trkpt><trkpt lat="43.37273" lon="11.596055"><ele>466.0</ele><time>2026-05-03T11:44:27.644Z</time></trkpt><trkpt lat="43.3727367" lon="11.59617"><ele>466.0</ele><time>2026-05-03T11:44:28.646Z</time></trkpt><trkpt lat="43.3727533" lon="11.5962817"><ele>466.0</ele><time>2026-05-03T11:44:29.65Z</time></trkpt><trkpt lat="43.372765" lon="11.59638"><ele>466.00000000000006</ele><time>2026-05-03T11:44:30.641Z</time></trkpt><trkpt lat="43.37277" lon="11.5964733"><ele>466.0</ele><time>2026-05-03T11:44:31.64Z</time></trkpt><trkpt lat="43.3727883" lon="11.596575"><ele>466.00000000000006</ele><time>2026-05-03T11:44:32.642Z</time></trkpt><trkpt lat="43.3728167" lon="11.596675"><ele>466.0</ele><time>2026-05-03T11:44:33.642Z</time></trkpt><trkpt lat="43.3728633" lon="11.5967767"><ele>466.0</ele><time>2026-05-03T11:44:34.644Z</time></trkpt><trkpt lat="43.372925" lon="11.596865"><ele>466.0</ele><time>2026-05-03T11:44:35.644Z</time></trkpt><trkpt lat="43.3729717" lon="11.59697"><ele>466.00000000000006</ele><time>2026-05-03T11:44:36.641Z</time></trkpt><trkpt lat="43.3730033" lon="11.5970683"><ele>466.0</ele><time>2026-05-03T11:44:37.643Z</time></trkpt><trkpt lat="43.3730317" lon="11.5971483"><ele>466.00000000000006</ele><time>2026-05-03T11:44:38.643Z</time></trkpt><trkpt lat="43.3730633" lon="11.5972333"><ele>466.0</ele><time>2026-05-03T11:44:39.653Z</time></trkpt><trkpt lat="43.37309" lon="11.5973133"><ele>466.0</ele><time>2026-05-03T11:44:40.649Z</time></trkpt><trkpt lat="43.373125" lon="11.5973867"><ele>466.0</ele><time>2026-05-03T11:44:41.634Z</time></trkpt><trkpt lat="43.37317" lon="11.5975417"><ele>466.00000000000006</ele><time>2026-05-03T11:44:43.642Z</time></trkpt><trkpt lat="43.37317" lon="11.5977"><ele>466.0</ele><time>2026-05-03T11:44:45.642Z</time></trkpt><trkpt lat="43.3731317" lon="11.5978433"><ele>465.6666666666667</ele><time>2026-05-03T11:44:47.636Z</time></trkpt><trkpt lat="43.3731333" lon="11.59799"><ele>465.33333333333337</ele><time>2026-05-03T11:44:49.642Z</time></trkpt><trkpt lat="43.3731983" lon="11.5981133"><ele>465.0</ele><time>2026-05-03T11:44:51.644Z</time></trkpt><trkpt lat="43.3732433" lon="11.59818"><ele>464.66666666666663</ele><time>2026-05-03T11:44:52.644Z</time></trkpt><trkpt lat="43.3732867" lon="11.5982533"><ele>464.3333333333333</ele><time>2026-05-03T11:44:53.635Z</time></trkpt><trkpt lat="43.3733267" lon="11.5983283"><ele>464.0</ele><time>2026-05-03T11:44:54.643Z</time></trkpt><trkpt lat="43.373375" lon="11.5984133"><ele>464.00000000000006</ele><time>2026-05-03T11:44:55.643Z</time></trkpt><trkpt lat="43.3734183" lon="11.5984983"><ele>464.0</ele><time>2026-05-03T11:44:56.647Z</time></trkpt><trkpt lat="43.3734567" lon="11.5985783"><ele>464.00000000000006</ele><time>2026-05-03T11:44:57.644Z</time></trkpt><trkpt lat="43.3734933" lon="11.598655"><ele>464.00000000000006</ele><time>2026-05-03T11:44:58.653Z</time></trkpt><trkpt lat="43.373535" lon="11.5987267"><ele>464.0</ele><time>2026-05-03T11:44:59.641Z</time></trkpt><trkpt lat="43.373565" lon="11.5988033"><ele>464.00000000000006</ele><time>2026-05-03T11:45:00.645Z</time></trkpt><trkpt lat="43.3735883" lon="11.5988867"><ele>464.00000000000006</ele><time>2026-05-03T11:45:01.643Z</time></trkpt><trkpt lat="43.3736033" lon="11.5989717"><ele>464.3333333333333</ele><time>2026-05-03T11:45:02.637Z</time></trkpt><trkpt lat="43.3736117" lon="11.59907"><ele>464.66666666666663</ele><time>2026-05-03T11:45:03.641Z</time></trkpt><trkpt lat="43.3736233" lon="11.5991833"><ele>465.0</ele><time>2026-05-03T11:45:04.641Z</time></trkpt><trkpt lat="43.3736317" lon="11.599305"><ele>465.33333333333337</ele><time>2026-05-03T11:45:05.644Z</time></trkpt><trkpt lat="43.3736283" lon="11.5994283"><ele>465.6666666666667</ele><time>2026-05-03T11:45:06.645Z</time></trkpt><trkpt lat="43.3736167" lon="11.5995433"><ele>466.0</ele><time>2026-05-03T11:45:07.646Z</time></trkpt><trkpt lat="43.3736083" lon="11.599635"><ele>464.7142857142857</ele><time>2026-05-03T11:45:08.643Z</time></trkpt><trkpt lat="43.3736017" lon="11.5997217"><ele>463.42857142857144</ele><time>2026-05-03T11:45:09.645Z</time></trkpt><trkpt lat="43.3736" lon="11.5998083"><ele>462.14285714285717</ele><time>2026-05-03T11:45:10.643Z</time></trkpt><trkpt lat="43.37361" lon="11.5999033"><ele>460.8571428571429</ele><time>2026-05-03T11:45:11.639Z</time></trkpt><trkpt lat="43.3736267" lon="11.5999933"><ele>459.57142857142856</ele><time>2026-05-03T11:45:12.636Z</time></trkpt><trkpt lat="43.373655" lon="11.6000767"><ele>458.28571428571433</ele><time>2026-05-03T11:45:13.653Z</time></trkpt><trkpt lat="43.3737117" lon="11.6001683"><ele>457.00000000000006</ele><time>2026-05-03T11:45:14.645Z</time></trkpt><trkpt lat="43.3737717" lon="11.6002683"><ele>455.0</ele><time>2026-05-03T11:45:15.637Z</time></trkpt><trkpt lat="43.3738217" lon="11.6003567"><ele>453.00000000000006</ele><time>2026-05-03T11:45:16.644Z</time></trkpt><trkpt lat="43.37386" lon="11.6004383"><ele>451.00000000000006</ele><time>2026-05-03T11:45:17.639Z</time></trkpt><trkpt lat="43.37389" lon="11.6005283"><ele>449.0</ele><time>2026-05-03T11:45:18.652Z</time></trkpt><trkpt lat="43.373885" lon="11.6006283"><ele>447.0</ele><time>2026-05-03T11:45:19.64Z</time></trkpt><trkpt lat="43.3738583" lon="11.6008433"><ele>447.0</ele><time>2026-05-03T11:45:21.646Z</time></trkpt><trkpt lat="43.3738483" lon="11.6009433"><ele>447.00000000000006</ele><time>2026-05-03T11:45:22.643Z</time></trkpt><trkpt lat="43.37383" lon="11.6011"><ele>447.00000000000006</ele><time>2026-05-03T11:45:24.641Z</time></trkpt><trkpt lat="43.3738533" lon="11.601225"><ele>447.0</ele><time>2026-05-03T11:45:26.644Z</time></trkpt><trkpt lat="43.373925" lon="11.6013583"><ele>447.0</ele><time>2026-05-03T11:45:28.64Z</time></trkpt><trkpt lat="43.3739817" lon="11.6014267"><ele>444.6</ele><time>2026-05-03T11:45:29.642Z</time></trkpt><trkpt lat="43.3740433" lon="11.60149"><ele>442.20000000000005</ele><time>2026-05-03T11:45:30.65Z</time></trkpt><trkpt lat="43.3741183" lon="11.6015517"><ele>439.8</ele><time>2026-05-03T11:45:31.64Z</time></trkpt><trkpt lat="43.3741967" lon="11.60162"><ele>437.4</ele><time>2026-05-03T11:45:32.659Z</time></trkpt><trkpt lat="43.37428" lon="11.6016833"><ele>435.0</ele><time>2026-05-03T11:45:33.644Z</time></trkpt><trkpt lat="43.374365" lon="11.60176"><ele>435.0</ele><time>2026-05-03T11:45:34.637Z</time></trkpt><trkpt lat="43.37445" lon="11.601845"><ele>435.0</ele><time>2026-05-03T11:45:35.637Z</time></trkpt><trkpt lat="43.3745333" lon="11.6019467"><ele>435.0</ele><time>2026-05-03T11:45:36.645Z</time></trkpt><trkpt lat="43.3746133" lon="11.60206"><ele>435.0</ele><time>2026-05-03T11:45:37.648Z</time></trkpt><trkpt lat="43.3746917" lon="11.60218"><ele>435.0</ele><time>2026-05-03T11:45:38.637Z</time></trkpt><trkpt lat="43.3747733" lon="11.6023033"><ele>435.6666666666667</ele><time>2026-05-03T11:45:39.645Z</time></trkpt><trkpt lat="43.3748483" lon="11.60241"><ele>436.33333333333337</ele><time>2026-05-03T11:45:40.638Z</time></trkpt><trkpt lat="43.3749133" lon="11.6025267"><ele>437.0</ele><time>2026-05-03T11:45:41.674Z</time></trkpt><trkpt lat="43.374975" lon="11.6026217"><ele>437.6666666666667</ele><time>2026-05-03T11:45:42.647Z</time></trkpt><trkpt lat="43.37501" lon="11.602705"><ele>438.33333333333337</ele><time>2026-05-03T11:45:43.646Z</time></trkpt><trkpt lat="43.3750217" lon="11.6027917"><ele>439.0</ele><time>2026-05-03T11:45:44.648Z</time></trkpt><trkpt lat="43.3750117" lon="11.60289"><ele>440.2</ele><time>2026-05-03T11:45:45.642Z</time></trkpt><trkpt lat="43.3749967" lon="11.6030017"><ele>441.4</ele><time>2026-05-03T11:45:46.642Z</time></trkpt><trkpt lat="43.3749917" lon="11.603125"><ele>442.6</ele><time>2026-05-03T11:45:47.646Z</time></trkpt><trkpt lat="43.3749983" lon="11.60326"><ele>443.8</ele><time>2026-05-03T11:45:48.638Z</time></trkpt><trkpt lat="43.3750033" lon="11.60341"><ele>445.0</ele><time>2026-05-03T11:45:49.642Z</time></trkpt><trkpt lat="43.3749983" lon="11.6035483"><ele>444.83333333333337</ele><time>2026-05-03T11:45:50.637Z</time></trkpt><trkpt lat="43.3749867" lon="11.60368"><ele>444.6666666666667</ele><time>2026-05-03T11:45:51.643Z</time></trkpt><trkpt lat="43.3749833" lon="11.6038017"><ele>444.5</ele><time>2026-05-03T11:45:52.641Z</time></trkpt><trkpt lat="43.37499" lon="11.60391"><ele>444.33333333333337</ele><time>2026-05-03T11:45:53.645Z</time></trkpt><trkpt lat="43.3749967" lon="11.6040067"><ele>444.1666666666667</ele><time>2026-05-03T11:45:54.657Z</time></trkpt><trkpt lat="43.3750167" lon="11.604095"><ele>444.0</ele><time>2026-05-03T11:45:55.647Z</time></trkpt><trkpt lat="43.3750567" lon="11.6041683"><ele>444.0</ele><time>2026-05-03T11:45:56.647Z</time></trkpt><trkpt lat="43.3751117" lon="11.6042383"><ele>444.0</ele><time>2026-05-03T11:45:57.642Z</time></trkpt><trkpt lat="43.3751783" lon="11.604295"><ele>444.0</ele><time>2026-05-03T11:45:58.652Z</time></trkpt><trkpt lat="43.37524" lon="11.6043317"><ele>444.0</ele><time>2026-05-03T11:45:59.646Z</time></trkpt><trkpt lat="43.3753033" lon="11.6043517"><ele>444.0</ele><time>2026-05-03T11:46:00.643Z</time></trkpt><trkpt lat="43.37538" lon="11.6043567"><ele>444.0</ele><time>2026-05-03T11:46:01.646Z</time></trkpt><trkpt lat="43.3754717" lon="11.6043467"><ele>444.5</ele><time>2026-05-03T11:46:02.639Z</time></trkpt><trkpt lat="43.37554" lon="11.6043517"><ele>445.0</ele><time>2026-05-03T11:46:03.646Z</time></trkpt><trkpt lat="43.3756567" lon="11.6044033"><ele>445.5</ele><time>2026-05-03T11:46:05.656Z</time></trkpt><trkpt lat="43.37572" lon="11.6044417"><ele>446.0</ele><time>2026-05-03T11:46:06.64Z</time></trkpt><trkpt lat="43.3757983" lon="11.6044767"><ele>446.5</ele><time>2026-05-03T11:46:07.676Z</time></trkpt><trkpt lat="43.3758767" lon="11.6045067"><ele>447.0</ele><time>2026-05-03T11:46:08.658Z</time></trkpt><trkpt lat="43.3759617" lon="11.6045417"><ele>447.6666666666667</ele><time>2026-05-03T11:46:09.653Z</time></trkpt><trkpt lat="43.3760283" lon="11.6045767"><ele>448.33333333333337</ele><time>2026-05-03T11:46:10.65Z</time></trkpt><trkpt lat="43.3761" lon="11.604625"><ele>449.0</ele><time>2026-05-03T11:46:11.637Z</time></trkpt><trkpt lat="43.3761617" lon="11.604685"><ele>449.6666666666667</ele><time>2026-05-03T11:46:12.642Z</time></trkpt><trkpt lat="43.3762283" lon="11.6047617"><ele>450.33333333333337</ele><time>2026-05-03T11:46:13.646Z</time></trkpt><trkpt lat="43.3763167" lon="11.604895"><ele>451.0</ele><time>2026-05-03T11:46:15.649Z</time></trkpt><trkpt lat="43.3763717" lon="11.60499"><ele>451.6</ele><time>2026-05-03T11:46:16.658Z</time></trkpt><trkpt lat="43.37644" lon="11.605085"><ele>452.20000000000005</ele><time>2026-05-03T11:46:17.642Z</time></trkpt><trkpt lat="43.37651" lon="11.6051733"><ele>452.79999999999995</ele><time>2026-05-03T11:46:18.64Z</time></trkpt><trkpt lat="43.376595" lon="11.60524"><ele>453.4</ele><time>2026-05-03T11:46:19.648Z</time></trkpt><trkpt lat="43.376685" lon="11.6053083"><ele>454.0</ele><time>2026-05-03T11:46:20.638Z</time></trkpt><trkpt lat="43.3767717" lon="11.60537"><ele>456.2</ele><time>2026-05-03T11:46:21.65Z</time></trkpt><trkpt lat="43.3768533" lon="11.6054283"><ele>458.4</ele><time>2026-05-03T11:46:22.647Z</time></trkpt><trkpt lat="43.3769267" lon="11.6054817"><ele>460.6</ele><time>2026-05-03T11:46:23.646Z</time></trkpt><trkpt lat="43.3769983" lon="11.605525"><ele>462.8</ele><time>2026-05-03T11:46:24.644Z</time></trkpt><trkpt lat="43.3771133" lon="11.6055767"><ele>465.0</ele><time>2026-05-03T11:46:26.639Z</time></trkpt><trkpt lat="43.3772383" lon="11.6055817"><ele>465.1666666666667</ele><time>2026-05-03T11:46:28.645Z</time></trkpt><trkpt lat="43.3773" lon="11.6055617"><ele>465.33333333333337</ele><time>2026-05-03T11:46:29.648Z</time></trkpt><trkpt lat="43.3773567" lon="11.6055217"><ele>465.5</ele><time>2026-05-03T11:46:30.652Z</time></trkpt><trkpt lat="43.3774817" lon="11.6054717"><ele>465.6666666666667</ele><time>2026-05-03T11:46:32.657Z</time></trkpt><trkpt lat="43.37756" lon="11.6054617"><ele>465.83333333333337</ele><time>2026-05-03T11:46:33.649Z</time></trkpt><trkpt lat="43.3776567" lon="11.6054567"><ele>466.0</ele><time>2026-05-03T11:46:34.641Z</time></trkpt><trkpt lat="43.3777517" lon="11.6054567"><ele>466.00000000000006</ele><time>2026-05-03T11:46:35.643Z</time></trkpt><trkpt lat="43.3778383" lon="11.605465"><ele>466.0</ele><time>2026-05-03T11:46:36.646Z</time></trkpt><trkpt lat="43.3779067" lon="11.6054833"><ele>466.0</ele><time>2026-05-03T11:46:37.641Z</time></trkpt><trkpt lat="43.3779783" lon="11.6054967"><ele>466.0</ele><time>2026-05-03T11:46:38.655Z</time></trkpt><trkpt lat="43.378105" lon="11.6055517"><ele>466.00000000000006</ele><time>2026-05-03T11:46:40.642Z</time></trkpt><trkpt lat="43.3781767" lon="11.60559"><ele>466.0</ele><time>2026-05-03T11:46:41.646Z</time></trkpt><trkpt lat="43.3782467" lon="11.605645"><ele>464.00000000000006</ele><time>2026-05-03T11:46:42.646Z</time></trkpt><trkpt lat="43.378315" lon="11.6056967"><ele>462.0</ele><time>2026-05-03T11:46:43.638Z</time></trkpt><trkpt lat="43.3783867" lon="11.6057383"><ele>460.0</ele><time>2026-05-03T11:46:44.654Z</time></trkpt><trkpt lat="43.3784583" lon="11.6057817"><ele>458.0</ele><time>2026-05-03T11:46:45.65Z</time></trkpt><trkpt lat="43.378535" lon="11.6058317"><ele>456.00000000000006</ele><time>2026-05-03T11:46:46.646Z</time></trkpt><trkpt lat="43.3786133" lon="11.6058833"><ele>454.0</ele><time>2026-05-03T11:46:47.646Z</time></trkpt><trkpt lat="43.37869" lon="11.6059433"><ele>454.00000000000006</ele><time>2026-05-03T11:46:48.649Z</time></trkpt><trkpt lat="43.3787683" lon="11.605995"><ele>454.0</ele><time>2026-05-03T11:46:49.648Z</time></trkpt><trkpt lat="43.378845" lon="11.6060467"><ele>454.0</ele><time>2026-05-03T11:46:50.652Z</time></trkpt><trkpt lat="43.3789167" lon="11.6060967"><ele>454.0</ele><time>2026-05-03T11:46:51.643Z</time></trkpt><trkpt lat="43.3789917" lon="11.6061317"><ele>454.00000000000006</ele><time>2026-05-03T11:46:52.64Z</time></trkpt><trkpt lat="43.3790533" lon="11.6061833"><ele>454.0</ele><time>2026-05-03T11:46:53.662Z</time></trkpt><trkpt lat="43.3791467" lon="11.6062583"><ele>452.79999999999995</ele><time>2026-05-03T11:46:55.647Z</time></trkpt><trkpt lat="43.3792033" lon="11.606365"><ele>451.59999999999997</ele><time>2026-05-03T11:46:57.646Z</time></trkpt><trkpt lat="43.379225" lon="11.6064933"><ele>450.4</ele><time>2026-05-03T11:46:59.633Z</time></trkpt><trkpt lat="43.3792717" lon="11.6066567"><ele>449.2</ele><time>2026-05-03T11:47:01.642Z</time></trkpt><trkpt lat="43.3792983" lon="11.6067533"><ele>448.0</ele><time>2026-05-03T11:47:02.645Z</time></trkpt><trkpt lat="43.3793317" lon="11.6068717"><ele>449.79999999999995</ele><time>2026-05-03T11:47:03.644Z</time></trkpt><trkpt lat="43.3793833" lon="11.6069967"><ele>451.59999999999997</ele><time>2026-05-03T11:47:04.68Z</time></trkpt><trkpt lat="43.3794383" lon="11.6071283"><ele>453.40000000000003</ele><time>2026-05-03T11:47:05.644Z</time></trkpt><trkpt lat="43.3794933" lon="11.6072717"><ele>455.20000000000005</ele><time>2026-05-03T11:47:06.644Z</time></trkpt><trkpt lat="43.37954" lon="11.6074117"><ele>457.0</ele><time>2026-05-03T11:47:07.642Z</time></trkpt><trkpt lat="43.379575" lon="11.6075583"><ele>457.0</ele><time>2026-05-03T11:47:08.645Z</time></trkpt><trkpt lat="43.3796083" lon="11.6076933"><ele>457.00000000000006</ele><time>2026-05-03T11:47:09.644Z</time></trkpt><trkpt lat="43.3796233" lon="11.60782"><ele>457.00000000000006</ele><time>2026-05-03T11:47:10.639Z</time></trkpt><trkpt lat="43.37965" lon="11.607945"><ele>457.0</ele><time>2026-05-03T11:47:11.64Z</time></trkpt><trkpt lat="43.379685" lon="11.6080817"><ele>457.0</ele><time>2026-05-03T11:47:12.645Z</time></trkpt><trkpt lat="43.37974" lon="11.6082133"><ele>452.33333333333337</ele><time>2026-05-03T11:47:13.646Z</time></trkpt><trkpt lat="43.3797917" lon="11.6083317"><ele>447.6666666666667</ele><time>2026-05-03T11:47:14.64Z</time></trkpt><trkpt lat="43.379835" lon="11.60844"><ele>443.0</ele><time>2026-05-03T11:47:15.668Z</time></trkpt><trkpt lat="43.3798583" lon="11.60853"><ele>438.33333333333337</ele><time>2026-05-03T11:47:16.656Z</time></trkpt><trkpt lat="43.37989" lon="11.6086267"><ele>433.6666666666667</ele><time>2026-05-03T11:47:17.645Z</time></trkpt><trkpt lat="43.3799433" lon="11.6087"><ele>429.0</ele><time>2026-05-03T11:47:18.648Z</time></trkpt><trkpt lat="43.3800083" lon="11.6087433"><ele>428.75</ele><time>2026-05-03T11:47:19.668Z</time></trkpt><trkpt lat="43.3801" lon="11.60879"><ele>428.5</ele><time>2026-05-03T11:47:20.64Z</time></trkpt><trkpt lat="43.3802167" lon="11.6088367"><ele>428.25</ele><time>2026-05-03T11:47:21.641Z</time></trkpt><trkpt lat="43.3803283" lon="11.6088883"><ele>428.0</ele><time>2026-05-03T11:47:22.64Z</time></trkpt><trkpt lat="43.3804333" lon="11.608945"><ele>428.79999999999995</ele><time>2026-05-03T11:47:23.636Z</time></trkpt><trkpt lat="43.3805317" lon="11.6089933"><ele>429.59999999999997</ele><time>2026-05-03T11:47:24.649Z</time></trkpt><trkpt lat="43.3806233" lon="11.6090317"><ele>430.40000000000003</ele><time>2026-05-03T11:47:25.647Z</time></trkpt><trkpt lat="43.3807133" lon="11.6090717"><ele>431.20000000000005</ele><time>2026-05-03T11:47:26.643Z</time></trkpt><trkpt lat="43.3808017" lon="11.60911"><ele>432.0</ele><time>2026-05-03T11:47:27.656Z</time></trkpt><trkpt lat="43.380885" lon="11.6091517"><ele>432.0</ele><time>2026-05-03T11:47:28.641Z</time></trkpt><trkpt lat="43.3809633" lon="11.6091883"><ele>432.00000000000006</ele><time>2026-05-03T11:47:29.647Z</time></trkpt><trkpt lat="43.38105" lon="11.6092183"><ele>432.00000000000006</ele><time>2026-05-03T11:47:30.645Z</time></trkpt><trkpt lat="43.3811383" lon="11.6092383"><ele>432.0</ele><time>2026-05-03T11:47:31.643Z</time></trkpt><trkpt lat="43.3812383" lon="11.60925"><ele>432.0</ele><time>2026-05-03T11:47:32.644Z</time></trkpt><trkpt lat="43.3813433" lon="11.6092583"><ele>432.40000000000003</ele><time>2026-05-03T11:47:33.64Z</time></trkpt><trkpt lat="43.3814467" lon="11.6092533"><ele>432.80000000000007</ele><time>2026-05-03T11:47:34.65Z</time></trkpt><trkpt lat="43.3815483" lon="11.6092583"><ele>433.2</ele><time>2026-05-03T11:47:35.644Z</time></trkpt><trkpt lat="43.38164" lon="11.6092617"><ele>433.6</ele><time>2026-05-03T11:47:36.659Z</time></trkpt><trkpt lat="43.3817233" lon="11.60927"><ele>434.0</ele><time>2026-05-03T11:47:37.636Z</time></trkpt><trkpt lat="43.381805" lon="11.6092917"><ele>434.0</ele><time>2026-05-03T11:47:38.674Z</time></trkpt><trkpt lat="43.381895" lon="11.6093017"><ele>434.0</ele><time>2026-05-03T11:47:39.709Z</time></trkpt><trkpt lat="43.381985" lon="11.6093083"><ele>434.0</ele><time>2026-05-03T11:47:40.665Z</time></trkpt><trkpt lat="43.38208" lon="11.60932"><ele>434.0</ele><time>2026-05-03T11:47:41.651Z</time></trkpt><trkpt lat="43.3821867" lon="11.6093367"><ele>434.0</ele><time>2026-05-03T11:47:42.637Z</time></trkpt><trkpt lat="43.3822767" lon="11.6093583"><ele>433.99999999999994</ele><time>2026-05-03T11:47:43.652Z</time></trkpt><trkpt lat="43.3823467" lon="11.6093933"><ele>434.0</ele><time>2026-05-03T11:47:44.657Z</time></trkpt><trkpt lat="43.3824183" lon="11.6094333"><ele>434.0</ele><time>2026-05-03T11:47:45.645Z</time></trkpt><trkpt lat="43.3824817" lon="11.6095083"><ele>434.0</ele><time>2026-05-03T11:47:46.647Z</time></trkpt><trkpt lat="43.3825317" lon="11.609585"><ele>433.99999999999994</ele><time>2026-05-03T11:47:47.642Z</time></trkpt><trkpt lat="43.382585" lon="11.6096717"><ele>434.0</ele><time>2026-05-03T11:47:48.636Z</time></trkpt><trkpt lat="43.3826283" lon="11.6097467"><ele>434.2</ele><time>2026-05-03T11:47:49.649Z</time></trkpt><trkpt lat="43.3826917" lon="11.609865"><ele>434.4</ele><time>2026-05-03T11:47:51.645Z</time></trkpt><trkpt lat="43.3827067" lon="11.6100233"><ele>434.6</ele><time>2026-05-03T11:47:53.645Z</time></trkpt><trkpt lat="43.38274" lon="11.6101783"><ele>434.8</ele><time>2026-05-03T11:47:55.64Z</time></trkpt><trkpt lat="43.3827783" lon="11.6102533"><ele>435.0</ele><time>2026-05-03T11:47:56.648Z</time></trkpt><trkpt lat="43.3828167" lon="11.6103267"><ele>434.7142857142857</ele><time>2026-05-03T11:47:57.647Z</time></trkpt><trkpt lat="43.38286" lon="11.6104033"><ele>434.42857142857144</ele><time>2026-05-03T11:47:58.653Z</time></trkpt><trkpt lat="43.382905" lon="11.6104717"><ele>434.1428571428571</ele><time>2026-05-03T11:47:59.637Z</time></trkpt><trkpt lat="43.3829583" lon="11.610535"><ele>433.8571428571429</ele><time>2026-05-03T11:48:00.651Z</time></trkpt><trkpt lat="43.3830067" lon="11.610595"><ele>433.57142857142856</ele><time>2026-05-03T11:48:01.645Z</time></trkpt><trkpt lat="43.38305" lon="11.6106667"><ele>433.2857142857143</ele><time>2026-05-03T11:48:02.645Z</time></trkpt><trkpt lat="43.3830867" lon="11.6107433"><ele>433.0</ele><time>2026-05-03T11:48:03.644Z</time></trkpt><trkpt lat="43.3831417" lon="11.6108817"><ele>433.00000000000006</ele><time>2026-05-03T11:48:05.647Z</time></trkpt><trkpt lat="43.3832033" lon="11.6109633"><ele>433.0</ele><time>2026-05-03T11:48:07.644Z</time></trkpt><trkpt lat="43.3832717" lon="11.6110217"><ele>433.0</ele><time>2026-05-03T11:48:09.635Z</time></trkpt><trkpt lat="43.3833017" lon="11.6111017"><ele>433.0</ele><time>2026-05-03T11:48:11.641Z</time></trkpt><trkpt lat="43.3833033" lon="11.6112083"><ele>433.00000000000006</ele><time>2026-05-03T11:48:13.647Z</time></trkpt><trkpt lat="43.3833133" lon="11.611355"><ele>433.0</ele><time>2026-05-03T11:48:15.648Z</time></trkpt><trkpt lat="43.3833183" lon="11.61152"><ele>432.59999999999997</ele><time>2026-05-03T11:48:17.648Z</time></trkpt><trkpt lat="43.3833383" lon="11.611685"><ele>432.19999999999993</ele><time>2026-05-03T11:48:19.638Z</time></trkpt><trkpt lat="43.383365" lon="11.61181"><ele>431.8</ele><time>2026-05-03T11:48:21.642Z</time></trkpt><trkpt lat="43.3833833" lon="11.6119267"><ele>431.4</ele><time>2026-05-03T11:48:23.64Z</time></trkpt><trkpt lat="43.3833933" lon="11.61206"><ele>431.0</ele><time>2026-05-03T11:48:25.648Z</time></trkpt><trkpt lat="43.3834033" lon="11.612195"><ele>429.6</ele><time>2026-05-03T11:48:27.647Z</time></trkpt><trkpt lat="43.3834017" lon="11.6123217"><ele>428.20000000000005</ele><time>2026-05-03T11:48:29.65Z</time></trkpt><trkpt lat="43.383395" lon="11.6124533"><ele>426.79999999999995</ele><time>2026-05-03T11:48:31.64Z</time></trkpt><trkpt lat="43.3833633" lon="11.6125683"><ele>425.4</ele><time>2026-05-03T11:48:33.647Z</time></trkpt><trkpt lat="43.383305" lon="11.61269"><ele>424.0</ele><time>2026-05-03T11:48:35.65Z</time></trkpt><trkpt lat="43.3832517" lon="11.61282"><ele>420.6</ele><time>2026-05-03T11:48:37.654Z</time></trkpt><trkpt lat="43.38318" lon="11.61294"><ele>417.2</ele><time>2026-05-03T11:48:39.675Z</time></trkpt><trkpt lat="43.3830983" lon="11.6130617"><ele>413.8</ele><time>2026-05-03T11:48:41.648Z</time></trkpt><trkpt lat="43.3830433" lon="11.61312"><ele>410.40000000000003</ele><time>2026-05-03T11:48:42.642Z</time></trkpt><trkpt lat="43.3829933" lon="11.6131783"><ele>407.0</ele><time>2026-05-03T11:48:43.64Z</time></trkpt><trkpt lat="43.3828917" lon="11.6132833"><ele>407.0</ele><time>2026-05-03T11:48:45.647Z</time></trkpt><trkpt lat="43.3828283" lon="11.6133233"><ele>407.0</ele><time>2026-05-03T11:48:46.675Z</time></trkpt><trkpt lat="43.3827167" lon="11.61337"><ele>407.0</ele><time>2026-05-03T11:48:48.641Z</time></trkpt><trkpt lat="43.3826133" lon="11.613375"><ele>407.0</ele><time>2026-05-03T11:48:50.646Z</time></trkpt><trkpt lat="43.3825183" lon="11.6133717"><ele>407.0</ele><time>2026-05-03T11:48:52.64Z</time></trkpt><trkpt lat="43.3824383" lon="11.61338"><ele>407.0</ele><time>2026-05-03T11:48:54.644Z</time></trkpt><trkpt lat="43.3823867" lon="11.6134567"><ele>407.0</ele><time>2026-05-03T11:48:56.645Z</time></trkpt><trkpt lat="43.38239" lon="11.6135983"><ele>407.0</ele><time>2026-05-03T11:48:58.655Z</time></trkpt><trkpt lat="43.382405" lon="11.6137467"><ele>407.0</ele><time>2026-05-03T11:49:00.644Z</time></trkpt><trkpt lat="43.3823967" lon="11.613895"><ele>407.0</ele><time>2026-05-03T11:49:02.659Z</time></trkpt><trkpt lat="43.382395" lon="11.61403"><ele>403.99999999999994</ele><time>2026-05-03T11:49:04.65Z</time></trkpt><trkpt lat="43.382435" lon="11.6141467"><ele>401.0</ele><time>2026-05-03T11:49:06.648Z</time></trkpt><trkpt lat="43.3825233" lon="11.6142033"><ele>398.0</ele><time>2026-05-03T11:49:08.642Z</time></trkpt><trkpt lat="43.382645" lon="11.6142067"><ele>395.0</ele><time>2026-05-03T11:49:10.644Z</time></trkpt><trkpt lat="43.38271" lon="11.6141967"><ele>391.99999999999994</ele><time>2026-05-03T11:49:11.663Z</time></trkpt><trkpt lat="43.3827767" lon="11.6141767"><ele>389.0</ele><time>2026-05-03T11:49:12.659Z</time></trkpt><trkpt lat="43.382845" lon="11.6141567"><ele>388.99999999999994</ele><time>2026-05-03T11:49:13.688Z</time></trkpt><trkpt lat="43.3829167" lon="11.6141533"><ele>389.0</ele><time>2026-05-03T11:49:14.696Z</time></trkpt><trkpt lat="43.3829833" lon="11.61416"><ele>389.0</ele><time>2026-05-03T11:49:15.682Z</time></trkpt><trkpt lat="43.3830467" lon="11.6141633"><ele>389.0</ele><time>2026-05-03T11:49:16.687Z</time></trkpt><trkpt lat="43.3831583" lon="11.61415"><ele>388.99999999999994</ele><time>2026-05-03T11:49:18.652Z</time></trkpt><trkpt lat="43.38326" lon="11.6141933"><ele>389.0</ele><time>2026-05-03T11:49:21.663Z</time></trkpt><trkpt lat="43.383205" lon="11.614265"><ele>389.0</ele><time>2026-05-03T11:49:24.669Z</time></trkpt><trkpt lat="43.3830933" lon="11.614315"><ele>389.0</ele><time>2026-05-03T11:49:26.665Z</time></trkpt><trkpt lat="43.3829983" lon="11.6143967"><ele>389.0</ele><time>2026-05-03T11:49:28.681Z</time></trkpt><trkpt lat="43.382915" lon="11.61453"><ele>389.0</ele><time>2026-05-03T11:49:30.671Z</time></trkpt><trkpt lat="43.38287" lon="11.61461"><ele>389.0</ele><time>2026-05-03T11:49:31.665Z</time></trkpt><trkpt lat="43.38281" lon="11.6146917"><ele>385.8333333333333</ele><time>2026-05-03T11:49:32.676Z</time></trkpt><trkpt lat="43.382745" lon="11.614785"><ele>382.66666666666663</ele><time>2026-05-03T11:49:33.684Z</time></trkpt><trkpt lat="43.3826717" lon="11.6148683"><ele>379.5</ele><time>2026-05-03T11:49:34.69Z</time></trkpt><trkpt lat="43.3826033" lon="11.6149533"><ele>376.3333333333333</ele><time>2026-05-03T11:49:35.653Z</time></trkpt><trkpt lat="43.3825367" lon="11.6150217"><ele>373.16666666666663</ele><time>2026-05-03T11:49:36.665Z</time></trkpt><trkpt lat="43.3824667" lon="11.6150833"><ele>370.0</ele><time>2026-05-03T11:49:37.649Z</time></trkpt><trkpt lat="43.3824083" lon="11.615135"><ele>370.0</ele><time>2026-05-03T11:49:38.654Z</time></trkpt><trkpt lat="43.382345" lon="11.6151817"><ele>370.0</ele><time>2026-05-03T11:49:39.65Z</time></trkpt><trkpt lat="43.38228" lon="11.6152183"><ele>370.0</ele><time>2026-05-03T11:49:40.651Z</time></trkpt><trkpt lat="43.3821717" lon="11.6152333"><ele>370.0</ele><time>2026-05-03T11:49:42.639Z</time></trkpt><trkpt lat="43.3821067" lon="11.6152333"><ele>370.0</ele><time>2026-05-03T11:49:44.649Z</time></trkpt><trkpt lat="43.38205" lon="11.6153"><ele>370.0</ele><time>2026-05-03T11:49:48.643Z</time></trkpt><trkpt lat="43.3821117" lon="11.615365"><ele>366.2</ele><time>2026-05-03T11:49:51.65Z</time></trkpt><trkpt lat="43.3821917" lon="11.6153733"><ele>362.4</ele><time>2026-05-03T11:49:53.658Z</time></trkpt><trkpt lat="43.3823083" lon="11.61538"><ele>358.6</ele><time>2026-05-03T11:49:55.643Z</time></trkpt><trkpt lat="43.382375" lon="11.6153783"><ele>354.8</ele><time>2026-05-03T11:49:56.639Z</time></trkpt><trkpt lat="43.3824983" lon="11.615365"><ele>351.0</ele><time>2026-05-03T11:49:58.645Z</time></trkpt><trkpt lat="43.3825733" lon="11.6153467"><ele>351.0</ele><time>2026-05-03T11:49:59.647Z</time></trkpt><trkpt lat="43.382645" lon="11.6153233"><ele>351.0</ele><time>2026-05-03T11:50:00.643Z</time></trkpt><trkpt lat="43.3827183" lon="11.615295"><ele>351.0</ele><time>2026-05-03T11:50:01.673Z</time></trkpt><trkpt lat="43.3827967" lon="11.6152633"><ele>351.0</ele><time>2026-05-03T11:50:02.644Z</time></trkpt><trkpt lat="43.382875" lon="11.615235"><ele>351.0</ele><time>2026-05-03T11:50:03.648Z</time></trkpt><trkpt lat="43.3829567" lon="11.615215"><ele>351.0</ele><time>2026-05-03T11:50:04.649Z</time></trkpt><trkpt lat="43.3830317" lon="11.6152"><ele>352.0</ele><time>2026-05-03T11:50:05.644Z</time></trkpt><trkpt lat="43.3831067" lon="11.61519"><ele>353.0</ele><time>2026-05-03T11:50:06.668Z</time></trkpt><trkpt lat="43.3831767" lon="11.6151817"><ele>354.0</ele><time>2026-05-03T11:50:07.644Z</time></trkpt><trkpt lat="43.3832433" lon="11.615195"><ele>355.0</ele><time>2026-05-03T11:50:08.645Z</time></trkpt><trkpt lat="43.383355" lon="11.6152717"><ele>356.0</ele><time>2026-05-03T11:50:10.651Z</time></trkpt><trkpt lat="43.3834417" lon="11.6153917"><ele>353.1666666666667</ele><time>2026-05-03T11:50:12.645Z</time></trkpt><trkpt lat="43.3834983" lon="11.61551"><ele>350.33333333333337</ele><time>2026-05-03T11:50:14.643Z</time></trkpt><trkpt lat="43.38348" lon="11.615625"><ele>347.5</ele><time>2026-05-03T11:50:16.643Z</time></trkpt><trkpt lat="43.383405" lon="11.61573"><ele>344.6666666666667</ele><time>2026-05-03T11:50:18.644Z</time></trkpt><trkpt lat="43.3833733" lon="11.6158067"><ele>341.8333333333333</ele><time>2026-05-03T11:50:19.653Z</time></trkpt><trkpt lat="43.38336" lon="11.6158933"><ele>339.0</ele><time>2026-05-03T11:50:20.634Z</time></trkpt><trkpt lat="43.3833633" lon="11.616055"><ele>336.4</ele><time>2026-05-03T11:50:22.64Z</time></trkpt><trkpt lat="43.3834167" lon="11.6161967"><ele>333.79999999999995</ele><time>2026-05-03T11:50:24.663Z</time></trkpt><trkpt lat="43.3835233" lon="11.6162817"><ele>331.20000000000005</ele><time>2026-05-03T11:50:26.641Z</time></trkpt><trkpt lat="43.3836283" lon="11.61633"><ele>328.6</ele><time>2026-05-03T11:50:28.664Z</time></trkpt><trkpt lat="43.3836967" lon="11.6163983"><ele>326.0</ele><time>2026-05-03T11:50:30.663Z</time></trkpt><trkpt lat="43.3836817" lon="11.6165083"><ele>326.0</ele><time>2026-05-03T11:50:32.651Z</time></trkpt><trkpt lat="43.3836033" lon="11.6165933"><ele>326.0</ele><time>2026-05-03T11:50:34.647Z</time></trkpt><trkpt lat="43.383515" lon="11.61664"><ele>326.0</ele><time>2026-05-03T11:50:36.648Z</time></trkpt><trkpt lat="43.383495" lon="11.61673"><ele>326.0</ele><time>2026-05-03T11:50:38.65Z</time></trkpt><trkpt lat="43.383525" lon="11.6168467"><ele>326.0</ele><time>2026-05-03T11:50:40.648Z</time></trkpt><trkpt lat="43.3835217" lon="11.6169683"><ele>326.0</ele><time>2026-05-03T11:50:42.659Z</time></trkpt><trkpt lat="43.383445" lon="11.61704"><ele>326.0</ele><time>2026-05-03T11:50:44.652Z</time></trkpt><trkpt lat="43.383355" lon="11.6170067"><ele>326.0</ele><time>2026-05-03T11:50:46.648Z</time></trkpt><trkpt lat="43.383285" lon="11.6169167"><ele>326.0</ele><time>2026-05-03T11:50:48.638Z</time></trkpt><trkpt lat="43.383235" lon="11.616835"><ele>326.0</ele><time>2026-05-03T11:50:50.65Z</time></trkpt><trkpt lat="43.3831467" lon="11.6168283"><ele>326.0</ele><time>2026-05-03T11:50:53.661Z</time></trkpt><trkpt lat="43.38311" lon="11.616915"><ele>326.0</ele><time>2026-05-03T11:50:55.646Z</time></trkpt><trkpt lat="43.3831217" lon="11.6170483"><ele>323.5</ele><time>2026-05-03T11:50:57.685Z</time></trkpt><trkpt lat="43.3831467" lon="11.6172067"><ele>321.0</ele><time>2026-05-03T11:50:59.659Z</time></trkpt><trkpt lat="43.3831367" lon="11.6173833"><ele>318.5</ele><time>2026-05-03T11:51:01.649Z</time></trkpt><trkpt lat="43.3831133" lon="11.6175433"><ele>316.0</ele><time>2026-05-03T11:51:03.644Z</time></trkpt><trkpt lat="43.38309" lon="11.6177067"><ele>316.00000000000006</ele><time>2026-05-03T11:51:05.642Z</time></trkpt><trkpt lat="43.3830933" lon="11.6177983"><ele>316.0</ele><time>2026-05-03T11:51:06.639Z</time></trkpt><trkpt lat="43.38309" lon="11.617895"><ele>316.0</ele><time>2026-05-03T11:51:07.644Z</time></trkpt><trkpt lat="43.383085" lon="11.6179867"><ele>316.0</ele><time>2026-05-03T11:51:08.643Z</time></trkpt><trkpt lat="43.3830717" lon="11.6180917"><ele>316.0</ele><time>2026-05-03T11:51:09.646Z</time></trkpt><trkpt lat="43.38305" lon="11.6181867"><ele>316.00000000000006</ele><time>2026-05-03T11:51:10.641Z</time></trkpt><trkpt lat="43.383025" lon="11.6182767"><ele>316.0</ele><time>2026-05-03T11:51:11.641Z</time></trkpt><trkpt lat="43.38299" lon="11.6183517"><ele>314.8</ele><time>2026-05-03T11:51:12.644Z</time></trkpt><trkpt lat="43.38296" lon="11.6184883"><ele>313.6</ele><time>2026-05-03T11:51:14.666Z</time></trkpt><trkpt lat="43.3829467" lon="11.61863"><ele>312.4</ele><time>2026-05-03T11:51:16.639Z</time></trkpt><trkpt lat="43.38293" lon="11.6187833"><ele>311.2</ele><time>2026-05-03T11:51:18.633Z</time></trkpt><trkpt lat="43.3829033" lon="11.6189567"><ele>310.0</ele><time>2026-05-03T11:51:20.633Z</time></trkpt><trkpt lat="43.3828867" lon="11.6190483"><ele>309.16666666666663</ele><time>2026-05-03T11:51:21.645Z</time></trkpt><trkpt lat="43.382875" lon="11.6191467"><ele>308.3333333333333</ele><time>2026-05-03T11:51:22.634Z</time></trkpt><trkpt lat="43.382865" lon="11.6192483"><ele>307.5</ele><time>2026-05-03T11:51:23.644Z</time></trkpt><trkpt lat="43.3828517" lon="11.6193567"><ele>306.6666666666667</ele><time>2026-05-03T11:51:24.644Z</time></trkpt><trkpt lat="43.3828417" lon="11.6194633"><ele>305.83333333333337</ele><time>2026-05-03T11:51:25.646Z</time></trkpt><trkpt lat="43.3828333" lon="11.61957"><ele>305.0</ele><time>2026-05-03T11:51:26.645Z</time></trkpt><trkpt lat="43.3828283" lon="11.619675"><ele>303.6666666666667</ele><time>2026-05-03T11:51:27.64Z</time></trkpt><trkpt lat="43.38282" lon="11.6197717"><ele>302.33333333333337</ele><time>2026-05-03T11:51:28.647Z</time></trkpt><trkpt lat="43.38282" lon="11.61987"><ele>301.0</ele><time>2026-05-03T11:51:29.638Z</time></trkpt><trkpt lat="43.3828267" lon="11.619965"><ele>299.6666666666667</ele><time>2026-05-03T11:51:30.647Z</time></trkpt><trkpt lat="43.38282" lon="11.6201283"><ele>298.3333333333333</ele><time>2026-05-03T11:51:32.654Z</time></trkpt><trkpt lat="43.3828367" lon="11.6202433"><ele>297.0</ele><time>2026-05-03T11:51:34.651Z</time></trkpt><trkpt lat="43.382915" lon="11.6202967"><ele>295.0</ele><time>2026-05-03T11:51:37.651Z</time></trkpt><trkpt lat="43.383025" lon="11.6202767"><ele>293.0</ele><time>2026-05-03T11:51:39.648Z</time></trkpt><trkpt lat="43.3831483" lon="11.620275"><ele>291.0</ele><time>2026-05-03T11:51:41.656Z</time></trkpt><trkpt lat="43.3832083" lon="11.6203017"><ele>289.0</ele><time>2026-05-03T11:51:42.651Z</time></trkpt><trkpt lat="43.383325" lon="11.6203667"><ele>287.0</ele><time>2026-05-03T11:51:44.639Z</time></trkpt><trkpt lat="43.3834317" lon="11.620435"><ele>286.42857142857144</ele><time>2026-05-03T11:51:46.644Z</time></trkpt><trkpt lat="43.3834833" lon="11.6204967"><ele>285.8571428571429</ele><time>2026-05-03T11:51:47.644Z</time></trkpt><trkpt lat="43.3835417" lon="11.6205383"><ele>285.2857142857143</ele><time>2026-05-03T11:51:48.652Z</time></trkpt><trkpt lat="43.3836083" lon="11.6205667"><ele>284.7142857142857</ele><time>2026-05-03T11:51:49.648Z</time></trkpt><trkpt lat="43.3836833" lon="11.62059"><ele>284.14285714285717</ele><time>2026-05-03T11:51:50.64Z</time></trkpt><trkpt lat="43.383765" lon="11.6206033"><ele>283.57142857142856</ele><time>2026-05-03T11:51:51.645Z</time></trkpt><trkpt lat="43.383845" lon="11.6206017"><ele>283.0</ele><time>2026-05-03T11:51:52.651Z</time></trkpt><trkpt lat="43.3839183" lon="11.620595"><ele>282.8</ele><time>2026-05-03T11:51:53.651Z</time></trkpt><trkpt lat="43.3840317" lon="11.62059"><ele>282.6</ele><time>2026-05-03T11:51:55.648Z</time></trkpt><trkpt lat="43.3840917" lon="11.6206433"><ele>282.4</ele><time>2026-05-03T11:51:57.657Z</time></trkpt><trkpt lat="43.38414" lon="11.6207483"><ele>282.2</ele><time>2026-05-03T11:52:00.638Z</time></trkpt><trkpt lat="43.3842167" lon="11.6208083"><ele>282.0</ele><time>2026-05-03T11:52:02.648Z</time></trkpt><trkpt lat="43.384345" lon="11.6208083"><ele>282.0</ele><time>2026-05-03T11:52:04.644Z</time></trkpt><trkpt lat="43.3844533" lon="11.6208333"><ele>282.0</ele><time>2026-05-03T11:52:06.652Z</time></trkpt><trkpt lat="43.3845367" lon="11.6208433"><ele>282.0</ele><time>2026-05-03T11:52:08.649Z</time></trkpt><trkpt lat="43.384645" lon="11.6208067"><ele>282.0</ele><time>2026-05-03T11:52:10.648Z</time></trkpt><trkpt lat="43.384715" lon="11.6207533"><ele>282.0</ele><time>2026-05-03T11:52:11.644Z</time></trkpt><trkpt lat="43.3847983" lon="11.6206883"><ele>282.25</ele><time>2026-05-03T11:52:12.649Z</time></trkpt><trkpt lat="43.3848983" lon="11.6206133"><ele>282.5</ele><time>2026-05-03T11:52:13.657Z</time></trkpt><trkpt lat="43.385005" lon="11.62054"><ele>282.75</ele><time>2026-05-03T11:52:14.648Z</time></trkpt><trkpt lat="43.3851217" lon="11.6204567"><ele>283.0</ele><time>2026-05-03T11:52:15.648Z</time></trkpt><trkpt lat="43.3852417" lon="11.6203717"><ele>282.5</ele><time>2026-05-03T11:52:16.648Z</time></trkpt><trkpt lat="43.3853683" lon="11.6202783"><ele>282.0</ele><time>2026-05-03T11:52:17.659Z</time></trkpt><trkpt lat="43.3855" lon="11.6201867"><ele>281.5</ele><time>2026-05-03T11:52:18.653Z</time></trkpt><trkpt lat="43.3856383" lon="11.6200917"><ele>281.0</ele><time>2026-05-03T11:52:19.645Z</time></trkpt><trkpt lat="43.3857833" lon="11.6199933"><ele>281.0</ele><time>2026-05-03T11:52:20.659Z</time></trkpt><trkpt lat="43.3859367" lon="11.6198883"><ele>281.0</ele><time>2026-05-03T11:52:21.655Z</time></trkpt><trkpt lat="43.3860883" lon="11.619775"><ele>281.0</ele><time>2026-05-03T11:52:22.674Z</time></trkpt><trkpt lat="43.38624" lon="11.6196683"><ele>280.33333333333337</ele><time>2026-05-03T11:52:23.657Z</time></trkpt><trkpt lat="43.3864" lon="11.6195533"><ele>279.6666666666667</ele><time>2026-05-03T11:52:24.656Z</time></trkpt><trkpt lat="43.3865633" lon="11.6194383"><ele>279.0</ele><time>2026-05-03T11:52:25.661Z</time></trkpt><trkpt lat="43.3867283" lon="11.6193183"><ele>279.0</ele><time>2026-05-03T11:52:26.667Z</time></trkpt><trkpt lat="43.386895" lon="11.6192117"><ele>279.0</ele><time>2026-05-03T11:52:27.666Z</time></trkpt><trkpt lat="43.3870633" lon="11.6190983"><ele>279.0</ele><time>2026-05-03T11:52:28.668Z</time></trkpt><trkpt lat="43.3872233" lon="11.6189867"><ele>278.3333333333333</ele><time>2026-05-03T11:52:29.648Z</time></trkpt><trkpt lat="43.3873883" lon="11.6188683"><ele>277.66666666666663</ele><time>2026-05-03T11:52:30.656Z</time></trkpt><trkpt lat="43.3875567" lon="11.61875"><ele>277.0</ele><time>2026-05-03T11:52:31.649Z</time></trkpt><trkpt lat="43.38773" lon="11.6186283"><ele>277.0</ele><time>2026-05-03T11:52:32.658Z</time></trkpt><trkpt lat="43.3878983" lon="11.6185233"><ele>277.0</ele><time>2026-05-03T11:52:33.657Z</time></trkpt><trkpt lat="43.3880733" lon="11.6184033"><ele>277.0</ele><time>2026-05-03T11:52:34.637Z</time></trkpt><trkpt lat="43.3882367" lon="11.61829"><ele>277.3333333333333</ele><time>2026-05-03T11:52:35.652Z</time></trkpt><trkpt lat="43.3883967" lon="11.6181833"><ele>277.6666666666667</ele><time>2026-05-03T11:52:36.653Z</time></trkpt><trkpt lat="43.38856" lon="11.6180783"><ele>278.0</ele><time>2026-05-03T11:52:37.657Z</time></trkpt><trkpt lat="43.3887133" lon="11.617975"><ele>278.6666666666667</ele><time>2026-05-03T11:52:38.653Z</time></trkpt><trkpt lat="43.3888667" lon="11.6178617"><ele>279.3333333333333</ele><time>2026-05-03T11:52:39.652Z</time></trkpt><trkpt lat="43.3890117" lon="11.6177317"><ele>280.0</ele><time>2026-05-03T11:52:40.655Z</time></trkpt><trkpt lat="43.3891483" lon="11.6175883"><ele>278.3333333333333</ele><time>2026-05-03T11:52:41.655Z</time></trkpt><trkpt lat="43.389285" lon="11.617425"><ele>276.6666666666667</ele><time>2026-05-03T11:52:42.673Z</time></trkpt><trkpt lat="43.3894217" lon="11.617265"><ele>275.0</ele><time>2026-05-03T11:52:43.649Z</time></trkpt><trkpt lat="43.3895567" lon="11.61711"><ele>274.6666666666667</ele><time>2026-05-03T11:52:44.649Z</time></trkpt><trkpt lat="43.3896917" lon="11.6169433"><ele>274.3333333333333</ele><time>2026-05-03T11:52:45.669Z</time></trkpt><trkpt lat="43.38983" lon="11.61678"><ele>274.0</ele><time>2026-05-03T11:52:46.673Z</time></trkpt><trkpt lat="43.3899733" lon="11.61661"><ele>274.0</ele><time>2026-05-03T11:52:47.664Z</time></trkpt><trkpt lat="43.3901083" lon="11.6164333"><ele>274.0</ele><time>2026-05-03T11:52:48.674Z</time></trkpt><trkpt lat="43.39025" lon="11.6162633"><ele>274.0</ele><time>2026-05-03T11:52:49.663Z</time></trkpt><trkpt lat="43.390385" lon="11.6160967"><ele>273.0</ele><time>2026-05-03T11:52:50.681Z</time></trkpt><trkpt lat="43.390525" lon="11.615925"><ele>272.0</ele><time>2026-05-03T11:52:51.669Z</time></trkpt><trkpt lat="43.3906633" lon="11.6157517"><ele>271.0</ele><time>2026-05-03T11:52:52.656Z</time></trkpt><trkpt lat="43.3908033" lon="11.6155867"><ele>271.0</ele><time>2026-05-03T11:52:53.653Z</time></trkpt><trkpt lat="43.39093" lon="11.61543"><ele>271.0</ele><time>2026-05-03T11:52:54.655Z</time></trkpt><trkpt lat="43.3910633" lon="11.61529"><ele>271.0</ele><time>2026-05-03T11:52:55.649Z</time></trkpt><trkpt lat="43.391195" lon="11.6151667"><ele>271.0</ele><time>2026-05-03T11:52:56.653Z</time></trkpt><trkpt lat="43.3913267" lon="11.615075"><ele>271.0</ele><time>2026-05-03T11:52:57.656Z</time></trkpt><trkpt lat="43.3914567" lon="11.61497"><ele>271.0</ele><time>2026-05-03T11:52:58.653Z</time></trkpt><trkpt lat="43.391575" lon="11.6148533"><ele>271.0</ele><time>2026-05-03T11:52:59.644Z</time></trkpt><trkpt lat="43.3916767" lon="11.6147083"><ele>271.0</ele><time>2026-05-03T11:53:00.649Z</time></trkpt><trkpt lat="43.3917683" lon="11.6145317"><ele>271.0</ele><time>2026-05-03T11:53:01.643Z</time></trkpt><trkpt lat="43.3918467" lon="11.614335"><ele>271.0</ele><time>2026-05-03T11:53:02.649Z</time></trkpt><trkpt lat="43.39192" lon="11.6141383"><ele>270.0</ele><time>2026-05-03T11:53:03.649Z</time></trkpt><trkpt lat="43.39199" lon="11.6139367"><ele>269.0</ele><time>2026-05-03T11:53:04.653Z</time></trkpt><trkpt lat="43.3920633" lon="11.613725"><ele>268.0</ele><time>2026-05-03T11:53:05.649Z</time></trkpt><trkpt lat="43.39214" lon="11.6135217"><ele>268.66666666666663</ele><time>2026-05-03T11:53:06.664Z</time></trkpt><trkpt lat="43.3922033" lon="11.6133067"><ele>269.3333333333333</ele><time>2026-05-03T11:53:07.649Z</time></trkpt><trkpt lat="43.3922683" lon="11.6130933"><ele>270.0</ele><time>2026-05-03T11:53:08.65Z</time></trkpt><trkpt lat="43.39234" lon="11.612875"><ele>268.3333333333333</ele><time>2026-05-03T11:53:09.646Z</time></trkpt><trkpt lat="43.3924217" lon="11.6126633"><ele>266.66666666666663</ele><time>2026-05-03T11:53:10.645Z</time></trkpt><trkpt lat="43.3925067" lon="11.6124483"><ele>265.0</ele><time>2026-05-03T11:53:11.642Z</time></trkpt><trkpt lat="43.3925833" lon="11.6122383"><ele>265.0</ele><time>2026-05-03T11:53:12.647Z</time></trkpt><trkpt lat="43.392655" lon="11.61204"><ele>265.0</ele><time>2026-05-03T11:53:13.644Z</time></trkpt><trkpt lat="43.3927283" lon="11.6118483"><ele>265.0</ele><time>2026-05-03T11:53:14.642Z</time></trkpt><trkpt lat="43.3927983" lon="11.61166"><ele>265.0</ele><time>2026-05-03T11:53:15.643Z</time></trkpt><trkpt lat="43.3928733" lon="11.611485"><ele>265.0</ele><time>2026-05-03T11:53:16.647Z</time></trkpt><trkpt lat="43.3929483" lon="11.6113183"><ele>265.0</ele><time>2026-05-03T11:53:17.645Z</time></trkpt><trkpt lat="43.3930433" lon="11.61117"><ele>265.0</ele><time>2026-05-03T11:53:18.651Z</time></trkpt><trkpt lat="43.393165" lon="11.6110517"><ele>265.0</ele><time>2026-05-03T11:53:19.648Z</time></trkpt><trkpt lat="43.3932967" lon="11.6109317"><ele>265.0</ele><time>2026-05-03T11:53:20.648Z</time></trkpt><trkpt lat="43.3934483" lon="11.6108267"><ele>265.0</ele><time>2026-05-03T11:53:21.646Z</time></trkpt><trkpt lat="43.39362" lon="11.6107317"><ele>265.0</ele><time>2026-05-03T11:53:22.644Z</time></trkpt><trkpt lat="43.3937917" lon="11.610625"><ele>265.0</ele><time>2026-05-03T11:53:23.657Z</time></trkpt><trkpt lat="43.3939717" lon="11.610515"><ele>265.0</ele><time>2026-05-03T11:53:24.641Z</time></trkpt><trkpt lat="43.394155" lon="11.6104017"><ele>263.66666666666663</ele><time>2026-05-03T11:53:25.642Z</time></trkpt><trkpt lat="43.394335" lon="11.6102733"><ele>262.3333333333333</ele><time>2026-05-03T11:53:26.638Z</time></trkpt><trkpt lat="43.3945217" lon="11.610155"><ele>261.0</ele><time>2026-05-03T11:53:27.639Z</time></trkpt><trkpt lat="43.394715" lon="11.6100317"><ele>261.0</ele><time>2026-05-03T11:53:28.642Z</time></trkpt><trkpt lat="43.3949" lon="11.6099033"><ele>261.0</ele><time>2026-05-03T11:53:29.654Z</time></trkpt><trkpt lat="43.3950867" lon="11.6097833"><ele>261.0</ele><time>2026-05-03T11:53:30.666Z</time></trkpt><trkpt lat="43.3952733" lon="11.6096467"><ele>261.0</ele><time>2026-05-03T11:53:31.661Z</time></trkpt><trkpt lat="43.3954617" lon="11.6095333"><ele>261.0</ele><time>2026-05-03T11:53:32.678Z</time></trkpt><trkpt lat="43.3956533" lon="11.60941"><ele>261.0</ele><time>2026-05-03T11:53:33.653Z</time></trkpt><trkpt lat="43.3958333" lon="11.6092883"><ele>261.3333333333333</ele><time>2026-05-03T11:53:34.652Z</time></trkpt><trkpt lat="43.39601" lon="11.6091867"><ele>261.66666666666663</ele><time>2026-05-03T11:53:35.639Z</time></trkpt><trkpt lat="43.3961667" lon="11.6090817"><ele>262.0</ele><time>2026-05-03T11:53:36.655Z</time></trkpt><trkpt lat="43.396315" lon="11.6089633"><ele>263.66666666666663</ele><time>2026-05-03T11:53:37.647Z</time></trkpt><trkpt lat="43.39645" lon="11.6088267"><ele>265.3333333333333</ele><time>2026-05-03T11:53:38.653Z</time></trkpt><trkpt lat="43.3965683" lon="11.6086533"><ele>267.0</ele><time>2026-05-03T11:53:39.684Z</time></trkpt><trkpt lat="43.3966817" lon="11.60847"><ele>267.3333333333333</ele><time>2026-05-03T11:53:40.654Z</time></trkpt><trkpt lat="43.396795" lon="11.6082733"><ele>267.66666666666663</ele><time>2026-05-03T11:53:41.765Z</time></trkpt><trkpt lat="43.3969017" lon="11.6080867"><ele>268.0</ele><time>2026-05-03T11:53:42.77Z</time></trkpt><trkpt lat="43.397015" lon="11.6078933"><ele>266.66666666666663</ele><time>2026-05-03T11:53:43.714Z</time></trkpt><trkpt lat="43.3971333" lon="11.6077067"><ele>265.3333333333333</ele><time>2026-05-03T11:53:44.656Z</time></trkpt><trkpt lat="43.3972517" lon="11.6075033"><ele>264.0</ele><time>2026-05-03T11:53:45.667Z</time></trkpt><trkpt lat="43.3973617" lon="11.6073167"><ele>264.6666666666667</ele><time>2026-05-03T11:53:46.679Z</time></trkpt><trkpt lat="43.3974717" lon="11.6071383"><ele>265.33333333333337</ele><time>2026-05-03T11:53:47.676Z</time></trkpt><trkpt lat="43.3975767" lon="11.60697"><ele>266.0</ele><time>2026-05-03T11:53:48.653Z</time></trkpt><trkpt lat="43.397685" lon="11.60682"><ele>266.0</ele><time>2026-05-03T11:53:49.649Z</time></trkpt><trkpt lat="43.3977867" lon="11.6066817"><ele>266.0</ele><time>2026-05-03T11:53:50.665Z</time></trkpt><trkpt lat="43.397885" lon="11.6065617"><ele>266.0</ele><time>2026-05-03T11:53:51.661Z</time></trkpt><trkpt lat="43.3979883" lon="11.60649"><ele>266.0</ele><time>2026-05-03T11:53:52.663Z</time></trkpt><trkpt lat="43.3981033" lon="11.606435"><ele>267.75</ele><time>2026-05-03T11:53:53.683Z</time></trkpt><trkpt lat="43.398235" lon="11.6063867"><ele>269.5</ele><time>2026-05-03T11:53:54.681Z</time></trkpt><trkpt lat="43.3983733" lon="11.6063483"><ele>271.25</ele><time>2026-05-03T11:53:55.647Z</time></trkpt><trkpt lat="43.3985167" lon="11.606315"><ele>273.0</ele><time>2026-05-03T11:53:56.654Z</time></trkpt><trkpt lat="43.3986667" lon="11.606265"><ele>273.0</ele><time>2026-05-03T11:53:57.652Z</time></trkpt><trkpt lat="43.398805" lon="11.6062317"><ele>273.0</ele><time>2026-05-03T11:53:58.672Z</time></trkpt><trkpt lat="43.398935" lon="11.6061933"><ele>273.0</ele><time>2026-05-03T11:53:59.65Z</time></trkpt><trkpt lat="43.3990567" lon="11.6061667"><ele>273.0</ele><time>2026-05-03T11:54:00.646Z</time></trkpt><trkpt lat="43.39917" lon="11.60614"><ele>272.1666666666667</ele><time>2026-05-03T11:54:01.648Z</time></trkpt><trkpt lat="43.3992667" lon="11.6061133"><ele>271.3333333333333</ele><time>2026-05-03T11:54:02.647Z</time></trkpt><trkpt lat="43.3993433" lon="11.6061083"><ele>270.5</ele><time>2026-05-03T11:54:03.677Z</time></trkpt><trkpt lat="43.3994067" lon="11.60612"><ele>269.66666666666663</ele><time>2026-05-03T11:54:04.654Z</time></trkpt><trkpt lat="43.3994933" lon="11.60613"><ele>268.8333333333333</ele><time>2026-05-03T11:54:06.656Z</time></trkpt><trkpt lat="43.3996017" lon="11.6061467"><ele>268.0</ele><time>2026-05-03T11:55:11.718Z</time></trkpt><trkpt lat="43.3997133" lon="11.6061117"><ele>267.66666666666663</ele><time>2026-05-03T11:55:13.669Z</time></trkpt><trkpt lat="43.3997817" lon="11.6061"><ele>267.3333333333333</ele><time>2026-05-03T11:55:14.654Z</time></trkpt><trkpt lat="43.3998567" lon="11.6060833"><ele>267.0</ele><time>2026-05-03T11:55:15.648Z</time></trkpt><trkpt lat="43.3999467" lon="11.606065"><ele>266.6666666666667</ele><time>2026-05-03T11:55:16.668Z</time></trkpt><trkpt lat="43.4000467" lon="11.6060567"><ele>266.33333333333337</ele><time>2026-05-03T11:55:17.673Z</time></trkpt><trkpt lat="43.40016" lon="11.606055"><ele>266.0</ele><time>2026-05-03T11:55:18.665Z</time></trkpt><trkpt lat="43.4002833" lon="11.606045"><ele>266.0</ele><time>2026-05-03T11:55:19.648Z</time></trkpt><trkpt lat="43.4004117" lon="11.606025"><ele>266.0</ele><time>2026-05-03T11:55:20.658Z</time></trkpt><trkpt lat="43.4005483" lon="11.6060067"><ele>266.0</ele><time>2026-05-03T11:55:21.655Z</time></trkpt><trkpt lat="43.40069" lon="11.6060067"><ele>266.0</ele><time>2026-05-03T11:55:22.655Z</time></trkpt><trkpt lat="43.400845" lon="11.6060067"><ele>266.6666666666667</ele><time>2026-05-03T11:55:23.64Z</time></trkpt><trkpt lat="43.4010033" lon="11.6060167"><ele>267.3333333333333</ele><time>2026-05-03T11:55:24.653Z</time></trkpt><trkpt lat="43.4011717" lon="11.6060283"><ele>268.0</ele><time>2026-05-03T11:55:25.655Z</time></trkpt><trkpt lat="43.40134" lon="11.60605"><ele>268.66666666666663</ele><time>2026-05-03T11:55:26.643Z</time></trkpt><trkpt lat="43.401505" lon="11.6060667"><ele>269.3333333333333</ele><time>2026-05-03T11:55:27.658Z</time></trkpt><trkpt lat="43.4016717" lon="11.606085"><ele>270.0</ele><time>2026-05-03T11:55:28.658Z</time></trkpt><trkpt lat="43.4018283" lon="11.6060933"><ele>270.0</ele><time>2026-05-03T11:55:29.692Z</time></trkpt><trkpt lat="43.4019833" lon="11.6061033"><ele>270.0</ele><time>2026-05-03T11:55:30.684Z</time></trkpt><trkpt lat="43.4021333" lon="11.606095"><ele>270.0</ele><time>2026-05-03T11:55:31.66Z</time></trkpt><trkpt lat="43.4022767" lon="11.6060783"><ele>270.0</ele><time>2026-05-03T11:55:32.665Z</time></trkpt><trkpt lat="43.402425" lon="11.6060217"><ele>271.3333333333333</ele><time>2026-05-03T11:55:33.649Z</time></trkpt><trkpt lat="43.4025533" lon="11.6059333"><ele>272.66666666666663</ele><time>2026-05-03T11:55:34.672Z</time></trkpt><trkpt lat="43.4026783" lon="11.6058133"><ele>274.0</ele><time>2026-05-03T11:55:35.649Z</time></trkpt><trkpt lat="43.40281" lon="11.60568"><ele>274.0</ele><time>2026-05-03T11:55:36.653Z</time></trkpt><trkpt lat="43.4029383" lon="11.60555"><ele>274.0</ele><time>2026-05-03T11:55:37.651Z</time></trkpt><trkpt lat="43.4030567" lon="11.6054283"><ele>274.0</ele><time>2026-05-03T11:55:38.652Z</time></trkpt><trkpt lat="43.4031683" lon="11.605305"><ele>274.5</ele><time>2026-05-03T11:55:39.645Z</time></trkpt><trkpt lat="43.4032867" lon="11.6051933"><ele>275.0</ele><time>2026-05-03T11:55:40.665Z</time></trkpt><trkpt lat="43.40341" lon="11.6051033"><ele>275.5</ele><time>2026-05-03T11:55:41.656Z</time></trkpt><trkpt lat="43.4035467" lon="11.6050333"><ele>276.0</ele><time>2026-05-03T11:55:42.649Z</time></trkpt><trkpt lat="43.4037" lon="11.6049717"><ele>277.0</ele><time>2026-05-03T11:55:43.656Z</time></trkpt><trkpt lat="43.403855" lon="11.6049233"><ele>278.0</ele><time>2026-05-03T11:55:44.653Z</time></trkpt><trkpt lat="43.4040133" lon="11.604885"><ele>279.0</ele><time>2026-05-03T11:55:45.655Z</time></trkpt><trkpt lat="43.4041767" lon="11.604825"><ele>279.0</ele><time>2026-05-03T11:55:46.647Z</time></trkpt><trkpt lat="43.4043367" lon="11.604765"><ele>279.0</ele><time>2026-05-03T11:55:47.65Z</time></trkpt><trkpt lat="43.4045017" lon="11.6047083"><ele>279.0</ele><time>2026-05-03T11:55:48.649Z</time></trkpt><trkpt lat="43.404675" lon="11.60464"><ele>279.6666666666667</ele><time>2026-05-03T11:55:49.661Z</time></trkpt><trkpt lat="43.4048583" lon="11.60457"><ele>280.33333333333337</ele><time>2026-05-03T11:55:50.65Z</time></trkpt><trkpt lat="43.4050367" lon="11.604505"><ele>281.0</ele><time>2026-05-03T11:55:51.675Z</time></trkpt><trkpt lat="43.40522" lon="11.6044417"><ele>278.6666666666667</ele><time>2026-05-03T11:55:52.655Z</time></trkpt><trkpt lat="43.405405" lon="11.6043783"><ele>276.3333333333333</ele><time>2026-05-03T11:55:53.657Z</time></trkpt><trkpt lat="43.405585" lon="11.6043083"><ele>274.0</ele><time>2026-05-03T11:55:54.646Z</time></trkpt><trkpt lat="43.40577" lon="11.6042317"><ele>274.0</ele><time>2026-05-03T11:55:55.655Z</time></trkpt><trkpt lat="43.4059483" lon="11.6041417"><ele>274.0</ele><time>2026-05-03T11:55:56.655Z</time></trkpt><trkpt lat="43.406125" lon="11.60405"><ele>274.0</ele><time>2026-05-03T11:55:57.65Z</time></trkpt><trkpt lat="43.4063" lon="11.60396"><ele>273.66666666666663</ele><time>2026-05-03T11:55:58.639Z</time></trkpt><trkpt lat="43.4064817" lon="11.6038633"><ele>273.3333333333333</ele><time>2026-05-03T11:55:59.642Z</time></trkpt><trkpt lat="43.4066683" lon="11.6037567"><ele>273.0</ele><time>2026-05-03T11:56:00.652Z</time></trkpt><trkpt lat="43.4068583" lon="11.6036483"><ele>269.6666666666667</ele><time>2026-05-03T11:56:01.659Z</time></trkpt><trkpt lat="43.407035" lon="11.6035433"><ele>266.33333333333337</ele><time>2026-05-03T11:56:02.654Z</time></trkpt><trkpt lat="43.4072133" lon="11.60344"><ele>263.0</ele><time>2026-05-03T11:56:03.654Z</time></trkpt><trkpt lat="43.40739" lon="11.60334"><ele>262.0</ele><time>2026-05-03T11:56:04.659Z</time></trkpt><trkpt lat="43.4075583" lon="11.603245"><ele>261.0</ele><time>2026-05-03T11:56:05.653Z</time></trkpt><trkpt lat="43.407715" lon="11.6031417"><ele>260.0</ele><time>2026-05-03T11:56:06.645Z</time></trkpt><trkpt lat="43.407875" lon="11.6030533"><ele>259.0</ele><time>2026-05-03T11:56:07.652Z</time></trkpt><trkpt lat="43.4080367" lon="11.6029583"><ele>258.0</ele><time>2026-05-03T11:56:08.653Z</time></trkpt><trkpt lat="43.4082033" lon="11.6028917"><ele>257.0</ele><time>2026-05-03T11:56:09.666Z</time></trkpt><trkpt lat="43.408365" lon="11.6028317"><ele>257.0</ele><time>2026-05-03T11:56:10.652Z</time></trkpt><trkpt lat="43.4085267" lon="11.6028167"><ele>257.0</ele><time>2026-05-03T11:56:11.656Z</time></trkpt><trkpt lat="43.4086983" lon="11.6028317"><ele>257.0</ele><time>2026-05-03T11:56:12.667Z</time></trkpt><trkpt lat="43.4088683" lon="11.6028817"><ele>256.0</ele><time>2026-05-03T11:56:13.66Z</time></trkpt><trkpt lat="43.40904" lon="11.6029517"><ele>255.0</ele><time>2026-05-03T11:56:14.672Z</time></trkpt><trkpt lat="43.4092117" lon="11.6030333"><ele>254.0</ele><time>2026-05-03T11:56:15.658Z</time></trkpt><trkpt lat="43.40939" lon="11.6031167"><ele>254.0</ele><time>2026-05-03T11:56:16.672Z</time></trkpt><trkpt lat="43.409575" lon="11.603195"><ele>254.0</ele><time>2026-05-03T11:56:17.636Z</time></trkpt><trkpt lat="43.40976" lon="11.6032783"><ele>254.0</ele><time>2026-05-03T11:56:18.651Z</time></trkpt><trkpt lat="43.409955" lon="11.60336"><ele>252.66666666666669</ele><time>2026-05-03T11:56:19.663Z</time></trkpt><trkpt lat="43.410145" lon="11.60345"><ele>251.33333333333331</ele><time>2026-05-03T11:56:20.642Z</time></trkpt><trkpt lat="43.410335" lon="11.603535"><ele>250.0</ele><time>2026-05-03T11:56:21.638Z</time></trkpt><trkpt lat="43.4105317" lon="11.6036133"><ele>251.33333333333331</ele><time>2026-05-03T11:56:22.665Z</time></trkpt><trkpt lat="43.4107233" lon="11.6036983"><ele>252.66666666666669</ele><time>2026-05-03T11:56:23.684Z</time></trkpt><trkpt lat="43.4109117" lon="11.6037783"><ele>254.0</ele><time>2026-05-03T11:56:24.648Z</time></trkpt><trkpt lat="43.4111" lon="11.6038533"><ele>254.0</ele><time>2026-05-03T11:56:25.648Z</time></trkpt><trkpt lat="43.4112817" lon="11.60394"><ele>254.0</ele><time>2026-05-03T11:56:26.664Z</time></trkpt><trkpt lat="43.4114617" lon="11.6040183"><ele>254.0</ele><time>2026-05-03T11:56:27.654Z</time></trkpt><trkpt lat="43.41163" lon="11.604095"><ele>252.0</ele><time>2026-05-03T11:56:28.654Z</time></trkpt><trkpt lat="43.4117917" lon="11.6041917"><ele>250.0</ele><time>2026-05-03T11:56:29.637Z</time></trkpt><trkpt lat="43.4119433" lon="11.6043017"><ele>248.0</ele><time>2026-05-03T11:56:30.649Z</time></trkpt><trkpt lat="43.4120933" lon="11.6044333"><ele>248.66666666666669</ele><time>2026-05-03T11:56:31.651Z</time></trkpt><trkpt lat="43.4122433" lon="11.6045683"><ele>249.33333333333331</ele><time>2026-05-03T11:56:32.652Z</time></trkpt><trkpt lat="43.41239" lon="11.604725"><ele>250.0</ele><time>2026-05-03T11:56:33.659Z</time></trkpt><trkpt lat="43.41254" lon="11.604875"><ele>250.0</ele><time>2026-05-03T11:56:34.65Z</time></trkpt><trkpt lat="43.412695" lon="11.60502"><ele>250.0</ele><time>2026-05-03T11:56:35.651Z</time></trkpt><trkpt lat="43.4128483" lon="11.6051783"><ele>250.0</ele><time>2026-05-03T11:56:36.657Z</time></trkpt><trkpt lat="43.4130117" lon="11.6053133"><ele>250.0</ele><time>2026-05-03T11:56:37.68Z</time></trkpt><trkpt lat="43.41318" lon="11.60545"><ele>250.0</ele><time>2026-05-03T11:56:38.684Z</time></trkpt><trkpt lat="43.4133433" lon="11.6055983"><ele>250.0</ele><time>2026-05-03T11:56:39.656Z</time></trkpt><trkpt lat="43.4135083" lon="11.6057467"><ele>250.0</ele><time>2026-05-03T11:56:40.672Z</time></trkpt><trkpt lat="43.4136617" lon="11.6059"><ele>250.0</ele><time>2026-05-03T11:56:41.685Z</time></trkpt><trkpt lat="43.41381" lon="11.6060417"><ele>250.0</ele><time>2026-05-03T11:56:42.684Z</time></trkpt><trkpt lat="43.4139517" lon="11.606175"><ele>250.33333333333331</ele><time>2026-05-03T11:56:43.671Z</time></trkpt><trkpt lat="43.414105" lon="11.6063"><ele>250.66666666666669</ele><time>2026-05-03T11:56:44.7Z</time></trkpt><trkpt lat="43.4142667" lon="11.6063917"><ele>251.0</ele><time>2026-05-03T11:56:45.665Z</time></trkpt><trkpt lat="43.4144317" lon="11.606445"><ele>251.0</ele><time>2026-05-03T11:56:46.649Z</time></trkpt><trkpt lat="43.4145983" lon="11.60647"><ele>251.0</ele><time>2026-05-03T11:56:47.673Z</time></trkpt><trkpt lat="43.414765" lon="11.6065"><ele>251.0</ele><time>2026-05-03T11:56:48.654Z</time></trkpt><trkpt lat="43.4149267" lon="11.6065333"><ele>249.0</ele><time>2026-05-03T11:56:49.689Z</time></trkpt><trkpt lat="43.4150867" lon="11.6066017"><ele>247.0</ele><time>2026-05-03T11:56:50.666Z</time></trkpt><trkpt lat="43.4152467" lon="11.6066883"><ele>245.0</ele><time>2026-05-03T11:56:51.696Z</time></trkpt><trkpt lat="43.4154" lon="11.6067817"><ele>245.0</ele><time>2026-05-03T11:56:52.672Z</time></trkpt><trkpt lat="43.4155517" lon="11.606875"><ele>245.0</ele><time>2026-05-03T11:56:53.676Z</time></trkpt><trkpt lat="43.41569" lon="11.6069533"><ele>245.0</ele><time>2026-05-03T11:56:54.669Z</time></trkpt><trkpt lat="43.41582" lon="11.60703"><ele>245.6</ele><time>2026-05-03T11:56:55.696Z</time></trkpt><trkpt lat="43.4159417" lon="11.607095"><ele>246.2</ele><time>2026-05-03T11:56:56.687Z</time></trkpt><trkpt lat="43.41605" lon="11.6071383"><ele>246.8</ele><time>2026-05-03T11:56:57.663Z</time></trkpt><trkpt lat="43.41614" lon="11.6071667"><ele>247.4</ele><time>2026-05-03T11:56:58.687Z</time></trkpt><trkpt lat="43.41621" lon="11.6071917"><ele>248.0</ele><time>2026-05-03T11:56:59.693Z</time></trkpt><trkpt lat="43.41628" lon="11.6072267"><ele>247.50000000000003</ele><time>2026-05-03T11:57:00.687Z</time></trkpt><trkpt lat="43.4163433" lon="11.6072667"><ele>247.0</ele><time>2026-05-03T11:57:01.688Z</time></trkpt><trkpt lat="43.4164017" lon="11.6073067"><ele>246.5</ele><time>2026-05-03T11:57:02.706Z</time></trkpt><trkpt lat="43.4164717" lon="11.6073833"><ele>246.0</ele><time>2026-05-03T11:57:03.675Z</time></trkpt><trkpt lat="43.4165467" lon="11.6074583"><ele>245.50000000000003</ele><time>2026-05-03T11:57:04.649Z</time></trkpt><trkpt lat="43.416625" lon="11.6075583"><ele>245.0</ele><time>2026-05-03T11:57:05.655Z</time></trkpt><trkpt lat="43.4167017" lon="11.6076767"><ele>245.0</ele><time>2026-05-03T11:57:06.652Z</time></trkpt><trkpt lat="43.416785" lon="11.607805"><ele>245.0</ele><time>2026-05-03T11:57:07.653Z</time></trkpt><trkpt lat="43.41688" lon="11.6079267"><ele>245.0</ele><time>2026-05-03T11:57:08.652Z</time></trkpt><trkpt lat="43.416985" lon="11.6080433"><ele>245.0</ele><time>2026-05-03T11:57:09.662Z</time></trkpt><trkpt lat="43.4171033" lon="11.60816"><ele>245.75</ele><time>2026-05-03T11:57:10.672Z</time></trkpt><trkpt lat="43.4172317" lon="11.6082583"><ele>246.5</ele><time>2026-05-03T11:57:11.676Z</time></trkpt><trkpt lat="43.41736" lon="11.6083433"><ele>247.25</ele><time>2026-05-03T11:57:12.658Z</time></trkpt><trkpt lat="43.4174967" lon="11.60842"><ele>248.0</ele><time>2026-05-03T11:57:13.669Z</time></trkpt><trkpt lat="43.4176467" lon="11.6085"><ele>248.0</ele><time>2026-05-03T11:57:14.689Z</time></trkpt><trkpt lat="43.4177883" lon="11.608575"><ele>248.0</ele><time>2026-05-03T11:57:15.704Z</time></trkpt><trkpt lat="43.41792" lon="11.608665"><ele>248.0</ele><time>2026-05-03T11:57:16.657Z</time></trkpt><trkpt lat="43.4180533" lon="11.60876"><ele>248.0</ele><time>2026-05-03T11:57:17.653Z</time></trkpt><trkpt lat="43.4181817" lon="11.6088483"><ele>248.75</ele><time>2026-05-03T11:57:18.643Z</time></trkpt><trkpt lat="43.4183033" lon="11.608925"><ele>249.5</ele><time>2026-05-03T11:57:19.677Z</time></trkpt><trkpt lat="43.418415" lon="11.609025"><ele>250.25</ele><time>2026-05-03T11:57:20.678Z</time></trkpt><trkpt lat="43.4185267" lon="11.609135"><ele>251.0</ele><time>2026-05-03T11:57:21.684Z</time></trkpt><trkpt lat="43.4186417" lon="11.60925"><ele>251.0</ele><time>2026-05-03T11:57:22.696Z</time></trkpt><trkpt lat="43.4187567" lon="11.6093683"><ele>251.0</ele><time>2026-05-03T11:57:23.688Z</time></trkpt><trkpt lat="43.4188483" lon="11.6094933"><ele>251.0</ele><time>2026-05-03T11:57:24.651Z</time></trkpt><trkpt lat="43.41895" lon="11.6095917"><ele>251.0</ele><time>2026-05-03T11:57:25.663Z</time></trkpt><trkpt lat="43.4190433" lon="11.60968"><ele>250.4</ele><time>2026-05-03T11:57:26.666Z</time></trkpt><trkpt lat="43.4191267" lon="11.6097733"><ele>249.8</ele><time>2026-05-03T11:57:27.68Z</time></trkpt><trkpt lat="43.4192033" lon="11.6098583"><ele>249.20000000000002</ele><time>2026-05-03T11:57:28.654Z</time></trkpt><trkpt lat="43.419275" lon="11.6099333"><ele>248.60000000000002</ele><time>2026-05-03T11:57:29.664Z</time></trkpt><trkpt lat="43.4193433" lon="11.6100033"><ele>248.0</ele><time>2026-05-03T11:57:30.656Z</time></trkpt><trkpt lat="43.4194067" lon="11.6100817"><ele>248.00000000000003</ele><time>2026-05-03T11:57:31.653Z</time></trkpt><trkpt lat="43.419465" lon="11.6101567"><ele>248.0</ele><time>2026-05-03T11:57:32.652Z</time></trkpt><trkpt lat="43.4195283" lon="11.6102267"><ele>248.0</ele><time>2026-05-03T11:57:33.661Z</time></trkpt><trkpt lat="43.4196" lon="11.610295"><ele>248.0</ele><time>2026-05-03T11:57:34.672Z</time></trkpt><trkpt lat="43.41967" lon="11.610365"><ele>248.00000000000003</ele><time>2026-05-03T11:57:35.667Z</time></trkpt><trkpt lat="43.4197433" lon="11.6104333"><ele>248.0</ele><time>2026-05-03T11:57:36.691Z</time></trkpt><trkpt lat="43.4198067" lon="11.6105"><ele>247.4</ele><time>2026-05-03T11:57:37.674Z</time></trkpt><trkpt lat="43.41987" lon="11.610565"><ele>246.8</ele><time>2026-05-03T11:57:38.726Z</time></trkpt><trkpt lat="43.4199417" lon="11.610635"><ele>246.2</ele><time>2026-05-03T11:57:39.675Z</time></trkpt><trkpt lat="43.4200183" lon="11.6107067"><ele>245.6</ele><time>2026-05-03T11:57:40.676Z</time></trkpt><trkpt lat="43.4201033" lon="11.61079"><ele>245.0</ele><time>2026-05-03T11:57:41.666Z</time></trkpt><trkpt lat="43.4201933" lon="11.6108833"><ele>245.0</ele><time>2026-05-03T11:57:42.721Z</time></trkpt><trkpt lat="43.4202867" lon="11.610985"><ele>245.0</ele><time>2026-05-03T11:57:43.662Z</time></trkpt><trkpt lat="43.4203917" lon="11.6110883"><ele>245.0</ele><time>2026-05-03T11:57:44.696Z</time></trkpt><trkpt lat="43.4205" lon="11.6112017"><ele>245.0</ele><time>2026-05-03T11:57:45.692Z</time></trkpt><trkpt lat="43.42061" lon="11.61132"><ele>244.75</ele><time>2026-05-03T11:57:46.687Z</time></trkpt><trkpt lat="43.4207217" lon="11.6114467"><ele>244.5</ele><time>2026-05-03T11:57:47.675Z</time></trkpt><trkpt lat="43.4208467" lon="11.6115617"><ele>244.25</ele><time>2026-05-03T11:57:48.679Z</time></trkpt><trkpt lat="43.4209667" lon="11.6116867"><ele>244.0</ele><time>2026-05-03T11:57:49.698Z</time></trkpt><trkpt lat="43.42122" lon="11.6119533"><ele>243.33333333333331</ele><time>2026-05-03T11:57:51.691Z</time></trkpt><trkpt lat="43.4213467" lon="11.6120933"><ele>242.66666666666669</ele><time>2026-05-03T11:57:52.658Z</time></trkpt><trkpt lat="43.4214817" lon="11.6122267"><ele>242.0</ele><time>2026-05-03T11:57:53.671Z</time></trkpt><trkpt lat="43.421615" lon="11.61237"><ele>242.0</ele><time>2026-05-03T11:57:54.678Z</time></trkpt><trkpt lat="43.42175" lon="11.61251"><ele>242.0</ele><time>2026-05-03T11:57:55.666Z</time></trkpt><trkpt lat="43.421885" lon="11.6126467"><ele>242.0</ele><time>2026-05-03T11:57:56.672Z</time></trkpt><trkpt lat="43.422025" lon="11.6127883"><ele>242.33333333333334</ele><time>2026-05-03T11:57:57.649Z</time></trkpt><trkpt lat="43.4221683" lon="11.6129317"><ele>242.66666666666669</ele><time>2026-05-03T11:57:58.683Z</time></trkpt><trkpt lat="43.4223083" lon="11.6130717"><ele>243.0</ele><time>2026-05-03T11:57:59.649Z</time></trkpt><trkpt lat="43.4224517" lon="11.613215"><ele>243.0</ele><time>2026-05-03T11:58:00.659Z</time></trkpt><trkpt lat="43.4225883" lon="11.613365"><ele>243.0</ele><time>2026-05-03T11:58:01.682Z</time></trkpt><trkpt lat="43.4227283" lon="11.6135117"><ele>243.0</ele><time>2026-05-03T11:58:02.695Z</time></trkpt><trkpt lat="43.4228633" lon="11.61365"><ele>243.66666666666669</ele><time>2026-05-03T11:58:03.704Z</time></trkpt><trkpt lat="43.4229967" lon="11.6137917"><ele>244.33333333333334</ele><time>2026-05-03T11:58:04.676Z</time></trkpt><trkpt lat="43.4231233" lon="11.6139233"><ele>245.0</ele><time>2026-05-03T11:58:05.65Z</time></trkpt><trkpt lat="43.4232467" lon="11.6140417"><ele>245.0</ele><time>2026-05-03T11:58:06.676Z</time></trkpt><trkpt lat="43.423365" lon="11.6141633"><ele>245.0</ele><time>2026-05-03T11:58:07.666Z</time></trkpt><trkpt lat="43.4234767" lon="11.6142683"><ele>245.0</ele><time>2026-05-03T11:58:08.658Z</time></trkpt><trkpt lat="43.4235933" lon="11.6143467"><ele>245.0</ele><time>2026-05-03T11:58:09.677Z</time></trkpt><trkpt lat="43.423705" lon="11.6143867"><ele>244.25</ele><time>2026-05-03T11:58:10.689Z</time></trkpt><trkpt lat="43.4238217" lon="11.6144233"><ele>243.5</ele><time>2026-05-03T11:58:11.673Z</time></trkpt><trkpt lat="43.4239317" lon="11.6144083"><ele>242.75</ele><time>2026-05-03T11:58:12.671Z</time></trkpt><trkpt lat="43.42404" lon="11.6143317"><ele>242.0</ele><time>2026-05-03T11:58:13.697Z</time></trkpt><trkpt lat="43.4241383" lon="11.6142433"><ele>242.0</ele><time>2026-05-03T11:58:14.714Z</time></trkpt><trkpt lat="43.4242283" lon="11.6141667"><ele>242.0</ele><time>2026-05-03T11:58:15.667Z</time></trkpt><trkpt lat="43.424315" lon="11.6141033"><ele>242.0</ele><time>2026-05-03T11:58:16.693Z</time></trkpt><trkpt lat="43.4243983" lon="11.6140433"><ele>242.0</ele><time>2026-05-03T11:58:17.659Z</time></trkpt><trkpt lat="43.4244783" lon="11.614"><ele>242.0</ele><time>2026-05-03T11:58:18.69Z</time></trkpt><trkpt lat="43.4245483" lon="11.6139567"><ele>242.0</ele><time>2026-05-03T11:58:19.682Z</time></trkpt><trkpt lat="43.4246083" lon="11.613915"><ele>242.0</ele><time>2026-05-03T11:58:20.674Z</time></trkpt><trkpt lat="43.4246917" lon="11.6138617"><ele>242.0</ele><time>2026-05-03T11:58:22.65Z</time></trkpt><trkpt lat="43.4247533" lon="11.6138417"><ele>242.0</ele><time>2026-05-03T11:59:28.737Z</time></trkpt><trkpt lat="43.42468" lon="11.6138083"><ele>242.0</ele><time>2026-05-03T11:59:32.817Z</time></trkpt><trkpt lat="43.4245133" lon="11.613905"><ele>242.00000000000003</ele><time>2026-05-03T11:59:35.775Z</time></trkpt><trkpt lat="43.4244433" lon="11.613955"><ele>242.0</ele><time>2026-05-03T11:59:36.748Z</time></trkpt><trkpt lat="43.4243667" lon="11.614005"><ele>242.0</ele><time>2026-05-03T11:59:37.704Z</time></trkpt><trkpt lat="43.424285" lon="11.6140567"><ele>242.0</ele><time>2026-05-03T11:59:38.759Z</time></trkpt><trkpt lat="43.4242117" lon="11.6141017"><ele>242.00000000000003</ele><time>2026-05-03T11:59:39.793Z</time></trkpt><trkpt lat="43.42415" lon="11.6141483"><ele>242.0</ele><time>2026-05-03T11:59:40.761Z</time></trkpt><trkpt lat="43.424085" lon="11.6141983"><ele>242.0</ele><time>2026-05-03T11:59:41.778Z</time></trkpt><trkpt lat="43.4240017" lon="11.6142483"><ele>242.0</ele><time>2026-05-03T11:59:42.722Z</time></trkpt><trkpt lat="43.423915" lon="11.6142917"><ele>242.0</ele><time>2026-05-03T11:59:43.713Z</time></trkpt><trkpt lat="43.423825" lon="11.614315"><ele>242.0</ele><time>2026-05-03T11:59:44.708Z</time></trkpt><trkpt lat="43.423725" lon="11.614315"><ele>242.0</ele><time>2026-05-03T11:59:45.68Z</time></trkpt><trkpt lat="43.4236183" lon="11.614285"><ele>242.6</ele><time>2026-05-03T11:59:46.703Z</time></trkpt><trkpt lat="43.4235133" lon="11.6142267"><ele>243.2</ele><time>2026-05-03T11:59:47.645Z</time></trkpt><trkpt lat="43.4234233" lon="11.6141517"><ele>243.8</ele><time>2026-05-03T11:59:48.705Z</time></trkpt><trkpt lat="43.4233367" lon="11.6140583"><ele>244.4</ele><time>2026-05-03T11:59:49.672Z</time></trkpt><trkpt lat="43.4232467" lon="11.6139567"><ele>245.0</ele><time>2026-05-03T11:59:50.735Z</time></trkpt><trkpt lat="43.4231483" lon="11.6138517"><ele>245.0</ele><time>2026-05-03T11:59:51.791Z</time></trkpt><trkpt lat="43.423045" lon="11.6137483"><ele>245.0</ele><time>2026-05-03T11:59:52.702Z</time></trkpt><trkpt lat="43.4229383" lon="11.6136433"><ele>245.0</ele><time>2026-05-03T11:59:53.707Z</time></trkpt><trkpt lat="43.422835" lon="11.613535"><ele>245.0</ele><time>2026-05-03T11:59:54.791Z</time></trkpt><trkpt lat="43.4226283" lon="11.6133117"><ele>244.5</ele><time>2026-05-03T11:59:56.662Z</time></trkpt><trkpt lat="43.42252" lon="11.6132017"><ele>244.0</ele><time>2026-05-03T11:59:57.684Z</time></trkpt><trkpt lat="43.422415" lon="11.6130917"><ele>243.5</ele><time>2026-05-03T11:59:58.67Z</time></trkpt><trkpt lat="43.4223067" lon="11.612985"><ele>243.0</ele><time>2026-05-03T11:59:59.663Z</time></trkpt><trkpt lat="43.422195" lon="11.6128783"><ele>242.75</ele><time>2026-05-03T12:00:00.683Z</time></trkpt><trkpt lat="43.4220883" lon="11.6127733"><ele>242.5</ele><time>2026-05-03T12:00:01.673Z</time></trkpt><trkpt lat="43.421985" lon="11.612665"><ele>242.25</ele><time>2026-05-03T12:00:02.665Z</time></trkpt><trkpt lat="43.421885" lon="11.612555"><ele>242.0</ele><time>2026-05-03T12:00:03.668Z</time></trkpt><trkpt lat="43.4217783" lon="11.6124467"><ele>242.0</ele><time>2026-05-03T12:00:04.671Z</time></trkpt><trkpt lat="43.4216717" lon="11.612335"><ele>242.0</ele><time>2026-05-03T12:00:05.671Z</time></trkpt><trkpt lat="43.4215717" lon="11.6122283"><ele>242.0</ele><time>2026-05-03T12:00:06.669Z</time></trkpt><trkpt lat="43.4214667" lon="11.612115"><ele>242.0</ele><time>2026-05-03T12:00:07.656Z</time></trkpt><trkpt lat="43.4213633" lon="11.612005"><ele>242.5</ele><time>2026-05-03T12:00:08.664Z</time></trkpt><trkpt lat="43.4212633" lon="11.6118967"><ele>243.0</ele><time>2026-05-03T12:00:09.675Z</time></trkpt><trkpt lat="43.4211567" lon="11.6117917"><ele>243.5</ele><time>2026-05-03T12:00:10.668Z</time></trkpt><trkpt lat="43.4210517" lon="11.6116767"><ele>244.0</ele><time>2026-05-03T12:00:11.67Z</time></trkpt><trkpt lat="43.4209467" lon="11.61157"><ele>244.0</ele><time>2026-05-03T12:00:12.669Z</time></trkpt><trkpt lat="43.4208433" lon="11.611465"><ele>244.0</ele><time>2026-05-03T12:00:13.673Z</time></trkpt><trkpt lat="43.420745" lon="11.6113583"><ele>244.0</ele><time>2026-05-03T12:00:14.669Z</time></trkpt><trkpt lat="43.4206383" lon="11.61125"><ele>244.0</ele><time>2026-05-03T12:00:15.677Z</time></trkpt><trkpt lat="43.4205333" lon="11.61114"><ele>244.25</ele><time>2026-05-03T12:00:16.665Z</time></trkpt><trkpt lat="43.4204267" lon="11.6110333"><ele>244.5</ele><time>2026-05-03T12:00:17.686Z</time></trkpt><trkpt lat="43.42032" lon="11.610925"><ele>244.75</ele><time>2026-05-03T12:00:18.659Z</time></trkpt><trkpt lat="43.4202117" lon="11.6108133"><ele>245.0</ele><time>2026-05-03T12:00:19.666Z</time></trkpt><trkpt lat="43.420105" lon="11.6107"><ele>245.0</ele><time>2026-05-03T12:00:20.658Z</time></trkpt><trkpt lat="43.4199983" lon="11.6105883"><ele>245.0</ele><time>2026-05-03T12:00:21.676Z</time></trkpt><trkpt lat="43.4198917" lon="11.6104783"><ele>245.0</ele><time>2026-05-03T12:00:22.667Z</time></trkpt><trkpt lat="43.4197833" lon="11.6103717"><ele>245.0</ele><time>2026-05-03T12:00:23.649Z</time></trkpt><trkpt lat="43.419675" lon="11.61027"><ele>245.75</ele><time>2026-05-03T12:00:24.688Z</time></trkpt><trkpt lat="43.4195683" lon="11.61016"><ele>246.5</ele><time>2026-05-03T12:00:25.675Z</time></trkpt><trkpt lat="43.4194783" lon="11.6100617"><ele>247.25</ele><time>2026-05-03T12:00:26.675Z</time></trkpt><trkpt lat="43.4193933" lon="11.6099633"><ele>248.0</ele><time>2026-05-03T12:00:27.671Z</time></trkpt><trkpt lat="43.4193067" lon="11.60987"><ele>248.0</ele><time>2026-05-03T12:00:28.666Z</time></trkpt><trkpt lat="43.4192217" lon="11.6097833"><ele>248.0</ele><time>2026-05-03T12:00:29.674Z</time></trkpt><trkpt lat="43.4191433" lon="11.6096967"><ele>248.0</ele><time>2026-05-03T12:00:30.66Z</time></trkpt><trkpt lat="43.41906" lon="11.6096133"><ele>248.0</ele><time>2026-05-03T12:00:31.657Z</time></trkpt><trkpt lat="43.4189783" lon="11.60953"><ele>248.0</ele><time>2026-05-03T12:00:32.657Z</time></trkpt><trkpt lat="43.4188983" lon="11.6094383"><ele>248.60000000000002</ele><time>2026-05-03T12:00:33.654Z</time></trkpt><trkpt lat="43.418815" lon="11.6093417"><ele>249.20000000000002</ele><time>2026-05-03T12:00:34.652Z</time></trkpt><trkpt lat="43.4187267" lon="11.6092467"><ele>249.8</ele><time>2026-05-03T12:00:35.663Z</time></trkpt><trkpt lat="43.418635" lon="11.6091467"><ele>250.4</ele><time>2026-05-03T12:00:36.658Z</time></trkpt><trkpt lat="43.418545" lon="11.6090567"><ele>251.0</ele><time>2026-05-03T12:00:37.662Z</time></trkpt><trkpt lat="43.41846" lon="11.6089717"><ele>251.00000000000003</ele><time>2026-05-03T12:00:38.655Z</time></trkpt><trkpt lat="43.4183883" lon="11.60888"><ele>251.0</ele><time>2026-05-03T12:00:39.663Z</time></trkpt><trkpt lat="43.4183283" lon="11.60878"><ele>251.0</ele><time>2026-05-03T12:00:40.658Z</time></trkpt><trkpt lat="43.41828" lon="11.6086817"><ele>251.0</ele><time>2026-05-03T12:00:41.666Z</time></trkpt><trkpt lat="43.4182483" lon="11.6085817"><ele>251.00000000000003</ele><time>2026-05-03T12:00:42.658Z</time></trkpt><trkpt lat="43.4182233" lon="11.6084817"><ele>251.0</ele><time>2026-05-03T12:00:43.66Z</time></trkpt><trkpt lat="43.4182017" lon="11.608395"><ele>250.00000000000003</ele><time>2026-05-03T12:00:44.665Z</time></trkpt><trkpt lat="43.4182017" lon="11.6083083"><ele>249.0</ele><time>2026-05-03T12:00:47.649Z</time></trkpt><trkpt lat="43.4182283" lon="11.6081733"><ele>248.0</ele><time>2026-05-03T12:00:51.657Z</time></trkpt><trkpt lat="43.4182583" lon="11.6080183"><ele>247.0</ele><time>2026-05-03T12:00:53.648Z</time></trkpt><trkpt lat="43.4182717" lon="11.6079333"><ele>246.00000000000003</ele><time>2026-05-03T12:00:54.644Z</time></trkpt><trkpt lat="43.4182867" lon="11.6078467"><ele>245.0</ele><time>2026-05-03T12:00:55.639Z</time></trkpt><trkpt lat="43.4182883" lon="11.607745"><ele>244.4</ele><time>2026-05-03T12:00:56.639Z</time></trkpt><trkpt lat="43.41827" lon="11.6076417"><ele>243.8</ele><time>2026-05-03T12:00:57.644Z</time></trkpt><trkpt lat="43.4182183" lon="11.6075283"><ele>243.2</ele><time>2026-05-03T12:00:58.648Z</time></trkpt><trkpt lat="43.4181583" lon="11.607405"><ele>242.6</ele><time>2026-05-03T12:00:59.661Z</time></trkpt><trkpt lat="43.4180917" lon="11.60728"><ele>242.0</ele><time>2026-05-03T12:01:00.645Z</time></trkpt><trkpt lat="43.4180317" lon="11.607145"><ele>242.0</ele><time>2026-05-03T12:01:01.667Z</time></trkpt><trkpt lat="43.4179617" lon="11.6070183"><ele>242.0</ele><time>2026-05-03T12:01:02.645Z</time></trkpt><trkpt lat="43.4178933" lon="11.6068917"><ele>242.0</ele><time>2026-05-03T12:01:03.664Z</time></trkpt><trkpt lat="43.41784" lon="11.60677"><ele>242.0</ele><time>2026-05-03T12:01:04.642Z</time></trkpt><trkpt lat="43.4177817" lon="11.6066583"><ele>242.0</ele><time>2026-05-03T12:01:05.654Z</time></trkpt><trkpt lat="43.4177183" lon="11.606555"><ele>242.2</ele><time>2026-05-03T12:01:06.641Z</time></trkpt><trkpt lat="43.4176433" lon="11.606445"><ele>242.39999999999998</ele><time>2026-05-03T12:01:07.651Z</time></trkpt><trkpt lat="43.4175733" lon="11.6063417"><ele>242.60000000000002</ele><time>2026-05-03T12:01:08.652Z</time></trkpt><trkpt lat="43.41751" lon="11.6062317"><ele>242.8</ele><time>2026-05-03T12:01:09.642Z</time></trkpt><trkpt lat="43.41745" lon="11.60613"><ele>243.0</ele><time>2026-05-03T12:01:10.665Z</time></trkpt><trkpt lat="43.4173883" lon="11.6060417"><ele>243.28571428571428</ele><time>2026-05-03T12:01:11.647Z</time></trkpt><trkpt lat="43.41734" lon="11.605965"><ele>243.57142857142858</ele><time>2026-05-03T12:01:12.675Z</time></trkpt><trkpt lat="43.41729" lon="11.6058867"><ele>243.85714285714286</ele><time>2026-05-03T12:01:13.677Z</time></trkpt><trkpt lat="43.4172433" lon="11.6058033"><ele>244.14285714285714</ele><time>2026-05-03T12:01:14.664Z</time></trkpt><trkpt lat="43.4172017" lon="11.6057367"><ele>244.42857142857144</ele><time>2026-05-03T12:01:15.685Z</time></trkpt><trkpt lat="43.4171533" lon="11.6056533"><ele>244.71428571428572</ele><time>2026-05-03T12:01:16.682Z</time></trkpt><trkpt lat="43.4171067" lon="11.6055667"><ele>245.0</ele><time>2026-05-03T12:01:17.684Z</time></trkpt><trkpt lat="43.41705" lon="11.605475"><ele>245.0</ele><time>2026-05-03T12:01:18.679Z</time></trkpt><trkpt lat="43.41699" lon="11.6053883"><ele>245.0</ele><time>2026-05-03T12:01:19.65Z</time></trkpt><trkpt lat="43.416925" lon="11.605295"><ele>245.0</ele><time>2026-05-03T12:01:20.664Z</time></trkpt><trkpt lat="43.41685" lon="11.6052083"><ele>245.0</ele><time>2026-05-03T12:01:21.661Z</time></trkpt><trkpt lat="43.4167817" lon="11.60513"><ele>245.0</ele><time>2026-05-03T12:01:22.692Z</time></trkpt><trkpt lat="43.4167133" lon="11.6050667"><ele>245.8</ele><time>2026-05-03T12:01:23.668Z</time></trkpt><trkpt lat="43.416655" lon="11.60501"><ele>246.6</ele><time>2026-05-03T12:01:24.677Z</time></trkpt><trkpt lat="43.41657" lon="11.6049433"><ele>247.39999999999998</ele><time>2026-05-03T12:01:26.664Z</time></trkpt><trkpt lat="43.41649" lon="11.6049"><ele>248.2</ele><time>2026-05-03T12:01:29.662Z</time></trkpt><trkpt lat="43.4164283" lon="11.60488"><ele>249.0</ele><time>2026-05-03T12:01:32.651Z</time></trkpt><trkpt lat="43.4165733" lon="11.6049117"><ele>249.0</ele><time>2026-05-03T12:01:46.651Z</time></trkpt><trkpt lat="43.4166333" lon="11.6048367"><ele>249.0</ele><time>2026-05-03T12:01:50.639Z</time></trkpt><trkpt lat="43.4167017" lon="11.60483"><ele>249.0</ele><time>2026-05-03T12:01:52.646Z</time></trkpt><trkpt lat="43.4168167" lon="11.604845"><ele>249.0</ele><time>2026-05-03T12:01:54.651Z</time></trkpt><trkpt lat="43.41688" lon="11.6048467"><ele>249.0</ele><time>2026-05-03T12:01:55.65Z</time></trkpt><trkpt lat="43.4169467" lon="11.6048517"><ele>249.0</ele><time>2026-05-03T12:01:56.659Z</time></trkpt><trkpt lat="43.417015" lon="11.6048333"><ele>249.0</ele><time>2026-05-03T12:01:57.662Z</time></trkpt><trkpt lat="43.4170783" lon="11.604795"><ele>249.0</ele><time>2026-05-03T12:01:58.646Z</time></trkpt><trkpt lat="43.4171433" lon="11.6047533"><ele>249.0</ele><time>2026-05-03T12:01:59.664Z</time></trkpt><trkpt lat="43.4171983" lon="11.6047017"><ele>249.0</ele><time>2026-05-03T12:02:00.661Z</time></trkpt><trkpt lat="43.41725" lon="11.6046483"><ele>249.0</ele><time>2026-05-03T12:02:01.651Z</time></trkpt><trkpt lat="43.41732" lon="11.604525"><ele>249.0</ele><time>2026-05-03T12:02:03.652Z</time></trkpt><trkpt lat="43.4173467" lon="11.604365"><ele>248.66666666666666</ele><time>2026-05-03T12:02:05.641Z</time></trkpt><trkpt lat="43.4173283" lon="11.6041967"><ele>248.33333333333331</ele><time>2026-05-03T12:02:07.66Z</time></trkpt><trkpt lat="43.41731" lon="11.60411"><ele>248.0</ele><time>2026-05-03T12:02:08.654Z</time></trkpt><trkpt lat="43.4172933" lon="11.6040233"><ele>247.66666666666666</ele><time>2026-05-03T12:02:09.666Z</time></trkpt><trkpt lat="43.4172667" lon="11.603935"><ele>247.33333333333331</ele><time>2026-05-03T12:02:10.652Z</time></trkpt><trkpt lat="43.417235" lon="11.6038517"><ele>247.0</ele><time>2026-05-03T12:02:11.651Z</time></trkpt><trkpt lat="43.4172183" lon="11.603765"><ele>247.39999999999998</ele><time>2026-05-03T12:02:12.644Z</time></trkpt><trkpt lat="43.4171733" lon="11.6036133"><ele>247.79999999999998</ele><time>2026-05-03T12:02:14.646Z</time></trkpt><trkpt lat="43.4171433" lon="11.6034567"><ele>248.2</ele><time>2026-05-03T12:02:16.654Z</time></trkpt><trkpt lat="43.4171533" lon="11.6033683"><ele>248.6</ele><time>2026-05-03T12:02:17.656Z</time></trkpt><trkpt lat="43.4171617" lon="11.60328"><ele>249.0</ele><time>2026-05-03T12:02:18.655Z</time></trkpt><trkpt lat="43.4172333" lon="11.6031367"><ele>249.0</ele><time>2026-05-03T12:02:20.656Z</time></trkpt><trkpt lat="43.4173017" lon="11.6029917"><ele>249.0</ele><time>2026-05-03T12:02:22.643Z</time></trkpt><trkpt lat="43.417355" lon="11.6029283"><ele>249.0</ele><time>2026-05-03T12:02:23.663Z</time></trkpt><trkpt lat="43.4174083" lon="11.602855"><ele>249.0</ele><time>2026-05-03T12:02:24.653Z</time></trkpt><trkpt lat="43.4174617" lon="11.60277"><ele>249.0</ele><time>2026-05-03T12:02:25.65Z</time></trkpt><trkpt lat="43.4175183" lon="11.6026817"><ele>249.0</ele><time>2026-05-03T12:02:26.654Z</time></trkpt><trkpt lat="43.4175767" lon="11.602585"><ele>249.2</ele><time>2026-05-03T12:02:27.651Z</time></trkpt><trkpt lat="43.4176417" lon="11.6024833"><ele>249.39999999999998</ele><time>2026-05-03T12:02:28.645Z</time></trkpt><trkpt lat="43.41771" lon="11.6023883"><ele>249.6</ele><time>2026-05-03T12:02:29.657Z</time></trkpt><trkpt lat="43.417785" lon="11.6023033"><ele>249.8</ele><time>2026-05-03T12:02:30.651Z</time></trkpt><trkpt lat="43.4178617" lon="11.6022283"><ele>250.0</ele><time>2026-05-03T12:02:31.653Z</time></trkpt><trkpt lat="43.41794" lon="11.6021683"><ele>249.83333333333331</ele><time>2026-05-03T12:02:32.652Z</time></trkpt><trkpt lat="43.4180117" lon="11.6021167"><ele>249.66666666666666</ele><time>2026-05-03T12:02:33.655Z</time></trkpt><trkpt lat="43.41809" lon="11.6021017"><ele>249.5</ele><time>2026-05-03T12:02:34.649Z</time></trkpt><trkpt lat="43.4181783" lon="11.6020817"><ele>249.33333333333331</ele><time>2026-05-03T12:02:35.65Z</time></trkpt><trkpt lat="43.4182733" lon="11.60208"><ele>249.16666666666666</ele><time>2026-05-03T12:02:36.652Z</time></trkpt><trkpt lat="43.4183667" lon="11.6020467"><ele>249.0</ele><time>2026-05-03T12:02:37.66Z</time></trkpt><trkpt lat="43.418465" lon="11.60201"><ele>249.2</ele><time>2026-05-03T12:02:38.648Z</time></trkpt><trkpt lat="43.4185667" lon="11.6019733"><ele>249.39999999999998</ele><time>2026-05-03T12:02:39.686Z</time></trkpt><trkpt lat="43.41866" lon="11.6019333"><ele>249.6</ele><time>2026-05-03T12:02:40.681Z</time></trkpt><trkpt lat="43.4187517" lon="11.6018967"><ele>249.8</ele><time>2026-05-03T12:02:41.656Z</time></trkpt><trkpt lat="43.4188283" lon="11.6018383"><ele>250.0</ele><time>2026-05-03T12:02:42.64Z</time></trkpt><trkpt lat="43.4188983" lon="11.6017533"><ele>250.6</ele><time>2026-05-03T12:02:43.65Z</time></trkpt><trkpt lat="43.4189633" lon="11.6016617"><ele>251.2</ele><time>2026-05-03T12:02:44.673Z</time></trkpt><trkpt lat="43.419015" lon="11.601545"><ele>251.8</ele><time>2026-05-03T12:02:45.665Z</time></trkpt><trkpt lat="43.41907" lon="11.60143"><ele>252.4</ele><time>2026-05-03T12:02:46.66Z</time></trkpt><trkpt lat="43.4191267" lon="11.6013217"><ele>253.0</ele><time>2026-05-03T12:02:47.667Z</time></trkpt><trkpt lat="43.41919" lon="11.6012317"><ele>253.2</ele><time>2026-05-03T12:02:48.669Z</time></trkpt><trkpt lat="43.419265" lon="11.6011533"><ele>253.4</ele><time>2026-05-03T12:02:49.666Z</time></trkpt><trkpt lat="43.4193433" lon="11.6010883"><ele>253.59999999999997</ele><time>2026-05-03T12:02:50.663Z</time></trkpt><trkpt lat="43.4194267" lon="11.60104"><ele>253.79999999999998</ele><time>2026-05-03T12:02:51.679Z</time></trkpt><trkpt lat="43.41951" lon="11.6009883"><ele>254.0</ele><time>2026-05-03T12:02:52.671Z</time></trkpt><trkpt lat="43.4195933" lon="11.6009383"><ele>256.0</ele><time>2026-05-03T12:02:53.666Z</time></trkpt><trkpt lat="43.41968" lon="11.600885"><ele>258.0</ele><time>2026-05-03T12:02:54.654Z</time></trkpt><trkpt lat="43.4197567" lon="11.60081"><ele>260.0</ele><time>2026-05-03T12:02:55.666Z</time></trkpt><trkpt lat="43.41982" lon="11.600715"><ele>262.0</ele><time>2026-05-03T12:02:56.65Z</time></trkpt><trkpt lat="43.4198683" lon="11.60061"><ele>264.0</ele><time>2026-05-03T12:02:57.672Z</time></trkpt><trkpt lat="43.419915" lon="11.6004917"><ele>264.0</ele><time>2026-05-03T12:02:58.645Z</time></trkpt><trkpt lat="43.41996" lon="11.6003683"><ele>264.0</ele><time>2026-05-03T12:02:59.65Z</time></trkpt><trkpt lat="43.4200117" lon="11.600255"><ele>264.0</ele><time>2026-05-03T12:03:00.647Z</time></trkpt><trkpt lat="43.420065" lon="11.6001467"><ele>264.0</ele><time>2026-05-03T12:03:01.653Z</time></trkpt><trkpt lat="43.4201133" lon="11.6000617"><ele>264.0</ele><time>2026-05-03T12:03:02.648Z</time></trkpt><trkpt lat="43.4201767" lon="11.59999"><ele>264.4</ele><time>2026-05-03T12:03:03.65Z</time></trkpt><trkpt lat="43.4202267" lon="11.5999117"><ele>264.79999999999995</ele><time>2026-05-03T12:03:04.656Z</time></trkpt><trkpt lat="43.42026" lon="11.5998067"><ele>265.20000000000005</ele><time>2026-05-03T12:03:05.656Z</time></trkpt><trkpt lat="43.420275" lon="11.5996817"><ele>265.6</ele><time>2026-05-03T12:03:06.664Z</time></trkpt><trkpt lat="43.4202783" lon="11.599535"><ele>266.0</ele><time>2026-05-03T12:03:07.674Z</time></trkpt><trkpt lat="43.420275" lon="11.5993867"><ele>266.25</ele><time>2026-05-03T12:03:08.661Z</time></trkpt><trkpt lat="43.4202767" lon="11.599235"><ele>266.5</ele><time>2026-05-03T12:03:09.682Z</time></trkpt><trkpt lat="43.4202833" lon="11.5990767"><ele>266.75</ele><time>2026-05-03T12:03:10.659Z</time></trkpt><trkpt lat="43.42029" lon="11.5989133"><ele>267.0</ele><time>2026-05-03T12:03:11.66Z</time></trkpt><trkpt lat="43.4203" lon="11.5987533"><ele>267.4</ele><time>2026-05-03T12:03:12.653Z</time></trkpt><trkpt lat="43.4203217" lon="11.5986"><ele>267.79999999999995</ele><time>2026-05-03T12:03:13.653Z</time></trkpt><trkpt lat="43.420345" lon="11.59845"><ele>268.2</ele><time>2026-05-03T12:03:14.65Z</time></trkpt><trkpt lat="43.4203683" lon="11.5983033"><ele>268.59999999999997</ele><time>2026-05-03T12:03:15.657Z</time></trkpt><trkpt lat="43.4203933" lon="11.598155"><ele>269.0</ele><time>2026-05-03T12:03:16.648Z</time></trkpt><trkpt lat="43.4204133" lon="11.598005"><ele>269.0</ele><time>2026-05-03T12:03:17.654Z</time></trkpt><trkpt lat="43.420445" lon="11.59785"><ele>269.0</ele><time>2026-05-03T12:03:18.65Z</time></trkpt><trkpt lat="43.420485" lon="11.5977067"><ele>269.0</ele><time>2026-05-03T12:03:19.659Z</time></trkpt><trkpt lat="43.4205283" lon="11.597575"><ele>269.0</ele><time>2026-05-03T12:03:20.665Z</time></trkpt><trkpt lat="43.420585" lon="11.59746"><ele>269.0</ele><time>2026-05-03T12:03:21.647Z</time></trkpt><trkpt lat="43.42066" lon="11.59735"><ele>270.25</ele><time>2026-05-03T12:03:22.66Z</time></trkpt><trkpt lat="43.420745" lon="11.5972383"><ele>271.5</ele><time>2026-05-03T12:03:23.653Z</time></trkpt><trkpt lat="43.42083" lon="11.5971133"><ele>272.75</ele><time>2026-05-03T12:03:24.655Z</time></trkpt><trkpt lat="43.4209167" lon="11.5969867"><ele>274.0</ele><time>2026-05-03T12:03:25.639Z</time></trkpt><trkpt lat="43.4210067" lon="11.5968533"><ele>274.0</ele><time>2026-05-03T12:03:26.657Z</time></trkpt><trkpt lat="43.4210933" lon="11.5967167"><ele>274.0</ele><time>2026-05-03T12:03:27.658Z</time></trkpt><trkpt lat="43.4211833" lon="11.5965833"><ele>274.0</ele><time>2026-05-03T12:03:28.653Z</time></trkpt><trkpt lat="43.42128" lon="11.5964533"><ele>274.0</ele><time>2026-05-03T12:03:29.665Z</time></trkpt><trkpt lat="43.42138" lon="11.59632"><ele>274.75</ele><time>2026-05-03T12:03:30.638Z</time></trkpt><trkpt lat="43.4214783" lon="11.59619"><ele>275.5</ele><time>2026-05-03T12:03:31.653Z</time></trkpt><trkpt lat="43.4215717" lon="11.5960633"><ele>276.25</ele><time>2026-05-03T12:03:32.652Z</time></trkpt><trkpt lat="43.421665" lon="11.5959267"><ele>277.0</ele><time>2026-05-03T12:03:33.652Z</time></trkpt><trkpt lat="43.421755" lon="11.59579"><ele>276.5</ele><time>2026-05-03T12:03:34.665Z</time></trkpt><trkpt lat="43.421845" lon="11.5956567"><ele>276.0</ele><time>2026-05-03T12:03:35.657Z</time></trkpt><trkpt lat="43.4219333" lon="11.5955333"><ele>275.5</ele><time>2026-05-03T12:03:36.662Z</time></trkpt><trkpt lat="43.4220217" lon="11.5954217"><ele>275.0</ele><time>2026-05-03T12:03:37.659Z</time></trkpt><trkpt lat="43.42211" lon="11.595325"><ele>276.5</ele><time>2026-05-03T12:03:38.655Z</time></trkpt><trkpt lat="43.4222117" lon="11.5952367"><ele>278.0</ele><time>2026-05-03T12:03:39.649Z</time></trkpt><trkpt lat="43.4223283" lon="11.5951517"><ele>279.5</ele><time>2026-05-03T12:03:40.64Z</time></trkpt><trkpt lat="43.422465" lon="11.5950933"><ele>281.0</ele><time>2026-05-03T12:03:41.653Z</time></trkpt><trkpt lat="43.42261" lon="11.5950433"><ele>281.0</ele><time>2026-05-03T12:03:42.664Z</time></trkpt><trkpt lat="43.422765" lon="11.5950083"><ele>281.0</ele><time>2026-05-03T12:03:43.65Z</time></trkpt><trkpt lat="43.4229233" lon="11.5949833"><ele>281.0</ele><time>2026-05-03T12:03:44.652Z</time></trkpt><trkpt lat="43.4230767" lon="11.5949583"><ele>283.0</ele><time>2026-05-03T12:03:45.649Z</time></trkpt><trkpt lat="43.4232267" lon="11.59492"><ele>285.0</ele><time>2026-05-03T12:03:46.64Z</time></trkpt><trkpt lat="43.423375" lon="11.5948833"><ele>287.0</ele><time>2026-05-03T12:03:47.645Z</time></trkpt><trkpt lat="43.4235217" lon="11.5948567"><ele>287.0</ele><time>2026-05-03T12:03:48.659Z</time></trkpt><trkpt lat="43.4236633" lon="11.5948583"><ele>287.0</ele><time>2026-05-03T12:03:49.653Z</time></trkpt><trkpt lat="43.4237883" lon="11.5948817"><ele>287.0</ele><time>2026-05-03T12:03:50.655Z</time></trkpt><trkpt lat="43.42389" lon="11.594915"><ele>287.0</ele><time>2026-05-03T12:03:51.646Z</time></trkpt><trkpt lat="43.4239883" lon="11.594925"><ele>289.25</ele><time>2026-05-03T12:03:52.653Z</time></trkpt><trkpt lat="43.4240967" lon="11.5949083"><ele>291.5</ele><time>2026-05-03T12:03:53.654Z</time></trkpt><trkpt lat="43.4242067" lon="11.59486"><ele>293.75</ele><time>2026-05-03T12:03:54.668Z</time></trkpt><trkpt lat="43.4243167" lon="11.5948033"><ele>296.0</ele><time>2026-05-03T12:03:55.658Z</time></trkpt><trkpt lat="43.4244267" lon="11.5947167"><ele>296.0</ele><time>2026-05-03T12:03:56.66Z</time></trkpt><trkpt lat="43.4245267" lon="11.5946067"><ele>296.0</ele><time>2026-05-03T12:03:57.648Z</time></trkpt><trkpt lat="43.42461" lon="11.594505"><ele>296.0</ele><time>2026-05-03T12:03:58.659Z</time></trkpt><trkpt lat="43.424685" lon="11.5944183"><ele>296.0</ele><time>2026-05-03T12:03:59.66Z</time></trkpt><trkpt lat="43.4247683" lon="11.5943367"><ele>296.0</ele><time>2026-05-03T12:04:00.65Z</time></trkpt><trkpt lat="43.4248567" lon="11.5942767"><ele>298.0</ele><time>2026-05-03T12:04:01.671Z</time></trkpt><trkpt lat="43.4249633" lon="11.5942317"><ele>300.0</ele><time>2026-05-03T12:04:02.645Z</time></trkpt><trkpt lat="43.4250767" lon="11.59419"><ele>302.0</ele><time>2026-05-03T12:04:03.665Z</time></trkpt><trkpt lat="43.42519" lon="11.5941517"><ele>304.0</ele><time>2026-05-03T12:04:04.647Z</time></trkpt><trkpt lat="43.4253067" lon="11.5941083"><ele>304.0</ele><time>2026-05-03T12:04:05.651Z</time></trkpt><trkpt lat="43.42542" lon="11.5940683"><ele>304.0</ele><time>2026-05-03T12:04:06.661Z</time></trkpt><trkpt lat="43.4255267" lon="11.59403"><ele>304.0</ele><time>2026-05-03T12:04:07.653Z</time></trkpt><trkpt lat="43.4256217" lon="11.5939733"><ele>304.0</ele><time>2026-05-03T12:04:08.651Z</time></trkpt><trkpt lat="43.4257083" lon="11.59391"><ele>304.0</ele><time>2026-05-03T12:04:09.656Z</time></trkpt><trkpt lat="43.425785" lon="11.5938383"><ele>304.0</ele><time>2026-05-03T12:04:10.656Z</time></trkpt><trkpt lat="43.425865" lon="11.5937683"><ele>304.0</ele><time>2026-05-03T12:04:11.652Z</time></trkpt><trkpt lat="43.4259533" lon="11.5937133"><ele>304.0</ele><time>2026-05-03T12:04:12.675Z</time></trkpt><trkpt lat="43.4260517" lon="11.5936767"><ele>304.0</ele><time>2026-05-03T12:04:13.65Z</time></trkpt><trkpt lat="43.42616" lon="11.5936567"><ele>304.0</ele><time>2026-05-03T12:04:14.645Z</time></trkpt><trkpt lat="43.42628" lon="11.5936417"><ele>306.75</ele><time>2026-05-03T12:04:15.653Z</time></trkpt><trkpt lat="43.4264" lon="11.5936117"><ele>309.5</ele><time>2026-05-03T12:04:16.651Z</time></trkpt><trkpt lat="43.4265133" lon="11.593565"><ele>312.25</ele><time>2026-05-03T12:04:17.649Z</time></trkpt><trkpt lat="43.4266133" lon="11.5935067"><ele>315.0</ele><time>2026-05-03T12:04:18.666Z</time></trkpt><trkpt lat="43.426705" lon="11.5934483"><ele>315.0</ele><time>2026-05-03T12:04:19.648Z</time></trkpt><trkpt lat="43.4267933" lon="11.593395"><ele>315.0</ele><time>2026-05-03T12:04:20.654Z</time></trkpt><trkpt lat="43.4268817" lon="11.5933733"><ele>315.0</ele><time>2026-05-03T12:04:21.65Z</time></trkpt><trkpt lat="43.4269683" lon="11.5933683"><ele>315.0</ele><time>2026-05-03T12:04:22.648Z</time></trkpt><trkpt lat="43.4270633" lon="11.593395"><ele>315.0</ele><time>2026-05-03T12:04:23.649Z</time></trkpt><trkpt lat="43.4271633" lon="11.59344"><ele>316.5</ele><time>2026-05-03T12:04:24.658Z</time></trkpt><trkpt lat="43.427265" lon="11.5934867"><ele>318.0</ele><time>2026-05-03T12:04:25.649Z</time></trkpt><trkpt lat="43.4273783" lon="11.5935367"><ele>319.5</ele><time>2026-05-03T12:04:26.656Z</time></trkpt><trkpt lat="43.4274983" lon="11.5935933"><ele>321.0</ele><time>2026-05-03T12:04:27.65Z</time></trkpt><trkpt lat="43.4276283" lon="11.593635"><ele>324.5</ele><time>2026-05-03T12:04:28.65Z</time></trkpt><trkpt lat="43.4277667" lon="11.5936767"><ele>328.0</ele><time>2026-05-03T12:04:29.654Z</time></trkpt><trkpt lat="43.4278983" lon="11.593715"><ele>331.5</ele><time>2026-05-03T12:04:30.65Z</time></trkpt><trkpt lat="43.4280217" lon="11.5937467"><ele>335.0</ele><time>2026-05-03T12:04:31.646Z</time></trkpt><trkpt lat="43.4281333" lon="11.5937883"><ele>336.25</ele><time>2026-05-03T12:04:32.645Z</time></trkpt><trkpt lat="43.428245" lon="11.5938533"><ele>337.5</ele><time>2026-05-03T12:04:33.655Z</time></trkpt><trkpt lat="43.4283517" lon="11.5939383"><ele>338.75</ele><time>2026-05-03T12:04:34.647Z</time></trkpt><trkpt lat="43.4284633" lon="11.5940283"><ele>340.0</ele><time>2026-05-03T12:04:35.644Z</time></trkpt><trkpt lat="43.4285683" lon="11.5940967"><ele>340.0</ele><time>2026-05-03T12:04:36.652Z</time></trkpt><trkpt lat="43.4286767" lon="11.5941417"><ele>340.0</ele><time>2026-05-03T12:04:37.65Z</time></trkpt><trkpt lat="43.4287883" lon="11.594175"><ele>340.0</ele><time>2026-05-03T12:04:38.641Z</time></trkpt><trkpt lat="43.4288983" lon="11.5941867"><ele>340.0</ele><time>2026-05-03T12:04:39.653Z</time></trkpt><trkpt lat="43.4290117" lon="11.5941567"><ele>341.0</ele><time>2026-05-03T12:04:40.659Z</time></trkpt><trkpt lat="43.42913" lon="11.594115"><ele>342.0</ele><time>2026-05-03T12:04:41.65Z</time></trkpt><trkpt lat="43.4292467" lon="11.5940717"><ele>343.0</ele><time>2026-05-03T12:04:42.644Z</time></trkpt><trkpt lat="43.4293783" lon="11.5940333"><ele>344.0</ele><time>2026-05-03T12:04:43.65Z</time></trkpt><trkpt lat="43.429505" lon="11.5939883"><ele>344.0</ele><time>2026-05-03T12:04:44.651Z</time></trkpt><trkpt lat="43.42964" lon="11.5939367"><ele>344.0</ele><time>2026-05-03T12:04:45.652Z</time></trkpt><trkpt lat="43.42977" lon="11.593885"><ele>344.0</ele><time>2026-05-03T12:04:46.657Z</time></trkpt><trkpt lat="43.429895" lon="11.5938333"><ele>344.0</ele><time>2026-05-03T12:04:47.65Z</time></trkpt><trkpt lat="43.4300267" lon="11.5937833"><ele>347.75</ele><time>2026-05-03T12:04:48.657Z</time></trkpt><trkpt lat="43.4301583" lon="11.593745"><ele>351.5</ele><time>2026-05-03T12:04:49.653Z</time></trkpt><trkpt lat="43.430275" lon="11.593705"><ele>355.25</ele><time>2026-05-03T12:04:50.643Z</time></trkpt><trkpt lat="43.430385" lon="11.5936767"><ele>359.0</ele><time>2026-05-03T12:04:51.661Z</time></trkpt><trkpt lat="43.4304767" lon="11.5936467"><ele>360.4</ele><time>2026-05-03T12:04:52.652Z</time></trkpt><trkpt lat="43.430555" lon="11.5935967"><ele>361.79999999999995</ele><time>2026-05-03T12:04:53.64Z</time></trkpt><trkpt lat="43.4306267" lon="11.5935133"><ele>363.20000000000005</ele><time>2026-05-03T12:04:54.653Z</time></trkpt><trkpt lat="43.4306867" lon="11.5934017"><ele>364.6</ele><time>2026-05-03T12:04:55.648Z</time></trkpt><trkpt lat="43.4307233" lon="11.5932567"><ele>366.0</ele><time>2026-05-03T12:04:56.655Z</time></trkpt><trkpt lat="43.4307517" lon="11.5931083"><ele>366.0</ele><time>2026-05-03T12:04:57.651Z</time></trkpt><trkpt lat="43.430785" lon="11.592965"><ele>366.0</ele><time>2026-05-03T12:04:58.654Z</time></trkpt><trkpt lat="43.4308333" lon="11.5928367"><ele>366.0</ele><time>2026-05-03T12:04:59.657Z</time></trkpt><trkpt lat="43.43088" lon="11.59272"><ele>366.0</ele><time>2026-05-03T12:05:00.659Z</time></trkpt><trkpt lat="43.43095" lon="11.5926167"><ele>366.0</ele><time>2026-05-03T12:05:01.646Z</time></trkpt><trkpt lat="43.4310467" lon="11.5925533"><ele>365.0</ele><time>2026-05-03T12:05:02.677Z</time></trkpt><trkpt lat="43.43116" lon="11.5925133"><ele>364.0</ele><time>2026-05-03T12:05:03.653Z</time></trkpt><trkpt lat="43.431275" lon="11.5924867"><ele>363.0</ele><time>2026-05-03T12:05:04.651Z</time></trkpt><trkpt lat="43.4313967" lon="11.5924717"><ele>362.0</ele><time>2026-05-03T12:05:05.648Z</time></trkpt><trkpt lat="43.4315233" lon="11.5924667"><ele>365.25</ele><time>2026-05-03T12:05:06.653Z</time></trkpt><trkpt lat="43.4316517" lon="11.5924667"><ele>368.5</ele><time>2026-05-03T12:05:07.644Z</time></trkpt><trkpt lat="43.431785" lon="11.5924783"><ele>371.75</ele><time>2026-05-03T12:05:08.641Z</time></trkpt><trkpt lat="43.4319233" lon="11.5924933"><ele>375.0</ele><time>2026-05-03T12:05:09.647Z</time></trkpt><trkpt lat="43.432065" lon="11.5924967"><ele>377.5</ele><time>2026-05-03T12:05:10.649Z</time></trkpt><trkpt lat="43.4322" lon="11.592485"><ele>380.0</ele><time>2026-05-03T12:05:11.67Z</time></trkpt><trkpt lat="43.4323233" lon="11.592475"><ele>382.5</ele><time>2026-05-03T12:05:12.653Z</time></trkpt><trkpt lat="43.4324483" lon="11.592475"><ele>385.0</ele><time>2026-05-03T12:05:13.646Z</time></trkpt><trkpt lat="43.4325733" lon="11.5924817"><ele>385.0</ele><time>2026-05-03T12:05:14.65Z</time></trkpt><trkpt lat="43.4327017" lon="11.5925183"><ele>385.0</ele><time>2026-05-03T12:05:15.647Z</time></trkpt><trkpt lat="43.432825" lon="11.5925617"><ele>385.0</ele><time>2026-05-03T12:05:16.667Z</time></trkpt><trkpt lat="43.43294" lon="11.5926017"><ele>385.0</ele><time>2026-05-03T12:05:17.651Z</time></trkpt><trkpt lat="43.4330533" lon="11.5926383"><ele>387.6</ele><time>2026-05-03T12:05:18.649Z</time></trkpt><trkpt lat="43.4331567" lon="11.5926733"><ele>390.2</ele><time>2026-05-03T12:05:19.648Z</time></trkpt><trkpt lat="43.43326" lon="11.592675"><ele>392.79999999999995</ele><time>2026-05-03T12:05:20.648Z</time></trkpt><trkpt lat="43.433345" lon="11.59263"><ele>395.4</ele><time>2026-05-03T12:05:21.658Z</time></trkpt><trkpt lat="43.43341" lon="11.5925417"><ele>398.0</ele><time>2026-05-03T12:05:22.652Z</time></trkpt><trkpt lat="43.4334667" lon="11.5924317"><ele>397.99999999999994</ele><time>2026-05-03T12:05:23.636Z</time></trkpt><trkpt lat="43.4335117" lon="11.5923083"><ele>398.0</ele><time>2026-05-03T12:05:24.65Z</time></trkpt><trkpt lat="43.4335633" lon="11.5921933"><ele>398.0</ele><time>2026-05-03T12:05:25.653Z</time></trkpt><trkpt lat="43.4336117" lon="11.5921083"><ele>398.0</ele><time>2026-05-03T12:05:26.643Z</time></trkpt><trkpt lat="43.433665" lon="11.59204"><ele>397.99999999999994</ele><time>2026-05-03T12:05:27.666Z</time></trkpt><trkpt lat="43.4337283" lon="11.591985"><ele>398.0</ele><time>2026-05-03T12:05:28.655Z</time></trkpt><trkpt lat="43.433795" lon="11.5919267"><ele>400.49999999999994</ele><time>2026-05-03T12:05:29.648Z</time></trkpt><trkpt lat="43.4338633" lon="11.5918783"><ele>403.0</ele><time>2026-05-03T12:05:30.652Z</time></trkpt><trkpt lat="43.4339217" lon="11.5918367"><ele>405.5</ele><time>2026-05-03T12:05:31.653Z</time></trkpt><trkpt lat="43.43399" lon="11.5917733"><ele>408.0</ele><time>2026-05-03T12:05:32.654Z</time></trkpt><trkpt lat="43.4340467" lon="11.5916967"><ele>410.49999999999994</ele><time>2026-05-03T12:05:33.652Z</time></trkpt><trkpt lat="43.4340933" lon="11.5916"><ele>413.0</ele><time>2026-05-03T12:05:34.662Z</time></trkpt><trkpt lat="43.4341283" lon="11.5914867"><ele>413.0</ele><time>2026-05-03T12:05:35.648Z</time></trkpt><trkpt lat="43.43414" lon="11.5913583"><ele>413.0</ele><time>2026-05-03T12:05:36.651Z</time></trkpt><trkpt lat="43.4341333" lon="11.59122"><ele>413.0</ele><time>2026-05-03T12:05:37.652Z</time></trkpt><trkpt lat="43.4341067" lon="11.5910883"><ele>413.0</ele><time>2026-05-03T12:05:38.646Z</time></trkpt><trkpt lat="43.43408" lon="11.5909617"><ele>413.0</ele><time>2026-05-03T12:05:39.663Z</time></trkpt><trkpt lat="43.4340583" lon="11.5908267"><ele>413.3333333333333</ele><time>2026-05-03T12:05:40.643Z</time></trkpt><trkpt lat="43.4340433" lon="11.5907033"><ele>413.66666666666663</ele><time>2026-05-03T12:05:41.652Z</time></trkpt><trkpt lat="43.434045" lon="11.5905917"><ele>414.0</ele><time>2026-05-03T12:05:42.649Z</time></trkpt><trkpt lat="43.4340733" lon="11.5904933"><ele>414.33333333333337</ele><time>2026-05-03T12:05:43.644Z</time></trkpt><trkpt lat="43.4341217" lon="11.5904217"><ele>414.6666666666667</ele><time>2026-05-03T12:05:44.648Z</time></trkpt><trkpt lat="43.4341833" lon="11.59038"><ele>415.0</ele><time>2026-05-03T12:05:45.651Z</time></trkpt><trkpt lat="43.4342683" lon="11.5903583"><ele>415.0</ele><time>2026-05-03T12:05:46.649Z</time></trkpt><trkpt lat="43.4343617" lon="11.5903483"><ele>415.0</ele><time>2026-05-03T12:05:47.651Z</time></trkpt><trkpt lat="43.4344583" lon="11.5903633"><ele>415.0</ele><time>2026-05-03T12:05:48.65Z</time></trkpt><trkpt lat="43.4345567" lon="11.59038"><ele>415.0</ele><time>2026-05-03T12:05:49.668Z</time></trkpt><trkpt lat="43.4346583" lon="11.5903817"><ele>415.0</ele><time>2026-05-03T12:05:50.644Z</time></trkpt><trkpt lat="43.4347583" lon="11.5903667"><ele>417.2</ele><time>2026-05-03T12:05:51.657Z</time></trkpt><trkpt lat="43.43486" lon="11.5903467"><ele>419.4</ele><time>2026-05-03T12:05:52.64Z</time></trkpt><trkpt lat="43.4349583" lon="11.590325"><ele>421.6</ele><time>2026-05-03T12:05:53.654Z</time></trkpt><trkpt lat="43.4350517" lon="11.5903067"><ele>423.8</ele><time>2026-05-03T12:05:54.655Z</time></trkpt><trkpt lat="43.435145" lon="11.5902867"><ele>426.0</ele><time>2026-05-03T12:05:55.64Z</time></trkpt><trkpt lat="43.435235" lon="11.5902767"><ele>426.0</ele><time>2026-05-03T12:05:56.646Z</time></trkpt><trkpt lat="43.4353317" lon="11.5902783"><ele>426.0</ele><time>2026-05-03T12:05:57.653Z</time></trkpt><trkpt lat="43.4354367" lon="11.59029"><ele>426.0</ele><time>2026-05-03T12:05:58.655Z</time></trkpt><trkpt lat="43.435545" lon="11.5903"><ele>426.0</ele><time>2026-05-03T12:05:59.651Z</time></trkpt><trkpt lat="43.43565" lon="11.5903"><ele>426.0</ele><time>2026-05-03T12:06:00.659Z</time></trkpt><trkpt lat="43.4357517" lon="11.59031"><ele>428.6</ele><time>2026-05-03T12:06:01.647Z</time></trkpt><trkpt lat="43.4358483" lon="11.59031"><ele>431.20000000000005</ele><time>2026-05-03T12:06:02.653Z</time></trkpt><trkpt lat="43.4359517" lon="11.5903117"><ele>433.79999999999995</ele><time>2026-05-03T12:06:03.647Z</time></trkpt><trkpt lat="43.4360417" lon="11.5903233"><ele>436.4</ele><time>2026-05-03T12:06:04.652Z</time></trkpt><trkpt lat="43.4361233" lon="11.590375"><ele>439.0</ele><time>2026-05-03T12:06:05.645Z</time></trkpt><trkpt lat="43.43619" lon="11.5904583"><ele>440.6</ele><time>2026-05-03T12:06:06.654Z</time></trkpt><trkpt lat="43.436245" lon="11.5905733"><ele>442.2</ele><time>2026-05-03T12:06:07.646Z</time></trkpt><trkpt lat="43.43628" lon="11.5906767"><ele>443.80000000000007</ele><time>2026-05-03T12:06:08.652Z</time></trkpt><trkpt lat="43.43632" lon="11.5908067"><ele>445.40000000000003</ele><time>2026-05-03T12:06:10.652Z</time></trkpt><trkpt lat="43.4364133" lon="11.5907983"><ele>447.0</ele><time>2026-05-03T12:06:13.637Z</time></trkpt><trkpt lat="43.4365133" lon="11.5907033"><ele>448.0</ele><time>2026-05-03T12:06:15.656Z</time></trkpt><trkpt lat="43.4365667" lon="11.59065"><ele>449.0</ele><time>2026-05-03T12:06:16.664Z</time></trkpt><trkpt lat="43.4366333" lon="11.5906017"><ele>450.0</ele><time>2026-05-03T12:06:17.655Z</time></trkpt><trkpt lat="43.43671" lon="11.5905617"><ele>451.0</ele><time>2026-05-03T12:06:18.663Z</time></trkpt><trkpt lat="43.4367783" lon="11.5905183"><ele>452.0</ele><time>2026-05-03T12:06:19.657Z</time></trkpt><trkpt lat="43.43684" lon="11.590495"><ele>453.0</ele><time>2026-05-03T12:06:20.664Z</time></trkpt><trkpt lat="43.4369383" lon="11.59046"><ele>453.0</ele><time>2026-05-03T12:06:22.676Z</time></trkpt><trkpt lat="43.43703" lon="11.5904133"><ele>452.99999999999994</ele><time>2026-05-03T12:06:24.658Z</time></trkpt><trkpt lat="43.43716" lon="11.5903583"><ele>452.99999999999994</ele><time>2026-05-03T12:06:26.65Z</time></trkpt><trkpt lat="43.43724" lon="11.5903183"><ele>453.0</ele><time>2026-05-03T12:06:27.659Z</time></trkpt><trkpt lat="43.4373283" lon="11.5902883"><ele>453.0</ele><time>2026-05-03T12:06:28.654Z</time></trkpt><trkpt lat="43.4374083" lon="11.5902517"><ele>454.4</ele><time>2026-05-03T12:06:29.655Z</time></trkpt><trkpt lat="43.4374917" lon="11.59022"><ele>455.79999999999995</ele><time>2026-05-03T12:06:30.658Z</time></trkpt><trkpt lat="43.437575" lon="11.59018"><ele>457.2</ele><time>2026-05-03T12:06:31.659Z</time></trkpt><trkpt lat="43.4376633" lon="11.590135"><ele>458.6</ele><time>2026-05-03T12:06:32.663Z</time></trkpt><trkpt lat="43.43775" lon="11.5900867"><ele>460.0</ele><time>2026-05-03T12:06:33.665Z</time></trkpt><trkpt lat="43.4378367" lon="11.5900417"><ele>460.00000000000006</ele><time>2026-05-03T12:06:34.673Z</time></trkpt><trkpt lat="43.437925" lon="11.5899883"><ele>460.0</ele><time>2026-05-03T12:06:35.74Z</time></trkpt><trkpt lat="43.4379983" lon="11.5899467"><ele>460.0</ele><time>2026-05-03T12:06:36.716Z</time></trkpt><trkpt lat="43.4380617" lon="11.58989"><ele>460.0</ele><time>2026-05-03T12:06:37.67Z</time></trkpt><trkpt lat="43.4381183" lon="11.5898"><ele>460.00000000000006</ele><time>2026-05-03T12:06:38.733Z</time></trkpt><trkpt lat="43.43817" lon="11.5897017"><ele>460.0</ele><time>2026-05-03T12:06:39.656Z</time></trkpt><trkpt lat="43.438235" lon="11.5896283"><ele>461.6</ele><time>2026-05-03T12:06:40.663Z</time></trkpt><trkpt lat="43.43831" lon="11.58957"><ele>463.2</ele><time>2026-05-03T12:06:41.681Z</time></trkpt><trkpt lat="43.4383917" lon="11.5895267"><ele>464.79999999999995</ele><time>2026-05-03T12:06:42.696Z</time></trkpt><trkpt lat="43.4384717" lon="11.5894867"><ele>466.4</ele><time>2026-05-03T12:06:43.665Z</time></trkpt><trkpt lat="43.43858" lon="11.5894467"><ele>468.0</ele><time>2026-05-03T12:06:45.668Z</time></trkpt><trkpt lat="43.4386867" lon="11.5894583"><ele>468.0</ele><time>2026-05-03T12:06:47.676Z</time></trkpt><trkpt lat="43.4387917" lon="11.589415"><ele>468.0</ele><time>2026-05-03T12:06:49.66Z</time></trkpt><trkpt lat="43.43886" lon="11.5892867"><ele>468.0</ele><time>2026-05-03T12:06:51.654Z</time></trkpt><trkpt lat="43.4388567" lon="11.58912"><ele>468.0</ele><time>2026-05-03T12:06:53.663Z</time></trkpt><trkpt lat="43.4388367" lon="11.588965"><ele>466.3333333333333</ele><time>2026-05-03T12:06:55.668Z</time></trkpt><trkpt lat="43.4388717" lon="11.5888217"><ele>464.66666666666663</ele><time>2026-05-03T12:06:57.657Z</time></trkpt><trkpt lat="43.438915" lon="11.588745"><ele>463.0</ele><time>2026-05-03T12:06:59.67Z</time></trkpt><trkpt lat="43.43895" lon="11.5886367"><ele>461.3333333333333</ele><time>2026-05-03T12:07:01.66Z</time></trkpt><trkpt lat="43.438965" lon="11.5885117"><ele>459.66666666666663</ele><time>2026-05-03T12:07:03.661Z</time></trkpt><trkpt lat="43.4389683" lon="11.5883917"><ele>458.0</ele><time>2026-05-03T12:07:05.652Z</time></trkpt><trkpt lat="43.438975" lon="11.58827"><ele>457.8333333333333</ele><time>2026-05-03T12:07:07.67Z</time></trkpt><trkpt lat="43.4389617" lon="11.588155"><ele>457.66666666666663</ele><time>2026-05-03T12:07:09.671Z</time></trkpt><trkpt lat="43.4389417" lon="11.5880233"><ele>457.5</ele><time>2026-05-03T12:07:11.654Z</time></trkpt><trkpt lat="43.438905" lon="11.58787"><ele>457.33333333333337</ele><time>2026-05-03T12:07:13.651Z</time></trkpt><trkpt lat="43.4388783" lon="11.5877883"><ele>457.1666666666667</ele><time>2026-05-03T12:07:14.641Z</time></trkpt><trkpt lat="43.4388383" lon="11.5877183"><ele>457.0</ele><time>2026-05-03T12:07:15.653Z</time></trkpt><trkpt lat="43.4387667" lon="11.5875783"><ele>457.00000000000006</ele><time>2026-05-03T12:07:17.652Z</time></trkpt><trkpt lat="43.4387317" lon="11.5875017"><ele>457.0</ele><time>2026-05-03T12:07:18.674Z</time></trkpt><trkpt lat="43.4387" lon="11.5874233"><ele>457.0</ele><time>2026-05-03T12:07:19.652Z</time></trkpt><trkpt lat="43.4386717" lon="11.5873417"><ele>457.0</ele><time>2026-05-03T12:07:20.652Z</time></trkpt><trkpt lat="43.4386617" lon="11.5871817"><ele>457.00000000000006</ele><time>2026-05-03T12:07:22.638Z</time></trkpt><trkpt lat="43.43867" lon="11.5870217"><ele>457.0</ele><time>2026-05-03T12:07:24.647Z</time></trkpt><trkpt lat="43.4386883" lon="11.5869383"><ele>457.1666666666667</ele><time>2026-05-03T12:07:25.662Z</time></trkpt><trkpt lat="43.4387117" lon="11.58684"><ele>457.33333333333337</ele><time>2026-05-03T12:07:26.656Z</time></trkpt><trkpt lat="43.4387233" lon="11.58674"><ele>457.5</ele><time>2026-05-03T12:07:27.662Z</time></trkpt><trkpt lat="43.438725" lon="11.58664"><ele>457.66666666666663</ele><time>2026-05-03T12:07:28.654Z</time></trkpt><trkpt lat="43.4387333" lon="11.5865433"><ele>457.8333333333333</ele><time>2026-05-03T12:07:29.692Z</time></trkpt><trkpt lat="43.438755" lon="11.5864383"><ele>458.0</ele><time>2026-05-03T12:07:30.655Z</time></trkpt><trkpt lat="43.4387883" lon="11.586325"><ele>458.0</ele><time>2026-05-03T12:07:31.65Z</time></trkpt><trkpt lat="43.43882" lon="11.5862033"><ele>454.0</ele><time>2026-05-03T12:07:32.65Z</time></trkpt><trkpt lat="43.438865" lon="11.586085"><ele>463.0</ele><time>2026-05-03T12:07:33.657Z</time></trkpt></trkseg><trkseg><trkpt lat="43.4370317" lon="11.5907167"><ele>453.0</ele><time>2026-05-03T12:44:49.686Z</time></trkpt><trkpt lat="43.437095" lon="11.59076"><ele>453.0</ele><time>2026-05-03T12:44:51.715Z</time></trkpt><trkpt lat="43.4371833" lon="11.5908267"><ele>453.0</ele><time>2026-05-03T12:44:53.667Z</time></trkpt><trkpt lat="43.437245" lon="11.5908733"><ele>453.0</ele><time>2026-05-03T12:44:54.664Z</time></trkpt><trkpt lat="43.4373283" lon="11.5909317"><ele>453.0</ele><time>2026-05-03T12:44:55.655Z</time></trkpt><trkpt lat="43.4374133" lon="11.5909883"><ele>453.0</ele><time>2026-05-03T12:44:56.667Z</time></trkpt><trkpt lat="43.4375017" lon="11.5910433"><ele>453.5</ele><time>2026-05-03T12:44:57.662Z</time></trkpt><trkpt lat="43.437585" lon="11.5910933"><ele>454.0</ele><time>2026-05-03T12:44:58.656Z</time></trkpt><trkpt lat="43.4376633" lon="11.5911433"><ele>454.5</ele><time>2026-05-03T12:44:59.661Z</time></trkpt><trkpt lat="43.4377433" lon="11.5911867"><ele>455.0</ele><time>2026-05-03T12:45:00.653Z</time></trkpt><trkpt lat="43.43782" lon="11.5912383"><ele>455.5</ele><time>2026-05-03T12:45:01.654Z</time></trkpt><trkpt lat="43.4378983" lon="11.5912883"><ele>456.0</ele><time>2026-05-03T12:45:02.654Z</time></trkpt><trkpt lat="43.43797" lon="11.591335"><ele>453.8333333333333</ele><time>2026-05-03T12:45:03.649Z</time></trkpt><trkpt lat="43.4380433" lon="11.5913867"><ele>451.66666666666663</ele><time>2026-05-03T12:45:04.669Z</time></trkpt><trkpt lat="43.438115" lon="11.5914383"><ele>449.5</ele><time>2026-05-03T12:45:05.653Z</time></trkpt><trkpt lat="43.438185" lon="11.59149"><ele>447.3333333333333</ele><time>2026-05-03T12:45:06.651Z</time></trkpt><trkpt lat="43.438255" lon="11.5915417"><ele>445.16666666666663</ele><time>2026-05-03T12:45:07.653Z</time></trkpt><trkpt lat="43.4383233" lon="11.5915967"><ele>443.0</ele><time>2026-05-03T12:45:08.654Z</time></trkpt><trkpt lat="43.4383917" lon="11.5916567"><ele>442.99999999999994</ele><time>2026-05-03T12:45:09.644Z</time></trkpt><trkpt lat="43.4384617" lon="11.5917133"><ele>443.0</ele><time>2026-05-03T12:45:10.652Z</time></trkpt><trkpt lat="43.4385383" lon="11.5917683"><ele>443.0</ele><time>2026-05-03T12:45:11.653Z</time></trkpt><trkpt lat="43.43862" lon="11.5918233"><ele>443.0</ele><time>2026-05-03T12:45:12.652Z</time></trkpt><trkpt lat="43.4387" lon="11.5918867"><ele>442.99999999999994</ele><time>2026-05-03T12:45:13.656Z</time></trkpt><trkpt lat="43.4387833" lon="11.591935"><ele>443.0</ele><time>2026-05-03T12:45:14.658Z</time></trkpt><trkpt lat="43.438865" lon="11.5919767"><ele>439.66666666666663</ele><time>2026-05-03T12:45:15.664Z</time></trkpt><trkpt lat="43.438945" lon="11.5920167"><ele>436.3333333333333</ele><time>2026-05-03T12:45:16.646Z</time></trkpt><trkpt lat="43.43903" lon="11.5920583"><ele>433.0</ele><time>2026-05-03T12:45:17.645Z</time></trkpt><trkpt lat="43.4391083" lon="11.592095"><ele>429.66666666666663</ele><time>2026-05-03T12:45:18.649Z</time></trkpt><trkpt lat="43.439185" lon="11.59214"><ele>426.3333333333333</ele><time>2026-05-03T12:45:19.655Z</time></trkpt><trkpt lat="43.4392583" lon="11.5922033"><ele>423.0</ele><time>2026-05-03T12:45:20.658Z</time></trkpt><trkpt lat="43.4393267" lon="11.5922733"><ele>423.0</ele><time>2026-05-03T12:45:21.649Z</time></trkpt><trkpt lat="43.4393883" lon="11.592355"><ele>423.0</ele><time>2026-05-03T12:45:22.65Z</time></trkpt><trkpt lat="43.43945" lon="11.5924333"><ele>423.0</ele><time>2026-05-03T12:45:23.672Z</time></trkpt><trkpt lat="43.4395067" lon="11.5925133"><ele>423.0</ele><time>2026-05-03T12:45:24.652Z</time></trkpt><trkpt lat="43.439565" lon="11.59259"><ele>423.0</ele><time>2026-05-03T12:45:25.647Z</time></trkpt><trkpt lat="43.4396183" lon="11.5926683"><ele>423.0</ele><time>2026-05-03T12:45:26.643Z</time></trkpt><trkpt lat="43.4396667" lon="11.59274"><ele>423.1666666666667</ele><time>2026-05-03T12:45:27.653Z</time></trkpt><trkpt lat="43.4397083" lon="11.592835"><ele>423.33333333333337</ele><time>2026-05-03T12:45:28.659Z</time></trkpt><trkpt lat="43.4397317" lon="11.5929483"><ele>423.5</ele><time>2026-05-03T12:45:29.652Z</time></trkpt><trkpt lat="43.43975" lon="11.5930717"><ele>423.6666666666667</ele><time>2026-05-03T12:45:30.649Z</time></trkpt><trkpt lat="43.4397683" lon="11.5932067"><ele>423.83333333333337</ele><time>2026-05-03T12:45:31.657Z</time></trkpt><trkpt lat="43.43979" lon="11.593325"><ele>424.0</ele><time>2026-05-03T12:45:32.659Z</time></trkpt><trkpt lat="43.4398083" lon="11.5934417"><ele>422.00000000000006</ele><time>2026-05-03T12:45:33.655Z</time></trkpt><trkpt lat="43.4398317" lon="11.5935567"><ele>420.0</ele><time>2026-05-03T12:45:34.659Z</time></trkpt><trkpt lat="43.43986" lon="11.5936467"><ele>418.0</ele><time>2026-05-03T12:45:35.671Z</time></trkpt><trkpt lat="43.4399" lon="11.593715"><ele>416.0</ele><time>2026-05-03T12:45:36.66Z</time></trkpt><trkpt lat="43.4399583" lon="11.5937517"><ele>414.00000000000006</ele><time>2026-05-03T12:45:37.661Z</time></trkpt><trkpt lat="43.4400767" lon="11.59376"><ele>412.0</ele><time>2026-05-03T12:45:39.657Z</time></trkpt><trkpt lat="43.44014" lon="11.5937317"><ele>412.00000000000006</ele><time>2026-05-03T12:45:40.662Z</time></trkpt><trkpt lat="43.4402033" lon="11.59369"><ele>412.0</ele><time>2026-05-03T12:45:41.682Z</time></trkpt><trkpt lat="43.4402683" lon="11.5936417"><ele>412.0</ele><time>2026-05-03T12:45:42.655Z</time></trkpt><trkpt lat="43.44034" lon="11.5935683"><ele>412.0</ele><time>2026-05-03T12:45:43.665Z</time></trkpt><trkpt lat="43.4404067" lon="11.5934833"><ele>412.00000000000006</ele><time>2026-05-03T12:45:44.655Z</time></trkpt><trkpt lat="43.440475" lon="11.5933983"><ele>412.0</ele><time>2026-05-03T12:45:45.675Z</time></trkpt><trkpt lat="43.4405383" lon="11.5933067"><ele>409.00000000000006</ele><time>2026-05-03T12:45:46.656Z</time></trkpt><trkpt lat="43.4405983" lon="11.5932267"><ele>406.0</ele><time>2026-05-03T12:45:47.653Z</time></trkpt><trkpt lat="43.4406617" lon="11.5931433"><ele>403.0</ele><time>2026-05-03T12:45:48.656Z</time></trkpt><trkpt lat="43.4407167" lon="11.5930667"><ele>400.0</ele><time>2026-05-03T12:45:49.652Z</time></trkpt><trkpt lat="43.44077" lon="11.59299"><ele>397.00000000000006</ele><time>2026-05-03T12:45:50.653Z</time></trkpt><trkpt lat="43.4408267" lon="11.592915"><ele>394.0</ele><time>2026-05-03T12:45:51.655Z</time></trkpt><trkpt lat="43.44089" lon="11.5928467"><ele>392.33333333333337</ele><time>2026-05-03T12:45:52.657Z</time></trkpt><trkpt lat="43.4409567" lon="11.5927867"><ele>390.6666666666667</ele><time>2026-05-03T12:45:53.657Z</time></trkpt><trkpt lat="43.441025" lon="11.592765"><ele>389.0</ele><time>2026-05-03T12:45:54.661Z</time></trkpt><trkpt lat="43.4411033" lon="11.592755"><ele>387.33333333333337</ele><time>2026-05-03T12:45:55.642Z</time></trkpt><trkpt lat="43.4411833" lon="11.5927833"><ele>385.6666666666667</ele><time>2026-05-03T12:45:56.658Z</time></trkpt><trkpt lat="43.44127" lon="11.5928233"><ele>384.0</ele><time>2026-05-03T12:45:57.661Z</time></trkpt><trkpt lat="43.4413517" lon="11.59288"><ele>384.0</ele><time>2026-05-03T12:45:58.655Z</time></trkpt><trkpt lat="43.441435" lon="11.5929283"><ele>384.0</ele><time>2026-05-03T12:45:59.651Z</time></trkpt><trkpt lat="43.4415117" lon="11.5929683"><ele>384.0</ele><time>2026-05-03T12:46:00.654Z</time></trkpt><trkpt lat="43.4415917" lon="11.5930133"><ele>384.0</ele><time>2026-05-03T12:46:01.662Z</time></trkpt><trkpt lat="43.4416633" lon="11.593055"><ele>384.0</ele><time>2026-05-03T12:46:02.651Z</time></trkpt><trkpt lat="43.4417283" lon="11.593085"><ele>384.0</ele><time>2026-05-03T12:46:03.661Z</time></trkpt><trkpt lat="43.4417967" lon="11.5931017"><ele>384.0</ele><time>2026-05-03T12:46:04.657Z</time></trkpt><trkpt lat="43.4418617" lon="11.5930917"><ele>384.0</ele><time>2026-05-03T12:46:05.654Z</time></trkpt><trkpt lat="43.4419267" lon="11.5930733"><ele>384.0</ele><time>2026-05-03T12:46:06.655Z</time></trkpt><trkpt lat="43.4420467" lon="11.59304"><ele>384.0</ele><time>2026-05-03T12:46:08.664Z</time></trkpt><trkpt lat="43.4421217" lon="11.5930483"><ele>384.0</ele><time>2026-05-03T12:46:09.657Z</time></trkpt><trkpt lat="43.4422" lon="11.5930717"><ele>384.0</ele><time>2026-05-03T12:46:10.654Z</time></trkpt><trkpt lat="43.442275" lon="11.5931"><ele>382.0</ele><time>2026-05-03T12:46:11.658Z</time></trkpt><trkpt lat="43.4423567" lon="11.593135"><ele>380.0</ele><time>2026-05-03T12:46:12.662Z</time></trkpt><trkpt lat="43.44244" lon="11.59318"><ele>378.0</ele><time>2026-05-03T12:46:13.671Z</time></trkpt><trkpt lat="43.4425317" lon="11.593235"><ele>376.0</ele><time>2026-05-03T12:46:14.666Z</time></trkpt><trkpt lat="43.4426233" lon="11.593295"><ele>374.0</ele><time>2026-05-03T12:46:15.653Z</time></trkpt><trkpt lat="43.4427083" lon="11.59336"><ele>374.0</ele><time>2026-05-03T12:46:16.657Z</time></trkpt><trkpt lat="43.4427967" lon="11.5934283"><ele>374.0</ele><time>2026-05-03T12:46:17.672Z</time></trkpt><trkpt lat="43.4433933" lon="11.593935"><ele>371.5</ele><time>2026-05-03T12:46:25.65Z</time></trkpt><trkpt lat="43.44343" lon="11.5940083"><ele>369.0</ele><time>2026-05-03T12:46:26.654Z</time></trkpt><trkpt lat="43.44345" lon="11.5941"><ele>366.5</ele><time>2026-05-03T12:46:27.686Z</time></trkpt><trkpt lat="43.4434567" lon="11.5942083"><ele>364.0</ele><time>2026-05-03T12:46:28.639Z</time></trkpt><trkpt lat="43.443455" lon="11.59433"><ele>361.5</ele><time>2026-05-03T12:46:29.652Z</time></trkpt><trkpt lat="43.443455" lon="11.5944483"><ele>359.0</ele><time>2026-05-03T12:46:30.663Z</time></trkpt><trkpt lat="43.4434583" lon="11.5945633"><ele>357.6666666666667</ele><time>2026-05-03T12:46:31.665Z</time></trkpt><trkpt lat="43.443475" lon="11.594685"><ele>356.33333333333337</ele><time>2026-05-03T12:46:32.656Z</time></trkpt><trkpt lat="43.4435067" lon="11.5947917"><ele>355.0</ele><time>2026-05-03T12:46:33.65Z</time></trkpt><trkpt lat="43.4435667" lon="11.5948883"><ele>353.6666666666667</ele><time>2026-05-03T12:46:34.659Z</time></trkpt><trkpt lat="43.443635" lon="11.5949467"><ele>352.3333333333333</ele><time>2026-05-03T12:46:35.659Z</time></trkpt><trkpt lat="43.443695" lon="11.59501"><ele>351.0</ele><time>2026-05-03T12:46:36.642Z</time></trkpt><trkpt lat="43.44375" lon="11.5950817"><ele>351.0</ele><time>2026-05-03T12:46:37.672Z</time></trkpt><trkpt lat="43.4437967" lon="11.59517"><ele>351.0</ele><time>2026-05-03T12:46:38.657Z</time></trkpt><trkpt lat="43.4438233" lon="11.5952717"><ele>351.0</ele><time>2026-05-03T12:46:39.654Z</time></trkpt><trkpt lat="43.4438433" lon="11.595375"><ele>351.0</ele><time>2026-05-03T12:46:40.651Z</time></trkpt><trkpt lat="43.44385" lon="11.595485"><ele>351.0</ele><time>2026-05-03T12:46:41.649Z</time></trkpt><trkpt lat="43.4438567" lon="11.5956"><ele>351.0</ele><time>2026-05-03T12:46:42.655Z</time></trkpt><trkpt lat="43.4438583" lon="11.59572"><ele>348.0</ele><time>2026-05-03T12:46:43.653Z</time></trkpt><trkpt lat="43.4438617" lon="11.595835"><ele>345.0</ele><time>2026-05-03T12:46:44.66Z</time></trkpt><trkpt lat="43.443875" lon="11.5959633"><ele>342.0</ele><time>2026-05-03T12:46:45.653Z</time></trkpt><trkpt lat="43.4438983" lon="11.5960767"><ele>339.0</ele><time>2026-05-03T12:46:46.648Z</time></trkpt><trkpt lat="43.4439367" lon="11.5961883"><ele>336.0</ele><time>2026-05-03T12:46:47.664Z</time></trkpt><trkpt lat="43.4440017" lon="11.5962883"><ele>335.20000000000005</ele><time>2026-05-03T12:46:48.658Z</time></trkpt><trkpt lat="43.4440667" lon="11.59639"><ele>334.40000000000003</ele><time>2026-05-03T12:46:49.678Z</time></trkpt><trkpt lat="43.4441333" lon="11.5965017"><ele>333.6</ele><time>2026-05-03T12:46:50.655Z</time></trkpt><trkpt lat="43.444205" lon="11.59661"><ele>332.8</ele><time>2026-05-03T12:46:51.655Z</time></trkpt><trkpt lat="43.44427" lon="11.5967133"><ele>332.0</ele><time>2026-05-03T12:46:52.657Z</time></trkpt><trkpt lat="43.4443183" lon="11.5968167"><ele>332.0</ele><time>2026-05-03T12:46:53.657Z</time></trkpt><trkpt lat="43.44436" lon="11.59692"><ele>332.0</ele><time>2026-05-03T12:46:54.665Z</time></trkpt><trkpt lat="43.444405" lon="11.597015"><ele>332.0</ele><time>2026-05-03T12:46:55.661Z</time></trkpt><trkpt lat="43.4444533" lon="11.5971"><ele>332.0</ele><time>2026-05-03T12:46:56.66Z</time></trkpt><trkpt lat="43.44451" lon="11.59717"><ele>332.0</ele><time>2026-05-03T12:46:57.654Z</time></trkpt><trkpt lat="43.4445683" lon="11.5972333"><ele>332.0</ele><time>2026-05-03T12:46:58.651Z</time></trkpt><trkpt lat="43.4446367" lon="11.5972983"><ele>329.6666666666667</ele><time>2026-05-03T12:46:59.642Z</time></trkpt><trkpt lat="43.4447083" lon="11.5973617"><ele>327.33333333333337</ele><time>2026-05-03T12:47:00.664Z</time></trkpt><trkpt lat="43.44478" lon="11.597435"><ele>325.0</ele><time>2026-05-03T12:47:01.67Z</time></trkpt><trkpt lat="43.4448517" lon="11.597505"><ele>322.6666666666667</ele><time>2026-05-03T12:47:02.668Z</time></trkpt><trkpt lat="43.44492" lon="11.5975783"><ele>320.3333333333333</ele><time>2026-05-03T12:47:03.678Z</time></trkpt><trkpt lat="43.4449867" lon="11.59765"><ele>318.0</ele><time>2026-05-03T12:47:04.669Z</time></trkpt><trkpt lat="43.4450583" lon="11.597715"><ele>318.0</ele><time>2026-05-03T12:47:05.66Z</time></trkpt><trkpt lat="43.4451417" lon="11.59776"><ele>318.0</ele><time>2026-05-03T12:47:06.666Z</time></trkpt><trkpt lat="43.4452217" lon="11.597805"><ele>318.0</ele><time>2026-05-03T12:47:07.666Z</time></trkpt><trkpt lat="43.445305" lon="11.5978417"><ele>318.0</ele><time>2026-05-03T12:47:08.659Z</time></trkpt><trkpt lat="43.4453933" lon="11.59786"><ele>318.0</ele><time>2026-05-03T12:47:09.657Z</time></trkpt><trkpt lat="43.4454767" lon="11.59788"><ele>318.0</ele><time>2026-05-03T12:47:10.653Z</time></trkpt><trkpt lat="43.44556" lon="11.5979067"><ele>315.0</ele><time>2026-05-03T12:47:11.659Z</time></trkpt><trkpt lat="43.4456517" lon="11.5979483"><ele>312.0</ele><time>2026-05-03T12:47:12.653Z</time></trkpt><trkpt lat="43.4457383" lon="11.59798"><ele>309.0</ele><time>2026-05-03T12:47:13.65Z</time></trkpt><trkpt lat="43.4458283" lon="11.598025"><ele>306.0</ele><time>2026-05-03T12:47:14.649Z</time></trkpt><trkpt lat="43.4459167" lon="11.59807"><ele>303.0</ele><time>2026-05-03T12:47:15.661Z</time></trkpt><trkpt lat="43.446015" lon="11.5981217"><ele>303.0</ele><time>2026-05-03T12:47:16.665Z</time></trkpt><trkpt lat="43.44611" lon="11.5981717"><ele>303.0</ele><time>2026-05-03T12:47:17.662Z</time></trkpt><trkpt lat="43.4462" lon="11.59822"><ele>303.0</ele><time>2026-05-03T12:47:18.651Z</time></trkpt><trkpt lat="43.446295" lon="11.5982767"><ele>303.0</ele><time>2026-05-03T12:47:19.684Z</time></trkpt><trkpt lat="43.4463917" lon="11.5983217"><ele>303.0</ele><time>2026-05-03T12:47:20.687Z</time></trkpt><trkpt lat="43.4464883" lon="11.5983783"><ele>303.0</ele><time>2026-05-03T12:47:21.661Z</time></trkpt><trkpt lat="43.4465817" lon="11.5984317"><ele>303.0</ele><time>2026-05-03T12:47:22.646Z</time></trkpt><trkpt lat="43.4466733" lon="11.5984783"><ele>303.0</ele><time>2026-05-03T12:47:23.661Z</time></trkpt><trkpt lat="43.4467567" lon="11.598515"><ele>303.0</ele><time>2026-05-03T12:47:24.663Z</time></trkpt><trkpt lat="43.4468383" lon="11.598545"><ele>303.0</ele><time>2026-05-03T12:47:25.671Z</time></trkpt><trkpt lat="43.4469267" lon="11.598585"><ele>303.0</ele><time>2026-05-03T12:47:26.668Z</time></trkpt><trkpt lat="43.4470133" lon="11.5986233"><ele>303.0</ele><time>2026-05-03T12:47:27.663Z</time></trkpt><trkpt lat="43.447105" lon="11.59867"><ele>303.0</ele><time>2026-05-03T12:47:28.659Z</time></trkpt><trkpt lat="43.4471917" lon="11.5987217"><ele>303.0</ele><time>2026-05-03T12:47:29.648Z</time></trkpt><trkpt lat="43.447275" lon="11.598775"><ele>303.0</ele><time>2026-05-03T12:47:30.656Z</time></trkpt><trkpt lat="43.447355" lon="11.598815"><ele>304.6</ele><time>2026-05-03T12:47:31.653Z</time></trkpt><trkpt lat="43.4474383" lon="11.59885"><ele>306.20000000000005</ele><time>2026-05-03T12:47:32.68Z</time></trkpt><trkpt lat="43.4475233" lon="11.5988867"><ele>307.8</ele><time>2026-05-03T12:47:33.657Z</time></trkpt><trkpt lat="43.4476083" lon="11.5989283"><ele>309.40000000000003</ele><time>2026-05-03T12:47:34.657Z</time></trkpt><trkpt lat="43.4476933" lon="11.5989883"><ele>311.0</ele><time>2026-05-03T12:47:35.654Z</time></trkpt><trkpt lat="43.447775" lon="11.59906"><ele>311.0</ele><time>2026-05-03T12:47:36.658Z</time></trkpt><trkpt lat="43.4478583" lon="11.5991317"><ele>311.0</ele><time>2026-05-03T12:47:37.649Z</time></trkpt><trkpt lat="43.4479417" lon="11.5992083"><ele>311.0</ele><time>2026-05-03T12:47:38.662Z</time></trkpt><trkpt lat="43.4480383" lon="11.5992867"><ele>311.0</ele><time>2026-05-03T12:47:39.654Z</time></trkpt><trkpt lat="43.4481283" lon="11.599355"><ele>311.0</ele><time>2026-05-03T12:47:40.67Z</time></trkpt><trkpt lat="43.44821" lon="11.5994183"><ele>310.2</ele><time>2026-05-03T12:47:41.655Z</time></trkpt><trkpt lat="43.4482917" lon="11.59948"><ele>309.40000000000003</ele><time>2026-05-03T12:47:42.656Z</time></trkpt><trkpt lat="43.4483783" lon="11.5995467"><ele>308.6</ele><time>2026-05-03T12:47:43.66Z</time></trkpt><trkpt lat="43.44846" lon="11.5996217"><ele>307.8</ele><time>2026-05-03T12:47:44.654Z</time></trkpt><trkpt lat="43.4485433" lon="11.5997167"><ele>307.0</ele><time>2026-05-03T12:47:45.651Z</time></trkpt><trkpt lat="43.44862" lon="11.5998033"><ele>307.0</ele><time>2026-05-03T12:47:46.654Z</time></trkpt><trkpt lat="43.4486917" lon="11.5998933"><ele>307.0</ele><time>2026-05-03T12:47:47.654Z</time></trkpt><trkpt lat="43.448755" lon="11.59998"><ele>307.0</ele><time>2026-05-03T12:47:48.656Z</time></trkpt><trkpt lat="43.44881" lon="11.60006"><ele>307.0</ele><time>2026-05-03T12:47:49.656Z</time></trkpt><trkpt lat="43.4488733" lon="11.600145"><ele>307.0</ele><time>2026-05-03T12:47:50.653Z</time></trkpt><trkpt lat="43.4489383" lon="11.600235"><ele>307.0</ele><time>2026-05-03T12:47:51.651Z</time></trkpt><trkpt lat="43.449" lon="11.6003183"><ele>303.4</ele><time>2026-05-03T12:47:52.658Z</time></trkpt><trkpt lat="43.44906" lon="11.6004017"><ele>299.79999999999995</ele><time>2026-05-03T12:47:53.669Z</time></trkpt><trkpt lat="43.449115" lon="11.6004967"><ele>296.2</ele><time>2026-05-03T12:47:54.665Z</time></trkpt><trkpt lat="43.4491817" lon="11.6006083"><ele>292.59999999999997</ele><time>2026-05-03T12:47:55.663Z</time></trkpt><trkpt lat="43.4492433" lon="11.600725"><ele>289.0</ele><time>2026-05-03T12:47:56.651Z</time></trkpt><trkpt lat="43.449305" lon="11.6008317"><ele>289.0</ele><time>2026-05-03T12:47:57.66Z</time></trkpt><trkpt lat="43.4493767" lon="11.6009333"><ele>289.0</ele><time>2026-05-03T12:47:58.654Z</time></trkpt><trkpt lat="43.44946" lon="11.60101"><ele>289.0</ele><time>2026-05-03T12:47:59.654Z</time></trkpt><trkpt lat="43.4495517" lon="11.6010867"><ele>289.0</ele><time>2026-05-03T12:48:00.653Z</time></trkpt><trkpt lat="43.4496533" lon="11.6011683"><ele>289.0</ele><time>2026-05-03T12:48:01.693Z</time></trkpt><trkpt lat="43.4497533" lon="11.6012467"><ele>286.25</ele><time>2026-05-03T12:48:02.706Z</time></trkpt><trkpt lat="43.4498517" lon="11.6013283"><ele>283.5</ele><time>2026-05-03T12:48:03.671Z</time></trkpt><trkpt lat="43.4499533" lon="11.6014"><ele>280.75</ele><time>2026-05-03T12:48:04.655Z</time></trkpt><trkpt lat="43.4500567" lon="11.6014717"><ele>278.0</ele><time>2026-05-03T12:48:05.877Z</time></trkpt><trkpt lat="43.45025" lon="11.6016083"><ele>278.0</ele><time>2026-05-03T12:48:07.669Z</time></trkpt><trkpt lat="43.4503367" lon="11.6016733"><ele>278.0</ele><time>2026-05-03T12:48:08.671Z</time></trkpt><trkpt lat="43.4504267" lon="11.60174"><ele>278.0</ele><time>2026-05-03T12:48:09.667Z</time></trkpt><trkpt lat="43.4505067" lon="11.601815"><ele>278.0</ele><time>2026-05-03T12:48:10.647Z</time></trkpt><trkpt lat="43.45058" lon="11.6018983"><ele>278.0</ele><time>2026-05-03T12:48:11.655Z</time></trkpt><trkpt lat="43.4506483" lon="11.60198"><ele>276.5</ele><time>2026-05-03T12:48:12.664Z</time></trkpt><trkpt lat="43.4507167" lon="11.6020617"><ele>275.0</ele><time>2026-05-03T12:48:13.664Z</time></trkpt><trkpt lat="43.4507833" lon="11.6021367"><ele>273.5</ele><time>2026-05-03T12:48:14.664Z</time></trkpt><trkpt lat="43.4508483" lon="11.6022083"><ele>272.0</ele><time>2026-05-03T12:48:15.657Z</time></trkpt><trkpt lat="43.4509033" lon="11.6022767"><ele>270.5</ele><time>2026-05-03T12:48:16.661Z</time></trkpt><trkpt lat="43.4509583" lon="11.6023433"><ele>269.0</ele><time>2026-05-03T12:48:17.663Z</time></trkpt><trkpt lat="43.451005" lon="11.60242"><ele>269.0</ele><time>2026-05-03T12:48:18.648Z</time></trkpt><trkpt lat="43.451045" lon="11.6025017"><ele>269.0</ele><time>2026-05-03T12:48:19.666Z</time></trkpt><trkpt lat="43.4510767" lon="11.6025967"><ele>269.0</ele><time>2026-05-03T12:48:20.66Z</time></trkpt><trkpt lat="43.45111" lon="11.602705"><ele>269.0</ele><time>2026-05-03T12:48:21.667Z</time></trkpt><trkpt lat="43.45115" lon="11.602815"><ele>269.0</ele><time>2026-05-03T12:48:22.684Z</time></trkpt><trkpt lat="43.451195" lon="11.6029333"><ele>269.0</ele><time>2026-05-03T12:48:23.665Z</time></trkpt><trkpt lat="43.45125" lon="11.6030483"><ele>268.4</ele><time>2026-05-03T12:48:24.659Z</time></trkpt><trkpt lat="43.4513117" lon="11.603155"><ele>267.79999999999995</ele><time>2026-05-03T12:48:25.673Z</time></trkpt><trkpt lat="43.4513733" lon="11.6032417"><ele>267.20000000000005</ele><time>2026-05-03T12:48:26.664Z</time></trkpt><trkpt lat="43.4514567" lon="11.6033167"><ele>266.6</ele><time>2026-05-03T12:48:27.663Z</time></trkpt><trkpt lat="43.45155" lon="11.60338"><ele>266.0</ele><time>2026-05-03T12:48:28.661Z</time></trkpt><trkpt lat="43.4516533" lon="11.60344"><ele>266.0</ele><time>2026-05-03T12:48:29.671Z</time></trkpt><trkpt lat="43.4517567" lon="11.603495"><ele>266.0</ele><time>2026-05-03T12:48:30.668Z</time></trkpt><trkpt lat="43.451855" lon="11.6035383"><ele>266.0</ele><time>2026-05-03T12:48:31.663Z</time></trkpt><trkpt lat="43.4519533" lon="11.6035767"><ele>266.0</ele><time>2026-05-03T12:48:32.661Z</time></trkpt><trkpt lat="43.4520483" lon="11.6035967"><ele>266.0</ele><time>2026-05-03T12:48:33.664Z</time></trkpt><trkpt lat="43.4521483" lon="11.6035983"><ele>264.6</ele><time>2026-05-03T12:48:34.669Z</time></trkpt><trkpt lat="43.4522467" lon="11.6035733"><ele>263.20000000000005</ele><time>2026-05-03T12:48:35.682Z</time></trkpt><trkpt lat="43.45234" lon="11.603535"><ele>261.79999999999995</ele><time>2026-05-03T12:48:36.658Z</time></trkpt><trkpt lat="43.452435" lon="11.6035117"><ele>260.4</ele><time>2026-05-03T12:48:37.669Z</time></trkpt><trkpt lat="43.45253" lon="11.6034967"><ele>259.0</ele><time>2026-05-03T12:48:38.668Z</time></trkpt><trkpt lat="43.4526267" lon="11.6035083"><ele>259.0</ele><time>2026-05-03T12:48:39.683Z</time></trkpt><trkpt lat="43.45273" lon="11.6035367"><ele>259.0</ele><time>2026-05-03T12:48:40.655Z</time></trkpt><trkpt lat="43.4528267" lon="11.6035817"><ele>259.0</ele><time>2026-05-03T12:48:41.662Z</time></trkpt><trkpt lat="43.4529183" lon="11.6036283"><ele>259.0</ele><time>2026-05-03T12:48:42.677Z</time></trkpt><trkpt lat="43.4530017" lon="11.603675"><ele>259.0</ele><time>2026-05-03T12:48:43.662Z</time></trkpt><trkpt lat="43.4530883" lon="11.6037133"><ele>259.8</ele><time>2026-05-03T12:48:44.671Z</time></trkpt><trkpt lat="43.4531867" lon="11.603735"><ele>260.59999999999997</ele><time>2026-05-03T12:48:45.675Z</time></trkpt><trkpt lat="43.4532817" lon="11.603735"><ele>261.4</ele><time>2026-05-03T12:48:46.677Z</time></trkpt><trkpt lat="43.4533767" lon="11.603725"><ele>262.2</ele><time>2026-05-03T12:48:47.667Z</time></trkpt><trkpt lat="43.4534683" lon="11.60372"><ele>263.0</ele><time>2026-05-03T12:48:48.661Z</time></trkpt><trkpt lat="43.4535417" lon="11.6037083"><ele>263.0</ele><time>2026-05-03T12:48:49.671Z</time></trkpt><trkpt lat="43.4536167" lon="11.6037117"><ele>263.0</ele><time>2026-05-03T12:48:50.666Z</time></trkpt><trkpt lat="43.453695" lon="11.60374"><ele>263.0</ele><time>2026-05-03T12:48:51.657Z</time></trkpt><trkpt lat="43.453765" lon="11.6037867"><ele>263.0</ele><time>2026-05-03T12:48:52.66Z</time></trkpt><trkpt lat="43.4538183" lon="11.6038633"><ele>263.0</ele><time>2026-05-03T12:48:53.665Z</time></trkpt><trkpt lat="43.4538633" lon="11.6039517"><ele>263.0</ele><time>2026-05-03T12:48:54.655Z</time></trkpt><trkpt lat="43.4539183" lon="11.60404"><ele>261.0</ele><time>2026-05-03T12:48:55.651Z</time></trkpt><trkpt lat="43.4539867" lon="11.6041233"><ele>259.0</ele><time>2026-05-03T12:48:56.649Z</time></trkpt><trkpt lat="43.45407" lon="11.6041933"><ele>257.0</ele><time>2026-05-03T12:48:57.651Z</time></trkpt><trkpt lat="43.4541617" lon="11.6042433"><ele>255.0</ele><time>2026-05-03T12:48:58.636Z</time></trkpt><trkpt lat="43.4542733" lon="11.6042767"><ele>253.0</ele><time>2026-05-03T12:48:59.658Z</time></trkpt><trkpt lat="43.4543933" lon="11.6043"><ele>253.0</ele><time>2026-05-03T12:49:00.653Z</time></trkpt><trkpt lat="43.4545083" lon="11.604335"><ele>253.0</ele><time>2026-05-03T12:49:01.654Z</time></trkpt><trkpt lat="43.454625" lon="11.60439"><ele>253.0</ele><time>2026-05-03T12:49:02.655Z</time></trkpt><trkpt lat="43.45473" lon="11.6044733"><ele>253.0</ele><time>2026-05-03T12:49:03.66Z</time></trkpt><trkpt lat="43.45481" lon="11.6045833"><ele>251.0</ele><time>2026-05-03T12:49:04.647Z</time></trkpt><trkpt lat="43.454865" lon="11.6047067"><ele>249.0</ele><time>2026-05-03T12:49:05.664Z</time></trkpt><trkpt lat="43.45491" lon="11.6048383"><ele>247.0</ele><time>2026-05-03T12:49:06.666Z</time></trkpt><trkpt lat="43.45495" lon="11.60497"><ele>245.0</ele><time>2026-05-03T12:49:07.659Z</time></trkpt><trkpt lat="43.454985" lon="11.6051067"><ele>243.0</ele><time>2026-05-03T12:49:08.659Z</time></trkpt><trkpt lat="43.45502" lon="11.605255"><ele>244.0</ele><time>2026-05-03T12:49:09.664Z</time></trkpt><trkpt lat="43.4550467" lon="11.6053933"><ele>245.0</ele><time>2026-05-03T12:49:10.652Z</time></trkpt><trkpt lat="43.4550717" lon="11.6055333"><ele>246.0</ele><time>2026-05-03T12:49:11.659Z</time></trkpt><trkpt lat="43.4550917" lon="11.60567"><ele>247.0</ele><time>2026-05-03T12:49:12.644Z</time></trkpt><trkpt lat="43.4551167" lon="11.6058117"><ele>248.0</ele><time>2026-05-03T12:49:13.651Z</time></trkpt><trkpt lat="43.4551483" lon="11.6059483"><ele>248.0</ele><time>2026-05-03T12:49:14.657Z</time></trkpt><trkpt lat="43.4551883" lon="11.606085"><ele>248.0</ele><time>2026-05-03T12:49:15.655Z</time></trkpt><trkpt lat="43.455245" lon="11.606215"><ele>248.0</ele><time>2026-05-03T12:49:16.662Z</time></trkpt><trkpt lat="43.4553017" lon="11.606345"><ele>248.0</ele><time>2026-05-03T12:49:17.652Z</time></trkpt><trkpt lat="43.4553683" lon="11.606465"><ele>248.0</ele><time>2026-05-03T12:49:18.654Z</time></trkpt><trkpt lat="43.4554383" lon="11.606585"><ele>247.60000000000002</ele><time>2026-05-03T12:49:19.651Z</time></trkpt><trkpt lat="43.4555117" lon="11.606685"><ele>247.20000000000002</ele><time>2026-05-03T12:49:20.651Z</time></trkpt><trkpt lat="43.4556067" lon="11.6067733"><ele>246.8</ele><time>2026-05-03T12:49:21.649Z</time></trkpt><trkpt lat="43.455685" lon="11.606855"><ele>246.4</ele><time>2026-05-03T12:49:22.643Z</time></trkpt><trkpt lat="43.4557817" lon="11.60693"><ele>246.0</ele><time>2026-05-03T12:49:23.642Z</time></trkpt><trkpt lat="43.4558583" lon="11.607015"><ele>246.0</ele><time>2026-05-03T12:49:24.648Z</time></trkpt><trkpt lat="43.45593" lon="11.6071167"><ele>246.00000000000003</ele><time>2026-05-03T12:49:25.657Z</time></trkpt><trkpt lat="43.4560067" lon="11.6072267"><ele>246.00000000000003</ele><time>2026-05-03T12:49:26.651Z</time></trkpt><trkpt lat="43.4560767" lon="11.6073333"><ele>246.0</ele><time>2026-05-03T12:49:27.661Z</time></trkpt><trkpt lat="43.4561417" lon="11.60744"><ele>246.0</ele><time>2026-05-03T12:49:28.64Z</time></trkpt><trkpt lat="43.4561933" lon="11.6075483"><ele>246.0</ele><time>2026-05-03T12:49:29.653Z</time></trkpt><trkpt lat="43.45624" lon="11.6076667"><ele>246.00000000000003</ele><time>2026-05-03T12:49:30.66Z</time></trkpt><trkpt lat="43.456275" lon="11.607785"><ele>246.00000000000003</ele><time>2026-05-03T12:49:31.653Z</time></trkpt><trkpt lat="43.4563" lon="11.60791"><ele>246.0</ele><time>2026-05-03T12:49:32.662Z</time></trkpt><trkpt lat="43.4563133" lon="11.6080317"><ele>246.0</ele><time>2026-05-03T12:49:33.659Z</time></trkpt><trkpt lat="43.456315" lon="11.6081533"><ele>242.4</ele><time>2026-05-03T12:49:34.655Z</time></trkpt><trkpt lat="43.4563267" lon="11.60828"><ele>238.8</ele><time>2026-05-03T12:49:35.662Z</time></trkpt><trkpt lat="43.4563617" lon="11.6084067"><ele>235.20000000000002</ele><time>2026-05-03T12:49:36.658Z</time></trkpt><trkpt lat="43.4564183" lon="11.60854"><ele>231.60000000000002</ele><time>2026-05-03T12:49:37.659Z</time></trkpt><trkpt lat="43.4564867" lon="11.6086667"><ele>228.0</ele><time>2026-05-03T12:49:38.656Z</time></trkpt><trkpt lat="43.456555" lon="11.6087933"><ele>227.60000000000002</ele><time>2026-05-03T12:49:39.652Z</time></trkpt><trkpt lat="43.4566267" lon="11.6088933"><ele>227.20000000000002</ele><time>2026-05-03T12:49:40.658Z</time></trkpt><trkpt lat="43.4567033" lon="11.608965"><ele>226.8</ele><time>2026-05-03T12:49:41.653Z</time></trkpt><trkpt lat="43.4567967" lon="11.6090083"><ele>226.4</ele><time>2026-05-03T12:49:42.66Z</time></trkpt><trkpt lat="43.4568983" lon="11.6090167"><ele>226.0</ele><time>2026-05-03T12:49:43.656Z</time></trkpt><trkpt lat="43.45701" lon="11.609005"><ele>225.4</ele><time>2026-05-03T12:49:44.65Z</time></trkpt><trkpt lat="43.4571267" lon="11.6089833"><ele>224.8</ele><time>2026-05-03T12:49:45.654Z</time></trkpt><trkpt lat="43.4572317" lon="11.608975"><ele>224.20000000000002</ele><time>2026-05-03T12:49:46.653Z</time></trkpt><trkpt lat="43.45734" lon="11.6089717"><ele>223.60000000000002</ele><time>2026-05-03T12:49:47.656Z</time></trkpt><trkpt lat="43.457445" lon="11.6089867"><ele>223.0</ele><time>2026-05-03T12:49:48.655Z</time></trkpt><trkpt lat="43.4575483" lon="11.6090233"><ele>223.0</ele><time>2026-05-03T12:49:49.65Z</time></trkpt><trkpt lat="43.4576517" lon="11.6090833"><ele>223.0</ele><time>2026-05-03T12:49:50.644Z</time></trkpt><trkpt lat="43.4577383" lon="11.609155"><ele>223.0</ele><time>2026-05-03T12:49:51.663Z</time></trkpt><trkpt lat="43.4578267" lon="11.609215"><ele>223.0</ele><time>2026-05-03T12:49:52.651Z</time></trkpt><trkpt lat="43.457915" lon="11.6092617"><ele>223.0</ele><time>2026-05-03T12:49:53.659Z</time></trkpt><trkpt lat="43.4579983" lon="11.6092717"><ele>222.8</ele><time>2026-05-03T12:49:54.656Z</time></trkpt><trkpt lat="43.4580817" lon="11.609245"><ele>222.60000000000002</ele><time>2026-05-03T12:49:55.647Z</time></trkpt><trkpt lat="43.4581633" lon="11.6091833"><ele>222.39999999999998</ele><time>2026-05-03T12:49:56.647Z</time></trkpt><trkpt lat="43.458245" lon="11.6090733"><ele>222.2</ele><time>2026-05-03T12:49:57.66Z</time></trkpt><trkpt lat="43.458325" lon="11.6089483"><ele>222.0</ele><time>2026-05-03T12:49:58.657Z</time></trkpt><trkpt lat="43.4584067" lon="11.608815"><ele>222.0</ele><time>2026-05-03T12:49:59.668Z</time></trkpt><trkpt lat="43.4584933" lon="11.60868"><ele>222.0</ele><time>2026-05-03T12:50:00.661Z</time></trkpt><trkpt lat="43.458575" lon="11.6085417"><ele>222.0</ele><time>2026-05-03T12:50:01.655Z</time></trkpt><trkpt lat="43.458655" lon="11.6084033"><ele>222.0</ele><time>2026-05-03T12:50:02.656Z</time></trkpt><trkpt lat="43.45874" lon="11.608265"><ele>223.39999999999998</ele><time>2026-05-03T12:50:03.653Z</time></trkpt><trkpt lat="43.4588217" lon="11.6081383"><ele>224.79999999999998</ele><time>2026-05-03T12:50:04.656Z</time></trkpt><trkpt lat="43.4588983" lon="11.608025"><ele>226.2</ele><time>2026-05-03T12:50:05.656Z</time></trkpt><trkpt lat="43.4589717" lon="11.6079267"><ele>227.6</ele><time>2026-05-03T12:50:06.66Z</time></trkpt><trkpt lat="43.4590517" lon="11.6078717"><ele>229.0</ele><time>2026-05-03T12:50:07.655Z</time></trkpt><trkpt lat="43.459125" lon="11.6078583"><ele>228.99999999999997</ele><time>2026-05-03T12:50:08.665Z</time></trkpt><trkpt lat="43.4591933" lon="11.6078817"><ele>229.0</ele><time>2026-05-03T12:50:09.658Z</time></trkpt><trkpt lat="43.4592533" lon="11.6079417"><ele>229.0</ele><time>2026-05-03T12:50:10.66Z</time></trkpt><trkpt lat="43.459315" lon="11.6080183"><ele>229.0</ele><time>2026-05-03T12:50:11.653Z</time></trkpt><trkpt lat="43.45937" lon="11.6081133"><ele>228.99999999999997</ele><time>2026-05-03T12:50:12.664Z</time></trkpt><trkpt lat="43.4594217" lon="11.6082567"><ele>229.0</ele><time>2026-05-03T12:50:13.652Z</time></trkpt><trkpt lat="43.4594767" lon="11.6083967"><ele>229.0</ele><time>2026-05-03T12:50:14.655Z</time></trkpt><trkpt lat="43.4595383" lon="11.6085133"><ele>228.99999999999997</ele><time>2026-05-03T12:50:15.657Z</time></trkpt><trkpt lat="43.4595883" lon="11.6086383"><ele>228.99999999999997</ele><time>2026-05-03T12:50:16.651Z</time></trkpt><trkpt lat="43.4596517" lon="11.6087533"><ele>229.0</ele><time>2026-05-03T12:50:17.657Z</time></trkpt><trkpt lat="43.4597217" lon="11.6088633"><ele>229.0</ele><time>2026-05-03T12:50:18.657Z</time></trkpt><trkpt lat="43.459805" lon="11.6089517"><ele>230.0</ele><time>2026-05-03T12:50:19.654Z</time></trkpt><trkpt lat="43.4598917" lon="11.6090367"><ele>231.0</ele><time>2026-05-03T12:50:20.664Z</time></trkpt><trkpt lat="43.459985" lon="11.6091317"><ele>232.0</ele><time>2026-05-03T12:50:21.656Z</time></trkpt><trkpt lat="43.4600783" lon="11.6092317"><ele>233.0</ele><time>2026-05-03T12:50:22.661Z</time></trkpt><trkpt lat="43.4601533" lon="11.6093517"><ele>233.0</ele><time>2026-05-03T12:50:23.658Z</time></trkpt><trkpt lat="43.4602217" lon="11.6094733"><ele>233.0</ele><time>2026-05-03T12:50:24.654Z</time></trkpt><trkpt lat="43.4602783" lon="11.6095883"><ele>233.0</ele><time>2026-05-03T12:50:25.667Z</time></trkpt><trkpt lat="43.46035" lon="11.6096933"><ele>233.0</ele><time>2026-05-03T12:50:26.646Z</time></trkpt><trkpt lat="43.4604233" lon="11.6098033"><ele>233.0</ele><time>2026-05-03T12:50:27.65Z</time></trkpt><trkpt lat="43.46051" lon="11.6099"><ele>233.0</ele><time>2026-05-03T12:50:28.651Z</time></trkpt><trkpt lat="43.4606067" lon="11.6099817"><ele>233.0</ele><time>2026-05-03T12:50:29.654Z</time></trkpt><trkpt lat="43.4607117" lon="11.6100383"><ele>233.0</ele><time>2026-05-03T12:50:30.654Z</time></trkpt><trkpt lat="43.460825" lon="11.61007"><ele>233.0</ele><time>2026-05-03T12:50:31.668Z</time></trkpt><trkpt lat="43.460925" lon="11.6101233"><ele>233.0</ele><time>2026-05-03T12:50:32.671Z</time></trkpt><trkpt lat="43.46101" lon="11.6101967"><ele>233.0</ele><time>2026-05-03T12:50:33.666Z</time></trkpt><trkpt lat="43.46109" lon="11.6102983"><ele>233.0</ele><time>2026-05-03T12:50:34.671Z</time></trkpt><trkpt lat="43.46116" lon="11.61041"><ele>233.0</ele><time>2026-05-03T12:50:35.654Z</time></trkpt><trkpt lat="43.4612217" lon="11.6105317"><ele>233.0</ele><time>2026-05-03T12:50:36.653Z</time></trkpt><trkpt lat="43.461265" lon="11.6106767"><ele>233.0</ele><time>2026-05-03T12:50:37.657Z</time></trkpt><trkpt lat="43.46131" lon="11.6108283"><ele>232.5</ele><time>2026-05-03T12:50:38.653Z</time></trkpt><trkpt lat="43.4613617" lon="11.6109917"><ele>232.0</ele><time>2026-05-03T12:50:39.651Z</time></trkpt><trkpt lat="43.4614067" lon="11.6111667"><ele>231.5</ele><time>2026-05-03T12:50:40.656Z</time></trkpt><trkpt lat="43.461465" lon="11.611335"><ele>231.0</ele><time>2026-05-03T12:50:41.657Z</time></trkpt><trkpt lat="43.4615083" lon="11.6115033"><ele>229.25</ele><time>2026-05-03T12:50:42.653Z</time></trkpt><trkpt lat="43.461555" lon="11.6116533"><ele>227.5</ele><time>2026-05-03T12:50:43.634Z</time></trkpt><trkpt lat="43.461615" lon="11.611785"><ele>225.75</ele><time>2026-05-03T12:50:44.664Z</time></trkpt><trkpt lat="43.4616817" lon="11.611905"><ele>224.0</ele><time>2026-05-03T12:50:45.665Z</time></trkpt><trkpt lat="43.4617717" lon="11.612005"><ele>223.75</ele><time>2026-05-03T12:50:46.666Z</time></trkpt><trkpt lat="43.4618817" lon="11.6120717"><ele>223.5</ele><time>2026-05-03T12:50:47.661Z</time></trkpt><trkpt lat="43.461995" lon="11.6121317"><ele>223.25</ele><time>2026-05-03T12:50:48.675Z</time></trkpt><trkpt lat="43.4621117" lon="11.612175"><ele>223.0</ele><time>2026-05-03T12:50:49.662Z</time></trkpt><trkpt lat="43.4622367" lon="11.6122283"><ele>223.0</ele><time>2026-05-03T12:50:50.641Z</time></trkpt><trkpt lat="43.4623467" lon="11.61228"><ele>223.0</ele><time>2026-05-03T12:50:51.668Z</time></trkpt><trkpt lat="43.462445" lon="11.6123617"><ele>223.0</ele><time>2026-05-03T12:50:52.663Z</time></trkpt><trkpt lat="43.4625267" lon="11.6124767"><ele>223.0</ele><time>2026-05-03T12:50:53.647Z</time></trkpt><trkpt lat="43.4625967" lon="11.6126"><ele>223.0</ele><time>2026-05-03T12:50:54.663Z</time></trkpt><trkpt lat="43.46266" lon="11.6127217"><ele>223.0</ele><time>2026-05-03T12:50:55.662Z</time></trkpt><trkpt lat="43.4627267" lon="11.6128383"><ele>223.0</ele><time>2026-05-03T12:50:56.663Z</time></trkpt><trkpt lat="43.4627917" lon="11.61295"><ele>223.0</ele><time>2026-05-03T12:50:57.645Z</time></trkpt><trkpt lat="43.462855" lon="11.6130467"><ele>223.0</ele><time>2026-05-03T12:50:58.653Z</time></trkpt><trkpt lat="43.46292" lon="11.6131333"><ele>223.33333333333331</ele><time>2026-05-03T12:50:59.662Z</time></trkpt><trkpt lat="43.4629683" lon="11.6132017"><ele>223.66666666666666</ele><time>2026-05-03T12:51:00.657Z</time></trkpt><trkpt lat="43.4630133" lon="11.6132783"><ele>224.0</ele><time>2026-05-03T12:51:02.66Z</time></trkpt><trkpt lat="43.4630683" lon="11.6133383"><ele>224.33333333333331</ele><time>2026-05-03T12:51:08.663Z</time></trkpt><trkpt lat="43.4631833" lon="11.6133433"><ele>224.66666666666666</ele><time>2026-05-03T12:51:10.691Z</time></trkpt><trkpt lat="43.4632667" lon="11.6133217"><ele>225.0</ele><time>2026-05-03T12:51:11.662Z</time></trkpt><trkpt lat="43.4633567" lon="11.6132967"><ele>225.0</ele><time>2026-05-03T12:51:12.66Z</time></trkpt><trkpt lat="43.4634617" lon="11.6132733"><ele>225.0</ele><time>2026-05-03T12:51:13.67Z</time></trkpt><trkpt lat="43.4635733" lon="11.613245"><ele>225.0</ele><time>2026-05-03T12:51:14.659Z</time></trkpt><trkpt lat="43.4636917" lon="11.6132133"><ele>225.0</ele><time>2026-05-03T12:51:15.663Z</time></trkpt><trkpt lat="43.4638183" lon="11.613185"><ele>226.25</ele><time>2026-05-03T12:51:16.649Z</time></trkpt><trkpt lat="43.463955" lon="11.6131467"><ele>227.5</ele><time>2026-05-03T12:51:17.652Z</time></trkpt><trkpt lat="43.4640967" lon="11.61311"><ele>228.75</ele><time>2026-05-03T12:51:18.639Z</time></trkpt><trkpt lat="43.4642417" lon="11.6130733"><ele>230.0</ele><time>2026-05-03T12:51:19.65Z</time></trkpt><trkpt lat="43.4643883" lon="11.6130383"><ele>230.0</ele><time>2026-05-03T12:51:20.642Z</time></trkpt><trkpt lat="43.464535" lon="11.612995"><ele>230.0</ele><time>2026-05-03T12:51:21.646Z</time></trkpt><trkpt lat="43.4646883" lon="11.61295"><ele>230.0</ele><time>2026-05-03T12:51:22.651Z</time></trkpt><trkpt lat="43.4648517" lon="11.61291"><ele>231.66666666666669</ele><time>2026-05-03T12:51:23.648Z</time></trkpt><trkpt lat="43.4650117" lon="11.6128733"><ele>233.33333333333331</ele><time>2026-05-03T12:51:24.66Z</time></trkpt><trkpt lat="43.4651817" lon="11.6128333"><ele>235.0</ele><time>2026-05-03T12:51:25.661Z</time></trkpt><trkpt lat="43.465355" lon="11.6127817"><ele>235.0</ele><time>2026-05-03T12:51:26.643Z</time></trkpt><trkpt lat="43.4655333" lon="11.61273"><ele>235.0</ele><time>2026-05-03T12:51:27.661Z</time></trkpt><trkpt lat="43.4657167" lon="11.6126917"><ele>235.0</ele><time>2026-05-03T12:51:28.655Z</time></trkpt><trkpt lat="43.4659133" lon="11.6126417"><ele>235.0</ele><time>2026-05-03T12:51:29.655Z</time></trkpt><trkpt lat="43.4661117" lon="11.6125883"><ele>235.0</ele><time>2026-05-03T12:51:30.652Z</time></trkpt><trkpt lat="43.4663" lon="11.6125367"><ele>235.0</ele><time>2026-05-03T12:51:31.653Z</time></trkpt><trkpt lat="43.4664883" lon="11.6124933"><ele>234.33333333333331</ele><time>2026-05-03T12:51:32.662Z</time></trkpt><trkpt lat="43.4666667" lon="11.6124567"><ele>233.66666666666669</ele><time>2026-05-03T12:51:33.647Z</time></trkpt><trkpt lat="43.4668467" lon="11.61243"><ele>233.0</ele><time>2026-05-03T12:51:34.658Z</time></trkpt><trkpt lat="43.4670317" lon="11.6124283"><ele>233.33333333333334</ele><time>2026-05-03T12:51:35.657Z</time></trkpt><trkpt lat="43.4672167" lon="11.6124417"><ele>233.66666666666669</ele><time>2026-05-03T12:51:36.664Z</time></trkpt><trkpt lat="43.4674017" lon="11.61248"><ele>234.0</ele><time>2026-05-03T12:51:37.665Z</time></trkpt><trkpt lat="43.4675717" lon="11.6125467"><ele>234.0</ele><time>2026-05-03T12:51:38.655Z</time></trkpt><trkpt lat="43.46772" lon="11.612625"><ele>234.0</ele><time>2026-05-03T12:51:39.663Z</time></trkpt><trkpt lat="43.4678583" lon="11.61272"><ele>234.0</ele><time>2026-05-03T12:51:40.648Z</time></trkpt><trkpt lat="43.4679817" lon="11.6128267"><ele>234.0</ele><time>2026-05-03T12:51:41.647Z</time></trkpt><trkpt lat="43.46811" lon="11.6129517"><ele>234.0</ele><time>2026-05-03T12:51:42.653Z</time></trkpt><trkpt lat="43.46824" lon="11.61308"><ele>234.0</ele><time>2026-05-03T12:51:43.645Z</time></trkpt><trkpt lat="43.4683733" lon="11.61321"><ele>234.0</ele><time>2026-05-03T12:51:44.639Z</time></trkpt><trkpt lat="43.4685083" lon="11.6133367"><ele>234.0</ele><time>2026-05-03T12:51:45.649Z</time></trkpt><trkpt lat="43.46864" lon="11.6134733"><ele>234.0</ele><time>2026-05-03T12:51:46.652Z</time></trkpt><trkpt lat="43.4687733" lon="11.6136133"><ele>236.0</ele><time>2026-05-03T12:51:47.653Z</time></trkpt><trkpt lat="43.4689083" lon="11.6137567"><ele>238.0</ele><time>2026-05-03T12:51:48.656Z</time></trkpt><trkpt lat="43.4690467" lon="11.6138967"><ele>240.0</ele><time>2026-05-03T12:51:49.66Z</time></trkpt><trkpt lat="43.4691867" lon="11.6140517"><ele>240.0</ele><time>2026-05-03T12:51:50.657Z</time></trkpt><trkpt lat="43.4693333" lon="11.6142"><ele>240.0</ele><time>2026-05-03T12:51:51.655Z</time></trkpt><trkpt lat="43.469475" lon="11.614355"><ele>240.0</ele><time>2026-05-03T12:51:52.654Z</time></trkpt><trkpt lat="43.4696167" lon="11.6145067"><ele>241.0</ele><time>2026-05-03T12:51:53.654Z</time></trkpt><trkpt lat="43.4697633" lon="11.61466"><ele>242.0</ele><time>2026-05-03T12:51:54.677Z</time></trkpt><trkpt lat="43.469915" lon="11.6147867"><ele>243.0</ele><time>2026-05-03T12:51:55.646Z</time></trkpt><trkpt lat="43.4700733" lon="11.6148867"><ele>243.0</ele><time>2026-05-03T12:51:56.65Z</time></trkpt><trkpt lat="43.47024" lon="11.614955"><ele>243.0</ele><time>2026-05-03T12:51:57.658Z</time></trkpt><trkpt lat="43.470415" lon="11.614995"><ele>243.0</ele><time>2026-05-03T12:51:58.65Z</time></trkpt><trkpt lat="43.470575" lon="11.6150167"><ele>244.66666666666669</ele><time>2026-05-03T12:51:59.65Z</time></trkpt><trkpt lat="43.4707333" lon="11.6150167"><ele>246.33333333333334</ele><time>2026-05-03T12:52:00.648Z</time></trkpt><trkpt lat="43.4709" lon="11.61499"><ele>248.0</ele><time>2026-05-03T12:52:01.649Z</time></trkpt><trkpt lat="43.4710667" lon="11.6149717"><ele>248.0</ele><time>2026-05-03T12:52:02.659Z</time></trkpt><trkpt lat="43.4712333" lon="11.6149767"><ele>248.0</ele><time>2026-05-03T12:52:03.648Z</time></trkpt><trkpt lat="43.4713917" lon="11.615"><ele>248.0</ele><time>2026-05-03T12:52:04.654Z</time></trkpt><trkpt lat="43.4715417" lon="11.6150433"><ele>249.33333333333334</ele><time>2026-05-03T12:52:05.675Z</time></trkpt><trkpt lat="43.47168" lon="11.615115"><ele>250.66666666666669</ele><time>2026-05-03T12:52:06.652Z</time></trkpt><trkpt lat="43.4718117" lon="11.6152167"><ele>252.0</ele><time>2026-05-03T12:52:07.647Z</time></trkpt><trkpt lat="43.47195" lon="11.6153267"><ele>252.33333333333331</ele><time>2026-05-03T12:52:08.664Z</time></trkpt><trkpt lat="43.4720883" lon="11.6154367"><ele>252.66666666666666</ele><time>2026-05-03T12:52:09.677Z</time></trkpt><trkpt lat="43.47222" lon="11.615555"><ele>253.0</ele><time>2026-05-03T12:52:10.658Z</time></trkpt><trkpt lat="43.4723617" lon="11.6156617"><ele>252.33333333333331</ele><time>2026-05-03T12:52:11.655Z</time></trkpt><trkpt lat="43.472505" lon="11.61577"><ele>251.66666666666669</ele><time>2026-05-03T12:52:12.669Z</time></trkpt><trkpt lat="43.4726617" lon="11.61587"><ele>251.0</ele><time>2026-05-03T12:52:13.667Z</time></trkpt><trkpt lat="43.47281" lon="11.6159633"><ele>250.0</ele><time>2026-05-03T12:52:14.663Z</time></trkpt><trkpt lat="43.4729617" lon="11.6160583"><ele>249.0</ele><time>2026-05-03T12:52:15.661Z</time></trkpt><trkpt lat="43.4731067" lon="11.6161467"><ele>248.0</ele><time>2026-05-03T12:52:16.664Z</time></trkpt><trkpt lat="43.473245" lon="11.616235"><ele>248.0</ele><time>2026-05-03T12:52:17.665Z</time></trkpt><trkpt lat="43.473385" lon="11.61631"><ele>248.0</ele><time>2026-05-03T12:52:18.655Z</time></trkpt><trkpt lat="43.4735233" lon="11.6163867"><ele>248.0</ele><time>2026-05-03T12:52:19.657Z</time></trkpt><trkpt lat="43.4736617" lon="11.61647"><ele>246.33333333333334</ele><time>2026-05-03T12:52:20.652Z</time></trkpt><trkpt lat="43.4738033" lon="11.6165667"><ele>244.66666666666669</ele><time>2026-05-03T12:52:21.653Z</time></trkpt><trkpt lat="43.473955" lon="11.6166567"><ele>243.0</ele><time>2026-05-03T12:52:22.649Z</time></trkpt><trkpt lat="43.47411" lon="11.6167517"><ele>243.0</ele><time>2026-05-03T12:52:23.653Z</time></trkpt><trkpt lat="43.4742683" lon="11.6168533"><ele>243.0</ele><time>2026-05-03T12:52:24.654Z</time></trkpt><trkpt lat="43.4744333" lon="11.616945"><ele>243.0</ele><time>2026-05-03T12:52:25.657Z</time></trkpt><trkpt lat="43.4745817" lon="11.617035"><ele>241.66666666666669</ele><time>2026-05-03T12:52:26.656Z</time></trkpt><trkpt lat="43.4747367" lon="11.617125"><ele>240.33333333333334</ele><time>2026-05-03T12:52:27.655Z</time></trkpt><trkpt lat="43.4748817" lon="11.6172017"><ele>239.0</ele><time>2026-05-03T12:52:28.66Z</time></trkpt><trkpt lat="43.47502" lon="11.617285"><ele>239.0</ele><time>2026-05-03T12:52:29.649Z</time></trkpt><trkpt lat="43.4751533" lon="11.6173683"><ele>239.0</ele><time>2026-05-03T12:52:30.655Z</time></trkpt><trkpt lat="43.475285" lon="11.617445"><ele>239.0</ele><time>2026-05-03T12:52:31.652Z</time></trkpt><trkpt lat="43.4754117" lon="11.61753"><ele>239.0</ele><time>2026-05-03T12:52:32.651Z</time></trkpt><trkpt lat="43.4755367" lon="11.6176067"><ele>240.0</ele><time>2026-05-03T12:52:33.655Z</time></trkpt><trkpt lat="43.4756567" lon="11.61768"><ele>241.0</ele><time>2026-05-03T12:52:34.647Z</time></trkpt><trkpt lat="43.4757667" lon="11.61776"><ele>242.0</ele><time>2026-05-03T12:52:35.679Z</time></trkpt><trkpt lat="43.4758933" lon="11.61784"><ele>243.0</ele><time>2026-05-03T12:52:36.658Z</time></trkpt><trkpt lat="43.4760167" lon="11.6179217"><ele>240.25</ele><time>2026-05-03T12:52:37.657Z</time></trkpt><trkpt lat="43.47615" lon="11.6180017"><ele>237.5</ele><time>2026-05-03T12:52:38.654Z</time></trkpt><trkpt lat="43.47629" lon="11.6180817"><ele>234.75</ele><time>2026-05-03T12:52:39.659Z</time></trkpt><trkpt lat="43.4764283" lon="11.61817"><ele>232.0</ele><time>2026-05-03T12:52:40.657Z</time></trkpt><trkpt lat="43.4765667" lon="11.61826"><ele>231.75</ele><time>2026-05-03T12:52:41.655Z</time></trkpt><trkpt lat="43.4766933" lon="11.6183567"><ele>231.5</ele><time>2026-05-03T12:52:42.636Z</time></trkpt><trkpt lat="43.47681" lon="11.6184883"><ele>231.25</ele><time>2026-05-03T12:52:43.651Z</time></trkpt><trkpt lat="43.4769183" lon="11.61863"><ele>231.0</ele><time>2026-05-03T12:52:44.667Z</time></trkpt><trkpt lat="43.4770183" lon="11.618795"><ele>231.66666666666669</ele><time>2026-05-03T12:52:45.651Z</time></trkpt><trkpt lat="43.47711" lon="11.6189867"><ele>232.33333333333334</ele><time>2026-05-03T12:52:46.655Z</time></trkpt><trkpt lat="43.4771917" lon="11.6191983"><ele>233.0</ele><time>2026-05-03T12:52:47.655Z</time></trkpt><trkpt lat="43.4772583" lon="11.61942"><ele>231.0</ele><time>2026-05-03T12:52:48.65Z</time></trkpt><trkpt lat="43.4773133" lon="11.619625"><ele>229.0</ele><time>2026-05-03T12:52:49.657Z</time></trkpt><trkpt lat="43.4773667" lon="11.6198383"><ele>227.0</ele><time>2026-05-03T12:52:50.655Z</time></trkpt><trkpt lat="43.4774217" lon="11.620045"><ele>227.0</ele><time>2026-05-03T12:52:51.651Z</time></trkpt><trkpt lat="43.4774783" lon="11.6202417"><ele>227.0</ele><time>2026-05-03T12:52:52.661Z</time></trkpt><trkpt lat="43.4775333" lon="11.6204267"><ele>227.0</ele><time>2026-05-03T12:52:53.651Z</time></trkpt><trkpt lat="43.47758" lon="11.6206167"><ele>227.0</ele><time>2026-05-03T12:52:54.66Z</time></trkpt><trkpt lat="43.4776217" lon="11.6208"><ele>226.0</ele><time>2026-05-03T12:52:55.657Z</time></trkpt><trkpt lat="43.4776667" lon="11.6209733"><ele>225.0</ele><time>2026-05-03T12:52:56.655Z</time></trkpt><trkpt lat="43.47771" lon="11.6211567"><ele>224.0</ele><time>2026-05-03T12:52:57.65Z</time></trkpt><trkpt lat="43.4777617" lon="11.6213233"><ele>223.0</ele><time>2026-05-03T12:52:58.65Z</time></trkpt><trkpt lat="43.47781" lon="11.6214917"><ele>222.25</ele><time>2026-05-03T12:52:59.657Z</time></trkpt><trkpt lat="43.477865" lon="11.62166"><ele>221.5</ele><time>2026-05-03T12:53:00.656Z</time></trkpt><trkpt lat="43.47793" lon="11.6218167"><ele>220.75</ele><time>2026-05-03T12:53:01.651Z</time></trkpt><trkpt lat="43.4780067" lon="11.6219583"><ele>220.0</ele><time>2026-05-03T12:53:02.657Z</time></trkpt><trkpt lat="43.4780933" lon="11.6220817"><ele>216.75</ele><time>2026-05-03T12:53:03.655Z</time></trkpt><trkpt lat="43.4781933" lon="11.6221883"><ele>213.5</ele><time>2026-05-03T12:53:04.669Z</time></trkpt><trkpt lat="43.47831" lon="11.6222683"><ele>210.25</ele><time>2026-05-03T12:53:05.66Z</time></trkpt><trkpt lat="43.4784433" lon="11.6223033"><ele>207.0</ele><time>2026-05-03T12:53:06.662Z</time></trkpt><trkpt lat="43.4785833" lon="11.6223117"><ele>207.0</ele><time>2026-05-03T12:53:07.665Z</time></trkpt><trkpt lat="43.47873" lon="11.6223033"><ele>207.0</ele><time>2026-05-03T12:53:08.659Z</time></trkpt><trkpt lat="43.478875" lon="11.622295"><ele>207.0</ele><time>2026-05-03T12:53:09.661Z</time></trkpt><trkpt lat="43.4790183" lon="11.622265"><ele>207.0</ele><time>2026-05-03T12:53:10.644Z</time></trkpt><trkpt lat="43.4791517" lon="11.622215"><ele>207.25</ele><time>2026-05-03T12:53:11.651Z</time></trkpt><trkpt lat="43.479285" lon="11.6221467"><ele>207.5</ele><time>2026-05-03T12:53:12.657Z</time></trkpt><trkpt lat="43.4794217" lon="11.6220533"><ele>207.75</ele><time>2026-05-03T12:53:13.653Z</time></trkpt><trkpt lat="43.479555" lon="11.6219583"><ele>208.0</ele><time>2026-05-03T12:53:14.653Z</time></trkpt><trkpt lat="43.47969" lon="11.621855"><ele>205.0</ele><time>2026-05-03T12:53:15.668Z</time></trkpt><trkpt lat="43.4798233" lon="11.6217433"><ele>202.0</ele><time>2026-05-03T12:53:16.654Z</time></trkpt><trkpt lat="43.4799533" lon="11.6216233"><ele>199.0</ele><time>2026-05-03T12:53:17.675Z</time></trkpt><trkpt lat="43.4800717" lon="11.6215067"><ele>199.0</ele><time>2026-05-03T12:53:18.677Z</time></trkpt><trkpt lat="43.4801883" lon="11.6213933"><ele>199.0</ele><time>2026-05-03T12:53:19.667Z</time></trkpt><trkpt lat="43.4803033" lon="11.6212817"><ele>199.0</ele><time>2026-05-03T12:53:20.675Z</time></trkpt><trkpt lat="43.48042" lon="11.62117"><ele>199.0</ele><time>2026-05-03T12:53:21.672Z</time></trkpt><trkpt lat="43.4805283" lon="11.6210633"><ele>197.25</ele><time>2026-05-03T12:53:22.661Z</time></trkpt><trkpt lat="43.480645" lon="11.6209583"><ele>195.5</ele><time>2026-05-03T12:53:23.655Z</time></trkpt><trkpt lat="43.480765" lon="11.6208583"><ele>193.75</ele><time>2026-05-03T12:53:24.651Z</time></trkpt><trkpt lat="43.4808833" lon="11.62076"><ele>192.0</ele><time>2026-05-03T12:53:25.649Z</time></trkpt><trkpt lat="43.48099" lon="11.6206633"><ele>192.0</ele><time>2026-05-03T12:53:26.658Z</time></trkpt><trkpt lat="43.4810933" lon="11.6205667"><ele>192.0</ele><time>2026-05-03T12:53:27.658Z</time></trkpt><trkpt lat="43.4811883" lon="11.6204267"><ele>192.0</ele><time>2026-05-03T12:53:28.657Z</time></trkpt><trkpt lat="43.4812633" lon="11.6202467"><ele>192.0</ele><time>2026-05-03T12:53:29.654Z</time></trkpt><trkpt lat="43.4813033" lon="11.6200583"><ele>190.75</ele><time>2026-05-03T12:53:30.663Z</time></trkpt><trkpt lat="43.4813433" lon="11.6198633"><ele>189.5</ele><time>2026-05-03T12:53:31.657Z</time></trkpt><trkpt lat="43.4813917" lon="11.6196683"><ele>188.25</ele><time>2026-05-03T12:53:32.656Z</time></trkpt><trkpt lat="43.4814483" lon="11.61948"><ele>187.0</ele><time>2026-05-03T12:53:33.655Z</time></trkpt><trkpt lat="43.481535" lon="11.6193133"><ele>187.0</ele><time>2026-05-03T12:53:34.655Z</time></trkpt><trkpt lat="43.481635" lon="11.6191633"><ele>187.0</ele><time>2026-05-03T12:53:35.649Z</time></trkpt><trkpt lat="43.4817467" lon="11.61903"><ele>187.0</ele><time>2026-05-03T12:53:36.662Z</time></trkpt><trkpt lat="43.4818633" lon="11.618925"><ele>187.0</ele><time>2026-05-03T12:53:37.664Z</time></trkpt><trkpt lat="43.482" lon="11.6188333"><ele>186.0</ele><time>2026-05-03T12:53:38.68Z</time></trkpt><trkpt lat="43.4821383" lon="11.6187433"><ele>185.0</ele><time>2026-05-03T12:53:39.658Z</time></trkpt><trkpt lat="43.4822733" lon="11.61866"><ele>184.0</ele><time>2026-05-03T12:53:40.671Z</time></trkpt><trkpt lat="43.4824133" lon="11.618565"><ele>184.0</ele><time>2026-05-03T12:53:41.666Z</time></trkpt><trkpt lat="43.482555" lon="11.6184883"><ele>184.0</ele><time>2026-05-03T12:53:42.662Z</time></trkpt><trkpt lat="43.4826933" lon="11.6184217"><ele>184.0</ele><time>2026-05-03T12:53:43.642Z</time></trkpt><trkpt lat="43.4828283" lon="11.6184"><ele>184.0</ele><time>2026-05-03T12:53:44.641Z</time></trkpt><trkpt lat="43.4829617" lon="11.6184017"><ele>183.0</ele><time>2026-05-03T12:53:45.659Z</time></trkpt><trkpt lat="43.4831" lon="11.6184433"><ele>182.0</ele><time>2026-05-03T12:53:46.663Z</time></trkpt><trkpt lat="43.4832233" lon="11.618515"><ele>181.0</ele><time>2026-05-03T12:53:47.655Z</time></trkpt><trkpt lat="43.483335" lon="11.6186167"><ele>180.0</ele><time>2026-05-03T12:53:48.65Z</time></trkpt><trkpt lat="43.4834417" lon="11.6187433"><ele>178.25</ele><time>2026-05-03T12:53:49.663Z</time></trkpt><trkpt lat="43.4835483" lon="11.6188767"><ele>176.5</ele><time>2026-05-03T12:53:50.652Z</time></trkpt><trkpt lat="43.4836617" lon="11.6190083"><ele>174.75</ele><time>2026-05-03T12:53:51.663Z</time></trkpt><trkpt lat="43.4837767" lon="11.6191483"><ele>173.0</ele><time>2026-05-03T12:53:52.65Z</time></trkpt><trkpt lat="43.48389" lon="11.61929"><ele>173.0</ele><time>2026-05-03T12:53:53.642Z</time></trkpt><trkpt lat="43.4840117" lon="11.61944"><ele>173.0</ele><time>2026-05-03T12:53:54.656Z</time></trkpt><trkpt lat="43.4841333" lon="11.6195833"><ele>173.0</ele><time>2026-05-03T12:53:55.653Z</time></trkpt><trkpt lat="43.484255" lon="11.61973"><ele>173.0</ele><time>2026-05-03T12:53:56.655Z</time></trkpt><trkpt lat="43.484375" lon="11.6198817"><ele>173.0</ele><time>2026-05-03T12:53:57.652Z</time></trkpt><trkpt lat="43.4844867" lon="11.6200383"><ele>173.0</ele><time>2026-05-03T12:53:58.65Z</time></trkpt><trkpt lat="43.4846183" lon="11.6201767"><ele>174.0</ele><time>2026-05-03T12:53:59.647Z</time></trkpt><trkpt lat="43.48474" lon="11.6203317"><ele>175.0</ele><time>2026-05-03T12:54:00.65Z</time></trkpt><trkpt lat="43.4848583" lon="11.6204917"><ele>176.0</ele><time>2026-05-03T12:54:01.648Z</time></trkpt><trkpt lat="43.4849833" lon="11.62065"><ele>176.0</ele><time>2026-05-03T12:54:02.649Z</time></trkpt><trkpt lat="43.4851033" lon="11.6208067"><ele>176.0</ele><time>2026-05-03T12:54:03.657Z</time></trkpt><trkpt lat="43.48522" lon="11.6209617"><ele>176.0</ele><time>2026-05-03T12:54:04.661Z</time></trkpt><trkpt lat="43.48534" lon="11.62111"><ele>176.66666666666666</ele><time>2026-05-03T12:54:05.668Z</time></trkpt><trkpt lat="43.4854583" lon="11.62126"><ele>177.33333333333334</ele><time>2026-05-03T12:54:06.672Z</time></trkpt><trkpt lat="43.4855717" lon="11.6214183"><ele>178.0</ele><time>2026-05-03T12:54:07.681Z</time></trkpt><trkpt lat="43.485685" lon="11.621565"><ele>178.0</ele><time>2026-05-03T12:54:08.713Z</time></trkpt><trkpt lat="43.4858033" lon="11.621705"><ele>178.0</ele><time>2026-05-03T12:54:09.707Z</time></trkpt><trkpt lat="43.4859333" lon="11.6218117"><ele>178.0</ele><time>2026-05-03T12:54:10.699Z</time></trkpt><trkpt lat="43.48608" lon="11.621895"><ele>178.0</ele><time>2026-05-03T12:54:11.691Z</time></trkpt><trkpt lat="43.4862383" lon="11.6219583"><ele>178.0</ele><time>2026-05-03T12:54:12.69Z</time></trkpt><trkpt lat="43.4863983" lon="11.6220183"><ele>178.0</ele><time>2026-05-03T12:54:13.676Z</time></trkpt><trkpt lat="43.48656" lon="11.622075"><ele>182.66666666666669</ele><time>2026-05-03T12:54:14.686Z</time></trkpt><trkpt lat="43.48672" lon="11.6221283"><ele>187.33333333333334</ele><time>2026-05-03T12:54:15.687Z</time></trkpt><trkpt lat="43.486875" lon="11.6221833"><ele>192.0</ele><time>2026-05-03T12:54:16.681Z</time></trkpt><trkpt lat="43.48703" lon="11.622245"><ele>190.66666666666666</ele><time>2026-05-03T12:54:17.668Z</time></trkpt><trkpt lat="43.4871817" lon="11.6222983"><ele>189.33333333333331</ele><time>2026-05-03T12:54:18.665Z</time></trkpt><trkpt lat="43.4873333" lon="11.62235"><ele>188.0</ele><time>2026-05-03T12:54:19.7Z</time></trkpt><trkpt lat="43.48749" lon="11.6223817"><ele>188.0</ele><time>2026-05-03T12:54:20.681Z</time></trkpt><trkpt lat="43.4876483" lon="11.6223683"><ele>188.0</ele><time>2026-05-03T12:54:21.684Z</time></trkpt><trkpt lat="43.4878083" lon="11.622305"><ele>188.0</ele><time>2026-05-03T12:54:22.674Z</time></trkpt><trkpt lat="43.4879717" lon="11.622215"><ele>190.33333333333331</ele><time>2026-05-03T12:54:23.666Z</time></trkpt><trkpt lat="43.4881367" lon="11.6221183"><ele>192.66666666666666</ele><time>2026-05-03T12:54:24.656Z</time></trkpt><trkpt lat="43.4883083" lon="11.62202"><ele>195.0</ele><time>2026-05-03T12:54:25.684Z</time></trkpt><trkpt lat="43.4884817" lon="11.6219217"><ele>192.0</ele><time>2026-05-03T12:54:26.696Z</time></trkpt><trkpt lat="43.4886433" lon="11.6218333"><ele>189.0</ele><time>2026-05-03T12:54:27.688Z</time></trkpt><trkpt lat="43.4887917" lon="11.621755"><ele>186.0</ele><time>2026-05-03T12:54:28.705Z</time></trkpt><trkpt lat="43.4889267" lon="11.6216567"><ele>186.0</ele><time>2026-05-03T12:54:29.675Z</time></trkpt><trkpt lat="43.4890633" lon="11.6215567"><ele>186.0</ele><time>2026-05-03T12:54:30.683Z</time></trkpt><trkpt lat="43.4891767" lon="11.6214367"><ele>186.0</ele><time>2026-05-03T12:54:31.688Z</time></trkpt><trkpt lat="43.48928" lon="11.621295"><ele>186.0</ele><time>2026-05-03T12:54:32.662Z</time></trkpt><trkpt lat="43.4893617" lon="11.6211433"><ele>183.0</ele><time>2026-05-03T12:54:33.671Z</time></trkpt><trkpt lat="43.4894133" lon="11.62097"><ele>180.0</ele><time>2026-05-03T12:54:34.669Z</time></trkpt><trkpt lat="43.4894433" lon="11.6207833"><ele>177.0</ele><time>2026-05-03T12:54:35.664Z</time></trkpt><trkpt lat="43.489455" lon="11.6205767"><ele>174.0</ele><time>2026-05-03T12:54:36.665Z</time></trkpt><trkpt lat="43.4894567" lon="11.620355"><ele>172.66666666666666</ele><time>2026-05-03T12:54:37.667Z</time></trkpt><trkpt lat="43.48946" lon="11.6201317"><ele>171.33333333333331</ele><time>2026-05-03T12:54:38.669Z</time></trkpt><trkpt lat="43.4894567" lon="11.6199167"><ele>170.0</ele><time>2026-05-03T12:54:39.665Z</time></trkpt><trkpt lat="43.4894483" lon="11.6196967"><ele>169.5</ele><time>2026-05-03T12:54:40.656Z</time></trkpt><trkpt lat="43.4894417" lon="11.6194817"><ele>169.0</ele><time>2026-05-03T12:54:41.665Z</time></trkpt><trkpt lat="43.48944" lon="11.61928"><ele>168.5</ele><time>2026-05-03T12:54:42.658Z</time></trkpt><trkpt lat="43.4894417" lon="11.6191"><ele>168.0</ele><time>2026-05-03T12:54:43.654Z</time></trkpt><trkpt lat="43.48945" lon="11.618935"><ele>168.0</ele><time>2026-05-03T12:54:44.661Z</time></trkpt><trkpt lat="43.4894783" lon="11.6187833"><ele>168.0</ele><time>2026-05-03T12:54:45.66Z</time></trkpt><trkpt lat="43.48953" lon="11.6186433"><ele>168.0</ele><time>2026-05-03T12:54:46.668Z</time></trkpt><trkpt lat="43.4896017" lon="11.6185217"><ele>168.0</ele><time>2026-05-03T12:54:47.675Z</time></trkpt><trkpt lat="43.4897033" lon="11.6184317"><ele>167.75</ele><time>2026-05-03T12:54:48.651Z</time></trkpt><trkpt lat="43.489825" lon="11.6183583"><ele>167.5</ele><time>2026-05-03T12:54:49.652Z</time></trkpt><trkpt lat="43.4899567" lon="11.6183083"><ele>167.25</ele><time>2026-05-03T12:54:50.657Z</time></trkpt><trkpt lat="43.490095" lon="11.618275"><ele>167.0</ele><time>2026-05-03T12:54:51.655Z</time></trkpt><trkpt lat="43.49024" lon="11.6182617"><ele>167.0</ele><time>2026-05-03T12:54:52.651Z</time></trkpt><trkpt lat="43.4903883" lon="11.6182717"><ele>167.0</ele><time>2026-05-03T12:54:53.666Z</time></trkpt><trkpt lat="43.4905333" lon="11.6183017"><ele>167.0</ele><time>2026-05-03T12:54:54.652Z</time></trkpt><trkpt lat="43.49068" lon="11.6183483"><ele>167.0</ele><time>2026-05-03T12:54:55.655Z</time></trkpt><trkpt lat="43.490825" lon="11.6184217"><ele>166.75</ele><time>2026-05-03T12:54:56.663Z</time></trkpt><trkpt lat="43.4909667" lon="11.6184883"><ele>166.5</ele><time>2026-05-03T12:54:57.656Z</time></trkpt><trkpt lat="43.4911083" lon="11.618535"><ele>166.25</ele><time>2026-05-03T12:54:58.663Z</time></trkpt><trkpt lat="43.4912533" lon="11.618545"><ele>166.0</ele><time>2026-05-03T12:54:59.682Z</time></trkpt><trkpt lat="43.4913917" lon="11.61854"><ele>166.0</ele><time>2026-05-03T12:55:00.66Z</time></trkpt><trkpt lat="43.49154" lon="11.6184983"><ele>166.0</ele><time>2026-05-03T12:55:01.646Z</time></trkpt><trkpt lat="43.4916683" lon="11.6184583"><ele>166.0</ele><time>2026-05-03T12:55:02.643Z</time></trkpt><trkpt lat="43.491795" lon="11.618435"><ele>166.0</ele><time>2026-05-03T12:55:03.652Z</time></trkpt><trkpt lat="43.491925" lon="11.618415"><ele>166.0</ele><time>2026-05-03T12:55:04.66Z</time></trkpt><trkpt lat="43.492055" lon="11.6184033"><ele>166.0</ele><time>2026-05-03T12:55:05.663Z</time></trkpt><trkpt lat="43.492185" lon="11.618405"><ele>166.0</ele><time>2026-05-03T12:55:06.659Z</time></trkpt><trkpt lat="43.4923217" lon="11.6184283"><ele>166.0</ele><time>2026-05-03T12:55:07.66Z</time></trkpt><trkpt lat="43.49246" lon="11.6184683"><ele>165.5</ele><time>2026-05-03T12:55:08.656Z</time></trkpt><trkpt lat="43.4925817" lon="11.6185467"><ele>165.0</ele><time>2026-05-03T12:55:09.66Z</time></trkpt><trkpt lat="43.4927083" lon="11.6186383"><ele>164.5</ele><time>2026-05-03T12:55:10.653Z</time></trkpt><trkpt lat="43.4928317" lon="11.6187333"><ele>164.0</ele><time>2026-05-03T12:55:11.652Z</time></trkpt><trkpt lat="43.492955" lon="11.6188183"><ele>164.0</ele><time>2026-05-03T12:55:12.673Z</time></trkpt><trkpt lat="43.49307" lon="11.618895"><ele>164.0</ele><time>2026-05-03T12:55:13.652Z</time></trkpt><trkpt lat="43.493175" lon="11.618955"><ele>164.0</ele><time>2026-05-03T12:55:14.661Z</time></trkpt><trkpt lat="43.4932767" lon="11.6189883"><ele>164.0</ele><time>2026-05-03T12:55:15.654Z</time></trkpt><trkpt lat="43.4933833" lon="11.6189917"><ele>164.0</ele><time>2026-05-03T12:55:16.656Z</time></trkpt><trkpt lat="43.49348" lon="11.61895"><ele>164.0</ele><time>2026-05-03T12:55:17.661Z</time></trkpt><trkpt lat="43.4935733" lon="11.618875"><ele>164.0</ele><time>2026-05-03T12:55:18.655Z</time></trkpt><trkpt lat="43.4936717" lon="11.6188017"><ele>164.0</ele><time>2026-05-03T12:55:19.658Z</time></trkpt><trkpt lat="43.493775" lon="11.6187217"><ele>164.0</ele><time>2026-05-03T12:55:20.656Z</time></trkpt><trkpt lat="43.4938883" lon="11.6186367"><ele>162.75</ele><time>2026-05-03T12:55:21.654Z</time></trkpt><trkpt lat="43.4940067" lon="11.61855"><ele>161.5</ele><time>2026-05-03T12:55:22.655Z</time></trkpt><trkpt lat="43.4941183" lon="11.6184567"><ele>160.25</ele><time>2026-05-03T12:55:23.655Z</time></trkpt><trkpt lat="43.494235" lon="11.6183667"><ele>159.0</ele><time>2026-05-03T12:55:24.66Z</time></trkpt><trkpt lat="43.49435" lon="11.6182833"><ele>159.0</ele><time>2026-05-03T12:55:25.654Z</time></trkpt><trkpt lat="43.4944583" lon="11.618205"><ele>159.0</ele><time>2026-05-03T12:55:26.656Z</time></trkpt><trkpt lat="43.49456" lon="11.6181433"><ele>159.0</ele><time>2026-05-03T12:55:27.661Z</time></trkpt><trkpt lat="43.4946583" lon="11.6180833"><ele>159.0</ele><time>2026-05-03T12:55:28.656Z</time></trkpt><trkpt lat="43.4947533" lon="11.618025"><ele>159.0</ele><time>2026-05-03T12:55:29.653Z</time></trkpt><trkpt lat="43.4948467" lon="11.6179617"><ele>159.0</ele><time>2026-05-03T12:55:30.654Z</time></trkpt><trkpt lat="43.4949483" lon="11.617895"><ele>159.0</ele><time>2026-05-03T12:55:31.647Z</time></trkpt><trkpt lat="43.4950433" lon="11.61782"><ele>159.0</ele><time>2026-05-03T12:55:32.67Z</time></trkpt><trkpt lat="43.4951483" lon="11.617755"><ele>159.0</ele><time>2026-05-03T12:55:33.658Z</time></trkpt><trkpt lat="43.4952567" lon="11.61769"><ele>158.6</ele><time>2026-05-03T12:55:34.658Z</time></trkpt><trkpt lat="43.4953533" lon="11.6176233"><ele>158.2</ele><time>2026-05-03T12:55:35.656Z</time></trkpt><trkpt lat="43.495445" lon="11.6175617"><ele>157.79999999999998</ele><time>2026-05-03T12:55:36.648Z</time></trkpt><trkpt lat="43.4955383" lon="11.6174983"><ele>157.4</ele><time>2026-05-03T12:55:37.667Z</time></trkpt><trkpt lat="43.4956333" lon="11.6174283"><ele>157.0</ele><time>2026-05-03T12:55:38.654Z</time></trkpt><trkpt lat="43.4957433" lon="11.6173683"><ele>157.0</ele><time>2026-05-03T12:55:39.654Z</time></trkpt><trkpt lat="43.495845" lon="11.617315"><ele>157.0</ele><time>2026-05-03T12:55:40.65Z</time></trkpt><trkpt lat="43.49595" lon="11.6172733"><ele>157.0</ele><time>2026-05-03T12:55:41.653Z</time></trkpt><trkpt lat="43.4960617" lon="11.6172417"><ele>157.0</ele><time>2026-05-03T12:55:42.651Z</time></trkpt><trkpt lat="43.496175" lon="11.6172217"><ele>157.0</ele><time>2026-05-03T12:55:43.649Z</time></trkpt><trkpt lat="43.4962883" lon="11.617215"><ele>157.0</ele><time>2026-05-03T12:55:44.65Z</time></trkpt><trkpt lat="43.496405" lon="11.6172117"><ele>157.0</ele><time>2026-05-03T12:55:45.659Z</time></trkpt><trkpt lat="43.4965317" lon="11.6172217"><ele>157.0</ele><time>2026-05-03T12:55:46.65Z</time></trkpt><trkpt lat="43.4966567" lon="11.617235"><ele>157.0</ele><time>2026-05-03T12:55:47.655Z</time></trkpt><trkpt lat="43.49678" lon="11.6172683"><ele>157.0</ele><time>2026-05-03T12:55:48.655Z</time></trkpt><trkpt lat="43.496905" lon="11.6173117"><ele>157.0</ele><time>2026-05-03T12:55:49.652Z</time></trkpt><trkpt lat="43.4970283" lon="11.61737"><ele>157.0</ele><time>2026-05-03T12:55:50.665Z</time></trkpt><trkpt lat="43.49715" lon="11.6174317"><ele>157.0</ele><time>2026-05-03T12:55:51.662Z</time></trkpt><trkpt lat="43.49726" lon="11.6175033"><ele>156.75</ele><time>2026-05-03T12:55:52.65Z</time></trkpt><trkpt lat="43.4973783" lon="11.6175533"><ele>156.5</ele><time>2026-05-03T12:55:53.666Z</time></trkpt><trkpt lat="43.4974933" lon="11.6176017"><ele>156.25</ele><time>2026-05-03T12:55:54.665Z</time></trkpt><trkpt lat="43.49761" lon="11.6176483"><ele>156.0</ele><time>2026-05-03T12:55:55.659Z</time></trkpt><trkpt lat="43.4977117" lon="11.6177"><ele>156.0</ele><time>2026-05-03T12:55:56.677Z</time></trkpt><trkpt lat="43.4978033" lon="11.6177517"><ele>156.0</ele><time>2026-05-03T12:55:57.683Z</time></trkpt><trkpt lat="43.497885" lon="11.6177967"><ele>156.0</ele><time>2026-05-03T12:55:58.68Z</time></trkpt><trkpt lat="43.4979633" lon="11.6178533"><ele>156.0</ele><time>2026-05-03T12:55:59.651Z</time></trkpt><trkpt lat="43.4980367" lon="11.6179117"><ele>156.0</ele><time>2026-05-03T12:56:00.678Z</time></trkpt><trkpt lat="43.4981117" lon="11.61797"><ele>156.0</ele><time>2026-05-03T12:56:01.665Z</time></trkpt><trkpt lat="43.4981817" lon="11.6180267"><ele>156.2857142857143</ele><time>2026-05-03T12:56:02.672Z</time></trkpt><trkpt lat="43.4982467" lon="11.61808"><ele>156.57142857142856</ele><time>2026-05-03T12:56:03.666Z</time></trkpt><trkpt lat="43.4982983" lon="11.6181317"><ele>156.85714285714286</ele><time>2026-05-03T12:56:04.665Z</time></trkpt><trkpt lat="43.4983717" lon="11.6182083"><ele>157.14285714285717</ele><time>2026-05-03T12:56:06.673Z</time></trkpt><trkpt lat="43.4984283" lon="11.618265"><ele>157.42857142857144</ele><time>2026-05-03T12:56:09.691Z</time></trkpt><trkpt lat="43.498495" lon="11.6182667"><ele>157.71428571428572</ele><time>2026-05-03T12:56:29.712Z</time></trkpt><trkpt lat="43.498555" lon="11.61834"><ele>158.0</ele><time>2026-05-03T12:56:32.656Z</time></trkpt><trkpt lat="43.49863" lon="11.61841"><ele>158.0</ele><time>2026-05-03T12:56:49.668Z</time></trkpt><trkpt lat="43.4986833" lon="11.6184867"><ele>158.0</ele><time>2026-05-03T12:56:51.708Z</time></trkpt><trkpt lat="43.49869" lon="11.6185867"><ele>158.0</ele><time>2026-05-03T12:56:53.729Z</time></trkpt><trkpt lat="43.498625" lon="11.618725"><ele>158.0</ele><time>2026-05-03T12:56:55.758Z</time></trkpt><trkpt lat="43.49858" lon="11.618795"><ele>158.0</ele><time>2026-05-03T12:56:56.711Z</time></trkpt><trkpt lat="43.4985383" lon="11.61888"><ele>158.0</ele><time>2026-05-03T12:56:57.693Z</time></trkpt><trkpt lat="43.4984917" lon="11.618965"><ele>158.20000000000002</ele><time>2026-05-03T12:56:58.693Z</time></trkpt><trkpt lat="43.4984383" lon="11.619065"><ele>158.4</ele><time>2026-05-03T12:56:59.685Z</time></trkpt><trkpt lat="43.49838" lon="11.6191667"><ele>158.60000000000002</ele><time>2026-05-03T12:57:00.665Z</time></trkpt><trkpt lat="43.498315" lon="11.6192733"><ele>158.8</ele><time>2026-05-03T12:57:01.658Z</time></trkpt><trkpt lat="43.49824" lon="11.61938"><ele>159.0</ele><time>2026-05-03T12:57:02.665Z</time></trkpt><trkpt lat="43.4981633" lon="11.6194983"><ele>159.0</ele><time>2026-05-03T12:57:03.665Z</time></trkpt><trkpt lat="43.4980917" lon="11.619615"><ele>159.0</ele><time>2026-05-03T12:57:04.674Z</time></trkpt><trkpt lat="43.49803" lon="11.61971"><ele>159.0</ele><time>2026-05-03T12:57:05.664Z</time></trkpt><trkpt lat="43.4979683" lon="11.6198"><ele>159.0</ele><time>2026-05-03T12:57:06.657Z</time></trkpt><trkpt lat="43.4979133" lon="11.619875"><ele>159.0</ele><time>2026-05-03T12:57:07.663Z</time></trkpt><trkpt lat="43.4978667" lon="11.6199433"><ele>159.0</ele><time>2026-05-03T12:57:08.664Z</time></trkpt><trkpt lat="43.4978083" lon="11.620055"><ele>159.28571428571428</ele><time>2026-05-03T12:57:10.69Z</time></trkpt><trkpt lat="43.4977667" lon="11.6201517"><ele>159.57142857142858</ele><time>2026-05-03T12:57:13.724Z</time></trkpt><trkpt lat="43.497835" lon="11.6200867"><ele>159.85714285714286</ele><time>2026-05-03T12:58:49.636Z</time></trkpt><trkpt lat="43.497865" lon="11.62001"><ele>160.14285714285714</ele><time>2026-05-03T12:58:54.674Z</time></trkpt><trkpt lat="43.4977913" lon="11.6199591"><ele>160.42857142857144</ele><time>2026-05-03T13:05:14.85Z</time></trkpt><trkpt lat="43.4978548" lon="11.6200011"><ele>160.71428571428572</ele><time>2026-05-03T13:07:44.679Z</time></trkpt><trkpt lat="43.4977958" lon="11.6199696"><ele>161.0</ele><time>2026-05-03T13:14:11.539Z</time></trkpt><trkpt lat="43.49771" lon="11.620245"><ele>161.60000000000002</ele><time>2026-05-03T13:18:34.655Z</time></trkpt><trkpt lat="43.4976583" lon="11.6203383"><ele>162.2</ele><time>2026-05-03T13:18:36.647Z</time></trkpt><trkpt lat="43.4975883" lon="11.6204433"><ele>162.8</ele><time>2026-05-03T13:18:38.654Z</time></trkpt><trkpt lat="43.4975133" lon="11.62056"><ele>163.39999999999998</ele><time>2026-05-03T13:18:40.649Z</time></trkpt><trkpt lat="43.4974333" lon="11.62067"><ele>164.0</ele><time>2026-05-03T13:18:42.647Z</time></trkpt><trkpt lat="43.497325" lon="11.620745"><ele>164.0</ele><time>2026-05-03T13:18:44.663Z</time></trkpt><trkpt lat="43.497245" lon="11.6207717"><ele>164.0</ele><time>2026-05-03T13:18:45.65Z</time></trkpt><trkpt lat="43.497165" lon="11.620805"><ele>164.0</ele><time>2026-05-03T13:18:46.665Z</time></trkpt><trkpt lat="43.4970867" lon="11.6208483"><ele>164.0</ele><time>2026-05-03T13:18:47.656Z</time></trkpt><trkpt lat="43.4970033" lon="11.6208917"><ele>164.0</ele><time>2026-05-03T13:18:48.64Z</time></trkpt><trkpt lat="43.4969233" lon="11.6209417"><ele>164.0</ele><time>2026-05-03T13:18:49.652Z</time></trkpt><trkpt lat="43.4968383" lon="11.620995"><ele>164.39999999999998</ele><time>2026-05-03T13:18:50.646Z</time></trkpt><trkpt lat="43.49675" lon="11.62104"><ele>164.8</ele><time>2026-05-03T13:18:51.665Z</time></trkpt><trkpt lat="43.4966633" lon="11.62109"><ele>165.2</ele><time>2026-05-03T13:18:52.63Z</time></trkpt><trkpt lat="43.496575" lon="11.6211333"><ele>165.60000000000002</ele><time>2026-05-03T13:18:53.636Z</time></trkpt><trkpt lat="43.49648" lon="11.6211633"><ele>166.0</ele><time>2026-05-03T13:18:54.639Z</time></trkpt><trkpt lat="43.496385" lon="11.6212017"><ele>166.8</ele><time>2026-05-03T13:18:55.632Z</time></trkpt><trkpt lat="43.4962817" lon="11.62124"><ele>167.60000000000002</ele><time>2026-05-03T13:18:56.63Z</time></trkpt><trkpt lat="43.4961883" lon="11.6212667"><ele>168.4</ele><time>2026-05-03T13:18:57.641Z</time></trkpt><trkpt lat="43.4960867" lon="11.6212867"><ele>169.2</ele><time>2026-05-03T13:18:58.64Z</time></trkpt><trkpt lat="43.49599" lon="11.6212933"><ele>170.0</ele><time>2026-05-03T13:18:59.635Z</time></trkpt><trkpt lat="43.495895" lon="11.6212933"><ele>170.4</ele><time>2026-05-03T13:19:00.648Z</time></trkpt><trkpt lat="43.4957983" lon="11.6212817"><ele>170.8</ele><time>2026-05-03T13:19:01.651Z</time></trkpt><trkpt lat="43.495695" lon="11.6212717"><ele>171.2</ele><time>2026-05-03T13:19:02.655Z</time></trkpt><trkpt lat="43.495595" lon="11.621255"><ele>171.6</ele><time>2026-05-03T13:19:03.653Z</time></trkpt><trkpt lat="43.495495" lon="11.62124"><ele>172.0</ele><time>2026-05-03T13:19:04.641Z</time></trkpt><trkpt lat="43.495395" lon="11.6212167"><ele>173.6</ele><time>2026-05-03T13:19:05.64Z</time></trkpt><trkpt lat="43.4953" lon="11.621195"><ele>175.2</ele><time>2026-05-03T13:19:06.656Z</time></trkpt><trkpt lat="43.4952033" lon="11.6211833"><ele>176.8</ele><time>2026-05-03T13:19:07.646Z</time></trkpt><trkpt lat="43.4951133" lon="11.6211933"><ele>178.4</ele><time>2026-05-03T13:19:08.676Z</time></trkpt><trkpt lat="43.4950083" lon="11.6212183"><ele>180.0</ele><time>2026-05-03T13:19:09.649Z</time></trkpt><trkpt lat="43.4949033" lon="11.6212533"><ele>180.0</ele><time>2026-05-03T13:19:10.647Z</time></trkpt><trkpt lat="43.4948017" lon="11.6213017"><ele>180.0</ele><time>2026-05-03T13:19:11.639Z</time></trkpt><trkpt lat="43.4946917" lon="11.6213517"><ele>180.0</ele><time>2026-05-03T13:19:12.656Z</time></trkpt><trkpt lat="43.4945833" lon="11.6214167"><ele>180.0</ele><time>2026-05-03T13:19:13.654Z</time></trkpt><trkpt lat="43.4944817" lon="11.621465"><ele>180.0</ele><time>2026-05-03T13:19:14.653Z</time></trkpt><trkpt lat="43.4943867" lon="11.6215117"><ele>180.33333333333334</ele><time>2026-05-03T13:19:15.649Z</time></trkpt><trkpt lat="43.4943033" lon="11.6215483"><ele>180.66666666666666</ele><time>2026-05-03T13:19:16.646Z</time></trkpt><trkpt lat="43.494225" lon="11.62157"><ele>181.0</ele><time>2026-05-03T13:19:17.647Z</time></trkpt><trkpt lat="43.4941467" lon="11.6215917"><ele>181.33333333333331</ele><time>2026-05-03T13:19:18.649Z</time></trkpt><trkpt lat="43.4940633" lon="11.6216383"><ele>181.66666666666666</ele><time>2026-05-03T13:19:19.646Z</time></trkpt><trkpt lat="43.4939817" lon="11.6216883"><ele>182.0</ele><time>2026-05-03T13:19:20.675Z</time></trkpt><trkpt lat="43.4938883" lon="11.6217333"><ele>182.0</ele><time>2026-05-03T13:19:21.646Z</time></trkpt><trkpt lat="43.4937883" lon="11.621775"><ele>182.0</ele><time>2026-05-03T13:19:22.65Z</time></trkpt><trkpt lat="43.4936867" lon="11.6218183"><ele>182.0</ele><time>2026-05-03T13:19:23.645Z</time></trkpt><trkpt lat="43.4935783" lon="11.621855"><ele>182.0</ele><time>2026-05-03T13:19:24.646Z</time></trkpt><trkpt lat="43.4934733" lon="11.6219"><ele>182.0</ele><time>2026-05-03T13:19:25.639Z</time></trkpt><trkpt lat="43.4933767" lon="11.621955"><ele>183.39999999999998</ele><time>2026-05-03T13:19:26.648Z</time></trkpt><trkpt lat="43.493285" lon="11.6220283"><ele>184.79999999999998</ele><time>2026-05-03T13:19:27.649Z</time></trkpt><trkpt lat="43.4932333" lon="11.62214"><ele>186.2</ele><time>2026-05-03T13:19:28.657Z</time></trkpt><trkpt lat="43.4932267" lon="11.622265"><ele>187.6</ele><time>2026-05-03T13:19:29.651Z</time></trkpt><trkpt lat="43.493265" lon="11.62239"><ele>189.0</ele><time>2026-05-03T13:19:30.663Z</time></trkpt><trkpt lat="43.4933267" lon="11.62248"><ele>189.0</ele><time>2026-05-03T13:19:31.66Z</time></trkpt><trkpt lat="43.4934233" lon="11.622525"><ele>189.0</ele><time>2026-05-03T13:19:32.651Z</time></trkpt><trkpt lat="43.4935383" lon="11.6225383"><ele>189.0</ele><time>2026-05-03T13:19:33.65Z</time></trkpt><trkpt lat="43.4936517" lon="11.622565"><ele>189.0</ele><time>2026-05-03T13:19:34.65Z</time></trkpt><trkpt lat="43.4937617" lon="11.6225917"><ele>189.0</ele><time>2026-05-03T13:19:35.664Z</time></trkpt><trkpt lat="43.4938717" lon="11.6226283"><ele>189.0</ele><time>2026-05-03T13:19:36.646Z</time></trkpt><trkpt lat="43.4939717" lon="11.622685"><ele>189.0</ele><time>2026-05-03T13:19:37.669Z</time></trkpt><trkpt lat="43.4940467" lon="11.6227683"><ele>189.0</ele><time>2026-05-03T13:19:38.643Z</time></trkpt><trkpt lat="43.4941" lon="11.622875"><ele>189.0</ele><time>2026-05-03T13:19:39.646Z</time></trkpt><trkpt lat="43.4941117" lon="11.6229917"><ele>189.0</ele><time>2026-05-03T13:19:40.642Z</time></trkpt><trkpt lat="43.4940983" lon="11.6231183"><ele>190.2</ele><time>2026-05-03T13:19:41.641Z</time></trkpt><trkpt lat="43.494055" lon="11.6232433"><ele>191.39999999999998</ele><time>2026-05-03T13:19:42.645Z</time></trkpt><trkpt lat="43.4939883" lon="11.6233467"><ele>192.6</ele><time>2026-05-03T13:19:43.638Z</time></trkpt><trkpt lat="43.4939" lon="11.623445"><ele>193.8</ele><time>2026-05-03T13:19:44.679Z</time></trkpt><trkpt lat="43.49381" lon="11.62353"><ele>195.0</ele><time>2026-05-03T13:19:45.647Z</time></trkpt><trkpt lat="43.49372" lon="11.6236233"><ele>196.25</ele><time>2026-05-03T13:19:46.658Z</time></trkpt><trkpt lat="43.4936367" lon="11.6237217"><ele>197.5</ele><time>2026-05-03T13:19:47.653Z</time></trkpt><trkpt lat="43.493545" lon="11.623825"><ele>198.75</ele><time>2026-05-03T13:19:48.647Z</time></trkpt><trkpt lat="43.4934683" lon="11.62395"><ele>200.0</ele><time>2026-05-03T13:19:49.647Z</time></trkpt><trkpt lat="43.4934183" lon="11.6241067"><ele>200.0</ele><time>2026-05-03T13:19:50.651Z</time></trkpt><trkpt lat="43.4933833" lon="11.6242717"><ele>200.0</ele><time>2026-05-03T13:19:51.652Z</time></trkpt><trkpt lat="43.4933683" lon="11.6244633"><ele>200.0</ele><time>2026-05-03T13:19:52.654Z</time></trkpt><trkpt lat="43.4933417" lon="11.624655"><ele>200.0</ele><time>2026-05-03T13:19:53.638Z</time></trkpt><trkpt lat="43.4933183" lon="11.624855"><ele>201.75</ele><time>2026-05-03T13:19:54.67Z</time></trkpt><trkpt lat="43.4933017" lon="11.6250533"><ele>203.5</ele><time>2026-05-03T13:19:55.645Z</time></trkpt><trkpt lat="43.4932833" lon="11.6252517"><ele>205.25</ele><time>2026-05-03T13:19:56.645Z</time></trkpt><trkpt lat="43.4932533" lon="11.62543"><ele>207.0</ele><time>2026-05-03T13:19:57.644Z</time></trkpt><trkpt lat="43.4932017" lon="11.6255867"><ele>209.0</ele><time>2026-05-03T13:19:58.65Z</time></trkpt><trkpt lat="43.4931267" lon="11.6257183"><ele>211.0</ele><time>2026-05-03T13:19:59.645Z</time></trkpt><trkpt lat="43.493025" lon="11.6258083"><ele>213.0</ele><time>2026-05-03T13:20:00.652Z</time></trkpt><trkpt lat="43.4929117" lon="11.6258467"><ele>215.0</ele><time>2026-05-03T13:20:01.637Z</time></trkpt><trkpt lat="43.4927917" lon="11.6258467"><ele>215.25</ele><time>2026-05-03T13:20:02.64Z</time></trkpt><trkpt lat="43.4926717" lon="11.6258"><ele>215.5</ele><time>2026-05-03T13:20:03.651Z</time></trkpt><trkpt lat="43.4925567" lon="11.6257183"><ele>215.75</ele><time>2026-05-03T13:20:04.637Z</time></trkpt><trkpt lat="43.492445" lon="11.6256167"><ele>216.0</ele><time>2026-05-03T13:20:05.671Z</time></trkpt><trkpt lat="43.492325" lon="11.6255017"><ele>216.0</ele><time>2026-05-03T13:20:06.661Z</time></trkpt><trkpt lat="43.4922033" lon="11.6253817"><ele>216.0</ele><time>2026-05-03T13:20:07.65Z</time></trkpt><trkpt lat="43.492085" lon="11.6252683"><ele>216.0</ele><time>2026-05-03T13:20:08.653Z</time></trkpt><trkpt lat="43.4919683" lon="11.6251567"><ele>216.0</ele><time>2026-05-03T13:20:09.65Z</time></trkpt><trkpt lat="43.491855" lon="11.6250567"><ele>217.5</ele><time>2026-05-03T13:20:10.648Z</time></trkpt><trkpt lat="43.4917467" lon="11.6249783"><ele>219.0</ele><time>2026-05-03T13:20:11.651Z</time></trkpt><trkpt lat="43.49163" lon="11.624935"><ele>220.5</ele><time>2026-05-03T13:20:12.633Z</time></trkpt><trkpt lat="43.49151" lon="11.624925"><ele>222.0</ele><time>2026-05-03T13:20:13.649Z</time></trkpt><trkpt lat="43.4913967" lon="11.62496"><ele>222.0</ele><time>2026-05-03T13:20:14.653Z</time></trkpt><trkpt lat="43.491295" lon="11.62505"><ele>222.0</ele><time>2026-05-03T13:20:15.653Z</time></trkpt><trkpt lat="43.49121" lon="11.6251717"><ele>222.0</ele><time>2026-05-03T13:20:16.649Z</time></trkpt><trkpt lat="43.491155" lon="11.6253283"><ele>222.0</ele><time>2026-05-03T13:20:17.655Z</time></trkpt><trkpt lat="43.4911017" lon="11.62551"><ele>222.75</ele><time>2026-05-03T13:20:18.658Z</time></trkpt><trkpt lat="43.491055" lon="11.6257017"><ele>223.5</ele><time>2026-05-03T13:20:19.657Z</time></trkpt><trkpt lat="43.4910183" lon="11.625895"><ele>224.25</ele><time>2026-05-03T13:20:20.655Z</time></trkpt><trkpt lat="43.490975" lon="11.6260917"><ele>225.0</ele><time>2026-05-03T13:20:21.644Z</time></trkpt><trkpt lat="43.4909417" lon="11.62629"><ele>225.5</ele><time>2026-05-03T13:20:22.66Z</time></trkpt><trkpt lat="43.4909183" lon="11.6264817"><ele>226.0</ele><time>2026-05-03T13:20:23.636Z</time></trkpt><trkpt lat="43.4909133" lon="11.62668"><ele>226.5</ele><time>2026-05-03T13:20:24.649Z</time></trkpt><trkpt lat="43.4909283" lon="11.6268833"><ele>227.0</ele><time>2026-05-03T13:20:25.651Z</time></trkpt><trkpt lat="43.4909517" lon="11.6270967"><ele>227.0</ele><time>2026-05-03T13:20:26.651Z</time></trkpt><trkpt lat="43.49099" lon="11.6273083"><ele>227.0</ele><time>2026-05-03T13:20:27.646Z</time></trkpt><trkpt lat="43.4910317" lon="11.62749"><ele>227.0</ele><time>2026-05-03T13:20:28.642Z</time></trkpt><trkpt lat="43.4910717" lon="11.6276433"><ele>227.0</ele><time>2026-05-03T13:20:29.65Z</time></trkpt><trkpt lat="43.4911" lon="11.6277617"><ele>227.0</ele><time>2026-05-03T13:20:30.655Z</time></trkpt><trkpt lat="43.491105" lon="11.6278683"><ele>227.0</ele><time>2026-05-03T13:20:31.655Z</time></trkpt><trkpt lat="43.4911033" lon="11.6280233"><ele>227.0</ele><time>2026-05-03T13:20:33.656Z</time></trkpt><trkpt lat="43.49114" lon="11.62816"><ele>227.0</ele><time>2026-05-03T13:20:35.653Z</time></trkpt><trkpt lat="43.4911883" lon="11.628235"><ele>227.0</ele><time>2026-05-03T13:20:36.65Z</time></trkpt><trkpt lat="43.4912567" lon="11.62831"><ele>229.2</ele><time>2026-05-03T13:20:37.674Z</time></trkpt><trkpt lat="43.491335" lon="11.6283833"><ele>231.39999999999998</ele><time>2026-05-03T13:20:38.649Z</time></trkpt><trkpt lat="43.4914167" lon="11.6284667"><ele>233.60000000000002</ele><time>2026-05-03T13:20:39.671Z</time></trkpt><trkpt lat="43.4915067" lon="11.6285633"><ele>235.8</ele><time>2026-05-03T13:20:40.639Z</time></trkpt><trkpt lat="43.4916017" lon="11.6286717"><ele>238.0</ele><time>2026-05-03T13:20:41.645Z</time></trkpt><trkpt lat="43.4916933" lon="11.6287933"><ele>238.0</ele><time>2026-05-03T13:20:42.648Z</time></trkpt><trkpt lat="43.4917733" lon="11.6289367"><ele>238.0</ele><time>2026-05-03T13:20:43.64Z</time></trkpt><trkpt lat="43.49185" lon="11.629085"><ele>238.0</ele><time>2026-05-03T13:20:44.64Z</time></trkpt><trkpt lat="43.49193" lon="11.6292433"><ele>238.0</ele><time>2026-05-03T13:20:45.663Z</time></trkpt><trkpt lat="43.4920117" lon="11.629415"><ele>239.33333333333331</ele><time>2026-05-03T13:20:46.681Z</time></trkpt><trkpt lat="43.49209" lon="11.6295883"><ele>240.66666666666669</ele><time>2026-05-03T13:20:47.668Z</time></trkpt><trkpt lat="43.4921733" lon="11.62976"><ele>242.0</ele><time>2026-05-03T13:20:48.651Z</time></trkpt><trkpt lat="43.49226" lon="11.6299333"><ele>242.0</ele><time>2026-05-03T13:20:49.64Z</time></trkpt><trkpt lat="43.4923583" lon="11.6301217"><ele>242.0</ele><time>2026-05-03T13:20:50.632Z</time></trkpt><trkpt lat="43.4924617" lon="11.63031"><ele>242.0</ele><time>2026-05-03T13:20:51.666Z</time></trkpt><trkpt lat="43.4925633" lon="11.6305017"><ele>242.0</ele><time>2026-05-03T13:20:52.638Z</time></trkpt><trkpt lat="43.4926583" lon="11.6306983"><ele>242.0</ele><time>2026-05-03T13:20:53.647Z</time></trkpt><trkpt lat="43.4927533" lon="11.6308717"><ele>242.0</ele><time>2026-05-03T13:20:54.651Z</time></trkpt><trkpt lat="43.4928217" lon="11.631035"><ele>240.75</ele><time>2026-05-03T13:20:55.649Z</time></trkpt><trkpt lat="43.4928917" lon="11.631185"><ele>239.5</ele><time>2026-05-03T13:20:56.652Z</time></trkpt><trkpt lat="43.4929533" lon="11.6313367"><ele>238.25</ele><time>2026-05-03T13:20:57.658Z</time></trkpt><trkpt lat="43.4930183" lon="11.63148"><ele>237.0</ele><time>2026-05-03T13:20:58.653Z</time></trkpt><trkpt lat="43.4930767" lon="11.6316067"><ele>236.6</ele><time>2026-05-03T13:20:59.643Z</time></trkpt><trkpt lat="43.493125" lon="11.6317233"><ele>236.2</ele><time>2026-05-03T13:21:00.651Z</time></trkpt><trkpt lat="43.4931683" lon="11.6318217"><ele>235.8</ele><time>2026-05-03T13:21:01.653Z</time></trkpt><trkpt lat="43.4932067" lon="11.6318967"><ele>235.4</ele><time>2026-05-03T13:21:02.665Z</time></trkpt><trkpt lat="43.4932383" lon="11.6320267"><ele>235.0</ele><time>2026-05-03T13:21:04.647Z</time></trkpt><trkpt lat="43.4931967" lon="11.6321717"><ele>235.0</ele><time>2026-05-03T13:21:06.651Z</time></trkpt><trkpt lat="43.49316" lon="11.6322517"><ele>235.0</ele><time>2026-05-03T13:21:07.652Z</time></trkpt><trkpt lat="43.4931133" lon="11.6323433"><ele>235.0</ele><time>2026-05-03T13:21:08.651Z</time></trkpt><trkpt lat="43.49306" lon="11.63245"><ele>235.0</ele><time>2026-05-03T13:21:09.652Z</time></trkpt><trkpt lat="43.493" lon="11.6325683"><ele>235.0</ele><time>2026-05-03T13:21:10.683Z</time></trkpt><trkpt lat="43.4929317" lon="11.6326917"><ele>234.6</ele><time>2026-05-03T13:21:11.645Z</time></trkpt><trkpt lat="43.4928683" lon="11.63281"><ele>234.2</ele><time>2026-05-03T13:21:12.652Z</time></trkpt><trkpt lat="43.492805" lon="11.6329283"><ele>233.8</ele><time>2026-05-03T13:21:13.641Z</time></trkpt><trkpt lat="43.49274" lon="11.6330417"><ele>233.4</ele><time>2026-05-03T13:21:14.639Z</time></trkpt><trkpt lat="43.4926767" lon="11.6331417"><ele>233.0</ele><time>2026-05-03T13:21:15.657Z</time></trkpt><trkpt lat="43.4926033" lon="11.6332417"><ele>233.0</ele><time>2026-05-03T13:21:16.651Z</time></trkpt><trkpt lat="43.492525" lon="11.6333317"><ele>233.0</ele><time>2026-05-03T13:21:17.666Z</time></trkpt><trkpt lat="43.4924267" lon="11.6334233"><ele>233.0</ele><time>2026-05-03T13:21:18.656Z</time></trkpt><trkpt lat="43.4923383" lon="11.63351"><ele>233.0</ele><time>2026-05-03T13:21:19.65Z</time></trkpt><trkpt lat="43.4922417" lon="11.6335983"><ele>233.0</ele><time>2026-05-03T13:21:20.649Z</time></trkpt><trkpt lat="43.4921467" lon="11.6336983"><ele>233.5</ele><time>2026-05-03T13:21:21.652Z</time></trkpt><trkpt lat="43.49205" lon="11.633785"><ele>234.0</ele><time>2026-05-03T13:21:22.652Z</time></trkpt><trkpt lat="43.49195" lon="11.6338783"><ele>234.5</ele><time>2026-05-03T13:21:23.648Z</time></trkpt><trkpt lat="43.4918483" lon="11.6339733"><ele>235.0</ele><time>2026-05-03T13:21:24.656Z</time></trkpt><trkpt lat="43.491745" lon="11.6340583"><ele>235.0</ele><time>2026-05-03T13:21:25.647Z</time></trkpt><trkpt lat="43.4916483" lon="11.63414"><ele>235.0</ele><time>2026-05-03T13:21:26.652Z</time></trkpt><trkpt lat="43.4915583" lon="11.634215"><ele>235.0</ele><time>2026-05-03T13:21:27.653Z</time></trkpt><trkpt lat="43.491465" lon="11.6343067"><ele>235.0</ele><time>2026-05-03T13:21:28.661Z</time></trkpt><trkpt lat="43.4913733" lon="11.634405"><ele>235.0</ele><time>2026-05-03T13:21:29.642Z</time></trkpt><trkpt lat="43.49128" lon="11.6345183"><ele>235.25</ele><time>2026-05-03T13:21:30.663Z</time></trkpt><trkpt lat="43.4911817" lon="11.6346517"><ele>235.5</ele><time>2026-05-03T13:21:31.654Z</time></trkpt><trkpt lat="43.4910917" lon="11.634795"><ele>235.75</ele><time>2026-05-03T13:21:32.655Z</time></trkpt><trkpt lat="43.49101" lon="11.6349333"><ele>236.0</ele><time>2026-05-03T13:21:33.642Z</time></trkpt><trkpt lat="43.490935" lon="11.6350867"><ele>236.0</ele><time>2026-05-03T13:21:34.652Z</time></trkpt><trkpt lat="43.4908683" lon="11.63523"><ele>236.0</ele><time>2026-05-03T13:21:35.655Z</time></trkpt><trkpt lat="43.4908017" lon="11.6353633"><ele>236.0</ele><time>2026-05-03T13:21:36.642Z</time></trkpt><trkpt lat="43.4907433" lon="11.635495"><ele>236.0</ele><time>2026-05-03T13:21:37.674Z</time></trkpt><trkpt lat="43.4906933" lon="11.6356217"><ele>236.33333333333334</ele><time>2026-05-03T13:21:38.633Z</time></trkpt><trkpt lat="43.490655" lon="11.63576"><ele>236.66666666666669</ele><time>2026-05-03T13:21:39.648Z</time></trkpt><trkpt lat="43.49063" lon="11.6358833"><ele>237.0</ele><time>2026-05-03T13:21:40.648Z</time></trkpt><trkpt lat="43.49061" lon="11.63599"><ele>237.33333333333331</ele><time>2026-05-03T13:21:41.65Z</time></trkpt><trkpt lat="43.4905817" lon="11.636095"><ele>237.66666666666666</ele><time>2026-05-03T13:21:42.635Z</time></trkpt><trkpt lat="43.4905417" lon="11.6361967"><ele>238.0</ele><time>2026-05-03T13:21:43.671Z</time></trkpt><trkpt lat="43.4904917" lon="11.6362733"><ele>238.83333333333331</ele><time>2026-05-03T13:21:44.654Z</time></trkpt><trkpt lat="43.4904283" lon="11.6363283"><ele>239.66666666666666</ele><time>2026-05-03T13:21:45.648Z</time></trkpt><trkpt lat="43.4903583" lon="11.6363667"><ele>240.5</ele><time>2026-05-03T13:21:46.645Z</time></trkpt><trkpt lat="43.4902833" lon="11.636385"><ele>241.33333333333331</ele><time>2026-05-03T13:21:47.642Z</time></trkpt><trkpt lat="43.4902117" lon="11.636415"><ele>242.16666666666666</ele><time>2026-05-03T13:21:48.64Z</time></trkpt><trkpt lat="43.49014" lon="11.6364617"><ele>243.0</ele><time>2026-05-03T13:21:49.647Z</time></trkpt><trkpt lat="43.4900817" lon="11.6365317"><ele>243.33333333333334</ele><time>2026-05-03T13:21:50.64Z</time></trkpt><trkpt lat="43.4900333" lon="11.63661"><ele>243.66666666666669</ele><time>2026-05-03T13:21:51.67Z</time></trkpt><trkpt lat="43.490005" lon="11.6366967"><ele>244.0</ele><time>2026-05-03T13:21:52.649Z</time></trkpt><trkpt lat="43.48999" lon="11.636795"><ele>244.33333333333334</ele><time>2026-05-03T13:21:53.642Z</time></trkpt><trkpt lat="43.48999" lon="11.636905"><ele>244.66666666666669</ele><time>2026-05-03T13:21:54.648Z</time></trkpt><trkpt lat="43.490005" lon="11.6370233"><ele>245.0</ele><time>2026-05-03T13:21:55.656Z</time></trkpt><trkpt lat="43.4900083" lon="11.63715"><ele>245.66666666666669</ele><time>2026-05-03T13:21:56.648Z</time></trkpt><trkpt lat="43.4899983" lon="11.6372783"><ele>246.33333333333334</ele><time>2026-05-03T13:21:57.677Z</time></trkpt><trkpt lat="43.48997" lon="11.6373933"><ele>247.0</ele><time>2026-05-03T13:21:58.659Z</time></trkpt><trkpt lat="43.4899317" lon="11.6374917"><ele>247.66666666666669</ele><time>2026-05-03T13:21:59.639Z</time></trkpt><trkpt lat="43.4898783" lon="11.637585"><ele>248.33333333333334</ele><time>2026-05-03T13:22:00.641Z</time></trkpt><trkpt lat="43.4898133" lon="11.6376833"><ele>249.0</ele><time>2026-05-03T13:22:01.649Z</time></trkpt><trkpt lat="43.4897467" lon="11.6377817"><ele>248.79999999999998</ele><time>2026-05-03T13:22:02.643Z</time></trkpt><trkpt lat="43.4896867" lon="11.637875"><ele>248.59999999999997</ele><time>2026-05-03T13:22:03.635Z</time></trkpt><trkpt lat="43.4896167" lon="11.6379517"><ele>248.4</ele><time>2026-05-03T13:22:04.714Z</time></trkpt><trkpt lat="43.4895317" lon="11.6380417"><ele>248.2</ele><time>2026-05-03T13:22:05.693Z</time></trkpt><trkpt lat="43.4894467" lon="11.638095"><ele>248.0</ele><time>2026-05-03T13:22:06.651Z</time></trkpt><trkpt lat="43.48935" lon="11.63814"><ele>249.5</ele><time>2026-05-03T13:22:07.653Z</time></trkpt><trkpt lat="43.48924" lon="11.6381783"><ele>251.0</ele><time>2026-05-03T13:22:08.656Z</time></trkpt><trkpt lat="43.4891283" lon="11.6382117"><ele>252.5</ele><time>2026-05-03T13:22:09.645Z</time></trkpt><trkpt lat="43.4890133" lon="11.63825"><ele>254.0</ele><time>2026-05-03T13:22:10.668Z</time></trkpt><trkpt lat="43.4889067" lon="11.6383017"><ele>254.0</ele><time>2026-05-03T13:22:11.68Z</time></trkpt><trkpt lat="43.4888033" lon="11.6383667"><ele>254.0</ele><time>2026-05-03T13:22:12.67Z</time></trkpt><trkpt lat="43.4886967" lon="11.6384467"><ele>254.0</ele><time>2026-05-03T13:22:13.638Z</time></trkpt><trkpt lat="43.4885917" lon="11.6385367"><ele>254.0</ele><time>2026-05-03T13:22:14.644Z</time></trkpt><trkpt lat="43.4884817" lon="11.63863"><ele>254.0</ele><time>2026-05-03T13:22:15.649Z</time></trkpt><trkpt lat="43.4883667" lon="11.63873"><ele>254.0</ele><time>2026-05-03T13:22:16.655Z</time></trkpt><trkpt lat="43.48825" lon="11.6388267"><ele>254.0</ele><time>2026-05-03T13:22:17.655Z</time></trkpt><trkpt lat="43.488135" lon="11.6389267"><ele>254.0</ele><time>2026-05-03T13:22:18.653Z</time></trkpt><trkpt lat="43.488015" lon="11.6390267"><ele>254.5</ele><time>2026-05-03T13:22:19.673Z</time></trkpt><trkpt lat="43.4878917" lon="11.6391283"><ele>255.0</ele><time>2026-05-03T13:22:20.653Z</time></trkpt><trkpt lat="43.48777" lon="11.6392217"><ele>255.5</ele><time>2026-05-03T13:22:21.65Z</time></trkpt><trkpt lat="43.4876567" lon="11.63932"><ele>256.0</ele><time>2026-05-03T13:22:22.638Z</time></trkpt><trkpt lat="43.4875417" lon="11.639405"><ele>255.0</ele><time>2026-05-03T13:22:23.662Z</time></trkpt><trkpt lat="43.487435" lon="11.6394867"><ele>254.0</ele><time>2026-05-03T13:22:24.659Z</time></trkpt><trkpt lat="43.4873317" lon="11.6395533"><ele>253.0</ele><time>2026-05-03T13:22:25.652Z</time></trkpt><trkpt lat="43.4872233" lon="11.639605"><ele>252.0</ele><time>2026-05-03T13:22:26.658Z</time></trkpt><trkpt lat="43.4871017" lon="11.639645"><ele>252.75</ele><time>2026-05-03T13:22:27.647Z</time></trkpt><trkpt lat="43.4869683" lon="11.6396767"><ele>253.5</ele><time>2026-05-03T13:22:28.675Z</time></trkpt><trkpt lat="43.4868317" lon="11.63971"><ele>254.25</ele><time>2026-05-03T13:22:29.642Z</time></trkpt><trkpt lat="43.4866967" lon="11.6397467"><ele>255.0</ele><time>2026-05-03T13:22:30.653Z</time></trkpt><trkpt lat="43.48657" lon="11.63979"><ele>255.0</ele><time>2026-05-03T13:22:31.651Z</time></trkpt><trkpt lat="43.4864517" lon="11.639825"><ele>255.0</ele><time>2026-05-03T13:22:32.653Z</time></trkpt><trkpt lat="43.4863383" lon="11.6398533"><ele>255.0</ele><time>2026-05-03T13:22:33.655Z</time></trkpt><trkpt lat="43.4862383" lon="11.6398883"><ele>255.0</ele><time>2026-05-03T13:22:34.652Z</time></trkpt><trkpt lat="43.4861533" lon="11.6399417"><ele>255.0</ele><time>2026-05-03T13:22:35.655Z</time></trkpt><trkpt lat="43.4860733" lon="11.6399983"><ele>256.0</ele><time>2026-05-03T13:22:36.648Z</time></trkpt><trkpt lat="43.4860017" lon="11.6400483"><ele>257.0</ele><time>2026-05-03T13:22:37.636Z</time></trkpt><trkpt lat="43.4859367" lon="11.6400933"><ele>258.0</ele><time>2026-05-03T13:22:38.633Z</time></trkpt><trkpt lat="43.4858783" lon="11.6401317"><ele>259.0</ele><time>2026-05-03T13:22:39.644Z</time></trkpt><trkpt lat="43.4857983" lon="11.6401833"><ele>260.0</ele><time>2026-05-03T13:22:41.643Z</time></trkpt><trkpt lat="43.4857283" lon="11.64022"><ele>261.0</ele><time>2026-05-03T13:22:52.648Z</time></trkpt><trkpt lat="43.48563" lon="11.640305"><ele>261.0</ele><time>2026-05-03T13:22:54.636Z</time></trkpt><trkpt lat="43.48558" lon="11.640375"><ele>261.0</ele><time>2026-05-03T13:22:55.643Z</time></trkpt><trkpt lat="43.48553" lon="11.6404617"><ele>261.0</ele><time>2026-05-03T13:22:56.647Z</time></trkpt><trkpt lat="43.485485" lon="11.6405683"><ele>261.0</ele><time>2026-05-03T13:22:57.642Z</time></trkpt><trkpt lat="43.485435" lon="11.6406983"><ele>261.0</ele><time>2026-05-03T13:22:58.654Z</time></trkpt><trkpt lat="43.4853767" lon="11.6408383"><ele>260.25</ele><time>2026-05-03T13:22:59.655Z</time></trkpt><trkpt lat="43.485315" lon="11.640975"><ele>259.5</ele><time>2026-05-03T13:23:00.645Z</time></trkpt><trkpt lat="43.4852533" lon="11.6411183"><ele>258.75</ele><time>2026-05-03T13:23:01.65Z</time></trkpt><trkpt lat="43.4851917" lon="11.6412517"><ele>258.0</ele><time>2026-05-03T13:23:02.661Z</time></trkpt><trkpt lat="43.485125" lon="11.64138"><ele>259.4</ele><time>2026-05-03T13:23:03.65Z</time></trkpt><trkpt lat="43.4850633" lon="11.6415"><ele>260.8</ele><time>2026-05-03T13:23:04.655Z</time></trkpt><trkpt lat="43.4849983" lon="11.6416117"><ele>262.2</ele><time>2026-05-03T13:23:05.65Z</time></trkpt><trkpt lat="43.484935" lon="11.641725"><ele>263.6</ele><time>2026-05-03T13:23:06.648Z</time></trkpt><trkpt lat="43.4848733" lon="11.6418383"><ele>265.0</ele><time>2026-05-03T13:23:07.651Z</time></trkpt><trkpt lat="43.48482" lon="11.641945"><ele>266.16666666666663</ele><time>2026-05-03T13:23:08.648Z</time></trkpt><trkpt lat="43.48478" lon="11.6420433"><ele>267.3333333333333</ele><time>2026-05-03T13:23:09.682Z</time></trkpt><trkpt lat="43.48475" lon="11.6421317"><ele>268.5</ele><time>2026-05-03T13:23:10.641Z</time></trkpt><trkpt lat="43.4847333" lon="11.642255"><ele>269.6666666666667</ele><time>2026-05-03T13:23:12.64Z</time></trkpt><trkpt lat="43.4847667" lon="11.6423433"><ele>270.83333333333337</ele><time>2026-05-03T13:23:14.654Z</time></trkpt><trkpt lat="43.484835" lon="11.6424367"><ele>272.0</ele><time>2026-05-03T13:23:16.659Z</time></trkpt><trkpt lat="43.4849317" lon="11.6425567"><ele>272.0</ele><time>2026-05-03T13:23:18.641Z</time></trkpt><trkpt lat="43.4849633" lon="11.6426433"><ele>272.0</ele><time>2026-05-03T13:23:19.649Z</time></trkpt><trkpt lat="43.484985" lon="11.642745"><ele>272.0</ele><time>2026-05-03T13:23:20.655Z</time></trkpt><trkpt lat="43.4850033" lon="11.642865"><ele>272.0</ele><time>2026-05-03T13:23:21.651Z</time></trkpt><trkpt lat="43.485015" lon="11.6429983"><ele>272.0</ele><time>2026-05-03T13:23:22.672Z</time></trkpt><trkpt lat="43.485025" lon="11.6431367"><ele>272.0</ele><time>2026-05-03T13:23:23.649Z</time></trkpt><trkpt lat="43.4850317" lon="11.643265"><ele>273.2</ele><time>2026-05-03T13:23:24.658Z</time></trkpt><trkpt lat="43.485035" lon="11.6433917"><ele>274.4</ele><time>2026-05-03T13:23:25.652Z</time></trkpt><trkpt lat="43.4850333" lon="11.6435217"><ele>275.6</ele><time>2026-05-03T13:23:26.652Z</time></trkpt><trkpt lat="43.4850333" lon="11.6436567"><ele>276.8</ele><time>2026-05-03T13:23:27.651Z</time></trkpt><trkpt lat="43.4850317" lon="11.643795"><ele>278.0</ele><time>2026-05-03T13:23:28.657Z</time></trkpt><trkpt lat="43.48503" lon="11.6439267"><ele>279.6</ele><time>2026-05-03T13:23:29.653Z</time></trkpt><trkpt lat="43.48501" lon="11.6440617"><ele>281.20000000000005</ele><time>2026-05-03T13:23:30.65Z</time></trkpt><trkpt lat="43.4849867" lon="11.644185"><ele>282.8</ele><time>2026-05-03T13:23:31.663Z</time></trkpt><trkpt lat="43.4849517" lon="11.6442917"><ele>284.40000000000003</ele><time>2026-05-03T13:23:32.648Z</time></trkpt><trkpt lat="43.4849017" lon="11.644385"><ele>286.0</ele><time>2026-05-03T13:23:33.651Z</time></trkpt><trkpt lat="43.48485" lon="11.6444833"><ele>287.6</ele><time>2026-05-03T13:23:34.644Z</time></trkpt><trkpt lat="43.4848067" lon="11.6445783"><ele>289.20000000000005</ele><time>2026-05-03T13:23:35.647Z</time></trkpt><trkpt lat="43.4847683" lon="11.644675"><ele>290.79999999999995</ele><time>2026-05-03T13:23:36.648Z</time></trkpt><trkpt lat="43.4847333" lon="11.644795"><ele>292.4</ele><time>2026-05-03T13:23:37.646Z</time></trkpt><trkpt lat="43.4847067" lon="11.64492"><ele>294.0</ele><time>2026-05-03T13:23:38.647Z</time></trkpt><trkpt lat="43.4846933" lon="11.64506"><ele>294.0</ele><time>2026-05-03T13:23:39.645Z</time></trkpt><trkpt lat="43.484685" lon="11.6451867"><ele>294.0</ele><time>2026-05-03T13:23:40.648Z</time></trkpt><trkpt lat="43.484675" lon="11.6453117"><ele>294.0</ele><time>2026-05-03T13:23:41.65Z</time></trkpt><trkpt lat="43.4846717" lon="11.6454133"><ele>294.0</ele><time>2026-05-03T13:23:42.651Z</time></trkpt><trkpt lat="43.4846667" lon="11.6455733"><ele>294.0</ele><time>2026-05-03T13:23:44.656Z</time></trkpt><trkpt lat="43.4847" lon="11.6456717"><ele>296.4</ele><time>2026-05-03T13:23:46.651Z</time></trkpt><trkpt lat="43.4847833" lon="11.64572"><ele>298.79999999999995</ele><time>2026-05-03T13:23:48.646Z</time></trkpt><trkpt lat="43.4849017" lon="11.6457533"><ele>301.20000000000005</ele><time>2026-05-03T13:23:50.653Z</time></trkpt><trkpt lat="43.485" lon="11.6458117"><ele>303.6</ele><time>2026-05-03T13:23:52.646Z</time></trkpt><trkpt lat="43.485005" lon="11.6459183"><ele>306.0</ele><time>2026-05-03T13:23:54.646Z</time></trkpt><trkpt lat="43.4849483" lon="11.6460333"><ele>306.0</ele><time>2026-05-03T13:23:56.643Z</time></trkpt><trkpt lat="43.4849017" lon="11.6460967"><ele>306.0</ele><time>2026-05-03T13:23:57.64Z</time></trkpt><trkpt lat="43.484855" lon="11.6461733"><ele>306.0</ele><time>2026-05-03T13:23:58.675Z</time></trkpt><trkpt lat="43.484815" lon="11.646255"><ele>306.0</ele><time>2026-05-03T13:23:59.654Z</time></trkpt><trkpt lat="43.484795" lon="11.6463933"><ele>306.0</ele><time>2026-05-03T13:24:01.656Z</time></trkpt><trkpt lat="43.484835" lon="11.646555"><ele>306.0</ele><time>2026-05-03T13:24:03.656Z</time></trkpt><trkpt lat="43.4848783" lon="11.6466483"><ele>308.0</ele><time>2026-05-03T13:24:04.663Z</time></trkpt><trkpt lat="43.484915" lon="11.64674"><ele>310.0</ele><time>2026-05-03T13:24:05.657Z</time></trkpt><trkpt lat="43.48495" lon="11.64691"><ele>312.0</ele><time>2026-05-03T13:24:07.656Z</time></trkpt><trkpt lat="43.48491" lon="11.6470833"><ele>314.0</ele><time>2026-05-03T13:24:09.653Z</time></trkpt><trkpt lat="43.48487" lon="11.6471833"><ele>316.0</ele><time>2026-05-03T13:24:10.644Z</time></trkpt><trkpt lat="43.48484" lon="11.6472883"><ele>317.20000000000005</ele><time>2026-05-03T13:24:11.674Z</time></trkpt><trkpt lat="43.484825" lon="11.6473933"><ele>318.40000000000003</ele><time>2026-05-03T13:24:12.631Z</time></trkpt><trkpt lat="43.4848133" lon="11.6475067"><ele>319.6</ele><time>2026-05-03T13:24:13.65Z</time></trkpt><trkpt lat="43.4848" lon="11.6476367"><ele>320.8</ele><time>2026-05-03T13:24:14.644Z</time></trkpt><trkpt lat="43.4847933" lon="11.6477783"><ele>322.0</ele><time>2026-05-03T13:24:15.649Z</time></trkpt><trkpt lat="43.4847883" lon="11.64793"><ele>322.6</ele><time>2026-05-03T13:24:16.65Z</time></trkpt><trkpt lat="43.48479" lon="11.6480833"><ele>323.20000000000005</ele><time>2026-05-03T13:24:17.636Z</time></trkpt><trkpt lat="43.4847967" lon="11.6482367"><ele>323.8</ele><time>2026-05-03T13:24:18.648Z</time></trkpt><trkpt lat="43.4848083" lon="11.64839"><ele>324.4</ele><time>2026-05-03T13:24:19.651Z</time></trkpt><trkpt lat="43.484835" lon="11.6485383"><ele>325.0</ele><time>2026-05-03T13:24:20.658Z</time></trkpt><trkpt lat="43.4848617" lon="11.64869"><ele>326.2</ele><time>2026-05-03T13:24:21.655Z</time></trkpt><trkpt lat="43.4848917" lon="11.6488433"><ele>327.4</ele><time>2026-05-03T13:24:22.646Z</time></trkpt><trkpt lat="43.48494" lon="11.6489933"><ele>328.6</ele><time>2026-05-03T13:24:23.647Z</time></trkpt><trkpt lat="43.48499" lon="11.6491333"><ele>329.8</ele><time>2026-05-03T13:24:24.651Z</time></trkpt><trkpt lat="43.485025" lon="11.6492633"><ele>331.0</ele><time>2026-05-03T13:24:25.656Z</time></trkpt><trkpt lat="43.48504" lon="11.649385"><ele>332.8</ele><time>2026-05-03T13:24:26.653Z</time></trkpt><trkpt lat="43.485045" lon="11.6495217"><ele>334.6</ele><time>2026-05-03T13:24:27.673Z</time></trkpt><trkpt lat="43.4850567" lon="11.6496567"><ele>336.4</ele><time>2026-05-03T13:24:28.644Z</time></trkpt><trkpt lat="43.4850633" lon="11.6498133"><ele>338.2</ele><time>2026-05-03T13:24:29.653Z</time></trkpt><trkpt lat="43.4850717" lon="11.6499733"><ele>340.0</ele><time>2026-05-03T13:24:30.647Z</time></trkpt><trkpt lat="43.4850867" lon="11.65014"><ele>342.0</ele><time>2026-05-03T13:24:31.648Z</time></trkpt><trkpt lat="43.4851067" lon="11.650305"><ele>344.0</ele><time>2026-05-03T13:24:32.638Z</time></trkpt><trkpt lat="43.485125" lon="11.6504667"><ele>346.0</ele><time>2026-05-03T13:24:33.646Z</time></trkpt><trkpt lat="43.485125" lon="11.65064"><ele>348.0</ele><time>2026-05-03T13:24:34.642Z</time></trkpt><trkpt lat="43.485125" lon="11.6508"><ele>348.0</ele><time>2026-05-03T13:24:35.645Z</time></trkpt><trkpt lat="43.48514" lon="11.6509717"><ele>348.0</ele><time>2026-05-03T13:24:36.644Z</time></trkpt><trkpt lat="43.48516" lon="11.651135"><ele>348.0</ele><time>2026-05-03T13:24:37.649Z</time></trkpt><trkpt lat="43.48518" lon="11.65131"><ele>348.0</ele><time>2026-05-03T13:24:38.66Z</time></trkpt><trkpt lat="43.48519" lon="11.6514883"><ele>349.75</ele><time>2026-05-03T13:24:39.655Z</time></trkpt><trkpt lat="43.4851867" lon="11.651665"><ele>351.5</ele><time>2026-05-03T13:24:40.667Z</time></trkpt><trkpt lat="43.4851917" lon="11.6518367"><ele>353.25</ele><time>2026-05-03T13:24:41.643Z</time></trkpt><trkpt lat="43.4852017" lon="11.65201"><ele>355.0</ele><time>2026-05-03T13:24:42.643Z</time></trkpt><trkpt lat="43.485215" lon="11.6521667"><ele>356.4</ele><time>2026-05-03T13:24:43.648Z</time></trkpt><trkpt lat="43.4852333" lon="11.65231"><ele>357.8</ele><time>2026-05-03T13:24:44.644Z</time></trkpt><trkpt lat="43.4852467" lon="11.65245"><ele>359.20000000000005</ele><time>2026-05-03T13:24:45.649Z</time></trkpt><trkpt lat="43.4852717" lon="11.6525733"><ele>360.6</ele><time>2026-05-03T13:24:46.644Z</time></trkpt><trkpt lat="43.4852767" lon="11.652705"><ele>362.0</ele><time>2026-05-03T13:24:47.635Z</time></trkpt><trkpt lat="43.48527" lon="11.6528383"><ele>362.83333333333337</ele><time>2026-05-03T13:24:48.643Z</time></trkpt><trkpt lat="43.4852567" lon="11.652965"><ele>363.6666666666667</ele><time>2026-05-03T13:24:49.649Z</time></trkpt><trkpt lat="43.4852383" lon="11.653085"><ele>364.5</ele><time>2026-05-03T13:24:50.652Z</time></trkpt><trkpt lat="43.48522" lon="11.6531933"><ele>365.3333333333333</ele><time>2026-05-03T13:24:51.654Z</time></trkpt><trkpt lat="43.4851983" lon="11.6532917"><ele>366.16666666666663</ele><time>2026-05-03T13:24:52.666Z</time></trkpt><trkpt lat="43.48517" lon="11.6533967"><ele>367.0</ele><time>2026-05-03T13:24:53.641Z</time></trkpt><trkpt lat="43.4851317" lon="11.6535"><ele>367.0</ele><time>2026-05-03T13:24:54.649Z</time></trkpt><trkpt lat="43.4850767" lon="11.6536117"><ele>367.0</ele><time>2026-05-03T13:24:55.643Z</time></trkpt><trkpt lat="43.4850167" lon="11.653715"><ele>367.0</ele><time>2026-05-03T13:24:56.671Z</time></trkpt><trkpt lat="43.484955" lon="11.65382"><ele>367.0</ele><time>2026-05-03T13:24:57.645Z</time></trkpt><trkpt lat="43.4848983" lon="11.6539233"><ele>367.0</ele><time>2026-05-03T13:24:58.643Z</time></trkpt><trkpt lat="43.484855" lon="11.65405"><ele>366.40000000000003</ele><time>2026-05-03T13:24:59.644Z</time></trkpt><trkpt lat="43.484815" lon="11.654185"><ele>365.8</ele><time>2026-05-03T13:25:00.633Z</time></trkpt><trkpt lat="43.48478" lon="11.6543317"><ele>365.2</ele><time>2026-05-03T13:25:01.65Z</time></trkpt><trkpt lat="43.484745" lon="11.6544717"><ele>364.6</ele><time>2026-05-03T13:25:02.639Z</time></trkpt><trkpt lat="43.4847" lon="11.6545967"><ele>364.0</ele><time>2026-05-03T13:25:03.646Z</time></trkpt><trkpt lat="43.484635" lon="11.6547017"><ele>364.6</ele><time>2026-05-03T13:25:04.645Z</time></trkpt><trkpt lat="43.4845733" lon="11.6548033"><ele>365.2</ele><time>2026-05-03T13:25:05.647Z</time></trkpt><trkpt lat="43.4845233" lon="11.6549083"><ele>365.8</ele><time>2026-05-03T13:25:06.644Z</time></trkpt><trkpt lat="43.48448" lon="11.6550033"><ele>366.40000000000003</ele><time>2026-05-03T13:25:07.648Z</time></trkpt><trkpt lat="43.48443" lon="11.6550817"><ele>367.0</ele><time>2026-05-03T13:25:08.641Z</time></trkpt><trkpt lat="43.4843283" lon="11.6551233"><ele>367.0</ele><time>2026-05-03T13:25:10.66Z</time></trkpt><trkpt lat="43.4842667" lon="11.6551"><ele>367.0</ele><time>2026-05-03T13:25:11.641Z</time></trkpt><trkpt lat="43.484195" lon="11.65506"><ele>367.0</ele><time>2026-05-03T13:25:12.683Z</time></trkpt><trkpt lat="43.4841033" lon="11.6550217"><ele>367.0</ele><time>2026-05-03T13:25:13.647Z</time></trkpt><trkpt lat="43.4840017" lon="11.6549867"><ele>367.0</ele><time>2026-05-03T13:25:14.648Z</time></trkpt><trkpt lat="43.4838917" lon="11.6549583"><ele>367.0</ele><time>2026-05-03T13:25:15.635Z</time></trkpt><trkpt lat="43.4837733" lon="11.6549317"><ele>367.0</ele><time>2026-05-03T13:25:16.643Z</time></trkpt><trkpt lat="43.4836533" lon="11.6549083"><ele>367.0</ele><time>2026-05-03T13:25:17.648Z</time></trkpt><trkpt lat="43.48354" lon="11.6548733"><ele>367.0</ele><time>2026-05-03T13:25:18.651Z</time></trkpt><trkpt lat="43.4834333" lon="11.654845"><ele>367.0</ele><time>2026-05-03T13:25:19.642Z</time></trkpt><trkpt lat="43.4833267" lon="11.6548133"><ele>367.0</ele><time>2026-05-03T13:25:20.649Z</time></trkpt><trkpt lat="43.483215" lon="11.6547933"><ele>367.0</ele><time>2026-05-03T13:25:21.652Z</time></trkpt><trkpt lat="43.483105" lon="11.6547767"><ele>367.0</ele><time>2026-05-03T13:25:22.643Z</time></trkpt><trkpt lat="43.4829933" lon="11.6547633"><ele>367.0</ele><time>2026-05-03T13:25:23.646Z</time></trkpt><trkpt lat="43.4828767" lon="11.65476"><ele>367.25</ele><time>2026-05-03T13:25:24.642Z</time></trkpt><trkpt lat="43.4827567" lon="11.65475"><ele>367.5</ele><time>2026-05-03T13:25:25.651Z</time></trkpt><trkpt lat="43.4826333" lon="11.6547383"><ele>367.75</ele><time>2026-05-03T13:25:26.645Z</time></trkpt><trkpt lat="43.4825267" lon="11.6547433"><ele>368.0</ele><time>2026-05-03T13:25:27.647Z</time></trkpt><trkpt lat="43.4824133" lon="11.6547517"><ele>368.0</ele><time>2026-05-03T13:25:28.637Z</time></trkpt><trkpt lat="43.4823017" lon="11.6547733"><ele>368.0</ele><time>2026-05-03T13:25:29.644Z</time></trkpt><trkpt lat="43.4821983" lon="11.6548133"><ele>368.0</ele><time>2026-05-03T13:25:30.647Z</time></trkpt><trkpt lat="43.4821017" lon="11.6548733"><ele>368.0</ele><time>2026-05-03T13:25:31.649Z</time></trkpt><trkpt lat="43.481985" lon="11.65495"><ele>369.25</ele><time>2026-05-03T13:25:32.647Z</time></trkpt><trkpt lat="43.4818717" lon="11.655035"><ele>370.5</ele><time>2026-05-03T13:25:33.646Z</time></trkpt><trkpt lat="43.4817633" lon="11.6551133"><ele>371.75</ele><time>2026-05-03T13:25:34.646Z</time></trkpt><trkpt lat="43.4816667" lon="11.6551833"><ele>373.0</ele><time>2026-05-03T13:25:35.649Z</time></trkpt><trkpt lat="43.4815867" lon="11.6552383"><ele>373.0</ele><time>2026-05-03T13:25:36.654Z</time></trkpt><trkpt lat="43.481515" lon="11.6552733"><ele>373.0</ele><time>2026-05-03T13:25:37.652Z</time></trkpt><trkpt lat="43.481405" lon="11.6553"><ele>373.0</ele><time>2026-05-03T13:25:39.639Z</time></trkpt><trkpt lat="43.4813317" lon="11.6552767"><ele>373.0</ele><time>2026-05-03T13:25:41.666Z</time></trkpt><trkpt lat="43.4812567" lon="11.65518"><ele>373.0</ele><time>2026-05-03T13:25:43.647Z</time></trkpt><trkpt lat="43.4812067" lon="11.65511"><ele>373.0</ele><time>2026-05-03T13:25:44.647Z</time></trkpt><trkpt lat="43.481155" lon="11.655025"><ele>374.3333333333333</ele><time>2026-05-03T13:25:45.648Z</time></trkpt><trkpt lat="43.4811067" lon="11.65494"><ele>375.66666666666663</ele><time>2026-05-03T13:25:46.637Z</time></trkpt><trkpt lat="43.4810533" lon="11.654855"><ele>377.0</ele><time>2026-05-03T13:25:47.64Z</time></trkpt><trkpt lat="43.4810033" lon="11.6547733"><ele>378.3333333333333</ele><time>2026-05-03T13:25:48.64Z</time></trkpt><trkpt lat="43.4809433" lon="11.6547017"><ele>379.6666666666667</ele><time>2026-05-03T13:25:49.655Z</time></trkpt><trkpt lat="43.480875" lon="11.6546233"><ele>381.0</ele><time>2026-05-03T13:25:50.647Z</time></trkpt><trkpt lat="43.4808" lon="11.65455"><ele>381.0</ele><time>2026-05-03T13:25:51.645Z</time></trkpt><trkpt lat="43.48072" lon="11.6544617"><ele>381.0</ele><time>2026-05-03T13:25:52.64Z</time></trkpt><trkpt lat="43.4806533" lon="11.654375"><ele>381.0</ele><time>2026-05-03T13:25:53.643Z</time></trkpt><trkpt lat="43.4805933" lon="11.65429"><ele>381.0</ele><time>2026-05-03T13:25:54.634Z</time></trkpt><trkpt lat="43.480545" lon="11.6542033"><ele>381.0</ele><time>2026-05-03T13:25:55.646Z</time></trkpt><trkpt lat="43.4804983" lon="11.6541083"><ele>381.0</ele><time>2026-05-03T13:25:56.643Z</time></trkpt><trkpt lat="43.4804683" lon="11.6540083"><ele>380.8333333333333</ele><time>2026-05-03T13:25:57.649Z</time></trkpt><trkpt lat="43.480435" lon="11.6539"><ele>380.6666666666667</ele><time>2026-05-03T13:25:58.64Z</time></trkpt><trkpt lat="43.480415" lon="11.6537867"><ele>380.5</ele><time>2026-05-03T13:25:59.663Z</time></trkpt><trkpt lat="43.4803933" lon="11.6536783"><ele>380.33333333333337</ele><time>2026-05-03T13:26:00.658Z</time></trkpt><trkpt lat="43.48038" lon="11.6535917"><ele>380.1666666666667</ele><time>2026-05-03T13:26:01.645Z</time></trkpt><trkpt lat="43.480375" lon="11.6534783"><ele>380.0</ele><time>2026-05-03T13:26:04.636Z</time></trkpt><trkpt lat="43.480385" lon="11.653365"><ele>380.42857142857144</ele><time>2026-05-03T13:26:07.644Z</time></trkpt><trkpt lat="43.4803717" lon="11.6532733"><ele>380.8571428571429</ele><time>2026-05-03T13:26:10.65Z</time></trkpt><trkpt lat="43.4803667" lon="11.6531717"><ele>381.2857142857143</ele><time>2026-05-03T13:26:13.64Z</time></trkpt><trkpt lat="43.48041" lon="11.6532617"><ele>381.7142857142857</ele><time>2026-05-03T13:26:18.646Z</time></trkpt><trkpt lat="43.48041" lon="11.6533517"><ele>382.1428571428571</ele><time>2026-05-03T13:26:20.65Z</time></trkpt><trkpt lat="43.4804067" lon="11.65345"><ele>382.57142857142856</ele><time>2026-05-03T13:26:23.646Z</time></trkpt><trkpt lat="43.480345" lon="11.65347"><ele>383.0</ele><time>2026-05-03T13:26:28.648Z</time></trkpt><trkpt lat="43.4802717" lon="11.6535483"><ele>383.0</ele><time>2026-05-03T13:26:31.649Z</time></trkpt><trkpt lat="43.4802033" lon="11.6536833"><ele>383.0</ele><time>2026-05-03T13:26:49.645Z</time></trkpt><trkpt lat="43.4801633" lon="11.65379"><ele>383.0</ele><time>2026-05-03T13:26:51.64Z</time></trkpt><trkpt lat="43.480145" lon="11.6539383"><ele>383.0</ele><time>2026-05-03T13:26:53.644Z</time></trkpt><trkpt lat="43.4801367" lon="11.6540317"><ele>383.0</ele><time>2026-05-03T13:26:54.641Z</time></trkpt><trkpt lat="43.4801383" lon="11.6541417"><ele>383.0</ele><time>2026-05-03T13:26:55.641Z</time></trkpt><trkpt lat="43.4801483" lon="11.65426"><ele>383.0</ele><time>2026-05-03T13:26:56.656Z</time></trkpt><trkpt lat="43.48015" lon="11.6543817"><ele>383.0</ele><time>2026-05-03T13:26:57.645Z</time></trkpt><trkpt lat="43.4801583" lon="11.6544917"><ele>383.0</ele><time>2026-05-03T13:26:58.652Z</time></trkpt><trkpt lat="43.4801617" lon="11.6545933"><ele>383.0</ele><time>2026-05-03T13:26:59.648Z</time></trkpt><trkpt lat="43.4801733" lon="11.6546933"><ele>383.0</ele><time>2026-05-03T13:27:00.648Z</time></trkpt><trkpt lat="43.4801783" lon="11.6547833"><ele>382.85714285714283</ele><time>2026-05-03T13:27:01.649Z</time></trkpt><trkpt lat="43.4801833" lon="11.6548817"><ele>382.71428571428567</ele><time>2026-05-03T13:27:02.641Z</time></trkpt><trkpt lat="43.4801933" lon="11.6549783"><ele>382.57142857142856</ele><time>2026-05-03T13:27:03.64Z</time></trkpt><trkpt lat="43.4802067" lon="11.6550733"><ele>382.42857142857144</ele><time>2026-05-03T13:27:04.638Z</time></trkpt><trkpt lat="43.48022" lon="11.6551667"><ele>382.2857142857143</ele><time>2026-05-03T13:27:05.642Z</time></trkpt><trkpt lat="43.4802317" lon="11.6552583"><ele>382.14285714285717</ele><time>2026-05-03T13:27:06.64Z</time></trkpt><trkpt lat="43.48024" lon="11.6553467"><ele>382.0</ele><time>2026-05-03T13:27:07.653Z</time></trkpt><trkpt lat="43.4802467" lon="11.6554333"><ele>381.8333333333333</ele><time>2026-05-03T13:27:08.65Z</time></trkpt><trkpt lat="43.480245" lon="11.6555867"><ele>381.66666666666663</ele><time>2026-05-03T13:27:10.652Z</time></trkpt><trkpt lat="43.4802583" lon="11.65575"><ele>381.5</ele><time>2026-05-03T13:27:12.659Z</time></trkpt><trkpt lat="43.4802783" lon="11.655835"><ele>381.3333333333333</ele><time>2026-05-03T13:27:13.648Z</time></trkpt><trkpt lat="43.480285" lon="11.6559283"><ele>381.1666666666667</ele><time>2026-05-03T13:27:14.656Z</time></trkpt><trkpt lat="43.4802817" lon="11.656035"><ele>381.0</ele><time>2026-05-03T13:27:15.65Z</time></trkpt><trkpt lat="43.4802717" lon="11.65615"><ele>380.4</ele><time>2026-05-03T13:27:16.674Z</time></trkpt><trkpt lat="43.48027" lon="11.6562633"><ele>379.8</ele><time>2026-05-03T13:27:17.681Z</time></trkpt><trkpt lat="43.4802717" lon="11.65638"><ele>379.2</ele><time>2026-05-03T13:27:18.659Z</time></trkpt><trkpt lat="43.4802633" lon="11.65652"><ele>378.59999999999997</ele><time>2026-05-03T13:27:19.666Z</time></trkpt><trkpt lat="43.48026" lon="11.6566533"><ele>378.0</ele><time>2026-05-03T13:27:20.651Z</time></trkpt><trkpt lat="43.480255" lon="11.6567717"><ele>378.0</ele><time>2026-05-03T13:27:21.659Z</time></trkpt><trkpt lat="43.4802533" lon="11.656895"><ele>378.0</ele><time>2026-05-03T13:27:22.657Z</time></trkpt><trkpt lat="43.4802567" lon="11.6570133"><ele>378.0</ele><time>2026-05-03T13:27:23.653Z</time></trkpt><trkpt lat="43.480255" lon="11.657135"><ele>378.0</ele><time>2026-05-03T13:27:24.66Z</time></trkpt><trkpt lat="43.4802617" lon="11.6572583"><ele>378.0</ele><time>2026-05-03T13:27:25.648Z</time></trkpt><trkpt lat="43.4802783" lon="11.657375"><ele>378.0</ele><time>2026-05-03T13:27:26.65Z</time></trkpt><trkpt lat="43.4803067" lon="11.6574883"><ele>376.2</ele><time>2026-05-03T13:27:27.643Z</time></trkpt><trkpt lat="43.4803333" lon="11.6576017"><ele>374.4</ele><time>2026-05-03T13:27:28.646Z</time></trkpt><trkpt lat="43.4803633" lon="11.6577083"><ele>372.59999999999997</ele><time>2026-05-03T13:27:29.65Z</time></trkpt><trkpt lat="43.480385" lon="11.6578217"><ele>370.79999999999995</ele><time>2026-05-03T13:27:30.643Z</time></trkpt><trkpt lat="43.4804033" lon="11.6579567"><ele>369.0</ele><time>2026-05-03T13:27:31.676Z</time></trkpt><trkpt lat="43.4804283" lon="11.6580967"><ele>365.75</ele><time>2026-05-03T13:27:32.649Z</time></trkpt><trkpt lat="43.4804533" lon="11.658245"><ele>362.5</ele><time>2026-05-03T13:27:33.656Z</time></trkpt><trkpt lat="43.4804717" lon="11.6584083"><ele>359.25</ele><time>2026-05-03T13:27:34.644Z</time></trkpt><trkpt lat="43.48049" lon="11.658575"><ele>356.0</ele><time>2026-05-03T13:27:35.654Z</time></trkpt><trkpt lat="43.4804967" lon="11.6587333"><ele>355.25</ele><time>2026-05-03T13:27:36.644Z</time></trkpt><trkpt lat="43.480505" lon="11.6588933"><ele>354.5</ele><time>2026-05-03T13:27:37.655Z</time></trkpt><trkpt lat="43.4805217" lon="11.6590583"><ele>353.75</ele><time>2026-05-03T13:27:38.647Z</time></trkpt><trkpt lat="43.4805383" lon="11.6592183"><ele>353.0</ele><time>2026-05-03T13:27:39.656Z</time></trkpt><trkpt lat="43.48055" lon="11.6593833"><ele>353.2</ele><time>2026-05-03T13:27:40.655Z</time></trkpt><trkpt lat="43.4805567" lon="11.6595417"><ele>353.4</ele><time>2026-05-03T13:27:41.646Z</time></trkpt><trkpt lat="43.480555" lon="11.65969"><ele>353.59999999999997</ele><time>2026-05-03T13:27:42.649Z</time></trkpt><trkpt lat="43.4805517" lon="11.6598333"><ele>353.79999999999995</ele><time>2026-05-03T13:27:43.644Z</time></trkpt><trkpt lat="43.4805383" lon="11.659985"><ele>354.0</ele><time>2026-05-03T13:27:44.64Z</time></trkpt><trkpt lat="43.4805233" lon="11.6601517"><ele>355.0</ele><time>2026-05-03T13:27:45.649Z</time></trkpt><trkpt lat="43.4805017" lon="11.6603083"><ele>356.0</ele><time>2026-05-03T13:27:46.647Z</time></trkpt><trkpt lat="43.480485" lon="11.6604667"><ele>357.0</ele><time>2026-05-03T13:27:47.674Z</time></trkpt><trkpt lat="43.4804733" lon="11.6606283"><ele>358.0</ele><time>2026-05-03T13:27:48.64Z</time></trkpt><trkpt lat="43.48045" lon="11.6607967"><ele>358.0</ele><time>2026-05-03T13:27:49.649Z</time></trkpt><trkpt lat="43.4804383" lon="11.66095"><ele>358.0</ele><time>2026-05-03T13:27:50.642Z</time></trkpt><trkpt lat="43.48042" lon="11.6610933"><ele>358.0</ele><time>2026-05-03T13:27:51.641Z</time></trkpt><trkpt lat="43.48039" lon="11.6612367"><ele>358.0</ele><time>2026-05-03T13:27:52.643Z</time></trkpt><trkpt lat="43.48036" lon="11.6613817"><ele>358.0</ele><time>2026-05-03T13:27:53.65Z</time></trkpt><trkpt lat="43.4803267" lon="11.6615233"><ele>355.79999999999995</ele><time>2026-05-03T13:27:54.644Z</time></trkpt><trkpt lat="43.4802917" lon="11.6616483"><ele>353.6</ele><time>2026-05-03T13:27:55.637Z</time></trkpt><trkpt lat="43.4802517" lon="11.6617633"><ele>351.4</ele><time>2026-05-03T13:27:56.656Z</time></trkpt><trkpt lat="43.48021" lon="11.6618783"><ele>349.20000000000005</ele><time>2026-05-03T13:27:57.653Z</time></trkpt><trkpt lat="43.4801817" lon="11.662005"><ele>347.0</ele><time>2026-05-03T13:27:58.654Z</time></trkpt><trkpt lat="43.4801617" lon="11.6621367"><ele>347.0</ele><time>2026-05-03T13:27:59.653Z</time></trkpt><trkpt lat="43.4801517" lon="11.6622683"><ele>347.0</ele><time>2026-05-03T13:28:00.656Z</time></trkpt><trkpt lat="43.48014" lon="11.6624117"><ele>347.0</ele><time>2026-05-03T13:28:01.661Z</time></trkpt><trkpt lat="43.480135" lon="11.6625517"><ele>347.0</ele><time>2026-05-03T13:28:02.656Z</time></trkpt><trkpt lat="43.48013" lon="11.66269"><ele>347.0</ele><time>2026-05-03T13:28:03.678Z</time></trkpt><trkpt lat="43.4801183" lon="11.662815"><ele>347.0</ele><time>2026-05-03T13:28:04.65Z</time></trkpt><trkpt lat="43.480105" lon="11.6629333"><ele>347.0</ele><time>2026-05-03T13:28:05.652Z</time></trkpt><trkpt lat="43.4800917" lon="11.663045"><ele>347.0</ele><time>2026-05-03T13:28:06.646Z</time></trkpt><trkpt lat="43.4800783" lon="11.6631583"><ele>347.0</ele><time>2026-05-03T13:28:07.648Z</time></trkpt><trkpt lat="43.4800783" lon="11.6632733"><ele>347.0</ele><time>2026-05-03T13:28:08.647Z</time></trkpt><trkpt lat="43.4800883" lon="11.6633983"><ele>347.0</ele><time>2026-05-03T13:28:09.639Z</time></trkpt><trkpt lat="43.4801083" lon="11.663525"><ele>346.40000000000003</ele><time>2026-05-03T13:28:10.635Z</time></trkpt><trkpt lat="43.4801333" lon="11.663655"><ele>345.8</ele><time>2026-05-03T13:28:11.642Z</time></trkpt><trkpt lat="43.4801583" lon="11.6637867"><ele>345.2</ele><time>2026-05-03T13:28:12.638Z</time></trkpt><trkpt lat="43.4801883" lon="11.6639183"><ele>344.6</ele><time>2026-05-03T13:28:13.643Z</time></trkpt><trkpt lat="43.4802217" lon="11.6640383"><ele>344.0</ele><time>2026-05-03T13:28:14.645Z</time></trkpt><trkpt lat="43.4802517" lon="11.6641583"><ele>344.0</ele><time>2026-05-03T13:28:15.641Z</time></trkpt><trkpt lat="43.4802867" lon="11.6642817"><ele>344.0</ele><time>2026-05-03T13:28:16.673Z</time></trkpt><trkpt lat="43.4803183" lon="11.66441"><ele>344.0</ele><time>2026-05-03T13:28:17.644Z</time></trkpt><trkpt lat="43.4803517" lon="11.6645383"><ele>344.0</ele><time>2026-05-03T13:28:18.645Z</time></trkpt><trkpt lat="43.480385" lon="11.6646617"><ele>344.0</ele><time>2026-05-03T13:28:19.654Z</time></trkpt><trkpt lat="43.4804167" lon="11.6647867"><ele>343.0</ele><time>2026-05-03T13:28:20.642Z</time></trkpt><trkpt lat="43.4804467" lon="11.6648983"><ele>342.0</ele><time>2026-05-03T13:28:21.676Z</time></trkpt><trkpt lat="43.4804783" lon="11.6650017"><ele>341.0</ele><time>2026-05-03T13:28:22.649Z</time></trkpt><trkpt lat="43.4805117" lon="11.6651117"><ele>340.0</ele><time>2026-05-03T13:28:23.658Z</time></trkpt><trkpt lat="43.48055" lon="11.6652217"><ele>339.0</ele><time>2026-05-03T13:28:24.649Z</time></trkpt><trkpt lat="43.4805867" lon="11.66533"><ele>338.0</ele><time>2026-05-03T13:28:25.634Z</time></trkpt><trkpt lat="43.4806183" lon="11.6654267"><ele>338.0</ele><time>2026-05-03T13:28:26.645Z</time></trkpt><trkpt lat="43.4806533" lon="11.6655283"><ele>338.0</ele><time>2026-05-03T13:28:27.64Z</time></trkpt><trkpt lat="43.4806883" lon="11.6656283"><ele>338.0</ele><time>2026-05-03T13:28:28.67Z</time></trkpt><trkpt lat="43.4807217" lon="11.6657217"><ele>338.0</ele><time>2026-05-03T13:28:29.649Z</time></trkpt><trkpt lat="43.4807517" lon="11.66581"><ele>338.0</ele><time>2026-05-03T13:28:30.652Z</time></trkpt><trkpt lat="43.4807817" lon="11.6658983"><ele>338.0</ele><time>2026-05-03T13:28:31.654Z</time></trkpt><trkpt lat="43.4808217" lon="11.6659933"><ele>338.0</ele><time>2026-05-03T13:28:32.653Z</time></trkpt><trkpt lat="43.480855" lon="11.6660817"><ele>338.0</ele><time>2026-05-03T13:28:33.645Z</time></trkpt><trkpt lat="43.4808833" lon="11.666175"><ele>338.0</ele><time>2026-05-03T13:28:34.682Z</time></trkpt><trkpt lat="43.4809133" lon="11.6662817"><ele>338.0</ele><time>2026-05-03T13:28:35.649Z</time></trkpt><trkpt lat="43.4809433" lon="11.6664"><ele>338.0</ele><time>2026-05-03T13:28:36.661Z</time></trkpt><trkpt lat="43.48098" lon="11.6665217"><ele>338.0</ele><time>2026-05-03T13:28:37.671Z</time></trkpt><trkpt lat="43.4810117" lon="11.6666417"><ele>336.2</ele><time>2026-05-03T13:28:38.649Z</time></trkpt><trkpt lat="43.4810433" lon="11.6667617"><ele>334.4</ele><time>2026-05-03T13:28:39.692Z</time></trkpt><trkpt lat="43.4810717" lon="11.666885"><ele>332.59999999999997</ele><time>2026-05-03T13:28:40.678Z</time></trkpt><trkpt lat="43.4811117" lon="11.66701"><ele>330.79999999999995</ele><time>2026-05-03T13:28:41.654Z</time></trkpt><trkpt lat="43.48115" lon="11.6671367"><ele>329.0</ele><time>2026-05-03T13:28:42.654Z</time></trkpt><trkpt lat="43.4811833" lon="11.66727"><ele>326.8</ele><time>2026-05-03T13:28:43.641Z</time></trkpt><trkpt lat="43.4812" lon="11.6674067"><ele>324.59999999999997</ele><time>2026-05-03T13:28:44.681Z</time></trkpt><trkpt lat="43.4812183" lon="11.667535"><ele>322.4</ele><time>2026-05-03T13:28:45.656Z</time></trkpt><trkpt lat="43.481235" lon="11.6676633"><ele>320.2</ele><time>2026-05-03T13:28:46.642Z</time></trkpt><trkpt lat="43.4812333" lon="11.6677867"><ele>318.0</ele><time>2026-05-03T13:28:47.659Z</time></trkpt><trkpt lat="43.4812183" lon="11.6679117"><ele>317.4</ele><time>2026-05-03T13:28:48.658Z</time></trkpt><trkpt lat="43.4811917" lon="11.668035"><ele>316.8</ele><time>2026-05-03T13:28:49.66Z</time></trkpt><trkpt lat="43.481155" lon="11.6681633"><ele>316.2</ele><time>2026-05-03T13:28:50.648Z</time></trkpt><trkpt lat="43.4811317" lon="11.6682867"><ele>315.6</ele><time>2026-05-03T13:28:51.653Z</time></trkpt><trkpt lat="43.48111" lon="11.668405"><ele>315.0</ele><time>2026-05-03T13:28:52.658Z</time></trkpt><trkpt lat="43.4810917" lon="11.6685267"><ele>314.5</ele><time>2026-05-03T13:28:53.66Z</time></trkpt><trkpt lat="43.4810733" lon="11.6686483"><ele>314.0</ele><time>2026-05-03T13:28:54.643Z</time></trkpt><trkpt lat="43.48106" lon="11.6687567"><ele>313.5</ele><time>2026-05-03T13:28:55.649Z</time></trkpt><trkpt lat="43.4810467" lon="11.6688583"><ele>313.0</ele><time>2026-05-03T13:28:56.658Z</time></trkpt><trkpt lat="43.48103" lon="11.668955"><ele>312.5</ele><time>2026-05-03T13:28:57.656Z</time></trkpt><trkpt lat="43.4810117" lon="11.669055"><ele>312.0</ele><time>2026-05-03T13:28:58.651Z</time></trkpt><trkpt lat="43.480995" lon="11.6691583"><ele>312.0</ele><time>2026-05-03T13:28:59.657Z</time></trkpt><trkpt lat="43.4809767" lon="11.6692617"><ele>312.0</ele><time>2026-05-03T13:29:00.672Z</time></trkpt><trkpt lat="43.4809567" lon="11.6693533"><ele>312.0</ele><time>2026-05-03T13:29:01.644Z</time></trkpt><trkpt lat="43.480935" lon="11.6694517"><ele>312.0</ele><time>2026-05-03T13:29:02.661Z</time></trkpt><trkpt lat="43.4809233" lon="11.6695617"><ele>312.0</ele><time>2026-05-03T13:29:03.659Z</time></trkpt><trkpt lat="43.4809167" lon="11.6696683"><ele>312.0</ele><time>2026-05-03T13:29:04.65Z</time></trkpt><trkpt lat="43.480915" lon="11.6697783"><ele>311.2</ele><time>2026-05-03T13:29:05.662Z</time></trkpt><trkpt lat="43.4809283" lon="11.669905"><ele>310.4</ele><time>2026-05-03T13:29:06.652Z</time></trkpt><trkpt lat="43.4809517" lon="11.670035"><ele>309.6</ele><time>2026-05-03T13:29:07.645Z</time></trkpt><trkpt lat="43.4809783" lon="11.67017"><ele>308.8</ele><time>2026-05-03T13:29:08.658Z</time></trkpt><trkpt lat="43.4810067" lon="11.6702917"><ele>308.0</ele><time>2026-05-03T13:29:09.658Z</time></trkpt><trkpt lat="43.4810383" lon="11.6704033"><ele>307.1666666666667</ele><time>2026-05-03T13:29:10.677Z</time></trkpt><trkpt lat="43.4810633" lon="11.67051"><ele>306.33333333333337</ele><time>2026-05-03T13:29:11.669Z</time></trkpt><trkpt lat="43.4810817" lon="11.6706217"><ele>305.5</ele><time>2026-05-03T13:29:12.648Z</time></trkpt><trkpt lat="43.48107" lon="11.6707283"><ele>304.6666666666667</ele><time>2026-05-03T13:29:13.651Z</time></trkpt><trkpt lat="43.4810333" lon="11.6708183"><ele>303.8333333333333</ele><time>2026-05-03T13:29:14.662Z</time></trkpt><trkpt lat="43.4809933" lon="11.6709017"><ele>303.0</ele><time>2026-05-03T13:29:15.667Z</time></trkpt><trkpt lat="43.480955" lon="11.670975"><ele>303.0</ele><time>2026-05-03T13:29:16.647Z</time></trkpt><trkpt lat="43.4809033" lon="11.6710683"><ele>303.0</ele><time>2026-05-03T13:29:17.644Z</time></trkpt><trkpt lat="43.4808517" lon="11.671165"><ele>303.0</ele><time>2026-05-03T13:29:18.653Z</time></trkpt><trkpt lat="43.4808083" lon="11.6712567"><ele>303.0</ele><time>2026-05-03T13:29:19.671Z</time></trkpt><trkpt lat="43.480765" lon="11.6713533"><ele>303.0</ele><time>2026-05-03T13:29:20.648Z</time></trkpt><trkpt lat="43.4807217" lon="11.67146"><ele>303.0</ele><time>2026-05-03T13:29:21.663Z</time></trkpt><trkpt lat="43.4806717" lon="11.67156"><ele>302.6</ele><time>2026-05-03T13:29:22.652Z</time></trkpt><trkpt lat="43.4806217" lon="11.6716717"><ele>302.20000000000005</ele><time>2026-05-03T13:29:23.656Z</time></trkpt><trkpt lat="43.48057" lon="11.6717883"><ele>301.8</ele><time>2026-05-03T13:29:24.652Z</time></trkpt><trkpt lat="43.48052" lon="11.6719183"><ele>301.40000000000003</ele><time>2026-05-03T13:29:25.653Z</time></trkpt><trkpt lat="43.4804667" lon="11.672055"><ele>301.0</ele><time>2026-05-03T13:29:26.651Z</time></trkpt><trkpt lat="43.480415" lon="11.672185"><ele>301.0</ele><time>2026-05-03T13:29:27.661Z</time></trkpt><trkpt lat="43.48037" lon="11.672315"><ele>301.0</ele><time>2026-05-03T13:29:28.655Z</time></trkpt><trkpt lat="43.4803217" lon="11.67245"><ele>301.0</ele><time>2026-05-03T13:29:29.667Z</time></trkpt><trkpt lat="43.4802717" lon="11.6725833"><ele>301.0</ele><time>2026-05-03T13:29:30.653Z</time></trkpt><trkpt lat="43.4802217" lon="11.6727233"><ele>301.0</ele><time>2026-05-03T13:29:31.669Z</time></trkpt><trkpt lat="43.4801633" lon="11.6728633"><ele>302.0</ele><time>2026-05-03T13:29:32.668Z</time></trkpt><trkpt lat="43.4801083" lon="11.6730083"><ele>303.0</ele><time>2026-05-03T13:29:33.671Z</time></trkpt><trkpt lat="43.4800517" lon="11.6731567"><ele>304.0</ele><time>2026-05-03T13:29:34.669Z</time></trkpt><trkpt lat="43.4799983" lon="11.6733033"><ele>305.0</ele><time>2026-05-03T13:29:35.66Z</time></trkpt><trkpt lat="43.479945" lon="11.6734567"><ele>305.0</ele><time>2026-05-03T13:29:36.682Z</time></trkpt><trkpt lat="43.47989" lon="11.6736033"><ele>305.0</ele><time>2026-05-03T13:29:37.661Z</time></trkpt><trkpt lat="43.479835" lon="11.67375"><ele>305.0</ele><time>2026-05-03T13:29:38.661Z</time></trkpt><trkpt lat="43.479785" lon="11.67388"><ele>305.0</ele><time>2026-05-03T13:29:39.678Z</time></trkpt><trkpt lat="43.479735" lon="11.6740083"><ele>305.2</ele><time>2026-05-03T13:29:40.666Z</time></trkpt><trkpt lat="43.47969" lon="11.67413"><ele>305.4</ele><time>2026-05-03T13:29:41.677Z</time></trkpt><trkpt lat="43.4796433" lon="11.6742383"><ele>305.6</ele><time>2026-05-03T13:29:42.64Z</time></trkpt><trkpt lat="43.4795983" lon="11.6743467"><ele>305.8</ele><time>2026-05-03T13:29:43.656Z</time></trkpt><trkpt lat="43.47955" lon="11.6744467"><ele>306.0</ele><time>2026-05-03T13:29:44.655Z</time></trkpt><trkpt lat="43.4795067" lon="11.6745467"><ele>306.6</ele><time>2026-05-03T13:29:45.648Z</time></trkpt><trkpt lat="43.4794617" lon="11.67465"><ele>307.20000000000005</ele><time>2026-05-03T13:29:46.646Z</time></trkpt><trkpt lat="43.4794017" lon="11.674755"><ele>307.79999999999995</ele><time>2026-05-03T13:29:47.636Z</time></trkpt><trkpt lat="43.4793467" lon="11.674865"><ele>308.4</ele><time>2026-05-03T13:29:48.64Z</time></trkpt><trkpt lat="43.4792783" lon="11.6749733"><ele>309.0</ele><time>2026-05-03T13:29:49.637Z</time></trkpt><trkpt lat="43.4792183" lon="11.67509"><ele>309.0</ele><time>2026-05-03T13:29:50.641Z</time></trkpt><trkpt lat="43.4791583" lon="11.6752083"><ele>309.0</ele><time>2026-05-03T13:29:51.639Z</time></trkpt><trkpt lat="43.479095" lon="11.6753167"><ele>309.0</ele><time>2026-05-03T13:29:52.636Z</time></trkpt><trkpt lat="43.4790317" lon="11.6754317"><ele>309.0</ele><time>2026-05-03T13:29:53.64Z</time></trkpt><trkpt lat="43.47897" lon="11.675555"><ele>309.0</ele><time>2026-05-03T13:29:54.649Z</time></trkpt><trkpt lat="43.4789217" lon="11.6757033"><ele>308.0</ele><time>2026-05-03T13:29:55.656Z</time></trkpt><trkpt lat="43.4788917" lon="11.6758617"><ele>307.0</ele><time>2026-05-03T13:29:56.651Z</time></trkpt><trkpt lat="43.4788933" lon="11.67603"><ele>306.0</ele><time>2026-05-03T13:29:57.641Z</time></trkpt><trkpt lat="43.4789183" lon="11.6762017"><ele>305.0</ele><time>2026-05-03T13:29:58.654Z</time></trkpt><trkpt lat="43.4789367" lon="11.6763567"><ele>303.6</ele><time>2026-05-03T13:29:59.665Z</time></trkpt><trkpt lat="43.47895" lon="11.6765033"><ele>302.2</ele><time>2026-05-03T13:30:00.659Z</time></trkpt><trkpt lat="43.4789617" lon="11.676645"><ele>300.8</ele><time>2026-05-03T13:30:01.653Z</time></trkpt><trkpt lat="43.478965" lon="11.67677"><ele>299.4</ele><time>2026-05-03T13:30:02.653Z</time></trkpt><trkpt lat="43.4789617" lon="11.6768967"><ele>298.0</ele><time>2026-05-03T13:30:03.648Z</time></trkpt><trkpt lat="43.4789433" lon="11.6770067"><ele>297.2</ele><time>2026-05-03T13:30:04.661Z</time></trkpt><trkpt lat="43.47891" lon="11.677115"><ele>296.4</ele><time>2026-05-03T13:30:05.659Z</time></trkpt><trkpt lat="43.4788833" lon="11.6772367"><ele>295.59999999999997</ele><time>2026-05-03T13:30:06.642Z</time></trkpt><trkpt lat="43.4788567" lon="11.6773617"><ele>294.8</ele><time>2026-05-03T13:30:07.662Z</time></trkpt><trkpt lat="43.4788317" lon="11.6774917"><ele>294.0</ele><time>2026-05-03T13:30:08.673Z</time></trkpt><trkpt lat="43.4788067" lon="11.6776283"><ele>294.0</ele><time>2026-05-03T13:30:09.66Z</time></trkpt><trkpt lat="43.4787817" lon="11.677765"><ele>294.0</ele><time>2026-05-03T13:30:10.642Z</time></trkpt><trkpt lat="43.4787583" lon="11.6778867"><ele>294.0</ele><time>2026-05-03T13:30:11.662Z</time></trkpt><trkpt lat="43.4787317" lon="11.6779917"><ele>294.0</ele><time>2026-05-03T13:30:12.665Z</time></trkpt><trkpt lat="43.4786933" lon="11.6780833"><ele>294.0</ele><time>2026-05-03T13:30:13.649Z</time></trkpt><trkpt lat="43.4786417" lon="11.6781717"><ele>294.0</ele><time>2026-05-03T13:30:14.646Z</time></trkpt><trkpt lat="43.47858" lon="11.6782633"><ele>293.59999999999997</ele><time>2026-05-03T13:30:15.662Z</time></trkpt><trkpt lat="43.4785067" lon="11.678345"><ele>293.2</ele><time>2026-05-03T13:30:16.649Z</time></trkpt><trkpt lat="43.4784133" lon="11.6784317"><ele>292.79999999999995</ele><time>2026-05-03T13:30:17.64Z</time></trkpt><trkpt lat="43.47832" lon="11.67851"><ele>292.4</ele><time>2026-05-03T13:30:18.659Z</time></trkpt><trkpt lat="43.47822" lon="11.678585"><ele>292.0</ele><time>2026-05-03T13:30:19.645Z</time></trkpt><trkpt lat="43.478125" lon="11.6786667"><ele>291.25</ele><time>2026-05-03T13:30:20.659Z</time></trkpt><trkpt lat="43.4780167" lon="11.678755"><ele>290.5</ele><time>2026-05-03T13:30:21.656Z</time></trkpt><trkpt lat="43.4779" lon="11.6788483"><ele>289.75</ele><time>2026-05-03T13:30:22.65Z</time></trkpt><trkpt lat="43.4777833" lon="11.6789433"><ele>289.0</ele><time>2026-05-03T13:30:23.661Z</time></trkpt><trkpt lat="43.4776583" lon="11.67904"><ele>288.66666666666663</ele><time>2026-05-03T13:30:24.662Z</time></trkpt><trkpt lat="43.4775283" lon="11.679145"><ele>288.3333333333333</ele><time>2026-05-03T13:30:25.647Z</time></trkpt><trkpt lat="43.4773933" lon="11.6792583"><ele>288.0</ele><time>2026-05-03T13:30:26.663Z</time></trkpt><trkpt lat="43.4772433" lon="11.6793683"><ele>288.3333333333333</ele><time>2026-05-03T13:30:27.657Z</time></trkpt><trkpt lat="43.4770983" lon="11.6794783"><ele>288.66666666666663</ele><time>2026-05-03T13:30:28.673Z</time></trkpt><trkpt lat="43.47695" lon="11.67958"><ele>289.0</ele><time>2026-05-03T13:30:29.66Z</time></trkpt><trkpt lat="43.4767933" lon="11.6796833"><ele>289.0</ele><time>2026-05-03T13:30:30.652Z</time></trkpt><trkpt lat="43.4766533" lon="11.6797933"><ele>289.0</ele><time>2026-05-03T13:30:31.643Z</time></trkpt><trkpt lat="43.47651" lon="11.6798933"><ele>289.0</ele><time>2026-05-03T13:30:32.657Z</time></trkpt><trkpt lat="43.4763717" lon="11.67999"><ele>290.0</ele><time>2026-05-03T13:30:33.654Z</time></trkpt><trkpt lat="43.476225" lon="11.6800733"><ele>291.0</ele><time>2026-05-03T13:30:34.647Z</time></trkpt><trkpt lat="43.4760783" lon="11.680145"><ele>292.0</ele><time>2026-05-03T13:30:35.659Z</time></trkpt><trkpt lat="43.475925" lon="11.6802333"><ele>291.66666666666663</ele><time>2026-05-03T13:30:36.658Z</time></trkpt><trkpt lat="43.4757633" lon="11.680315"><ele>291.3333333333333</ele><time>2026-05-03T13:30:37.656Z</time></trkpt><trkpt lat="43.4755983" lon="11.6804033"><ele>291.0</ele><time>2026-05-03T13:30:38.667Z</time></trkpt><trkpt lat="43.4754317" lon="11.6804917"><ele>292.3333333333333</ele><time>2026-05-03T13:30:39.653Z</time></trkpt><trkpt lat="43.4752633" lon="11.68058"><ele>293.66666666666663</ele><time>2026-05-03T13:30:40.672Z</time></trkpt><trkpt lat="43.475085" lon="11.6806717"><ele>295.0</ele><time>2026-05-03T13:30:41.649Z</time></trkpt><trkpt lat="43.47491" lon="11.6807667"><ele>295.0</ele><time>2026-05-03T13:30:42.656Z</time></trkpt><trkpt lat="43.47474" lon="11.680875"><ele>295.0</ele><time>2026-05-03T13:30:43.658Z</time></trkpt><trkpt lat="43.47456" lon="11.6809783"><ele>295.0</ele><time>2026-05-03T13:30:44.655Z</time></trkpt><trkpt lat="43.4743817" lon="11.681085"><ele>298.3333333333333</ele><time>2026-05-03T13:30:45.659Z</time></trkpt><trkpt lat="43.4741967" lon="11.6811933"><ele>301.6666666666667</ele><time>2026-05-03T13:30:46.652Z</time></trkpt><trkpt lat="43.4740183" lon="11.681305"><ele>305.0</ele><time>2026-05-03T13:30:47.645Z</time></trkpt><trkpt lat="43.47385" lon="11.6814083"><ele>306.6666666666667</ele><time>2026-05-03T13:30:48.649Z</time></trkpt><trkpt lat="43.473695" lon="11.6815083"><ele>308.3333333333333</ele><time>2026-05-03T13:30:49.645Z</time></trkpt><trkpt lat="43.4735483" lon="11.6816"><ele>310.0</ele><time>2026-05-03T13:30:50.677Z</time></trkpt><trkpt lat="43.4734133" lon="11.6816917"><ele>310.0</ele><time>2026-05-03T13:30:51.646Z</time></trkpt><trkpt lat="43.4732917" lon="11.6818067"><ele>310.0</ele><time>2026-05-03T13:30:52.644Z</time></trkpt><trkpt lat="43.4731783" lon="11.681955"><ele>310.0</ele><time>2026-05-03T13:30:53.639Z</time></trkpt><trkpt lat="43.473085" lon="11.6821267"><ele>312.0</ele><time>2026-05-03T13:30:54.645Z</time></trkpt><trkpt lat="43.4730033" lon="11.6823183"><ele>314.0</ele><time>2026-05-03T13:30:55.652Z</time></trkpt><trkpt lat="43.4729167" lon="11.68251"><ele>316.0</ele><time>2026-05-03T13:30:56.65Z</time></trkpt><trkpt lat="43.4728317" lon="11.682705"><ele>320.0</ele><time>2026-05-03T13:30:57.659Z</time></trkpt><trkpt lat="43.4727483" lon="11.6829117"><ele>324.0</ele><time>2026-05-03T13:30:58.648Z</time></trkpt><trkpt lat="43.472665" lon="11.68313"><ele>328.0</ele><time>2026-05-03T13:30:59.637Z</time></trkpt><trkpt lat="43.4725983" lon="11.68334"><ele>328.0</ele><time>2026-05-03T13:31:00.676Z</time></trkpt><trkpt lat="43.4725333" lon="11.6835517"><ele>328.0</ele><time>2026-05-03T13:31:01.668Z</time></trkpt><trkpt lat="43.4724733" lon="11.683755"><ele>328.0</ele><time>2026-05-03T13:31:02.642Z</time></trkpt><trkpt lat="43.472425" lon="11.68394"><ele>329.0</ele><time>2026-05-03T13:31:03.652Z</time></trkpt><trkpt lat="43.4723867" lon="11.6841167"><ele>330.0</ele><time>2026-05-03T13:31:04.642Z</time></trkpt><trkpt lat="43.472355" lon="11.6843033"><ele>331.0</ele><time>2026-05-03T13:31:05.635Z</time></trkpt><trkpt lat="43.4723433" lon="11.6844917"><ele>332.0</ele><time>2026-05-03T13:31:06.641Z</time></trkpt><trkpt lat="43.4723467" lon="11.6846933"><ele>332.25</ele><time>2026-05-03T13:31:07.647Z</time></trkpt><trkpt lat="43.47235" lon="11.68489"><ele>332.5</ele><time>2026-05-03T13:31:08.644Z</time></trkpt><trkpt lat="43.472345" lon="11.685075"><ele>332.75</ele><time>2026-05-03T13:31:09.655Z</time></trkpt><trkpt lat="43.472325" lon="11.6852833"><ele>333.0</ele><time>2026-05-03T13:31:10.665Z</time></trkpt><trkpt lat="43.4722883" lon="11.6854867"><ele>333.5</ele><time>2026-05-03T13:31:11.661Z</time></trkpt><trkpt lat="43.4722567" lon="11.685675"><ele>334.0</ele><time>2026-05-03T13:31:12.639Z</time></trkpt><trkpt lat="43.4722167" lon="11.6858433"><ele>334.5</ele><time>2026-05-03T13:31:13.645Z</time></trkpt><trkpt lat="43.472175" lon="11.6859933"><ele>335.0</ele><time>2026-05-03T13:31:14.646Z</time></trkpt><trkpt lat="43.4721267" lon="11.6861167"><ele>337.4</ele><time>2026-05-03T13:31:15.66Z</time></trkpt><trkpt lat="43.4720767" lon="11.68621"><ele>339.8</ele><time>2026-05-03T13:31:16.649Z</time></trkpt><trkpt lat="43.4720267" lon="11.6862817"><ele>342.20000000000005</ele><time>2026-05-03T13:31:17.655Z</time></trkpt><trkpt lat="43.4719717" lon="11.68636"><ele>344.6</ele><time>2026-05-03T13:31:19.66Z</time></trkpt><trkpt lat="43.4719683" lon="11.6864983"><ele>347.0</ele><time>2026-05-03T13:31:22.646Z</time></trkpt><trkpt lat="43.4720083" lon="11.686685"><ele>347.0</ele><time>2026-05-03T13:31:24.654Z</time></trkpt><trkpt lat="43.4720383" lon="11.6868083"><ele>347.0</ele><time>2026-05-03T13:31:25.651Z</time></trkpt><trkpt lat="43.4720817" lon="11.6869433"><ele>347.0</ele><time>2026-05-03T13:31:26.673Z</time></trkpt><trkpt lat="43.4721417" lon="11.6870833"><ele>347.0</ele><time>2026-05-03T13:31:27.717Z</time></trkpt><trkpt lat="43.4722233" lon="11.6872133"><ele>347.0</ele><time>2026-05-03T13:31:28.723Z</time></trkpt><trkpt lat="43.4723133" lon="11.68735"><ele>344.5</ele><time>2026-05-03T13:31:29.679Z</time></trkpt><trkpt lat="43.4723867" lon="11.687485"><ele>342.0</ele><time>2026-05-03T13:31:30.654Z</time></trkpt><trkpt lat="43.4724433" lon="11.6876317"><ele>339.5</ele><time>2026-05-03T13:31:31.637Z</time></trkpt><trkpt lat="43.472495" lon="11.6877767"><ele>337.0</ele><time>2026-05-03T13:31:32.686Z</time></trkpt><trkpt lat="43.47256" lon="11.6879167"><ele>336.75</ele><time>2026-05-03T13:31:33.684Z</time></trkpt><trkpt lat="43.4726433" lon="11.68803"><ele>336.5</ele><time>2026-05-03T13:31:34.659Z</time></trkpt><trkpt lat="43.4727317" lon="11.6881517"><ele>336.25</ele><time>2026-05-03T13:31:35.672Z</time></trkpt><trkpt lat="43.472805" lon="11.688285"><ele>336.0</ele><time>2026-05-03T13:31:36.674Z</time></trkpt><trkpt lat="43.47286" lon="11.68843"><ele>336.0</ele><time>2026-05-03T13:31:37.653Z</time></trkpt><trkpt lat="43.4728933" lon="11.688585"><ele>336.0</ele><time>2026-05-03T13:31:38.666Z</time></trkpt><trkpt lat="43.4729233" lon="11.68874"><ele>336.0</ele><time>2026-05-03T13:31:39.683Z</time></trkpt><trkpt lat="43.4729567" lon="11.6888883"><ele>336.0</ele><time>2026-05-03T13:31:40.662Z</time></trkpt><trkpt lat="43.47301" lon="11.6890383"><ele>334.75</ele><time>2026-05-03T13:31:41.672Z</time></trkpt><trkpt lat="43.4730867" lon="11.6891767"><ele>333.5</ele><time>2026-05-03T13:31:42.662Z</time></trkpt><trkpt lat="43.4731883" lon="11.6892983"><ele>332.25</ele><time>2026-05-03T13:31:43.667Z</time></trkpt><trkpt lat="43.4732967" lon="11.6894167"><ele>331.0</ele><time>2026-05-03T13:31:44.659Z</time></trkpt><trkpt lat="43.4734117" lon="11.6895233"><ele>329.0</ele><time>2026-05-03T13:31:45.657Z</time></trkpt><trkpt lat="43.4735283" lon="11.6896467"><ele>327.0</ele><time>2026-05-03T13:31:46.655Z</time></trkpt><trkpt lat="43.4736383" lon="11.689785"><ele>325.0</ele><time>2026-05-03T13:31:47.654Z</time></trkpt><trkpt lat="43.47375" lon="11.6899217"><ele>323.0</ele><time>2026-05-03T13:31:48.651Z</time></trkpt><trkpt lat="43.4738483" lon="11.6900667"><ele>323.0</ele><time>2026-05-03T13:31:49.644Z</time></trkpt><trkpt lat="43.4739333" lon="11.6902167"><ele>323.0</ele><time>2026-05-03T13:31:50.656Z</time></trkpt><trkpt lat="43.474015" lon="11.6903633"><ele>323.0</ele><time>2026-05-03T13:31:51.648Z</time></trkpt><trkpt lat="43.474095" lon="11.690515"><ele>323.0</ele><time>2026-05-03T13:31:52.676Z</time></trkpt><trkpt lat="43.47416" lon="11.6906667"><ele>322.59999999999997</ele><time>2026-05-03T13:31:53.653Z</time></trkpt><trkpt lat="43.4742117" lon="11.6907967"><ele>322.2</ele><time>2026-05-03T13:31:54.655Z</time></trkpt><trkpt lat="43.4742717" lon="11.6909083"><ele>321.8</ele><time>2026-05-03T13:31:55.636Z</time></trkpt><trkpt lat="43.4743417" lon="11.6909917"><ele>321.4</ele><time>2026-05-03T13:31:56.655Z</time></trkpt><trkpt lat="43.4744217" lon="11.6910567"><ele>321.0</ele><time>2026-05-03T13:31:57.652Z</time></trkpt><trkpt lat="43.4745183" lon="11.6911083"><ele>318.6</ele><time>2026-05-03T13:31:58.656Z</time></trkpt><trkpt lat="43.474615" lon="11.6911533"><ele>316.20000000000005</ele><time>2026-05-03T13:31:59.661Z</time></trkpt><trkpt lat="43.4747133" lon="11.691195"><ele>313.79999999999995</ele><time>2026-05-03T13:32:00.655Z</time></trkpt><trkpt lat="43.4748083" lon="11.6912367"><ele>311.4</ele><time>2026-05-03T13:32:01.677Z</time></trkpt><trkpt lat="43.4749017" lon="11.6913083"><ele>309.0</ele><time>2026-05-03T13:32:02.661Z</time></trkpt><trkpt lat="43.4749867" lon="11.69141"><ele>309.0</ele><time>2026-05-03T13:32:03.664Z</time></trkpt><trkpt lat="43.4750567" lon="11.6915367"><ele>309.0</ele><time>2026-05-03T13:32:04.654Z</time></trkpt><trkpt lat="43.475125" lon="11.6916583"><ele>309.0</ele><time>2026-05-03T13:32:05.65Z</time></trkpt><trkpt lat="43.475195" lon="11.6917867"><ele>309.0</ele><time>2026-05-03T13:32:06.692Z</time></trkpt><trkpt lat="43.475275" lon="11.6919067"><ele>308.0</ele><time>2026-05-03T13:32:07.656Z</time></trkpt><trkpt lat="43.4753717" lon="11.692005"><ele>307.0</ele><time>2026-05-03T13:32:08.657Z</time></trkpt><trkpt lat="43.475475" lon="11.692075"><ele>306.0</ele><time>2026-05-03T13:32:09.654Z</time></trkpt><trkpt lat="43.47559" lon="11.69213"><ele>305.0</ele><time>2026-05-03T13:32:10.658Z</time></trkpt><trkpt lat="43.4757067" lon="11.6921833"><ele>303.75</ele><time>2026-05-03T13:32:11.67Z</time></trkpt><trkpt lat="43.4758233" lon="11.6922367"><ele>302.5</ele><time>2026-05-03T13:32:12.662Z</time></trkpt><trkpt lat="43.4759417" lon="11.6922867"><ele>301.25</ele><time>2026-05-03T13:32:13.652Z</time></trkpt><trkpt lat="43.47606" lon="11.692345"><ele>300.0</ele><time>2026-05-03T13:32:14.671Z</time></trkpt><trkpt lat="43.47619" lon="11.692405"><ele>297.75</ele><time>2026-05-03T13:32:15.654Z</time></trkpt><trkpt lat="43.4763167" lon="11.6924633"><ele>295.5</ele><time>2026-05-03T13:32:16.66Z</time></trkpt><trkpt lat="43.4764433" lon="11.69252"><ele>293.25</ele><time>2026-05-03T13:32:17.659Z</time></trkpt><trkpt lat="43.4765667" lon="11.692585"><ele>291.0</ele><time>2026-05-03T13:32:18.658Z</time></trkpt><trkpt lat="43.476685" lon="11.692645"><ele>291.0</ele><time>2026-05-03T13:32:19.659Z</time></trkpt><trkpt lat="43.4767967" lon="11.6927067"><ele>291.0</ele><time>2026-05-03T13:32:20.641Z</time></trkpt><trkpt lat="43.4769" lon="11.69278"><ele>291.0</ele><time>2026-05-03T13:32:21.655Z</time></trkpt><trkpt lat="43.4770133" lon="11.6928517"><ele>291.0</ele><time>2026-05-03T13:32:22.675Z</time></trkpt><trkpt lat="43.47712" lon="11.69294"><ele>288.5</ele><time>2026-05-03T13:32:23.651Z</time></trkpt><trkpt lat="43.4772283" lon="11.6930333"><ele>286.0</ele><time>2026-05-03T13:32:24.666Z</time></trkpt><trkpt lat="43.4773333" lon="11.6931233"><ele>283.5</ele><time>2026-05-03T13:32:25.656Z</time></trkpt><trkpt lat="43.4774433" lon="11.6932217"><ele>281.0</ele><time>2026-05-03T13:32:26.645Z</time></trkpt><trkpt lat="43.477555" lon="11.6933333"><ele>281.0</ele><time>2026-05-03T13:32:27.653Z</time></trkpt><trkpt lat="43.4776567" lon="11.693455"><ele>281.0</ele><time>2026-05-03T13:32:28.681Z</time></trkpt><trkpt lat="43.4777633" lon="11.693585"><ele>281.0</ele><time>2026-05-03T13:32:29.682Z</time></trkpt><trkpt lat="43.477865" lon="11.6937233"><ele>281.0</ele><time>2026-05-03T13:32:30.662Z</time></trkpt><trkpt lat="43.477965" lon="11.6938583"><ele>277.5</ele><time>2026-05-03T13:32:31.637Z</time></trkpt><trkpt lat="43.4780683" lon="11.6939917"><ele>274.0</ele><time>2026-05-03T13:32:32.656Z</time></trkpt><trkpt lat="43.4781717" lon="11.6941167"><ele>270.5</ele><time>2026-05-03T13:32:33.663Z</time></trkpt><trkpt lat="43.4782733" lon="11.694235"><ele>267.0</ele><time>2026-05-03T13:32:34.657Z</time></trkpt><trkpt lat="43.4783683" lon="11.6943483"><ele>265.5</ele><time>2026-05-03T13:32:35.666Z</time></trkpt><trkpt lat="43.4784567" lon="11.694465"><ele>264.0</ele><time>2026-05-03T13:32:36.684Z</time></trkpt><trkpt lat="43.478525" lon="11.6945933"><ele>262.5</ele><time>2026-05-03T13:32:37.653Z</time></trkpt><trkpt lat="43.4785867" lon="11.6947333"><ele>261.0</ele><time>2026-05-03T13:32:38.648Z</time></trkpt><trkpt lat="43.4786233" lon="11.6948833"><ele>261.0</ele><time>2026-05-03T13:32:39.645Z</time></trkpt><trkpt lat="43.4786483" lon="11.6950383"><ele>261.0</ele><time>2026-05-03T13:32:40.655Z</time></trkpt><trkpt lat="43.478685" lon="11.6951883"><ele>261.0</ele><time>2026-05-03T13:32:41.651Z</time></trkpt><trkpt lat="43.4787417" lon="11.6953267"><ele>261.0</ele><time>2026-05-03T13:32:42.644Z</time></trkpt><trkpt lat="43.4788267" lon="11.695435"><ele>259.25</ele><time>2026-05-03T13:32:43.653Z</time></trkpt><trkpt lat="43.47893" lon="11.6955183"><ele>257.5</ele><time>2026-05-03T13:32:44.664Z</time></trkpt><trkpt lat="43.479045" lon="11.6955867"><ele>255.75</ele><time>2026-05-03T13:32:45.651Z</time></trkpt><trkpt lat="43.4791617" lon="11.6956283"><ele>254.0</ele><time>2026-05-03T13:32:46.671Z</time></trkpt><trkpt lat="43.479285" lon="11.6956383"><ele>254.0</ele><time>2026-05-03T13:32:47.653Z</time></trkpt><trkpt lat="43.479405" lon="11.6956367"><ele>254.0</ele><time>2026-05-03T13:32:48.664Z</time></trkpt><trkpt lat="43.4795267" lon="11.695635"><ele>254.0</ele><time>2026-05-03T13:32:49.664Z</time></trkpt><trkpt lat="43.4796433" lon="11.69564"><ele>254.0</ele><time>2026-05-03T13:32:50.663Z</time></trkpt><trkpt lat="43.4797533" lon="11.6956467"><ele>254.0</ele><time>2026-05-03T13:32:51.643Z</time></trkpt><trkpt lat="43.4798617" lon="11.69565"><ele>254.0</ele><time>2026-05-03T13:32:52.656Z</time></trkpt><trkpt lat="43.4799767" lon="11.6956333"><ele>254.0</ele><time>2026-05-03T13:32:53.649Z</time></trkpt><trkpt lat="43.4800983" lon="11.6955883"><ele>254.0</ele><time>2026-05-03T13:32:54.652Z</time></trkpt><trkpt lat="43.4802233" lon="11.6955233"><ele>254.0</ele><time>2026-05-03T13:32:55.654Z</time></trkpt><trkpt lat="43.4803417" lon="11.695435"><ele>254.0</ele><time>2026-05-03T13:32:56.65Z</time></trkpt><trkpt lat="43.4804533" lon="11.69533"><ele>254.0</ele><time>2026-05-03T13:32:57.647Z</time></trkpt><trkpt lat="43.4805633" lon="11.695235"><ele>254.0</ele><time>2026-05-03T13:32:58.645Z</time></trkpt><trkpt lat="43.480665" lon="11.6951517"><ele>254.6</ele><time>2026-05-03T13:32:59.662Z</time></trkpt><trkpt lat="43.48076" lon="11.6950783"><ele>255.2</ele><time>2026-05-03T13:33:00.662Z</time></trkpt><trkpt lat="43.48085" lon="11.6950083"><ele>255.79999999999998</ele><time>2026-05-03T13:33:01.655Z</time></trkpt><trkpt lat="43.4809383" lon="11.6949617"><ele>256.4</ele><time>2026-05-03T13:33:02.653Z</time></trkpt><trkpt lat="43.48103" lon="11.6949367"><ele>257.0</ele><time>2026-05-03T13:33:03.661Z</time></trkpt><trkpt lat="43.4811117" lon="11.69493"><ele>257.0</ele><time>2026-05-03T13:33:04.654Z</time></trkpt><trkpt lat="43.481175" lon="11.6949233"><ele>257.0</ele><time>2026-05-03T13:33:05.651Z</time></trkpt><trkpt lat="43.4812733" lon="11.6949233"><ele>257.0</ele><time>2026-05-03T13:33:30.664Z</time></trkpt><trkpt lat="43.4812983" lon="11.6948167"><ele>257.0</ele><time>2026-05-03T13:33:32.652Z</time></trkpt><trkpt lat="43.4813183" lon="11.694665"><ele>257.0</ele><time>2026-05-03T13:33:34.653Z</time></trkpt><trkpt lat="43.4813517" lon="11.6945817"><ele>257.0</ele><time>2026-05-03T13:33:36.736Z</time></trkpt><trkpt lat="43.48146" lon="11.694575"><ele>257.6666666666667</ele><time>2026-05-03T13:33:39.65Z</time></trkpt><trkpt lat="43.48157" lon="11.69458"><ele>258.33333333333337</ele><time>2026-05-03T13:33:41.666Z</time></trkpt><trkpt lat="43.4816833" lon="11.6945683"><ele>259.0</ele><time>2026-05-03T13:33:43.629Z</time></trkpt><trkpt lat="43.4817517" lon="11.69456"><ele>259.6666666666667</ele><time>2026-05-03T13:33:44.655Z</time></trkpt><trkpt lat="43.4818183" lon="11.6945483"><ele>260.3333333333333</ele><time>2026-05-03T13:33:45.653Z</time></trkpt><trkpt lat="43.4818933" lon="11.6945367"><ele>261.0</ele><time>2026-05-03T13:33:46.672Z</time></trkpt><trkpt lat="43.4819733" lon="11.6945117"><ele>261.0</ele><time>2026-05-03T13:33:47.648Z</time></trkpt><trkpt lat="43.4820583" lon="11.6944917"><ele>261.0</ele><time>2026-05-03T13:33:48.651Z</time></trkpt><trkpt lat="43.4821433" lon="11.694485"><ele>261.0</ele><time>2026-05-03T13:33:49.65Z</time></trkpt><trkpt lat="43.48223" lon="11.694485"><ele>261.0</ele><time>2026-05-03T13:33:50.652Z</time></trkpt><trkpt lat="43.4823217" lon="11.694495"><ele>261.0</ele><time>2026-05-03T13:33:51.653Z</time></trkpt><trkpt lat="43.4824233" lon="11.6945167"><ele>260.6</ele><time>2026-05-03T13:33:52.654Z</time></trkpt><trkpt lat="43.482525" lon="11.6945483"><ele>260.20000000000005</ele><time>2026-05-03T13:33:53.647Z</time></trkpt><trkpt lat="43.48263" lon="11.6945783"><ele>259.79999999999995</ele><time>2026-05-03T13:33:54.658Z</time></trkpt><trkpt lat="43.482735" lon="11.6946033"><ele>259.4</ele><time>2026-05-03T13:33:55.656Z</time></trkpt><trkpt lat="43.48284" lon="11.6946267"><ele>259.0</ele><time>2026-05-03T13:33:56.656Z</time></trkpt><trkpt lat="43.4829367" lon="11.6946517"><ele>258.59999999999997</ele><time>2026-05-03T13:33:57.665Z</time></trkpt><trkpt lat="43.4830383" lon="11.6946767"><ele>258.2</ele><time>2026-05-03T13:33:58.654Z</time></trkpt><trkpt lat="43.4831383" lon="11.6947033"><ele>257.79999999999995</ele><time>2026-05-03T13:33:59.644Z</time></trkpt><trkpt lat="43.483235" lon="11.69473"><ele>257.4</ele><time>2026-05-03T13:34:00.655Z</time></trkpt><trkpt lat="43.4833283" lon="11.6947617"><ele>257.0</ele><time>2026-05-03T13:34:01.657Z</time></trkpt><trkpt lat="43.4834267" lon="11.6947967"><ele>257.0</ele><time>2026-05-03T13:34:02.652Z</time></trkpt><trkpt lat="43.483525" lon="11.6948417"><ele>257.0</ele><time>2026-05-03T13:34:03.678Z</time></trkpt><trkpt lat="43.4836183" lon="11.6948883"><ele>257.0</ele><time>2026-05-03T13:34:04.653Z</time></trkpt><trkpt lat="43.48371" lon="11.6949317"><ele>257.0</ele><time>2026-05-03T13:34:05.653Z</time></trkpt><trkpt lat="43.4837983" lon="11.694975"><ele>257.0</ele><time>2026-05-03T13:34:06.645Z</time></trkpt><trkpt lat="43.48388" lon="11.6950217"><ele>256.7142857142857</ele><time>2026-05-03T13:34:07.656Z</time></trkpt><trkpt lat="43.483955" lon="11.6950633"><ele>256.42857142857144</ele><time>2026-05-03T13:34:08.655Z</time></trkpt><trkpt lat="43.48402" lon="11.69509"><ele>256.14285714285717</ele><time>2026-05-03T13:34:09.642Z</time></trkpt><trkpt lat="43.4840833" lon="11.6951017"><ele>255.85714285714286</ele><time>2026-05-03T13:34:10.647Z</time></trkpt><trkpt lat="43.4841533" lon="11.6950833"><ele>255.5714285714286</ele><time>2026-05-03T13:34:11.657Z</time></trkpt><trkpt lat="43.4842233" lon="11.69504"><ele>255.2857142857143</ele><time>2026-05-03T13:34:12.654Z</time></trkpt><trkpt lat="43.4842917" lon="11.6949733"><ele>255.0</ele><time>2026-05-03T13:34:13.672Z</time></trkpt><trkpt lat="43.4843567" lon="11.6949017"><ele>255.0</ele><time>2026-05-03T13:34:14.653Z</time></trkpt><trkpt lat="43.4844267" lon="11.6948233"><ele>255.0</ele><time>2026-05-03T13:34:15.652Z</time></trkpt><trkpt lat="43.4845117" lon="11.6947417"><ele>255.0</ele><time>2026-05-03T13:34:16.654Z</time></trkpt><trkpt lat="43.4845933" lon="11.6946683"><ele>255.0</ele><time>2026-05-03T13:34:17.653Z</time></trkpt><trkpt lat="43.48468" lon="11.6946017"><ele>255.0</ele><time>2026-05-03T13:34:18.696Z</time></trkpt><trkpt lat="43.4847783" lon="11.6945533"><ele>255.0</ele><time>2026-05-03T13:34:19.661Z</time></trkpt><trkpt lat="43.4848767" lon="11.694515"><ele>255.0</ele><time>2026-05-03T13:34:20.636Z</time></trkpt><trkpt lat="43.4849833" lon="11.6944933"><ele>255.0</ele><time>2026-05-03T13:34:21.648Z</time></trkpt><trkpt lat="43.4850883" lon="11.6944667"><ele>255.0</ele><time>2026-05-03T13:34:22.652Z</time></trkpt><trkpt lat="43.4851883" lon="11.6944417"><ele>255.0</ele><time>2026-05-03T13:34:23.648Z</time></trkpt><trkpt lat="43.4852817" lon="11.694405"><ele>255.0</ele><time>2026-05-03T13:34:24.67Z</time></trkpt><trkpt lat="43.4853733" lon="11.6943517"><ele>255.0</ele><time>2026-05-03T13:34:25.651Z</time></trkpt><trkpt lat="43.4854567" lon="11.69427"><ele>255.0</ele><time>2026-05-03T13:34:26.648Z</time></trkpt><trkpt lat="43.4855333" lon="11.694175"><ele>255.0</ele><time>2026-05-03T13:34:27.654Z</time></trkpt><trkpt lat="43.4856167" lon="11.69409"><ele>255.0</ele><time>2026-05-03T13:34:28.654Z</time></trkpt><trkpt lat="43.4857017" lon="11.6940117"><ele>254.8</ele><time>2026-05-03T13:34:29.676Z</time></trkpt><trkpt lat="43.4857883" lon="11.6939417"><ele>254.6</ele><time>2026-05-03T13:34:30.651Z</time></trkpt><trkpt lat="43.4858767" lon="11.6938883"><ele>254.39999999999998</ele><time>2026-05-03T13:34:31.652Z</time></trkpt><trkpt lat="43.4859717" lon="11.6938417"><ele>254.2</ele><time>2026-05-03T13:34:32.652Z</time></trkpt><trkpt lat="43.4860817" lon="11.69382"><ele>254.0</ele><time>2026-05-03T13:34:33.654Z</time></trkpt><trkpt lat="43.48619" lon="11.6938217"><ele>253.2</ele><time>2026-05-03T13:34:34.648Z</time></trkpt><trkpt lat="43.4862933" lon="11.693835"><ele>252.39999999999998</ele><time>2026-05-03T13:34:35.634Z</time></trkpt><trkpt lat="43.4864" lon="11.6938517"><ele>251.6</ele><time>2026-05-03T13:34:36.648Z</time></trkpt><trkpt lat="43.4865067" lon="11.693885"><ele>250.8</ele><time>2026-05-03T13:34:37.644Z</time></trkpt><trkpt lat="43.4866117" lon="11.6939133"><ele>250.0</ele><time>2026-05-03T13:34:38.656Z</time></trkpt><trkpt lat="43.486715" lon="11.693955"><ele>249.99999999999997</ele><time>2026-05-03T13:34:39.648Z</time></trkpt><trkpt lat="43.4868033" lon="11.6940017"><ele>250.0</ele><time>2026-05-03T13:34:40.642Z</time></trkpt><trkpt lat="43.4868783" lon="11.694055"><ele>250.0</ele><time>2026-05-03T13:34:41.645Z</time></trkpt><trkpt lat="43.486945" lon="11.6941033"><ele>250.0</ele><time>2026-05-03T13:34:42.646Z</time></trkpt><trkpt lat="43.48701" lon="11.69414"><ele>249.99999999999997</ele><time>2026-05-03T13:34:43.644Z</time></trkpt><trkpt lat="43.4870783" lon="11.694165"><ele>250.0</ele><time>2026-05-03T13:34:44.7Z</time></trkpt><trkpt lat="43.4871517" lon="11.694195"><ele>249.83333333333331</ele><time>2026-05-03T13:34:45.651Z</time></trkpt><trkpt lat="43.4872333" lon="11.69423"><ele>249.66666666666666</ele><time>2026-05-03T13:34:46.645Z</time></trkpt><trkpt lat="43.48732" lon="11.6942683"><ele>249.5</ele><time>2026-05-03T13:34:47.641Z</time></trkpt><trkpt lat="43.4874017" lon="11.694305"><ele>249.33333333333331</ele><time>2026-05-03T13:34:48.646Z</time></trkpt><trkpt lat="43.487485" lon="11.6943417"><ele>249.16666666666666</ele><time>2026-05-03T13:34:49.642Z</time></trkpt><trkpt lat="43.4875783" lon="11.6943817"><ele>249.0</ele><time>2026-05-03T13:34:50.652Z</time></trkpt><trkpt lat="43.487675" lon="11.694425"><ele>248.79999999999998</ele><time>2026-05-03T13:34:51.649Z</time></trkpt><trkpt lat="43.487775" lon="11.694465"><ele>248.59999999999997</ele><time>2026-05-03T13:34:52.648Z</time></trkpt><trkpt lat="43.4878733" lon="11.6945033"><ele>248.4</ele><time>2026-05-03T13:34:53.655Z</time></trkpt><trkpt lat="43.487975" lon="11.6945417"><ele>248.2</ele><time>2026-05-03T13:34:54.656Z</time></trkpt><trkpt lat="43.48807" lon="11.6945817"><ele>248.0</ele><time>2026-05-03T13:34:55.644Z</time></trkpt><trkpt lat="43.4881683" lon="11.6946217"><ele>248.0</ele><time>2026-05-03T13:34:56.676Z</time></trkpt><trkpt lat="43.4882567" lon="11.694685"><ele>248.0</ele><time>2026-05-03T13:34:57.646Z</time></trkpt><trkpt lat="43.48834" lon="11.6947633"><ele>248.0</ele><time>2026-05-03T13:34:58.644Z</time></trkpt><trkpt lat="43.488415" lon="11.69485"><ele>248.0</ele><time>2026-05-03T13:34:59.638Z</time></trkpt><trkpt lat="43.4884933" lon="11.6949333"><ele>248.0</ele><time>2026-05-03T13:35:00.645Z</time></trkpt><trkpt lat="43.4885683" lon="11.6950183"><ele>248.0</ele><time>2026-05-03T13:35:01.638Z</time></trkpt><trkpt lat="43.48866" lon="11.6950767"><ele>248.0</ele><time>2026-05-03T13:35:02.634Z</time></trkpt><trkpt lat="43.4887567" lon="11.6951183"><ele>248.0</ele><time>2026-05-03T13:35:03.65Z</time></trkpt><trkpt lat="43.4888583" lon="11.695135"><ele>248.0</ele><time>2026-05-03T13:35:04.648Z</time></trkpt><trkpt lat="43.4889567" lon="11.6951383"><ele>248.0</ele><time>2026-05-03T13:35:05.685Z</time></trkpt><trkpt lat="43.489055" lon="11.6951417"><ele>247.4</ele><time>2026-05-03T13:35:06.641Z</time></trkpt><trkpt lat="43.4891533" lon="11.6951517"><ele>246.8</ele><time>2026-05-03T13:35:07.65Z</time></trkpt><trkpt lat="43.489255" lon="11.6951783"><ele>246.2</ele><time>2026-05-03T13:35:08.656Z</time></trkpt><trkpt lat="43.4893567" lon="11.6952317"><ele>245.6</ele><time>2026-05-03T13:35:09.641Z</time></trkpt><trkpt lat="43.4894483" lon="11.6953033"><ele>245.0</ele><time>2026-05-03T13:35:10.677Z</time></trkpt><trkpt lat="43.4895317" lon="11.6953783"><ele>244.4</ele><time>2026-05-03T13:35:11.655Z</time></trkpt><trkpt lat="43.4896117" lon="11.69545"><ele>243.8</ele><time>2026-05-03T13:35:12.66Z</time></trkpt><trkpt lat="43.4896867" lon="11.6955067"><ele>243.2</ele><time>2026-05-03T13:35:13.654Z</time></trkpt><trkpt lat="43.4897683" lon="11.6955367"><ele>242.6</ele><time>2026-05-03T13:35:14.643Z</time></trkpt><trkpt lat="43.4898533" lon="11.69554"><ele>242.0</ele><time>2026-05-03T13:35:15.653Z</time></trkpt><trkpt lat="43.489955" lon="11.6955217"><ele>242.0</ele><time>2026-05-03T13:35:16.654Z</time></trkpt><trkpt lat="43.4900483" lon="11.6955017"><ele>242.0</ele><time>2026-05-03T13:35:17.66Z</time></trkpt><trkpt lat="43.4901517" lon="11.6954833"><ele>242.0</ele><time>2026-05-03T13:35:18.649Z</time></trkpt><trkpt lat="43.4902583" lon="11.6954567"><ele>242.0</ele><time>2026-05-03T13:35:19.645Z</time></trkpt><trkpt lat="43.4903667" lon="11.69543"><ele>242.0</ele><time>2026-05-03T13:35:20.644Z</time></trkpt><trkpt lat="43.4904767" lon="11.695395"><ele>241.2</ele><time>2026-05-03T13:35:21.651Z</time></trkpt><trkpt lat="43.4905783" lon="11.69537"><ele>240.39999999999998</ele><time>2026-05-03T13:35:22.645Z</time></trkpt><trkpt lat="43.4906767" lon="11.695355"><ele>239.60000000000002</ele><time>2026-05-03T13:35:23.641Z</time></trkpt><trkpt lat="43.4907733" lon="11.6953567"><ele>238.8</ele><time>2026-05-03T13:35:24.634Z</time></trkpt><trkpt lat="43.490865" lon="11.69537"><ele>238.0</ele><time>2026-05-03T13:35:25.657Z</time></trkpt><trkpt lat="43.49097" lon="11.6953933"><ele>238.0</ele><time>2026-05-03T13:35:26.654Z</time></trkpt><trkpt lat="43.4910767" lon="11.6954233"><ele>238.0</ele><time>2026-05-03T13:35:27.653Z</time></trkpt><trkpt lat="43.4911817" lon="11.6954517"><ele>238.0</ele><time>2026-05-03T13:35:28.659Z</time></trkpt><trkpt lat="43.491275" lon="11.6954783"><ele>238.0</ele><time>2026-05-03T13:35:29.655Z</time></trkpt><trkpt lat="43.4913667" lon="11.6955083"><ele>238.0</ele><time>2026-05-03T13:35:30.648Z</time></trkpt><trkpt lat="43.4914483" lon="11.6955367"><ele>237.49999999999997</ele><time>2026-05-03T13:35:31.644Z</time></trkpt><trkpt lat="43.4915267" lon="11.6955733"><ele>237.0</ele><time>2026-05-03T13:35:32.652Z</time></trkpt><trkpt lat="43.4916" lon="11.6956283"><ele>236.5</ele><time>2026-05-03T13:35:33.648Z</time></trkpt><trkpt lat="43.491665" lon="11.695695"><ele>236.0</ele><time>2026-05-03T13:35:34.642Z</time></trkpt><trkpt lat="43.4917383" lon="11.6957633"><ele>235.49999999999997</ele><time>2026-05-03T13:35:35.639Z</time></trkpt><trkpt lat="43.49182" lon="11.6958483"><ele>235.0</ele><time>2026-05-03T13:35:36.648Z</time></trkpt><trkpt lat="43.4919033" lon="11.695935"><ele>235.0</ele><time>2026-05-03T13:35:37.644Z</time></trkpt><trkpt lat="43.4919883" lon="11.6960183"><ele>235.0</ele><time>2026-05-03T13:35:38.641Z</time></trkpt><trkpt lat="43.4920717" lon="11.6961017"><ele>235.0</ele><time>2026-05-03T13:35:39.646Z</time></trkpt><trkpt lat="43.4921567" lon="11.6961783"><ele>235.0</ele><time>2026-05-03T13:35:40.67Z</time></trkpt><trkpt lat="43.492235" lon="11.69626"><ele>235.0</ele><time>2026-05-03T13:35:41.684Z</time></trkpt><trkpt lat="43.4923067" lon="11.6963483"><ele>233.49999999999997</ele><time>2026-05-03T13:35:42.666Z</time></trkpt><trkpt lat="43.4923617" lon="11.6964367"><ele>232.0</ele><time>2026-05-03T13:35:43.678Z</time></trkpt><trkpt lat="43.4924033" lon="11.696525"><ele>230.5</ele><time>2026-05-03T13:35:44.688Z</time></trkpt><trkpt lat="43.4924383" lon="11.696615"><ele>229.0</ele><time>2026-05-03T13:35:45.685Z</time></trkpt><trkpt lat="43.4924767" lon="11.6966917"><ele>227.49999999999997</ele><time>2026-05-03T13:35:46.641Z</time></trkpt><trkpt lat="43.4925633" lon="11.6967983"><ele>226.0</ele><time>2026-05-03T13:35:48.657Z</time></trkpt><trkpt lat="43.4926783" lon="11.6968367"><ele>225.99999999999997</ele><time>2026-05-03T13:35:50.671Z</time></trkpt><trkpt lat="43.4928067" lon="11.6968383"><ele>226.0</ele><time>2026-05-03T13:35:52.686Z</time></trkpt><trkpt lat="43.49288" lon="11.69684"><ele>226.0</ele><time>2026-05-03T13:35:53.661Z</time></trkpt><trkpt lat="43.4929533" lon="11.69684"><ele>226.0</ele><time>2026-05-03T13:35:54.657Z</time></trkpt><trkpt lat="43.4930233" lon="11.6968383"><ele>225.99999999999997</ele><time>2026-05-03T13:35:55.655Z</time></trkpt><trkpt lat="43.4930867" lon="11.69684"><ele>226.0</ele><time>2026-05-03T13:35:56.65Z</time></trkpt><trkpt lat="43.49315" lon="11.696845"><ele>224.60000000000002</ele><time>2026-05-03T13:35:57.652Z</time></trkpt><trkpt lat="43.4932633" lon="11.6968817"><ele>223.20000000000002</ele><time>2026-05-03T13:35:59.68Z</time></trkpt><trkpt lat="43.49338" lon="11.6969083"><ele>221.79999999999998</ele><time>2026-05-03T13:36:01.664Z</time></trkpt><trkpt lat="43.493475" lon="11.6968767"><ele>220.39999999999998</ele><time>2026-05-03T13:36:03.641Z</time></trkpt><trkpt lat="43.4935583" lon="11.6967967"><ele>219.0</ele><time>2026-05-03T13:36:05.643Z</time></trkpt><trkpt lat="43.49361" lon="11.6966783"><ele>219.0</ele><time>2026-05-03T13:36:07.646Z</time></trkpt><trkpt lat="43.4936367" lon="11.6965417"><ele>219.0</ele><time>2026-05-03T13:36:09.648Z</time></trkpt><trkpt lat="43.493685" lon="11.696425"><ele>219.0</ele><time>2026-05-03T13:36:11.658Z</time></trkpt><trkpt lat="43.493785" lon="11.6963683"><ele>219.0</ele><time>2026-05-03T13:36:13.65Z</time></trkpt><trkpt lat="43.49385" lon="11.6963717"><ele>219.0</ele><time>2026-05-03T13:36:14.645Z</time></trkpt><trkpt lat="43.4939117" lon="11.6964017"><ele>219.0</ele><time>2026-05-03T13:36:15.662Z</time></trkpt><trkpt lat="43.4939683" lon="11.6964533"><ele>215.71428571428572</ele><time>2026-05-03T13:36:16.655Z</time></trkpt><trkpt lat="43.49402" lon="11.696515"><ele>212.42857142857142</ele><time>2026-05-03T13:36:17.645Z</time></trkpt><trkpt lat="43.4940583" lon="11.696595"><ele>209.14285714285714</ele><time>2026-05-03T13:36:18.65Z</time></trkpt><trkpt lat="43.4940967" lon="11.6966717"><ele>205.85714285714286</ele><time>2026-05-03T13:36:19.665Z</time></trkpt><trkpt lat="43.4941467" lon="11.6967367"><ele>202.57142857142856</ele><time>2026-05-03T13:36:20.66Z</time></trkpt><trkpt lat="43.49421" lon="11.696795"><ele>199.28571428571428</ele><time>2026-05-03T13:36:21.65Z</time></trkpt><trkpt lat="43.494275" lon="11.6968517"><ele>196.0</ele><time>2026-05-03T13:36:22.645Z</time></trkpt><trkpt lat="43.4943367" lon="11.69691"><ele>195.4</ele><time>2026-05-03T13:36:23.654Z</time></trkpt><trkpt lat="43.4943967" lon="11.6969783"><ele>194.8</ele><time>2026-05-03T13:36:24.659Z</time></trkpt><trkpt lat="43.494445" lon="11.697055"><ele>194.20000000000002</ele><time>2026-05-03T13:36:25.659Z</time></trkpt><trkpt lat="43.4944833" lon="11.69713"><ele>193.60000000000002</ele><time>2026-05-03T13:36:26.651Z</time></trkpt><trkpt lat="43.49454" lon="11.6972733"><ele>193.0</ele><time>2026-05-03T13:36:28.659Z</time></trkpt><trkpt lat="43.4946117" lon="11.6974117"><ele>191.71428571428572</ele><time>2026-05-03T13:36:30.661Z</time></trkpt><trkpt lat="43.4946617" lon="11.6974767"><ele>190.42857142857144</ele><time>2026-05-03T13:36:31.648Z</time></trkpt><trkpt lat="43.4947183" lon="11.6975383"><ele>189.14285714285717</ele><time>2026-05-03T13:36:32.651Z</time></trkpt><trkpt lat="43.4947733" lon="11.6976017"><ele>187.85714285714286</ele><time>2026-05-03T13:36:33.651Z</time></trkpt><trkpt lat="43.4948333" lon="11.6976633"><ele>186.57142857142856</ele><time>2026-05-03T13:36:34.661Z</time></trkpt><trkpt lat="43.4948917" lon="11.69773"><ele>185.2857142857143</ele><time>2026-05-03T13:36:35.662Z</time></trkpt><trkpt lat="43.4949467" lon="11.697795"><ele>184.0</ele><time>2026-05-03T13:36:36.657Z</time></trkpt><trkpt lat="43.4950067" lon="11.697855"><ele>184.0</ele><time>2026-05-03T13:36:37.645Z</time></trkpt><trkpt lat="43.4950733" lon="11.6979167"><ele>184.0</ele><time>2026-05-03T13:36:38.664Z</time></trkpt><trkpt lat="43.4951267" lon="11.6979683"><ele>184.0</ele><time>2026-05-03T13:36:39.648Z</time></trkpt><trkpt lat="43.4951917" lon="11.6980233"><ele>184.0</ele><time>2026-05-03T13:36:40.664Z</time></trkpt><trkpt lat="43.4952583" lon="11.6980867"><ele>184.0</ele><time>2026-05-03T13:36:41.665Z</time></trkpt><trkpt lat="43.495325" lon="11.6981567"><ele>184.0</ele><time>2026-05-03T13:36:42.646Z</time></trkpt><trkpt lat="43.4953933" lon="11.6982433"><ele>183.39999999999998</ele><time>2026-05-03T13:36:43.667Z</time></trkpt><trkpt lat="43.4954617" lon="11.698335"><ele>182.8</ele><time>2026-05-03T13:36:44.658Z</time></trkpt><trkpt lat="43.495525" lon="11.69843"><ele>182.2</ele><time>2026-05-03T13:36:45.654Z</time></trkpt><trkpt lat="43.4955883" lon="11.6985133"><ele>181.60000000000002</ele><time>2026-05-03T13:36:46.657Z</time></trkpt><trkpt lat="43.495655" lon="11.6986033"><ele>181.0</ele><time>2026-05-03T13:36:47.643Z</time></trkpt><trkpt lat="43.4957317" lon="11.698685"><ele>181.0</ele><time>2026-05-03T13:36:48.669Z</time></trkpt><trkpt lat="43.4957983" lon="11.6987583"><ele>181.0</ele><time>2026-05-03T13:36:49.65Z</time></trkpt><trkpt lat="43.4958667" lon="11.698825"><ele>181.0</ele><time>2026-05-03T13:36:50.653Z</time></trkpt><trkpt lat="43.4959433" lon="11.6989017"><ele>181.0</ele><time>2026-05-03T13:36:51.653Z</time></trkpt><trkpt lat="43.4960283" lon="11.698985"><ele>181.0</ele><time>2026-05-03T13:36:52.656Z</time></trkpt><trkpt lat="43.4961083" lon="11.6990433"><ele>181.0</ele><time>2026-05-03T13:36:53.659Z</time></trkpt><trkpt lat="43.496185" lon="11.6991233"><ele>181.0</ele><time>2026-05-03T13:36:54.7Z</time></trkpt><trkpt lat="43.4962633" lon="11.6991917"><ele>181.0</ele><time>2026-05-03T13:36:55.67Z</time></trkpt><trkpt lat="43.49634" lon="11.699265"><ele>181.0</ele><time>2026-05-03T13:36:56.681Z</time></trkpt><trkpt lat="43.4964083" lon="11.69934"><ele>181.0</ele><time>2026-05-03T13:36:57.666Z</time></trkpt><trkpt lat="43.496475" lon="11.6994117"><ele>179.83333333333334</ele><time>2026-05-03T13:36:58.67Z</time></trkpt><trkpt lat="43.4965283" lon="11.69948"><ele>178.66666666666669</ele><time>2026-05-03T13:36:59.66Z</time></trkpt><trkpt lat="43.4965833" lon="11.6995283"><ele>177.5</ele><time>2026-05-03T13:37:00.657Z</time></trkpt><trkpt lat="43.496655" lon="11.699595"><ele>176.33333333333334</ele><time>2026-05-03T13:37:02.653Z</time></trkpt><trkpt lat="43.4967233" lon="11.6996467"><ele>175.16666666666666</ele><time>2026-05-03T13:37:05.65Z</time></trkpt><trkpt lat="43.4967967" lon="11.6996317"><ele>174.0</ele><time>2026-05-03T13:37:08.659Z</time></trkpt><trkpt lat="43.496875" lon="11.69956"><ele>174.0</ele><time>2026-05-03T13:37:12.672Z</time></trkpt><trkpt lat="43.49694" lon="11.699485"><ele>174.0</ele><time>2026-05-03T13:37:14.657Z</time></trkpt><trkpt lat="43.4969967" lon="11.6994283"><ele>174.0</ele><time>2026-05-03T13:37:16.651Z</time></trkpt><trkpt lat="43.4970633" lon="11.69936"><ele>174.0</ele><time>2026-05-03T13:37:19.653Z</time></trkpt><trkpt lat="43.4970967" lon="11.69946"><ele>174.0</ele><time>2026-05-03T13:38:11.656Z</time></trkpt><trkpt lat="43.4971317" lon="11.6996133"><ele>174.0</ele><time>2026-05-03T13:38:13.655Z</time></trkpt><trkpt lat="43.4971533" lon="11.6997033"><ele>173.79999999999998</ele><time>2026-05-03T13:38:14.65Z</time></trkpt><trkpt lat="43.497185" lon="11.699805"><ele>173.6</ele><time>2026-05-03T13:38:15.66Z</time></trkpt><trkpt lat="43.4972217" lon="11.6999183"><ele>173.4</ele><time>2026-05-03T13:38:16.658Z</time></trkpt><trkpt lat="43.4972617" lon="11.7000567"><ele>173.2</ele><time>2026-05-03T13:38:17.662Z</time></trkpt><trkpt lat="43.4973083" lon="11.7002217"><ele>173.0</ele><time>2026-05-03T13:38:18.652Z</time></trkpt><trkpt lat="43.4973583" lon="11.7003933"><ele>173.0</ele><time>2026-05-03T13:38:19.654Z</time></trkpt><trkpt lat="43.497415" lon="11.70058"><ele>173.0</ele><time>2026-05-03T13:38:20.658Z</time></trkpt><trkpt lat="43.497475" lon="11.7007717"><ele>173.0</ele><time>2026-05-03T13:38:21.654Z</time></trkpt><trkpt lat="43.4975283" lon="11.7009767"><ele>173.0</ele><time>2026-05-03T13:38:22.666Z</time></trkpt><trkpt lat="43.49758" lon="11.70117"><ele>173.0</ele><time>2026-05-03T13:38:23.658Z</time></trkpt><trkpt lat="43.4976283" lon="11.70135"><ele>173.0</ele><time>2026-05-03T13:38:24.659Z</time></trkpt><trkpt lat="43.4976833" lon="11.7015217"><ele>173.0</ele><time>2026-05-03T13:38:25.653Z</time></trkpt><trkpt lat="43.4977333" lon="11.7016833"><ele>173.0</ele><time>2026-05-03T13:38:26.659Z</time></trkpt><trkpt lat="43.4977817" lon="11.7018483"><ele>173.0</ele><time>2026-05-03T13:38:27.648Z</time></trkpt><trkpt lat="43.497825" lon="11.7020033"><ele>173.0</ele><time>2026-05-03T13:38:28.667Z</time></trkpt><trkpt lat="43.4978633" lon="11.7021517"><ele>173.0</ele><time>2026-05-03T13:38:29.673Z</time></trkpt><trkpt lat="43.4978983" lon="11.7022817"><ele>172.8</ele><time>2026-05-03T13:38:30.662Z</time></trkpt><trkpt lat="43.4979333" lon="11.7024067"><ele>172.60000000000002</ele><time>2026-05-03T13:38:31.654Z</time></trkpt><trkpt lat="43.4979617" lon="11.7025167"><ele>172.39999999999998</ele><time>2026-05-03T13:38:32.668Z</time></trkpt><trkpt lat="43.4979883" lon="11.7026217"><ele>172.2</ele><time>2026-05-03T13:38:33.653Z</time></trkpt><trkpt lat="43.4980167" lon="11.7027067"><ele>172.0</ele><time>2026-05-03T13:38:34.655Z</time></trkpt><trkpt lat="43.4980917" lon="11.702835"><ele>172.0</ele><time>2026-05-03T13:38:36.669Z</time></trkpt><trkpt lat="43.4981417" lon="11.70289"><ele>172.0</ele><time>2026-05-03T13:38:37.663Z</time></trkpt><trkpt lat="43.4982067" lon="11.7029317"><ele>172.0</ele><time>2026-05-03T13:38:38.65Z</time></trkpt><trkpt lat="43.498285" lon="11.7029367"><ele>172.0</ele><time>2026-05-03T13:38:39.658Z</time></trkpt><trkpt lat="43.4983583" lon="11.7029267"><ele>172.0</ele><time>2026-05-03T13:38:40.663Z</time></trkpt><trkpt lat="43.4984433" lon="11.70291"><ele>172.0</ele><time>2026-05-03T13:38:41.669Z</time></trkpt><trkpt lat="43.4985317" lon="11.7028867"><ele>172.0</ele><time>2026-05-03T13:38:42.659Z</time></trkpt><trkpt lat="43.49863" lon="11.7028683"><ele>172.0</ele><time>2026-05-03T13:38:43.653Z</time></trkpt><trkpt lat="43.4987167" lon="11.70285"><ele>172.0</ele><time>2026-05-03T13:38:44.659Z</time></trkpt><trkpt lat="43.4988017" lon="11.7028383"><ele>172.0</ele><time>2026-05-03T13:38:45.658Z</time></trkpt><trkpt lat="43.4988867" lon="11.7028267"><ele>172.0</ele><time>2026-05-03T13:38:46.652Z</time></trkpt><trkpt lat="43.49897" lon="11.7028117"><ele>172.0</ele><time>2026-05-03T13:38:47.661Z</time></trkpt><trkpt lat="43.499055" lon="11.7028017"><ele>172.16666666666669</ele><time>2026-05-03T13:38:48.657Z</time></trkpt><trkpt lat="43.49913" lon="11.7027967"><ele>172.33333333333334</ele><time>2026-05-03T13:38:49.664Z</time></trkpt><trkpt lat="43.4991983" lon="11.7027967"><ele>172.5</ele><time>2026-05-03T13:38:50.667Z</time></trkpt><trkpt lat="43.4992917" lon="11.7028383"><ele>172.66666666666666</ele><time>2026-05-03T13:38:52.654Z</time></trkpt><trkpt lat="43.4993283" lon="11.7029367"><ele>172.83333333333331</ele><time>2026-05-03T13:38:54.656Z</time></trkpt><trkpt lat="43.49935" lon="11.70308"><ele>173.0</ele><time>2026-05-03T13:38:56.664Z</time></trkpt><trkpt lat="43.4993417" lon="11.7031917"><ele>173.0</ele><time>2026-05-03T13:38:57.654Z</time></trkpt><trkpt lat="43.4993317" lon="11.7033267"><ele>173.0</ele><time>2026-05-03T13:38:58.679Z</time></trkpt><trkpt lat="43.4993117" lon="11.70349"><ele>173.0</ele><time>2026-05-03T13:38:59.654Z</time></trkpt><trkpt lat="43.4992967" lon="11.70367"><ele>173.0</ele><time>2026-05-03T13:39:00.653Z</time></trkpt><trkpt lat="43.499285" lon="11.7038533"><ele>173.5</ele><time>2026-05-03T13:39:01.65Z</time></trkpt><trkpt lat="43.499275" lon="11.7040317"><ele>174.0</ele><time>2026-05-03T13:39:02.661Z</time></trkpt><trkpt lat="43.4992633" lon="11.7042283"><ele>174.5</ele><time>2026-05-03T13:39:03.655Z</time></trkpt><trkpt lat="43.4992483" lon="11.7044283"><ele>175.0</ele><time>2026-05-03T13:39:04.658Z</time></trkpt><trkpt lat="43.4992367" lon="11.7046317"><ele>175.25</ele><time>2026-05-03T13:39:05.661Z</time></trkpt><trkpt lat="43.4992233" lon="11.7048317"><ele>175.5</ele><time>2026-05-03T13:39:06.655Z</time></trkpt><trkpt lat="43.4992067" lon="11.705025"><ele>175.75</ele><time>2026-05-03T13:39:07.651Z</time></trkpt><trkpt lat="43.4992033" lon="11.7052083"><ele>176.0</ele><time>2026-05-03T13:39:08.661Z</time></trkpt><trkpt lat="43.49919" lon="11.7053983"><ele>175.25</ele><time>2026-05-03T13:39:09.651Z</time></trkpt><trkpt lat="43.49918" lon="11.705585"><ele>174.5</ele><time>2026-05-03T13:39:10.66Z</time></trkpt><trkpt lat="43.4991667" lon="11.7057617"><ele>173.75</ele><time>2026-05-03T13:39:11.656Z</time></trkpt><trkpt lat="43.4991467" lon="11.7059483"><ele>173.0</ele><time>2026-05-03T13:39:12.656Z</time></trkpt><trkpt lat="43.4991317" lon="11.70613"><ele>173.0</ele><time>2026-05-03T13:39:13.658Z</time></trkpt><trkpt lat="43.49912" lon="11.7063133"><ele>173.0</ele><time>2026-05-03T13:39:14.656Z</time></trkpt><trkpt lat="43.49911" lon="11.706495"><ele>173.0</ele><time>2026-05-03T13:39:15.645Z</time></trkpt><trkpt lat="43.4991017" lon="11.7066817"><ele>173.0</ele><time>2026-05-03T13:39:16.655Z</time></trkpt><trkpt lat="43.499095" lon="11.7068717"><ele>173.25</ele><time>2026-05-03T13:39:17.659Z</time></trkpt><trkpt lat="43.499085" lon="11.7070633"><ele>173.5</ele><time>2026-05-03T13:39:18.654Z</time></trkpt><trkpt lat="43.4990733" lon="11.7072583"><ele>173.75</ele><time>2026-05-03T13:39:19.667Z</time></trkpt><trkpt lat="43.4990667" lon="11.7074517"><ele>174.0</ele><time>2026-05-03T13:39:20.65Z</time></trkpt><trkpt lat="43.4990533" lon="11.7076333"><ele>173.75</ele><time>2026-05-03T13:39:21.659Z</time></trkpt><trkpt lat="43.4990383" lon="11.7078117"><ele>173.5</ele><time>2026-05-03T13:39:22.646Z</time></trkpt><trkpt lat="43.4990283" lon="11.7079917"><ele>173.25</ele><time>2026-05-03T13:39:23.66Z</time></trkpt><trkpt lat="43.4990133" lon="11.708165"><ele>173.0</ele><time>2026-05-03T13:39:24.659Z</time></trkpt><trkpt lat="43.499005" lon="11.7083267"><ele>173.0</ele><time>2026-05-03T13:39:25.652Z</time></trkpt><trkpt lat="43.4989933" lon="11.70848"><ele>173.0</ele><time>2026-05-03T13:39:26.658Z</time></trkpt><trkpt lat="43.498985" lon="11.7086283"><ele>173.0</ele><time>2026-05-03T13:39:27.659Z</time></trkpt><trkpt lat="43.4989783" lon="11.7087583"><ele>173.0</ele><time>2026-05-03T13:39:28.666Z</time></trkpt><trkpt lat="43.49897" lon="11.7088933"><ele>173.0</ele><time>2026-05-03T13:39:29.653Z</time></trkpt><trkpt lat="43.4989667" lon="11.7090083"><ele>173.0</ele><time>2026-05-03T13:39:30.655Z</time></trkpt><trkpt lat="43.4989583" lon="11.70912"><ele>173.0</ele><time>2026-05-03T13:39:31.66Z</time></trkpt><trkpt lat="43.4989567" lon="11.7092283"><ele>173.0</ele><time>2026-05-03T13:39:32.661Z</time></trkpt><trkpt lat="43.4989533" lon="11.7093383"><ele>173.0</ele><time>2026-05-03T13:39:33.656Z</time></trkpt><trkpt lat="43.4989433" lon="11.70945"><ele>173.0</ele><time>2026-05-03T13:39:34.654Z</time></trkpt><trkpt lat="43.4989317" lon="11.70956"><ele>173.0</ele><time>2026-05-03T13:39:35.657Z</time></trkpt><trkpt lat="43.4989133" lon="11.709665"><ele>173.0</ele><time>2026-05-03T13:39:36.646Z</time></trkpt><trkpt lat="43.4988883" lon="11.7097567"><ele>173.0</ele><time>2026-05-03T13:39:37.669Z</time></trkpt><trkpt lat="43.4987983" lon="11.7098967"><ele>173.0</ele><time>2026-05-03T13:39:39.662Z</time></trkpt><trkpt lat="43.498735" lon="11.7099583"><ele>173.0</ele><time>2026-05-03T13:39:40.653Z</time></trkpt><trkpt lat="43.4986733" lon="11.709995"><ele>173.0</ele><time>2026-05-03T13:39:41.688Z</time></trkpt><trkpt lat="43.49858" lon="11.710065"><ele>173.0</ele><time>2026-05-03T13:39:43.67Z</time></trkpt><trkpt lat="43.4985283" lon="11.7102083"><ele>173.0</ele><time>2026-05-03T13:39:45.646Z</time></trkpt><trkpt lat="43.4985433" lon="11.710335"><ele>173.0</ele><time>2026-05-03T13:39:47.656Z</time></trkpt><trkpt lat="43.4986083" lon="11.7104467"><ele>173.0</ele><time>2026-05-03T13:39:49.668Z</time></trkpt><trkpt lat="43.4986683" lon="11.7104883"><ele>173.0</ele><time>2026-05-03T13:39:50.653Z</time></trkpt><trkpt lat="43.4987283" lon="11.7105317"><ele>173.0</ele><time>2026-05-03T13:39:51.663Z</time></trkpt><trkpt lat="43.4987833" lon="11.710585"><ele>172.66666666666666</ele><time>2026-05-03T13:39:52.656Z</time></trkpt><trkpt lat="43.4988267" lon="11.710655"><ele>172.33333333333331</ele><time>2026-05-03T13:39:53.659Z</time></trkpt><trkpt lat="43.498845" lon="11.71074"><ele>172.0</ele><time>2026-05-03T13:39:54.652Z</time></trkpt><trkpt lat="43.49885" lon="11.710835"><ele>171.66666666666666</ele><time>2026-05-03T13:39:55.651Z</time></trkpt><trkpt lat="43.4988467" lon="11.71094"><ele>171.33333333333334</ele><time>2026-05-03T13:39:56.649Z</time></trkpt><trkpt lat="43.4988383" lon="11.711065"><ele>171.0</ele><time>2026-05-03T13:39:57.654Z</time></trkpt><trkpt lat="43.49883" lon="11.711205"><ele>171.0</ele><time>2026-05-03T13:39:58.651Z</time></trkpt><trkpt lat="43.4988183" lon="11.7113617"><ele>171.0</ele><time>2026-05-03T13:39:59.651Z</time></trkpt><trkpt lat="43.498805" lon="11.711525"><ele>171.0</ele><time>2026-05-03T13:40:00.651Z</time></trkpt><trkpt lat="43.4987933" lon="11.7117083"><ele>171.0</ele><time>2026-05-03T13:40:01.68Z</time></trkpt><trkpt lat="43.4987717" lon="11.711895"><ele>171.0</ele><time>2026-05-03T13:40:02.652Z</time></trkpt><trkpt lat="43.4987533" lon="11.7120817"><ele>171.0</ele><time>2026-05-03T13:40:03.652Z</time></trkpt><trkpt lat="43.49874" lon="11.71228"><ele>171.0</ele><time>2026-05-03T13:40:04.661Z</time></trkpt><trkpt lat="43.498715" lon="11.7124883"><ele>171.0</ele><time>2026-05-03T13:40:05.65Z</time></trkpt><trkpt lat="43.49869" lon="11.7126967"><ele>171.25</ele><time>2026-05-03T13:40:06.666Z</time></trkpt><trkpt lat="43.4986733" lon="11.7128917"><ele>171.5</ele><time>2026-05-03T13:40:07.646Z</time></trkpt><trkpt lat="43.4986617" lon="11.7130867"><ele>171.75</ele><time>2026-05-03T13:40:08.653Z</time></trkpt><trkpt lat="43.4986483" lon="11.7132867"><ele>172.0</ele><time>2026-05-03T13:40:09.658Z</time></trkpt><trkpt lat="43.49863" lon="11.7135033"><ele>172.33333333333334</ele><time>2026-05-03T13:40:10.658Z</time></trkpt><trkpt lat="43.498615" lon="11.7137067"><ele>172.66666666666666</ele><time>2026-05-03T13:40:11.655Z</time></trkpt><trkpt lat="43.4985967" lon="11.7139217"><ele>173.0</ele><time>2026-05-03T13:40:12.662Z</time></trkpt><trkpt lat="43.4985817" lon="11.71413"><ele>173.0</ele><time>2026-05-03T13:40:13.659Z</time></trkpt><trkpt lat="43.4985717" lon="11.7143383"><ele>173.0</ele><time>2026-05-03T13:40:14.651Z</time></trkpt><trkpt lat="43.49856" lon="11.7145467"><ele>173.0</ele><time>2026-05-03T13:40:15.65Z</time></trkpt><trkpt lat="43.4985517" lon="11.7147633"><ele>172.66666666666666</ele><time>2026-05-03T13:40:16.661Z</time></trkpt><trkpt lat="43.4985367" lon="11.7149783"><ele>172.33333333333334</ele><time>2026-05-03T13:40:17.657Z</time></trkpt><trkpt lat="43.4985217" lon="11.7151967"><ele>172.0</ele><time>2026-05-03T13:40:18.68Z</time></trkpt><trkpt lat="43.4985" lon="11.7154133"><ele>172.0</ele><time>2026-05-03T13:40:19.658Z</time></trkpt><trkpt lat="43.4984783" lon="11.715635"><ele>172.0</ele><time>2026-05-03T13:40:20.652Z</time></trkpt><trkpt lat="43.4984567" lon="11.7158583"><ele>172.0</ele><time>2026-05-03T13:40:21.65Z</time></trkpt><trkpt lat="43.4984333" lon="11.716075"><ele>172.25</ele><time>2026-05-03T13:40:22.658Z</time></trkpt><trkpt lat="43.4984083" lon="11.7162967"><ele>172.5</ele><time>2026-05-03T13:40:23.655Z</time></trkpt><trkpt lat="43.49839" lon="11.7164883"><ele>172.75</ele><time>2026-05-03T13:40:24.646Z</time></trkpt><trkpt lat="43.49837" lon="11.71667"><ele>173.0</ele><time>2026-05-03T13:40:25.645Z</time></trkpt><trkpt lat="43.4983533" lon="11.7168533"><ele>173.0</ele><time>2026-05-03T13:40:26.658Z</time></trkpt><trkpt lat="43.498335" lon="11.7170433"><ele>173.0</ele><time>2026-05-03T13:40:27.642Z</time></trkpt><trkpt lat="43.4983167" lon="11.7172383"><ele>173.0</ele><time>2026-05-03T13:40:28.649Z</time></trkpt><trkpt lat="43.498295" lon="11.717435"><ele>173.0</ele><time>2026-05-03T13:40:29.662Z</time></trkpt><trkpt lat="43.4982683" lon="11.7176333"><ele>172.5</ele><time>2026-05-03T13:40:30.659Z</time></trkpt><trkpt lat="43.49824" lon="11.71783"><ele>172.0</ele><time>2026-05-03T13:40:31.678Z</time></trkpt><trkpt lat="43.4982167" lon="11.7180133"><ele>171.5</ele><time>2026-05-03T13:40:32.657Z</time></trkpt><trkpt lat="43.498195" lon="11.7181783"><ele>171.0</ele><time>2026-05-03T13:40:33.679Z</time></trkpt><trkpt lat="43.49817" lon="11.71833"><ele>171.0</ele><time>2026-05-03T13:40:34.674Z</time></trkpt><trkpt lat="43.498145" lon="11.7184767"><ele>171.0</ele><time>2026-05-03T13:40:35.654Z</time></trkpt><trkpt lat="43.4981267" lon="11.7186167"><ele>171.0</ele><time>2026-05-03T13:40:36.656Z</time></trkpt><trkpt lat="43.49811" lon="11.7187333"><ele>171.0</ele><time>2026-05-03T13:40:37.659Z</time></trkpt><trkpt lat="43.4980967" lon="11.7188367"><ele>171.0</ele><time>2026-05-03T13:40:38.663Z</time></trkpt><trkpt lat="43.4980817" lon="11.718975"><ele>171.20000000000002</ele><time>2026-05-03T13:40:40.664Z</time></trkpt><trkpt lat="43.4981067" lon="11.7190717"><ele>171.4</ele><time>2026-05-03T13:40:43.664Z</time></trkpt><trkpt lat="43.4982017" lon="11.7191083"><ele>171.6</ele><time>2026-05-03T13:40:45.653Z</time></trkpt><trkpt lat="43.49832" lon="11.7191283"><ele>171.8</ele><time>2026-05-03T13:40:47.67Z</time></trkpt><trkpt lat="43.4984483" lon="11.719165"><ele>172.0</ele><time>2026-05-03T13:40:49.664Z</time></trkpt><trkpt lat="43.4985233" lon="11.71918"><ele>172.0</ele><time>2026-05-03T13:40:50.639Z</time></trkpt><trkpt lat="43.4986067" lon="11.719195"><ele>172.0</ele><time>2026-05-03T13:40:51.678Z</time></trkpt><trkpt lat="43.4987" lon="11.7192133"><ele>172.0</ele><time>2026-05-03T13:40:52.663Z</time></trkpt><trkpt lat="43.4988" lon="11.7192383"><ele>172.0</ele><time>2026-05-03T13:40:53.657Z</time></trkpt><trkpt lat="43.4989017" lon="11.71927"><ele>172.0</ele><time>2026-05-03T13:40:54.685Z</time></trkpt><trkpt lat="43.4990083" lon="11.719295"><ele>172.0</ele><time>2026-05-03T13:40:55.649Z</time></trkpt><trkpt lat="43.49912" lon="11.7193167"><ele>172.0</ele><time>2026-05-03T13:40:56.647Z</time></trkpt><trkpt lat="43.4992383" lon="11.7193433"><ele>172.0</ele><time>2026-05-03T13:40:57.669Z</time></trkpt><trkpt lat="43.499345" lon="11.719365"><ele>172.0</ele><time>2026-05-03T13:40:58.657Z</time></trkpt><trkpt lat="43.49944" lon="11.719385"><ele>172.0</ele><time>2026-05-03T13:40:59.66Z</time></trkpt><trkpt lat="43.4995383" lon="11.7193967"><ele>173.25</ele><time>2026-05-03T13:41:00.672Z</time></trkpt><trkpt lat="43.4996383" lon="11.719365"><ele>174.5</ele><time>2026-05-03T13:41:01.675Z</time></trkpt><trkpt lat="43.49973" lon="11.71928"><ele>175.75</ele><time>2026-05-03T13:41:02.686Z</time></trkpt><trkpt lat="43.4998167" lon="11.7191667"><ele>177.0</ele><time>2026-05-03T13:41:03.662Z</time></trkpt><trkpt lat="43.4999067" lon="11.7190217"><ele>177.0</ele><time>2026-05-03T13:41:04.656Z</time></trkpt><trkpt lat="43.5" lon="11.71889"><ele>177.0</ele><time>2026-05-03T13:41:05.666Z</time></trkpt><trkpt lat="43.5000833" lon="11.7187533"><ele>177.0</ele><time>2026-05-03T13:41:06.646Z</time></trkpt><trkpt lat="43.50017" lon="11.7186317"><ele>177.0</ele><time>2026-05-03T13:41:07.657Z</time></trkpt><trkpt lat="43.50025" lon="11.718515"><ele>177.2</ele><time>2026-05-03T13:41:08.657Z</time></trkpt><trkpt lat="43.5003317" lon="11.7184183"><ele>177.39999999999998</ele><time>2026-05-03T13:41:09.645Z</time></trkpt><trkpt lat="43.5004183" lon="11.7183433"><ele>177.60000000000002</ele><time>2026-05-03T13:41:10.653Z</time></trkpt><trkpt lat="43.5005083" lon="11.7182667"><ele>177.8</ele><time>2026-05-03T13:41:11.662Z</time></trkpt><trkpt lat="43.5006" lon="11.7181917"><ele>178.0</ele><time>2026-05-03T13:41:12.662Z</time></trkpt><trkpt lat="43.5006883" lon="11.71813"><ele>178.0</ele><time>2026-05-03T13:41:13.658Z</time></trkpt><trkpt lat="43.50077" lon="11.7180617"><ele>178.0</ele><time>2026-05-03T13:41:14.655Z</time></trkpt><trkpt lat="43.5008417" lon="11.718"><ele>178.0</ele><time>2026-05-03T13:41:15.657Z</time></trkpt><trkpt lat="43.5009067" lon="11.71794"><ele>178.0</ele><time>2026-05-03T13:41:16.643Z</time></trkpt><trkpt lat="43.5009617" lon="11.7178833"><ele>178.0</ele><time>2026-05-03T13:41:17.657Z</time></trkpt><trkpt lat="43.5010517" lon="11.7178267"><ele>178.0</ele><time>2026-05-03T13:41:19.657Z</time></trkpt><trkpt lat="43.50101" lon="11.7179467"><ele>178.0</ele><time>2026-05-03T13:41:23.652Z</time></trkpt><trkpt lat="43.50094" lon="11.7179883"><ele>178.0</ele><time>2026-05-03T13:41:24.654Z</time></trkpt><trkpt lat="43.5008617" lon="11.7180417"><ele>178.0</ele><time>2026-05-03T13:41:25.652Z</time></trkpt><trkpt lat="43.5007783" lon="11.7181183"><ele>178.0</ele><time>2026-05-03T13:41:26.655Z</time></trkpt><trkpt lat="43.5006833" lon="11.7181917"><ele>178.0</ele><time>2026-05-03T13:41:27.648Z</time></trkpt><trkpt lat="43.50058" lon="11.71827"><ele>178.0</ele><time>2026-05-03T13:41:28.658Z</time></trkpt><trkpt lat="43.5004817" lon="11.71835"><ele>178.0</ele><time>2026-05-03T13:41:29.644Z</time></trkpt><trkpt lat="43.500385" lon="11.7184317"><ele>178.0</ele><time>2026-05-03T13:41:30.654Z</time></trkpt><trkpt lat="43.5003017" lon="11.718515"><ele>178.0</ele><time>2026-05-03T13:41:31.652Z</time></trkpt><trkpt lat="43.5002283" lon="11.718595"><ele>178.0</ele><time>2026-05-03T13:41:32.644Z</time></trkpt><trkpt lat="43.5001667" lon="11.718685"><ele>177.83333333333334</ele><time>2026-05-03T13:41:33.654Z</time></trkpt><trkpt lat="43.5001117" lon="11.7187717"><ele>177.66666666666669</ele><time>2026-05-03T13:41:34.649Z</time></trkpt><trkpt lat="43.5000583" lon="11.71886"><ele>177.5</ele><time>2026-05-03T13:41:35.668Z</time></trkpt><trkpt lat="43.5" lon="11.71895"><ele>177.33333333333334</ele><time>2026-05-03T13:41:36.65Z</time></trkpt><trkpt lat="43.4999417" lon="11.719045"><ele>177.16666666666666</ele><time>2026-05-03T13:41:37.638Z</time></trkpt><trkpt lat="43.4998867" lon="11.7191417"><ele>177.0</ele><time>2026-05-03T13:41:38.651Z</time></trkpt><trkpt lat="43.4998183" lon="11.7192933"><ele>177.0</ele><time>2026-05-03T13:41:40.676Z</time></trkpt><trkpt lat="43.4997717" lon="11.7193983"><ele>177.0</ele><time>2026-05-03T13:41:42.645Z</time></trkpt><trkpt lat="43.4997267" lon="11.7195133"><ele>177.0</ele><time>2026-05-03T13:41:44.662Z</time></trkpt><trkpt lat="43.4997133" lon="11.7195983"><ele>177.0</ele><time>2026-05-03T13:41:45.65Z</time></trkpt><trkpt lat="43.4996967" lon="11.7196983"><ele>177.0</ele><time>2026-05-03T13:41:46.651Z</time></trkpt><trkpt lat="43.4996767" lon="11.7198083"><ele>177.0</ele><time>2026-05-03T13:41:47.653Z</time></trkpt><trkpt lat="43.499655" lon="11.7199233"><ele>176.8</ele><time>2026-05-03T13:41:48.667Z</time></trkpt><trkpt lat="43.4996317" lon="11.7200517"><ele>176.6</ele><time>2026-05-03T13:41:49.648Z</time></trkpt><trkpt lat="43.4996083" lon="11.7201817"><ele>176.4</ele><time>2026-05-03T13:41:50.649Z</time></trkpt><trkpt lat="43.4995817" lon="11.7203133"><ele>176.20000000000002</ele><time>2026-05-03T13:41:51.656Z</time></trkpt><trkpt lat="43.4995583" lon="11.7204483"><ele>176.0</ele><time>2026-05-03T13:41:52.661Z</time></trkpt><trkpt lat="43.49954" lon="11.7205833"><ele>175.25</ele><time>2026-05-03T13:41:53.659Z</time></trkpt><trkpt lat="43.499525" lon="11.7207333"><ele>174.5</ele><time>2026-05-03T13:41:54.647Z</time></trkpt><trkpt lat="43.4995183" lon="11.72089"><ele>173.75</ele><time>2026-05-03T13:41:55.651Z</time></trkpt><trkpt lat="43.4995083" lon="11.7210483"><ele>173.0</ele><time>2026-05-03T13:41:56.654Z</time></trkpt><trkpt lat="43.49949" lon="11.721205"><ele>173.0</ele><time>2026-05-03T13:41:57.647Z</time></trkpt><trkpt lat="43.4994683" lon="11.72134"><ele>173.0</ele><time>2026-05-03T13:41:58.637Z</time></trkpt><trkpt lat="43.4994533" lon="11.7214667"><ele>173.0</ele><time>2026-05-03T13:41:59.654Z</time></trkpt><trkpt lat="43.49944" lon="11.7215967"><ele>173.0</ele><time>2026-05-03T13:42:00.667Z</time></trkpt><trkpt lat="43.4994267" lon="11.72172"><ele>173.0</ele><time>2026-05-03T13:42:01.652Z</time></trkpt><trkpt lat="43.4994183" lon="11.7218233"><ele>173.33333333333331</ele><time>2026-05-03T13:42:02.647Z</time></trkpt><trkpt lat="43.4994083" lon="11.7219117"><ele>173.66666666666666</ele><time>2026-05-03T13:42:03.659Z</time></trkpt><trkpt lat="43.49939" lon="11.722055"><ele>174.0</ele><time>2026-05-03T13:42:05.659Z</time></trkpt><trkpt lat="43.4994067" lon="11.7222083"><ele>174.33333333333334</ele><time>2026-05-03T13:42:07.641Z</time></trkpt><trkpt lat="43.49944" lon="11.722295"><ele>174.66666666666669</ele><time>2026-05-03T13:42:08.668Z</time></trkpt><trkpt lat="43.4994883" lon="11.7223867"><ele>175.0</ele><time>2026-05-03T13:42:09.658Z</time></trkpt><trkpt lat="43.4995483" lon="11.722465"><ele>175.6</ele><time>2026-05-03T13:42:10.659Z</time></trkpt><trkpt lat="43.4996233" lon="11.7225483"><ele>176.2</ele><time>2026-05-03T13:42:11.66Z</time></trkpt><trkpt lat="43.4997083" lon="11.7226317"><ele>176.8</ele><time>2026-05-03T13:42:12.66Z</time></trkpt><trkpt lat="43.4997967" lon="11.7227283"><ele>177.4</ele><time>2026-05-03T13:42:13.658Z</time></trkpt><trkpt lat="43.49988" lon="11.7228283"><ele>178.0</ele><time>2026-05-03T13:42:14.656Z</time></trkpt><trkpt lat="43.4999517" lon="11.72292"><ele>178.0</ele><time>2026-05-03T13:42:15.675Z</time></trkpt><trkpt lat="43.500025" lon="11.7230217"><ele>178.0</ele><time>2026-05-03T13:42:16.659Z</time></trkpt><trkpt lat="43.5000883" lon="11.7231183"><ele>178.0</ele><time>2026-05-03T13:42:17.682Z</time></trkpt><trkpt lat="43.5001517" lon="11.7232233"><ele>178.0</ele><time>2026-05-03T13:42:18.66Z</time></trkpt><trkpt lat="43.5001917" lon="11.7233467"><ele>178.0</ele><time>2026-05-03T13:42:19.658Z</time></trkpt><trkpt lat="43.5002117" lon="11.7234817"><ele>178.0</ele><time>2026-05-03T13:42:20.656Z</time></trkpt><trkpt lat="43.5002217" lon="11.72362"><ele>178.0</ele><time>2026-05-03T13:42:21.658Z</time></trkpt><trkpt lat="43.5002283" lon="11.7237433"><ele>178.0</ele><time>2026-05-03T13:42:22.653Z</time></trkpt><trkpt lat="43.500235" lon="11.7238633"><ele>178.0</ele><time>2026-05-03T13:42:23.673Z</time></trkpt><trkpt lat="43.50024" lon="11.7239683"><ele>178.0</ele><time>2026-05-03T13:42:24.654Z</time></trkpt><trkpt lat="43.500245" lon="11.7240683"><ele>178.0</ele><time>2026-05-03T13:42:25.653Z</time></trkpt><trkpt lat="43.5002483" lon="11.7241567"><ele>178.0</ele><time>2026-05-03T13:42:26.652Z</time></trkpt><trkpt lat="43.50025" lon="11.72428"><ele>178.0</ele><time>2026-05-03T13:42:28.65Z</time></trkpt><trkpt lat="43.5002567" lon="11.72439"><ele>178.0</ele><time>2026-05-03T13:42:31.659Z</time></trkpt><trkpt lat="43.5002567" lon="11.72427"><ele>178.0</ele><time>2026-05-03T13:42:53.662Z</time></trkpt><trkpt lat="43.5002617" lon="11.72417"><ele>178.0</ele><time>2026-05-03T13:42:54.662Z</time></trkpt><trkpt lat="43.500255" lon="11.724055"><ele>178.0</ele><time>2026-05-03T13:42:55.654Z</time></trkpt><trkpt lat="43.5002517" lon="11.72392"><ele>178.0</ele><time>2026-05-03T13:42:56.642Z</time></trkpt><trkpt lat="43.5002383" lon="11.72378"><ele>178.0</ele><time>2026-05-03T13:42:57.655Z</time></trkpt><trkpt lat="43.5002267" lon="11.7236417"><ele>178.0</ele><time>2026-05-03T13:42:58.653Z</time></trkpt><trkpt lat="43.5002133" lon="11.7235017"><ele>178.0</ele><time>2026-05-03T13:42:59.665Z</time></trkpt><trkpt lat="43.5001933" lon="11.7233783"><ele>178.0</ele><time>2026-05-03T13:43:00.658Z</time></trkpt><trkpt lat="43.5001617" lon="11.723265"><ele>178.0</ele><time>2026-05-03T13:43:01.654Z</time></trkpt><trkpt lat="43.50012" lon="11.72315"><ele>178.0</ele><time>2026-05-03T13:43:02.646Z</time></trkpt><trkpt lat="43.5000667" lon="11.72305"><ele>178.0</ele><time>2026-05-03T13:43:03.655Z</time></trkpt><trkpt lat="43.49999" lon="11.7229517"><ele>178.0</ele><time>2026-05-03T13:43:04.658Z</time></trkpt><trkpt lat="43.4999117" lon="11.7228517"><ele>178.0</ele><time>2026-05-03T13:43:05.664Z</time></trkpt><trkpt lat="43.499825" lon="11.7227483"><ele>178.0</ele><time>2026-05-03T13:43:06.646Z</time></trkpt><trkpt lat="43.4997367" lon="11.722645"><ele>178.0</ele><time>2026-05-03T13:43:07.661Z</time></trkpt><trkpt lat="43.49965" lon="11.72255"><ele>178.0</ele><time>2026-05-03T13:43:08.658Z</time></trkpt><trkpt lat="43.4995717" lon="11.7224617"><ele>178.0</ele><time>2026-05-03T13:43:09.652Z</time></trkpt><trkpt lat="43.4994967" lon="11.7223783"><ele>178.0</ele><time>2026-05-03T13:43:10.659Z</time></trkpt><trkpt lat="43.4994417" lon="11.7222983"><ele>177.5</ele><time>2026-05-03T13:43:11.657Z</time></trkpt><trkpt lat="43.4994033" lon="11.7222"><ele>177.0</ele><time>2026-05-03T13:43:12.649Z</time></trkpt><trkpt lat="43.499385" lon="11.7221017"><ele>176.5</ele><time>2026-05-03T13:43:13.657Z</time></trkpt><trkpt lat="43.4993867" lon="11.7220067"><ele>176.0</ele><time>2026-05-03T13:43:14.645Z</time></trkpt><trkpt lat="43.4994067" lon="11.7218917"><ele>175.5</ele><time>2026-05-03T13:43:15.657Z</time></trkpt><trkpt lat="43.49943" lon="11.7217533"><ele>175.0</ele><time>2026-05-03T13:43:16.67Z</time></trkpt><trkpt lat="43.4994483" lon="11.7216017"><ele>174.5</ele><time>2026-05-03T13:43:17.664Z</time></trkpt><trkpt lat="43.4994683" lon="11.721455"><ele>174.0</ele><time>2026-05-03T13:43:18.651Z</time></trkpt><trkpt lat="43.499485" lon="11.7212967"><ele>173.5</ele><time>2026-05-03T13:43:19.655Z</time></trkpt><trkpt lat="43.499505" lon="11.7211383"><ele>173.0</ele><time>2026-05-03T13:43:20.663Z</time></trkpt><trkpt lat="43.4995183" lon="11.7209667"><ele>173.0</ele><time>2026-05-03T13:43:21.675Z</time></trkpt><trkpt lat="43.4995233" lon="11.72081"><ele>173.0</ele><time>2026-05-03T13:43:22.668Z</time></trkpt><trkpt lat="43.4995383" lon="11.72066"><ele>173.0</ele><time>2026-05-03T13:43:23.653Z</time></trkpt><trkpt lat="43.499555" lon="11.7205233"><ele>173.0</ele><time>2026-05-03T13:43:24.662Z</time></trkpt><trkpt lat="43.4995833" lon="11.7203833"><ele>173.0</ele><time>2026-05-03T13:43:25.662Z</time></trkpt><trkpt lat="43.4996167" lon="11.72023"><ele>173.60000000000002</ele><time>2026-05-03T13:43:26.651Z</time></trkpt><trkpt lat="43.499645" lon="11.720095"><ele>174.20000000000002</ele><time>2026-05-03T13:43:27.659Z</time></trkpt><trkpt lat="43.4996783" lon="11.719965"><ele>174.8</ele><time>2026-05-03T13:43:28.662Z</time></trkpt><trkpt lat="43.499695" lon="11.7198317"><ele>175.4</ele><time>2026-05-03T13:43:29.649Z</time></trkpt><trkpt lat="43.4997117" lon="11.71971"><ele>176.0</ele><time>2026-05-03T13:43:30.65Z</time></trkpt><trkpt lat="43.4997333" lon="11.7195867"><ele>176.0</ele><time>2026-05-03T13:43:31.665Z</time></trkpt><trkpt lat="43.4997517" lon="11.7194783"><ele>176.0</ele><time>2026-05-03T13:43:32.659Z</time></trkpt><trkpt lat="43.4997617" lon="11.71939"><ele>176.0</ele><time>2026-05-03T13:43:33.648Z</time></trkpt><trkpt lat="43.4997817" lon="11.71924"><ele>176.0</ele><time>2026-05-03T13:43:35.661Z</time></trkpt><trkpt lat="43.499845" lon="11.7190983"><ele>176.0</ele><time>2026-05-03T13:43:37.651Z</time></trkpt><trkpt lat="43.4998917" lon="11.7190233"><ele>176.0</ele><time>2026-05-03T13:43:38.662Z</time></trkpt><trkpt lat="43.4999517" lon="11.7189483"><ele>176.20000000000002</ele><time>2026-05-03T13:43:39.662Z</time></trkpt><trkpt lat="43.5000067" lon="11.7188633"><ele>176.4</ele><time>2026-05-03T13:43:40.645Z</time></trkpt><trkpt lat="43.50007" lon="11.71876"><ele>176.6</ele><time>2026-05-03T13:43:41.658Z</time></trkpt><trkpt lat="43.5001367" lon="11.7186483"><ele>176.8</ele><time>2026-05-03T13:43:42.648Z</time></trkpt><trkpt lat="43.50022" lon="11.71854"><ele>177.0</ele><time>2026-05-03T13:43:43.639Z</time></trkpt><trkpt lat="43.5003167" lon="11.71844"><ele>177.25</ele><time>2026-05-03T13:43:44.651Z</time></trkpt><trkpt lat="43.50042" lon="11.7183467"><ele>177.5</ele><time>2026-05-03T13:43:45.643Z</time></trkpt><trkpt lat="43.500535" lon="11.7182533"><ele>177.75</ele><time>2026-05-03T13:43:46.642Z</time></trkpt><trkpt lat="43.5006533" lon="11.71817"><ele>178.0</ele><time>2026-05-03T13:43:47.659Z</time></trkpt><trkpt lat="43.5007717" lon="11.71807"><ele>178.0</ele><time>2026-05-03T13:43:48.645Z</time></trkpt><trkpt lat="43.50089" lon="11.7179683"><ele>178.0</ele><time>2026-05-03T13:43:49.645Z</time></trkpt><trkpt lat="43.5010083" lon="11.717875"><ele>178.0</ele><time>2026-05-03T13:43:50.671Z</time></trkpt><trkpt lat="43.501125" lon="11.71779"><ele>178.0</ele><time>2026-05-03T13:43:51.649Z</time></trkpt><trkpt lat="43.5012417" lon="11.71769"><ele>177.75</ele><time>2026-05-03T13:43:52.654Z</time></trkpt><trkpt lat="43.5013533" lon="11.71761"><ele>177.5</ele><time>2026-05-03T13:43:53.656Z</time></trkpt><trkpt lat="43.5014633" lon="11.71752"><ele>177.25</ele><time>2026-05-03T13:43:54.654Z</time></trkpt><trkpt lat="43.5015717" lon="11.71742"><ele>177.0</ele><time>2026-05-03T13:43:55.656Z</time></trkpt><trkpt lat="43.5016833" lon="11.7173267"><ele>177.0</ele><time>2026-05-03T13:43:56.663Z</time></trkpt><trkpt lat="43.50179" lon="11.7172383"><ele>177.0</ele><time>2026-05-03T13:43:57.662Z</time></trkpt><trkpt lat="43.5018917" lon="11.7171567"><ele>177.0</ele><time>2026-05-03T13:43:58.66Z</time></trkpt><trkpt lat="43.501985" lon="11.7170767"><ele>177.0</ele><time>2026-05-03T13:43:59.66Z</time></trkpt><trkpt lat="43.502075" lon="11.7170067"><ele>177.0</ele><time>2026-05-03T13:44:00.657Z</time></trkpt><trkpt lat="43.5021683" lon="11.716945"><ele>177.0</ele><time>2026-05-03T13:44:01.659Z</time></trkpt><trkpt lat="43.5022683" lon="11.716865"><ele>177.0</ele><time>2026-05-03T13:44:02.658Z</time></trkpt><trkpt lat="43.50237" lon="11.71678"><ele>177.0</ele><time>2026-05-03T13:44:03.652Z</time></trkpt><trkpt lat="43.5024683" lon="11.7167"><ele>177.25</ele><time>2026-05-03T13:44:04.658Z</time></trkpt><trkpt lat="43.5025617" lon="11.7166233"><ele>177.5</ele><time>2026-05-03T13:44:05.659Z</time></trkpt><trkpt lat="43.5026633" lon="11.71654"><ele>177.75</ele><time>2026-05-03T13:44:06.654Z</time></trkpt><trkpt lat="43.5027633" lon="11.7164617"><ele>178.0</ele><time>2026-05-03T13:44:07.665Z</time></trkpt><trkpt lat="43.5028667" lon="11.7163833"><ele>178.0</ele><time>2026-05-03T13:44:08.656Z</time></trkpt><trkpt lat="43.5029717" lon="11.7163033"><ele>178.0</ele><time>2026-05-03T13:44:09.641Z</time></trkpt><trkpt lat="43.5030817" lon="11.7162183"><ele>178.0</ele><time>2026-05-03T13:44:10.651Z</time></trkpt><trkpt lat="43.50319" lon="11.7161333"><ele>178.0</ele><time>2026-05-03T13:44:11.642Z</time></trkpt><trkpt lat="43.5033017" lon="11.716065"><ele>177.75</ele><time>2026-05-03T13:44:12.644Z</time></trkpt><trkpt lat="43.503405" lon="11.7159667"><ele>177.5</ele><time>2026-05-03T13:44:13.642Z</time></trkpt><trkpt lat="43.5035083" lon="11.71587"><ele>177.25</ele><time>2026-05-03T13:44:14.648Z</time></trkpt><trkpt lat="43.5036367" lon="11.7157917"><ele>177.0</ele><time>2026-05-03T13:44:15.647Z</time></trkpt><trkpt lat="43.503755" lon="11.715705"><ele>176.75</ele><time>2026-05-03T13:44:16.637Z</time></trkpt><trkpt lat="43.50388" lon="11.7156133"><ele>176.5</ele><time>2026-05-03T13:44:17.653Z</time></trkpt><trkpt lat="43.504" lon="11.7155083"><ele>176.25</ele><time>2026-05-03T13:44:18.66Z</time></trkpt><trkpt lat="43.5041167" lon="11.7154233"><ele>176.0</ele><time>2026-05-03T13:44:19.653Z</time></trkpt><trkpt lat="43.5042417" lon="11.7153317"><ele>175.5</ele><time>2026-05-03T13:44:20.657Z</time></trkpt><trkpt lat="43.504365" lon="11.7152333"><ele>175.0</ele><time>2026-05-03T13:44:21.653Z</time></trkpt><trkpt lat="43.5044817" lon="11.715135"><ele>174.5</ele><time>2026-05-03T13:44:22.658Z</time></trkpt><trkpt lat="43.5046033" lon="11.715035"><ele>174.0</ele><time>2026-05-03T13:44:23.648Z</time></trkpt><trkpt lat="43.5047283" lon="11.7149333"><ele>174.0</ele><time>2026-05-03T13:44:24.654Z</time></trkpt><trkpt lat="43.5048483" lon="11.71484"><ele>174.0</ele><time>2026-05-03T13:44:25.641Z</time></trkpt><trkpt lat="43.50497" lon="11.7147467"><ele>174.0</ele><time>2026-05-03T13:44:26.638Z</time></trkpt><trkpt lat="43.5050933" lon="11.714655"><ele>174.0</ele><time>2026-05-03T13:44:27.646Z</time></trkpt><trkpt lat="43.505215" lon="11.71455"><ele>174.0</ele><time>2026-05-03T13:44:28.645Z</time></trkpt><trkpt lat="43.5053417" lon="11.71445"><ele>174.0</ele><time>2026-05-03T13:44:29.634Z</time></trkpt><trkpt lat="43.5054633" lon="11.714355"><ele>174.0</ele><time>2026-05-03T13:44:30.663Z</time></trkpt><trkpt lat="43.5055767" lon="11.7142617"><ele>174.0</ele><time>2026-05-03T13:44:31.643Z</time></trkpt><trkpt lat="43.5056783" lon="11.7141683"><ele>175.0</ele><time>2026-05-03T13:44:32.643Z</time></trkpt><trkpt lat="43.5057717" lon="11.7140817"><ele>176.0</ele><time>2026-05-03T13:44:33.648Z</time></trkpt><trkpt lat="43.5058617" lon="11.7140083"><ele>177.0</ele><time>2026-05-03T13:44:34.633Z</time></trkpt><trkpt lat="43.505945" lon="11.7139467"><ele>178.0</ele><time>2026-05-03T13:44:35.64Z</time></trkpt><trkpt lat="43.5060217" lon="11.7139017"><ele>179.0</ele><time>2026-05-03T13:44:36.648Z</time></trkpt><trkpt lat="43.5060933" lon="11.7138517"><ele>179.0</ele><time>2026-05-03T13:44:37.645Z</time></trkpt><trkpt lat="43.5061567" lon="11.7138233"><ele>179.0</ele><time>2026-05-03T13:44:38.643Z</time></trkpt><trkpt lat="43.5062667" lon="11.7138717"><ele>179.0</ele><time>2026-05-03T13:44:40.645Z</time></trkpt><trkpt lat="43.5063083" lon="11.7139517"><ele>179.0</ele><time>2026-05-03T13:44:41.645Z</time></trkpt><trkpt lat="43.5063383" lon="11.71406"><ele>179.0</ele><time>2026-05-03T13:44:42.643Z</time></trkpt><trkpt lat="43.5063617" lon="11.7141967"><ele>179.0</ele><time>2026-05-03T13:44:43.647Z</time></trkpt><trkpt lat="43.506385" lon="11.71434"><ele>180.25</ele><time>2026-05-03T13:44:44.665Z</time></trkpt><trkpt lat="43.5064167" lon="11.7144883"><ele>181.5</ele><time>2026-05-03T13:44:45.661Z</time></trkpt><trkpt lat="43.5064483" lon="11.7146583"><ele>182.75</ele><time>2026-05-03T13:44:46.651Z</time></trkpt><trkpt lat="43.50648" lon="11.7148217"><ele>184.0</ele><time>2026-05-03T13:44:47.652Z</time></trkpt><trkpt lat="43.5065167" lon="11.7149717"><ele>184.0</ele><time>2026-05-03T13:44:48.639Z</time></trkpt><trkpt lat="43.5065667" lon="11.715135"><ele>184.0</ele><time>2026-05-03T13:44:49.652Z</time></trkpt><trkpt lat="43.5066167" lon="11.7153083"><ele>184.0</ele><time>2026-05-03T13:44:50.644Z</time></trkpt><trkpt lat="43.5066833" lon="11.7154867"><ele>184.0</ele><time>2026-05-03T13:44:51.645Z</time></trkpt><trkpt lat="43.5067567" lon="11.7156633"><ele>184.75</ele><time>2026-05-03T13:44:52.641Z</time></trkpt><trkpt lat="43.5068217" lon="11.71582"><ele>185.5</ele><time>2026-05-03T13:44:53.641Z</time></trkpt><trkpt lat="43.5068917" lon="11.715985"><ele>186.25</ele><time>2026-05-03T13:44:54.645Z</time></trkpt><trkpt lat="43.5069683" lon="11.7161567"><ele>187.0</ele><time>2026-05-03T13:44:55.639Z</time></trkpt><trkpt lat="43.507055" lon="11.716335"><ele>188.33333333333334</ele><time>2026-05-03T13:44:56.653Z</time></trkpt><trkpt lat="43.5071333" lon="11.71651"><ele>189.66666666666666</ele><time>2026-05-03T13:44:57.661Z</time></trkpt><trkpt lat="43.507215" lon="11.7166967"><ele>191.0</ele><time>2026-05-03T13:44:58.658Z</time></trkpt><trkpt lat="43.5072883" lon="11.7168833"><ele>190.33333333333331</ele><time>2026-05-03T13:44:59.661Z</time></trkpt><trkpt lat="43.5073633" lon="11.717075"><ele>189.66666666666666</ele><time>2026-05-03T13:45:00.639Z</time></trkpt><trkpt lat="43.5074267" lon="11.7172833"><ele>189.0</ele><time>2026-05-03T13:45:01.648Z</time></trkpt><trkpt lat="43.507495" lon="11.717475"><ele>189.0</ele><time>2026-05-03T13:45:02.654Z</time></trkpt><trkpt lat="43.5075567" lon="11.7176767"><ele>189.0</ele><time>2026-05-03T13:45:03.664Z</time></trkpt><trkpt lat="43.5076117" lon="11.7178633"><ele>189.0</ele><time>2026-05-03T13:45:04.659Z</time></trkpt><trkpt lat="43.5076717" lon="11.7180417"><ele>189.0</ele><time>2026-05-03T13:45:05.659Z</time></trkpt><trkpt lat="43.5077333" lon="11.718205"><ele>188.75</ele><time>2026-05-03T13:45:06.653Z</time></trkpt><trkpt lat="43.5077867" lon="11.7183733"><ele>188.5</ele><time>2026-05-03T13:45:07.656Z</time></trkpt><trkpt lat="43.5078333" lon="11.7185283"><ele>188.25</ele><time>2026-05-03T13:45:08.658Z</time></trkpt><trkpt lat="43.5078733" lon="11.7187033"><ele>188.0</ele><time>2026-05-03T13:45:09.656Z</time></trkpt><trkpt lat="43.5078967" lon="11.718895"><ele>189.0</ele><time>2026-05-03T13:45:10.65Z</time></trkpt><trkpt lat="43.5079167" lon="11.7191017"><ele>190.0</ele><time>2026-05-03T13:45:11.658Z</time></trkpt><trkpt lat="43.50793" lon="11.7193017"><ele>191.0</ele><time>2026-05-03T13:45:12.653Z</time></trkpt><trkpt lat="43.5079467" lon="11.7195033"><ele>192.0</ele><time>2026-05-03T13:45:13.645Z</time></trkpt><trkpt lat="43.5079667" lon="11.719705"><ele>192.0</ele><time>2026-05-03T13:45:14.65Z</time></trkpt><trkpt lat="43.507985" lon="11.7199067"><ele>192.0</ele><time>2026-05-03T13:45:15.647Z</time></trkpt><trkpt lat="43.508" lon="11.72011"><ele>192.0</ele><time>2026-05-03T13:45:16.649Z</time></trkpt><trkpt lat="43.508015" lon="11.720315"><ele>192.0</ele><time>2026-05-03T13:45:17.645Z</time></trkpt><trkpt lat="43.5080033" lon="11.7205233"><ele>192.0</ele><time>2026-05-03T13:45:18.647Z</time></trkpt><trkpt lat="43.507965" lon="11.7207367"><ele>192.0</ele><time>2026-05-03T13:45:19.646Z</time></trkpt><trkpt lat="43.50791" lon="11.720945"><ele>192.0</ele><time>2026-05-03T13:45:20.635Z</time></trkpt><trkpt lat="43.507855" lon="11.7211483"><ele>189.0</ele><time>2026-05-03T13:45:21.645Z</time></trkpt><trkpt lat="43.507815" lon="11.72136"><ele>186.0</ele><time>2026-05-03T13:45:22.668Z</time></trkpt><trkpt lat="43.5077783" lon="11.7215783"><ele>183.0</ele><time>2026-05-03T13:45:23.653Z</time></trkpt><trkpt lat="43.507755" lon="11.7218017"><ele>183.0</ele><time>2026-05-03T13:45:24.664Z</time></trkpt><trkpt lat="43.507745" lon="11.72203"><ele>183.0</ele><time>2026-05-03T13:45:25.65Z</time></trkpt><trkpt lat="43.5077267" lon="11.722255"><ele>183.0</ele><time>2026-05-03T13:45:26.649Z</time></trkpt><trkpt lat="43.50772" lon="11.7224883"><ele>183.0</ele><time>2026-05-03T13:45:27.655Z</time></trkpt><trkpt lat="43.5077133" lon="11.72273"><ele>183.0</ele><time>2026-05-03T13:45:28.656Z</time></trkpt><trkpt lat="43.5077017" lon="11.7229667"><ele>183.0</ele><time>2026-05-03T13:45:29.665Z</time></trkpt><trkpt lat="43.50769" lon="11.72321"><ele>183.66666666666666</ele><time>2026-05-03T13:45:30.658Z</time></trkpt><trkpt lat="43.5076817" lon="11.72346"><ele>184.33333333333331</ele><time>2026-05-03T13:45:31.658Z</time></trkpt><trkpt lat="43.5076667" lon="11.7237133"><ele>185.0</ele><time>2026-05-03T13:45:32.66Z</time></trkpt><trkpt lat="43.5076517" lon="11.7239633"><ele>185.0</ele><time>2026-05-03T13:45:33.655Z</time></trkpt><trkpt lat="43.5076433" lon="11.7242183"><ele>185.0</ele><time>2026-05-03T13:45:34.654Z</time></trkpt><trkpt lat="43.50763" lon="11.7244783"><ele>185.0</ele><time>2026-05-03T13:45:35.66Z</time></trkpt><trkpt lat="43.507625" lon="11.7247417"><ele>185.0</ele><time>2026-05-03T13:45:36.657Z</time></trkpt><trkpt lat="43.5076183" lon="11.7250017"><ele>185.0</ele><time>2026-05-03T13:45:37.643Z</time></trkpt><trkpt lat="43.5076083" lon="11.7252567"><ele>185.0</ele><time>2026-05-03T13:45:38.659Z</time></trkpt><trkpt lat="43.5075983" lon="11.7255183"><ele>185.0</ele><time>2026-05-03T13:45:39.648Z</time></trkpt><trkpt lat="43.5075833" lon="11.7257683"><ele>185.0</ele><time>2026-05-03T13:45:40.659Z</time></trkpt><trkpt lat="43.5075717" lon="11.72601"><ele>185.0</ele><time>2026-05-03T13:45:41.658Z</time></trkpt><trkpt lat="43.50758" lon="11.7262367"><ele>184.33333333333331</ele><time>2026-05-03T13:45:42.663Z</time></trkpt><trkpt lat="43.50762" lon="11.726455"><ele>183.66666666666666</ele><time>2026-05-03T13:45:43.66Z</time></trkpt><trkpt lat="43.507685" lon="11.7266667"><ele>183.0</ele><time>2026-05-03T13:45:44.647Z</time></trkpt><trkpt lat="43.50778" lon="11.7268667"><ele>183.33333333333334</ele><time>2026-05-03T13:45:45.651Z</time></trkpt><trkpt lat="43.5078833" lon="11.72706"><ele>183.66666666666669</ele><time>2026-05-03T13:45:46.657Z</time></trkpt><trkpt lat="43.5079933" lon="11.7272333"><ele>184.0</ele><time>2026-05-03T13:45:47.654Z</time></trkpt><trkpt lat="43.5095383" lon="11.7391083"><ele>210.66666666666669</ele><time>2026-05-03T13:47:07.641Z</time></trkpt><trkpt lat="43.50967" lon="11.7392633"><ele>237.33333333333334</ele><time>2026-05-03T13:47:08.662Z</time></trkpt><trkpt lat="43.5098133" lon="11.7394133"><ele>264.0</ele><time>2026-05-03T13:47:09.642Z</time></trkpt><trkpt lat="43.5099633" lon="11.7395633"><ele>265.6666666666667</ele><time>2026-05-03T13:47:10.642Z</time></trkpt><trkpt lat="43.51011" lon="11.73972"><ele>267.33333333333337</ele><time>2026-05-03T13:47:11.645Z</time></trkpt><trkpt lat="43.5102583" lon="11.7398683"><ele>269.0</ele><time>2026-05-03T13:47:12.643Z</time></trkpt><trkpt lat="43.510405" lon="11.74001"><ele>268.6666666666667</ele><time>2026-05-03T13:47:13.663Z</time></trkpt><trkpt lat="43.5105483" lon="11.7401617"><ele>268.3333333333333</ele><time>2026-05-03T13:47:14.644Z</time></trkpt><trkpt lat="43.5106967" lon="11.7403433"><ele>268.0</ele><time>2026-05-03T13:47:15.647Z</time></trkpt><trkpt lat="43.510835" lon="11.7405233"><ele>268.66666666666663</ele><time>2026-05-03T13:47:16.642Z</time></trkpt><trkpt lat="43.51096" lon="11.7407217"><ele>269.3333333333333</ele><time>2026-05-03T13:47:17.642Z</time></trkpt><trkpt lat="43.5110667" lon="11.7409433"><ele>270.0</ele><time>2026-05-03T13:47:18.649Z</time></trkpt><trkpt lat="43.5111733" lon="11.741165"><ele>269.6666666666667</ele><time>2026-05-03T13:47:19.648Z</time></trkpt><trkpt lat="43.511275" lon="11.7413917"><ele>269.33333333333337</ele><time>2026-05-03T13:47:20.672Z</time></trkpt><trkpt lat="43.511385" lon="11.7416133"><ele>269.0</ele><time>2026-05-03T13:47:21.646Z</time></trkpt><trkpt lat="43.5114917" lon="11.74184"><ele>269.0</ele><time>2026-05-03T13:47:22.657Z</time></trkpt><trkpt lat="43.5116133" lon="11.74205"><ele>269.0</ele><time>2026-05-03T13:47:23.64Z</time></trkpt><trkpt lat="43.5117517" lon="11.7422483"><ele>269.0</ele><time>2026-05-03T13:47:24.643Z</time></trkpt><trkpt lat="43.5118933" lon="11.7424417"><ele>269.0</ele><time>2026-05-03T13:47:25.645Z</time></trkpt><trkpt lat="43.5120433" lon="11.7426267"><ele>269.0</ele><time>2026-05-03T13:47:26.655Z</time></trkpt><trkpt lat="43.51235" lon="11.743015"><ele>266.33333333333337</ele><time>2026-05-03T13:47:28.641Z</time></trkpt><trkpt lat="43.5124967" lon="11.7432167"><ele>263.6666666666667</ele><time>2026-05-03T13:47:29.668Z</time></trkpt><trkpt lat="43.51264" lon="11.7434267"><ele>261.0</ele><time>2026-05-03T13:47:30.649Z</time></trkpt><trkpt lat="43.5127817" lon="11.7436433"><ele>259.6666666666667</ele><time>2026-05-03T13:47:31.642Z</time></trkpt><trkpt lat="43.512915" lon="11.7438683"><ele>258.33333333333337</ele><time>2026-05-03T13:47:32.648Z</time></trkpt><trkpt lat="43.513045" lon="11.7440967"><ele>257.0</ele><time>2026-05-03T13:47:33.652Z</time></trkpt><trkpt lat="43.513175" lon="11.7443283"><ele>257.0</ele><time>2026-05-03T13:47:34.654Z</time></trkpt><trkpt lat="43.5132967" lon="11.7445667"><ele>257.0</ele><time>2026-05-03T13:47:35.639Z</time></trkpt><trkpt lat="43.5134133" lon="11.7448117"><ele>257.0</ele><time>2026-05-03T13:47:36.674Z</time></trkpt><trkpt lat="43.5135267" lon="11.7450633"><ele>257.0</ele><time>2026-05-03T13:47:37.651Z</time></trkpt><trkpt lat="43.5136467" lon="11.7453"><ele>257.0</ele><time>2026-05-03T13:47:38.653Z</time></trkpt><trkpt lat="43.51376" lon="11.7455317"><ele>257.0</ele><time>2026-05-03T13:47:39.648Z</time></trkpt><trkpt lat="43.51387" lon="11.7457583"><ele>257.0</ele><time>2026-05-03T13:47:40.642Z</time></trkpt><trkpt lat="43.5139883" lon="11.745985"><ele>257.0</ele><time>2026-05-03T13:47:41.641Z</time></trkpt><trkpt lat="43.5141083" lon="11.7462167"><ele>257.0</ele><time>2026-05-03T13:47:42.644Z</time></trkpt><trkpt lat="43.5142333" lon="11.746435"><ele>257.0</ele><time>2026-05-03T13:47:43.648Z</time></trkpt><trkpt lat="43.5143633" lon="11.746655"><ele>257.0</ele><time>2026-05-03T13:47:44.641Z</time></trkpt><trkpt lat="43.514495" lon="11.74688"><ele>257.0</ele><time>2026-05-03T13:47:45.656Z</time></trkpt><trkpt lat="43.51463" lon="11.7471017"><ele>257.0</ele><time>2026-05-03T13:47:46.647Z</time></trkpt><trkpt lat="43.5147683" lon="11.7473167"><ele>257.0</ele><time>2026-05-03T13:47:47.64Z</time></trkpt><trkpt lat="43.5150633" lon="11.7477317"><ele>256.33333333333337</ele><time>2026-05-03T13:47:49.639Z</time></trkpt><trkpt lat="43.51521" lon="11.7479417"><ele>255.66666666666669</ele><time>2026-05-03T13:47:50.664Z</time></trkpt><trkpt lat="43.5153583" lon="11.748145"><ele>255.0</ele><time>2026-05-03T13:47:51.651Z</time></trkpt><trkpt lat="43.515505" lon="11.748345"><ele>255.33333333333331</ele><time>2026-05-03T13:47:52.653Z</time></trkpt><trkpt lat="43.5156583" lon="11.748545"><ele>255.66666666666666</ele><time>2026-05-03T13:47:53.649Z</time></trkpt><trkpt lat="43.51581" lon="11.7487467"><ele>256.0</ele><time>2026-05-03T13:47:54.651Z</time></trkpt><trkpt lat="43.515955" lon="11.748945"><ele>256.0</ele><time>2026-05-03T13:47:55.648Z</time></trkpt><trkpt lat="43.516105" lon="11.7491417"><ele>256.0</ele><time>2026-05-03T13:47:56.643Z</time></trkpt><trkpt lat="43.516255" lon="11.749345"><ele>256.0</ele><time>2026-05-03T13:47:57.648Z</time></trkpt><trkpt lat="43.5164033" lon="11.7495467"><ele>256.3333333333333</ele><time>2026-05-03T13:47:58.648Z</time></trkpt><trkpt lat="43.5165467" lon="11.74975"><ele>256.6666666666667</ele><time>2026-05-03T13:47:59.649Z</time></trkpt><trkpt lat="43.51669" lon="11.7499467"><ele>257.0</ele><time>2026-05-03T13:48:00.645Z</time></trkpt><trkpt lat="43.5168383" lon="11.7501517"><ele>257.0</ele><time>2026-05-03T13:48:01.654Z</time></trkpt><trkpt lat="43.516985" lon="11.75035"><ele>257.0</ele><time>2026-05-03T13:48:02.644Z</time></trkpt><trkpt lat="43.517135" lon="11.7505533"><ele>257.0</ele><time>2026-05-03T13:48:03.654Z</time></trkpt><trkpt lat="43.5172817" lon="11.75076"><ele>257.0</ele><time>2026-05-03T13:48:04.661Z</time></trkpt><trkpt lat="43.5174317" lon="11.75096"><ele>257.0</ele><time>2026-05-03T13:48:05.644Z</time></trkpt><trkpt lat="43.5175833" lon="11.7511683"><ele>257.0</ele><time>2026-05-03T13:48:06.649Z</time></trkpt><trkpt lat="43.517725" lon="11.7513683"><ele>256.0</ele><time>2026-05-03T13:48:07.643Z</time></trkpt><trkpt lat="43.5178733" lon="11.75156"><ele>255.0</ele><time>2026-05-03T13:48:08.651Z</time></trkpt><trkpt lat="43.518165" lon="11.7519433"><ele>255.0</ele><time>2026-05-03T13:48:10.653Z</time></trkpt><trkpt lat="43.5183117" lon="11.75212"><ele>255.0</ele><time>2026-05-03T13:48:11.641Z</time></trkpt><trkpt lat="43.5184633" lon="11.7522567"><ele>255.0</ele><time>2026-05-03T13:48:12.651Z</time></trkpt><trkpt lat="43.518645" lon="11.7523617"><ele>254.66666666666669</ele><time>2026-05-03T13:48:13.691Z</time></trkpt><trkpt lat="43.5188433" lon="11.7524417"><ele>254.33333333333334</ele><time>2026-05-03T13:48:14.729Z</time></trkpt><trkpt lat="43.519045" lon="11.7525117"><ele>254.0</ele><time>2026-05-03T13:48:15.712Z</time></trkpt><trkpt lat="43.5192533" lon="11.7525833"><ele>254.0</ele><time>2026-05-03T13:48:16.653Z</time></trkpt><trkpt lat="43.5194567" lon="11.752665"><ele>254.0</ele><time>2026-05-03T13:48:17.68Z</time></trkpt><trkpt lat="43.51966" lon="11.7527683"><ele>254.0</ele><time>2026-05-03T13:48:18.663Z</time></trkpt><trkpt lat="43.5198583" lon="11.7528883"><ele>253.66666666666669</ele><time>2026-05-03T13:48:19.665Z</time></trkpt><trkpt lat="43.520055" lon="11.7530133"><ele>253.33333333333331</ele><time>2026-05-03T13:48:20.648Z</time></trkpt><trkpt lat="43.52025" lon="11.7531367"><ele>253.0</ele><time>2026-05-03T13:48:21.66Z</time></trkpt><trkpt lat="43.5204467" lon="11.753265"><ele>254.0</ele><time>2026-05-03T13:48:22.652Z</time></trkpt><trkpt lat="43.520645" lon="11.7533917"><ele>255.0</ele><time>2026-05-03T13:48:23.652Z</time></trkpt><trkpt lat="43.5208367" lon="11.7535183"><ele>256.0</ele><time>2026-05-03T13:48:24.657Z</time></trkpt><trkpt lat="43.52103" lon="11.75365"><ele>256.0</ele><time>2026-05-03T13:48:25.656Z</time></trkpt><trkpt lat="43.5212267" lon="11.7537833"><ele>256.0</ele><time>2026-05-03T13:48:26.65Z</time></trkpt><trkpt lat="43.5214317" lon="11.7539183"><ele>256.0</ele><time>2026-05-03T13:48:27.685Z</time></trkpt><trkpt lat="43.5216333" lon="11.75405"><ele>257.5</ele><time>2026-05-03T13:48:28.652Z</time></trkpt><trkpt lat="43.52183" lon="11.75418"><ele>259.0</ele><time>2026-05-03T13:48:29.651Z</time></trkpt><trkpt lat="43.5222217" lon="11.75444"><ele>260.0</ele><time>2026-05-03T13:48:31.648Z</time></trkpt><trkpt lat="43.5224117" lon="11.7545667"><ele>261.0</ele><time>2026-05-03T13:48:32.669Z</time></trkpt><trkpt lat="43.5226017" lon="11.754695"><ele>262.0</ele><time>2026-05-03T13:48:33.65Z</time></trkpt><trkpt lat="43.5227883" lon="11.75481"><ele>262.3333333333333</ele><time>2026-05-03T13:48:34.649Z</time></trkpt><trkpt lat="43.5229733" lon="11.75493"><ele>262.6666666666667</ele><time>2026-05-03T13:48:35.652Z</time></trkpt><trkpt lat="43.52316" lon="11.7550517"><ele>263.0</ele><time>2026-05-03T13:48:36.646Z</time></trkpt><trkpt lat="43.5233383" lon="11.7551617"><ele>264.0</ele><time>2026-05-03T13:48:37.644Z</time></trkpt><trkpt lat="43.523515" lon="11.755285"><ele>265.0</ele><time>2026-05-03T13:48:38.653Z</time></trkpt><trkpt lat="43.5236933" lon="11.7554033"><ele>266.0</ele><time>2026-05-03T13:48:39.647Z</time></trkpt><trkpt lat="43.5238717" lon="11.7555167"><ele>266.33333333333337</ele><time>2026-05-03T13:48:40.677Z</time></trkpt><trkpt lat="43.5240533" lon="11.7556233"><ele>266.6666666666667</ele><time>2026-05-03T13:48:41.645Z</time></trkpt><trkpt lat="43.5242367" lon="11.75574"><ele>267.0</ele><time>2026-05-03T13:48:42.645Z</time></trkpt><trkpt lat="43.524415" lon="11.75586"><ele>267.0</ele><time>2026-05-03T13:48:43.643Z</time></trkpt><trkpt lat="43.5245917" lon="11.7559833"><ele>267.0</ele><time>2026-05-03T13:48:44.655Z</time></trkpt><trkpt lat="43.524775" lon="11.75611"><ele>267.0</ele><time>2026-05-03T13:48:45.638Z</time></trkpt><trkpt lat="43.52496" lon="11.7562333"><ele>267.3333333333333</ele><time>2026-05-03T13:48:46.663Z</time></trkpt><trkpt lat="43.5251483" lon="11.75636"><ele>267.66666666666663</ele><time>2026-05-03T13:48:47.642Z</time></trkpt><trkpt lat="43.52534" lon="11.7564817"><ele>268.0</ele><time>2026-05-03T13:48:48.638Z</time></trkpt><trkpt lat="43.5255283" lon="11.75661"><ele>268.0</ele><time>2026-05-03T13:48:49.646Z</time></trkpt><trkpt lat="43.5257067" lon="11.7567417"><ele>268.0</ele><time>2026-05-03T13:48:50.649Z</time></trkpt><trkpt lat="43.5260717" lon="11.7569817"><ele>268.3333333333333</ele><time>2026-05-03T13:48:52.644Z</time></trkpt><trkpt lat="43.5262483" lon="11.757095"><ele>268.6666666666667</ele><time>2026-05-03T13:48:53.641Z</time></trkpt><trkpt lat="43.5264183" lon="11.757195"><ele>269.0</ele><time>2026-05-03T13:48:54.652Z</time></trkpt><trkpt lat="43.5265767" lon="11.7572917"><ele>269.0</ele><time>2026-05-03T13:48:55.649Z</time></trkpt><trkpt lat="43.526725" lon="11.7573833"><ele>269.0</ele><time>2026-05-03T13:48:56.642Z</time></trkpt><trkpt lat="43.5268617" lon="11.7574733"><ele>269.0</ele><time>2026-05-03T13:48:57.648Z</time></trkpt><trkpt lat="43.5269917" lon="11.757555"><ele>269.25</ele><time>2026-05-03T13:48:58.644Z</time></trkpt><trkpt lat="43.52711" lon="11.75763"><ele>269.5</ele><time>2026-05-03T13:48:59.646Z</time></trkpt><trkpt lat="43.527215" lon="11.7577083"><ele>269.75</ele><time>2026-05-03T13:49:00.651Z</time></trkpt><trkpt lat="43.5273167" lon="11.757795"><ele>270.0</ele><time>2026-05-03T13:49:01.657Z</time></trkpt><trkpt lat="43.5274167" lon="11.7578967"><ele>270.0</ele><time>2026-05-03T13:49:02.651Z</time></trkpt><trkpt lat="43.5275117" lon="11.7580017"><ele>270.0</ele><time>2026-05-03T13:49:03.656Z</time></trkpt><trkpt lat="43.5275983" lon="11.7581117"><ele>270.0</ele><time>2026-05-03T13:49:04.665Z</time></trkpt><trkpt lat="43.5276733" lon="11.75822"><ele>270.0</ele><time>2026-05-03T13:49:05.666Z</time></trkpt><trkpt lat="43.5277367" lon="11.7583233"><ele>270.0</ele><time>2026-05-03T13:49:06.662Z</time></trkpt><trkpt lat="43.5277817" lon="11.7584217"><ele>270.0</ele><time>2026-05-03T13:49:07.638Z</time></trkpt><trkpt lat="43.5278133" lon="11.758525"><ele>270.0</ele><time>2026-05-03T13:49:08.671Z</time></trkpt><trkpt lat="43.5278183" lon="11.7586333"><ele>270.0</ele><time>2026-05-03T13:49:09.656Z</time></trkpt><trkpt lat="43.5277967" lon="11.7587333"><ele>270.0</ele><time>2026-05-03T13:49:10.655Z</time></trkpt><trkpt lat="43.5277517" lon="11.75882"><ele>270.0</ele><time>2026-05-03T13:49:11.661Z</time></trkpt><trkpt lat="43.5276567" lon="11.758985"><ele>270.3333333333333</ele><time>2026-05-03T13:49:13.666Z</time></trkpt><trkpt lat="43.52761" lon="11.759065"><ele>270.6666666666667</ele><time>2026-05-03T13:49:14.644Z</time></trkpt><trkpt lat="43.5275667" lon="11.759145"><ele>271.0</ele><time>2026-05-03T13:49:15.665Z</time></trkpt><trkpt lat="43.52753" lon="11.759225"><ele>271.33333333333337</ele><time>2026-05-03T13:49:16.655Z</time></trkpt><trkpt lat="43.527495" lon="11.7592983"><ele>271.6666666666667</ele><time>2026-05-03T13:49:17.643Z</time></trkpt><trkpt lat="43.52743" lon="11.759435"><ele>272.0</ele><time>2026-05-03T13:49:19.658Z</time></trkpt><trkpt lat="43.527375" lon="11.7595683"><ele>272.0</ele><time>2026-05-03T13:49:21.657Z</time></trkpt><trkpt lat="43.5273067" lon="11.7596983"><ele>272.0</ele><time>2026-05-03T13:49:23.66Z</time></trkpt><trkpt lat="43.5272617" lon="11.7597867"><ele>272.0</ele><time>2026-05-03T13:49:24.661Z</time></trkpt><trkpt lat="43.52721" lon="11.7598833"><ele>272.0</ele><time>2026-05-03T13:49:25.646Z</time></trkpt><trkpt lat="43.52716" lon="11.7599817"><ele>272.0</ele><time>2026-05-03T13:49:26.657Z</time></trkpt><trkpt lat="43.5271133" lon="11.7600717"><ele>272.0</ele><time>2026-05-03T13:49:27.658Z</time></trkpt><trkpt lat="43.5270683" lon="11.7601617"><ele>272.0</ele><time>2026-05-03T13:49:28.659Z</time></trkpt><trkpt lat="43.5270283" lon="11.76024"><ele>272.0</ele><time>2026-05-03T13:49:29.668Z</time></trkpt><trkpt lat="43.52697" lon="11.7603517"><ele>272.0</ele><time>2026-05-03T13:49:31.643Z</time></trkpt><trkpt lat="43.526915" lon="11.7604133"><ele>272.0</ele><time>2026-05-03T13:49:33.656Z</time></trkpt><trkpt lat="43.5268983" lon="11.76048"><ele>272.0</ele><time>2026-05-03T13:52:27.66Z</time></trkpt><trkpt lat="43.5269633" lon="11.7605"><ele>272.0</ele><time>2026-05-03T13:52:32.658Z</time></trkpt><trkpt lat="43.5270233" lon="11.7603933"><ele>272.0</ele><time>2026-05-03T13:52:34.652Z</time></trkpt><trkpt lat="43.5270983" lon="11.760245"><ele>272.0</ele><time>2026-05-03T13:52:36.649Z</time></trkpt><trkpt lat="43.5271383" lon="11.7601583"><ele>272.0</ele><time>2026-05-03T13:52:37.681Z</time></trkpt><trkpt lat="43.527185" lon="11.7600617"><ele>272.0</ele><time>2026-05-03T13:52:38.671Z</time></trkpt><trkpt lat="43.5272333" lon="11.7599617"><ele>272.0</ele><time>2026-05-03T13:52:39.708Z</time></trkpt><trkpt lat="43.527335" lon="11.759755"><ele>272.0</ele><time>2026-05-03T13:52:41.688Z</time></trkpt><trkpt lat="43.5273817" lon="11.7596417"><ele>272.0</ele><time>2026-05-03T13:52:42.631Z</time></trkpt><trkpt lat="43.5274317" lon="11.7595283"><ele>272.0</ele><time>2026-05-03T13:52:43.675Z</time></trkpt><trkpt lat="43.5274833" lon="11.7594183"><ele>272.0</ele><time>2026-05-03T13:52:44.663Z</time></trkpt><trkpt lat="43.5275367" lon="11.7593083"><ele>272.0</ele><time>2026-05-03T13:52:45.659Z</time></trkpt><trkpt lat="43.5275883" lon="11.7592083"><ele>272.0</ele><time>2026-05-03T13:52:46.655Z</time></trkpt><trkpt lat="43.5276383" lon="11.7591117"><ele>272.0</ele><time>2026-05-03T13:52:47.651Z</time></trkpt><trkpt lat="43.5276867" lon="11.7590183"><ele>272.0</ele><time>2026-05-03T13:52:48.647Z</time></trkpt><trkpt lat="43.5277367" lon="11.75892"><ele>272.0</ele><time>2026-05-03T13:52:49.649Z</time></trkpt><trkpt lat="43.5277817" lon="11.7588233"><ele>272.0</ele><time>2026-05-03T13:52:50.654Z</time></trkpt><trkpt lat="43.52783" lon="11.7587383"><ele>272.0</ele><time>2026-05-03T13:52:51.659Z</time></trkpt><trkpt lat="43.52788" lon="11.7586783"><ele>271.99999999999994</ele><time>2026-05-03T13:52:52.646Z</time></trkpt><trkpt lat="43.5279367" lon="11.7586367"><ele>272.0</ele><time>2026-05-03T13:52:53.631Z</time></trkpt><trkpt lat="43.5280033" lon="11.7586317"><ele>272.0</ele><time>2026-05-03T13:52:54.655Z</time></trkpt><trkpt lat="43.5280683" lon="11.758645"><ele>272.0</ele><time>2026-05-03T13:52:55.647Z</time></trkpt><trkpt lat="43.5281367" lon="11.7587617"><ele>272.0</ele><time>2026-05-03T13:52:57.657Z</time></trkpt><trkpt lat="43.528145" lon="11.7588517"><ele>271.99999999999994</ele><time>2026-05-03T13:52:58.655Z</time></trkpt><trkpt lat="43.5281217" lon="11.7589533"><ele>272.0</ele><time>2026-05-03T13:52:59.668Z</time></trkpt><trkpt lat="43.5280883" lon="11.7590683"><ele>272.0</ele><time>2026-05-03T13:53:00.651Z</time></trkpt><trkpt lat="43.52806" lon="11.75918"><ele>272.0</ele><time>2026-05-03T13:53:01.661Z</time></trkpt><trkpt lat="43.528035" lon="11.7592867"><ele>272.0</ele><time>2026-05-03T13:53:02.642Z</time></trkpt><trkpt lat="43.5280083" lon="11.7593933"><ele>272.0</ele><time>2026-05-03T13:53:03.656Z</time></trkpt><trkpt lat="43.5279833" lon="11.759485"><ele>272.0</ele><time>2026-05-03T13:53:04.657Z</time></trkpt><trkpt lat="43.5279583" lon="11.759565"><ele>272.0</ele><time>2026-05-03T13:53:05.667Z</time></trkpt><trkpt lat="43.527945" lon="11.7597033"><ele>272.1666666666667</ele><time>2026-05-03T13:53:07.654Z</time></trkpt><trkpt lat="43.5279917" lon="11.7598117"><ele>272.33333333333337</ele><time>2026-05-03T13:53:09.656Z</time></trkpt><trkpt lat="43.52805" lon="11.7598467"><ele>272.5</ele><time>2026-05-03T13:53:10.648Z</time></trkpt><trkpt lat="43.5281383" lon="11.7598817"><ele>272.6666666666667</ele><time>2026-05-03T13:53:11.653Z</time></trkpt><trkpt lat="43.528225" lon="11.7599367"><ele>272.8333333333333</ele><time>2026-05-03T13:53:12.658Z</time></trkpt><trkpt lat="43.52832" lon="11.7599883"><ele>273.0</ele><time>2026-05-03T13:53:13.657Z</time></trkpt><trkpt lat="43.5284067" lon="11.7600183"><ele>273.0</ele><time>2026-05-03T13:53:14.651Z</time></trkpt><trkpt lat="43.5285033" lon="11.7600433"><ele>273.0</ele><time>2026-05-03T13:53:15.655Z</time></trkpt><trkpt lat="43.5286083" lon="11.760055"><ele>273.0</ele><time>2026-05-03T13:53:16.653Z</time></trkpt><trkpt lat="43.5287217" lon="11.7600667"><ele>273.0</ele><time>2026-05-03T13:53:17.652Z</time></trkpt><trkpt lat="43.52884" lon="11.760075"><ele>273.0</ele><time>2026-05-03T13:53:18.652Z</time></trkpt><trkpt lat="43.52895" lon="11.7600967"><ele>273.4</ele><time>2026-05-03T13:53:19.656Z</time></trkpt><trkpt lat="43.5290583" lon="11.76011"><ele>273.8</ele><time>2026-05-03T13:53:20.663Z</time></trkpt><trkpt lat="43.5291567" lon="11.7601133"><ele>274.2</ele><time>2026-05-03T13:53:21.656Z</time></trkpt><trkpt lat="43.52925" lon="11.760075"><ele>274.6</ele><time>2026-05-03T13:53:22.664Z</time></trkpt><trkpt lat="43.5293367" lon="11.76002"><ele>275.0</ele><time>2026-05-03T13:53:23.644Z</time></trkpt><trkpt lat="43.5294117" lon="11.7599467"><ele>275.0</ele><time>2026-05-03T13:53:24.654Z</time></trkpt><trkpt lat="43.529495" lon="11.7598667"><ele>275.0</ele><time>2026-05-03T13:53:25.665Z</time></trkpt><trkpt lat="43.5295967" lon="11.7597867"><ele>275.0</ele><time>2026-05-03T13:53:26.648Z</time></trkpt><trkpt lat="43.5297033" lon="11.7597167"><ele>275.0</ele><time>2026-05-03T13:53:27.649Z</time></trkpt><trkpt lat="43.529815" lon="11.7596533"><ele>274.75</ele><time>2026-05-03T13:53:28.659Z</time></trkpt><trkpt lat="43.5299333" lon="11.7595867"><ele>274.5</ele><time>2026-05-03T13:53:29.647Z</time></trkpt><trkpt lat="43.5300583" lon="11.759505"><ele>274.25</ele><time>2026-05-03T13:53:30.664Z</time></trkpt><trkpt lat="43.5301817" lon="11.759425"><ele>274.0</ele><time>2026-05-03T13:53:31.655Z</time></trkpt><trkpt lat="43.5303033" lon="11.7593383"><ele>273.25</ele><time>2026-05-03T13:53:32.655Z</time></trkpt><trkpt lat="43.5304217" lon="11.7592633"><ele>272.5</ele><time>2026-05-03T13:53:33.653Z</time></trkpt><trkpt lat="43.53054" lon="11.7591933"><ele>271.75</ele><time>2026-05-03T13:53:34.653Z</time></trkpt><trkpt lat="43.5306617" lon="11.7591333"><ele>271.0</ele><time>2026-05-03T13:53:35.656Z</time></trkpt><trkpt lat="43.5307833" lon="11.759075"><ele>271.0</ele><time>2026-05-03T13:53:36.656Z</time></trkpt><trkpt lat="43.530915" lon="11.7590317"><ele>271.0</ele><time>2026-05-03T13:53:37.657Z</time></trkpt><trkpt lat="43.5310467" lon="11.7590083"><ele>271.0</ele><time>2026-05-03T13:53:38.653Z</time></trkpt><trkpt lat="43.5311833" lon="11.7589983"><ele>271.0</ele><time>2026-05-03T13:53:39.657Z</time></trkpt><trkpt lat="43.5313217" lon="11.7589917"><ele>271.0</ele><time>2026-05-03T13:53:40.651Z</time></trkpt><trkpt lat="43.5314433" lon="11.7589767"><ele>271.0</ele><time>2026-05-03T13:53:41.648Z</time></trkpt><trkpt lat="43.531555" lon="11.75897"><ele>271.0</ele><time>2026-05-03T13:53:42.654Z</time></trkpt><trkpt lat="43.531645" lon="11.75898"><ele>271.0</ele><time>2026-05-03T13:53:43.643Z</time></trkpt><trkpt lat="43.53172" lon="11.758985"><ele>271.0</ele><time>2026-05-03T13:53:44.669Z</time></trkpt><trkpt lat="43.5317833" lon="11.7589817"><ele>271.0</ele><time>2026-05-03T13:53:45.654Z</time></trkpt><trkpt lat="43.5318667" lon="11.7589833"><ele>271.0</ele><time>2026-05-03T13:53:47.653Z</time></trkpt><trkpt lat="43.5319317" lon="11.7589817"><ele>271.0</ele><time>2026-05-03T13:53:49.656Z</time></trkpt><trkpt lat="43.5320117" lon="11.758995"><ele>271.0</ele><time>2026-05-03T13:53:51.647Z</time></trkpt><trkpt lat="43.5321383" lon="11.7589967"><ele>271.0</ele><time>2026-05-03T13:53:53.646Z</time></trkpt><trkpt lat="43.5322167" lon="11.758995"><ele>271.0</ele><time>2026-05-03T13:53:54.651Z</time></trkpt><trkpt lat="43.532305" lon="11.7589917"><ele>271.40000000000003</ele><time>2026-05-03T13:53:55.648Z</time></trkpt><trkpt lat="43.5324067" lon="11.7589883"><ele>271.8</ele><time>2026-05-03T13:53:56.657Z</time></trkpt><trkpt lat="43.5325067" lon="11.7589833"><ele>272.20000000000005</ele><time>2026-05-03T13:53:57.65Z</time></trkpt><trkpt lat="43.5326133" lon="11.7589767"><ele>272.6</ele><time>2026-05-03T13:53:58.652Z</time></trkpt><trkpt lat="43.5327283" lon="11.7589717"><ele>273.0</ele><time>2026-05-03T13:53:59.65Z</time></trkpt><trkpt lat="43.5328533" lon="11.75897"><ele>274.5</ele><time>2026-05-03T13:54:00.653Z</time></trkpt><trkpt lat="43.53298" lon="11.7589717"><ele>276.0</ele><time>2026-05-03T13:54:01.659Z</time></trkpt><trkpt lat="43.533115" lon="11.7589667"><ele>277.5</ele><time>2026-05-03T13:54:02.638Z</time></trkpt><trkpt lat="43.53325" lon="11.758965"><ele>279.0</ele><time>2026-05-03T13:54:03.651Z</time></trkpt><trkpt lat="43.533395" lon="11.7589567"><ele>279.0</ele><time>2026-05-03T13:54:04.64Z</time></trkpt><trkpt lat="43.5335483" lon="11.758955"><ele>279.0</ele><time>2026-05-03T13:54:05.649Z</time></trkpt><trkpt lat="43.533705" lon="11.7589533"><ele>279.0</ele><time>2026-05-03T13:54:06.656Z</time></trkpt><trkpt lat="43.5338633" lon="11.75895"><ele>281.3333333333333</ele><time>2026-05-03T13:54:07.648Z</time></trkpt><trkpt lat="43.53402" lon="11.7589483"><ele>283.66666666666663</ele><time>2026-05-03T13:54:08.653Z</time></trkpt><trkpt lat="43.5341767" lon="11.7589467"><ele>286.0</ele><time>2026-05-03T13:54:09.65Z</time></trkpt><trkpt lat="43.5343317" lon="11.7589467"><ele>286.0</ele><time>2026-05-03T13:54:10.655Z</time></trkpt><trkpt lat="43.534485" lon="11.75894"><ele>286.0</ele><time>2026-05-03T13:54:11.665Z</time></trkpt><trkpt lat="43.5346383" lon="11.7589383"><ele>286.0</ele><time>2026-05-03T13:54:12.645Z</time></trkpt><trkpt lat="43.53479" lon="11.7589417"><ele>287.66666666666663</ele><time>2026-05-03T13:54:13.655Z</time></trkpt><trkpt lat="43.53494" lon="11.758945"><ele>289.3333333333333</ele><time>2026-05-03T13:54:14.653Z</time></trkpt><trkpt lat="43.5350967" lon="11.758945"><ele>291.0</ele><time>2026-05-03T13:54:15.655Z</time></trkpt><trkpt lat="43.5352533" lon="11.7589367"><ele>293.6666666666667</ele><time>2026-05-03T13:54:16.657Z</time></trkpt><trkpt lat="43.5354117" lon="11.7589267"><ele>296.33333333333337</ele><time>2026-05-03T13:54:17.645Z</time></trkpt><trkpt lat="43.53557" lon="11.7589117"><ele>299.0</ele><time>2026-05-03T13:54:18.649Z</time></trkpt><trkpt lat="43.535725" lon="11.758895"><ele>299.0</ele><time>2026-05-03T13:54:19.647Z</time></trkpt><trkpt lat="43.5358783" lon="11.758875"><ele>299.0</ele><time>2026-05-03T13:54:20.643Z</time></trkpt><trkpt lat="43.53603" lon="11.7588517"><ele>299.0</ele><time>2026-05-03T13:54:21.646Z</time></trkpt><trkpt lat="43.5361733" lon="11.7588183"><ele>301.5</ele><time>2026-05-03T13:54:22.646Z</time></trkpt><trkpt lat="43.536305" lon="11.7587933"><ele>304.0</ele><time>2026-05-03T13:54:23.648Z</time></trkpt><trkpt lat="43.5364283" lon="11.7587733"><ele>306.5</ele><time>2026-05-03T13:54:24.655Z</time></trkpt><trkpt lat="43.5365333" lon="11.7587717"><ele>309.0</ele><time>2026-05-03T13:54:25.664Z</time></trkpt><trkpt lat="43.536625" lon="11.7587717"><ele>309.0</ele><time>2026-05-03T13:54:26.651Z</time></trkpt><trkpt lat="43.5367033" lon="11.7587783"><ele>309.0</ele><time>2026-05-03T13:54:27.649Z</time></trkpt><trkpt lat="43.5367667" lon="11.758805"><ele>309.0</ele><time>2026-05-03T13:54:28.649Z</time></trkpt><trkpt lat="43.5368617" lon="11.758815"><ele>309.0</ele><time>2026-05-03T13:54:30.662Z</time></trkpt><trkpt lat="43.5369717" lon="11.75886"><ele>309.0</ele><time>2026-05-03T13:54:32.657Z</time></trkpt><trkpt lat="43.5370383" lon="11.7588883"><ele>309.0</ele><time>2026-05-03T13:54:33.645Z</time></trkpt><trkpt lat="43.5371133" lon="11.7589067"><ele>311.1666666666667</ele><time>2026-05-03T13:54:34.652Z</time></trkpt><trkpt lat="43.53719" lon="11.7589067"><ele>313.3333333333333</ele><time>2026-05-03T13:54:35.648Z</time></trkpt><trkpt lat="43.5372683" lon="11.75888"><ele>315.5</ele><time>2026-05-03T13:54:36.643Z</time></trkpt><trkpt lat="43.537345" lon="11.7588283"><ele>317.66666666666663</ele><time>2026-05-03T13:54:37.653Z</time></trkpt><trkpt lat="43.5374233" lon="11.7587783"><ele>319.8333333333333</ele><time>2026-05-03T13:54:38.646Z</time></trkpt><trkpt lat="43.5375017" lon="11.7587233"><ele>322.0</ele><time>2026-05-03T13:54:39.673Z</time></trkpt><trkpt lat="43.5375817" lon="11.758675"><ele>322.0</ele><time>2026-05-03T13:54:40.645Z</time></trkpt><trkpt lat="43.5376483" lon="11.7586183"><ele>322.0</ele><time>2026-05-03T13:54:41.66Z</time></trkpt><trkpt lat="43.5377133" lon="11.7585517"><ele>322.0</ele><time>2026-05-03T13:54:42.667Z</time></trkpt><trkpt lat="43.53776" lon="11.7584767"><ele>322.0</ele><time>2026-05-03T13:54:43.64Z</time></trkpt><trkpt lat="43.5377983" lon="11.7583883"><ele>322.0</ele><time>2026-05-03T13:54:44.645Z</time></trkpt><trkpt lat="43.5378367" lon="11.7582817"><ele>322.0</ele><time>2026-05-03T13:54:45.646Z</time></trkpt><trkpt lat="43.5378717" lon="11.7581733"><ele>324.8333333333333</ele><time>2026-05-03T13:54:46.642Z</time></trkpt><trkpt lat="43.537905" lon="11.7580717"><ele>327.66666666666663</ele><time>2026-05-03T13:54:47.653Z</time></trkpt><trkpt lat="43.5379533" lon="11.7579917"><ele>330.5</ele><time>2026-05-03T13:54:48.663Z</time></trkpt><trkpt lat="43.5380117" lon="11.7579317"><ele>333.3333333333333</ele><time>2026-05-03T13:54:49.637Z</time></trkpt><trkpt lat="43.5380883" lon="11.7579067"><ele>336.1666666666667</ele><time>2026-05-03T13:54:50.647Z</time></trkpt><trkpt lat="43.538185" lon="11.7579183"><ele>339.0</ele><time>2026-05-03T13:54:51.652Z</time></trkpt><trkpt lat="43.5382817" lon="11.75795"><ele>339.0</ele><time>2026-05-03T13:54:52.65Z</time></trkpt><trkpt lat="43.53837" lon="11.7579783"><ele>339.0</ele><time>2026-05-03T13:54:53.659Z</time></trkpt><trkpt lat="43.53845" lon="11.7579933"><ele>339.0</ele><time>2026-05-03T13:54:54.671Z</time></trkpt><trkpt lat="43.5385333" lon="11.7579867"><ele>339.0</ele><time>2026-05-03T13:54:55.652Z</time></trkpt><trkpt lat="43.53862" lon="11.7579733"><ele>339.0</ele><time>2026-05-03T13:54:56.648Z</time></trkpt><trkpt lat="43.5387017" lon="11.7579583"><ele>339.0</ele><time>2026-05-03T13:54:57.655Z</time></trkpt><trkpt lat="43.5387883" lon="11.7579467"><ele>340.79999999999995</ele><time>2026-05-03T13:54:58.664Z</time></trkpt><trkpt lat="43.5388683" lon="11.7579217"><ele>342.59999999999997</ele><time>2026-05-03T13:54:59.652Z</time></trkpt><trkpt lat="43.5389417" lon="11.7578483"><ele>344.4</ele><time>2026-05-03T13:55:00.669Z</time></trkpt><trkpt lat="43.539" lon="11.7577517"><ele>346.2</ele><time>2026-05-03T13:55:01.642Z</time></trkpt><trkpt lat="43.5390567" lon="11.7576433"><ele>348.0</ele><time>2026-05-03T13:55:02.648Z</time></trkpt><trkpt lat="43.5391183" lon="11.7575333"><ele>348.0</ele><time>2026-05-03T13:55:03.649Z</time></trkpt><trkpt lat="43.5391917" lon="11.757445"><ele>348.0</ele><time>2026-05-03T13:55:04.65Z</time></trkpt><trkpt lat="43.5392633" lon="11.7573833"><ele>348.0</ele><time>2026-05-03T13:55:05.645Z</time></trkpt><trkpt lat="43.53934" lon="11.7573433"><ele>348.0</ele><time>2026-05-03T13:55:06.663Z</time></trkpt><trkpt lat="43.5394167" lon="11.7573017"><ele>348.0</ele><time>2026-05-03T13:55:07.639Z</time></trkpt><trkpt lat="43.539505" lon="11.7572617"><ele>348.0</ele><time>2026-05-03T13:55:08.645Z</time></trkpt><trkpt lat="43.5396" lon="11.7572317"><ele>349.59999999999997</ele><time>2026-05-03T13:55:09.647Z</time></trkpt><trkpt lat="43.5396967" lon="11.7572"><ele>351.2</ele><time>2026-05-03T13:55:10.645Z</time></trkpt><trkpt lat="43.539795" lon="11.7571783"><ele>352.8</ele><time>2026-05-03T13:55:11.647Z</time></trkpt><trkpt lat="43.53989" lon="11.7571383"><ele>354.4</ele><time>2026-05-03T13:55:12.648Z</time></trkpt><trkpt lat="43.5399933" lon="11.75711"><ele>356.0</ele><time>2026-05-03T13:55:13.649Z</time></trkpt><trkpt lat="43.5401083" lon="11.7570767"><ele>356.0</ele><time>2026-05-03T13:55:14.686Z</time></trkpt><trkpt lat="43.5402117" lon="11.7570467"><ele>356.0</ele><time>2026-05-03T13:55:15.649Z</time></trkpt><trkpt lat="43.5403067" lon="11.7570233"><ele>356.0</ele><time>2026-05-03T13:55:16.648Z</time></trkpt><trkpt lat="43.5403967" lon="11.757005"><ele>356.0</ele><time>2026-05-03T13:55:17.64Z</time></trkpt><trkpt lat="43.540495" lon="11.7570017"><ele>356.0</ele><time>2026-05-03T13:55:18.639Z</time></trkpt><trkpt lat="43.5405883" lon="11.7570117"><ele>356.83333333333337</ele><time>2026-05-03T13:55:19.64Z</time></trkpt><trkpt lat="43.5406833" lon="11.7570317"><ele>357.6666666666667</ele><time>2026-05-03T13:55:20.656Z</time></trkpt><trkpt lat="43.5407717" lon="11.757045"><ele>358.5</ele><time>2026-05-03T13:55:21.649Z</time></trkpt><trkpt lat="43.5408583" lon="11.7570683"><ele>359.3333333333333</ele><time>2026-05-03T13:55:22.657Z</time></trkpt><trkpt lat="43.540945" lon="11.757095"><ele>360.16666666666663</ele><time>2026-05-03T13:55:23.648Z</time></trkpt><trkpt lat="43.54102" lon="11.7571517"><ele>361.0</ele><time>2026-05-03T13:55:24.646Z</time></trkpt><trkpt lat="43.5410883" lon="11.7572167"><ele>361.0</ele><time>2026-05-03T13:55:25.644Z</time></trkpt><trkpt lat="43.54116" lon="11.7573083"><ele>361.0</ele><time>2026-05-03T13:55:26.648Z</time></trkpt><trkpt lat="43.5412167" lon="11.75737"><ele>361.0</ele><time>2026-05-03T13:55:27.651Z</time></trkpt><trkpt lat="43.5412933" lon="11.75745"><ele>361.0</ele><time>2026-05-03T13:55:29.675Z</time></trkpt><trkpt lat="43.5413717" lon="11.7575167"><ele>361.0</ele><time>2026-05-03T13:55:31.646Z</time></trkpt><trkpt lat="43.5414767" lon="11.757565"><ele>361.5</ele><time>2026-05-03T13:55:33.648Z</time></trkpt><trkpt lat="43.5415467" lon="11.7575833"><ele>362.0</ele><time>2026-05-03T13:55:34.638Z</time></trkpt><trkpt lat="43.5416217" lon="11.7576017"><ele>362.5</ele><time>2026-05-03T13:55:35.651Z</time></trkpt><trkpt lat="43.5417067" lon="11.7576133"><ele>363.0</ele><time>2026-05-03T13:55:36.649Z</time></trkpt><trkpt lat="43.5417967" lon="11.757625"><ele>363.5</ele><time>2026-05-03T13:55:37.64Z</time></trkpt><trkpt lat="43.5418933" lon="11.7576417"><ele>364.0</ele><time>2026-05-03T13:55:38.645Z</time></trkpt><trkpt lat="43.5419917" lon="11.7576617"><ele>365.2</ele><time>2026-05-03T13:55:39.646Z</time></trkpt><trkpt lat="43.5420917" lon="11.7576883"><ele>366.4</ele><time>2026-05-03T13:55:40.644Z</time></trkpt><trkpt lat="43.5421967" lon="11.757715"><ele>367.6</ele><time>2026-05-03T13:55:41.647Z</time></trkpt><trkpt lat="43.5422967" lon="11.757745"><ele>368.8</ele><time>2026-05-03T13:55:42.643Z</time></trkpt><trkpt lat="43.5423933" lon="11.7577767"><ele>370.0</ele><time>2026-05-03T13:55:43.652Z</time></trkpt><trkpt lat="43.5424917" lon="11.7578183"><ele>370.0</ele><time>2026-05-03T13:55:44.64Z</time></trkpt><trkpt lat="43.5425833" lon="11.7578633"><ele>370.0</ele><time>2026-05-03T13:55:45.681Z</time></trkpt><trkpt lat="43.5426783" lon="11.7579067"><ele>370.0</ele><time>2026-05-03T13:55:46.649Z</time></trkpt><trkpt lat="43.5427733" lon="11.7579533"><ele>370.0</ele><time>2026-05-03T13:55:47.652Z</time></trkpt><trkpt lat="43.5428733" lon="11.7579967"><ele>370.0</ele><time>2026-05-03T13:55:48.657Z</time></trkpt><trkpt lat="43.5429717" lon="11.7580333"><ele>372.0</ele><time>2026-05-03T13:55:49.648Z</time></trkpt><trkpt lat="43.5430783" lon="11.7580583"><ele>374.0</ele><time>2026-05-03T13:55:50.662Z</time></trkpt><trkpt lat="43.5431883" lon="11.7580683"><ele>376.0</ele><time>2026-05-03T13:55:51.64Z</time></trkpt><trkpt lat="43.5433017" lon="11.7580817"><ele>378.0</ele><time>2026-05-03T13:55:52.649Z</time></trkpt><trkpt lat="43.54342" lon="11.7580883"><ele>378.0</ele><time>2026-05-03T13:55:53.645Z</time></trkpt><trkpt lat="43.5435417" lon="11.7580967"><ele>378.0</ele><time>2026-05-03T13:55:54.649Z</time></trkpt><trkpt lat="43.5436633" lon="11.7581067"><ele>378.0</ele><time>2026-05-03T13:55:55.662Z</time></trkpt><trkpt lat="43.543785" lon="11.7581133"><ele>378.0</ele><time>2026-05-03T13:55:56.647Z</time></trkpt><trkpt lat="43.5439133" lon="11.7581167"><ele>380.75</ele><time>2026-05-03T13:55:57.646Z</time></trkpt><trkpt lat="43.54404" lon="11.7581167"><ele>383.5</ele><time>2026-05-03T13:55:58.644Z</time></trkpt><trkpt lat="43.5441583" lon="11.7581133"><ele>386.25</ele><time>2026-05-03T13:55:59.633Z</time></trkpt><trkpt lat="43.5442667" lon="11.7581117"><ele>389.0</ele><time>2026-05-03T13:56:00.643Z</time></trkpt><trkpt lat="43.54437" lon="11.7581117"><ele>389.0</ele><time>2026-05-03T13:56:01.637Z</time></trkpt><trkpt lat="43.54447" lon="11.7580983"><ele>389.0</ele><time>2026-05-03T13:56:02.65Z</time></trkpt><trkpt lat="43.5445683" lon="11.7580683"><ele>389.0</ele><time>2026-05-03T13:56:03.636Z</time></trkpt><trkpt lat="43.5446683" lon="11.758025"><ele>389.0</ele><time>2026-05-03T13:56:04.669Z</time></trkpt><trkpt lat="43.5447717" lon="11.7579717"><ele>389.0</ele><time>2026-05-03T13:56:05.641Z</time></trkpt><trkpt lat="43.5448733" lon="11.75788"><ele>391.75</ele><time>2026-05-03T13:56:06.645Z</time></trkpt><trkpt lat="43.5449783" lon="11.75778"><ele>394.5</ele><time>2026-05-03T13:56:07.645Z</time></trkpt><trkpt lat="43.54508" lon="11.7576733"><ele>397.25</ele><time>2026-05-03T13:56:08.649Z</time></trkpt><trkpt lat="43.5451817" lon="11.7575633"><ele>400.0</ele><time>2026-05-03T13:56:09.644Z</time></trkpt><trkpt lat="43.5452867" lon="11.7574617"><ele>402.6</ele><time>2026-05-03T13:56:10.641Z</time></trkpt><trkpt lat="43.5453817" lon="11.7573683"><ele>405.2</ele><time>2026-05-03T13:56:11.649Z</time></trkpt><trkpt lat="43.5454733" lon="11.7572733"><ele>407.79999999999995</ele><time>2026-05-03T13:56:12.648Z</time></trkpt><trkpt lat="43.5455667" lon="11.7571917"><ele>410.4</ele><time>2026-05-03T13:56:13.665Z</time></trkpt><trkpt lat="43.5456533" lon="11.7571233"><ele>413.0</ele><time>2026-05-03T13:56:14.654Z</time></trkpt><trkpt lat="43.5457333" lon="11.7570533"><ele>413.0</ele><time>2026-05-03T13:56:15.648Z</time></trkpt><trkpt lat="43.5458067" lon="11.7569583"><ele>413.0</ele><time>2026-05-03T13:56:16.644Z</time></trkpt><trkpt lat="43.5458783" lon="11.756845"><ele>413.0</ele><time>2026-05-03T13:56:17.637Z</time></trkpt><trkpt lat="43.545945" lon="11.7567183"><ele>413.0</ele><time>2026-05-03T13:56:18.653Z</time></trkpt><trkpt lat="43.5460233" lon="11.756595"><ele>413.0</ele><time>2026-05-03T13:56:19.65Z</time></trkpt><trkpt lat="43.546115" lon="11.756465"><ele>411.5</ele><time>2026-05-03T13:56:20.68Z</time></trkpt><trkpt lat="43.5461983" lon="11.75635"><ele>410.0</ele><time>2026-05-03T13:56:21.643Z</time></trkpt><trkpt lat="43.5462867" lon="11.7562333"><ele>408.5</ele><time>2026-05-03T13:56:22.646Z</time></trkpt><trkpt lat="43.5463783" lon="11.7561217"><ele>407.0</ele><time>2026-05-03T13:56:23.643Z</time></trkpt><trkpt lat="43.5464717" lon="11.7560067"><ele>411.0</ele><time>2026-05-03T13:56:24.649Z</time></trkpt><trkpt lat="43.5465733" lon="11.75589"><ele>415.0</ele><time>2026-05-03T13:56:25.651Z</time></trkpt><trkpt lat="43.5466717" lon="11.7557917"><ele>419.0</ele><time>2026-05-03T13:56:26.646Z</time></trkpt><trkpt lat="43.546755" lon="11.7556867"><ele>423.0</ele><time>2026-05-03T13:56:27.644Z</time></trkpt><trkpt lat="43.5468367" lon="11.75559"><ele>423.0</ele><time>2026-05-03T13:56:28.642Z</time></trkpt><trkpt lat="43.5469167" lon="11.7554917"><ele>423.0</ele><time>2026-05-03T13:56:29.641Z</time></trkpt><trkpt lat="43.54699" lon="11.7554033"><ele>423.0</ele><time>2026-05-03T13:56:30.649Z</time></trkpt><trkpt lat="43.547055" lon="11.7553383"><ele>423.0</ele><time>2026-05-03T13:56:31.652Z</time></trkpt><trkpt lat="43.54711" lon="11.7552733"><ele>423.0</ele><time>2026-05-03T13:56:32.646Z</time></trkpt><trkpt lat="43.5471567" lon="11.75521"><ele>423.0</ele><time>2026-05-03T13:56:33.657Z</time></trkpt><trkpt lat="43.5472067" lon="11.75507"><ele>423.79999999999995</ele><time>2026-05-03T13:56:35.642Z</time></trkpt><trkpt lat="43.5471833" lon="11.7549317"><ele>424.6</ele><time>2026-05-03T13:56:37.638Z</time></trkpt><trkpt lat="43.54709" lon="11.75481"><ele>425.40000000000003</ele><time>2026-05-03T13:56:39.643Z</time></trkpt><trkpt lat="43.547015" lon="11.7547733"><ele>426.20000000000005</ele><time>2026-05-03T13:56:40.645Z</time></trkpt><trkpt lat="43.5469217" lon="11.75475"><ele>427.0</ele><time>2026-05-03T13:56:41.647Z</time></trkpt><trkpt lat="43.5468217" lon="11.7547367"><ele>427.0</ele><time>2026-05-03T13:56:42.645Z</time></trkpt><trkpt lat="43.546715" lon="11.7547333"><ele>427.00000000000006</ele><time>2026-05-03T13:56:43.657Z</time></trkpt><trkpt lat="43.5466133" lon="11.754735"><ele>427.00000000000006</ele><time>2026-05-03T13:56:44.642Z</time></trkpt><trkpt lat="43.5465167" lon="11.7547467"><ele>427.0</ele><time>2026-05-03T13:56:45.641Z</time></trkpt><trkpt lat="43.5464217" lon="11.7547533"><ele>427.0</ele><time>2026-05-03T13:56:46.639Z</time></trkpt><trkpt lat="43.5463383" lon="11.7547667"><ele>427.0</ele><time>2026-05-03T13:56:47.644Z</time></trkpt><trkpt lat="43.5462517" lon="11.7547683"><ele>427.0</ele><time>2026-05-03T13:56:48.647Z</time></trkpt><trkpt lat="43.5461733" lon="11.7547667"><ele>427.0</ele><time>2026-05-03T13:56:49.645Z</time></trkpt><trkpt lat="43.5461033" lon="11.7547467"><ele>427.0</ele><time>2026-05-03T13:56:50.654Z</time></trkpt><trkpt lat="43.5460467" lon="11.7546983"><ele>427.0</ele><time>2026-05-03T13:56:51.638Z</time></trkpt><trkpt lat="43.5459983" lon="11.75463"><ele>427.0</ele><time>2026-05-03T13:56:52.641Z</time></trkpt><trkpt lat="43.5459567" lon="11.7545433"><ele>427.0</ele><time>2026-05-03T13:56:53.648Z</time></trkpt><trkpt lat="43.545935" lon="11.754435"><ele>427.00000000000006</ele><time>2026-05-03T13:56:54.641Z</time></trkpt><trkpt lat="43.5459333" lon="11.7543183"><ele>427.0</ele><time>2026-05-03T13:56:55.676Z</time></trkpt><trkpt lat="43.5459467" lon="11.7542117"><ele>427.0</ele><time>2026-05-03T13:56:56.648Z</time></trkpt><trkpt lat="43.5459683" lon="11.7541017"><ele>427.0</ele><time>2026-05-03T13:56:57.646Z</time></trkpt><trkpt lat="43.5460033" lon="11.7540083"><ele>427.00000000000006</ele><time>2026-05-03T13:56:58.644Z</time></trkpt><trkpt lat="43.5460383" lon="11.753925"><ele>427.0</ele><time>2026-05-03T13:56:59.643Z</time></trkpt><trkpt lat="43.5460833" lon="11.7538567"><ele>427.00000000000006</ele><time>2026-05-03T13:57:00.645Z</time></trkpt><trkpt lat="43.5461383" lon="11.7537917"><ele>427.0</ele><time>2026-05-03T13:57:01.645Z</time></trkpt><trkpt lat="43.54621" lon="11.75376"><ele>427.0</ele><time>2026-05-03T13:57:02.65Z</time></trkpt><trkpt lat="43.546285" lon="11.7537267"><ele>427.0</ele><time>2026-05-03T13:57:03.649Z</time></trkpt><trkpt lat="43.54635" lon="11.7536983"><ele>427.00000000000006</ele><time>2026-05-03T13:57:04.642Z</time></trkpt><trkpt lat="43.546445" lon="11.7536083"><ele>427.0</ele><time>2026-05-03T13:57:06.642Z</time></trkpt><trkpt lat="43.54649" lon="11.7534467"><ele>428.0</ele><time>2026-05-03T13:57:08.644Z</time></trkpt><trkpt lat="43.5464483" lon="11.7532767"><ele>429.00000000000006</ele><time>2026-05-03T13:57:10.64Z</time></trkpt><trkpt lat="43.5464" lon="11.7532017"><ele>430.00000000000006</ele><time>2026-05-03T13:57:11.646Z</time></trkpt><trkpt lat="43.546325" lon="11.7531183"><ele>431.0</ele><time>2026-05-03T13:57:12.652Z</time></trkpt><trkpt lat="43.5462283" lon="11.7530333"><ele>432.0</ele><time>2026-05-03T13:57:13.645Z</time></trkpt><trkpt lat="43.546115" lon="11.7529417"><ele>432.0</ele><time>2026-05-03T13:57:14.652Z</time></trkpt><trkpt lat="43.5459967" lon="11.7528483"><ele>432.00000000000006</ele><time>2026-05-03T13:57:15.645Z</time></trkpt><trkpt lat="43.5459033" lon="11.7527633"><ele>432.00000000000006</ele><time>2026-05-03T13:57:16.644Z</time></trkpt><trkpt lat="43.5458217" lon="11.7526783"><ele>432.0</ele><time>2026-05-03T13:57:17.648Z</time></trkpt><trkpt lat="43.5457467" lon="11.75259"><ele>432.0</ele><time>2026-05-03T13:57:18.651Z</time></trkpt><trkpt lat="43.545675" lon="11.752495"><ele>434.0</ele><time>2026-05-03T13:57:19.641Z</time></trkpt><trkpt lat="43.5456183" lon="11.7523867"><ele>436.00000000000006</ele><time>2026-05-03T13:57:20.65Z</time></trkpt><trkpt lat="43.54558" lon="11.7522733"><ele>438.00000000000006</ele><time>2026-05-03T13:57:21.645Z</time></trkpt><trkpt lat="43.5455533" lon="11.75215"><ele>440.0</ele><time>2026-05-03T13:57:22.647Z</time></trkpt><trkpt lat="43.5455317" lon="11.7520183"><ele>442.0</ele><time>2026-05-03T13:57:23.64Z</time></trkpt><trkpt lat="43.5455017" lon="11.751875"><ele>445.25</ele><time>2026-05-03T13:57:24.643Z</time></trkpt><trkpt lat="43.54547" lon="11.751735"><ele>448.5</ele><time>2026-05-03T13:57:25.644Z</time></trkpt><trkpt lat="43.54544" lon="11.751585"><ele>451.75</ele><time>2026-05-03T13:57:26.641Z</time></trkpt><trkpt lat="43.5454167" lon="11.7514233"><ele>455.0</ele><time>2026-05-03T13:57:27.647Z</time></trkpt><trkpt lat="43.5453933" lon="11.751255"><ele>453.4</ele><time>2026-05-03T13:57:28.647Z</time></trkpt><trkpt lat="43.5453767" lon="11.7511083"><ele>451.8</ele><time>2026-05-03T13:57:29.641Z</time></trkpt><trkpt lat="43.5453583" lon="11.7509783"><ele>450.20000000000005</ele><time>2026-05-03T13:57:30.659Z</time></trkpt><trkpt lat="43.5453217" lon="11.7508383"><ele>448.6</ele><time>2026-05-03T13:57:31.649Z</time></trkpt><trkpt lat="43.54527" lon="11.7506917"><ele>447.0</ele><time>2026-05-03T13:57:32.651Z</time></trkpt><trkpt lat="43.5451983" lon="11.750545"><ele>447.0</ele><time>2026-05-03T13:57:33.644Z</time></trkpt><trkpt lat="43.5451217" lon="11.75041"><ele>447.0</ele><time>2026-05-03T13:57:34.647Z</time></trkpt><trkpt lat="43.545045" lon="11.7502633"><ele>447.0</ele><time>2026-05-03T13:57:35.649Z</time></trkpt><trkpt lat="43.5449683" lon="11.7501117"><ele>447.0</ele><time>2026-05-03T13:57:36.647Z</time></trkpt><trkpt lat="43.5448833" lon="11.74995"><ele>449.5</ele><time>2026-05-03T13:57:37.67Z</time></trkpt><trkpt lat="43.5448067" lon="11.7497967"><ele>452.0</ele><time>2026-05-03T13:57:38.643Z</time></trkpt><trkpt lat="43.5447217" lon="11.7496417"><ele>454.5</ele><time>2026-05-03T13:57:39.641Z</time></trkpt><trkpt lat="43.5446383" lon="11.7494783"><ele>457.0</ele><time>2026-05-03T13:57:40.646Z</time></trkpt><trkpt lat="43.5445483" lon="11.7493167"><ele>456.40000000000003</ele><time>2026-05-03T13:57:41.647Z</time></trkpt><trkpt lat="43.5444717" lon="11.7491717"><ele>455.80000000000007</ele><time>2026-05-03T13:57:42.652Z</time></trkpt><trkpt lat="43.544405" lon="11.749055"><ele>455.2</ele><time>2026-05-03T13:57:43.647Z</time></trkpt><trkpt lat="43.5443483" lon="11.74895"><ele>454.6</ele><time>2026-05-03T13:57:44.69Z</time></trkpt><trkpt lat="43.544295" lon="11.7488533"><ele>454.0</ele><time>2026-05-03T13:57:45.642Z</time></trkpt><trkpt lat="43.54425" lon="11.7487667"><ele>454.0</ele><time>2026-05-03T13:57:46.647Z</time></trkpt><trkpt lat="43.5442183" lon="11.7486833"><ele>454.0</ele><time>2026-05-03T13:57:47.652Z</time></trkpt><trkpt lat="43.5441617" lon="11.748565"><ele>454.0</ele><time>2026-05-03T13:57:49.646Z</time></trkpt><trkpt lat="43.5441133" lon="11.74846"><ele>454.0</ele><time>2026-05-03T13:57:51.654Z</time></trkpt><trkpt lat="43.5440667" lon="11.74832"><ele>454.0</ele><time>2026-05-03T13:57:53.651Z</time></trkpt><trkpt lat="43.54403" lon="11.748185"><ele>455.6</ele><time>2026-05-03T13:57:55.635Z</time></trkpt><trkpt lat="43.5439967" lon="11.7480567"><ele>457.2</ele><time>2026-05-03T13:57:57.648Z</time></trkpt><trkpt lat="43.54397" lon="11.7479267"><ele>458.80000000000007</ele><time>2026-05-03T13:57:59.678Z</time></trkpt><trkpt lat="43.543955" lon="11.747775"><ele>460.40000000000003</ele><time>2026-05-03T13:58:01.648Z</time></trkpt><trkpt lat="43.543955" lon="11.747595"><ele>462.0</ele><time>2026-05-03T13:58:03.655Z</time></trkpt><trkpt lat="43.5439667" lon="11.7474133"><ele>462.42857142857144</ele><time>2026-05-03T13:58:05.642Z</time></trkpt><trkpt lat="43.543975" lon="11.7473183"><ele>462.8571428571429</ele><time>2026-05-03T13:58:06.654Z</time></trkpt><trkpt lat="43.5439783" lon="11.74722"><ele>463.2857142857143</ele><time>2026-05-03T13:58:07.638Z</time></trkpt><trkpt lat="43.5439883" lon="11.7471167"><ele>463.7142857142857</ele><time>2026-05-03T13:58:08.639Z</time></trkpt><trkpt lat="43.544" lon="11.7470117"><ele>464.14285714285717</ele><time>2026-05-03T13:58:09.641Z</time></trkpt><trkpt lat="43.5440117" lon="11.7469083"><ele>464.57142857142856</ele><time>2026-05-03T13:58:10.64Z</time></trkpt><trkpt lat="43.544025" lon="11.7468"><ele>465.0</ele><time>2026-05-03T13:58:11.69Z</time></trkpt><trkpt lat="43.5440383" lon="11.7466983"><ele>465.0</ele><time>2026-05-03T13:58:12.647Z</time></trkpt><trkpt lat="43.54406" lon="11.7465917"><ele>465.0</ele><time>2026-05-03T13:58:13.645Z</time></trkpt><trkpt lat="43.5440833" lon="11.7464883"><ele>465.0</ele><time>2026-05-03T13:58:14.646Z</time></trkpt><trkpt lat="43.5441183" lon="11.7463933"><ele>465.0</ele><time>2026-05-03T13:58:15.63Z</time></trkpt><trkpt lat="43.5441617" lon="11.7463117"><ele>465.0</ele><time>2026-05-03T13:58:16.665Z</time></trkpt><trkpt lat="43.544215" lon="11.7462417"><ele>465.0</ele><time>2026-05-03T13:58:17.658Z</time></trkpt><trkpt lat="43.5442717" lon="11.7461783"><ele>465.0</ele><time>2026-05-03T13:58:18.644Z</time></trkpt><trkpt lat="43.544335" lon="11.74613"><ele>465.0</ele><time>2026-05-03T13:58:19.65Z</time></trkpt><trkpt lat="43.5444067" lon="11.7460883"><ele>465.0</ele><time>2026-05-03T13:58:20.649Z</time></trkpt><trkpt lat="43.544485" lon="11.74606"><ele>465.0</ele><time>2026-05-03T13:58:21.668Z</time></trkpt><trkpt lat="43.5445617" lon="11.7460383"><ele>465.0</ele><time>2026-05-03T13:58:22.65Z</time></trkpt><trkpt lat="43.5446467" lon="11.7460217"><ele>465.0</ele><time>2026-05-03T13:58:23.671Z</time></trkpt><trkpt lat="43.544745" lon="11.7460117"><ele>463.8</ele><time>2026-05-03T13:58:24.668Z</time></trkpt><trkpt lat="43.544845" lon="11.7460017"><ele>462.6</ele><time>2026-05-03T13:58:25.643Z</time></trkpt><trkpt lat="43.5449533" lon="11.7459883"><ele>461.4</ele><time>2026-05-03T13:58:26.643Z</time></trkpt><trkpt lat="43.5450617" lon="11.7459867"><ele>460.2</ele><time>2026-05-03T13:58:27.639Z</time></trkpt><trkpt lat="43.545165" lon="11.7459767"><ele>459.0</ele><time>2026-05-03T13:58:28.646Z</time></trkpt><trkpt lat="43.5452733" lon="11.74597"><ele>459.0</ele><time>2026-05-03T13:58:29.648Z</time></trkpt><trkpt lat="43.5453783" lon="11.7459667"><ele>459.0</ele><time>2026-05-03T13:58:30.65Z</time></trkpt><trkpt lat="43.5454717" lon="11.7459667"><ele>459.0</ele><time>2026-05-03T13:58:31.646Z</time></trkpt><trkpt lat="43.5455667" lon="11.74597"><ele>459.0</ele><time>2026-05-03T13:58:32.656Z</time></trkpt><trkpt lat="43.5456567" lon="11.745965"><ele>459.0</ele><time>2026-05-03T13:58:33.647Z</time></trkpt><trkpt lat="43.5457333" lon="11.7459467"><ele>460.6666666666667</ele><time>2026-05-03T13:58:34.649Z</time></trkpt><trkpt lat="43.5458067" lon="11.74593"><ele>462.33333333333337</ele><time>2026-05-03T13:58:35.646Z</time></trkpt><trkpt lat="43.545915" lon="11.7458367"><ele>464.0</ele><time>2026-05-03T13:58:37.64Z</time></trkpt><trkpt lat="43.5459567" lon="11.7457567"><ele>465.6666666666667</ele><time>2026-05-03T13:58:38.646Z</time></trkpt><trkpt lat="43.5459833" lon="11.7456667"><ele>467.33333333333337</ele><time>2026-05-03T13:58:39.647Z</time></trkpt><trkpt lat="43.54599" lon="11.745565"><ele>469.0</ele><time>2026-05-03T13:58:40.639Z</time></trkpt><trkpt lat="43.545985" lon="11.7454517"><ele>469.00000000000006</ele><time>2026-05-03T13:58:41.643Z</time></trkpt><trkpt lat="43.54596" lon="11.74534"><ele>469.0</ele><time>2026-05-03T13:58:42.649Z</time></trkpt><trkpt lat="43.545935" lon="11.7452483"><ele>469.0</ele><time>2026-05-03T13:58:43.645Z</time></trkpt><trkpt lat="43.5459167" lon="11.745165"><ele>469.0</ele><time>2026-05-03T13:58:44.654Z</time></trkpt><trkpt lat="43.5459" lon="11.745005"><ele>469.00000000000006</ele><time>2026-05-03T13:58:46.634Z</time></trkpt><trkpt lat="43.545925" lon="11.744885"><ele>469.0</ele><time>2026-05-03T13:58:48.648Z</time></trkpt><trkpt lat="43.5460117" lon="11.744765"><ele>468.6</ele><time>2026-05-03T13:58:59.634Z</time></trkpt><trkpt lat="43.54611" lon="11.74468"><ele>468.2</ele><time>2026-05-03T13:59:01.638Z</time></trkpt><trkpt lat="43.546175" lon="11.74465"><ele>467.80000000000007</ele><time>2026-05-03T13:59:02.639Z</time></trkpt><trkpt lat="43.5462617" lon="11.74464"><ele>467.40000000000003</ele><time>2026-05-03T13:59:03.652Z</time></trkpt><trkpt lat="43.54635" lon="11.7446433"><ele>467.0</ele><time>2026-05-03T13:59:04.645Z</time></trkpt><trkpt lat="43.5464417" lon="11.7446617"><ele>466.99999999999994</ele><time>2026-05-03T13:59:05.671Z</time></trkpt><trkpt lat="43.5465383" lon="11.7446817"><ele>467.0</ele><time>2026-05-03T13:59:06.651Z</time></trkpt><trkpt lat="43.5466267" lon="11.7447033"><ele>467.0</ele><time>2026-05-03T13:59:07.652Z</time></trkpt><trkpt lat="43.5467133" lon="11.7447233"><ele>467.0</ele><time>2026-05-03T13:59:08.645Z</time></trkpt><trkpt lat="43.5467967" lon="11.7447533"><ele>466.99999999999994</ele><time>2026-05-03T13:59:09.649Z</time></trkpt><trkpt lat="43.54688" lon="11.7447883"><ele>467.0</ele><time>2026-05-03T13:59:10.652Z</time></trkpt><trkpt lat="43.5469583" lon="11.7448317"><ele>467.0</ele><time>2026-05-03T13:59:11.65Z</time></trkpt><trkpt lat="43.547035" lon="11.7448883"><ele>467.00000000000006</ele><time>2026-05-03T13:59:12.644Z</time></trkpt><trkpt lat="43.5471117" lon="11.74496"><ele>467.00000000000006</ele><time>2026-05-03T13:59:13.664Z</time></trkpt><trkpt lat="43.5471867" lon="11.7450467"><ele>467.0</ele><time>2026-05-03T13:59:14.634Z</time></trkpt><trkpt lat="43.5472617" lon="11.7451483"><ele>467.0</ele><time>2026-05-03T13:59:15.648Z</time></trkpt><trkpt lat="43.5473333" lon="11.745255"><ele>466.8</ele><time>2026-05-03T13:59:16.647Z</time></trkpt><trkpt lat="43.5474033" lon="11.7453567"><ele>466.6</ele><time>2026-05-03T13:59:17.636Z</time></trkpt><trkpt lat="43.5474733" lon="11.7454533"><ele>466.40000000000003</ele><time>2026-05-03T13:59:18.652Z</time></trkpt><trkpt lat="43.5475483" lon="11.7455567"><ele>466.20000000000005</ele><time>2026-05-03T13:59:19.642Z</time></trkpt><trkpt lat="43.5476217" lon="11.7456667"><ele>466.0</ele><time>2026-05-03T13:59:20.657Z</time></trkpt><trkpt lat="43.5476883" lon="11.7457667"><ele>466.0</ele><time>2026-05-03T13:59:21.646Z</time></trkpt><trkpt lat="43.5477617" lon="11.7458667"><ele>466.0</ele><time>2026-05-03T13:59:22.656Z</time></trkpt><trkpt lat="43.547825" lon="11.7459683"><ele>466.0</ele><time>2026-05-03T13:59:23.633Z</time></trkpt><trkpt lat="43.5478917" lon="11.7460867"><ele>466.0</ele><time>2026-05-03T13:59:24.645Z</time></trkpt><trkpt lat="43.5479467" lon="11.7462083"><ele>466.0</ele><time>2026-05-03T13:59:25.642Z</time></trkpt><trkpt lat="43.547995" lon="11.746315"><ele>464.6666666666667</ele><time>2026-05-03T13:59:26.635Z</time></trkpt><trkpt lat="43.5480383" lon="11.746435"><ele>463.33333333333337</ele><time>2026-05-03T13:59:27.642Z</time></trkpt><trkpt lat="43.5480767" lon="11.74655"><ele>462.0</ele><time>2026-05-03T13:59:28.646Z</time></trkpt><trkpt lat="43.5481233" lon="11.746655"><ele>460.66666666666663</ele><time>2026-05-03T13:59:29.648Z</time></trkpt><trkpt lat="43.54817" lon="11.746745"><ele>459.3333333333333</ele><time>2026-05-03T13:59:30.646Z</time></trkpt><trkpt lat="43.5482117" lon="11.74682"><ele>458.0</ele><time>2026-05-03T13:59:31.655Z</time></trkpt><trkpt lat="43.54827" lon="11.7468817"><ele>457.99999999999994</ele><time>2026-05-03T13:59:32.655Z</time></trkpt><trkpt lat="43.5483333" lon="11.7469283"><ele>458.0</ele><time>2026-05-03T13:59:33.662Z</time></trkpt><trkpt lat="43.548405" lon="11.7469583"><ele>458.0</ele><time>2026-05-03T13:59:34.639Z</time></trkpt><trkpt lat="43.5484817" lon="11.7469633"><ele>458.0</ele><time>2026-05-03T13:59:35.639Z</time></trkpt><trkpt lat="43.5485533" lon="11.7469417"><ele>457.99999999999994</ele><time>2026-05-03T13:59:36.649Z</time></trkpt><trkpt lat="43.5486233" lon="11.7468917"><ele>458.0</ele><time>2026-05-03T13:59:37.645Z</time></trkpt><trkpt lat="43.54869" lon="11.7468067"><ele>460.0</ele><time>2026-05-03T13:59:38.659Z</time></trkpt><trkpt lat="43.548755" lon="11.7467033"><ele>461.99999999999994</ele><time>2026-05-03T13:59:39.652Z</time></trkpt><trkpt lat="43.5488167" lon="11.7465917"><ele>463.99999999999994</ele><time>2026-05-03T13:59:40.649Z</time></trkpt><trkpt lat="43.5488817" lon="11.7464633"><ele>466.0</ele><time>2026-05-03T13:59:41.649Z</time></trkpt><trkpt lat="43.54894" lon="11.7463367"><ele>468.0</ele><time>2026-05-03T13:59:42.644Z</time></trkpt><trkpt lat="43.5489833" lon="11.7462067"><ele>468.0</ele><time>2026-05-03T13:59:43.642Z</time></trkpt><trkpt lat="43.5490133" lon="11.7460883"><ele>467.99999999999994</ele><time>2026-05-03T13:59:44.648Z</time></trkpt><trkpt lat="43.5490433" lon="11.7459717"><ele>467.99999999999994</ele><time>2026-05-03T13:59:45.636Z</time></trkpt><trkpt lat="43.5490783" lon="11.7458617"><ele>468.0</ele><time>2026-05-03T13:59:46.645Z</time></trkpt><trkpt lat="43.5491083" lon="11.7457683"><ele>468.0</ele><time>2026-05-03T13:59:47.647Z</time></trkpt><trkpt lat="43.5491817" lon="11.7456517"><ele>463.79999999999995</ele><time>2026-05-03T13:59:49.643Z</time></trkpt><trkpt lat="43.54928" lon="11.745605"><ele>459.59999999999997</ele><time>2026-05-03T13:59:51.647Z</time></trkpt><trkpt lat="43.5494017" lon="11.745655"><ele>455.40000000000003</ele><time>2026-05-03T13:59:53.638Z</time></trkpt><trkpt lat="43.54947" lon="11.7457017"><ele>451.20000000000005</ele><time>2026-05-03T13:59:54.638Z</time></trkpt><trkpt lat="43.5495383" lon="11.7457583"><ele>447.0</ele><time>2026-05-03T13:59:55.651Z</time></trkpt><trkpt lat="43.5496117" lon="11.7458333"><ele>445.20000000000005</ele><time>2026-05-03T13:59:56.641Z</time></trkpt><trkpt lat="43.5496883" lon="11.745905"><ele>443.40000000000003</ele><time>2026-05-03T13:59:57.668Z</time></trkpt><trkpt lat="43.5497683" lon="11.74598"><ele>441.59999999999997</ele><time>2026-05-03T13:59:58.651Z</time></trkpt><trkpt lat="43.549845" lon="11.7460617"><ele>439.79999999999995</ele><time>2026-05-03T13:59:59.645Z</time></trkpt><trkpt lat="43.5499217" lon="11.74614"><ele>438.0</ele><time>2026-05-03T14:00:00.651Z</time></trkpt><trkpt lat="43.549995" lon="11.7462067"><ele>441.6666666666667</ele><time>2026-05-03T14:00:01.645Z</time></trkpt><trkpt lat="43.5500667" lon="11.7462817"><ele>445.33333333333337</ele><time>2026-05-03T14:00:02.648Z</time></trkpt><trkpt lat="43.5501333" lon="11.7463583"><ele>449.0</ele><time>2026-05-03T14:00:03.655Z</time></trkpt><trkpt lat="43.5501883" lon="11.7464433"><ele>452.6666666666667</ele><time>2026-05-03T14:00:04.649Z</time></trkpt><trkpt lat="43.550235" lon="11.74654"><ele>456.33333333333337</ele><time>2026-05-03T14:00:05.662Z</time></trkpt><trkpt lat="43.5502767" lon="11.7466367"><ele>460.0</ele><time>2026-05-03T14:00:06.646Z</time></trkpt><trkpt lat="43.5503117" lon="11.7467433"><ele>460.00000000000006</ele><time>2026-05-03T14:00:07.646Z</time></trkpt><trkpt lat="43.550335" lon="11.74685"><ele>460.0</ele><time>2026-05-03T14:00:08.648Z</time></trkpt><trkpt lat="43.550355" lon="11.7469567"><ele>460.0</ele><time>2026-05-03T14:00:09.639Z</time></trkpt><trkpt lat="43.5503767" lon="11.74706"><ele>460.0</ele><time>2026-05-03T14:00:10.674Z</time></trkpt><trkpt lat="43.5503933" lon="11.7471467"><ele>460.00000000000006</ele><time>2026-05-03T14:00:11.649Z</time></trkpt><trkpt lat="43.550445" lon="11.74727"><ele>460.0</ele><time>2026-05-03T14:00:13.654Z</time></trkpt><trkpt lat="43.5505483" lon="11.747315"><ele>460.00000000000006</ele><time>2026-05-03T14:00:15.645Z</time></trkpt><trkpt lat="43.5506233" lon="11.74727"><ele>460.0</ele><time>2026-05-03T14:00:16.65Z</time></trkpt><trkpt lat="43.550695" lon="11.747215"><ele>460.0</ele><time>2026-05-03T14:00:17.644Z</time></trkpt><trkpt lat="43.5507617" lon="11.7471517"><ele>460.0</ele><time>2026-05-03T14:00:18.647Z</time></trkpt><trkpt lat="43.550825" lon="11.7471067"><ele>460.00000000000006</ele><time>2026-05-03T14:00:19.646Z</time></trkpt><trkpt lat="43.5508933" lon="11.7470917"><ele>460.0</ele><time>2026-05-03T14:00:20.639Z</time></trkpt><trkpt lat="43.550965" lon="11.7471033"><ele>460.00000000000006</ele><time>2026-05-03T14:00:21.658Z</time></trkpt><trkpt lat="43.5510367" lon="11.747135"><ele>460.0</ele><time>2026-05-03T14:00:22.648Z</time></trkpt><trkpt lat="43.55111" lon="11.7471783"><ele>460.0</ele><time>2026-05-03T14:00:23.641Z</time></trkpt><trkpt lat="43.55118" lon="11.7472317"><ele>460.0</ele><time>2026-05-03T14:00:24.641Z</time></trkpt><trkpt lat="43.5512417" lon="11.7472917"><ele>460.00000000000006</ele><time>2026-05-03T14:00:25.636Z</time></trkpt><trkpt lat="43.5512967" lon="11.7473533"><ele>460.0</ele><time>2026-05-03T14:00:26.683Z</time></trkpt><trkpt lat="43.5513633" lon="11.7473983"><ele>459.2857142857142</ele><time>2026-05-03T14:00:27.645Z</time></trkpt><trkpt lat="43.5514233" lon="11.7474317"><ele>458.57142857142856</ele><time>2026-05-03T14:00:28.644Z</time></trkpt><trkpt lat="43.5514867" lon="11.74743"><ele>457.85714285714283</ele><time>2026-05-03T14:00:29.644Z</time></trkpt><trkpt lat="43.5515583" lon="11.74741"><ele>457.1428571428571</ele><time>2026-05-03T14:00:30.651Z</time></trkpt><trkpt lat="43.5516183" lon="11.747365"><ele>456.42857142857144</ele><time>2026-05-03T14:00:31.651Z</time></trkpt><trkpt lat="43.5516767" lon="11.7473033"><ele>455.7142857142857</ele><time>2026-05-03T14:00:32.655Z</time></trkpt><trkpt lat="43.5517317" lon="11.7472233"><ele>455.0</ele><time>2026-05-03T14:00:33.647Z</time></trkpt><trkpt lat="43.551785" lon="11.7471383"><ele>454.99999999999994</ele><time>2026-05-03T14:00:34.649Z</time></trkpt><trkpt lat="43.551835" lon="11.747045"><ele>455.0</ele><time>2026-05-03T14:00:35.645Z</time></trkpt><trkpt lat="43.551875" lon="11.746955"><ele>455.0</ele><time>2026-05-03T14:00:36.647Z</time></trkpt><trkpt lat="43.5519133" lon="11.7468683"><ele>455.0</ele><time>2026-05-03T14:00:37.642Z</time></trkpt><trkpt lat="43.5519533" lon="11.7468"><ele>454.99999999999994</ele><time>2026-05-03T14:00:38.654Z</time></trkpt><trkpt lat="43.5520433" lon="11.746725"><ele>455.0</ele><time>2026-05-03T14:00:40.654Z</time></trkpt><trkpt lat="43.5521333" lon="11.7467633"><ele>451.6</ele><time>2026-05-03T14:00:42.645Z</time></trkpt><trkpt lat="43.55221" lon="11.746885"><ele>448.2</ele><time>2026-05-03T14:00:44.638Z</time></trkpt><trkpt lat="43.5522333" lon="11.7469883"><ele>444.79999999999995</ele><time>2026-05-03T14:00:45.665Z</time></trkpt><trkpt lat="43.552255" lon="11.7471117"><ele>441.4</ele><time>2026-05-03T14:00:46.651Z</time></trkpt><trkpt lat="43.552275" lon="11.7472533"><ele>438.0</ele><time>2026-05-03T14:00:47.647Z</time></trkpt><trkpt lat="43.5523017" lon="11.74741"><ele>438.0</ele><time>2026-05-03T14:00:48.643Z</time></trkpt><trkpt lat="43.5523267" lon="11.7475833"><ele>437.99999999999994</ele><time>2026-05-03T14:00:49.65Z</time></trkpt><trkpt lat="43.5523533" lon="11.7477333"><ele>437.99999999999994</ele><time>2026-05-03T14:00:50.648Z</time></trkpt><trkpt lat="43.5523767" lon="11.7478583"><ele>438.0</ele><time>2026-05-03T14:00:51.64Z</time></trkpt><trkpt lat="43.5524067" lon="11.747975"><ele>438.0</ele><time>2026-05-03T14:00:52.674Z</time></trkpt><trkpt lat="43.5524483" lon="11.74809"><ele>440.59999999999997</ele><time>2026-05-03T14:00:53.648Z</time></trkpt><trkpt lat="43.5525033" lon="11.748205"><ele>443.19999999999993</ele><time>2026-05-03T14:00:54.645Z</time></trkpt><trkpt lat="43.5525567" lon="11.7483283"><ele>445.8</ele><time>2026-05-03T14:00:55.643Z</time></trkpt><trkpt lat="43.552585" lon="11.7484517"><ele>448.4</ele><time>2026-05-03T14:00:56.64Z</time></trkpt><trkpt lat="43.5526133" lon="11.7485667"><ele>451.0</ele><time>2026-05-03T14:00:57.641Z</time></trkpt><trkpt lat="43.5526433" lon="11.74868"><ele>454.8</ele><time>2026-05-03T14:00:58.643Z</time></trkpt><trkpt lat="43.5526867" lon="11.7487883"><ele>458.6</ele><time>2026-05-03T14:00:59.659Z</time></trkpt><trkpt lat="43.5527433" lon="11.7488733"><ele>462.4</ele><time>2026-05-03T14:01:00.645Z</time></trkpt><trkpt lat="43.55283" lon="11.7490167"><ele>466.2</ele><time>2026-05-03T14:01:02.652Z</time></trkpt><trkpt lat="43.5528733" lon="11.749115"><ele>470.0</ele><time>2026-05-03T14:01:03.646Z</time></trkpt><trkpt lat="43.5529033" lon="11.7492217"><ele>466.2</ele><time>2026-05-03T14:01:04.662Z</time></trkpt><trkpt lat="43.5529317" lon="11.7493517"><ele>462.4</ele><time>2026-05-03T14:01:05.641Z</time></trkpt><trkpt lat="43.5529667" lon="11.7494867"><ele>458.6</ele><time>2026-05-03T14:01:06.641Z</time></trkpt><trkpt lat="43.55301" lon="11.7496133"><ele>454.8</ele><time>2026-05-03T14:01:07.65Z</time></trkpt><trkpt lat="43.5530517" lon="11.7497233"><ele>451.0</ele><time>2026-05-03T14:01:08.643Z</time></trkpt><trkpt lat="43.5530917" lon="11.7498183"><ele>451.00000000000006</ele><time>2026-05-03T14:01:09.674Z</time></trkpt><trkpt lat="43.55313" lon="11.7499"><ele>451.0</ele><time>2026-05-03T14:01:10.644Z</time></trkpt><trkpt lat="43.5531717" lon="11.7499683"><ele>451.0</ele><time>2026-05-03T14:01:11.639Z</time></trkpt><trkpt lat="43.5532283" lon="11.750025"><ele>451.0</ele><time>2026-05-03T14:01:12.636Z</time></trkpt><trkpt lat="43.553305" lon="11.7500367"><ele>451.00000000000006</ele><time>2026-05-03T14:01:13.638Z</time></trkpt><trkpt lat="43.55339" lon="11.7500183"><ele>451.0</ele><time>2026-05-03T14:01:14.644Z</time></trkpt><trkpt lat="43.5534867" lon="11.7499883"><ele>451.00000000000006</ele><time>2026-05-03T14:01:15.659Z</time></trkpt><trkpt lat="43.5535617" lon="11.7499283"><ele>451.0</ele><time>2026-05-03T14:01:16.643Z</time></trkpt><trkpt lat="43.5536133" lon="11.7498417"><ele>451.0</ele><time>2026-05-03T14:01:17.642Z</time></trkpt><trkpt lat="43.5536533" lon="11.7497533"><ele>451.0</ele><time>2026-05-03T14:01:18.65Z</time></trkpt><trkpt lat="43.5537017" lon="11.74967"><ele>451.00000000000006</ele><time>2026-05-03T14:01:19.654Z</time></trkpt><trkpt lat="43.5537433" lon="11.7495933"><ele>451.0</ele><time>2026-05-03T14:01:20.645Z</time></trkpt><trkpt lat="43.5537967" lon="11.749525"><ele>451.6666666666667</ele><time>2026-05-03T14:01:21.666Z</time></trkpt><trkpt lat="43.553865" lon="11.7494733"><ele>452.33333333333337</ele><time>2026-05-03T14:01:22.648Z</time></trkpt><trkpt lat="43.5539283" lon="11.7494567"><ele>453.0</ele><time>2026-05-03T14:01:23.644Z</time></trkpt><trkpt lat="43.5539967" lon="11.7494483"><ele>453.66666666666663</ele><time>2026-05-03T14:01:24.642Z</time></trkpt><trkpt lat="43.554075" lon="11.7494567"><ele>454.3333333333333</ele><time>2026-05-03T14:01:25.645Z</time></trkpt><trkpt lat="43.554165" lon="11.7494767"><ele>455.0</ele><time>2026-05-03T14:01:26.642Z</time></trkpt><trkpt lat="43.5542617" lon="11.7494967"><ele>455.0</ele><time>2026-05-03T14:01:27.646Z</time></trkpt><trkpt lat="43.5543583" lon="11.7495233"><ele>455.0</ele><time>2026-05-03T14:01:28.642Z</time></trkpt><trkpt lat="43.5544417" lon="11.7495417"><ele>455.0</ele><time>2026-05-03T14:01:29.645Z</time></trkpt><trkpt lat="43.5545067" lon="11.74955"><ele>455.0</ele><time>2026-05-03T14:01:30.648Z</time></trkpt><trkpt lat="43.5546117" lon="11.7495167"><ele>455.0</ele><time>2026-05-03T14:01:32.638Z</time></trkpt><trkpt lat="43.5546783" lon="11.749405"><ele>455.3333333333333</ele><time>2026-05-03T14:01:34.641Z</time></trkpt><trkpt lat="43.5546867" lon="11.74931"><ele>455.66666666666663</ele><time>2026-05-03T14:01:35.636Z</time></trkpt><trkpt lat="43.5546717" lon="11.7491967"><ele>456.0</ele><time>2026-05-03T14:01:36.642Z</time></trkpt><trkpt lat="43.5546417" lon="11.74907"><ele>456.33333333333337</ele><time>2026-05-03T14:01:37.642Z</time></trkpt><trkpt lat="43.5546283" lon="11.7489483"><ele>456.6666666666667</ele><time>2026-05-03T14:01:38.653Z</time></trkpt><trkpt lat="43.5546333" lon="11.748845"><ele>457.0</ele><time>2026-05-03T14:01:39.648Z</time></trkpt><trkpt lat="43.5546533" lon="11.74876"><ele>457.00000000000006</ele><time>2026-05-03T14:01:40.653Z</time></trkpt><trkpt lat="43.5546983" lon="11.748685"><ele>457.0</ele><time>2026-05-03T14:01:41.652Z</time></trkpt><trkpt lat="43.5547517" lon="11.7486233"><ele>457.0</ele><time>2026-05-03T14:01:42.645Z</time></trkpt><trkpt lat="43.5548217" lon="11.7485833"><ele>457.0</ele><time>2026-05-03T14:01:43.647Z</time></trkpt><trkpt lat="43.5549" lon="11.7485517"><ele>457.00000000000006</ele><time>2026-05-03T14:01:44.647Z</time></trkpt><trkpt lat="43.5549867" lon="11.748525"><ele>457.0</ele><time>2026-05-03T14:01:45.652Z</time></trkpt><trkpt lat="43.5550883" lon="11.74849"><ele>457.20000000000005</ele><time>2026-05-03T14:01:46.63Z</time></trkpt><trkpt lat="43.55519" lon="11.74845"><ele>457.40000000000003</ele><time>2026-05-03T14:01:47.638Z</time></trkpt><trkpt lat="43.5552883" lon="11.7484067"><ele>457.59999999999997</ele><time>2026-05-03T14:01:48.653Z</time></trkpt><trkpt lat="43.5553967" lon="11.7483767"><ele>457.79999999999995</ele><time>2026-05-03T14:01:49.639Z</time></trkpt><trkpt lat="43.555515" lon="11.7483383"><ele>458.0</ele><time>2026-05-03T14:01:50.675Z</time></trkpt><trkpt lat="43.5556333" lon="11.7482917"><ele>458.0</ele><time>2026-05-03T14:01:51.644Z</time></trkpt><trkpt lat="43.5557367" lon="11.748245"><ele>457.99999999999994</ele><time>2026-05-03T14:01:52.649Z</time></trkpt><trkpt lat="43.555835" lon="11.7482133"><ele>457.99999999999994</ele><time>2026-05-03T14:01:53.65Z</time></trkpt><trkpt lat="43.555925" lon="11.748165"><ele>458.0</ele><time>2026-05-03T14:01:54.638Z</time></trkpt><trkpt lat="43.5560167" lon="11.7480867"><ele>458.0</ele><time>2026-05-03T14:01:55.644Z</time></trkpt><trkpt lat="43.5561033" lon="11.748005"><ele>458.0</ele><time>2026-05-03T14:01:56.636Z</time></trkpt><trkpt lat="43.5561867" lon="11.7479317"><ele>457.99999999999994</ele><time>2026-05-03T14:01:57.662Z</time></trkpt><trkpt lat="43.55627" lon="11.7478733"><ele>457.99999999999994</ele><time>2026-05-03T14:01:58.641Z</time></trkpt><trkpt lat="43.5563533" lon="11.747835"><ele>458.0</ele><time>2026-05-03T14:01:59.651Z</time></trkpt><trkpt lat="43.5564483" lon="11.7478267"><ele>458.0</ele><time>2026-05-03T14:02:00.651Z</time></trkpt><trkpt lat="43.556545" lon="11.7478433"><ele>460.59999999999997</ele><time>2026-05-03T14:02:01.643Z</time></trkpt><trkpt lat="43.5566417" lon="11.747885"><ele>463.19999999999993</ele><time>2026-05-03T14:02:02.649Z</time></trkpt><trkpt lat="43.556745" lon="11.7479233"><ele>465.8</ele><time>2026-05-03T14:02:03.648Z</time></trkpt><trkpt lat="43.5568583" lon="11.7479583"><ele>468.4</ele><time>2026-05-03T14:02:04.673Z</time></trkpt><trkpt lat="43.556965" lon="11.7480033"><ele>471.0</ele><time>2026-05-03T14:02:05.644Z</time></trkpt><trkpt lat="43.5570583" lon="11.748045"><ele>471.6666666666667</ele><time>2026-05-03T14:02:06.641Z</time></trkpt><trkpt lat="43.55714" lon="11.7480633"><ele>472.33333333333337</ele><time>2026-05-03T14:02:07.647Z</time></trkpt><trkpt lat="43.557215" lon="11.748065"><ele>473.0</ele><time>2026-05-03T14:02:08.633Z</time></trkpt><trkpt lat="43.5572883" lon="11.7480467"><ele>473.6666666666667</ele><time>2026-05-03T14:02:09.646Z</time></trkpt><trkpt lat="43.557365" lon="11.74799"><ele>474.33333333333337</ele><time>2026-05-03T14:02:10.648Z</time></trkpt><trkpt lat="43.557425" lon="11.7479083"><ele>475.0</ele><time>2026-05-03T14:02:11.642Z</time></trkpt><trkpt lat="43.557455" lon="11.7477717"><ele>470.33333333333337</ele><time>2026-05-03T14:02:12.635Z</time></trkpt><trkpt lat="43.55748" lon="11.7476533"><ele>465.6666666666667</ele><time>2026-05-03T14:02:13.63Z</time></trkpt><trkpt lat="43.557525" lon="11.7475567"><ele>461.0</ele><time>2026-05-03T14:02:14.648Z</time></trkpt><trkpt lat="43.55758" lon="11.74749"><ele>456.33333333333337</ele><time>2026-05-03T14:02:15.643Z</time></trkpt><trkpt lat="43.5576433" lon="11.7474483"><ele>451.6666666666667</ele><time>2026-05-03T14:02:16.647Z</time></trkpt><trkpt lat="43.55776" lon="11.7474283"><ele>447.0</ele><time>2026-05-03T14:02:18.646Z</time></trkpt><trkpt lat="43.557825" lon="11.7474733"><ele>448.1666666666667</ele><time>2026-05-03T14:02:19.645Z</time></trkpt><trkpt lat="43.55789" lon="11.7475533"><ele>449.33333333333337</ele><time>2026-05-03T14:02:20.646Z</time></trkpt><trkpt lat="43.5579467" lon="11.74763"><ele>450.5</ele><time>2026-05-03T14:02:21.64Z</time></trkpt><trkpt lat="43.5580017" lon="11.74772"><ele>451.6666666666667</ele><time>2026-05-03T14:02:22.651Z</time></trkpt><trkpt lat="43.55806" lon="11.7478"><ele>452.83333333333337</ele><time>2026-05-03T14:02:23.645Z</time></trkpt><trkpt lat="43.5581117" lon="11.7478533"><ele>454.0</ele><time>2026-05-03T14:02:24.646Z</time></trkpt><trkpt lat="43.5582317" lon="11.7478783"><ele>454.00000000000006</ele><time>2026-05-03T14:02:26.64Z</time></trkpt><trkpt lat="43.5583067" lon="11.7478483"><ele>454.0</ele><time>2026-05-03T14:02:27.641Z</time></trkpt><trkpt lat="43.5583633" lon="11.747785"><ele>454.0</ele><time>2026-05-03T14:02:28.642Z</time></trkpt><trkpt lat="43.5584283" lon="11.7477183"><ele>454.0</ele><time>2026-05-03T14:02:29.645Z</time></trkpt><trkpt lat="43.5584817" lon="11.74764"><ele>454.00000000000006</ele><time>2026-05-03T14:02:30.646Z</time></trkpt><trkpt lat="43.5585283" lon="11.7475783"><ele>454.0</ele><time>2026-05-03T14:02:31.633Z</time></trkpt><trkpt lat="43.55862" lon="11.7474817"><ele>453.50000000000006</ele><time>2026-05-03T14:02:33.648Z</time></trkpt><trkpt lat="43.5587317" lon="11.747455"><ele>453.0</ele><time>2026-05-03T14:02:35.644Z</time></trkpt><trkpt lat="43.558795" lon="11.7474617"><ele>452.5</ele><time>2026-05-03T14:02:36.645Z</time></trkpt><trkpt lat="43.5588567" lon="11.74749"><ele>452.0</ele><time>2026-05-03T14:02:37.654Z</time></trkpt><trkpt lat="43.5589183" lon="11.7475317"><ele>451.50000000000006</ele><time>2026-05-03T14:02:38.655Z</time></trkpt><trkpt lat="43.5589817" lon="11.7475817"><ele>451.0</ele><time>2026-05-03T14:02:39.73Z</time></trkpt><trkpt lat="43.55904" lon="11.7476417"><ele>453.83333333333337</ele><time>2026-05-03T14:02:40.655Z</time></trkpt><trkpt lat="43.55908" lon="11.7477217"><ele>456.6666666666667</ele><time>2026-05-03T14:02:41.637Z</time></trkpt><trkpt lat="43.5591117" lon="11.7478167"><ele>459.5</ele><time>2026-05-03T14:02:42.645Z</time></trkpt><trkpt lat="43.55912" lon="11.7479117"><ele>462.33333333333337</ele><time>2026-05-03T14:02:43.643Z</time></trkpt><trkpt lat="43.5591033" lon="11.7480683"><ele>465.1666666666667</ele><time>2026-05-03T14:02:45.635Z</time></trkpt><trkpt lat="43.5590667" lon="11.7481933"><ele>468.0</ele><time>2026-05-03T14:02:47.645Z</time></trkpt><trkpt lat="43.5590517" lon="11.7482967"><ele>468.0</ele><time>2026-05-03T14:02:49.65Z</time></trkpt><trkpt lat="43.5591017" lon="11.7483733"><ele>468.0</ele><time>2026-05-03T14:02:51.645Z</time></trkpt><trkpt lat="43.5591933" lon="11.7483933"><ele>468.0</ele><time>2026-05-03T14:02:53.656Z</time></trkpt><trkpt lat="43.559265" lon="11.7483817"><ele>468.0</ele><time>2026-05-03T14:02:54.638Z</time></trkpt><trkpt lat="43.5593517" lon="11.7483567"><ele>468.0</ele><time>2026-05-03T14:02:55.639Z</time></trkpt><trkpt lat="43.55945" lon="11.7483217"><ele>468.0</ele><time>2026-05-03T14:02:56.642Z</time></trkpt><trkpt lat="43.5595533" lon="11.7482783"><ele>467.0</ele><time>2026-05-03T14:02:57.648Z</time></trkpt><trkpt lat="43.5596517" lon="11.748245"><ele>465.99999999999994</ele><time>2026-05-03T14:02:58.647Z</time></trkpt><trkpt lat="43.55974" lon="11.74823"><ele>464.99999999999994</ele><time>2026-05-03T14:02:59.646Z</time></trkpt><trkpt lat="43.55983" lon="11.7482367"><ele>464.0</ele><time>2026-05-03T14:03:00.633Z</time></trkpt><trkpt lat="43.55992" lon="11.7482583"><ele>463.0</ele><time>2026-05-03T14:03:01.649Z</time></trkpt><trkpt lat="43.5600167" lon="11.748295"><ele>463.00000000000006</ele><time>2026-05-03T14:03:02.649Z</time></trkpt><trkpt lat="43.56011" lon="11.7483417"><ele>463.0</ele><time>2026-05-03T14:03:03.648Z</time></trkpt><trkpt lat="43.5601933" lon="11.7484017"><ele>463.0</ele><time>2026-05-03T14:03:04.644Z</time></trkpt><trkpt lat="43.56027" lon="11.7484483"><ele>463.0</ele><time>2026-05-03T14:03:05.656Z</time></trkpt><trkpt lat="43.56034" lon="11.748485"><ele>463.00000000000006</ele><time>2026-05-03T14:03:06.643Z</time></trkpt><trkpt lat="43.5604" lon="11.7485133"><ele>463.0</ele><time>2026-05-03T14:03:07.65Z</time></trkpt><trkpt lat="43.5604983" lon="11.748555"><ele>464.2</ele><time>2026-05-03T14:03:09.647Z</time></trkpt><trkpt lat="43.56058" lon="11.7485917"><ele>465.4</ele><time>2026-05-03T14:03:11.647Z</time></trkpt><trkpt lat="43.56066" lon="11.7486567"><ele>466.59999999999997</ele><time>2026-05-03T14:03:13.643Z</time></trkpt><trkpt lat="43.5607317" lon="11.7487667"><ele>467.79999999999995</ele><time>2026-05-03T14:03:15.643Z</time></trkpt><trkpt lat="43.56081" lon="11.7489033"><ele>469.0</ele><time>2026-05-03T14:03:17.657Z</time></trkpt><trkpt lat="43.560855" lon="11.7489717"><ele>469.0</ele><time>2026-05-03T14:03:18.648Z</time></trkpt><trkpt lat="43.5609367" lon="11.7491"><ele>469.0</ele><time>2026-05-03T14:03:20.648Z</time></trkpt><trkpt lat="43.561005" lon="11.7492367"><ele>469.0</ele><time>2026-05-03T14:03:22.655Z</time></trkpt><trkpt lat="43.561045" lon="11.7493083"><ele>469.0</ele><time>2026-05-03T14:03:23.657Z</time></trkpt><trkpt lat="43.5611033" lon="11.7494383"><ele>469.0</ele><time>2026-05-03T14:03:25.658Z</time></trkpt><trkpt lat="43.56119" lon="11.7495017"><ele>469.0</ele><time>2026-05-03T14:03:27.65Z</time></trkpt><trkpt lat="43.561295" lon="11.749475"><ele>469.0</ele><time>2026-05-03T14:03:29.643Z</time></trkpt><trkpt lat="43.5613567" lon="11.7494367"><ele>469.0</ele><time>2026-05-03T14:03:30.647Z</time></trkpt><trkpt lat="43.561475" lon="11.7494217"><ele>469.0</ele><time>2026-05-03T14:03:32.648Z</time></trkpt><trkpt lat="43.5615883" lon="11.749455"><ele>469.0</ele><time>2026-05-03T14:03:34.648Z</time></trkpt><trkpt lat="43.561655" lon="11.749475"><ele>469.0</ele><time>2026-05-03T14:03:35.65Z</time></trkpt><trkpt lat="43.56172" lon="11.749485"><ele>469.0</ele><time>2026-05-03T14:03:36.645Z</time></trkpt><trkpt lat="43.5618367" lon="11.7494917"><ele>469.0</ele><time>2026-05-03T14:03:38.645Z</time></trkpt><trkpt lat="43.5619333" lon="11.7494317"><ele>469.0</ele><time>2026-05-03T14:03:40.642Z</time></trkpt><trkpt lat="43.5619483" lon="11.74928"><ele>469.0</ele><time>2026-05-03T14:03:42.645Z</time></trkpt><trkpt lat="43.5619117" lon="11.7491367"><ele>469.00000000000006</ele><time>2026-05-03T14:03:44.653Z</time></trkpt><trkpt lat="43.561935" lon="11.74896"><ele>469.0</ele><time>2026-05-03T14:03:46.659Z</time></trkpt><trkpt lat="43.561965" lon="11.748865"><ele>469.0</ele><time>2026-05-03T14:03:47.653Z</time></trkpt><trkpt lat="43.5620033" lon="11.7487717"><ele>469.0</ele><time>2026-05-03T14:03:48.643Z</time></trkpt><trkpt lat="43.5620417" lon="11.7486967"><ele>469.00000000000006</ele><time>2026-05-03T14:03:49.651Z</time></trkpt><trkpt lat="43.5620933" lon="11.74863"><ele>469.0</ele><time>2026-05-03T14:03:50.637Z</time></trkpt><trkpt lat="43.5621533" lon="11.7485683"><ele>467.2857142857143</ele><time>2026-05-03T14:03:51.64Z</time></trkpt><trkpt lat="43.5622183" lon="11.74853"><ele>465.57142857142856</ele><time>2026-05-03T14:03:52.65Z</time></trkpt><trkpt lat="43.56228" lon="11.74851"><ele>463.8571428571429</ele><time>2026-05-03T14:03:53.662Z</time></trkpt><trkpt lat="43.5623417" lon="11.74849"><ele>462.14285714285717</ele><time>2026-05-03T14:03:54.642Z</time></trkpt><trkpt lat="43.5624067" lon="11.7484733"><ele>460.42857142857144</ele><time>2026-05-03T14:03:55.646Z</time></trkpt><trkpt lat="43.5624817" lon="11.7484533"><ele>458.7142857142858</ele><time>2026-05-03T14:03:56.639Z</time></trkpt><trkpt lat="43.5625583" lon="11.7484217"><ele>457.00000000000006</ele><time>2026-05-03T14:03:57.637Z</time></trkpt><trkpt lat="43.56263" lon="11.7483983"><ele>457.00000000000006</ele><time>2026-05-03T14:03:58.64Z</time></trkpt><trkpt lat="43.562705" lon="11.74838"><ele>457.0</ele><time>2026-05-03T14:03:59.636Z</time></trkpt><trkpt lat="43.5627783" lon="11.748355"><ele>457.0</ele><time>2026-05-03T14:04:00.653Z</time></trkpt><trkpt lat="43.5628617" lon="11.7483533"><ele>457.0</ele><time>2026-05-03T14:04:01.637Z</time></trkpt><trkpt lat="43.5629433" lon="11.7483683"><ele>457.00000000000006</ele><time>2026-05-03T14:04:02.635Z</time></trkpt><trkpt lat="43.56303" lon="11.7483983"><ele>457.0</ele><time>2026-05-03T14:04:03.651Z</time></trkpt><trkpt lat="43.563125" lon="11.748425"><ele>458.83333333333337</ele><time>2026-05-03T14:04:04.644Z</time></trkpt><trkpt lat="43.5632167" lon="11.7484467"><ele>460.6666666666667</ele><time>2026-05-03T14:04:05.65Z</time></trkpt><trkpt lat="43.5633067" lon="11.7484583"><ele>462.5</ele><time>2026-05-03T14:04:06.652Z</time></trkpt><trkpt lat="43.5633867" lon="11.7484667"><ele>464.33333333333337</ele><time>2026-05-03T14:04:07.651Z</time></trkpt><trkpt lat="43.5634767" lon="11.748475"><ele>466.1666666666667</ele><time>2026-05-03T14:04:08.661Z</time></trkpt><trkpt lat="43.5635583" lon="11.7484633"><ele>468.0</ele><time>2026-05-03T14:04:09.649Z</time></trkpt><trkpt lat="43.5636383" lon="11.7484583"><ele>470.0</ele><time>2026-05-03T14:04:10.653Z</time></trkpt><trkpt lat="43.5637167" lon="11.7484367"><ele>472.0</ele><time>2026-05-03T14:04:11.645Z</time></trkpt><trkpt lat="43.5637983" lon="11.74843"><ele>474.0</ele><time>2026-05-03T14:04:12.644Z</time></trkpt><trkpt lat="43.5638867" lon="11.7484083"><ele>476.0</ele><time>2026-05-03T14:04:13.646Z</time></trkpt><trkpt lat="43.56398" lon="11.7483717"><ele>478.0</ele><time>2026-05-03T14:04:14.648Z</time></trkpt><trkpt lat="43.564065" lon="11.7483267"><ele>480.0</ele><time>2026-05-03T14:04:15.645Z</time></trkpt><trkpt lat="43.564145" lon="11.7482833"><ele>480.0</ele><time>2026-05-03T14:04:16.637Z</time></trkpt><trkpt lat="43.56422" lon="11.7482533"><ele>480.0</ele><time>2026-05-03T14:04:17.648Z</time></trkpt><trkpt lat="43.5642917" lon="11.74822"><ele>480.0</ele><time>2026-05-03T14:04:19.643Z</time></trkpt><trkpt lat="43.5643167" lon="11.7481383"><ele>480.0</ele><time>2026-05-03T14:04:22.647Z</time></trkpt><trkpt lat="43.5642667" lon="11.7480217"><ele>480.0</ele><time>2026-05-03T14:04:24.643Z</time></trkpt><trkpt lat="43.5642183" lon="11.747965"><ele>480.0</ele><time>2026-05-03T14:04:25.64Z</time></trkpt><trkpt lat="43.56416" lon="11.7479217"><ele>480.0</ele><time>2026-05-03T14:04:26.641Z</time></trkpt><trkpt lat="43.5640933" lon="11.7478817"><ele>480.0</ele><time>2026-05-03T14:04:27.657Z</time></trkpt><trkpt lat="43.5640217" lon="11.7478533"><ele>480.0</ele><time>2026-05-03T14:04:28.657Z</time></trkpt><trkpt lat="43.5639383" lon="11.74782"><ele>480.0</ele><time>2026-05-03T14:04:29.644Z</time></trkpt><trkpt lat="43.5638517" lon="11.74779"><ele>480.0</ele><time>2026-05-03T14:04:30.647Z</time></trkpt><trkpt lat="43.56377" lon="11.747745"><ele>480.0</ele><time>2026-05-03T14:04:31.65Z</time></trkpt><trkpt lat="43.5636933" lon="11.7477"><ele>480.0</ele><time>2026-05-03T14:04:32.639Z</time></trkpt><trkpt lat="43.563625" lon="11.7476467"><ele>478.8</ele><time>2026-05-03T14:04:33.666Z</time></trkpt><trkpt lat="43.563555" lon="11.7475833"><ele>477.6</ele><time>2026-05-03T14:04:34.646Z</time></trkpt><trkpt lat="43.563485" lon="11.7475033"><ele>476.4</ele><time>2026-05-03T14:04:35.651Z</time></trkpt><trkpt lat="43.56342" lon="11.7474067"><ele>475.2</ele><time>2026-05-03T14:04:36.65Z</time></trkpt><trkpt lat="43.563365" lon="11.7472983"><ele>474.0</ele><time>2026-05-03T14:04:37.674Z</time></trkpt><trkpt lat="43.5633183" lon="11.7471683"><ele>474.0</ele><time>2026-05-03T14:04:38.652Z</time></trkpt><trkpt lat="43.563285" lon="11.74704"><ele>474.0</ele><time>2026-05-03T14:04:39.653Z</time></trkpt><trkpt lat="43.5632533" lon="11.7469117"><ele>474.0</ele><time>2026-05-03T14:04:40.647Z</time></trkpt><trkpt lat="43.5632217" lon="11.7467867"><ele>474.0</ele><time>2026-05-03T14:04:41.651Z</time></trkpt><trkpt lat="43.5631967" lon="11.746675"><ele>474.0</ele><time>2026-05-03T14:04:42.641Z</time></trkpt><trkpt lat="43.5631817" lon="11.746565"><ele>476.0</ele><time>2026-05-03T14:04:43.646Z</time></trkpt><trkpt lat="43.5631783" lon="11.7464733"><ele>478.0</ele><time>2026-05-03T14:04:44.65Z</time></trkpt><trkpt lat="43.5631967" lon="11.7463733"><ele>480.0</ele><time>2026-05-03T14:04:45.647Z</time></trkpt><trkpt lat="43.56322" lon="11.7462833"><ele>482.0</ele><time>2026-05-03T14:04:46.646Z</time></trkpt><trkpt lat="43.56326" lon="11.7461867"><ele>484.0</ele><time>2026-05-03T14:04:47.644Z</time></trkpt><trkpt lat="43.5632983" lon="11.7460683"><ele>486.0</ele><time>2026-05-03T14:04:48.642Z</time></trkpt><trkpt lat="43.5633233" lon="11.7459283"><ele>487.5</ele><time>2026-05-03T14:04:49.65Z</time></trkpt><trkpt lat="43.56334" lon="11.7457817"><ele>489.0</ele><time>2026-05-03T14:04:50.648Z</time></trkpt><trkpt lat="43.56336" lon="11.74561"><ele>490.5</ele><time>2026-05-03T14:04:51.644Z</time></trkpt><trkpt lat="43.5633883" lon="11.745425"><ele>492.0</ele><time>2026-05-03T14:04:52.656Z</time></trkpt><trkpt lat="43.56341" lon="11.7452383"><ele>490.5</ele><time>2026-05-03T14:04:53.652Z</time></trkpt><trkpt lat="43.5634333" lon="11.7450467"><ele>489.0</ele><time>2026-05-03T14:04:54.65Z</time></trkpt><trkpt lat="43.563445" lon="11.744855"><ele>487.5</ele><time>2026-05-03T14:04:55.668Z</time></trkpt><trkpt lat="43.5634517" lon="11.744675"><ele>486.0</ele><time>2026-05-03T14:04:56.647Z</time></trkpt><trkpt lat="43.5634567" lon="11.7444983"><ele>485.0</ele><time>2026-05-03T14:04:57.646Z</time></trkpt><trkpt lat="43.5634717" lon="11.7443233"><ele>484.0</ele><time>2026-05-03T14:04:58.642Z</time></trkpt><trkpt lat="43.563495" lon="11.744155"><ele>483.0</ele><time>2026-05-03T14:04:59.645Z</time></trkpt><trkpt lat="43.56352" lon="11.7440067"><ele>482.0</ele><time>2026-05-03T14:05:00.633Z</time></trkpt><trkpt lat="43.5635467" lon="11.7438717"><ele>482.0</ele><time>2026-05-03T14:05:01.646Z</time></trkpt><trkpt lat="43.5635667" lon="11.743745"><ele>482.00000000000006</ele><time>2026-05-03T14:05:02.643Z</time></trkpt><trkpt lat="43.56356" lon="11.743615"><ele>482.00000000000006</ele><time>2026-05-03T14:05:03.646Z</time></trkpt><trkpt lat="43.5635217" lon="11.7434967"><ele>482.0</ele><time>2026-05-03T14:05:04.642Z</time></trkpt><trkpt lat="43.5634667" lon="11.7433817"><ele>482.0</ele><time>2026-05-03T14:05:05.636Z</time></trkpt><trkpt lat="43.5634083" lon="11.7432667"><ele>482.6</ele><time>2026-05-03T14:05:06.642Z</time></trkpt><trkpt lat="43.5633667" lon="11.7431367"><ele>483.20000000000005</ele><time>2026-05-03T14:05:07.642Z</time></trkpt><trkpt lat="43.5633433" lon="11.74299"><ele>483.8</ele><time>2026-05-03T14:05:08.652Z</time></trkpt><trkpt lat="43.5633467" lon="11.7428333"><ele>484.4</ele><time>2026-05-03T14:05:09.648Z</time></trkpt><trkpt lat="43.56337" lon="11.7426833"><ele>485.0</ele><time>2026-05-03T14:05:10.641Z</time></trkpt><trkpt lat="43.5633983" lon="11.7425417"><ele>485.5</ele><time>2026-05-03T14:05:11.641Z</time></trkpt><trkpt lat="43.5634433" lon="11.742405"><ele>486.0</ele><time>2026-05-03T14:05:12.646Z</time></trkpt><trkpt lat="43.56351" lon="11.7422617"><ele>486.5</ele><time>2026-05-03T14:05:13.651Z</time></trkpt><trkpt lat="43.5636" lon="11.7421317"><ele>487.0</ele><time>2026-05-03T14:05:14.652Z</time></trkpt><trkpt lat="43.5636833" lon="11.7419783"><ele>490.0</ele><time>2026-05-03T14:05:15.649Z</time></trkpt><trkpt lat="43.5637633" lon="11.741805"><ele>493.0</ele><time>2026-05-03T14:05:16.646Z</time></trkpt><trkpt lat="43.563845" lon="11.741635"><ele>496.0</ele><time>2026-05-03T14:05:17.64Z</time></trkpt><trkpt lat="43.563915" lon="11.7414633"><ele>499.0</ele><time>2026-05-03T14:05:18.646Z</time></trkpt><trkpt lat="43.5639767" lon="11.74131"><ele>499.0</ele><time>2026-05-03T14:05:19.648Z</time></trkpt><trkpt lat="43.5640383" lon="11.741185"><ele>499.0</ele><time>2026-05-03T14:05:20.644Z</time></trkpt><trkpt lat="43.5640867" lon="11.7410717"><ele>499.0</ele><time>2026-05-03T14:05:21.663Z</time></trkpt><trkpt lat="43.5641267" lon="11.7409767"><ele>499.0</ele><time>2026-05-03T14:05:22.641Z</time></trkpt><trkpt lat="43.5641383" lon="11.7408783"><ele>499.0</ele><time>2026-05-03T14:05:23.64Z</time></trkpt><trkpt lat="43.564055" lon="11.7407717"><ele>498.00000000000006</ele><time>2026-05-03T14:05:25.64Z</time></trkpt><trkpt lat="43.5639917" lon="11.74076"><ele>497.0</ele><time>2026-05-03T14:05:26.647Z</time></trkpt><trkpt lat="43.563915" lon="11.74079"><ele>496.0</ele><time>2026-05-03T14:05:27.642Z</time></trkpt><trkpt lat="43.563835" lon="11.7408367"><ele>495.0</ele><time>2026-05-03T14:05:28.673Z</time></trkpt><trkpt lat="43.5637517" lon="11.7408983"><ele>494.00000000000006</ele><time>2026-05-03T14:05:29.644Z</time></trkpt><trkpt lat="43.5636633" lon="11.7409717"><ele>493.0</ele><time>2026-05-03T14:05:30.632Z</time></trkpt><trkpt lat="43.56357" lon="11.7410533"><ele>493.0</ele><time>2026-05-03T14:05:31.644Z</time></trkpt><trkpt lat="43.5634633" lon="11.7411267"><ele>493.0</ele><time>2026-05-03T14:05:32.651Z</time></trkpt><trkpt lat="43.5633617" lon="11.7411633"><ele>493.0</ele><time>2026-05-03T14:05:33.642Z</time></trkpt><trkpt lat="43.5632467" lon="11.7411833"><ele>493.0</ele><time>2026-05-03T14:05:34.667Z</time></trkpt><trkpt lat="43.56313" lon="11.74119"><ele>493.0</ele><time>2026-05-03T14:05:35.642Z</time></trkpt><trkpt lat="43.56301" lon="11.7411883"><ele>493.0</ele><time>2026-05-03T14:05:36.647Z</time></trkpt><trkpt lat="43.5628967" lon="11.74119"><ele>493.0</ele><time>2026-05-03T14:05:37.642Z</time></trkpt><trkpt lat="43.5627867" lon="11.7411783"><ele>493.0</ele><time>2026-05-03T14:05:38.665Z</time></trkpt><trkpt lat="43.5626733" lon="11.741165"><ele>492.0</ele><time>2026-05-03T14:05:39.649Z</time></trkpt><trkpt lat="43.562555" lon="11.74115"><ele>491.0</ele><time>2026-05-03T14:05:40.64Z</time></trkpt><trkpt lat="43.5624483" lon="11.741125"><ele>490.0</ele><time>2026-05-03T14:05:41.656Z</time></trkpt><trkpt lat="43.562335" lon="11.74107"><ele>489.0</ele><time>2026-05-03T14:05:42.651Z</time></trkpt><trkpt lat="43.56224" lon="11.7409883"><ele>494.25</ele><time>2026-05-03T14:05:43.657Z</time></trkpt><trkpt lat="43.5621367" lon="11.7409317"><ele>499.5</ele><time>2026-05-03T14:05:44.647Z</time></trkpt><trkpt lat="43.5620267" lon="11.7409017"><ele>504.75</ele><time>2026-05-03T14:05:45.646Z</time></trkpt><trkpt lat="43.5619033" lon="11.7409067"><ele>510.0</ele><time>2026-05-03T14:05:46.649Z</time></trkpt><trkpt lat="43.5617883" lon="11.7409133"><ele>510.0</ele><time>2026-05-03T14:05:47.656Z</time></trkpt><trkpt lat="43.5616533" lon="11.7409433"><ele>510.0</ele><time>2026-05-03T14:05:48.653Z</time></trkpt><trkpt lat="43.5615183" lon="11.7409617"><ele>510.0</ele><time>2026-05-03T14:05:49.67Z</time></trkpt><trkpt lat="43.56138" lon="11.7409583"><ele>510.0</ele><time>2026-05-03T14:05:50.644Z</time></trkpt><trkpt lat="43.5612467" lon="11.7409467"><ele>509.0</ele><time>2026-05-03T14:05:51.647Z</time></trkpt><trkpt lat="43.56112" lon="11.74093"><ele>508.0</ele><time>2026-05-03T14:05:52.654Z</time></trkpt><trkpt lat="43.5609967" lon="11.7409133"><ele>507.0</ele><time>2026-05-03T14:05:53.637Z</time></trkpt><trkpt lat="43.5608783" lon="11.740885"><ele>506.0</ele><time>2026-05-03T14:05:54.644Z</time></trkpt><trkpt lat="43.5607617" lon="11.7408567"><ele>506.0</ele><time>2026-05-03T14:05:55.645Z</time></trkpt><trkpt lat="43.56065" lon="11.7408417"><ele>506.0</ele><time>2026-05-03T14:05:56.646Z</time></trkpt><trkpt lat="43.560555" lon="11.740845"><ele>506.0</ele><time>2026-05-03T14:05:57.648Z</time></trkpt><trkpt lat="43.5604617" lon="11.740865"><ele>506.0</ele><time>2026-05-03T14:05:58.641Z</time></trkpt><trkpt lat="43.5603717" lon="11.7409133"><ele>506.0</ele><time>2026-05-03T14:05:59.638Z</time></trkpt><trkpt lat="43.5602983" lon="11.74095"><ele>506.6</ele><time>2026-05-03T14:06:00.637Z</time></trkpt><trkpt lat="43.5602233" lon="11.740975"><ele>507.20000000000005</ele><time>2026-05-03T14:06:01.641Z</time></trkpt><trkpt lat="43.5601467" lon="11.7409633"><ele>507.79999999999995</ele><time>2026-05-03T14:06:02.657Z</time></trkpt><trkpt lat="43.5600683" lon="11.7409117"><ele>508.4</ele><time>2026-05-03T14:06:03.64Z</time></trkpt><trkpt lat="43.5599917" lon="11.7408083"><ele>509.0</ele><time>2026-05-03T14:06:04.642Z</time></trkpt><trkpt lat="43.5599233" lon="11.7406983"><ele>508.99999999999994</ele><time>2026-05-03T14:06:05.65Z</time></trkpt><trkpt lat="43.559865" lon="11.7405983"><ele>509.0</ele><time>2026-05-03T14:06:06.642Z</time></trkpt><trkpt lat="43.55981" lon="11.7405283"><ele>509.0</ele><time>2026-05-03T14:06:07.652Z</time></trkpt><trkpt lat="43.559735" lon="11.74043"><ele>509.0</ele><time>2026-05-03T14:06:09.649Z</time></trkpt><trkpt lat="43.5597017" lon="11.7403483"><ele>508.99999999999994</ele><time>2026-05-03T14:06:11.638Z</time></trkpt><trkpt lat="43.559765" lon="11.7402833"><ele>509.0</ele><time>2026-05-03T14:06:19.65Z</time></trkpt><trkpt lat="43.55985" lon="11.7403333"><ele>509.0</ele><time>2026-05-03T14:06:21.649Z</time></trkpt><trkpt lat="43.559975" lon="11.74037"><ele>509.0</ele><time>2026-05-03T14:06:23.668Z</time></trkpt><trkpt lat="43.56006" lon="11.7403833"><ele>509.0</ele><time>2026-05-03T14:06:24.649Z</time></trkpt><trkpt lat="43.5601467" lon="11.74038"><ele>509.0</ele><time>2026-05-03T14:06:25.642Z</time></trkpt><trkpt lat="43.560245" lon="11.740365"><ele>509.0</ele><time>2026-05-03T14:06:26.651Z</time></trkpt><trkpt lat="43.5603533" lon="11.7403433"><ele>508.25</ele><time>2026-05-03T14:06:27.644Z</time></trkpt><trkpt lat="43.5604683" lon="11.74031"><ele>507.5</ele><time>2026-05-03T14:06:28.66Z</time></trkpt><trkpt lat="43.56059" lon="11.7402683"><ele>506.75</ele><time>2026-05-03T14:06:29.647Z</time></trkpt><trkpt lat="43.56071" lon="11.7402217"><ele>506.0</ele><time>2026-05-03T14:06:30.649Z</time></trkpt><trkpt lat="43.5608367" lon="11.740185"><ele>511.25</ele><time>2026-05-03T14:06:31.651Z</time></trkpt><trkpt lat="43.5609667" lon="11.7401517"><ele>516.5</ele><time>2026-05-03T14:06:32.65Z</time></trkpt><trkpt lat="43.5611" lon="11.7401117"><ele>521.75</ele><time>2026-05-03T14:06:33.662Z</time></trkpt><trkpt lat="43.561235" lon="11.74007"><ele>527.0</ele><time>2026-05-03T14:06:34.649Z</time></trkpt><trkpt lat="43.5613583" lon="11.7400533"><ele>528.75</ele><time>2026-05-03T14:06:35.636Z</time></trkpt><trkpt lat="43.5614833" lon="11.740055"><ele>530.5</ele><time>2026-05-03T14:06:36.657Z</time></trkpt><trkpt lat="43.5615983" lon="11.74009"><ele>532.25</ele><time>2026-05-03T14:06:37.652Z</time></trkpt><trkpt lat="43.5617083" lon="11.740145"><ele>534.0</ele><time>2026-05-03T14:06:38.661Z</time></trkpt><trkpt lat="43.5618117" lon="11.7401517"><ele>534.0</ele><time>2026-05-03T14:06:39.646Z</time></trkpt><trkpt lat="43.5619217" lon="11.7401167"><ele>534.0</ele><time>2026-05-03T14:06:40.65Z</time></trkpt><trkpt lat="43.5620267" lon="11.7400233"><ele>534.0</ele><time>2026-05-03T14:06:41.647Z</time></trkpt><trkpt lat="43.56214" lon="11.7398917"><ele>534.0</ele><time>2026-05-03T14:06:42.636Z</time></trkpt><trkpt lat="43.562265" lon="11.7397233"><ele>534.0</ele><time>2026-05-03T14:06:43.63Z</time></trkpt><trkpt lat="43.5623983" lon="11.7395667"><ele>534.0</ele><time>2026-05-03T14:06:44.646Z</time></trkpt><trkpt lat="43.5625283" lon="11.7394183"><ele>534.0</ele><time>2026-05-03T14:06:45.648Z</time></trkpt><trkpt lat="43.562665" lon="11.7392933"><ele>535.75</ele><time>2026-05-03T14:06:46.644Z</time></trkpt><trkpt lat="43.5627983" lon="11.7391983"><ele>537.5</ele><time>2026-05-03T14:06:47.644Z</time></trkpt><trkpt lat="43.5629433" lon="11.7391167"><ele>539.25</ele><time>2026-05-03T14:06:48.651Z</time></trkpt><trkpt lat="43.56307" lon="11.7390283"><ele>541.0</ele><time>2026-05-03T14:06:49.641Z</time></trkpt><trkpt lat="43.5631817" lon="11.7389083"><ele>541.0</ele><time>2026-05-03T14:06:50.66Z</time></trkpt><trkpt lat="43.563285" lon="11.7387633"><ele>541.0</ele><time>2026-05-03T14:06:51.651Z</time></trkpt><trkpt lat="43.5633783" lon="11.7386067"><ele>541.0</ele><time>2026-05-03T14:06:52.647Z</time></trkpt><trkpt lat="43.5634667" lon="11.7384533"><ele>541.0</ele><time>2026-05-03T14:06:53.647Z</time></trkpt><trkpt lat="43.5635533" lon="11.738305"><ele>544.0</ele><time>2026-05-03T14:06:54.644Z</time></trkpt><trkpt lat="43.5636567" lon="11.7381933"><ele>547.0</ele><time>2026-05-03T14:06:55.646Z</time></trkpt><trkpt lat="43.5637667" lon="11.73811"><ele>550.0</ele><time>2026-05-03T14:06:56.651Z</time></trkpt><trkpt lat="43.5638667" lon="11.7380633"><ele>553.0</ele><time>2026-05-03T14:06:57.65Z</time></trkpt><trkpt lat="43.56399" lon="11.738055"><ele>553.0</ele><time>2026-05-03T14:06:58.639Z</time></trkpt><trkpt lat="43.5641" lon="11.73804"><ele>553.0</ele><time>2026-05-03T14:06:59.641Z</time></trkpt><trkpt lat="43.564215" lon="11.7379917"><ele>553.0</ele><time>2026-05-03T14:07:00.645Z</time></trkpt><trkpt lat="43.5643183" lon="11.737905"><ele>553.0</ele><time>2026-05-03T14:07:01.643Z</time></trkpt><trkpt lat="43.5644117" lon="11.737785"><ele>556.25</ele><time>2026-05-03T14:07:02.659Z</time></trkpt><trkpt lat="43.5645017" lon="11.737635"><ele>559.5</ele><time>2026-05-03T14:07:03.644Z</time></trkpt><trkpt lat="43.564585" lon="11.73749"><ele>562.75</ele><time>2026-05-03T14:07:04.643Z</time></trkpt><trkpt lat="43.5646767" lon="11.7373367"><ele>566.0</ele><time>2026-05-03T14:07:05.648Z</time></trkpt><trkpt lat="43.5647683" lon="11.7371767"><ele>566.0</ele><time>2026-05-03T14:07:06.643Z</time></trkpt><trkpt lat="43.56486" lon="11.73701"><ele>566.0</ele><time>2026-05-03T14:07:07.676Z</time></trkpt><trkpt lat="43.56496" lon="11.7368467"><ele>566.0</ele><time>2026-05-03T14:07:08.646Z</time></trkpt><trkpt lat="43.56506" lon="11.736695"><ele>566.5</ele><time>2026-05-03T14:07:09.652Z</time></trkpt><trkpt lat="43.56516" lon="11.736565"><ele>567.0</ele><time>2026-05-03T14:07:10.643Z</time></trkpt><trkpt lat="43.5652583" lon="11.7364567"><ele>567.5</ele><time>2026-05-03T14:07:11.647Z</time></trkpt><trkpt lat="43.565375" lon="11.7363967"><ele>568.0</ele><time>2026-05-03T14:07:12.639Z</time></trkpt><trkpt lat="43.5655" lon="11.7363767"><ele>568.0</ele><time>2026-05-03T14:07:13.654Z</time></trkpt><trkpt lat="43.565625" lon="11.7363217"><ele>568.0</ele><time>2026-05-03T14:07:14.651Z</time></trkpt><trkpt lat="43.565735" lon="11.7362217"><ele>568.0</ele><time>2026-05-03T14:07:15.648Z</time></trkpt><trkpt lat="43.5658233" lon="11.73609"><ele>568.0</ele><time>2026-05-03T14:07:16.637Z</time></trkpt><trkpt lat="43.5658883" lon="11.735925"><ele>571.75</ele><time>2026-05-03T14:07:17.644Z</time></trkpt><trkpt lat="43.5659383" lon="11.7357317"><ele>575.5</ele><time>2026-05-03T14:07:18.647Z</time></trkpt><trkpt lat="43.5659917" lon="11.7355433"><ele>579.25</ele><time>2026-05-03T14:07:19.649Z</time></trkpt><trkpt lat="43.566045" lon="11.7353633"><ele>583.0</ele><time>2026-05-03T14:07:20.648Z</time></trkpt><trkpt lat="43.566115" lon="11.7352133"><ele>584.0</ele><time>2026-05-03T14:07:21.653Z</time></trkpt><trkpt lat="43.5662117" lon="11.73507"><ele>585.0</ele><time>2026-05-03T14:07:22.646Z</time></trkpt><trkpt lat="43.5663167" lon="11.73494"><ele>586.0</ele><time>2026-05-03T14:07:23.649Z</time></trkpt><trkpt lat="43.5664317" lon="11.7348233"><ele>587.0</ele><time>2026-05-03T14:07:24.649Z</time></trkpt><trkpt lat="43.566545" lon="11.734725"><ele>587.0</ele><time>2026-05-03T14:07:25.646Z</time></trkpt><trkpt lat="43.5666433" lon="11.734645"><ele>587.0</ele><time>2026-05-03T14:07:26.657Z</time></trkpt><trkpt lat="43.5667483" lon="11.7345967"><ele>587.0</ele><time>2026-05-03T14:07:27.653Z</time></trkpt><trkpt lat="43.56687" lon="11.7345717"><ele>587.0</ele><time>2026-05-03T14:07:28.644Z</time></trkpt><trkpt lat="43.5669917" lon="11.7345817"><ele>588.25</ele><time>2026-05-03T14:07:29.646Z</time></trkpt><trkpt lat="43.5671267" lon="11.7346067"><ele>589.5</ele><time>2026-05-03T14:07:30.652Z</time></trkpt><trkpt lat="43.5672617" lon="11.7346183"><ele>590.75</ele><time>2026-05-03T14:07:31.636Z</time></trkpt><trkpt lat="43.5673883" lon="11.7346067"><ele>592.0</ele><time>2026-05-03T14:07:32.654Z</time></trkpt><trkpt lat="43.5675167" lon="11.7345467"><ele>592.0</ele><time>2026-05-03T14:07:33.642Z</time></trkpt><trkpt lat="43.5676183" lon="11.7344417"><ele>592.0</ele><time>2026-05-03T14:07:34.652Z</time></trkpt><trkpt lat="43.5677133" lon="11.734305"><ele>592.0</ele><time>2026-05-03T14:07:35.645Z</time></trkpt><trkpt lat="43.5678117" lon="11.7341567"><ele>592.0</ele><time>2026-05-03T14:07:36.656Z</time></trkpt><trkpt lat="43.5679167" lon="11.7340067"><ele>591.5</ele><time>2026-05-03T14:07:37.64Z</time></trkpt><trkpt lat="43.568025" lon="11.7338467"><ele>591.0</ele><time>2026-05-03T14:07:38.649Z</time></trkpt><trkpt lat="43.5681233" lon="11.7337033"><ele>590.5</ele><time>2026-05-03T14:07:39.647Z</time></trkpt><trkpt lat="43.5682067" lon="11.7335617"><ele>590.0</ele><time>2026-05-03T14:07:40.639Z</time></trkpt><trkpt lat="43.5682883" lon="11.733435"><ele>593.25</ele><time>2026-05-03T14:07:41.651Z</time></trkpt><trkpt lat="43.5683767" lon="11.7333383"><ele>596.5</ele><time>2026-05-03T14:07:42.641Z</time></trkpt><trkpt lat="43.568475" lon="11.7332483"><ele>599.75</ele><time>2026-05-03T14:07:43.653Z</time></trkpt><trkpt lat="43.568585" lon="11.7331917"><ele>603.0</ele><time>2026-05-03T14:07:44.641Z</time></trkpt><trkpt lat="43.56871" lon="11.733175"><ele>603.0</ele><time>2026-05-03T14:07:45.645Z</time></trkpt><trkpt lat="43.5688283" lon="11.7331967"><ele>603.0</ele><time>2026-05-03T14:07:46.641Z</time></trkpt><trkpt lat="43.5689517" lon="11.7332183"><ele>603.0</ele><time>2026-05-03T14:07:47.648Z</time></trkpt><trkpt lat="43.56908" lon="11.733245"><ele>603.0</ele><time>2026-05-03T14:07:48.645Z</time></trkpt><trkpt lat="43.5692167" lon="11.7332617"><ele>603.0</ele><time>2026-05-03T14:07:49.65Z</time></trkpt><trkpt lat="43.5693567" lon="11.7332633"><ele>603.0</ele><time>2026-05-03T14:07:50.647Z</time></trkpt><trkpt lat="43.5695" lon="11.7332383"><ele>603.0</ele><time>2026-05-03T14:07:51.64Z</time></trkpt><trkpt lat="43.5696483" lon="11.733195"><ele>603.0</ele><time>2026-05-03T14:07:52.651Z</time></trkpt><trkpt lat="43.5698" lon="11.7331433"><ele>603.0</ele><time>2026-05-03T14:07:53.638Z</time></trkpt><trkpt lat="43.5699483" lon="11.73308"><ele>603.0</ele><time>2026-05-03T14:07:54.646Z</time></trkpt><trkpt lat="43.5701" lon="11.732995"><ele>603.0</ele><time>2026-05-03T14:07:55.634Z</time></trkpt><trkpt lat="43.570255" lon="11.732925"><ele>602.3333333333334</ele><time>2026-05-03T14:07:56.638Z</time></trkpt><trkpt lat="43.5704067" lon="11.73285"><ele>601.6666666666667</ele><time>2026-05-03T14:07:57.643Z</time></trkpt><trkpt lat="43.5705433" lon="11.7327683"><ele>601.0</ele><time>2026-05-03T14:07:58.656Z</time></trkpt><trkpt lat="43.5706767" lon="11.7326783"><ele>604.5</ele><time>2026-05-03T14:07:59.649Z</time></trkpt><trkpt lat="43.5708033" lon="11.7325917"><ele>608.0</ele><time>2026-05-03T14:08:00.673Z</time></trkpt><trkpt lat="43.5709167" lon="11.7324933"><ele>611.5</ele><time>2026-05-03T14:08:01.647Z</time></trkpt><trkpt lat="43.5710183" lon="11.7323583"><ele>615.0</ele><time>2026-05-03T14:08:02.654Z</time></trkpt><trkpt lat="43.571115" lon="11.7322183"><ele>615.25</ele><time>2026-05-03T14:08:03.647Z</time></trkpt><trkpt lat="43.5712217" lon="11.7320767"><ele>615.5</ele><time>2026-05-03T14:08:04.629Z</time></trkpt><trkpt lat="43.57134" lon="11.7319717"><ele>615.75</ele><time>2026-05-03T14:08:05.651Z</time></trkpt><trkpt lat="43.5714333" lon="11.731855"><ele>616.0</ele><time>2026-05-03T14:08:06.641Z</time></trkpt><trkpt lat="43.571505" lon="11.73171"><ele>617.25</ele><time>2026-05-03T14:08:07.64Z</time></trkpt><trkpt lat="43.571545" lon="11.73153"><ele>618.5</ele><time>2026-05-03T14:08:08.642Z</time></trkpt><trkpt lat="43.5715517" lon="11.7313433"><ele>619.75</ele><time>2026-05-03T14:08:09.649Z</time></trkpt><trkpt lat="43.5715517" lon="11.7311717"><ele>621.0</ele><time>2026-05-03T14:08:10.636Z</time></trkpt><trkpt lat="43.571565" lon="11.7310167"><ele>623.75</ele><time>2026-05-03T14:08:11.669Z</time></trkpt><trkpt lat="43.5716183" lon="11.7308717"><ele>626.5</ele><time>2026-05-03T14:08:12.646Z</time></trkpt><trkpt lat="43.5717067" lon="11.7307433"><ele>629.25</ele><time>2026-05-03T14:08:13.641Z</time></trkpt><trkpt lat="43.571785" lon="11.7306033"><ele>632.0</ele><time>2026-05-03T14:08:14.641Z</time></trkpt><trkpt lat="43.571825" lon="11.7304233"><ele>632.0</ele><time>2026-05-03T14:08:15.653Z</time></trkpt><trkpt lat="43.571845" lon="11.7302383"><ele>632.0</ele><time>2026-05-03T14:08:16.646Z</time></trkpt><trkpt lat="43.5718617" lon="11.7300683"><ele>632.0</ele><time>2026-05-03T14:08:17.642Z</time></trkpt><trkpt lat="43.5718967" lon="11.7298983"><ele>632.0</ele><time>2026-05-03T14:08:18.642Z</time></trkpt><trkpt lat="43.5719417" lon="11.7297283"><ele>632.25</ele><time>2026-05-03T14:08:19.635Z</time></trkpt><trkpt lat="43.572005" lon="11.7295867"><ele>632.5</ele><time>2026-05-03T14:08:20.658Z</time></trkpt><trkpt lat="43.5720983" lon="11.72947"><ele>632.75</ele><time>2026-05-03T14:08:21.655Z</time></trkpt><trkpt lat="43.5721767" lon="11.729355"><ele>633.0</ele><time>2026-05-03T14:08:22.643Z</time></trkpt><trkpt lat="43.5722567" lon="11.7292917"><ele>633.0</ele><time>2026-05-03T14:08:23.64Z</time></trkpt><trkpt lat="43.5723467" lon="11.72926"><ele>633.0</ele><time>2026-05-03T14:08:24.641Z</time></trkpt><trkpt lat="43.5724283" lon="11.7292633"><ele>633.0</ele><time>2026-05-03T14:08:25.63Z</time></trkpt><trkpt lat="43.5724967" lon="11.7293067"><ele>633.0</ele><time>2026-05-03T14:08:26.644Z</time></trkpt><trkpt lat="43.5725633" lon="11.7293717"><ele>633.0</ele><time>2026-05-03T14:08:27.647Z</time></trkpt><trkpt lat="43.5726117" lon="11.7294417"><ele>633.0</ele><time>2026-05-03T14:08:28.632Z</time></trkpt><trkpt lat="43.572645" lon="11.7295217"><ele>633.1999999999999</ele><time>2026-05-03T14:08:29.652Z</time></trkpt><trkpt lat="43.5726567" lon="11.7296133"><ele>633.4</ele><time>2026-05-03T14:08:30.665Z</time></trkpt><trkpt lat="43.5725967" lon="11.72973"><ele>633.5999999999999</ele><time>2026-05-03T14:08:31.644Z</time></trkpt><trkpt lat="43.5725383" lon="11.72984"><ele>633.8</ele><time>2026-05-03T14:08:32.673Z</time></trkpt><trkpt lat="43.5724667" lon="11.7299367"><ele>634.0</ele><time>2026-05-03T14:08:33.67Z</time></trkpt><trkpt lat="43.572405" lon="11.7300433"><ele>634.0</ele><time>2026-05-03T14:08:34.643Z</time></trkpt><trkpt lat="43.57234" lon="11.7301867"><ele>634.0</ele><time>2026-05-03T14:08:35.649Z</time></trkpt><trkpt lat="43.5722883" lon="11.7303417"><ele>634.0</ele><time>2026-05-03T14:08:36.644Z</time></trkpt><trkpt lat="43.5722717" lon="11.730495"><ele>634.0</ele><time>2026-05-03T14:08:37.659Z</time></trkpt><trkpt lat="43.5722867" lon="11.73066"><ele>636.5</ele><time>2026-05-03T14:08:38.647Z</time></trkpt><trkpt lat="43.57232" lon="11.73083"><ele>639.0</ele><time>2026-05-03T14:08:39.649Z</time></trkpt><trkpt lat="43.5723517" lon="11.731015"><ele>641.5</ele><time>2026-05-03T14:08:40.66Z</time></trkpt><trkpt lat="43.57237" lon="11.7312083"><ele>644.0</ele><time>2026-05-03T14:08:41.645Z</time></trkpt><trkpt lat="43.572375" lon="11.731405"><ele>645.0</ele><time>2026-05-03T14:08:42.667Z</time></trkpt><trkpt lat="43.572365" lon="11.7316017"><ele>646.0</ele><time>2026-05-03T14:08:43.646Z</time></trkpt><trkpt lat="43.5723467" lon="11.7318117"><ele>647.0</ele><time>2026-05-03T14:08:44.64Z</time></trkpt><trkpt lat="43.5723317" lon="11.732015"><ele>648.0</ele><time>2026-05-03T14:08:45.636Z</time></trkpt><trkpt lat="43.57231" lon="11.73221"><ele>648.8</ele><time>2026-05-03T14:08:46.644Z</time></trkpt><trkpt lat="43.5722817" lon="11.7323883"><ele>649.5999999999999</ele><time>2026-05-03T14:08:47.635Z</time></trkpt><trkpt lat="43.5722433" lon="11.7325267"><ele>650.4000000000001</ele><time>2026-05-03T14:08:48.641Z</time></trkpt><trkpt lat="43.5722283" lon="11.7326683"><ele>651.2</ele><time>2026-05-03T14:08:49.643Z</time></trkpt><trkpt lat="43.5722467" lon="11.7328033"><ele>652.0</ele><time>2026-05-03T14:08:50.63Z</time></trkpt><trkpt lat="43.5723" lon="11.7329183"><ele>652.0</ele><time>2026-05-03T14:08:51.654Z</time></trkpt><trkpt lat="43.5723583" lon="11.7330483"><ele>652.0</ele><time>2026-05-03T14:08:52.644Z</time></trkpt><trkpt lat="43.5723967" lon="11.7331833"><ele>652.0</ele><time>2026-05-03T14:08:53.647Z</time></trkpt><trkpt lat="43.57241" lon="11.7333383"><ele>652.0</ele><time>2026-05-03T14:08:54.646Z</time></trkpt><trkpt lat="43.572395" lon="11.7335033"><ele>652.0</ele><time>2026-05-03T14:08:55.648Z</time></trkpt><trkpt lat="43.5723633" lon="11.7336467"><ele>653.0</ele><time>2026-05-03T14:08:56.676Z</time></trkpt><trkpt lat="43.5723133" lon="11.7337667"><ele>654.0</ele><time>2026-05-03T14:08:57.633Z</time></trkpt><trkpt lat="43.572245" lon="11.7338533"><ele>655.0</ele><time>2026-05-03T14:08:58.647Z</time></trkpt><trkpt lat="43.5721633" lon="11.7339133"><ele>656.0</ele><time>2026-05-03T14:08:59.638Z</time></trkpt><trkpt lat="43.572065" lon="11.7339233"><ele>657.0</ele><time>2026-05-03T14:09:00.64Z</time></trkpt><trkpt lat="43.5719667" lon="11.733885"><ele>653.6666666666666</ele><time>2026-05-03T14:09:01.64Z</time></trkpt><trkpt lat="43.5718767" lon="11.73385"><ele>650.3333333333334</ele><time>2026-05-03T14:09:02.637Z</time></trkpt><trkpt lat="43.5717967" lon="11.733855"><ele>647.0</ele><time>2026-05-03T14:09:03.644Z</time></trkpt><trkpt lat="43.5717333" lon="11.73392"><ele>643.6666666666667</ele><time>2026-05-03T14:09:04.637Z</time></trkpt><trkpt lat="43.5717067" lon="11.7340383"><ele>640.3333333333334</ele><time>2026-05-03T14:09:05.657Z</time></trkpt><trkpt lat="43.5717083" lon="11.73417"><ele>637.0</ele><time>2026-05-03T14:09:06.653Z</time></trkpt><trkpt lat="43.5717367" lon="11.7343167"><ele>637.75</ele><time>2026-05-03T14:09:07.643Z</time></trkpt><trkpt lat="43.5717833" lon="11.7344767"><ele>638.5</ele><time>2026-05-03T14:09:08.662Z</time></trkpt><trkpt lat="43.57184" lon="11.7346367"><ele>639.25</ele><time>2026-05-03T14:09:09.647Z</time></trkpt><trkpt lat="43.5719167" lon="11.7347817"><ele>640.0</ele><time>2026-05-03T14:09:10.648Z</time></trkpt><trkpt lat="43.5719933" lon="11.734895"><ele>643.0</ele><time>2026-05-03T14:09:11.648Z</time></trkpt><trkpt lat="43.5720833" lon="11.73499"><ele>646.0</ele><time>2026-05-03T14:09:12.641Z</time></trkpt><trkpt lat="43.5721833" lon="11.7350933"><ele>649.0</ele><time>2026-05-03T14:09:13.658Z</time></trkpt><trkpt lat="43.5722967" lon="11.735185"><ele>652.0</ele><time>2026-05-03T14:09:14.669Z</time></trkpt><trkpt lat="43.5724067" lon="11.735285"><ele>652.0</ele><time>2026-05-03T14:09:15.663Z</time></trkpt><trkpt lat="43.5725233" lon="11.7354033"><ele>652.0</ele><time>2026-05-03T14:09:16.637Z</time></trkpt><trkpt lat="43.5726367" lon="11.73553"><ele>652.0</ele><time>2026-05-03T14:09:17.646Z</time></trkpt><trkpt lat="43.5727417" lon="11.7356733"><ele>652.0</ele><time>2026-05-03T14:09:18.644Z</time></trkpt><trkpt lat="43.5728333" lon="11.7358283"><ele>655.25</ele><time>2026-05-03T14:09:19.643Z</time></trkpt><trkpt lat="43.5729183" lon="11.7359983"><ele>658.5</ele><time>2026-05-03T14:09:20.644Z</time></trkpt><trkpt lat="43.572995" lon="11.73617"><ele>661.75</ele><time>2026-05-03T14:09:21.657Z</time></trkpt><trkpt lat="43.5730617" lon="11.7363367"><ele>665.0</ele><time>2026-05-03T14:09:22.644Z</time></trkpt><trkpt lat="43.5731417" lon="11.7364717"><ele>665.0</ele><time>2026-05-03T14:09:23.635Z</time></trkpt><trkpt lat="43.5732283" lon="11.7365933"><ele>665.0</ele><time>2026-05-03T14:09:24.664Z</time></trkpt><trkpt lat="43.5733183" lon="11.7366917"><ele>665.0</ele><time>2026-05-03T14:09:25.653Z</time></trkpt><trkpt lat="43.573385" lon="11.7368183"><ele>665.0</ele><time>2026-05-03T14:09:26.642Z</time></trkpt><trkpt lat="43.5734333" lon="11.7369517"><ele>665.6</ele><time>2026-05-03T14:09:27.653Z</time></trkpt><trkpt lat="43.57347" lon="11.7370967"><ele>666.2</ele><time>2026-05-03T14:09:28.648Z</time></trkpt><trkpt lat="43.5735017" lon="11.73725"><ele>666.8</ele><time>2026-05-03T14:09:29.645Z</time></trkpt><trkpt lat="43.5735283" lon="11.7374"><ele>667.4</ele><time>2026-05-03T14:09:30.649Z</time></trkpt><trkpt lat="43.5735417" lon="11.73755"><ele>668.0</ele><time>2026-05-03T14:09:31.649Z</time></trkpt><trkpt lat="43.573565" lon="11.7376933"><ele>669.2</ele><time>2026-05-03T14:09:32.645Z</time></trkpt><trkpt lat="43.5735767" lon="11.7378367"><ele>670.4</ele><time>2026-05-03T14:09:33.645Z</time></trkpt><trkpt lat="43.5735917" lon="11.7379717"><ele>671.6</ele><time>2026-05-03T14:09:34.641Z</time></trkpt><trkpt lat="43.5736017" lon="11.7381133"><ele>672.8000000000001</ele><time>2026-05-03T14:09:35.647Z</time></trkpt><trkpt lat="43.57362" lon="11.7382583"><ele>674.0</ele><time>2026-05-03T14:09:36.65Z</time></trkpt><trkpt lat="43.5736333" lon="11.7384067"><ele>675.0</ele><time>2026-05-03T14:09:37.647Z</time></trkpt><trkpt lat="43.5736533" lon="11.73857"><ele>676.0</ele><time>2026-05-03T14:09:38.648Z</time></trkpt><trkpt lat="43.5736817" lon="11.7387583"><ele>677.0</ele><time>2026-05-03T14:09:39.659Z</time></trkpt><trkpt lat="43.5737067" lon="11.7389517"><ele>678.0</ele><time>2026-05-03T14:09:40.642Z</time></trkpt><trkpt lat="43.573735" lon="11.73915"><ele>673.5</ele><time>2026-05-03T14:09:41.641Z</time></trkpt><trkpt lat="43.5737633" lon="11.7393317"><ele>669.0</ele><time>2026-05-03T14:09:42.651Z</time></trkpt><trkpt lat="43.5737883" lon="11.7395117"><ele>664.5</ele><time>2026-05-03T14:09:43.642Z</time></trkpt><trkpt lat="43.57381" lon="11.739695"><ele>660.0</ele><time>2026-05-03T14:09:44.649Z</time></trkpt><trkpt lat="43.573825" lon="11.739875"><ele>660.0</ele><time>2026-05-03T14:09:45.654Z</time></trkpt><trkpt lat="43.57383" lon="11.740065"><ele>660.0</ele><time>2026-05-03T14:09:46.653Z</time></trkpt><trkpt lat="43.5738217" lon="11.740235"><ele>660.0</ele><time>2026-05-03T14:09:47.666Z</time></trkpt><trkpt lat="43.5737983" lon="11.74039"><ele>660.0</ele><time>2026-05-03T14:09:48.645Z</time></trkpt><trkpt lat="43.573745" lon="11.7405233"><ele>662.2</ele><time>2026-05-03T14:09:49.645Z</time></trkpt><trkpt lat="43.5736767" lon="11.740635"><ele>664.4</ele><time>2026-05-03T14:09:50.637Z</time></trkpt><trkpt lat="43.5736017" lon="11.740735"><ele>666.5999999999999</ele><time>2026-05-03T14:09:51.649Z</time></trkpt><trkpt lat="43.5735267" lon="11.7408367"><ele>668.8</ele><time>2026-05-03T14:09:52.65Z</time></trkpt><trkpt lat="43.5734583" lon="11.74093"><ele>671.0</ele><time>2026-05-03T14:09:53.65Z</time></trkpt><trkpt lat="43.57342" lon="11.7410617"><ele>671.8</ele><time>2026-05-03T14:09:54.658Z</time></trkpt><trkpt lat="43.5733983" lon="11.7412"><ele>672.5999999999999</ele><time>2026-05-03T14:09:55.646Z</time></trkpt><trkpt lat="43.5733817" lon="11.74134"><ele>673.4</ele><time>2026-05-03T14:09:56.652Z</time></trkpt><trkpt lat="43.5733933" lon="11.7414683"><ele>674.2</ele><time>2026-05-03T14:09:57.64Z</time></trkpt><trkpt lat="43.5734183" lon="11.741585"><ele>675.0</ele><time>2026-05-03T14:09:58.648Z</time></trkpt><trkpt lat="43.573465" lon="11.7416967"><ele>675.0</ele><time>2026-05-03T14:09:59.649Z</time></trkpt><trkpt lat="43.573565" lon="11.7417833"><ele>675.0</ele><time>2026-05-03T14:10:00.648Z</time></trkpt><trkpt lat="43.5736667" lon="11.741855"><ele>675.0</ele><time>2026-05-03T14:10:01.647Z</time></trkpt><trkpt lat="43.5737783" lon="11.7419"><ele>675.0</ele><time>2026-05-03T14:10:02.674Z</time></trkpt><trkpt lat="43.5738833" lon="11.7419133"><ele>673.4</ele><time>2026-05-03T14:10:03.636Z</time></trkpt><trkpt lat="43.5739917" lon="11.7418867"><ele>671.8</ele><time>2026-05-03T14:10:04.645Z</time></trkpt><trkpt lat="43.57409" lon="11.74183"><ele>670.2</ele><time>2026-05-03T14:10:05.643Z</time></trkpt><trkpt lat="43.57419" lon="11.7417433"><ele>668.6</ele><time>2026-05-03T14:10:06.648Z</time></trkpt><trkpt lat="43.574285" lon="11.741655"><ele>667.0</ele><time>2026-05-03T14:10:07.65Z</time></trkpt><trkpt lat="43.57439" lon="11.7415433"><ele>667.0</ele><time>2026-05-03T14:10:08.646Z</time></trkpt><trkpt lat="43.5744967" lon="11.7414417"><ele>667.0</ele><time>2026-05-03T14:10:09.655Z</time></trkpt><trkpt lat="43.5746017" lon="11.7413433"><ele>667.0</ele><time>2026-05-03T14:10:10.65Z</time></trkpt><trkpt lat="43.5747133" lon="11.7412667"><ele>667.0</ele><time>2026-05-03T14:10:11.646Z</time></trkpt><trkpt lat="43.574835" lon="11.7412"><ele>669.5</ele><time>2026-05-03T14:10:12.647Z</time></trkpt><trkpt lat="43.5749633" lon="11.741175"><ele>672.0</ele><time>2026-05-03T14:10:13.642Z</time></trkpt><trkpt lat="43.5750933" lon="11.741145"><ele>674.5</ele><time>2026-05-03T14:10:14.657Z</time></trkpt><trkpt lat="43.5752183" lon="11.7411133"><ele>677.0</ele><time>2026-05-03T14:10:15.648Z</time></trkpt><trkpt lat="43.575335" lon="11.74109"><ele>677.4000000000001</ele><time>2026-05-03T14:10:16.637Z</time></trkpt><trkpt lat="43.57545" lon="11.7410817"><ele>677.8000000000001</ele><time>2026-05-03T14:10:17.644Z</time></trkpt><trkpt lat="43.575555" lon="11.7410483"><ele>678.2</ele><time>2026-05-03T14:10:18.649Z</time></trkpt><trkpt lat="43.57563" lon="11.7409767"><ele>678.6</ele><time>2026-05-03T14:10:19.645Z</time></trkpt><trkpt lat="43.57569" lon="11.74087"><ele>679.0</ele><time>2026-05-03T14:10:20.66Z</time></trkpt><trkpt lat="43.5757267" lon="11.740745"><ele>676.6</ele><time>2026-05-03T14:10:21.645Z</time></trkpt><trkpt lat="43.5757617" lon="11.7406233"><ele>674.2</ele><time>2026-05-03T14:10:22.648Z</time></trkpt><trkpt lat="43.5758183" lon="11.7405233"><ele>671.8000000000001</ele><time>2026-05-03T14:10:23.65Z</time></trkpt><trkpt lat="43.575895" lon="11.7404517"><ele>669.4000000000001</ele><time>2026-05-03T14:10:24.65Z</time></trkpt><trkpt lat="43.57599" lon="11.7404067"><ele>667.0</ele><time>2026-05-03T14:10:25.649Z</time></trkpt><trkpt lat="43.576075" lon="11.7403783"><ele>667.0</ele><time>2026-05-03T14:10:26.641Z</time></trkpt><trkpt lat="43.5761583" lon="11.74036"><ele>667.0</ele><time>2026-05-03T14:10:27.656Z</time></trkpt><trkpt lat="43.5762433" lon="11.7403583"><ele>667.0</ele><time>2026-05-03T14:10:28.648Z</time></trkpt><trkpt lat="43.5763283" lon="11.7403733"><ele>667.0</ele><time>2026-05-03T14:10:29.644Z</time></trkpt><trkpt lat="43.5764133" lon="11.740415"><ele>667.0</ele><time>2026-05-03T14:10:30.647Z</time></trkpt><trkpt lat="43.57649" lon="11.7404733"><ele>667.0</ele><time>2026-05-03T14:10:31.649Z</time></trkpt><trkpt lat="43.5765617" lon="11.7405167"><ele>668.0</ele><time>2026-05-03T14:10:32.65Z</time></trkpt><trkpt lat="43.576645" lon="11.74056"><ele>669.0</ele><time>2026-05-03T14:10:33.647Z</time></trkpt><trkpt lat="43.5767417" lon="11.7405717"><ele>670.0</ele><time>2026-05-03T14:10:34.654Z</time></trkpt><trkpt lat="43.57686" lon="11.740545"><ele>671.0</ele><time>2026-05-03T14:10:35.646Z</time></trkpt><trkpt lat="43.5769933" lon="11.7404667"><ele>671.5</ele><time>2026-05-03T14:10:36.668Z</time></trkpt><trkpt lat="43.577125" lon="11.74038"><ele>672.0</ele><time>2026-05-03T14:10:37.64Z</time></trkpt><trkpt lat="43.5772433" lon="11.7403333"><ele>672.5</ele><time>2026-05-03T14:10:38.647Z</time></trkpt><trkpt lat="43.5773533" lon="11.7403267"><ele>673.0</ele><time>2026-05-03T14:10:39.647Z</time></trkpt><trkpt lat="43.5774817" lon="11.7403633"><ele>673.0</ele><time>2026-05-03T14:10:40.646Z</time></trkpt><trkpt lat="43.5776017" lon="11.7404517"><ele>673.0</ele><time>2026-05-03T14:10:41.626Z</time></trkpt><trkpt lat="43.5777367" lon="11.7405533"><ele>673.0</ele><time>2026-05-03T14:10:42.649Z</time></trkpt><trkpt lat="43.5778783" lon="11.7406667"><ele>666.3333333333334</ele><time>2026-05-03T14:10:43.64Z</time></trkpt><trkpt lat="43.5780217" lon="11.7407783"><ele>659.6666666666666</ele><time>2026-05-03T14:10:44.65Z</time></trkpt><trkpt lat="43.5781617" lon="11.7408867"><ele>653.0</ele><time>2026-05-03T14:10:45.647Z</time></trkpt><trkpt lat="43.5782917" lon="11.7409983"><ele>658.5</ele><time>2026-05-03T14:10:46.654Z</time></trkpt><trkpt lat="43.5784167" lon="11.7411117"><ele>664.0</ele><time>2026-05-03T14:10:47.648Z</time></trkpt><trkpt lat="43.57853" lon="11.7411983"><ele>669.5</ele><time>2026-05-03T14:10:48.648Z</time></trkpt><trkpt lat="43.57864" lon="11.7412833"><ele>675.0</ele><time>2026-05-03T14:10:49.657Z</time></trkpt><trkpt lat="43.5787433" lon="11.7413467"><ele>675.0</ele><time>2026-05-03T14:10:50.655Z</time></trkpt><trkpt lat="43.5788583" lon="11.7413733"><ele>675.0</ele><time>2026-05-03T14:10:51.664Z</time></trkpt><trkpt lat="43.5789833" lon="11.74135"><ele>675.0</ele><time>2026-05-03T14:10:52.663Z</time></trkpt><trkpt lat="43.579115" lon="11.7413167"><ele>675.0</ele><time>2026-05-03T14:10:53.652Z</time></trkpt><trkpt lat="43.5792467" lon="11.7412917"><ele>675.0</ele><time>2026-05-03T14:10:54.647Z</time></trkpt><trkpt lat="43.5793867" lon="11.741275"><ele>675.0</ele><time>2026-05-03T14:10:55.641Z</time></trkpt><trkpt lat="43.5795267" lon="11.74129"><ele>675.0</ele><time>2026-05-03T14:10:56.646Z</time></trkpt><trkpt lat="43.5796667" lon="11.74133"><ele>675.0</ele><time>2026-05-03T14:10:57.642Z</time></trkpt><trkpt lat="43.5798117" lon="11.7413717"><ele>672.0</ele><time>2026-05-03T14:10:58.637Z</time></trkpt><trkpt lat="43.57995" lon="11.7414183"><ele>669.0</ele><time>2026-05-03T14:10:59.638Z</time></trkpt><trkpt lat="43.5800817" lon="11.7414667"><ele>666.0</ele><time>2026-05-03T14:11:00.647Z</time></trkpt><trkpt lat="43.5802" lon="11.7415233"><ele>663.0</ele><time>2026-05-03T14:11:01.636Z</time></trkpt><trkpt lat="43.58032" lon="11.7415967"><ele>661.5</ele><time>2026-05-03T14:11:02.668Z</time></trkpt><trkpt lat="43.5804383" lon="11.7416967"><ele>660.0</ele><time>2026-05-03T14:11:03.655Z</time></trkpt><trkpt lat="43.58055" lon="11.7418167"><ele>658.5</ele><time>2026-05-03T14:11:04.64Z</time></trkpt><trkpt lat="43.5806483" lon="11.7419533"><ele>657.0</ele><time>2026-05-03T14:11:05.651Z</time></trkpt><trkpt lat="43.5807333" lon="11.7421017"><ele>657.0</ele><time>2026-05-03T14:11:06.652Z</time></trkpt><trkpt lat="43.5808" lon="11.742255"><ele>657.0</ele><time>2026-05-03T14:11:07.649Z</time></trkpt><trkpt lat="43.580855" lon="11.7424117"><ele>657.0</ele><time>2026-05-03T14:11:08.651Z</time></trkpt><trkpt lat="43.5808983" lon="11.74257"><ele>657.0</ele><time>2026-05-03T14:11:09.64Z</time></trkpt><trkpt lat="43.5809217" lon="11.7427683"><ele>658.0</ele><time>2026-05-03T14:11:10.655Z</time></trkpt><trkpt lat="43.5809333" lon="11.742975"><ele>659.0</ele><time>2026-05-03T14:11:11.646Z</time></trkpt><trkpt lat="43.5809283" lon="11.7431917"><ele>660.0</ele><time>2026-05-03T14:11:12.669Z</time></trkpt><trkpt lat="43.580915" lon="11.743425"><ele>658.5</ele><time>2026-05-03T14:11:13.652Z</time></trkpt><trkpt lat="43.5809" lon="11.743625"><ele>657.0</ele><time>2026-05-03T14:11:14.652Z</time></trkpt><trkpt lat="43.5808917" lon="11.743815"><ele>655.5</ele><time>2026-05-03T14:11:15.669Z</time></trkpt><trkpt lat="43.5808767" lon="11.7439817"><ele>654.0</ele><time>2026-05-03T14:11:16.666Z</time></trkpt><trkpt lat="43.58085" lon="11.74414"><ele>654.0</ele><time>2026-05-03T14:11:17.685Z</time></trkpt><trkpt lat="43.5808" lon="11.7442867"><ele>654.0</ele><time>2026-05-03T14:11:18.649Z</time></trkpt><trkpt lat="43.5807283" lon="11.7444217"><ele>654.0</ele><time>2026-05-03T14:11:19.656Z</time></trkpt><trkpt lat="43.5806317" lon="11.7445417"><ele>654.0</ele><time>2026-05-03T14:11:20.646Z</time></trkpt><trkpt lat="43.5805183" lon="11.7446567"><ele>652.0</ele><time>2026-05-03T14:11:21.645Z</time></trkpt><trkpt lat="43.58042" lon="11.7447583"><ele>650.0</ele><time>2026-05-03T14:11:22.645Z</time></trkpt><trkpt lat="43.58036" lon="11.7448883"><ele>648.0</ele><time>2026-05-03T14:11:23.642Z</time></trkpt><trkpt lat="43.58033" lon="11.7450317"><ele>646.0</ele><time>2026-05-03T14:11:24.644Z</time></trkpt><trkpt lat="43.5803267" lon="11.74519"><ele>646.25</ele><time>2026-05-03T14:11:25.648Z</time></trkpt><trkpt lat="43.5803467" lon="11.7453467"><ele>646.5</ele><time>2026-05-03T14:11:26.66Z</time></trkpt><trkpt lat="43.58039" lon="11.7455083"><ele>646.75</ele><time>2026-05-03T14:11:27.643Z</time></trkpt><trkpt lat="43.5804417" lon="11.7456733"><ele>647.0</ele><time>2026-05-03T14:11:28.645Z</time></trkpt><trkpt lat="43.580495" lon="11.7458483"><ele>647.0</ele><time>2026-05-03T14:11:29.638Z</time></trkpt><trkpt lat="43.5805817" lon="11.7460183"><ele>647.0</ele><time>2026-05-03T14:11:30.646Z</time></trkpt><trkpt lat="43.5806767" lon="11.7461633"><ele>647.0</ele><time>2026-05-03T14:11:31.641Z</time></trkpt><trkpt lat="43.580785" lon="11.74629"><ele>647.0</ele><time>2026-05-03T14:11:32.648Z</time></trkpt><trkpt lat="43.5809017" lon="11.7463967"><ele>651.0</ele><time>2026-05-03T14:11:33.638Z</time></trkpt><trkpt lat="43.5810233" lon="11.746515"><ele>655.0</ele><time>2026-05-03T14:11:34.665Z</time></trkpt><trkpt lat="43.5811417" lon="11.7466283"><ele>659.0</ele><time>2026-05-03T14:11:35.647Z</time></trkpt><trkpt lat="43.5812617" lon="11.7467367"><ele>663.0</ele><time>2026-05-03T14:11:36.64Z</time></trkpt><trkpt lat="43.5813717" lon="11.7468517"><ele>657.8</ele><time>2026-05-03T14:11:37.63Z</time></trkpt><trkpt lat="43.5814683" lon="11.7469617"><ele>652.5999999999999</ele><time>2026-05-03T14:11:38.64Z</time></trkpt><trkpt lat="43.5815467" lon="11.7470783"><ele>647.4000000000001</ele><time>2026-05-03T14:11:39.646Z</time></trkpt><trkpt lat="43.5816083" lon="11.7471883"><ele>642.2</ele><time>2026-05-03T14:11:40.638Z</time></trkpt><trkpt lat="43.5816433" lon="11.7472917"><ele>637.0</ele><time>2026-05-03T14:11:41.674Z</time></trkpt><trkpt lat="43.58166" lon="11.747405"><ele>637.0</ele><time>2026-05-03T14:11:42.642Z</time></trkpt><trkpt lat="43.58163" lon="11.7475183"><ele>637.0</ele><time>2026-05-03T14:11:43.65Z</time></trkpt><trkpt lat="43.5815833" lon="11.7476317"><ele>637.0</ele><time>2026-05-03T14:11:44.648Z</time></trkpt><trkpt lat="43.5815033" lon="11.74772"><ele>637.0</ele><time>2026-05-03T14:11:45.637Z</time></trkpt><trkpt lat="43.581405" lon="11.7477733"><ele>637.0</ele><time>2026-05-03T14:11:46.645Z</time></trkpt><trkpt lat="43.5812867" lon="11.7477867"><ele>637.5</ele><time>2026-05-03T14:11:47.641Z</time></trkpt><trkpt lat="43.5811567" lon="11.747775"><ele>638.0</ele><time>2026-05-03T14:11:48.664Z</time></trkpt><trkpt lat="43.5810217" lon="11.7477467"><ele>638.5</ele><time>2026-05-03T14:11:49.636Z</time></trkpt><trkpt lat="43.580885" lon="11.74773"><ele>639.0</ele><time>2026-05-03T14:11:50.647Z</time></trkpt><trkpt lat="43.580755" lon="11.747725"><ele>639.0</ele><time>2026-05-03T14:11:51.647Z</time></trkpt><trkpt lat="43.58065" lon="11.74773"><ele>639.0</ele><time>2026-05-03T14:11:52.64Z</time></trkpt><trkpt lat="43.580555" lon="11.7477433"><ele>639.0</ele><time>2026-05-03T14:11:53.656Z</time></trkpt><trkpt lat="43.5804717" lon="11.7477817"><ele>639.0</ele><time>2026-05-03T14:11:54.637Z</time></trkpt><trkpt lat="43.5804217" lon="11.7478567"><ele>639.0</ele><time>2026-05-03T14:11:55.647Z</time></trkpt><trkpt lat="43.5804" lon="11.7479717"><ele>639.0</ele><time>2026-05-03T14:11:56.641Z</time></trkpt><trkpt lat="43.5804017" lon="11.748095"><ele>639.0</ele><time>2026-05-03T14:11:57.633Z</time></trkpt><trkpt lat="43.5804283" lon="11.748225"><ele>639.0</ele><time>2026-05-03T14:11:58.653Z</time></trkpt><trkpt lat="43.580475" lon="11.7483833"><ele>639.0</ele><time>2026-05-03T14:11:59.644Z</time></trkpt><trkpt lat="43.58052" lon="11.7485283"><ele>639.0</ele><time>2026-05-03T14:12:00.653Z</time></trkpt><trkpt lat="43.5805517" lon="11.7486733"><ele>639.0</ele><time>2026-05-03T14:12:01.65Z</time></trkpt><trkpt lat="43.580565" lon="11.748805"><ele>637.0</ele><time>2026-05-03T14:12:02.646Z</time></trkpt><trkpt lat="43.580545" lon="11.74893"><ele>635.0</ele><time>2026-05-03T14:12:03.649Z</time></trkpt><trkpt lat="43.580485" lon="11.7490633"><ele>633.0</ele><time>2026-05-03T14:12:04.647Z</time></trkpt><trkpt lat="43.5803967" lon="11.7491783"><ele>631.0</ele><time>2026-05-03T14:12:05.644Z</time></trkpt><trkpt lat="43.5802833" lon="11.749285"><ele>631.0</ele><time>2026-05-03T14:12:06.658Z</time></trkpt><trkpt lat="43.5801583" lon="11.7493667"><ele>631.0</ele><time>2026-05-03T14:12:07.638Z</time></trkpt><trkpt lat="43.5800317" lon="11.7494233"><ele>631.0</ele><time>2026-05-03T14:12:08.647Z</time></trkpt><trkpt lat="43.5799017" lon="11.749435"><ele>631.0</ele><time>2026-05-03T14:12:09.642Z</time></trkpt><trkpt lat="43.57976" lon="11.7494333"><ele>631.0</ele><time>2026-05-03T14:12:10.644Z</time></trkpt><trkpt lat="43.5796133" lon="11.7494217"><ele>631.0</ele><time>2026-05-03T14:12:11.676Z</time></trkpt><trkpt lat="43.5794667" lon="11.749405"><ele>631.0</ele><time>2026-05-03T14:12:12.646Z</time></trkpt><trkpt lat="43.5793333" lon="11.7493917"><ele>631.0</ele><time>2026-05-03T14:12:13.641Z</time></trkpt><trkpt lat="43.5792133" lon="11.7493767"><ele>632.0</ele><time>2026-05-03T14:12:14.646Z</time></trkpt><trkpt lat="43.579095" lon="11.749375"><ele>633.0</ele><time>2026-05-03T14:12:15.637Z</time></trkpt><trkpt lat="43.5789833" lon="11.7493983"><ele>634.0</ele><time>2026-05-03T14:12:16.655Z</time></trkpt><trkpt lat="43.578885" lon="11.749445"><ele>635.0</ele><time>2026-05-03T14:12:17.636Z</time></trkpt><trkpt lat="43.5788017" lon="11.74953"><ele>636.0</ele><time>2026-05-03T14:12:18.65Z</time></trkpt><trkpt lat="43.57873" lon="11.7496417"><ele>636.0</ele><time>2026-05-03T14:12:19.638Z</time></trkpt><trkpt lat="43.5786883" lon="11.7497817"><ele>636.0</ele><time>2026-05-03T14:12:20.657Z</time></trkpt><trkpt lat="43.5786817" lon="11.7499233"><ele>636.0</ele><time>2026-05-03T14:12:21.634Z</time></trkpt><trkpt lat="43.5787067" lon="11.7500483"><ele>636.0</ele><time>2026-05-03T14:12:22.642Z</time></trkpt><trkpt lat="43.5787633" lon="11.7501567"><ele>636.0</ele><time>2026-05-03T14:12:23.641Z</time></trkpt><trkpt lat="43.5788467" lon="11.7502683"><ele>635.25</ele><time>2026-05-03T14:12:24.649Z</time></trkpt><trkpt lat="43.5789333" lon="11.75039"><ele>634.5</ele><time>2026-05-03T14:12:25.642Z</time></trkpt><trkpt lat="43.5790033" lon="11.750525"><ele>633.75</ele><time>2026-05-03T14:12:26.647Z</time></trkpt><trkpt lat="43.5790517" lon="11.7506633"><ele>633.0</ele><time>2026-05-03T14:12:27.648Z</time></trkpt><trkpt lat="43.5790817" lon="11.7507983"><ele>633.0</ele><time>2026-05-03T14:12:28.644Z</time></trkpt><trkpt lat="43.579085" lon="11.7509233"><ele>633.0</ele><time>2026-05-03T14:12:29.649Z</time></trkpt><trkpt lat="43.5790567" lon="11.7510333"><ele>633.0</ele><time>2026-05-03T14:12:30.645Z</time></trkpt><trkpt lat="43.5789867" lon="11.7511333"><ele>633.0</ele><time>2026-05-03T14:12:31.648Z</time></trkpt><trkpt lat="43.5789133" lon="11.7512117"><ele>633.0</ele><time>2026-05-03T14:12:32.639Z</time></trkpt><trkpt lat="43.5788517" lon="11.7513083"><ele>632.1999999999999</ele><time>2026-05-03T14:12:33.645Z</time></trkpt><trkpt lat="43.57882" lon="11.751425"><ele>631.4</ele><time>2026-05-03T14:12:34.643Z</time></trkpt><trkpt lat="43.5788183" lon="11.7515433"><ele>630.5999999999999</ele><time>2026-05-03T14:12:35.647Z</time></trkpt><trkpt lat="43.5788733" lon="11.7516633"><ele>629.8</ele><time>2026-05-03T14:12:36.645Z</time></trkpt><trkpt lat="43.578935" lon="11.751775"><ele>629.0</ele><time>2026-05-03T14:12:37.644Z</time></trkpt><trkpt lat="43.5789817" lon="11.7518783"><ele>628.0</ele><time>2026-05-03T14:12:38.657Z</time></trkpt><trkpt lat="43.5790067" lon="11.75198"><ele>627.0</ele><time>2026-05-03T14:12:39.645Z</time></trkpt><trkpt lat="43.579" lon="11.7520867"><ele>626.0</ele><time>2026-05-03T14:12:40.641Z</time></trkpt><trkpt lat="43.5789533" lon="11.7521717"><ele>625.0</ele><time>2026-05-03T14:12:41.649Z</time></trkpt><trkpt lat="43.57887" lon="11.752225"><ele>624.0</ele><time>2026-05-03T14:12:42.643Z</time></trkpt><trkpt lat="43.5787617" lon="11.7522433"><ele>623.0</ele><time>2026-05-03T14:12:43.645Z</time></trkpt><trkpt lat="43.57865" lon="11.7522717"><ele>627.0</ele><time>2026-05-03T14:12:44.65Z</time></trkpt><trkpt lat="43.5785567" lon="11.7523417"><ele>631.0</ele><time>2026-05-03T14:12:45.64Z</time></trkpt><trkpt lat="43.5784933" lon="11.7524517"><ele>635.0</ele><time>2026-05-03T14:12:46.674Z</time></trkpt><trkpt lat="43.5784433" lon="11.7525967"><ele>639.0</ele><time>2026-05-03T14:12:47.635Z</time></trkpt><trkpt lat="43.5784117" lon="11.7527467"><ele>643.0</ele><time>2026-05-03T14:12:48.643Z</time></trkpt><trkpt lat="43.578375" lon="11.7528933"><ele>643.0</ele><time>2026-05-03T14:12:49.641Z</time></trkpt><trkpt lat="43.5783467" lon="11.753045"><ele>643.0</ele><time>2026-05-03T14:12:50.645Z</time></trkpt><trkpt lat="43.5783433" lon="11.7532017"><ele>643.0</ele><time>2026-05-03T14:12:51.641Z</time></trkpt><trkpt lat="43.5783717" lon="11.75337"><ele>643.0</ele><time>2026-05-03T14:12:52.657Z</time></trkpt><trkpt lat="43.5784" lon="11.75355"><ele>642.0</ele><time>2026-05-03T14:12:53.647Z</time></trkpt><trkpt lat="43.5784033" lon="11.7537283"><ele>641.0</ele><time>2026-05-03T14:12:54.648Z</time></trkpt><trkpt lat="43.578385" lon="11.75391"><ele>640.0</ele><time>2026-05-03T14:12:55.644Z</time></trkpt><trkpt lat="43.578335" lon="11.754075"><ele>639.0</ele><time>2026-05-03T14:12:56.641Z</time></trkpt><trkpt lat="43.5782967" lon="11.7542433"><ele>638.0</ele><time>2026-05-03T14:12:57.647Z</time></trkpt><trkpt lat="43.5782717" lon="11.7544083"><ele>637.0</ele><time>2026-05-03T14:12:58.65Z</time></trkpt><trkpt lat="43.5782667" lon="11.75456"><ele>636.0</ele><time>2026-05-03T14:12:59.645Z</time></trkpt><trkpt lat="43.5782983" lon="11.7547"><ele>635.0</ele><time>2026-05-03T14:13:00.665Z</time></trkpt><trkpt lat="43.5783533" lon="11.754835"><ele>635.0</ele><time>2026-05-03T14:13:01.636Z</time></trkpt><trkpt lat="43.5784017" lon="11.7549733"><ele>635.0</ele><time>2026-05-03T14:13:02.648Z</time></trkpt><trkpt lat="43.5784367" lon="11.7551333"><ele>635.0</ele><time>2026-05-03T14:13:03.644Z</time></trkpt><trkpt lat="43.5784583" lon="11.755305"><ele>635.0</ele><time>2026-05-03T14:13:04.644Z</time></trkpt><trkpt lat="43.57846" lon="11.7554867"><ele>634.5</ele><time>2026-05-03T14:13:05.658Z</time></trkpt><trkpt lat="43.5784583" lon="11.755655"><ele>634.0</ele><time>2026-05-03T14:13:06.642Z</time></trkpt><trkpt lat="43.57847" lon="11.7558317"><ele>633.5</ele><time>2026-05-03T14:13:07.647Z</time></trkpt><trkpt lat="43.5785117" lon="11.7559983"><ele>633.0</ele><time>2026-05-03T14:13:08.648Z</time></trkpt><trkpt lat="43.5785367" lon="11.75617"><ele>631.5</ele><time>2026-05-03T14:13:09.642Z</time></trkpt><trkpt lat="43.5785817" lon="11.7563367"><ele>630.0</ele><time>2026-05-03T14:13:10.649Z</time></trkpt><trkpt lat="43.5786067" lon="11.7565017"><ele>628.5</ele><time>2026-05-03T14:13:11.642Z</time></trkpt><trkpt lat="43.5786083" lon="11.7566633"><ele>627.0</ele><time>2026-05-03T14:13:12.65Z</time></trkpt><trkpt lat="43.57857" lon="11.7568183"><ele>625.6</ele><time>2026-05-03T14:13:13.637Z</time></trkpt><trkpt lat="43.57851" lon="11.756965"><ele>624.2</ele><time>2026-05-03T14:13:14.656Z</time></trkpt><trkpt lat="43.57846" lon="11.7571067"><ele>622.8</ele><time>2026-05-03T14:13:15.64Z</time></trkpt><trkpt lat="43.5784433" lon="11.7572533"><ele>621.4</ele><time>2026-05-03T14:13:16.644Z</time></trkpt><trkpt lat="43.578465" lon="11.757385"><ele>620.0</ele><time>2026-05-03T14:13:17.643Z</time></trkpt><trkpt lat="43.5785083" lon="11.7575083"><ele>620.0</ele><time>2026-05-03T14:13:18.647Z</time></trkpt><trkpt lat="43.5785733" lon="11.7576383"><ele>620.0</ele><time>2026-05-03T14:13:19.654Z</time></trkpt><trkpt lat="43.5786517" lon="11.75777"><ele>620.0</ele><time>2026-05-03T14:13:20.646Z</time></trkpt><trkpt lat="43.5787233" lon="11.757915"><ele>620.0</ele><time>2026-05-03T14:13:21.642Z</time></trkpt><trkpt lat="43.5787817" lon="11.75807"><ele>622.25</ele><time>2026-05-03T14:13:22.647Z</time></trkpt><trkpt lat="43.5788167" lon="11.7582367"><ele>624.5</ele><time>2026-05-03T14:13:23.652Z</time></trkpt><trkpt lat="43.5788267" lon="11.7584183"><ele>626.75</ele><time>2026-05-03T14:13:24.646Z</time></trkpt><trkpt lat="43.5788167" lon="11.758595"><ele>629.0</ele><time>2026-05-03T14:13:25.629Z</time></trkpt><trkpt lat="43.57878" lon="11.75877"><ele>629.0</ele><time>2026-05-03T14:13:26.657Z</time></trkpt><trkpt lat="43.5787267" lon="11.7589417"><ele>629.0</ele><time>2026-05-03T14:13:27.65Z</time></trkpt><trkpt lat="43.5786617" lon="11.7591067"><ele>629.0</ele><time>2026-05-03T14:13:28.632Z</time></trkpt><trkpt lat="43.5785817" lon="11.7592617"><ele>629.0</ele><time>2026-05-03T14:13:29.641Z</time></trkpt><trkpt lat="43.5785067" lon="11.759425"><ele>625.3333333333333</ele><time>2026-05-03T14:13:30.631Z</time></trkpt><trkpt lat="43.5784233" lon="11.7596017"><ele>621.6666666666666</ele><time>2026-05-03T14:13:31.637Z</time></trkpt><trkpt lat="43.5783483" lon="11.7597933"><ele>618.0</ele><time>2026-05-03T14:13:32.656Z</time></trkpt><trkpt lat="43.57827" lon="11.7599883"><ele>618.0</ele><time>2026-05-03T14:13:33.665Z</time></trkpt><trkpt lat="43.57819" lon="11.7601833"><ele>618.0</ele><time>2026-05-03T14:13:34.64Z</time></trkpt><trkpt lat="43.57811" lon="11.7603767"><ele>618.0</ele><time>2026-05-03T14:13:35.665Z</time></trkpt><trkpt lat="43.5780167" lon="11.76056"><ele>618.0</ele><time>2026-05-03T14:13:36.664Z</time></trkpt><trkpt lat="43.5779317" lon="11.7607333"><ele>618.0</ele><time>2026-05-03T14:13:37.638Z</time></trkpt><trkpt lat="43.5778417" lon="11.7608883"><ele>618.0</ele><time>2026-05-03T14:13:38.668Z</time></trkpt><trkpt lat="43.5777583" lon="11.7610433"><ele>618.0</ele><time>2026-05-03T14:13:39.642Z</time></trkpt><trkpt lat="43.5776583" lon="11.761155"><ele>615.5</ele><time>2026-05-03T14:13:40.632Z</time></trkpt><trkpt lat="43.5775633" lon="11.7612617"><ele>613.0</ele><time>2026-05-03T14:13:41.636Z</time></trkpt><trkpt lat="43.57748" lon="11.76137"><ele>610.5</ele><time>2026-05-03T14:13:42.642Z</time></trkpt><trkpt lat="43.5774233" lon="11.7614983"><ele>608.0</ele><time>2026-05-03T14:13:43.644Z</time></trkpt><trkpt lat="43.57739" lon="11.7616517"><ele>608.0</ele><time>2026-05-03T14:13:44.681Z</time></trkpt><trkpt lat="43.57738" lon="11.761815"><ele>608.0</ele><time>2026-05-03T14:13:45.658Z</time></trkpt><trkpt lat="43.5773683" lon="11.7619733"><ele>608.0</ele><time>2026-05-03T14:13:46.651Z</time></trkpt><trkpt lat="43.577355" lon="11.76212"><ele>608.0</ele><time>2026-05-03T14:13:47.649Z</time></trkpt><trkpt lat="43.5773483" lon="11.762255"><ele>608.0</ele><time>2026-05-03T14:13:48.653Z</time></trkpt><trkpt lat="43.5773433" lon="11.7623667"><ele>607.1666666666666</ele><time>2026-05-03T14:13:49.649Z</time></trkpt><trkpt lat="43.5773483" lon="11.7624683"><ele>606.3333333333333</ele><time>2026-05-03T14:13:50.683Z</time></trkpt><trkpt lat="43.5773717" lon="11.7625567"><ele>605.5</ele><time>2026-05-03T14:13:51.64Z</time></trkpt><trkpt lat="43.5774333" lon="11.7626117"><ele>604.6666666666666</ele><time>2026-05-03T14:13:52.649Z</time></trkpt><trkpt lat="43.57751" lon="11.7626217"><ele>603.8333333333334</ele><time>2026-05-03T14:13:53.636Z</time></trkpt><trkpt lat="43.577605" lon="11.7625467"><ele>603.0</ele><time>2026-05-03T14:13:54.661Z</time></trkpt><trkpt lat="43.5777033" lon="11.7624583"><ele>603.0</ele><time>2026-05-03T14:13:55.638Z</time></trkpt><trkpt lat="43.577785" lon="11.7623633"><ele>603.0</ele><time>2026-05-03T14:13:56.652Z</time></trkpt><trkpt lat="43.57783" lon="11.762245"><ele>603.0</ele><time>2026-05-03T14:13:57.645Z</time></trkpt><trkpt lat="43.5778683" lon="11.7621233"><ele>603.0</ele><time>2026-05-03T14:13:58.637Z</time></trkpt><trkpt lat="43.57792" lon="11.7620183"><ele>603.0</ele><time>2026-05-03T14:13:59.637Z</time></trkpt><trkpt lat="43.5779933" lon="11.7619417"><ele>600.4</ele><time>2026-05-03T14:14:00.639Z</time></trkpt><trkpt lat="43.57809" lon="11.7618933"><ele>597.8</ele><time>2026-05-03T14:14:01.643Z</time></trkpt><trkpt lat="43.5782017" lon="11.7618867"><ele>595.2</ele><time>2026-05-03T14:14:02.644Z</time></trkpt><trkpt lat="43.5783183" lon="11.7619067"><ele>592.6</ele><time>2026-05-03T14:14:03.647Z</time></trkpt><trkpt lat="43.5784317" lon="11.761905"><ele>590.0</ele><time>2026-05-03T14:14:04.641Z</time></trkpt><trkpt lat="43.57854" lon="11.76187"><ele>592.0</ele><time>2026-05-03T14:14:05.651Z</time></trkpt><trkpt lat="43.5786483" lon="11.7617433"><ele>594.0</ele><time>2026-05-03T14:14:06.644Z</time></trkpt><trkpt lat="43.5787317" lon="11.76165"><ele>596.0</ele><time>2026-05-03T14:14:07.646Z</time></trkpt><trkpt lat="43.5788167" lon="11.7615517"><ele>598.0</ele><time>2026-05-03T14:14:08.64Z</time></trkpt><trkpt lat="43.5789133" lon="11.7614867"><ele>598.0</ele><time>2026-05-03T14:14:09.653Z</time></trkpt><trkpt lat="43.5790217" lon="11.7614633"><ele>598.0</ele><time>2026-05-03T14:14:10.65Z</time></trkpt><trkpt lat="43.5791367" lon="11.76147"><ele>598.0</ele><time>2026-05-03T14:14:11.641Z</time></trkpt><trkpt lat="43.5792467" lon="11.761465"><ele>598.0</ele><time>2026-05-03T14:14:12.65Z</time></trkpt><trkpt lat="43.579355" lon="11.7614067"><ele>598.0</ele><time>2026-05-03T14:14:13.64Z</time></trkpt><trkpt lat="43.5794517" lon="11.7613217"><ele>598.0</ele><time>2026-05-03T14:14:14.661Z</time></trkpt><trkpt lat="43.5795433" lon="11.7612333"><ele>598.0</ele><time>2026-05-03T14:14:15.636Z</time></trkpt><trkpt lat="43.5796367" lon="11.7611783"><ele>598.0</ele><time>2026-05-03T14:14:16.642Z</time></trkpt><trkpt lat="43.5797317" lon="11.7611783"><ele>598.0</ele><time>2026-05-03T14:14:17.648Z</time></trkpt><trkpt lat="43.5798333" lon="11.7612267"><ele>596.5</ele><time>2026-05-03T14:14:18.653Z</time></trkpt><trkpt lat="43.5799233" lon="11.76132"><ele>595.0</ele><time>2026-05-03T14:14:19.644Z</time></trkpt><trkpt lat="43.58003" lon="11.76141"><ele>593.5</ele><time>2026-05-03T14:14:20.648Z</time></trkpt><trkpt lat="43.5801483" lon="11.7614667"><ele>592.0</ele><time>2026-05-03T14:14:21.643Z</time></trkpt><trkpt lat="43.5802817" lon="11.7615"><ele>592.25</ele><time>2026-05-03T14:14:22.641Z</time></trkpt><trkpt lat="43.5804183" lon="11.7615217"><ele>592.5</ele><time>2026-05-03T14:14:23.649Z</time></trkpt><trkpt lat="43.580545" lon="11.761535"><ele>592.75</ele><time>2026-05-03T14:14:24.641Z</time></trkpt><trkpt lat="43.5806683" lon="11.76156"><ele>593.0</ele><time>2026-05-03T14:14:25.651Z</time></trkpt><trkpt lat="43.5807883" lon="11.7615883"><ele>593.0</ele><time>2026-05-03T14:14:26.636Z</time></trkpt><trkpt lat="43.5809017" lon="11.7616183"><ele>593.0</ele><time>2026-05-03T14:14:27.637Z</time></trkpt><trkpt lat="43.5810083" lon="11.7616833"><ele>593.0</ele><time>2026-05-03T14:14:28.638Z</time></trkpt><trkpt lat="43.5811067" lon="11.7617733"><ele>593.0</ele><time>2026-05-03T14:14:29.644Z</time></trkpt><trkpt lat="43.5811917" lon="11.7618983"><ele>593.0</ele><time>2026-05-03T14:14:30.641Z</time></trkpt><trkpt lat="43.5812583" lon="11.7620467"><ele>593.0</ele><time>2026-05-03T14:14:31.639Z</time></trkpt><trkpt lat="43.5813217" lon="11.7621983"><ele>593.0</ele><time>2026-05-03T14:14:32.648Z</time></trkpt><trkpt lat="43.58138" lon="11.7623717"><ele>593.0</ele><time>2026-05-03T14:14:33.648Z</time></trkpt><trkpt lat="43.58144" lon="11.762545"><ele>591.5</ele><time>2026-05-03T14:14:34.648Z</time></trkpt><trkpt lat="43.5814733" lon="11.7627217"><ele>590.0</ele><time>2026-05-03T14:14:35.652Z</time></trkpt><trkpt lat="43.5814817" lon="11.7628967"><ele>588.5</ele><time>2026-05-03T14:14:36.635Z</time></trkpt><trkpt lat="43.5814767" lon="11.7630733"><ele>587.0</ele><time>2026-05-03T14:14:37.663Z</time></trkpt><trkpt lat="43.581475" lon="11.763255"><ele>587.0</ele><time>2026-05-03T14:14:38.637Z</time></trkpt><trkpt lat="43.58148" lon="11.7634183"><ele>587.0</ele><time>2026-05-03T14:14:39.644Z</time></trkpt><trkpt lat="43.58151" lon="11.7635783"><ele>587.0</ele><time>2026-05-03T14:14:40.652Z</time></trkpt><trkpt lat="43.5815667" lon="11.7637333"><ele>587.0</ele><time>2026-05-03T14:14:41.643Z</time></trkpt><trkpt lat="43.5816217" lon="11.7638917"><ele>585.0</ele><time>2026-05-03T14:14:42.64Z</time></trkpt><trkpt lat="43.58168" lon="11.7640667"><ele>583.0</ele><time>2026-05-03T14:14:43.641Z</time></trkpt><trkpt lat="43.581725" lon="11.7642533"><ele>581.0</ele><time>2026-05-03T14:14:44.65Z</time></trkpt><trkpt lat="43.58174" lon="11.7644567"><ele>579.0</ele><time>2026-05-03T14:14:45.644Z</time></trkpt><trkpt lat="43.5817433" lon="11.76464"><ele>576.25</ele><time>2026-05-03T14:14:46.649Z</time></trkpt><trkpt lat="43.5817667" lon="11.7648033"><ele>573.5</ele><time>2026-05-03T14:14:47.648Z</time></trkpt><trkpt lat="43.5818083" lon="11.7649567"><ele>570.75</ele><time>2026-05-03T14:14:48.647Z</time></trkpt><trkpt lat="43.5818817" lon="11.7650833"><ele>568.0</ele><time>2026-05-03T14:14:49.645Z</time></trkpt><trkpt lat="43.5819767" lon="11.7651817"><ele>569.8</ele><time>2026-05-03T14:14:50.644Z</time></trkpt><trkpt lat="43.5820733" lon="11.7652617"><ele>571.5999999999999</ele><time>2026-05-03T14:14:51.646Z</time></trkpt><trkpt lat="43.5821717" lon="11.76532"><ele>573.4000000000001</ele><time>2026-05-03T14:14:52.645Z</time></trkpt><trkpt lat="43.5822533" lon="11.765405"><ele>575.2</ele><time>2026-05-03T14:14:53.645Z</time></trkpt><trkpt lat="43.58232" lon="11.7655183"><ele>577.0</ele><time>2026-05-03T14:14:54.637Z</time></trkpt><trkpt lat="43.582355" lon="11.7656783"><ele>577.0</ele><time>2026-05-03T14:14:55.644Z</time></trkpt><trkpt lat="43.5823617" lon="11.76587"><ele>577.0</ele><time>2026-05-03T14:14:56.644Z</time></trkpt><trkpt lat="43.582375" lon="11.7660717"><ele>577.0</ele><time>2026-05-03T14:14:57.633Z</time></trkpt><trkpt lat="43.5824017" lon="11.766275"><ele>577.0</ele><time>2026-05-03T14:14:58.641Z</time></trkpt><trkpt lat="43.5824233" lon="11.766475"><ele>575.25</ele><time>2026-05-03T14:14:59.634Z</time></trkpt><trkpt lat="43.5824517" lon="11.766675"><ele>573.5</ele><time>2026-05-03T14:15:00.658Z</time></trkpt><trkpt lat="43.58247" lon="11.7668717"><ele>571.75</ele><time>2026-05-03T14:15:01.642Z</time></trkpt><trkpt lat="43.58249" lon="11.76705"><ele>570.0</ele><time>2026-05-03T14:15:02.644Z</time></trkpt><trkpt lat="43.58251" lon="11.767195"><ele>569.2</ele><time>2026-05-03T14:15:03.642Z</time></trkpt><trkpt lat="43.5825017" lon="11.767325"><ele>568.4</ele><time>2026-05-03T14:15:04.646Z</time></trkpt><trkpt lat="43.5824617" lon="11.7674367"><ele>567.6</ele><time>2026-05-03T14:15:05.659Z</time></trkpt><trkpt lat="43.5823917" lon="11.76753"><ele>566.8</ele><time>2026-05-03T14:15:06.643Z</time></trkpt><trkpt lat="43.5822967" lon="11.767585"><ele>566.0</ele><time>2026-05-03T14:15:07.648Z</time></trkpt><trkpt lat="43.58219" lon="11.767635"><ele>564.5</ele><time>2026-05-03T14:15:08.646Z</time></trkpt><trkpt lat="43.5820667" lon="11.767725"><ele>563.0</ele><time>2026-05-03T14:15:09.642Z</time></trkpt><trkpt lat="43.5819433" lon="11.7677883"><ele>561.5</ele><time>2026-05-03T14:15:10.659Z</time></trkpt><trkpt lat="43.581835" lon="11.76787"><ele>560.0</ele><time>2026-05-03T14:15:11.644Z</time></trkpt><trkpt lat="43.5817333" lon="11.76794"><ele>560.0</ele><time>2026-05-03T14:15:12.645Z</time></trkpt><trkpt lat="43.5816317" lon="11.76802"><ele>560.0</ele><time>2026-05-03T14:15:13.647Z</time></trkpt><trkpt lat="43.58154" lon="11.768125"><ele>560.0</ele><time>2026-05-03T14:15:14.65Z</time></trkpt><trkpt lat="43.5814517" lon="11.7682517"><ele>560.0</ele><time>2026-05-03T14:15:15.652Z</time></trkpt><trkpt lat="43.58138" lon="11.768385"><ele>561.25</ele><time>2026-05-03T14:15:16.645Z</time></trkpt><trkpt lat="43.58132" lon="11.7685317"><ele>562.5</ele><time>2026-05-03T14:15:17.639Z</time></trkpt><trkpt lat="43.5812733" lon="11.7686933"><ele>563.75</ele><time>2026-05-03T14:15:18.642Z</time></trkpt><trkpt lat="43.5812483" lon="11.7688667"><ele>565.0</ele><time>2026-05-03T14:15:19.645Z</time></trkpt><trkpt lat="43.5812683" lon="11.769205"><ele>563.25</ele><time>2026-05-03T14:15:21.67Z</time></trkpt><trkpt lat="43.581305" lon="11.7693717"><ele>561.5</ele><time>2026-05-03T14:15:22.657Z</time></trkpt><trkpt lat="43.5813367" lon="11.7695317"><ele>559.75</ele><time>2026-05-03T14:15:23.645Z</time></trkpt><trkpt lat="43.5813883" lon="11.76971"><ele>558.0</ele><time>2026-05-03T14:15:24.643Z</time></trkpt><trkpt lat="43.5814383" lon="11.7698933"><ele>558.0</ele><time>2026-05-03T14:15:25.641Z</time></trkpt><trkpt lat="43.5814867" lon="11.7700833"><ele>558.0</ele><time>2026-05-03T14:15:26.643Z</time></trkpt><trkpt lat="43.5815367" lon="11.77027"><ele>558.0</ele><time>2026-05-03T14:15:27.632Z</time></trkpt><trkpt lat="43.5815867" lon="11.7704533"><ele>558.0</ele><time>2026-05-03T14:15:28.659Z</time></trkpt><trkpt lat="43.5816417" lon="11.7706367"><ele>556.75</ele><time>2026-05-03T14:15:29.65Z</time></trkpt><trkpt lat="43.581705" lon="11.7708117"><ele>555.5</ele><time>2026-05-03T14:15:30.651Z</time></trkpt><trkpt lat="43.58178" lon="11.7709817"><ele>554.25</ele><time>2026-05-03T14:15:31.647Z</time></trkpt><trkpt lat="43.581875" lon="11.77114"><ele>553.0</ele><time>2026-05-03T14:15:32.641Z</time></trkpt><trkpt lat="43.5819783" lon="11.771285"><ele>553.0</ele><time>2026-05-03T14:15:33.653Z</time></trkpt><trkpt lat="43.582095" lon="11.7714083"><ele>553.0</ele><time>2026-05-03T14:15:34.645Z</time></trkpt><trkpt lat="43.5821983" lon="11.7715433"><ele>553.0</ele><time>2026-05-03T14:15:35.658Z</time></trkpt><trkpt lat="43.5823067" lon="11.77168"><ele>553.0</ele><time>2026-05-03T14:15:36.651Z</time></trkpt><trkpt lat="43.5824067" lon="11.771815"><ele>549.75</ele><time>2026-05-03T14:15:37.652Z</time></trkpt><trkpt lat="43.5825033" lon="11.7719367"><ele>546.5</ele><time>2026-05-03T14:15:38.652Z</time></trkpt><trkpt lat="43.5825867" lon="11.77206"><ele>543.25</ele><time>2026-05-03T14:15:39.653Z</time></trkpt><trkpt lat="43.5826567" lon="11.7721783"><ele>540.0</ele><time>2026-05-03T14:15:40.646Z</time></trkpt><trkpt lat="43.5827083" lon="11.7723183"><ele>540.0</ele><time>2026-05-03T14:15:41.637Z</time></trkpt><trkpt lat="43.5827233" lon="11.77249"><ele>540.0</ele><time>2026-05-03T14:15:42.658Z</time></trkpt><trkpt lat="43.582715" lon="11.772665"><ele>540.0</ele><time>2026-05-03T14:15:43.658Z</time></trkpt><trkpt lat="43.5827017" lon="11.772845"><ele>540.0</ele><time>2026-05-03T14:15:44.654Z</time></trkpt><trkpt lat="43.5826867" lon="11.7730167"><ele>538.25</ele><time>2026-05-03T14:15:45.654Z</time></trkpt><trkpt lat="43.5826733" lon="11.7731783"><ele>536.5</ele><time>2026-05-03T14:15:46.649Z</time></trkpt><trkpt lat="43.582665" lon="11.773345"><ele>534.75</ele><time>2026-05-03T14:15:47.646Z</time></trkpt><trkpt lat="43.5826783" lon="11.7735217"><ele>533.0</ele><time>2026-05-03T14:15:48.643Z</time></trkpt><trkpt lat="43.58272" lon="11.7737017"><ele>530.5</ele><time>2026-05-03T14:15:49.648Z</time></trkpt><trkpt lat="43.5827817" lon="11.7738717"><ele>528.0</ele><time>2026-05-03T14:15:50.645Z</time></trkpt><trkpt lat="43.5828483" lon="11.7740383"><ele>525.5</ele><time>2026-05-03T14:15:51.651Z</time></trkpt><trkpt lat="43.5829133" lon="11.774195"><ele>523.0</ele><time>2026-05-03T14:15:52.645Z</time></trkpt><trkpt lat="43.58298" lon="11.7743533"><ele>526.25</ele><time>2026-05-03T14:15:53.647Z</time></trkpt><trkpt lat="43.583025" lon="11.7745167"><ele>529.5</ele><time>2026-05-03T14:15:54.637Z</time></trkpt><trkpt lat="43.5830433" lon="11.77467"><ele>532.75</ele><time>2026-05-03T14:15:55.634Z</time></trkpt><trkpt lat="43.5830383" lon="11.7748267"><ele>536.0</ele><time>2026-05-03T14:15:56.642Z</time></trkpt><trkpt lat="43.58303" lon="11.774975"><ele>536.0</ele><time>2026-05-03T14:15:57.653Z</time></trkpt><trkpt lat="43.5830383" lon="11.7751333"><ele>536.0</ele><time>2026-05-03T14:15:58.647Z</time></trkpt><trkpt lat="43.5830817" lon="11.7752817"><ele>536.0</ele><time>2026-05-03T14:15:59.649Z</time></trkpt><trkpt lat="43.5831483" lon="11.7754167"><ele>536.0</ele><time>2026-05-03T14:16:00.648Z</time></trkpt><trkpt lat="43.5832333" lon="11.7755483"><ele>532.25</ele><time>2026-05-03T14:16:01.648Z</time></trkpt><trkpt lat="43.5833317" lon="11.7756783"><ele>528.5</ele><time>2026-05-03T14:16:02.637Z</time></trkpt><trkpt lat="43.58344" lon="11.775825"><ele>524.75</ele><time>2026-05-03T14:16:03.641Z</time></trkpt><trkpt lat="43.58355" lon="11.7759867"><ele>521.0</ele><time>2026-05-03T14:16:04.645Z</time></trkpt><trkpt lat="43.5836633" lon="11.7761417"><ele>521.25</ele><time>2026-05-03T14:16:05.65Z</time></trkpt><trkpt lat="43.58378" lon="11.776285"><ele>521.5</ele><time>2026-05-03T14:16:06.652Z</time></trkpt><trkpt lat="43.5838883" lon="11.776425"><ele>521.75</ele><time>2026-05-03T14:16:07.651Z</time></trkpt><trkpt lat="43.583985" lon="11.7765667"><ele>522.0</ele><time>2026-05-03T14:16:08.655Z</time></trkpt><trkpt lat="43.5840717" lon="11.77671"><ele>518.75</ele><time>2026-05-03T14:16:09.647Z</time></trkpt><trkpt lat="43.5841367" lon="11.77686"><ele>515.5</ele><time>2026-05-03T14:16:10.646Z</time></trkpt><trkpt lat="43.5841617" lon="11.7770083"><ele>512.25</ele><time>2026-05-03T14:16:11.643Z</time></trkpt><trkpt lat="43.5841583" lon="11.7771617"><ele>509.0</ele><time>2026-05-03T14:16:12.649Z</time></trkpt><trkpt lat="43.5841283" lon="11.7773067"><ele>509.0</ele><time>2026-05-03T14:16:13.64Z</time></trkpt><trkpt lat="43.5840867" lon="11.777445"><ele>509.0</ele><time>2026-05-03T14:16:14.647Z</time></trkpt><trkpt lat="43.5840433" lon="11.77758"><ele>509.0</ele><time>2026-05-03T14:16:15.642Z</time></trkpt><trkpt lat="43.58402" lon="11.777725"><ele>509.0</ele><time>2026-05-03T14:16:16.644Z</time></trkpt><trkpt lat="43.584035" lon="11.7778683"><ele>509.0</ele><time>2026-05-03T14:16:17.645Z</time></trkpt><trkpt lat="43.5840767" lon="11.7780233"><ele>507.0</ele><time>2026-05-03T14:16:18.643Z</time></trkpt><trkpt lat="43.5841317" lon="11.778185"><ele>505.0</ele><time>2026-05-03T14:16:19.641Z</time></trkpt><trkpt lat="43.5841883" lon="11.7783533"><ele>503.0</ele><time>2026-05-03T14:16:20.644Z</time></trkpt><trkpt lat="43.5842417" lon="11.7785267"><ele>501.0</ele><time>2026-05-03T14:16:21.647Z</time></trkpt><trkpt lat="43.58428" lon="11.7787083"><ele>500.6</ele><time>2026-05-03T14:16:22.655Z</time></trkpt><trkpt lat="43.5843017" lon="11.7788667"><ele>500.20000000000005</ele><time>2026-05-03T14:16:23.641Z</time></trkpt><trkpt lat="43.584315" lon="11.7790183"><ele>499.79999999999995</ele><time>2026-05-03T14:16:24.674Z</time></trkpt><trkpt lat="43.5843433" lon="11.7791633"><ele>499.4</ele><time>2026-05-03T14:16:25.64Z</time></trkpt><trkpt lat="43.584395" lon="11.7792967"><ele>499.0</ele><time>2026-05-03T14:16:26.646Z</time></trkpt><trkpt lat="43.5844717" lon="11.7794383"><ele>499.0</ele><time>2026-05-03T14:16:27.656Z</time></trkpt><trkpt lat="43.584555" lon="11.7795967"><ele>499.0</ele><time>2026-05-03T14:16:28.641Z</time></trkpt><trkpt lat="43.584645" lon="11.7797467"><ele>499.0</ele><time>2026-05-03T14:16:29.647Z</time></trkpt><trkpt lat="43.5847317" lon="11.7798867"><ele>499.0</ele><time>2026-05-03T14:16:30.644Z</time></trkpt><trkpt lat="43.5848033" lon="11.7800183"><ele>499.0</ele><time>2026-05-03T14:16:31.652Z</time></trkpt><trkpt lat="43.5848633" lon="11.780145"><ele>499.0</ele><time>2026-05-03T14:16:32.644Z</time></trkpt><trkpt lat="43.58491" lon="11.7802833"><ele>499.0</ele><time>2026-05-03T14:16:33.639Z</time></trkpt><trkpt lat="43.58494" lon="11.780435"><ele>499.0</ele><time>2026-05-03T14:16:34.652Z</time></trkpt><trkpt lat="43.5849567" lon="11.78059"><ele>499.0</ele><time>2026-05-03T14:16:35.637Z</time></trkpt><trkpt lat="43.5849667" lon="11.7807267"><ele>497.2</ele><time>2026-05-03T14:16:36.654Z</time></trkpt><trkpt lat="43.5850017" lon="11.7808583"><ele>495.4</ele><time>2026-05-03T14:16:37.643Z</time></trkpt><trkpt lat="43.58504" lon="11.7809667"><ele>493.6</ele><time>2026-05-03T14:16:38.653Z</time></trkpt><trkpt lat="43.5850967" lon="11.7810617"><ele>491.8</ele><time>2026-05-03T14:16:39.643Z</time></trkpt><trkpt lat="43.5851833" lon="11.7811417"><ele>490.0</ele><time>2026-05-03T14:16:40.644Z</time></trkpt><trkpt lat="43.5852817" lon="11.7812367"><ele>493.25</ele><time>2026-05-03T14:16:41.652Z</time></trkpt><trkpt lat="43.5853717" lon="11.78134"><ele>496.5</ele><time>2026-05-03T14:16:42.652Z</time></trkpt><trkpt lat="43.58545" lon="11.7814633"><ele>499.75</ele><time>2026-05-03T14:16:43.645Z</time></trkpt><trkpt lat="43.585515" lon="11.7816067"><ele>503.0</ele><time>2026-05-03T14:16:44.664Z</time></trkpt><trkpt lat="43.5855717" lon="11.7817633"><ele>499.25</ele><time>2026-05-03T14:16:45.654Z</time></trkpt><trkpt lat="43.5856283" lon="11.781925"><ele>495.5</ele><time>2026-05-03T14:16:46.638Z</time></trkpt><trkpt lat="43.5856883" lon="11.782085"><ele>491.75</ele><time>2026-05-03T14:16:47.649Z</time></trkpt><trkpt lat="43.58575" lon="11.7822367"><ele>488.0</ele><time>2026-05-03T14:16:48.641Z</time></trkpt><trkpt lat="43.585805" lon="11.7823933"><ele>488.0</ele><time>2026-05-03T14:16:49.634Z</time></trkpt><trkpt lat="43.5858583" lon="11.78254"><ele>488.0</ele><time>2026-05-03T14:16:50.642Z</time></trkpt><trkpt lat="43.5859183" lon="11.7826833"><ele>488.0</ele><time>2026-05-03T14:16:51.632Z</time></trkpt><trkpt lat="43.5860017" lon="11.7828033"><ele>488.0</ele><time>2026-05-03T14:16:52.637Z</time></trkpt><trkpt lat="43.5861067" lon="11.7829"><ele>486.5</ele><time>2026-05-03T14:16:53.647Z</time></trkpt><trkpt lat="43.586225" lon="11.782975"><ele>485.0</ele><time>2026-05-03T14:16:54.653Z</time></trkpt><trkpt lat="43.5863583" lon="11.7830483"><ele>483.5</ele><time>2026-05-03T14:16:55.645Z</time></trkpt><trkpt lat="43.5864983" lon="11.7831183"><ele>482.0</ele><time>2026-05-03T14:16:56.686Z</time></trkpt><trkpt lat="43.5866283" lon="11.7832083"><ele>482.0</ele><time>2026-05-03T14:16:57.652Z</time></trkpt><trkpt lat="43.58675" lon="11.7833033"><ele>482.0</ele><time>2026-05-03T14:16:58.641Z</time></trkpt><trkpt lat="43.5868433" lon="11.7834133"><ele>482.0</ele><time>2026-05-03T14:16:59.649Z</time></trkpt><trkpt lat="43.5869183" lon="11.7835417"><ele>482.0</ele><time>2026-05-03T14:17:00.644Z</time></trkpt><trkpt lat="43.5869933" lon="11.7836633"><ele>479.5</ele><time>2026-05-03T14:17:01.652Z</time></trkpt><trkpt lat="43.5870867" lon="11.7837617"><ele>477.0</ele><time>2026-05-03T14:17:02.648Z</time></trkpt><trkpt lat="43.58719" lon="11.78384"><ele>474.5</ele><time>2026-05-03T14:17:03.649Z</time></trkpt><trkpt lat="43.5872917" lon="11.783915"><ele>472.0</ele><time>2026-05-03T14:17:04.649Z</time></trkpt><trkpt lat="43.5873917" lon="11.7839867"><ele>472.0</ele><time>2026-05-03T14:17:05.644Z</time></trkpt><trkpt lat="43.58748" lon="11.7840783"><ele>472.00000000000006</ele><time>2026-05-03T14:17:06.658Z</time></trkpt><trkpt lat="43.5875567" lon="11.7841833"><ele>472.00000000000006</ele><time>2026-05-03T14:17:07.665Z</time></trkpt><trkpt lat="43.5876267" lon="11.7843067"><ele>472.0</ele><time>2026-05-03T14:17:08.667Z</time></trkpt><trkpt lat="43.5876883" lon="11.784425"><ele>472.0</ele><time>2026-05-03T14:17:09.641Z</time></trkpt><trkpt lat="43.5877517" lon="11.7845417"><ele>469.6</ele><time>2026-05-03T14:17:10.677Z</time></trkpt><trkpt lat="43.5878133" lon="11.7846583"><ele>467.20000000000005</ele><time>2026-05-03T14:17:11.649Z</time></trkpt><trkpt lat="43.58789" lon="11.7847583"><ele>464.8</ele><time>2026-05-03T14:17:12.648Z</time></trkpt><trkpt lat="43.58798" lon="11.7848467"><ele>462.4</ele><time>2026-05-03T14:17:13.643Z</time></trkpt><trkpt lat="43.5880817" lon="11.7849167"><ele>460.0</ele><time>2026-05-03T14:17:14.633Z</time></trkpt><trkpt lat="43.5881983" lon="11.784975"><ele>460.0</ele><time>2026-05-03T14:17:15.645Z</time></trkpt><trkpt lat="43.5883167" lon="11.78504"><ele>460.0</ele><time>2026-05-03T14:17:16.632Z</time></trkpt><trkpt lat="43.5884383" lon="11.7851"><ele>460.0</ele><time>2026-05-03T14:17:17.677Z</time></trkpt><trkpt lat="43.5885617" lon="11.7851617"><ele>460.0</ele><time>2026-05-03T14:17:18.654Z</time></trkpt><trkpt lat="43.58867" lon="11.78522"><ele>456.8</ele><time>2026-05-03T14:17:19.644Z</time></trkpt><trkpt lat="43.5887783" lon="11.7852783"><ele>453.6</ele><time>2026-05-03T14:17:20.65Z</time></trkpt><trkpt lat="43.5888867" lon="11.7853133"><ele>450.4</ele><time>2026-05-03T14:17:21.648Z</time></trkpt><trkpt lat="43.5889867" lon="11.7853217"><ele>447.2</ele><time>2026-05-03T14:17:22.66Z</time></trkpt><trkpt lat="43.589085" lon="11.7852733"><ele>444.0</ele><time>2026-05-03T14:17:23.646Z</time></trkpt><trkpt lat="43.5891733" lon="11.7851833"><ele>447.5</ele><time>2026-05-03T14:17:24.635Z</time></trkpt><trkpt lat="43.5892417" lon="11.7850533"><ele>451.0</ele><time>2026-05-03T14:17:25.649Z</time></trkpt><trkpt lat="43.5893083" lon="11.7848983"><ele>454.5</ele><time>2026-05-03T14:17:26.647Z</time></trkpt><trkpt lat="43.5893733" lon="11.78474"><ele>458.0</ele><time>2026-05-03T14:17:27.643Z</time></trkpt><trkpt lat="43.5894333" lon="11.7846033"><ele>458.0</ele><time>2026-05-03T14:17:28.65Z</time></trkpt><trkpt lat="43.5894967" lon="11.7844633"><ele>458.0</ele><time>2026-05-03T14:17:29.65Z</time></trkpt><trkpt lat="43.5895767" lon="11.7843417"><ele>458.0</ele><time>2026-05-03T14:17:30.646Z</time></trkpt><trkpt lat="43.589665" lon="11.784225"><ele>458.0</ele><time>2026-05-03T14:17:31.677Z</time></trkpt><trkpt lat="43.5897583" lon="11.7841117"><ele>455.0</ele><time>2026-05-03T14:17:32.65Z</time></trkpt><trkpt lat="43.589855" lon="11.78401"><ele>452.0</ele><time>2026-05-03T14:17:33.63Z</time></trkpt><trkpt lat="43.58997" lon="11.7839167"><ele>449.0</ele><time>2026-05-03T14:17:34.644Z</time></trkpt><trkpt lat="43.59009" lon="11.7838233"><ele>446.0</ele><time>2026-05-03T14:17:35.635Z</time></trkpt><trkpt lat="43.5901983" lon="11.7837417"><ele>446.0</ele><time>2026-05-03T14:17:36.655Z</time></trkpt><trkpt lat="43.590305" lon="11.7836683"><ele>446.0</ele><time>2026-05-03T14:17:37.644Z</time></trkpt><trkpt lat="43.590415" lon="11.7836033"><ele>446.0</ele><time>2026-05-03T14:17:38.638Z</time></trkpt><trkpt lat="43.5905167" lon="11.7835883"><ele>446.0</ele><time>2026-05-03T14:17:39.647Z</time></trkpt><trkpt lat="43.5906233" lon="11.7836033"><ele>446.0</ele><time>2026-05-03T14:17:40.641Z</time></trkpt><trkpt lat="43.59073" lon="11.783655"><ele>445.20000000000005</ele><time>2026-05-03T14:17:41.647Z</time></trkpt><trkpt lat="43.5908117" lon="11.783745"><ele>444.40000000000003</ele><time>2026-05-03T14:17:42.652Z</time></trkpt><trkpt lat="43.5908617" lon="11.783865"><ele>443.6</ele><time>2026-05-03T14:17:43.649Z</time></trkpt><trkpt lat="43.5908883" lon="11.7840067"><ele>442.8</ele><time>2026-05-03T14:17:44.651Z</time></trkpt><trkpt lat="43.5908733" lon="11.7841617"><ele>442.0</ele><time>2026-05-03T14:17:45.656Z</time></trkpt><trkpt lat="43.5908367" lon="11.7843217"><ele>439.5</ele><time>2026-05-03T14:17:46.66Z</time></trkpt><trkpt lat="43.59079" lon="11.7844817"><ele>437.0</ele><time>2026-05-03T14:17:47.645Z</time></trkpt><trkpt lat="43.5907517" lon="11.7846267"><ele>434.5</ele><time>2026-05-03T14:17:48.642Z</time></trkpt><trkpt lat="43.590705" lon="11.7847833"><ele>432.0</ele><time>2026-05-03T14:17:49.643Z</time></trkpt><trkpt lat="43.5906667" lon="11.7849283"><ele>432.0</ele><time>2026-05-03T14:17:50.653Z</time></trkpt><trkpt lat="43.5906383" lon="11.78506"><ele>432.00000000000006</ele><time>2026-05-03T14:17:51.637Z</time></trkpt><trkpt lat="43.5906333" lon="11.785195"><ele>432.00000000000006</ele><time>2026-05-03T14:17:52.654Z</time></trkpt><trkpt lat="43.5906583" lon="11.7853133"><ele>432.0</ele><time>2026-05-03T14:17:53.647Z</time></trkpt><trkpt lat="43.5907017" lon="11.7854167"><ele>432.0</ele><time>2026-05-03T14:17:54.644Z</time></trkpt><trkpt lat="43.5907783" lon="11.7854883"><ele>430.75</ele><time>2026-05-03T14:17:55.652Z</time></trkpt><trkpt lat="43.59087" lon="11.78553"><ele>429.5</ele><time>2026-05-03T14:17:56.652Z</time></trkpt><trkpt lat="43.5909683" lon="11.7855233"><ele>428.25</ele><time>2026-05-03T14:17:57.659Z</time></trkpt><trkpt lat="43.5910883" lon="11.7854433"><ele>427.0</ele><time>2026-05-03T14:17:58.645Z</time></trkpt><trkpt lat="43.5912" lon="11.7853567"><ele>426.75</ele><time>2026-05-03T14:17:59.651Z</time></trkpt><trkpt lat="43.591305" lon="11.78527"><ele>426.5</ele><time>2026-05-03T14:18:00.65Z</time></trkpt><trkpt lat="43.59142" lon="11.7851717"><ele>426.25</ele><time>2026-05-03T14:18:01.657Z</time></trkpt><trkpt lat="43.5915233" lon="11.7850667"><ele>426.0</ele><time>2026-05-03T14:18:02.645Z</time></trkpt><trkpt lat="43.5916233" lon="11.784975"><ele>426.0</ele><time>2026-05-03T14:18:03.631Z</time></trkpt><trkpt lat="43.5917217" lon="11.7848917"><ele>426.0</ele><time>2026-05-03T14:18:04.634Z</time></trkpt><trkpt lat="43.591825" lon="11.7848233"><ele>426.0</ele><time>2026-05-03T14:18:05.643Z</time></trkpt><trkpt lat="43.5919283" lon="11.7847817"><ele>426.0</ele><time>2026-05-03T14:18:06.645Z</time></trkpt><trkpt lat="43.5920317" lon="11.7847733"><ele>426.0</ele><time>2026-05-03T14:18:07.645Z</time></trkpt><trkpt lat="43.5921317" lon="11.784785"><ele>426.4</ele><time>2026-05-03T14:18:08.649Z</time></trkpt><trkpt lat="43.5922233" lon="11.7848167"><ele>426.8</ele><time>2026-05-03T14:18:09.646Z</time></trkpt><trkpt lat="43.5923133" lon="11.784865"><ele>427.19999999999993</ele><time>2026-05-03T14:18:10.676Z</time></trkpt><trkpt lat="43.5924017" lon="11.7849333"><ele>427.59999999999997</ele><time>2026-05-03T14:18:11.648Z</time></trkpt><trkpt lat="43.5924783" lon="11.785015"><ele>428.0</ele><time>2026-05-03T14:18:12.647Z</time></trkpt><trkpt lat="43.59254" lon="11.7851183"><ele>425.66666666666663</ele><time>2026-05-03T14:18:13.644Z</time></trkpt><trkpt lat="43.5925917" lon="11.7852233"><ele>423.3333333333333</ele><time>2026-05-03T14:18:14.644Z</time></trkpt><trkpt lat="43.592635" lon="11.7853283"><ele>421.0</ele><time>2026-05-03T14:18:15.645Z</time></trkpt><trkpt lat="43.5926833" lon="11.7854333"><ele>418.66666666666663</ele><time>2026-05-03T14:18:16.646Z</time></trkpt><trkpt lat="43.592735" lon="11.7855283"><ele>416.3333333333333</ele><time>2026-05-03T14:18:17.647Z</time></trkpt><trkpt lat="43.5927967" lon="11.785615"><ele>414.0</ele><time>2026-05-03T14:18:18.643Z</time></trkpt><trkpt lat="43.5928583" lon="11.785685"><ele>414.0</ele><time>2026-05-03T14:18:19.647Z</time></trkpt><trkpt lat="43.59293" lon="11.7857483"><ele>414.0</ele><time>2026-05-03T14:18:20.632Z</time></trkpt><trkpt lat="43.5930167" lon="11.7857917"><ele>414.0</ele><time>2026-05-03T14:18:21.641Z</time></trkpt><trkpt lat="43.593115" lon="11.78582"><ele>414.0</ele><time>2026-05-03T14:18:22.631Z</time></trkpt><trkpt lat="43.5932267" lon="11.78584"><ele>414.0</ele><time>2026-05-03T14:18:23.675Z</time></trkpt><trkpt lat="43.59334" lon="11.7858617"><ele>414.0</ele><time>2026-05-03T14:18:24.648Z</time></trkpt><trkpt lat="43.5934533" lon="11.7858967"><ele>414.0</ele><time>2026-05-03T14:18:25.644Z</time></trkpt><trkpt lat="43.593565" lon="11.7859417"><ele>414.0</ele><time>2026-05-03T14:18:26.647Z</time></trkpt><trkpt lat="43.593675" lon="11.7859783"><ele>414.0</ele><time>2026-05-03T14:18:27.651Z</time></trkpt><trkpt lat="43.593785" lon="11.7859983"><ele>412.75</ele><time>2026-05-03T14:18:28.634Z</time></trkpt><trkpt lat="43.5939017" lon="11.7860033"><ele>411.5</ele><time>2026-05-03T14:18:29.655Z</time></trkpt><trkpt lat="43.5940267" lon="11.785985"><ele>410.25</ele><time>2026-05-03T14:18:30.636Z</time></trkpt><trkpt lat="43.5941567" lon="11.7859667"><ele>409.0</ele><time>2026-05-03T14:18:31.651Z</time></trkpt><trkpt lat="43.59428" lon="11.785945"><ele>409.0</ele><time>2026-05-03T14:18:32.644Z</time></trkpt><trkpt lat="43.594405" lon="11.7859283"><ele>409.0</ele><time>2026-05-03T14:18:33.64Z</time></trkpt><trkpt lat="43.5945217" lon="11.7858867"><ele>409.0</ele><time>2026-05-03T14:18:34.644Z</time></trkpt><trkpt lat="43.594635" lon="11.78583"><ele>409.0</ele><time>2026-05-03T14:18:35.643Z</time></trkpt><trkpt lat="43.5947333" lon="11.7857517"><ele>405.0</ele><time>2026-05-03T14:18:36.66Z</time></trkpt><trkpt lat="43.5948317" lon="11.785665"><ele>401.0</ele><time>2026-05-03T14:18:37.648Z</time></trkpt><trkpt lat="43.59492" lon="11.7855667"><ele>397.0</ele><time>2026-05-03T14:18:38.647Z</time></trkpt><trkpt lat="43.595005" lon="11.7854867"><ele>393.0</ele><time>2026-05-03T14:18:39.644Z</time></trkpt><trkpt lat="43.5950817" lon="11.78542"><ele>389.0</ele><time>2026-05-03T14:18:40.654Z</time></trkpt><trkpt lat="43.5951517" lon="11.7853567"><ele>389.0</ele><time>2026-05-03T14:18:41.643Z</time></trkpt><trkpt lat="43.59521" lon="11.7852983"><ele>389.0</ele><time>2026-05-03T14:18:42.646Z</time></trkpt><trkpt lat="43.5952933" lon="11.7852133"><ele>389.0</ele><time>2026-05-03T14:18:44.642Z</time></trkpt><trkpt lat="43.5953817" lon="11.7851183"><ele>389.0</ele><time>2026-05-03T14:19:01.646Z</time></trkpt><trkpt lat="43.595495" lon="11.7850467"><ele>389.0</ele><time>2026-05-03T14:19:03.637Z</time></trkpt><trkpt lat="43.59556" lon="11.785035"><ele>388.2</ele><time>2026-05-03T14:19:04.635Z</time></trkpt><trkpt lat="43.5956467" lon="11.7851467"><ele>387.4</ele><time>2026-05-03T14:19:06.643Z</time></trkpt><trkpt lat="43.5956533" lon="11.78526"><ele>386.6</ele><time>2026-05-03T14:19:07.709Z</time></trkpt><trkpt lat="43.5956367" lon="11.7853767"><ele>385.8</ele><time>2026-05-03T14:19:08.67Z</time></trkpt><trkpt lat="43.595605" lon="11.78551"><ele>385.0</ele><time>2026-05-03T14:19:09.649Z</time></trkpt><trkpt lat="43.5955867" lon="11.7856567"><ele>385.0</ele><time>2026-05-03T14:19:10.651Z</time></trkpt><trkpt lat="43.5955833" lon="11.785805"><ele>385.0</ele><time>2026-05-03T14:19:11.647Z</time></trkpt><trkpt lat="43.59561" lon="11.785925"><ele>385.0</ele><time>2026-05-03T14:19:12.64Z</time></trkpt><trkpt lat="43.5956617" lon="11.786035"><ele>385.0</ele><time>2026-05-03T14:19:13.655Z</time></trkpt><trkpt lat="43.5957333" lon="11.7861033"><ele>385.0</ele><time>2026-05-03T14:19:14.642Z</time></trkpt><trkpt lat="43.595815" lon="11.7861367"><ele>385.0</ele><time>2026-05-03T14:19:15.653Z</time></trkpt><trkpt lat="43.5958933" lon="11.78613"><ele>385.0</ele><time>2026-05-03T14:19:16.647Z</time></trkpt><trkpt lat="43.5959783" lon="11.7860683"><ele>385.0</ele><time>2026-05-03T14:19:17.633Z</time></trkpt><trkpt lat="43.5960533" lon="11.7859417"><ele>385.0</ele><time>2026-05-03T14:19:18.634Z</time></trkpt><trkpt lat="43.5961317" lon="11.7858083"><ele>385.0</ele><time>2026-05-03T14:19:19.642Z</time></trkpt><trkpt lat="43.5962083" lon="11.785655"><ele>384.25</ele><time>2026-05-03T14:19:20.644Z</time></trkpt><trkpt lat="43.59629" lon="11.7855033"><ele>383.5</ele><time>2026-05-03T14:19:21.64Z</time></trkpt><trkpt lat="43.59638" lon="11.78534"><ele>382.75</ele><time>2026-05-03T14:19:22.673Z</time></trkpt><trkpt lat="43.5964833" lon="11.7851833"><ele>382.0</ele><time>2026-05-03T14:19:23.644Z</time></trkpt><trkpt lat="43.59659" lon="11.7850267"><ele>382.0</ele><time>2026-05-03T14:19:24.648Z</time></trkpt><trkpt lat="43.5966917" lon="11.7848683"><ele>382.0</ele><time>2026-05-03T14:19:25.648Z</time></trkpt><trkpt lat="43.5968" lon="11.784705"><ele>382.0</ele><time>2026-05-03T14:19:26.648Z</time></trkpt><trkpt lat="43.5969017" lon="11.7845617"><ele>380.0</ele><time>2026-05-03T14:19:27.656Z</time></trkpt><trkpt lat="43.5970067" lon="11.7844333"><ele>378.0</ele><time>2026-05-03T14:19:28.653Z</time></trkpt><trkpt lat="43.59711" lon="11.7843183"><ele>376.0</ele><time>2026-05-03T14:19:29.643Z</time></trkpt><trkpt lat="43.5972117" lon="11.784225"><ele>374.0</ele><time>2026-05-03T14:19:30.648Z</time></trkpt><trkpt lat="43.5973233" lon="11.7841517"><ele>374.0</ele><time>2026-05-03T14:19:31.649Z</time></trkpt><trkpt lat="43.597435" lon="11.7840833"><ele>374.0</ele><time>2026-05-03T14:19:32.654Z</time></trkpt><trkpt lat="43.5975317" lon="11.783995"><ele>374.0</ele><time>2026-05-03T14:19:33.642Z</time></trkpt><trkpt lat="43.597595" lon="11.7838833"><ele>374.0</ele><time>2026-05-03T14:19:34.656Z</time></trkpt><trkpt lat="43.597615" lon="11.7837533"><ele>374.0</ele><time>2026-05-03T14:19:35.64Z</time></trkpt><trkpt lat="43.5976133" lon="11.783615"><ele>375.79999999999995</ele><time>2026-05-03T14:19:36.646Z</time></trkpt><trkpt lat="43.5975967" lon="11.7834683"><ele>377.59999999999997</ele><time>2026-05-03T14:19:37.648Z</time></trkpt><trkpt lat="43.59758" lon="11.7833267"><ele>379.4</ele><time>2026-05-03T14:19:38.644Z</time></trkpt><trkpt lat="43.59758" lon="11.783195"><ele>381.2</ele><time>2026-05-03T14:19:39.683Z</time></trkpt><trkpt lat="43.5975933" lon="11.7830817"><ele>383.0</ele><time>2026-05-03T14:19:40.641Z</time></trkpt><trkpt lat="43.5976317" lon="11.782985"><ele>383.0</ele><time>2026-05-03T14:19:41.646Z</time></trkpt><trkpt lat="43.5977017" lon="11.7829517"><ele>383.0</ele><time>2026-05-03T14:19:42.641Z</time></trkpt><trkpt lat="43.5977733" lon="11.7829617"><ele>383.0</ele><time>2026-05-03T14:19:43.633Z</time></trkpt><trkpt lat="43.5978367" lon="11.78304"><ele>383.0</ele><time>2026-05-03T14:19:44.647Z</time></trkpt><trkpt lat="43.5979" lon="11.7831367"><ele>383.0</ele><time>2026-05-03T14:19:45.64Z</time></trkpt><trkpt lat="43.5979467" lon="11.78326"><ele>383.0</ele><time>2026-05-03T14:19:46.675Z</time></trkpt><trkpt lat="43.5979733" lon="11.783425"><ele>380.75</ele><time>2026-05-03T14:19:47.64Z</time></trkpt><trkpt lat="43.59799" lon="11.7835933"><ele>378.5</ele><time>2026-05-03T14:19:48.648Z</time></trkpt><trkpt lat="43.5980067" lon="11.7837517"><ele>376.25</ele><time>2026-05-03T14:19:49.637Z</time></trkpt><trkpt lat="43.5980317" lon="11.7839167"><ele>374.0</ele><time>2026-05-03T14:19:50.645Z</time></trkpt><trkpt lat="43.5980667" lon="11.7840633"><ele>374.0</ele><time>2026-05-03T14:19:51.652Z</time></trkpt><trkpt lat="43.5981183" lon="11.7842033"><ele>374.0</ele><time>2026-05-03T14:19:52.657Z</time></trkpt><trkpt lat="43.598205" lon="11.7843267"><ele>374.0</ele><time>2026-05-03T14:19:53.649Z</time></trkpt><trkpt lat="43.5983083" lon="11.7844367"><ele>374.0</ele><time>2026-05-03T14:19:54.733Z</time></trkpt><trkpt lat="43.5984267" lon="11.78454"><ele>371.25</ele><time>2026-05-03T14:19:55.663Z</time></trkpt><trkpt lat="43.5985467" lon="11.7846367"><ele>368.5</ele><time>2026-05-03T14:19:56.662Z</time></trkpt><trkpt lat="43.5986667" lon="11.7847267"><ele>365.75</ele><time>2026-05-03T14:19:57.677Z</time></trkpt><trkpt lat="43.59878" lon="11.78482"><ele>363.0</ele><time>2026-05-03T14:19:58.647Z</time></trkpt><trkpt lat="43.5988883" lon="11.78492"><ele>363.0</ele><time>2026-05-03T14:19:59.635Z</time></trkpt><trkpt lat="43.5989833" lon="11.7850267"><ele>363.0</ele><time>2026-05-03T14:20:00.647Z</time></trkpt><trkpt lat="43.599065" lon="11.7851583"><ele>363.0</ele><time>2026-05-03T14:20:01.653Z</time></trkpt><trkpt lat="43.5991367" lon="11.7852967"><ele>363.0</ele><time>2026-05-03T14:20:02.647Z</time></trkpt><trkpt lat="43.5992067" lon="11.7854483"><ele>361.0</ele><time>2026-05-03T14:20:03.639Z</time></trkpt><trkpt lat="43.5992867" lon="11.785615"><ele>359.0</ele><time>2026-05-03T14:20:04.648Z</time></trkpt><trkpt lat="43.5993617" lon="11.785765"><ele>357.0</ele><time>2026-05-03T14:20:05.649Z</time></trkpt><trkpt lat="43.5994333" lon="11.785925"><ele>355.0</ele><time>2026-05-03T14:20:06.649Z</time></trkpt><trkpt lat="43.5995167" lon="11.7860833"><ele>354.5</ele><time>2026-05-03T14:20:07.646Z</time></trkpt><trkpt lat="43.5995917" lon="11.7862583"><ele>354.0</ele><time>2026-05-03T14:20:08.645Z</time></trkpt><trkpt lat="43.59967" lon="11.7864183"><ele>353.5</ele><time>2026-05-03T14:20:09.647Z</time></trkpt><trkpt lat="43.5997517" lon="11.7865667"><ele>353.0</ele><time>2026-05-03T14:20:10.646Z</time></trkpt><trkpt lat="43.5998267" lon="11.7867333"><ele>352.5</ele><time>2026-05-03T14:20:11.638Z</time></trkpt><trkpt lat="43.5999033" lon="11.7869017"><ele>352.0</ele><time>2026-05-03T14:20:12.643Z</time></trkpt><trkpt lat="43.5999733" lon="11.7870567"><ele>351.5</ele><time>2026-05-03T14:20:13.637Z</time></trkpt><trkpt lat="43.60004" lon="11.7872167"><ele>351.0</ele><time>2026-05-03T14:20:14.641Z</time></trkpt><trkpt lat="43.6001083" lon="11.787365"><ele>351.0</ele><time>2026-05-03T14:20:15.644Z</time></trkpt><trkpt lat="43.6001817" lon="11.7874867"><ele>351.0</ele><time>2026-05-03T14:20:16.645Z</time></trkpt><trkpt lat="43.60025" lon="11.7875917"><ele>351.0</ele><time>2026-05-03T14:20:17.65Z</time></trkpt><trkpt lat="43.6003117" lon="11.7876633"><ele>351.0</ele><time>2026-05-03T14:20:18.652Z</time></trkpt><trkpt lat="43.60037" lon="11.7877017"><ele>351.0</ele><time>2026-05-03T14:20:19.639Z</time></trkpt><trkpt lat="43.600465" lon="11.7877433"><ele>351.0</ele><time>2026-05-03T14:20:21.646Z</time></trkpt><trkpt lat="43.600565" lon="11.7877467"><ele>351.0</ele><time>2026-05-03T14:20:23.643Z</time></trkpt><trkpt lat="43.60068" lon="11.7877283"><ele>351.0</ele><time>2026-05-03T14:20:25.649Z</time></trkpt><trkpt lat="43.6007417" lon="11.7877083"><ele>351.0</ele><time>2026-05-03T14:20:26.636Z</time></trkpt><trkpt lat="43.6008183" lon="11.7877"><ele>351.0</ele><time>2026-05-03T14:20:27.653Z</time></trkpt><trkpt lat="43.6009017" lon="11.7877"><ele>351.0</ele><time>2026-05-03T14:20:28.648Z</time></trkpt><trkpt lat="43.6009833" lon="11.78769"><ele>351.0</ele><time>2026-05-03T14:20:29.633Z</time></trkpt><trkpt lat="43.6010517" lon="11.7876833"><ele>351.0</ele><time>2026-05-03T14:20:30.646Z</time></trkpt><trkpt lat="43.6011167" lon="11.7876817"><ele>351.0</ele><time>2026-05-03T14:20:31.642Z</time></trkpt><trkpt lat="43.60121" lon="11.7877167"><ele>351.0</ele><time>2026-05-03T14:20:33.636Z</time></trkpt><trkpt lat="43.6012083" lon="11.7878483"><ele>351.0</ele><time>2026-05-03T14:20:35.65Z</time></trkpt><trkpt lat="43.6011867" lon="11.787945"><ele>351.0</ele><time>2026-05-03T14:20:36.638Z</time></trkpt><trkpt lat="43.6011733" lon="11.788075"><ele>350.8</ele><time>2026-05-03T14:20:37.665Z</time></trkpt><trkpt lat="43.6012083" lon="11.78822"><ele>350.6</ele><time>2026-05-03T14:20:38.646Z</time></trkpt><trkpt lat="43.6012683" lon="11.7883767"><ele>350.4</ele><time>2026-05-03T14:20:39.679Z</time></trkpt><trkpt lat="43.6013183" lon="11.7885083"><ele>350.2</ele><time>2026-05-03T14:20:40.644Z</time></trkpt><trkpt lat="43.60137" lon="11.78863"><ele>350.0</ele><time>2026-05-03T14:20:41.645Z</time></trkpt><trkpt lat="43.6014233" lon="11.788725"><ele>349.8</ele><time>2026-05-03T14:20:42.648Z</time></trkpt><trkpt lat="43.6014717" lon="11.7888217"><ele>349.6</ele><time>2026-05-03T14:20:43.645Z</time></trkpt><trkpt lat="43.60154" lon="11.7888983"><ele>349.4</ele><time>2026-05-03T14:20:44.657Z</time></trkpt><trkpt lat="43.6016167" lon="11.78895"><ele>349.2</ele><time>2026-05-03T14:20:45.644Z</time></trkpt><trkpt lat="43.6017083" lon="11.78898"><ele>349.0</ele><time>2026-05-03T14:20:46.645Z</time></trkpt><trkpt lat="43.6018117" lon="11.7889867"><ele>349.0</ele><time>2026-05-03T14:20:47.65Z</time></trkpt><trkpt lat="43.601925" lon="11.7889917"><ele>349.0</ele><time>2026-05-03T14:20:48.647Z</time></trkpt><trkpt lat="43.6020433" lon="11.7890083"><ele>349.0</ele><time>2026-05-03T14:20:49.638Z</time></trkpt><trkpt lat="43.60217" lon="11.7890133"><ele>349.0</ele><time>2026-05-03T14:20:50.648Z</time></trkpt><trkpt lat="43.6023117" lon="11.7890267"><ele>349.0</ele><time>2026-05-03T14:20:51.648Z</time></trkpt><trkpt lat="43.60245" lon="11.7890217"><ele>349.0</ele><time>2026-05-03T14:20:52.647Z</time></trkpt><trkpt lat="43.602595" lon="11.7890183"><ele>349.0</ele><time>2026-05-03T14:20:53.665Z</time></trkpt><trkpt lat="43.6027333" lon="11.788995"><ele>349.0</ele><time>2026-05-03T14:20:54.64Z</time></trkpt><trkpt lat="43.6028717" lon="11.7890017"><ele>350.25</ele><time>2026-05-03T14:20:55.651Z</time></trkpt><trkpt lat="43.6030183" lon="11.7890167"><ele>351.5</ele><time>2026-05-03T14:20:56.647Z</time></trkpt><trkpt lat="43.6031517" lon="11.7890367"><ele>352.75</ele><time>2026-05-03T14:20:57.648Z</time></trkpt><trkpt lat="43.6032717" lon="11.7890533"><ele>354.0</ele><time>2026-05-03T14:20:58.649Z</time></trkpt><trkpt lat="43.6033917" lon="11.7890833"><ele>354.0</ele><time>2026-05-03T14:20:59.647Z</time></trkpt><trkpt lat="43.603485" lon="11.7891533"><ele>354.0</ele><time>2026-05-03T14:21:00.645Z</time></trkpt><trkpt lat="43.6035583" lon="11.78925"><ele>354.0</ele><time>2026-05-03T14:21:01.643Z</time></trkpt><trkpt lat="43.6036283" lon="11.78938"><ele>354.0</ele><time>2026-05-03T14:21:02.636Z</time></trkpt><trkpt lat="43.6036967" lon="11.7895267"><ele>356.0</ele><time>2026-05-03T14:21:03.64Z</time></trkpt><trkpt lat="43.6037667" lon="11.789695"><ele>358.0</ele><time>2026-05-03T14:21:04.651Z</time></trkpt><trkpt lat="43.6038467" lon="11.7898733"><ele>360.0</ele><time>2026-05-03T14:21:05.645Z</time></trkpt><trkpt lat="43.6039317" lon="11.7900633"><ele>356.3333333333333</ele><time>2026-05-03T14:21:06.66Z</time></trkpt><trkpt lat="43.6040133" lon="11.790265"><ele>352.66666666666663</ele><time>2026-05-03T14:21:07.649Z</time></trkpt><trkpt lat="43.604085" lon="11.7904633"><ele>349.0</ele><time>2026-05-03T14:21:08.645Z</time></trkpt><trkpt lat="43.60416" lon="11.79065"><ele>349.0</ele><time>2026-05-03T14:21:09.652Z</time></trkpt><trkpt lat="43.6042333" lon="11.7908083"><ele>349.0</ele><time>2026-05-03T14:21:10.644Z</time></trkpt><trkpt lat="43.6043217" lon="11.79094"><ele>349.0</ele><time>2026-05-03T14:21:11.669Z</time></trkpt><trkpt lat="43.6044383" lon="11.7910467"><ele>349.0</ele><time>2026-05-03T14:21:12.648Z</time></trkpt><trkpt lat="43.604565" lon="11.7911533"><ele>347.0</ele><time>2026-05-03T14:21:13.64Z</time></trkpt><trkpt lat="43.6047017" lon="11.791255"><ele>345.0</ele><time>2026-05-03T14:21:14.639Z</time></trkpt><trkpt lat="43.604845" lon="11.7913433"><ele>343.0</ele><time>2026-05-03T14:21:15.649Z</time></trkpt><trkpt lat="43.6049917" lon="11.7914033"><ele>343.0</ele><time>2026-05-03T14:21:16.647Z</time></trkpt><trkpt lat="43.6051533" lon="11.791435"><ele>343.0</ele><time>2026-05-03T14:21:17.647Z</time></trkpt><trkpt lat="43.6053167" lon="11.7914567"><ele>343.0</ele><time>2026-05-03T14:21:18.648Z</time></trkpt><trkpt lat="43.6054883" lon="11.7914817"><ele>345.3333333333333</ele><time>2026-05-03T14:21:19.64Z</time></trkpt><trkpt lat="43.6056683" lon="11.7914817"><ele>347.6666666666667</ele><time>2026-05-03T14:21:20.642Z</time></trkpt><trkpt lat="43.60583" lon="11.7915233"><ele>350.0</ele><time>2026-05-03T14:21:21.666Z</time></trkpt><trkpt lat="43.6060083" lon="11.79157"><ele>348.0</ele><time>2026-05-03T14:21:22.653Z</time></trkpt><trkpt lat="43.6061767" lon="11.79164"><ele>346.0</ele><time>2026-05-03T14:21:23.656Z</time></trkpt><trkpt lat="43.6063383" lon="11.79173"><ele>344.0</ele><time>2026-05-03T14:21:24.639Z</time></trkpt><trkpt lat="43.6064867" lon="11.7918433"><ele>344.0</ele><time>2026-05-03T14:21:25.65Z</time></trkpt><trkpt lat="43.6066" lon="11.7919833"><ele>344.0</ele><time>2026-05-03T14:21:26.644Z</time></trkpt><trkpt lat="43.6066883" lon="11.7921433"><ele>344.0</ele><time>2026-05-03T14:21:27.655Z</time></trkpt><trkpt lat="43.6067883" lon="11.7923333"><ele>344.0</ele><time>2026-05-03T14:21:28.642Z</time></trkpt><trkpt lat="43.6069033" lon="11.7925117"><ele>344.0</ele><time>2026-05-03T14:21:29.643Z</time></trkpt><trkpt lat="43.607015" lon="11.792685"><ele>344.0</ele><time>2026-05-03T14:21:30.648Z</time></trkpt><trkpt lat="43.6071183" lon="11.79284"><ele>344.75</ele><time>2026-05-03T14:21:31.662Z</time></trkpt><trkpt lat="43.607215" lon="11.7929917"><ele>345.5</ele><time>2026-05-03T14:21:32.626Z</time></trkpt><trkpt lat="43.607315" lon="11.7931383"><ele>346.25</ele><time>2026-05-03T14:21:33.69Z</time></trkpt><trkpt lat="43.6074267" lon="11.7932633"><ele>347.0</ele><time>2026-05-03T14:21:34.643Z</time></trkpt><trkpt lat="43.60755" lon="11.7933617"><ele>347.0</ele><time>2026-05-03T14:21:35.649Z</time></trkpt><trkpt lat="43.607675" lon="11.7934483"><ele>347.0</ele><time>2026-05-03T14:21:36.653Z</time></trkpt><trkpt lat="43.6078033" lon="11.7935183"><ele>347.0</ele><time>2026-05-03T14:21:37.645Z</time></trkpt><trkpt lat="43.6079233" lon="11.7935967"><ele>347.0</ele><time>2026-05-03T14:21:38.658Z</time></trkpt><trkpt lat="43.6080367" lon="11.7936917"><ele>345.5</ele><time>2026-05-03T14:21:39.645Z</time></trkpt><trkpt lat="43.6081417" lon="11.7938017"><ele>344.0</ele><time>2026-05-03T14:21:40.639Z</time></trkpt><trkpt lat="43.6082283" lon="11.7939233"><ele>342.5</ele><time>2026-05-03T14:21:41.638Z</time></trkpt><trkpt lat="43.6083033" lon="11.794055"><ele>341.0</ele><time>2026-05-03T14:21:42.647Z</time></trkpt><trkpt lat="43.6083767" lon="11.794175"><ele>341.0</ele><time>2026-05-03T14:21:43.643Z</time></trkpt><trkpt lat="43.608455" lon="11.7942783"><ele>341.0</ele><time>2026-05-03T14:21:44.641Z</time></trkpt><trkpt lat="43.6085333" lon="11.7943517"><ele>341.0</ele><time>2026-05-03T14:21:45.673Z</time></trkpt><trkpt lat="43.608605" lon="11.7944067"><ele>341.0</ele><time>2026-05-03T14:21:46.639Z</time></trkpt><trkpt lat="43.6086733" lon="11.7944417"><ele>341.0</ele><time>2026-05-03T14:21:47.671Z</time></trkpt><trkpt lat="43.60874" lon="11.7944683"><ele>341.0</ele><time>2026-05-03T14:21:48.649Z</time></trkpt><trkpt lat="43.6088067" lon="11.7944883"><ele>339.6666666666667</ele><time>2026-05-03T14:21:49.644Z</time></trkpt><trkpt lat="43.6088767" lon="11.794505"><ele>338.33333333333337</ele><time>2026-05-03T14:21:50.644Z</time></trkpt><trkpt lat="43.6089533" lon="11.794525"><ele>337.0</ele><time>2026-05-03T14:21:51.653Z</time></trkpt><trkpt lat="43.6090333" lon="11.7945517"><ele>335.6666666666667</ele><time>2026-05-03T14:21:52.64Z</time></trkpt><trkpt lat="43.6091167" lon="11.7945917"><ele>334.3333333333333</ele><time>2026-05-03T14:21:53.646Z</time></trkpt><trkpt lat="43.6092083" lon="11.7946433"><ele>333.0</ele><time>2026-05-03T14:21:54.643Z</time></trkpt><trkpt lat="43.6093083" lon="11.7947033"><ele>333.0</ele><time>2026-05-03T14:21:55.65Z</time></trkpt><trkpt lat="43.6094117" lon="11.7947817"><ele>333.0</ele><time>2026-05-03T14:21:56.653Z</time></trkpt><trkpt lat="43.6095117" lon="11.794855"><ele>333.0</ele><time>2026-05-03T14:21:57.646Z</time></trkpt><trkpt lat="43.6096267" lon="11.7949383"><ele>333.0</ele><time>2026-05-03T14:21:58.675Z</time></trkpt><trkpt lat="43.6097383" lon="11.79502"><ele>333.75</ele><time>2026-05-03T14:21:59.646Z</time></trkpt><trkpt lat="43.60986" lon="11.795085"><ele>334.5</ele><time>2026-05-03T14:22:00.652Z</time></trkpt><trkpt lat="43.6099867" lon="11.7951383"><ele>335.25</ele><time>2026-05-03T14:22:01.648Z</time></trkpt><trkpt lat="43.6101" lon="11.79521"><ele>336.0</ele><time>2026-05-03T14:22:02.644Z</time></trkpt><trkpt lat="43.6102133" lon="11.7952983"><ele>336.75</ele><time>2026-05-03T14:22:03.652Z</time></trkpt><trkpt lat="43.6103283" lon="11.7953817"><ele>337.5</ele><time>2026-05-03T14:22:04.642Z</time></trkpt><trkpt lat="43.6104417" lon="11.7954617"><ele>338.25</ele><time>2026-05-03T14:22:05.654Z</time></trkpt><trkpt lat="43.6105517" lon="11.7955467"><ele>339.0</ele><time>2026-05-03T14:22:06.645Z</time></trkpt><trkpt lat="43.61066" lon="11.7956283"><ele>339.0</ele><time>2026-05-03T14:22:07.642Z</time></trkpt><trkpt lat="43.6107617" lon="11.7957267"><ele>339.0</ele><time>2026-05-03T14:22:08.643Z</time></trkpt><trkpt lat="43.6108717" lon="11.79579"><ele>339.0</ele><time>2026-05-03T14:22:09.634Z</time></trkpt><trkpt lat="43.6109933" lon="11.795815"><ele>339.0</ele><time>2026-05-03T14:22:10.641Z</time></trkpt><trkpt lat="43.61112" lon="11.795805"><ele>337.5</ele><time>2026-05-03T14:22:11.641Z</time></trkpt><trkpt lat="43.6112483" lon="11.7957683"><ele>336.0</ele><time>2026-05-03T14:22:12.675Z</time></trkpt><trkpt lat="43.6113783" lon="11.7957217"><ele>334.5</ele><time>2026-05-03T14:22:13.641Z</time></trkpt><trkpt lat="43.611515" lon="11.7956667"><ele>333.0</ele><time>2026-05-03T14:22:14.642Z</time></trkpt><trkpt lat="43.611655" lon="11.7956167"><ele>333.0</ele><time>2026-05-03T14:22:15.642Z</time></trkpt><trkpt lat="43.6117983" lon="11.7955667"><ele>333.0</ele><time>2026-05-03T14:22:16.644Z</time></trkpt><trkpt lat="43.6119483" lon="11.7955183"><ele>333.0</ele><time>2026-05-03T14:22:17.648Z</time></trkpt><trkpt lat="43.6121033" lon="11.7954717"><ele>331.6666666666667</ele><time>2026-05-03T14:22:18.645Z</time></trkpt><trkpt lat="43.61226" lon="11.795425"><ele>330.33333333333337</ele><time>2026-05-03T14:22:19.644Z</time></trkpt><trkpt lat="43.61241" lon="11.7953783"><ele>329.0</ele><time>2026-05-03T14:22:20.632Z</time></trkpt><trkpt lat="43.6125567" lon="11.7953267"><ele>329.0</ele><time>2026-05-03T14:22:21.647Z</time></trkpt><trkpt lat="43.6126967" lon="11.7952817"><ele>329.0</ele><time>2026-05-03T14:22:22.647Z</time></trkpt><trkpt lat="43.6128467" lon="11.7952367"><ele>329.0</ele><time>2026-05-03T14:22:23.652Z</time></trkpt><trkpt lat="43.612985" lon="11.7951817"><ele>329.0</ele><time>2026-05-03T14:22:24.646Z</time></trkpt><trkpt lat="43.6131117" lon="11.7951233"><ele>331.5</ele><time>2026-05-03T14:22:25.649Z</time></trkpt><trkpt lat="43.6132383" lon="11.7950833"><ele>334.0</ele><time>2026-05-03T14:22:26.65Z</time></trkpt><trkpt lat="43.6133517" lon="11.7950583"><ele>336.5</ele><time>2026-05-03T14:22:27.643Z</time></trkpt><trkpt lat="43.6134633" lon="11.795085"><ele>339.0</ele><time>2026-05-03T14:22:28.656Z</time></trkpt><trkpt lat="43.613545" lon="11.7951483"><ele>338.2</ele><time>2026-05-03T14:22:29.65Z</time></trkpt><trkpt lat="43.6136017" lon="11.7952483"><ele>337.4</ele><time>2026-05-03T14:22:30.649Z</time></trkpt><trkpt lat="43.6136383" lon="11.7953533"><ele>336.6</ele><time>2026-05-03T14:22:31.645Z</time></trkpt><trkpt lat="43.6136533" lon="11.7954667"><ele>335.8</ele><time>2026-05-03T14:22:32.653Z</time></trkpt><trkpt lat="43.6136267" lon="11.79559"><ele>335.0</ele><time>2026-05-03T14:22:33.648Z</time></trkpt><trkpt lat="43.613595" lon="11.7957317"><ele>335.0</ele><time>2026-05-03T14:22:34.657Z</time></trkpt><trkpt lat="43.61357" lon="11.7958783"><ele>335.0</ele><time>2026-05-03T14:22:35.637Z</time></trkpt><trkpt lat="43.6135517" lon="11.7960333"><ele>335.0</ele><time>2026-05-03T14:22:36.64Z</time></trkpt><trkpt lat="43.6135467" lon="11.7962067"><ele>335.0</ele><time>2026-05-03T14:22:37.644Z</time></trkpt><trkpt lat="43.6135683" lon="11.7963733"><ele>334.5</ele><time>2026-05-03T14:22:38.647Z</time></trkpt><trkpt lat="43.613605" lon="11.79653"><ele>334.0</ele><time>2026-05-03T14:22:39.645Z</time></trkpt><trkpt lat="43.6136367" lon="11.7966817"><ele>333.5</ele><time>2026-05-03T14:22:40.684Z</time></trkpt><trkpt lat="43.6136517" lon="11.7968383"><ele>333.0</ele><time>2026-05-03T14:22:41.646Z</time></trkpt><trkpt lat="43.6136567" lon="11.7970033"><ele>332.0</ele><time>2026-05-03T14:22:42.647Z</time></trkpt><trkpt lat="43.613655" lon="11.7971733"><ele>331.0</ele><time>2026-05-03T14:22:43.646Z</time></trkpt><trkpt lat="43.613645" lon="11.7973467"><ele>330.0</ele><time>2026-05-03T14:22:44.652Z</time></trkpt><trkpt lat="43.6136367" lon="11.7975383"><ele>329.0</ele><time>2026-05-03T14:22:45.659Z</time></trkpt><trkpt lat="43.613635" lon="11.7977267"><ele>327.75</ele><time>2026-05-03T14:22:46.653Z</time></trkpt><trkpt lat="43.6136317" lon="11.7979283"><ele>326.5</ele><time>2026-05-03T14:22:47.678Z</time></trkpt><trkpt lat="43.6136383" lon="11.7981317"><ele>325.25</ele><time>2026-05-03T14:22:48.662Z</time></trkpt><trkpt lat="43.6136467" lon="11.79834"><ele>324.0</ele><time>2026-05-03T14:22:49.645Z</time></trkpt><trkpt lat="43.6136467" lon="11.7985517"><ele>323.6666666666667</ele><time>2026-05-03T14:22:50.666Z</time></trkpt><trkpt lat="43.6136417" lon="11.7987767"><ele>323.33333333333337</ele><time>2026-05-03T14:22:51.661Z</time></trkpt><trkpt lat="43.61365" lon="11.79899"><ele>323.0</ele><time>2026-05-03T14:22:52.659Z</time></trkpt><trkpt lat="43.61367" lon="11.799205"><ele>327.0</ele><time>2026-05-03T14:22:53.646Z</time></trkpt><trkpt lat="43.6137033" lon="11.7994167"><ele>331.0</ele><time>2026-05-03T14:22:54.647Z</time></trkpt><trkpt lat="43.6137417" lon="11.7996267"><ele>335.0</ele><time>2026-05-03T14:22:55.645Z</time></trkpt><trkpt lat="43.6137933" lon="11.79983"><ele>335.0</ele><time>2026-05-03T14:22:56.661Z</time></trkpt><trkpt lat="43.61385" lon="11.80004"><ele>335.0</ele><time>2026-05-03T14:22:57.661Z</time></trkpt><trkpt lat="43.6139133" lon="11.8002433"><ele>335.0</ele><time>2026-05-03T14:22:58.65Z</time></trkpt><trkpt lat="43.6139717" lon="11.8004483"><ele>334.33333333333337</ele><time>2026-05-03T14:22:59.639Z</time></trkpt><trkpt lat="43.6140233" lon="11.800655"><ele>333.6666666666667</ele><time>2026-05-03T14:23:00.652Z</time></trkpt><trkpt lat="43.61407" lon="11.8008533"><ele>333.0</ele><time>2026-05-03T14:23:01.652Z</time></trkpt><trkpt lat="43.614105" lon="11.8010467"><ele>331.0</ele><time>2026-05-03T14:23:02.647Z</time></trkpt><trkpt lat="43.6141267" lon="11.8012533"><ele>329.0</ele><time>2026-05-03T14:23:03.648Z</time></trkpt><trkpt lat="43.6141417" lon="11.8014683"><ele>327.0</ele><time>2026-05-03T14:23:04.651Z</time></trkpt><trkpt lat="43.6141567" lon="11.8016833"><ele>326.3333333333333</ele><time>2026-05-03T14:23:05.665Z</time></trkpt><trkpt lat="43.6141733" lon="11.8018917"><ele>325.66666666666663</ele><time>2026-05-03T14:23:06.646Z</time></trkpt><trkpt lat="43.614185" lon="11.8021083"><ele>325.0</ele><time>2026-05-03T14:23:07.648Z</time></trkpt><trkpt lat="43.614195" lon="11.8023183"><ele>325.0</ele><time>2026-05-03T14:23:08.653Z</time></trkpt><trkpt lat="43.6142083" lon="11.8025217"><ele>325.0</ele><time>2026-05-03T14:23:09.653Z</time></trkpt><trkpt lat="43.6142283" lon="11.8027233"><ele>325.0</ele><time>2026-05-03T14:23:10.674Z</time></trkpt><trkpt lat="43.6142567" lon="11.802925"><ele>325.0</ele><time>2026-05-03T14:23:11.648Z</time></trkpt><trkpt lat="43.6142983" lon="11.80312"><ele>324.0</ele><time>2026-05-03T14:23:12.657Z</time></trkpt><trkpt lat="43.6143417" lon="11.803325"><ele>323.0</ele><time>2026-05-03T14:23:13.665Z</time></trkpt><trkpt lat="43.6143833" lon="11.8035217"><ele>322.0</ele><time>2026-05-03T14:23:14.653Z</time></trkpt><trkpt lat="43.6144283" lon="11.80373"><ele>320.66666666666663</ele><time>2026-05-03T14:23:15.664Z</time></trkpt><trkpt lat="43.6144833" lon="11.8039283"><ele>319.3333333333333</ele><time>2026-05-03T14:23:16.646Z</time></trkpt><trkpt lat="43.6145267" lon="11.8041283"><ele>318.0</ele><time>2026-05-03T14:23:17.654Z</time></trkpt><trkpt lat="43.6145683" lon="11.8043217"><ele>321.75</ele><time>2026-05-03T14:23:18.648Z</time></trkpt><trkpt lat="43.6146083" lon="11.8045183"><ele>325.5</ele><time>2026-05-03T14:23:19.65Z</time></trkpt><trkpt lat="43.6146467" lon="11.804715"><ele>329.25</ele><time>2026-05-03T14:23:20.643Z</time></trkpt><trkpt lat="43.6146883" lon="11.8049183"><ele>333.0</ele><time>2026-05-03T14:23:21.642Z</time></trkpt><trkpt lat="43.61472" lon="11.805135"><ele>330.6666666666667</ele><time>2026-05-03T14:23:22.644Z</time></trkpt><trkpt lat="43.614755" lon="11.8053383"><ele>328.33333333333337</ele><time>2026-05-03T14:23:23.642Z</time></trkpt><trkpt lat="43.6147933" lon="11.805545"><ele>326.0</ele><time>2026-05-03T14:23:24.66Z</time></trkpt><trkpt lat="43.6148417" lon="11.8057633"><ele>326.0</ele><time>2026-05-03T14:23:25.646Z</time></trkpt><trkpt lat="43.6148867" lon="11.80598"><ele>326.0</ele><time>2026-05-03T14:23:26.651Z</time></trkpt><trkpt lat="43.614935" lon="11.8061933"><ele>326.0</ele><time>2026-05-03T14:23:27.651Z</time></trkpt><trkpt lat="43.6149867" lon="11.8064067"><ele>323.6666666666667</ele><time>2026-05-03T14:23:28.648Z</time></trkpt><trkpt lat="43.6150433" lon="11.806625"><ele>321.3333333333333</ele><time>2026-05-03T14:23:29.663Z</time></trkpt><trkpt lat="43.6150933" lon="11.8068433"><ele>319.0</ele><time>2026-05-03T14:23:30.644Z</time></trkpt><trkpt lat="43.6151367" lon="11.80706"><ele>318.3333333333333</ele><time>2026-05-03T14:23:31.667Z</time></trkpt><trkpt lat="43.6151767" lon="11.80729"><ele>317.6666666666667</ele><time>2026-05-03T14:23:32.653Z</time></trkpt><trkpt lat="43.6152083" lon="11.8075167"><ele>317.0</ele><time>2026-05-03T14:23:33.658Z</time></trkpt><trkpt lat="43.615245" lon="11.8077533"><ele>317.0</ele><time>2026-05-03T14:23:34.651Z</time></trkpt><trkpt lat="43.615285" lon="11.8079833"><ele>317.0</ele><time>2026-05-03T14:23:35.646Z</time></trkpt><trkpt lat="43.615325" lon="11.8082283"><ele>317.0</ele><time>2026-05-03T14:23:36.649Z</time></trkpt><trkpt lat="43.615355" lon="11.8084717"><ele>320.0</ele><time>2026-05-03T14:23:37.647Z</time></trkpt><trkpt lat="43.6153867" lon="11.808705"><ele>323.0</ele><time>2026-05-03T14:23:38.678Z</time></trkpt><trkpt lat="43.6154167" lon="11.8089383"><ele>326.0</ele><time>2026-05-03T14:23:39.644Z</time></trkpt><trkpt lat="43.6154567" lon="11.809155"><ele>323.6666666666667</ele><time>2026-05-03T14:23:40.656Z</time></trkpt><trkpt lat="43.61551" lon="11.8093667"><ele>321.3333333333333</ele><time>2026-05-03T14:23:41.648Z</time></trkpt><trkpt lat="43.61557" lon="11.8095783"><ele>319.0</ele><time>2026-05-03T14:23:42.65Z</time></trkpt><trkpt lat="43.6156417" lon="11.80978"><ele>319.0</ele><time>2026-05-03T14:23:43.652Z</time></trkpt><trkpt lat="43.6157183" lon="11.8099767"><ele>319.0</ele><time>2026-05-03T14:23:44.65Z</time></trkpt><trkpt lat="43.615785" lon="11.8101667"><ele>319.0</ele><time>2026-05-03T14:23:45.649Z</time></trkpt><trkpt lat="43.61585" lon="11.8103533"><ele>320.0</ele><time>2026-05-03T14:23:46.647Z</time></trkpt><trkpt lat="43.6159283" lon="11.8105233"><ele>321.0</ele><time>2026-05-03T14:23:47.649Z</time></trkpt><trkpt lat="43.6160233" lon="11.8106733"><ele>322.0</ele><time>2026-05-03T14:23:48.644Z</time></trkpt><trkpt lat="43.6161317" lon="11.810805"><ele>323.0</ele><time>2026-05-03T14:23:49.682Z</time></trkpt><trkpt lat="43.61625" lon="11.8109067"><ele>323.0</ele><time>2026-05-03T14:23:50.65Z</time></trkpt><trkpt lat="43.6163817" lon="11.810985"><ele>323.0</ele><time>2026-05-03T14:23:51.651Z</time></trkpt><trkpt lat="43.6165133" lon="11.8110467"><ele>323.0</ele><time>2026-05-03T14:23:52.648Z</time></trkpt><trkpt lat="43.6166517" lon="11.811095"><ele>323.0</ele><time>2026-05-03T14:23:53.646Z</time></trkpt><trkpt lat="43.616785" lon="11.8111283"><ele>321.5</ele><time>2026-05-03T14:23:54.677Z</time></trkpt><trkpt lat="43.61691" lon="11.8111667"><ele>320.0</ele><time>2026-05-03T14:23:55.65Z</time></trkpt><trkpt lat="43.61703" lon="11.8112117"><ele>318.5</ele><time>2026-05-03T14:23:56.64Z</time></trkpt><trkpt lat="43.61716" lon="11.8112917"><ele>317.0</ele><time>2026-05-03T14:23:57.65Z</time></trkpt><trkpt lat="43.617275" lon="11.8113817"><ele>317.0</ele><time>2026-05-03T14:23:58.647Z</time></trkpt><trkpt lat="43.61737" lon="11.8115017"><ele>317.0</ele><time>2026-05-03T14:23:59.66Z</time></trkpt><trkpt lat="43.6174633" lon="11.8116167"><ele>317.0</ele><time>2026-05-03T14:24:00.65Z</time></trkpt><trkpt lat="43.6175583" lon="11.8117267"><ele>317.0</ele><time>2026-05-03T14:24:01.642Z</time></trkpt><trkpt lat="43.6176467" lon="11.81184"><ele>316.25</ele><time>2026-05-03T14:24:02.65Z</time></trkpt><trkpt lat="43.6177233" lon="11.8119683"><ele>315.5</ele><time>2026-05-03T14:24:03.649Z</time></trkpt><trkpt lat="43.61778" lon="11.8121067"><ele>314.75</ele><time>2026-05-03T14:24:04.651Z</time></trkpt><trkpt lat="43.61783" lon="11.8122433"><ele>314.0</ele><time>2026-05-03T14:24:05.647Z</time></trkpt><trkpt lat="43.6178717" lon="11.8123817"><ele>314.8</ele><time>2026-05-03T14:24:06.654Z</time></trkpt><trkpt lat="43.61791" lon="11.81252"><ele>315.59999999999997</ele><time>2026-05-03T14:24:07.652Z</time></trkpt><trkpt lat="43.6179383" lon="11.8126533"><ele>316.4</ele><time>2026-05-03T14:24:08.643Z</time></trkpt><trkpt lat="43.6179733" lon="11.81277"><ele>317.2</ele><time>2026-05-03T14:24:09.644Z</time></trkpt><trkpt lat="43.6180167" lon="11.8128733"><ele>318.0</ele><time>2026-05-03T14:24:10.646Z</time></trkpt><trkpt lat="43.6180617" lon="11.8129983"><ele>318.0</ele><time>2026-05-03T14:24:11.644Z</time></trkpt><trkpt lat="43.6181217" lon="11.81312"><ele>318.0</ele><time>2026-05-03T14:24:12.645Z</time></trkpt><trkpt lat="43.6181933" lon="11.8132417"><ele>318.0</ele><time>2026-05-03T14:24:13.665Z</time></trkpt><trkpt lat="43.6182833" lon="11.8133567"><ele>318.0</ele><time>2026-05-03T14:24:14.641Z</time></trkpt><trkpt lat="43.618385" lon="11.8134767"><ele>317.75</ele><time>2026-05-03T14:24:15.654Z</time></trkpt><trkpt lat="43.6184833" lon="11.8135883"><ele>317.5</ele><time>2026-05-03T14:24:16.642Z</time></trkpt><trkpt lat="43.6185767" lon="11.813705"><ele>317.25</ele><time>2026-05-03T14:24:17.649Z</time></trkpt><trkpt lat="43.6186633" lon="11.8138317"><ele>317.0</ele><time>2026-05-03T14:24:18.644Z</time></trkpt><trkpt lat="43.618755" lon="11.8139483"><ele>317.0</ele><time>2026-05-03T14:24:19.65Z</time></trkpt><trkpt lat="43.6188383" lon="11.814075"><ele>317.0</ele><time>2026-05-03T14:24:20.653Z</time></trkpt><trkpt lat="43.6189383" lon="11.8141833"><ele>317.0</ele><time>2026-05-03T14:24:21.65Z</time></trkpt><trkpt lat="43.619035" lon="11.8143017"><ele>317.0</ele><time>2026-05-03T14:24:22.651Z</time></trkpt><trkpt lat="43.6191317" lon="11.814415"><ele>316.5</ele><time>2026-05-03T14:24:23.643Z</time></trkpt><trkpt lat="43.6192283" lon="11.81453"><ele>316.0</ele><time>2026-05-03T14:24:24.642Z</time></trkpt><trkpt lat="43.6193217" lon="11.8146517"><ele>315.5</ele><time>2026-05-03T14:24:25.647Z</time></trkpt><trkpt lat="43.619415" lon="11.8147633"><ele>315.0</ele><time>2026-05-03T14:24:26.645Z</time></trkpt><trkpt lat="43.6195117" lon="11.814875"><ele>315.0</ele><time>2026-05-03T14:24:27.648Z</time></trkpt><trkpt lat="43.619605" lon="11.814985"><ele>315.0</ele><time>2026-05-03T14:24:28.649Z</time></trkpt><trkpt lat="43.619685" lon="11.8151133"><ele>315.0</ele><time>2026-05-03T14:24:29.644Z</time></trkpt><trkpt lat="43.6197717" lon="11.8152267"><ele>315.0</ele><time>2026-05-03T14:24:30.648Z</time></trkpt><trkpt lat="43.6198583" lon="11.8153367"><ele>314.25</ele><time>2026-05-03T14:24:31.649Z</time></trkpt><trkpt lat="43.619955" lon="11.8154483"><ele>313.5</ele><time>2026-05-03T14:24:32.648Z</time></trkpt><trkpt lat="43.620045" lon="11.81558"><ele>312.75</ele><time>2026-05-03T14:24:33.659Z</time></trkpt><trkpt lat="43.6201383" lon="11.8156933"><ele>312.0</ele><time>2026-05-03T14:24:34.648Z</time></trkpt><trkpt lat="43.6202317" lon="11.815815"><ele>312.0</ele><time>2026-05-03T14:24:35.643Z</time></trkpt><trkpt lat="43.620325" lon="11.8159317"><ele>312.0</ele><time>2026-05-03T14:24:36.645Z</time></trkpt><trkpt lat="43.62042" lon="11.8160433"><ele>312.0</ele><time>2026-05-03T14:24:37.644Z</time></trkpt><trkpt lat="43.6205167" lon="11.8161683"><ele>312.0</ele><time>2026-05-03T14:24:38.648Z</time></trkpt><trkpt lat="43.6206133" lon="11.8163033"><ele>312.0</ele><time>2026-05-03T14:24:39.649Z</time></trkpt><trkpt lat="43.6207183" lon="11.8164467"><ele>312.0</ele><time>2026-05-03T14:24:40.65Z</time></trkpt><trkpt lat="43.620835" lon="11.8165967"><ele>312.0</ele><time>2026-05-03T14:24:41.659Z</time></trkpt><trkpt lat="43.62096" lon="11.816735"><ele>311.6666666666667</ele><time>2026-05-03T14:24:42.646Z</time></trkpt><trkpt lat="43.6210817" lon="11.816895"><ele>311.33333333333337</ele><time>2026-05-03T14:24:43.652Z</time></trkpt><trkpt lat="43.6212033" lon="11.8170533"><ele>311.0</ele><time>2026-05-03T14:24:44.641Z</time></trkpt><trkpt lat="43.6213383" lon="11.8172067"><ele>311.0</ele><time>2026-05-03T14:24:45.644Z</time></trkpt><trkpt lat="43.6214683" lon="11.8173783"><ele>311.0</ele><time>2026-05-03T14:24:46.657Z</time></trkpt><trkpt lat="43.621605" lon="11.8175517"><ele>311.0</ele><time>2026-05-03T14:24:47.651Z</time></trkpt><trkpt lat="43.62174" lon="11.8177267"><ele>310.6666666666667</ele><time>2026-05-03T14:24:48.668Z</time></trkpt><trkpt lat="43.621875" lon="11.8179083"><ele>310.3333333333333</ele><time>2026-05-03T14:24:49.648Z</time></trkpt><trkpt lat="43.6220033" lon="11.818095"><ele>310.0</ele><time>2026-05-03T14:24:50.649Z</time></trkpt><trkpt lat="43.62213" lon="11.8182867"><ele>309.66666666666663</ele><time>2026-05-03T14:24:51.649Z</time></trkpt><trkpt lat="43.622255" lon="11.8184917"><ele>309.3333333333333</ele><time>2026-05-03T14:24:52.647Z</time></trkpt><trkpt lat="43.6223717" lon="11.8186967"><ele>309.0</ele><time>2026-05-03T14:24:53.653Z</time></trkpt><trkpt lat="43.622485" lon="11.818915"><ele>309.0</ele><time>2026-05-03T14:24:54.654Z</time></trkpt><trkpt lat="43.6225967" lon="11.8191367"><ele>309.0</ele><time>2026-05-03T14:24:55.656Z</time></trkpt><trkpt lat="43.622705" lon="11.81936"><ele>309.0</ele><time>2026-05-03T14:24:56.654Z</time></trkpt><trkpt lat="43.6228183" lon="11.8195917"><ele>309.0</ele><time>2026-05-03T14:24:57.663Z</time></trkpt><trkpt lat="43.6229283" lon="11.8198217"><ele>309.0</ele><time>2026-05-03T14:24:58.648Z</time></trkpt><trkpt lat="43.6230433" lon="11.82005"><ele>309.0</ele><time>2026-05-03T14:24:59.648Z</time></trkpt><trkpt lat="43.6231533" lon="11.82027"><ele>309.0</ele><time>2026-05-03T14:25:00.652Z</time></trkpt><trkpt lat="43.6232617" lon="11.8204867"><ele>309.0</ele><time>2026-05-03T14:25:01.653Z</time></trkpt><trkpt lat="43.6233633" lon="11.820695"><ele>309.0</ele><time>2026-05-03T14:25:02.653Z</time></trkpt><trkpt lat="43.6234633" lon="11.82089"><ele>309.3333333333333</ele><time>2026-05-03T14:25:03.666Z</time></trkpt><trkpt lat="43.62357" lon="11.8210933"><ele>309.66666666666663</ele><time>2026-05-03T14:25:04.652Z</time></trkpt><trkpt lat="43.6236767" lon="11.8212867"><ele>310.0</ele><time>2026-05-03T14:25:05.645Z</time></trkpt><trkpt lat="43.6237817" lon="11.821485"><ele>310.0</ele><time>2026-05-03T14:25:06.648Z</time></trkpt><trkpt lat="43.6238833" lon="11.8216883"><ele>310.0</ele><time>2026-05-03T14:25:07.653Z</time></trkpt><trkpt lat="43.6239917" lon="11.821885"><ele>310.0</ele><time>2026-05-03T14:25:08.645Z</time></trkpt><trkpt lat="43.6241017" lon="11.8220883"><ele>307.3333333333333</ele><time>2026-05-03T14:25:09.651Z</time></trkpt><trkpt lat="43.6242083" lon="11.8223017"><ele>304.6666666666667</ele><time>2026-05-03T14:25:10.655Z</time></trkpt><trkpt lat="43.62432" lon="11.82252"><ele>302.0</ele><time>2026-05-03T14:25:11.64Z</time></trkpt><trkpt lat="43.62443" lon="11.8227467"><ele>303.33333333333337</ele><time>2026-05-03T14:25:12.652Z</time></trkpt><trkpt lat="43.624535" lon="11.8229733"><ele>304.6666666666667</ele><time>2026-05-03T14:25:13.652Z</time></trkpt><trkpt lat="43.6246383" lon="11.8232067"><ele>306.0</ele><time>2026-05-03T14:25:14.649Z</time></trkpt><trkpt lat="43.6247233" lon="11.8234567"><ele>304.0</ele><time>2026-05-03T14:25:15.659Z</time></trkpt><trkpt lat="43.6248" lon="11.823715"><ele>302.0</ele><time>2026-05-03T14:25:16.653Z</time></trkpt><trkpt lat="43.6248733" lon="11.8239783"><ele>300.0</ele><time>2026-05-03T14:25:17.647Z</time></trkpt><trkpt lat="43.6249333" lon="11.82425"><ele>299.6666666666667</ele><time>2026-05-03T14:25:18.647Z</time></trkpt><trkpt lat="43.6249783" lon="11.8245233"><ele>299.33333333333337</ele><time>2026-05-03T14:25:19.647Z</time></trkpt><trkpt lat="43.6250283" lon="11.8247983"><ele>299.0</ele><time>2026-05-03T14:25:20.646Z</time></trkpt><trkpt lat="43.6250733" lon="11.8250817"><ele>300.33333333333337</ele><time>2026-05-03T14:25:21.681Z</time></trkpt><trkpt lat="43.62513" lon="11.825365"><ele>301.6666666666667</ele><time>2026-05-03T14:25:22.642Z</time></trkpt><trkpt lat="43.6251733" lon="11.8256367"><ele>303.0</ele><time>2026-05-03T14:25:23.653Z</time></trkpt><trkpt lat="43.6252183" lon="11.8258917"><ele>302.3333333333333</ele><time>2026-05-03T14:25:24.657Z</time></trkpt><trkpt lat="43.6252667" lon="11.82614"><ele>301.66666666666663</ele><time>2026-05-03T14:25:25.654Z</time></trkpt><trkpt lat="43.6253233" lon="11.8263917"><ele>301.0</ele><time>2026-05-03T14:25:26.66Z</time></trkpt><trkpt lat="43.6253967" lon="11.8266233"><ele>302.0</ele><time>2026-05-03T14:25:27.655Z</time></trkpt><trkpt lat="43.6254783" lon="11.8268517"><ele>303.0</ele><time>2026-05-03T14:25:28.65Z</time></trkpt><trkpt lat="43.6255667" lon="11.8270833"><ele>304.0</ele><time>2026-05-03T14:25:29.647Z</time></trkpt><trkpt lat="43.6256583" lon="11.8273167"><ele>304.0</ele><time>2026-05-03T14:25:30.647Z</time></trkpt><trkpt lat="43.625745" lon="11.827565"><ele>304.0</ele><time>2026-05-03T14:25:31.646Z</time></trkpt><trkpt lat="43.62583" lon="11.8278183"><ele>304.0</ele><time>2026-05-03T14:25:32.643Z</time></trkpt><trkpt lat="43.625915" lon="11.8280667"><ele>305.3333333333333</ele><time>2026-05-03T14:25:33.649Z</time></trkpt><trkpt lat="43.6260033" lon="11.8283167"><ele>306.6666666666667</ele><time>2026-05-03T14:25:34.646Z</time></trkpt><trkpt lat="43.6260883" lon="11.8285567"><ele>308.0</ele><time>2026-05-03T14:25:35.657Z</time></trkpt><trkpt lat="43.6261733" lon="11.8288117"><ele>308.0</ele><time>2026-05-03T14:25:36.644Z</time></trkpt><trkpt lat="43.6262517" lon="11.82906"><ele>308.0</ele><time>2026-05-03T14:25:37.648Z</time></trkpt><trkpt lat="43.6263167" lon="11.8293117"><ele>308.0</ele><time>2026-05-03T14:25:38.652Z</time></trkpt><trkpt lat="43.6263883" lon="11.8295267"><ele>306.33333333333337</ele><time>2026-05-03T14:25:39.648Z</time></trkpt><trkpt lat="43.6264733" lon="11.8297383"><ele>304.6666666666667</ele><time>2026-05-03T14:25:40.644Z</time></trkpt><trkpt lat="43.626575" lon="11.8299267"><ele>303.0</ele><time>2026-05-03T14:25:41.648Z</time></trkpt><trkpt lat="43.6267033" lon="11.830105"><ele>301.3333333333333</ele><time>2026-05-03T14:25:42.652Z</time></trkpt><trkpt lat="43.6268367" lon="11.8302933"><ele>299.66666666666663</ele><time>2026-05-03T14:25:43.635Z</time></trkpt><trkpt lat="43.626975" lon="11.8304733"><ele>298.0</ele><time>2026-05-03T14:25:44.668Z</time></trkpt><trkpt lat="43.6271067" lon="11.8306533"><ele>298.0</ele><time>2026-05-03T14:25:45.641Z</time></trkpt><trkpt lat="43.627235" lon="11.83083"><ele>298.0</ele><time>2026-05-03T14:25:46.65Z</time></trkpt><trkpt lat="43.6273633" lon="11.8309933"><ele>298.0</ele><time>2026-05-03T14:25:47.647Z</time></trkpt><trkpt lat="43.6274783" lon="11.83115"><ele>298.0</ele><time>2026-05-03T14:25:48.666Z</time></trkpt><trkpt lat="43.627585" lon="11.8313"><ele>298.0</ele><time>2026-05-03T14:25:49.653Z</time></trkpt><trkpt lat="43.62769" lon="11.8314083"><ele>298.0</ele><time>2026-05-03T14:25:50.663Z</time></trkpt><trkpt lat="43.6277933" lon="11.8314683"><ele>298.0</ele><time>2026-05-03T14:25:51.651Z</time></trkpt><trkpt lat="43.62791" lon="11.83149"><ele>298.25</ele><time>2026-05-03T14:25:52.646Z</time></trkpt><trkpt lat="43.62804" lon="11.8314683"><ele>298.5</ele><time>2026-05-03T14:25:53.647Z</time></trkpt><trkpt lat="43.6281733" lon="11.8314267"><ele>298.75</ele><time>2026-05-03T14:25:54.642Z</time></trkpt><trkpt lat="43.628315" lon="11.8313967"><ele>299.0</ele><time>2026-05-03T14:25:55.644Z</time></trkpt><trkpt lat="43.62847" lon="11.8313817"><ele>299.0</ele><time>2026-05-03T14:25:56.647Z</time></trkpt><trkpt lat="43.62863" lon="11.8313933"><ele>299.0</ele><time>2026-05-03T14:25:57.642Z</time></trkpt><trkpt lat="43.62879" lon="11.8314417"><ele>299.0</ele><time>2026-05-03T14:25:58.649Z</time></trkpt><trkpt lat="43.6289483" lon="11.8315333"><ele>299.33333333333337</ele><time>2026-05-03T14:25:59.643Z</time></trkpt><trkpt lat="43.6291067" lon="11.83166"><ele>299.6666666666667</ele><time>2026-05-03T14:26:00.64Z</time></trkpt><trkpt lat="43.6292583" lon="11.831805"><ele>300.0</ele><time>2026-05-03T14:26:01.648Z</time></trkpt><trkpt lat="43.6294083" lon="11.8319583"><ele>301.0</ele><time>2026-05-03T14:26:02.649Z</time></trkpt><trkpt lat="43.6295467" lon="11.8321267"><ele>302.0</ele><time>2026-05-03T14:26:03.643Z</time></trkpt><trkpt lat="43.6296667" lon="11.832295"><ele>303.0</ele><time>2026-05-03T14:26:04.673Z</time></trkpt><trkpt lat="43.6297683" lon="11.83247"><ele>303.0</ele><time>2026-05-03T14:26:05.651Z</time></trkpt><trkpt lat="43.6298583" lon="11.8326267"><ele>303.0</ele><time>2026-05-03T14:26:06.641Z</time></trkpt><trkpt lat="43.6299533" lon="11.8327483"><ele>303.0</ele><time>2026-05-03T14:26:07.648Z</time></trkpt><trkpt lat="43.6300683" lon="11.83283"><ele>303.0</ele><time>2026-05-03T14:26:08.651Z</time></trkpt><trkpt lat="43.6301967" lon="11.8328617"><ele>302.25</ele><time>2026-05-03T14:26:09.643Z</time></trkpt><trkpt lat="43.6303317" lon="11.8329033"><ele>301.5</ele><time>2026-05-03T14:26:10.682Z</time></trkpt><trkpt lat="43.630475" lon="11.832955"><ele>300.75</ele><time>2026-05-03T14:26:11.651Z</time></trkpt><trkpt lat="43.6306133" lon="11.8330217"><ele>300.0</ele><time>2026-05-03T14:26:12.647Z</time></trkpt><trkpt lat="43.63074" lon="11.8330933"><ele>300.0</ele><time>2026-05-03T14:26:13.649Z</time></trkpt><trkpt lat="43.6308717" lon="11.8331867"><ele>300.0</ele><time>2026-05-03T14:26:14.656Z</time></trkpt><trkpt lat="43.6310083" lon="11.8332667"><ele>300.0</ele><time>2026-05-03T14:26:15.653Z</time></trkpt><trkpt lat="43.6311517" lon="11.8333317"><ele>300.0</ele><time>2026-05-03T14:26:16.647Z</time></trkpt><trkpt lat="43.6312883" lon="11.8333883"><ele>299.75</ele><time>2026-05-03T14:26:17.654Z</time></trkpt><trkpt lat="43.6314317" lon="11.8334417"><ele>299.5</ele><time>2026-05-03T14:26:18.644Z</time></trkpt><trkpt lat="43.631575" lon="11.833485"><ele>299.25</ele><time>2026-05-03T14:26:19.656Z</time></trkpt><trkpt lat="43.6317233" lon="11.83351"><ele>299.0</ele><time>2026-05-03T14:26:20.645Z</time></trkpt><trkpt lat="43.6318617" lon="11.8335533"><ele>300.75</ele><time>2026-05-03T14:26:21.647Z</time></trkpt><trkpt lat="43.6320067" lon="11.8336067"><ele>302.5</ele><time>2026-05-03T14:26:22.651Z</time></trkpt><trkpt lat="43.63214" lon="11.8336817"><ele>304.25</ele><time>2026-05-03T14:26:23.647Z</time></trkpt><trkpt lat="43.63227" lon="11.8337767"><ele>306.0</ele><time>2026-05-03T14:26:24.646Z</time></trkpt><trkpt lat="43.6323933" lon="11.8338817"><ele>306.0</ele><time>2026-05-03T14:26:25.646Z</time></trkpt><trkpt lat="43.6325117" lon="11.8340183"><ele>306.0</ele><time>2026-05-03T14:26:26.649Z</time></trkpt><trkpt lat="43.632625" lon="11.8341583"><ele>306.0</ele><time>2026-05-03T14:26:27.646Z</time></trkpt><trkpt lat="43.6327317" lon="11.8343017"><ele>305.0</ele><time>2026-05-03T14:26:28.656Z</time></trkpt><trkpt lat="43.6328317" lon="11.8344267"><ele>304.0</ele><time>2026-05-03T14:26:29.644Z</time></trkpt><trkpt lat="43.632925" lon="11.834555"><ele>303.0</ele><time>2026-05-03T14:26:30.652Z</time></trkpt><trkpt lat="43.63302" lon="11.834685"><ele>302.0</ele><time>2026-05-03T14:26:31.649Z</time></trkpt><trkpt lat="43.6331117" lon="11.834805"><ele>302.0</ele><time>2026-05-03T14:26:32.641Z</time></trkpt><trkpt lat="43.63322" lon="11.8348883"><ele>302.0</ele><time>2026-05-03T14:26:33.655Z</time></trkpt><trkpt lat="43.6333517" lon="11.8349383"><ele>302.0</ele><time>2026-05-03T14:26:34.645Z</time></trkpt><trkpt lat="43.6334967" lon="11.83497"><ele>302.0</ele><time>2026-05-03T14:26:35.66Z</time></trkpt><trkpt lat="43.6336483" lon="11.8349933"><ele>302.0</ele><time>2026-05-03T14:26:36.65Z</time></trkpt><trkpt lat="43.633805" lon="11.83501"><ele>302.0</ele><time>2026-05-03T14:26:37.644Z</time></trkpt><trkpt lat="43.6339583" lon="11.835025"><ele>302.0</ele><time>2026-05-03T14:26:38.648Z</time></trkpt><trkpt lat="43.6341167" lon="11.8350367"><ele>302.0</ele><time>2026-05-03T14:26:39.643Z</time></trkpt><trkpt lat="43.634285" lon="11.835025"><ele>302.0</ele><time>2026-05-03T14:26:40.665Z</time></trkpt><trkpt lat="43.63445" lon="11.8350117"><ele>302.0</ele><time>2026-05-03T14:26:41.654Z</time></trkpt><trkpt lat="43.63461" lon="11.834985"><ele>301.6666666666667</ele><time>2026-05-03T14:26:42.659Z</time></trkpt><trkpt lat="43.634765" lon="11.83494"><ele>301.3333333333333</ele><time>2026-05-03T14:26:43.648Z</time></trkpt><trkpt lat="43.6349183" lon="11.8348683"><ele>301.0</ele><time>2026-05-03T14:26:44.645Z</time></trkpt><trkpt lat="43.63505" lon="11.8347667"><ele>301.0</ele><time>2026-05-03T14:26:45.652Z</time></trkpt><trkpt lat="43.6351883" lon="11.8346133"><ele>301.0</ele><time>2026-05-03T14:26:46.648Z</time></trkpt><trkpt lat="43.6353417" lon="11.834455"><ele>301.0</ele><time>2026-05-03T14:26:47.661Z</time></trkpt><trkpt lat="43.635505" lon="11.834325"><ele>301.3333333333333</ele><time>2026-05-03T14:26:48.636Z</time></trkpt><trkpt lat="43.6356783" lon="11.834225"><ele>301.6666666666667</ele><time>2026-05-03T14:26:49.64Z</time></trkpt><trkpt lat="43.6358483" lon="11.834135"><ele>302.0</ele><time>2026-05-03T14:26:50.648Z</time></trkpt><trkpt lat="43.6360183" lon="11.8340467"><ele>301.33333333333337</ele><time>2026-05-03T14:26:51.644Z</time></trkpt><trkpt lat="43.6361867" lon="11.8339633"><ele>300.6666666666667</ele><time>2026-05-03T14:26:52.664Z</time></trkpt><trkpt lat="43.6363583" lon="11.8338967"><ele>300.0</ele><time>2026-05-03T14:26:53.646Z</time></trkpt><trkpt lat="43.63653" lon="11.8338483"><ele>300.0</ele><time>2026-05-03T14:26:54.652Z</time></trkpt><trkpt lat="43.6367033" lon="11.833805"><ele>300.0</ele><time>2026-05-03T14:26:55.65Z</time></trkpt><trkpt lat="43.6368683" lon="11.8337483"><ele>300.0</ele><time>2026-05-03T14:26:56.651Z</time></trkpt><trkpt lat="43.6370283" lon="11.8336983"><ele>300.0</ele><time>2026-05-03T14:26:57.649Z</time></trkpt><trkpt lat="43.63718" lon="11.8336533"><ele>300.0</ele><time>2026-05-03T14:26:58.648Z</time></trkpt><trkpt lat="43.637315" lon="11.8336"><ele>300.0</ele><time>2026-05-03T14:26:59.648Z</time></trkpt><trkpt lat="43.6374383" lon="11.8335083"><ele>300.0</ele><time>2026-05-03T14:27:00.64Z</time></trkpt><trkpt lat="43.6375383" lon="11.8334033"><ele>300.0</ele><time>2026-05-03T14:27:01.683Z</time></trkpt><trkpt lat="43.6376317" lon="11.8332633"><ele>300.0</ele><time>2026-05-03T14:27:02.652Z</time></trkpt><trkpt lat="43.6377233" lon="11.8331233"><ele>300.0</ele><time>2026-05-03T14:27:03.643Z</time></trkpt><trkpt lat="43.6378233" lon="11.8329783"><ele>300.0</ele><time>2026-05-03T14:27:04.648Z</time></trkpt><trkpt lat="43.6379267" lon="11.8328233"><ele>299.0</ele><time>2026-05-03T14:27:05.653Z</time></trkpt><trkpt lat="43.638025" lon="11.8326583"><ele>298.0</ele><time>2026-05-03T14:27:06.651Z</time></trkpt><trkpt lat="43.63812" lon="11.8325017"><ele>297.0</ele><time>2026-05-03T14:27:07.657Z</time></trkpt><trkpt lat="43.63821" lon="11.8323617"><ele>296.0</ele><time>2026-05-03T14:27:08.646Z</time></trkpt><trkpt lat="43.6383017" lon="11.8322233"><ele>296.0</ele><time>2026-05-03T14:27:09.647Z</time></trkpt><trkpt lat="43.638395" lon="11.83209"><ele>296.0</ele><time>2026-05-03T14:27:10.647Z</time></trkpt><trkpt lat="43.6384933" lon="11.83197"><ele>296.0</ele><time>2026-05-03T14:27:11.637Z</time></trkpt><trkpt lat="43.6386017" lon="11.8318583"><ele>296.0</ele><time>2026-05-03T14:27:12.683Z</time></trkpt><trkpt lat="43.63872" lon="11.83175"><ele>296.25</ele><time>2026-05-03T14:27:13.647Z</time></trkpt><trkpt lat="43.6388317" lon="11.8316367"><ele>296.5</ele><time>2026-05-03T14:27:14.638Z</time></trkpt><trkpt lat="43.638935" lon="11.83152"><ele>296.75</ele><time>2026-05-03T14:27:15.653Z</time></trkpt><trkpt lat="43.6390267" lon="11.8314"><ele>297.0</ele><time>2026-05-03T14:27:16.639Z</time></trkpt><trkpt lat="43.6391067" lon="11.8312667"><ele>297.0</ele><time>2026-05-03T14:27:17.677Z</time></trkpt><trkpt lat="43.639175" lon="11.83113"><ele>297.0</ele><time>2026-05-03T14:27:18.646Z</time></trkpt><trkpt lat="43.639235" lon="11.8309983"><ele>297.0</ele><time>2026-05-03T14:27:19.648Z</time></trkpt><trkpt lat="43.6393033" lon="11.830885"><ele>297.0</ele><time>2026-05-03T14:27:20.647Z</time></trkpt><trkpt lat="43.6393883" lon="11.8307883"><ele>296.5</ele><time>2026-05-03T14:27:21.65Z</time></trkpt><trkpt lat="43.6394933" lon="11.8307283"><ele>296.0</ele><time>2026-05-03T14:27:22.652Z</time></trkpt><trkpt lat="43.6396217" lon="11.8306883"><ele>295.5</ele><time>2026-05-03T14:27:23.645Z</time></trkpt><trkpt lat="43.639755" lon="11.8306683"><ele>295.0</ele><time>2026-05-03T14:27:24.651Z</time></trkpt><trkpt lat="43.639895" lon="11.8306633"><ele>295.0</ele><time>2026-05-03T14:27:25.644Z</time></trkpt><trkpt lat="43.6400333" lon="11.8306517"><ele>295.0</ele><time>2026-05-03T14:27:26.676Z</time></trkpt><trkpt lat="43.6401833" lon="11.8306383"><ele>295.0</ele><time>2026-05-03T14:27:27.686Z</time></trkpt><trkpt lat="43.6403367" lon="11.8306267"><ele>295.0</ele><time>2026-05-03T14:27:28.671Z</time></trkpt><trkpt lat="43.6405033" lon="11.8306083"><ele>295.0</ele><time>2026-05-03T14:27:29.664Z</time></trkpt><trkpt lat="43.64068" lon="11.8305783"><ele>295.0</ele><time>2026-05-03T14:27:30.65Z</time></trkpt><trkpt lat="43.6408717" lon="11.8305533"><ele>295.0</ele><time>2026-05-03T14:27:31.653Z</time></trkpt><trkpt lat="43.64106" lon="11.8305467"><ele>295.66666666666663</ele><time>2026-05-03T14:27:32.66Z</time></trkpt><trkpt lat="43.6412583" lon="11.83053"><ele>296.3333333333333</ele><time>2026-05-03T14:27:33.654Z</time></trkpt><trkpt lat="43.6414533" lon="11.830505"><ele>297.0</ele><time>2026-05-03T14:27:34.654Z</time></trkpt><trkpt lat="43.64165" lon="11.830455"><ele>297.0</ele><time>2026-05-03T14:27:35.646Z</time></trkpt><trkpt lat="43.641855" lon="11.830395"><ele>297.0</ele><time>2026-05-03T14:27:36.644Z</time></trkpt><trkpt lat="43.6420567" lon="11.8303383"><ele>297.0</ele><time>2026-05-03T14:27:37.648Z</time></trkpt><trkpt lat="43.6422517" lon="11.8302833"><ele>297.3333333333333</ele><time>2026-05-03T14:27:38.652Z</time></trkpt><trkpt lat="43.6424317" lon="11.8302267"><ele>297.66666666666663</ele><time>2026-05-03T14:27:39.646Z</time></trkpt><trkpt lat="43.6426033" lon="11.83019"><ele>298.0</ele><time>2026-05-03T14:27:40.657Z</time></trkpt><trkpt lat="43.64276" lon="11.8301933"><ele>297.66666666666663</ele><time>2026-05-03T14:27:41.654Z</time></trkpt><trkpt lat="43.6429033" lon="11.8302483"><ele>297.3333333333333</ele><time>2026-05-03T14:27:42.655Z</time></trkpt><trkpt lat="43.6430517" lon="11.8303233"><ele>297.0</ele><time>2026-05-03T14:27:43.651Z</time></trkpt><trkpt lat="43.6431883" lon="11.830405"><ele>297.0</ele><time>2026-05-03T14:27:44.65Z</time></trkpt><trkpt lat="43.64334" lon="11.8304617"><ele>297.0</ele><time>2026-05-03T14:27:45.652Z</time></trkpt><trkpt lat="43.6435017" lon="11.8304833"><ele>297.0</ele><time>2026-05-03T14:27:46.64Z</time></trkpt><trkpt lat="43.643675" lon="11.8304567"><ele>296.3333333333333</ele><time>2026-05-03T14:27:47.66Z</time></trkpt><trkpt lat="43.6438467" lon="11.8304183"><ele>295.66666666666663</ele><time>2026-05-03T14:27:48.655Z</time></trkpt><trkpt lat="43.64403" lon="11.8303733"><ele>295.0</ele><time>2026-05-03T14:27:49.651Z</time></trkpt><trkpt lat="43.6442117" lon="11.8303317"><ele>295.0</ele><time>2026-05-03T14:27:50.637Z</time></trkpt><trkpt lat="43.6444033" lon="11.830305"><ele>295.0</ele><time>2026-05-03T14:27:51.65Z</time></trkpt><trkpt lat="43.6445967" lon="11.830315"><ele>295.0</ele><time>2026-05-03T14:27:52.653Z</time></trkpt><trkpt lat="43.64479" lon="11.8303467"><ele>295.66666666666663</ele><time>2026-05-03T14:27:53.658Z</time></trkpt><trkpt lat="43.6449833" lon="11.83039"><ele>296.3333333333333</ele><time>2026-05-03T14:27:54.645Z</time></trkpt><trkpt lat="43.645175" lon="11.8304367"><ele>297.0</ele><time>2026-05-03T14:27:55.653Z</time></trkpt><trkpt lat="43.6453683" lon="11.8304817"><ele>297.3333333333333</ele><time>2026-05-03T14:27:56.648Z</time></trkpt><trkpt lat="43.645565" lon="11.830525"><ele>297.66666666666663</ele><time>2026-05-03T14:27:57.647Z</time></trkpt><trkpt lat="43.6457633" lon="11.8305783"><ele>298.0</ele><time>2026-05-03T14:27:58.649Z</time></trkpt><trkpt lat="43.6459567" lon="11.8306267"><ele>298.0</ele><time>2026-05-03T14:27:59.65Z</time></trkpt><trkpt lat="43.64615" lon="11.8306617"><ele>298.0</ele><time>2026-05-03T14:28:00.648Z</time></trkpt><trkpt lat="43.6463333" lon="11.8306967"><ele>298.0</ele><time>2026-05-03T14:28:01.659Z</time></trkpt><trkpt lat="43.6465083" lon="11.8307383"><ele>298.0</ele><time>2026-05-03T14:28:02.653Z</time></trkpt><trkpt lat="43.6466783" lon="11.8307767"><ele>298.0</ele><time>2026-05-03T14:28:03.657Z</time></trkpt><trkpt lat="43.64684" lon="11.83081"><ele>298.0</ele><time>2026-05-03T14:28:04.649Z</time></trkpt><trkpt lat="43.6469933" lon="11.8308367"><ele>298.75</ele><time>2026-05-03T14:28:05.648Z</time></trkpt><trkpt lat="43.64714" lon="11.83087"><ele>299.5</ele><time>2026-05-03T14:28:06.648Z</time></trkpt><trkpt lat="43.6472783" lon="11.83089"><ele>300.25</ele><time>2026-05-03T14:28:07.645Z</time></trkpt><trkpt lat="43.6474083" lon="11.8309067"><ele>301.0</ele><time>2026-05-03T14:28:08.648Z</time></trkpt><trkpt lat="43.64754" lon="11.830925"><ele>301.0</ele><time>2026-05-03T14:28:09.645Z</time></trkpt><trkpt lat="43.6476767" lon="11.8309483"><ele>301.0</ele><time>2026-05-03T14:28:10.658Z</time></trkpt><trkpt lat="43.6478283" lon="11.83097"><ele>301.0</ele><time>2026-05-03T14:28:11.65Z</time></trkpt><trkpt lat="43.6479967" lon="11.8310017"><ele>300.66666666666663</ele><time>2026-05-03T14:28:12.65Z</time></trkpt><trkpt lat="43.64817" lon="11.8310417"><ele>300.3333333333333</ele><time>2026-05-03T14:28:13.637Z</time></trkpt><trkpt lat="43.648335" lon="11.83108"><ele>300.0</ele><time>2026-05-03T14:28:14.652Z</time></trkpt><trkpt lat="43.648495" lon="11.8311183"><ele>300.75</ele><time>2026-05-03T14:28:15.646Z</time></trkpt><trkpt lat="43.6486333" lon="11.831175"><ele>301.5</ele><time>2026-05-03T14:28:16.654Z</time></trkpt><trkpt lat="43.6487533" lon="11.8312467"><ele>302.25</ele><time>2026-05-03T14:28:17.653Z</time></trkpt><trkpt lat="43.6488533" lon="11.83134"><ele>303.0</ele><time>2026-05-03T14:28:18.646Z</time></trkpt><trkpt lat="43.648955" lon="11.831415"><ele>303.0</ele><time>2026-05-03T14:28:19.663Z</time></trkpt><trkpt lat="43.6490533" lon="11.83146"><ele>303.0</ele><time>2026-05-03T14:28:20.654Z</time></trkpt><trkpt lat="43.649135" lon="11.8315167"><ele>303.0</ele><time>2026-05-03T14:28:21.638Z</time></trkpt><trkpt lat="43.6492117" lon="11.8315733"><ele>303.0</ele><time>2026-05-03T14:28:22.644Z</time></trkpt><trkpt lat="43.649295" lon="11.83163"><ele>303.0</ele><time>2026-05-03T14:28:23.65Z</time></trkpt><trkpt lat="43.649395" lon="11.831685"><ele>302.0</ele><time>2026-05-03T14:28:24.641Z</time></trkpt><trkpt lat="43.6494967" lon="11.8317317"><ele>301.0</ele><time>2026-05-03T14:28:25.638Z</time></trkpt><trkpt lat="43.6496017" lon="11.8317717"><ele>300.0</ele><time>2026-05-03T14:28:26.64Z</time></trkpt><trkpt lat="43.6497183" lon="11.8317967"><ele>299.0</ele><time>2026-05-03T14:28:27.638Z</time></trkpt><trkpt lat="43.649835" lon="11.83182"><ele>299.0</ele><time>2026-05-03T14:28:28.646Z</time></trkpt><trkpt lat="43.6499767" lon="11.83182"><ele>299.0</ele><time>2026-05-03T14:28:29.651Z</time></trkpt><trkpt lat="43.6501167" lon="11.83184"><ele>299.0</ele><time>2026-05-03T14:28:30.65Z</time></trkpt><trkpt lat="43.6502617" lon="11.8318567"><ele>299.0</ele><time>2026-05-03T14:28:31.646Z</time></trkpt><trkpt lat="43.6504217" lon="11.831895"><ele>299.5</ele><time>2026-05-03T14:28:32.649Z</time></trkpt><trkpt lat="43.65058" lon="11.8319183"><ele>300.0</ele><time>2026-05-03T14:28:33.646Z</time></trkpt><trkpt lat="43.65073" lon="11.8319583"><ele>300.5</ele><time>2026-05-03T14:28:34.646Z</time></trkpt><trkpt lat="43.6508633" lon="11.8319833"><ele>301.0</ele><time>2026-05-03T14:28:35.671Z</time></trkpt><trkpt lat="43.6509933" lon="11.8320267"><ele>301.0</ele><time>2026-05-03T14:28:36.649Z</time></trkpt><trkpt lat="43.6510983" lon="11.83206"><ele>301.0</ele><time>2026-05-03T14:28:37.652Z</time></trkpt><trkpt lat="43.65119" lon="11.832095"><ele>301.0</ele><time>2026-05-03T14:28:38.641Z</time></trkpt><trkpt lat="43.6512667" lon="11.83215"><ele>301.0</ele><time>2026-05-03T14:28:39.652Z</time></trkpt><trkpt lat="43.6513133" lon="11.8322183"><ele>301.0</ele><time>2026-05-03T14:28:40.646Z</time></trkpt><trkpt lat="43.6513383" lon="11.8323017"><ele>301.0</ele><time>2026-05-03T14:28:41.639Z</time></trkpt><trkpt lat="43.6513333" lon="11.8324183"><ele>300.25</ele><time>2026-05-03T14:28:42.649Z</time></trkpt><trkpt lat="43.6513017" lon="11.8325633"><ele>299.5</ele><time>2026-05-03T14:28:43.65Z</time></trkpt><trkpt lat="43.6512617" lon="11.8327333"><ele>298.75</ele><time>2026-05-03T14:28:44.643Z</time></trkpt><trkpt lat="43.6512233" lon="11.8329133"><ele>298.0</ele><time>2026-05-03T14:28:45.646Z</time></trkpt><trkpt lat="43.6511867" lon="11.8330933"><ele>298.0</ele><time>2026-05-03T14:28:46.648Z</time></trkpt><trkpt lat="43.6511583" lon="11.8332617"><ele>298.0</ele><time>2026-05-03T14:28:47.641Z</time></trkpt><trkpt lat="43.6511317" lon="11.833405"><ele>298.0</ele><time>2026-05-03T14:28:48.643Z</time></trkpt><trkpt lat="43.6511117" lon="11.833535"><ele>298.0</ele><time>2026-05-03T14:28:49.644Z</time></trkpt><trkpt lat="43.65109" lon="11.8336483"><ele>298.0</ele><time>2026-05-03T14:28:50.647Z</time></trkpt><trkpt lat="43.65108" lon="11.833745"><ele>298.8</ele><time>2026-05-03T14:28:51.641Z</time></trkpt><trkpt lat="43.6511067" lon="11.833895"><ele>299.6</ele><time>2026-05-03T14:28:53.64Z</time></trkpt><trkpt lat="43.6512167" lon="11.8339733"><ele>300.4</ele><time>2026-05-03T14:28:55.655Z</time></trkpt><trkpt lat="43.65129" lon="11.8339867"><ele>301.2</ele><time>2026-05-03T14:28:56.652Z</time></trkpt><trkpt lat="43.65138" lon="11.8340033"><ele>302.0</ele><time>2026-05-03T14:28:57.646Z</time></trkpt><trkpt lat="43.6514683" lon="11.8340433"><ele>302.0</ele><time>2026-05-03T14:28:58.643Z</time></trkpt><trkpt lat="43.651555" lon="11.8340983"><ele>302.0</ele><time>2026-05-03T14:28:59.644Z</time></trkpt><trkpt lat="43.651645" lon="11.8341583"><ele>302.0</ele><time>2026-05-03T14:29:00.656Z</time></trkpt><trkpt lat="43.65173" lon="11.8342183"><ele>302.0</ele><time>2026-05-03T14:29:01.654Z</time></trkpt><trkpt lat="43.6518067" lon="11.83427"><ele>302.0</ele><time>2026-05-03T14:29:02.636Z</time></trkpt><trkpt lat="43.6518767" lon="11.8343183"><ele>302.5</ele><time>2026-05-03T14:29:03.653Z</time></trkpt><trkpt lat="43.65195" lon="11.83437"><ele>303.0</ele><time>2026-05-03T14:29:04.647Z</time></trkpt><trkpt lat="43.6520267" lon="11.8344167"><ele>303.5</ele><time>2026-05-03T14:29:05.652Z</time></trkpt><trkpt lat="43.65211" lon="11.8344467"><ele>304.0</ele><time>2026-05-03T14:29:06.643Z</time></trkpt><trkpt lat="43.6521983" lon="11.8344567"><ele>304.5</ele><time>2026-05-03T14:29:07.652Z</time></trkpt><trkpt lat="43.6522883" lon="11.8344667"><ele>305.0</ele><time>2026-05-03T14:29:08.647Z</time></trkpt><trkpt lat="43.6523783" lon="11.8344817"><ele>305.1666666666667</ele><time>2026-05-03T14:29:09.645Z</time></trkpt><trkpt lat="43.65247" lon="11.834525"><ele>305.33333333333337</ele><time>2026-05-03T14:29:10.649Z</time></trkpt><trkpt lat="43.6525383" lon="11.8345867"><ele>305.5</ele><time>2026-05-03T14:29:11.65Z</time></trkpt><trkpt lat="43.6526067" lon="11.83465"><ele>305.6666666666667</ele><time>2026-05-03T14:29:12.648Z</time></trkpt><trkpt lat="43.6526767" lon="11.8347267"><ele>305.8333333333333</ele><time>2026-05-03T14:29:13.664Z</time></trkpt><trkpt lat="43.6527483" lon="11.83482"><ele>306.0</ele><time>2026-05-03T14:29:14.642Z</time></trkpt><trkpt lat="43.6528267" lon="11.8349183"><ele>306.2</ele><time>2026-05-03T14:29:15.634Z</time></trkpt><trkpt lat="43.652915" lon="11.8350033"><ele>306.40000000000003</ele><time>2026-05-03T14:29:16.643Z</time></trkpt><trkpt lat="43.6530133" lon="11.8350933"><ele>306.6</ele><time>2026-05-03T14:29:17.641Z</time></trkpt><trkpt lat="43.6531033" lon="11.83519"><ele>306.8</ele><time>2026-05-03T14:29:18.642Z</time></trkpt><trkpt lat="43.653185" lon="11.8352867"><ele>307.0</ele><time>2026-05-03T14:29:19.645Z</time></trkpt><trkpt lat="43.6532433" lon="11.835385"><ele>307.0</ele><time>2026-05-03T14:29:20.646Z</time></trkpt><trkpt lat="43.6532917" lon="11.8354767"><ele>307.0</ele><time>2026-05-03T14:29:21.65Z</time></trkpt><trkpt lat="43.6533383" lon="11.8355583"><ele>307.0</ele><time>2026-05-03T14:29:22.634Z</time></trkpt><trkpt lat="43.65339" lon="11.8356317"><ele>307.0</ele><time>2026-05-03T14:29:23.64Z</time></trkpt><trkpt lat="43.6534517" lon="11.8357133"><ele>307.0</ele><time>2026-05-03T14:29:24.644Z</time></trkpt><trkpt lat="43.6535233" lon="11.835805"><ele>307.0</ele><time>2026-05-03T14:29:25.64Z</time></trkpt><trkpt lat="43.6535933" lon="11.835905"><ele>306.2</ele><time>2026-05-03T14:29:26.652Z</time></trkpt><trkpt lat="43.653655" lon="11.83601"><ele>305.4</ele><time>2026-05-03T14:29:27.645Z</time></trkpt><trkpt lat="43.6537133" lon="11.83611"><ele>304.6</ele><time>2026-05-03T14:29:28.645Z</time></trkpt><trkpt lat="43.653755" lon="11.8361783"><ele>303.8</ele><time>2026-05-03T14:29:29.642Z</time></trkpt><trkpt lat="43.6537867" lon="11.8363467"><ele>303.0</ele><time>2026-05-03T14:29:31.643Z</time></trkpt><trkpt lat="43.65381" lon="11.8364483"><ele>303.0</ele><time>2026-05-03T14:29:32.637Z</time></trkpt><trkpt lat="43.653845" lon="11.8365683"><ele>303.0</ele><time>2026-05-03T14:29:33.651Z</time></trkpt><trkpt lat="43.6538967" lon="11.8366983"><ele>303.0</ele><time>2026-05-03T14:29:34.642Z</time></trkpt><trkpt lat="43.65393" lon="11.8368217"><ele>303.0</ele><time>2026-05-03T14:29:35.645Z</time></trkpt><trkpt lat="43.6539483" lon="11.83692"><ele>303.0</ele><time>2026-05-03T14:29:36.653Z</time></trkpt><trkpt lat="43.6539467" lon="11.83704"><ele>303.3333333333333</ele><time>2026-05-03T14:29:38.649Z</time></trkpt><trkpt lat="43.6539467" lon="11.8371567"><ele>303.6666666666667</ele><time>2026-05-03T14:29:50.643Z</time></trkpt><trkpt lat="43.6539967" lon="11.8372167"><ele>304.0</ele><time>2026-05-03T14:29:51.638Z</time></trkpt><trkpt lat="43.654065" lon="11.8372817"><ele>304.33333333333337</ele><time>2026-05-03T14:29:52.641Z</time></trkpt><trkpt lat="43.6541383" lon="11.8373633"><ele>304.6666666666667</ele><time>2026-05-03T14:29:53.646Z</time></trkpt><trkpt lat="43.6542267" lon="11.8374433"><ele>305.0</ele><time>2026-05-03T14:29:54.649Z</time></trkpt><trkpt lat="43.6543267" lon="11.8375317"><ele>305.0</ele><time>2026-05-03T14:29:55.654Z</time></trkpt><trkpt lat="43.6544283" lon="11.8376333"><ele>305.0</ele><time>2026-05-03T14:29:56.637Z</time></trkpt><trkpt lat="43.6545333" lon="11.8377267"><ele>305.0</ele><time>2026-05-03T14:29:57.641Z</time></trkpt><trkpt lat="43.6546517" lon="11.8378233"><ele>305.0</ele><time>2026-05-03T14:29:58.654Z</time></trkpt><trkpt lat="43.654775" lon="11.8379133"><ele>305.0</ele><time>2026-05-03T14:29:59.649Z</time></trkpt><trkpt lat="43.6549033" lon="11.8380117"><ele>305.0</ele><time>2026-05-03T14:30:00.65Z</time></trkpt><trkpt lat="43.655045" lon="11.8381117"><ele>305.0</ele><time>2026-05-03T14:30:01.64Z</time></trkpt><trkpt lat="43.6551883" lon="11.8381983"><ele>304.6666666666667</ele><time>2026-05-03T14:30:02.642Z</time></trkpt><trkpt lat="43.6553283" lon="11.8383"><ele>304.3333333333333</ele><time>2026-05-03T14:30:03.646Z</time></trkpt><trkpt lat="43.65549" lon="11.8383967"><ele>304.0</ele><time>2026-05-03T14:30:04.644Z</time></trkpt><trkpt lat="43.655655" lon="11.8385017"><ele>306.0</ele><time>2026-05-03T14:30:05.648Z</time></trkpt><trkpt lat="43.6558067" lon="11.8386183"><ele>308.0</ele><time>2026-05-03T14:30:06.638Z</time></trkpt><trkpt lat="43.6559683" lon="11.838725"><ele>310.0</ele><time>2026-05-03T14:30:07.693Z</time></trkpt><trkpt lat="43.6561333" lon="11.8388333"><ele>310.0</ele><time>2026-05-03T14:30:08.65Z</time></trkpt><trkpt lat="43.6563017" lon="11.8389383"><ele>310.0</ele><time>2026-05-03T14:30:09.648Z</time></trkpt><trkpt lat="43.6564733" lon="11.8390317"><ele>310.0</ele><time>2026-05-03T14:30:10.642Z</time></trkpt><trkpt lat="43.656655" lon="11.8391067"><ele>310.0</ele><time>2026-05-03T14:30:11.642Z</time></trkpt><trkpt lat="43.6568417" lon="11.839155"><ele>310.0</ele><time>2026-05-03T14:30:12.649Z</time></trkpt><trkpt lat="43.6570283" lon="11.8391967"><ele>310.0</ele><time>2026-05-03T14:30:13.642Z</time></trkpt><trkpt lat="43.6572183" lon="11.8392283"><ele>309.0</ele><time>2026-05-03T14:30:14.674Z</time></trkpt><trkpt lat="43.657395" lon="11.8392767"><ele>308.0</ele><time>2026-05-03T14:30:15.647Z</time></trkpt><trkpt lat="43.657575" lon="11.8393067"><ele>307.0</ele><time>2026-05-03T14:30:16.649Z</time></trkpt><trkpt lat="43.6577533" lon="11.8393383"><ele>311.3333333333333</ele><time>2026-05-03T14:30:17.648Z</time></trkpt><trkpt lat="43.6579317" lon="11.83937"><ele>315.6666666666667</ele><time>2026-05-03T14:30:18.641Z</time></trkpt><trkpt lat="43.658105" lon="11.8394033"><ele>320.0</ele><time>2026-05-03T14:30:19.691Z</time></trkpt><trkpt lat="43.65829" lon="11.8394367"><ele>320.0</ele><time>2026-05-03T14:30:20.647Z</time></trkpt><trkpt lat="43.6584767" lon="11.8394467"><ele>320.0</ele><time>2026-05-03T14:30:21.659Z</time></trkpt><trkpt lat="43.6586583" lon="11.839435"><ele>320.0</ele><time>2026-05-03T14:30:22.658Z</time></trkpt><trkpt lat="43.6588317" lon="11.839415"><ele>320.6666666666667</ele><time>2026-05-03T14:30:23.681Z</time></trkpt><trkpt lat="43.6590067" lon="11.8393983"><ele>321.3333333333333</ele><time>2026-05-03T14:30:24.649Z</time></trkpt><trkpt lat="43.6591767" lon="11.8393783"><ele>322.0</ele><time>2026-05-03T14:30:25.646Z</time></trkpt><trkpt lat="43.659355" lon="11.8393633"><ele>321.66666666666663</ele><time>2026-05-03T14:30:26.651Z</time></trkpt><trkpt lat="43.6595233" lon="11.839355"><ele>321.3333333333333</ele><time>2026-05-03T14:30:27.642Z</time></trkpt><trkpt lat="43.6596967" lon="11.8393617"><ele>321.0</ele><time>2026-05-03T14:30:28.659Z</time></trkpt><trkpt lat="43.6598683" lon="11.8393817"><ele>321.0</ele><time>2026-05-03T14:30:29.644Z</time></trkpt><trkpt lat="43.660035" lon="11.8394217"><ele>321.0</ele><time>2026-05-03T14:30:30.651Z</time></trkpt><trkpt lat="43.660205" lon="11.8394717"><ele>321.0</ele><time>2026-05-03T14:30:31.641Z</time></trkpt><trkpt lat="43.6603717" lon="11.8395417"><ele>318.3333333333333</ele><time>2026-05-03T14:30:32.652Z</time></trkpt><trkpt lat="43.6605333" lon="11.83962"><ele>315.66666666666663</ele><time>2026-05-03T14:30:33.647Z</time></trkpt><trkpt lat="43.6606833" lon="11.839715"><ele>313.0</ele><time>2026-05-03T14:30:34.646Z</time></trkpt><trkpt lat="43.6608333" lon="11.8398167"><ele>313.0</ele><time>2026-05-03T14:30:35.649Z</time></trkpt><trkpt lat="43.6609733" lon="11.8399283"><ele>313.0</ele><time>2026-05-03T14:30:36.648Z</time></trkpt><trkpt lat="43.661105" lon="11.8400283"><ele>313.0</ele><time>2026-05-03T14:30:37.65Z</time></trkpt><trkpt lat="43.661245" lon="11.8401233"><ele>319.0</ele><time>2026-05-03T14:30:38.651Z</time></trkpt><trkpt lat="43.6613867" lon="11.840205"><ele>325.0</ele><time>2026-05-03T14:30:39.659Z</time></trkpt><trkpt lat="43.66153" lon="11.84028"><ele>331.0</ele><time>2026-05-03T14:30:40.643Z</time></trkpt><trkpt lat="43.6616767" lon="11.84035"><ele>331.0</ele><time>2026-05-03T14:30:41.676Z</time></trkpt><trkpt lat="43.6618233" lon="11.84041"><ele>331.0</ele><time>2026-05-03T14:30:42.64Z</time></trkpt><trkpt lat="43.661965" lon="11.8404583"><ele>331.0</ele><time>2026-05-03T14:30:43.646Z</time></trkpt><trkpt lat="43.6621" lon="11.8405017"><ele>331.0</ele><time>2026-05-03T14:30:44.645Z</time></trkpt><trkpt lat="43.6622367" lon="11.8405283"><ele>331.75</ele><time>2026-05-03T14:30:45.65Z</time></trkpt><trkpt lat="43.6623667" lon="11.8405567"><ele>332.5</ele><time>2026-05-03T14:30:46.647Z</time></trkpt><trkpt lat="43.6625033" lon="11.8405817"><ele>333.25</ele><time>2026-05-03T14:30:47.656Z</time></trkpt><trkpt lat="43.66264" lon="11.8405967"><ele>334.0</ele><time>2026-05-03T14:30:48.638Z</time></trkpt><trkpt lat="43.6627733" lon="11.8406067"><ele>333.75</ele><time>2026-05-03T14:30:49.64Z</time></trkpt><trkpt lat="43.6629083" lon="11.8406233"><ele>333.5</ele><time>2026-05-03T14:30:50.649Z</time></trkpt><trkpt lat="43.6630383" lon="11.8406433"><ele>333.25</ele><time>2026-05-03T14:30:51.652Z</time></trkpt><trkpt lat="43.6631733" lon="11.8406433"><ele>333.0</ele><time>2026-05-03T14:30:52.65Z</time></trkpt><trkpt lat="43.6633083" lon="11.8406533"><ele>333.0</ele><time>2026-05-03T14:30:53.649Z</time></trkpt><trkpt lat="43.66345" lon="11.8406567"><ele>333.0</ele><time>2026-05-03T14:30:54.643Z</time></trkpt><trkpt lat="43.663595" lon="11.8406617"><ele>333.0</ele><time>2026-05-03T14:30:55.645Z</time></trkpt><trkpt lat="43.6637417" lon="11.840665"><ele>333.0</ele><time>2026-05-03T14:30:56.652Z</time></trkpt><trkpt lat="43.6638867" lon="11.8406767"><ele>334.6666666666667</ele><time>2026-05-03T14:30:57.649Z</time></trkpt><trkpt lat="43.6640383" lon="11.8406917"><ele>336.33333333333337</ele><time>2026-05-03T14:30:58.656Z</time></trkpt><trkpt lat="43.6641967" lon="11.84072"><ele>338.0</ele><time>2026-05-03T14:30:59.643Z</time></trkpt><trkpt lat="43.6643517" lon="11.8407417"><ele>338.33333333333337</ele><time>2026-05-03T14:31:00.648Z</time></trkpt><trkpt lat="43.6645083" lon="11.84076"><ele>338.6666666666667</ele><time>2026-05-03T14:31:01.657Z</time></trkpt><trkpt lat="43.6646667" lon="11.8407683"><ele>339.0</ele><time>2026-05-03T14:31:02.652Z</time></trkpt><trkpt lat="43.6648217" lon="11.8407667"><ele>339.0</ele><time>2026-05-03T14:31:03.648Z</time></trkpt><trkpt lat="43.6649583" lon="11.8407383"><ele>339.0</ele><time>2026-05-03T14:31:04.648Z</time></trkpt><trkpt lat="43.665085" lon="11.8406767"><ele>339.0</ele><time>2026-05-03T14:31:05.644Z</time></trkpt><trkpt lat="43.665215" lon="11.8406083"><ele>339.0</ele><time>2026-05-03T14:31:06.646Z</time></trkpt><trkpt lat="43.66535" lon="11.84053"><ele>342.6666666666667</ele><time>2026-05-03T14:31:07.651Z</time></trkpt><trkpt lat="43.6655" lon="11.840475"><ele>346.33333333333337</ele><time>2026-05-03T14:31:08.642Z</time></trkpt><trkpt lat="43.66566" lon="11.840445"><ele>350.0</ele><time>2026-05-03T14:31:09.645Z</time></trkpt><trkpt lat="43.6658167" lon="11.84044"><ele>350.0</ele><time>2026-05-03T14:31:10.642Z</time></trkpt><trkpt lat="43.6659817" lon="11.8404483"><ele>350.0</ele><time>2026-05-03T14:31:11.659Z</time></trkpt><trkpt lat="43.6661483" lon="11.8404617"><ele>350.0</ele><time>2026-05-03T14:31:12.649Z</time></trkpt><trkpt lat="43.666315" lon="11.840475"><ele>351.33333333333337</ele><time>2026-05-03T14:31:13.648Z</time></trkpt><trkpt lat="43.66648" lon="11.8404917"><ele>352.6666666666667</ele><time>2026-05-03T14:31:14.649Z</time></trkpt><trkpt lat="43.666635" lon="11.8404983"><ele>354.0</ele><time>2026-05-03T14:31:15.638Z</time></trkpt><trkpt lat="43.66679" lon="11.8404883"><ele>358.0</ele><time>2026-05-03T14:31:16.659Z</time></trkpt><trkpt lat="43.6669467" lon="11.84047"><ele>362.0</ele><time>2026-05-03T14:31:17.646Z</time></trkpt><trkpt lat="43.6670917" lon="11.8404183"><ele>366.0</ele><time>2026-05-03T14:31:18.647Z</time></trkpt><trkpt lat="43.6672383" lon="11.840355"><ele>366.0</ele><time>2026-05-03T14:31:19.643Z</time></trkpt><trkpt lat="43.66738" lon="11.8402717"><ele>366.0</ele><time>2026-05-03T14:31:20.653Z</time></trkpt><trkpt lat="43.66752" lon="11.8401783"><ele>366.0</ele><time>2026-05-03T14:31:21.638Z</time></trkpt><trkpt lat="43.6676617" lon="11.8400667"><ele>361.3333333333333</ele><time>2026-05-03T14:31:22.679Z</time></trkpt><trkpt lat="43.6678083" lon="11.83996"><ele>356.66666666666663</ele><time>2026-05-03T14:31:23.646Z</time></trkpt><trkpt lat="43.6679533" lon="11.839835"><ele>352.0</ele><time>2026-05-03T14:31:24.645Z</time></trkpt><trkpt lat="43.668105" lon="11.8397233"><ele>352.0</ele><time>2026-05-03T14:31:25.65Z</time></trkpt><trkpt lat="43.668255" lon="11.8396"><ele>352.0</ele><time>2026-05-03T14:31:26.652Z</time></trkpt><trkpt lat="43.66841" lon="11.8394933"><ele>352.0</ele><time>2026-05-03T14:31:27.645Z</time></trkpt><trkpt lat="43.66856" lon="11.8393783"><ele>346.0</ele><time>2026-05-03T14:31:28.672Z</time></trkpt><trkpt lat="43.6687017" lon="11.8392833"><ele>340.0</ele><time>2026-05-03T14:31:29.645Z</time></trkpt><trkpt lat="43.6688383" lon="11.8392067"><ele>334.0</ele><time>2026-05-03T14:31:30.656Z</time></trkpt><trkpt lat="43.6689767" lon="11.839135"><ele>334.0</ele><time>2026-05-03T14:31:31.639Z</time></trkpt><trkpt lat="43.66911" lon="11.8390633"><ele>334.0</ele><time>2026-05-03T14:31:32.643Z</time></trkpt><trkpt lat="43.66924" lon="11.838985"><ele>334.0</ele><time>2026-05-03T14:31:33.644Z</time></trkpt><trkpt lat="43.6693683" lon="11.83891"><ele>334.0</ele><time>2026-05-03T14:31:34.651Z</time></trkpt><trkpt lat="43.6694917" lon="11.83883"><ele>337.0</ele><time>2026-05-03T14:31:35.642Z</time></trkpt><trkpt lat="43.6696217" lon="11.8387567"><ele>340.0</ele><time>2026-05-03T14:31:36.683Z</time></trkpt><trkpt lat="43.669745" lon="11.838675"><ele>343.0</ele><time>2026-05-03T14:31:37.641Z</time></trkpt><trkpt lat="43.66986" lon="11.838605"><ele>346.0</ele><time>2026-05-03T14:31:38.638Z</time></trkpt><trkpt lat="43.6699767" lon="11.8385383"><ele>346.0</ele><time>2026-05-03T14:31:39.647Z</time></trkpt><trkpt lat="43.670085" lon="11.838475"><ele>346.0</ele><time>2026-05-03T14:31:40.646Z</time></trkpt><trkpt lat="43.670195" lon="11.8384133"><ele>346.0</ele><time>2026-05-03T14:31:41.642Z</time></trkpt><trkpt lat="43.6703033" lon="11.8383583"><ele>346.0</ele><time>2026-05-03T14:31:42.67Z</time></trkpt><trkpt lat="43.6704183" lon="11.8382917"><ele>344.25</ele><time>2026-05-03T14:31:43.65Z</time></trkpt><trkpt lat="43.67053" lon="11.8382283"><ele>342.5</ele><time>2026-05-03T14:31:44.649Z</time></trkpt><trkpt lat="43.6706483" lon="11.8381733"><ele>340.75</ele><time>2026-05-03T14:31:45.641Z</time></trkpt><trkpt lat="43.67076" lon="11.83812"><ele>339.0</ele><time>2026-05-03T14:31:46.643Z</time></trkpt><trkpt lat="43.670865" lon="11.838045"><ele>339.0</ele><time>2026-05-03T14:31:47.635Z</time></trkpt><trkpt lat="43.6709733" lon="11.8379767"><ele>339.0</ele><time>2026-05-03T14:31:48.634Z</time></trkpt><trkpt lat="43.6710867" lon="11.837895"><ele>339.0</ele><time>2026-05-03T14:31:49.638Z</time></trkpt><trkpt lat="43.6711867" lon="11.8378067"><ele>339.0</ele><time>2026-05-03T14:31:50.646Z</time></trkpt><trkpt lat="43.6712883" lon="11.8377083"><ele>336.5</ele><time>2026-05-03T14:31:51.648Z</time></trkpt><trkpt lat="43.6713867" lon="11.837585"><ele>334.0</ele><time>2026-05-03T14:31:52.649Z</time></trkpt><trkpt lat="43.6714717" lon="11.8374533"><ele>331.5</ele><time>2026-05-03T14:31:53.639Z</time></trkpt><trkpt lat="43.6715583" lon="11.8373167"><ele>329.0</ele><time>2026-05-03T14:31:54.642Z</time></trkpt><trkpt lat="43.6716433" lon="11.83718"><ele>329.0</ele><time>2026-05-03T14:31:55.645Z</time></trkpt><trkpt lat="43.6717317" lon="11.837045"><ele>329.0</ele><time>2026-05-03T14:31:56.643Z</time></trkpt><trkpt lat="43.67181" lon="11.8368883"><ele>329.0</ele><time>2026-05-03T14:31:57.67Z</time></trkpt><trkpt lat="43.6718867" lon="11.83673"><ele>329.0</ele><time>2026-05-03T14:31:58.645Z</time></trkpt><trkpt lat="43.67197" lon="11.8365733"><ele>329.75</ele><time>2026-05-03T14:31:59.645Z</time></trkpt><trkpt lat="43.6720517" lon="11.8364133"><ele>330.5</ele><time>2026-05-03T14:32:00.641Z</time></trkpt><trkpt lat="43.6721333" lon="11.8362383"><ele>331.25</ele><time>2026-05-03T14:32:01.648Z</time></trkpt><trkpt lat="43.6722133" lon="11.8360683"><ele>332.0</ele><time>2026-05-03T14:32:02.649Z</time></trkpt><trkpt lat="43.6722933" lon="11.8359133"><ele>330.0</ele><time>2026-05-03T14:32:03.645Z</time></trkpt><trkpt lat="43.6723783" lon="11.8357567"><ele>328.0</ele><time>2026-05-03T14:32:04.655Z</time></trkpt><trkpt lat="43.6724617" lon="11.8356017"><ele>326.0</ele><time>2026-05-03T14:32:05.646Z</time></trkpt><trkpt lat="43.672535" lon="11.83545"><ele>324.0</ele><time>2026-05-03T14:32:06.647Z</time></trkpt><trkpt lat="43.6726217" lon="11.8353117"><ele>324.0</ele><time>2026-05-03T14:32:07.641Z</time></trkpt><trkpt lat="43.672705" lon="11.8351783"><ele>324.0</ele><time>2026-05-03T14:32:08.642Z</time></trkpt><trkpt lat="43.6727933" lon="11.83505"><ele>324.0</ele><time>2026-05-03T14:32:09.638Z</time></trkpt><trkpt lat="43.6728917" lon="11.8349217"><ele>324.0</ele><time>2026-05-03T14:32:10.636Z</time></trkpt><trkpt lat="43.6729883" lon="11.8348033"><ele>325.25</ele><time>2026-05-03T14:32:11.64Z</time></trkpt><trkpt lat="43.6730917" lon="11.834685"><ele>326.5</ele><time>2026-05-03T14:32:12.646Z</time></trkpt><trkpt lat="43.673195" lon="11.8345633"><ele>327.75</ele><time>2026-05-03T14:32:13.642Z</time></trkpt><trkpt lat="43.673315" lon="11.8344467"><ele>329.0</ele><time>2026-05-03T14:32:14.655Z</time></trkpt><trkpt lat="43.673425" lon="11.834335"><ele>328.6666666666667</ele><time>2026-05-03T14:32:15.65Z</time></trkpt><trkpt lat="43.6735517" lon="11.8342267"><ele>328.3333333333333</ele><time>2026-05-03T14:32:16.647Z</time></trkpt><trkpt lat="43.6736833" lon="11.83412"><ele>328.0</ele><time>2026-05-03T14:32:17.647Z</time></trkpt><trkpt lat="43.6738117" lon="11.8340033"><ele>328.0</ele><time>2026-05-03T14:32:18.653Z</time></trkpt><trkpt lat="43.6739333" lon="11.8338917"><ele>328.0</ele><time>2026-05-03T14:32:19.642Z</time></trkpt><trkpt lat="43.6740633" lon="11.8337883"><ele>328.0</ele><time>2026-05-03T14:32:20.682Z</time></trkpt><trkpt lat="43.6741917" lon="11.8336833"><ele>328.0</ele><time>2026-05-03T14:32:21.641Z</time></trkpt><trkpt lat="43.6743217" lon="11.8335833"><ele>328.5</ele><time>2026-05-03T14:32:22.644Z</time></trkpt><trkpt lat="43.6744417" lon="11.83347"><ele>329.0</ele><time>2026-05-03T14:32:23.641Z</time></trkpt><trkpt lat="43.6745733" lon="11.8333583"><ele>329.5</ele><time>2026-05-03T14:32:24.646Z</time></trkpt><trkpt lat="43.674695" lon="11.8332383"><ele>330.0</ele><time>2026-05-03T14:32:25.64Z</time></trkpt><trkpt lat="43.6748283" lon="11.8331183"><ele>330.0</ele><time>2026-05-03T14:32:26.655Z</time></trkpt><trkpt lat="43.6749583" lon="11.8329983"><ele>330.0</ele><time>2026-05-03T14:32:27.653Z</time></trkpt><trkpt lat="43.6750883" lon="11.8328683"><ele>330.0</ele><time>2026-05-03T14:32:28.641Z</time></trkpt><trkpt lat="43.675225" lon="11.832745"><ele>330.3333333333333</ele><time>2026-05-03T14:32:29.654Z</time></trkpt><trkpt lat="43.67535" lon="11.8326183"><ele>330.66666666666663</ele><time>2026-05-03T14:32:30.649Z</time></trkpt><trkpt lat="43.6754767" lon="11.8324983"><ele>331.0</ele><time>2026-05-03T14:32:31.634Z</time></trkpt><trkpt lat="43.6756033" lon="11.8323883"><ele>331.0</ele><time>2026-05-03T14:32:32.651Z</time></trkpt><trkpt lat="43.6757183" lon="11.832285"><ele>331.0</ele><time>2026-05-03T14:32:33.645Z</time></trkpt><trkpt lat="43.675825" lon="11.8321867"><ele>331.0</ele><time>2026-05-03T14:32:34.657Z</time></trkpt><trkpt lat="43.675925" lon="11.8320933"><ele>331.0</ele><time>2026-05-03T14:32:35.645Z</time></trkpt><trkpt lat="43.6760333" lon="11.8319917"><ele>331.25</ele><time>2026-05-03T14:32:36.647Z</time></trkpt><trkpt lat="43.67614" lon="11.831895"><ele>331.5</ele><time>2026-05-03T14:32:37.647Z</time></trkpt><trkpt lat="43.6762533" lon="11.8317933"><ele>331.75</ele><time>2026-05-03T14:32:38.641Z</time></trkpt><trkpt lat="43.676365" lon="11.8316917"><ele>332.0</ele><time>2026-05-03T14:32:39.657Z</time></trkpt><trkpt lat="43.67648" lon="11.831585"><ele>332.0</ele><time>2026-05-03T14:32:40.642Z</time></trkpt><trkpt lat="43.6765933" lon="11.83148"><ele>332.0</ele><time>2026-05-03T14:32:41.647Z</time></trkpt><trkpt lat="43.6766933" lon="11.8313667"><ele>332.0</ele><time>2026-05-03T14:32:42.646Z</time></trkpt><trkpt lat="43.6767883" lon="11.8312667"><ele>332.0</ele><time>2026-05-03T14:32:43.64Z</time></trkpt><trkpt lat="43.6768883" lon="11.8311767"><ele>333.0</ele><time>2026-05-03T14:32:44.645Z</time></trkpt><trkpt lat="43.6769783" lon="11.831095"><ele>334.0</ele><time>2026-05-03T14:32:45.637Z</time></trkpt><trkpt lat="43.6770683" lon="11.8310167"><ele>335.0</ele><time>2026-05-03T14:32:46.65Z</time></trkpt><trkpt lat="43.67716" lon="11.8309383"><ele>336.0</ele><time>2026-05-03T14:32:47.644Z</time></trkpt><trkpt lat="43.6772483" lon="11.8308467"><ele>337.0</ele><time>2026-05-03T14:32:48.647Z</time></trkpt><trkpt lat="43.6773367" lon="11.83076"><ele>337.0</ele><time>2026-05-03T14:32:49.646Z</time></trkpt><trkpt lat="43.67743" lon="11.83067"><ele>337.0</ele><time>2026-05-03T14:32:50.65Z</time></trkpt><trkpt lat="43.67752" lon="11.83059"><ele>337.0</ele><time>2026-05-03T14:32:51.643Z</time></trkpt><trkpt lat="43.677615" lon="11.830515"><ele>337.0</ele><time>2026-05-03T14:32:52.65Z</time></trkpt><trkpt lat="43.6777117" lon="11.8304533"><ele>337.0</ele><time>2026-05-03T14:32:53.643Z</time></trkpt><trkpt lat="43.6778067" lon="11.830415"><ele>336.8</ele><time>2026-05-03T14:32:54.637Z</time></trkpt><trkpt lat="43.6779117" lon="11.8303883"><ele>336.6</ele><time>2026-05-03T14:32:55.644Z</time></trkpt><trkpt lat="43.6780133" lon="11.830375"><ele>336.40000000000003</ele><time>2026-05-03T14:32:56.651Z</time></trkpt><trkpt lat="43.6781283" lon="11.8303883"><ele>336.20000000000005</ele><time>2026-05-03T14:32:57.65Z</time></trkpt><trkpt lat="43.6782467" lon="11.8304217"><ele>336.0</ele><time>2026-05-03T14:32:58.659Z</time></trkpt><trkpt lat="43.6783617" lon="11.8304883"><ele>336.0</ele><time>2026-05-03T14:32:59.674Z</time></trkpt><trkpt lat="43.6784717" lon="11.8305583"><ele>336.0</ele><time>2026-05-03T14:33:00.677Z</time></trkpt><trkpt lat="43.678585" lon="11.8306233"><ele>336.0</ele><time>2026-05-03T14:33:01.669Z</time></trkpt><trkpt lat="43.678685" lon="11.8306967"><ele>336.0</ele><time>2026-05-03T14:33:02.687Z</time></trkpt><trkpt lat="43.6787817" lon="11.8307583"><ele>333.75</ele><time>2026-05-03T14:33:03.654Z</time></trkpt><trkpt lat="43.6788867" lon="11.8308133"><ele>331.5</ele><time>2026-05-03T14:33:04.649Z</time></trkpt><trkpt lat="43.6790067" lon="11.8308567"><ele>329.25</ele><time>2026-05-03T14:33:05.657Z</time></trkpt><trkpt lat="43.6791383" lon="11.8308833"><ele>327.0</ele><time>2026-05-03T14:33:06.67Z</time></trkpt><trkpt lat="43.67927" lon="11.830885"><ele>327.0</ele><time>2026-05-03T14:33:07.685Z</time></trkpt><trkpt lat="43.6794067" lon="11.830865"><ele>327.0</ele><time>2026-05-03T14:33:08.668Z</time></trkpt><trkpt lat="43.6795317" lon="11.8308333"><ele>327.0</ele><time>2026-05-03T14:33:09.637Z</time></trkpt><trkpt lat="43.679645" lon="11.8307917"><ele>327.0</ele><time>2026-05-03T14:33:10.65Z</time></trkpt><trkpt lat="43.6797567" lon="11.8307317"><ele>325.25</ele><time>2026-05-03T14:33:11.652Z</time></trkpt><trkpt lat="43.67987" lon="11.83067"><ele>323.5</ele><time>2026-05-03T14:33:12.653Z</time></trkpt><trkpt lat="43.6799833" lon="11.8306"><ele>321.75</ele><time>2026-05-03T14:33:13.644Z</time></trkpt><trkpt lat="43.680095" lon="11.8305433"><ele>320.0</ele><time>2026-05-03T14:33:14.642Z</time></trkpt><trkpt lat="43.6802133" lon="11.8304783"><ele>320.5</ele><time>2026-05-03T14:33:15.646Z</time></trkpt><trkpt lat="43.6803267" lon="11.8304117"><ele>321.0</ele><time>2026-05-03T14:33:16.659Z</time></trkpt><trkpt lat="43.6804367" lon="11.830345"><ele>321.5</ele><time>2026-05-03T14:33:17.652Z</time></trkpt><trkpt lat="43.680555" lon="11.830275"><ele>322.0</ele><time>2026-05-03T14:33:18.636Z</time></trkpt><trkpt lat="43.68067" lon="11.8302117"><ele>322.0</ele><time>2026-05-03T14:33:19.639Z</time></trkpt><trkpt lat="43.6807783" lon="11.830145"><ele>322.0</ele><time>2026-05-03T14:33:20.646Z</time></trkpt><trkpt lat="43.68089" lon="11.8300783"><ele>322.0</ele><time>2026-05-03T14:33:21.641Z</time></trkpt><trkpt lat="43.6810067" lon="11.830015"><ele>322.0</ele><time>2026-05-03T14:33:22.652Z</time></trkpt><trkpt lat="43.6811283" lon="11.829945"><ele>321.75</ele><time>2026-05-03T14:33:23.66Z</time></trkpt><trkpt lat="43.68125" lon="11.829875"><ele>321.5</ele><time>2026-05-03T14:33:24.655Z</time></trkpt><trkpt lat="43.6813767" lon="11.8298133"><ele>321.25</ele><time>2026-05-03T14:33:25.646Z</time></trkpt><trkpt lat="43.6815033" lon="11.8297383"><ele>321.0</ele><time>2026-05-03T14:33:26.651Z</time></trkpt><trkpt lat="43.6816383" lon="11.82966"><ele>321.0</ele><time>2026-05-03T14:33:27.654Z</time></trkpt><trkpt lat="43.68177" lon="11.82958"><ele>321.0</ele><time>2026-05-03T14:33:28.661Z</time></trkpt><trkpt lat="43.6819017" lon="11.829505"><ele>321.0</ele><time>2026-05-03T14:33:29.655Z</time></trkpt><trkpt lat="43.6820317" lon="11.8294283"><ele>321.0</ele><time>2026-05-03T14:33:30.657Z</time></trkpt><trkpt lat="43.6821383" lon="11.8293467"><ele>322.0</ele><time>2026-05-03T14:33:31.644Z</time></trkpt><trkpt lat="43.682245" lon="11.829275"><ele>323.0</ele><time>2026-05-03T14:33:32.636Z</time></trkpt><trkpt lat="43.68234" lon="11.8292017"><ele>324.0</ele><time>2026-05-03T14:33:33.65Z</time></trkpt><trkpt lat="43.6824133" lon="11.8291267"><ele>325.0</ele><time>2026-05-03T14:33:34.638Z</time></trkpt><trkpt lat="43.682465" lon="11.8290583"><ele>326.0</ele><time>2026-05-03T14:33:35.656Z</time></trkpt><trkpt lat="43.6825367" lon="11.829005"><ele>326.0</ele><time>2026-05-03T14:33:37.644Z</time></trkpt><trkpt lat="43.6825833" lon="11.8290767"><ele>326.0</ele><time>2026-05-03T14:33:39.647Z</time></trkpt><trkpt lat="43.68258" lon="11.8292083"><ele>326.0</ele><time>2026-05-03T14:33:41.636Z</time></trkpt><trkpt lat="43.6825767" lon="11.8293"><ele>326.0</ele><time>2026-05-03T14:33:42.688Z</time></trkpt><trkpt lat="43.6825817" lon="11.8294017"><ele>326.0</ele><time>2026-05-03T14:33:43.647Z</time></trkpt><trkpt lat="43.6825867" lon="11.8295067"><ele>326.0</ele><time>2026-05-03T14:33:44.646Z</time></trkpt><trkpt lat="43.682595" lon="11.8296217"><ele>326.0</ele><time>2026-05-03T14:33:45.645Z</time></trkpt><trkpt lat="43.6826067" lon="11.8297533"><ele>326.0</ele><time>2026-05-03T14:33:46.637Z</time></trkpt><trkpt lat="43.6826183" lon="11.8298883"><ele>326.0</ele><time>2026-05-03T14:33:47.64Z</time></trkpt><trkpt lat="43.68262" lon="11.8300417"><ele>326.0</ele><time>2026-05-03T14:33:48.642Z</time></trkpt><trkpt lat="43.682635" lon="11.83021"><ele>326.0</ele><time>2026-05-03T14:33:49.641Z</time></trkpt><trkpt lat="43.6826417" lon="11.83037"><ele>326.0</ele><time>2026-05-03T14:33:50.646Z</time></trkpt><trkpt lat="43.6826467" lon="11.830535"><ele>326.0</ele><time>2026-05-03T14:33:51.641Z</time></trkpt><trkpt lat="43.6826633" lon="11.8306967"><ele>326.0</ele><time>2026-05-03T14:33:52.638Z</time></trkpt><trkpt lat="43.682665" lon="11.8308583"><ele>326.0</ele><time>2026-05-03T14:33:53.629Z</time></trkpt><trkpt lat="43.68267" lon="11.8310283"><ele>326.75</ele><time>2026-05-03T14:33:54.633Z</time></trkpt><trkpt lat="43.6826783" lon="11.8312"><ele>327.5</ele><time>2026-05-03T14:33:55.655Z</time></trkpt><trkpt lat="43.6826833" lon="11.83137"><ele>328.25</ele><time>2026-05-03T14:33:56.641Z</time></trkpt><trkpt lat="43.682685" lon="11.8315383"><ele>329.0</ele><time>2026-05-03T14:33:57.646Z</time></trkpt><trkpt lat="43.6827" lon="11.8317067"><ele>329.5</ele><time>2026-05-03T14:33:58.644Z</time></trkpt><trkpt lat="43.682705" lon="11.8318683"><ele>330.0</ele><time>2026-05-03T14:33:59.638Z</time></trkpt><trkpt lat="43.6827183" lon="11.8320283"><ele>330.5</ele><time>2026-05-03T14:34:00.643Z</time></trkpt><trkpt lat="43.68273" lon="11.8321767"><ele>331.0</ele><time>2026-05-03T14:34:01.646Z</time></trkpt><trkpt lat="43.6827367" lon="11.83233"><ele>331.0</ele><time>2026-05-03T14:34:02.641Z</time></trkpt><trkpt lat="43.6827483" lon="11.832485"><ele>331.0</ele><time>2026-05-03T14:34:03.645Z</time></trkpt><trkpt lat="43.6827617" lon="11.8326433"><ele>331.0</ele><time>2026-05-03T14:34:04.645Z</time></trkpt><trkpt lat="43.6827683" lon="11.832795"><ele>331.0</ele><time>2026-05-03T14:34:05.644Z</time></trkpt><trkpt lat="43.6827717" lon="11.8329433"><ele>331.0</ele><time>2026-05-03T14:34:06.639Z</time></trkpt><trkpt lat="43.6827733" lon="11.8331167"><ele>334.75</ele><time>2026-05-03T14:34:07.65Z</time></trkpt><trkpt lat="43.6827867" lon="11.8332783"><ele>338.5</ele><time>2026-05-03T14:34:08.643Z</time></trkpt><trkpt lat="43.6827917" lon="11.83344"><ele>342.25</ele><time>2026-05-03T14:34:09.646Z</time></trkpt><trkpt lat="43.6827967" lon="11.8336067"><ele>346.0</ele><time>2026-05-03T14:34:10.634Z</time></trkpt><trkpt lat="43.6828167" lon="11.833765"><ele>346.0</ele><time>2026-05-03T14:34:11.649Z</time></trkpt><trkpt lat="43.6828333" lon="11.8339133"><ele>346.0</ele><time>2026-05-03T14:34:12.643Z</time></trkpt><trkpt lat="43.68286" lon="11.8340667"><ele>346.0</ele><time>2026-05-03T14:34:13.648Z</time></trkpt><trkpt lat="43.6828833" lon="11.8342017"><ele>346.0</ele><time>2026-05-03T14:34:14.653Z</time></trkpt><trkpt lat="43.6829067" lon="11.8343217"><ele>346.0</ele><time>2026-05-03T14:34:15.641Z</time></trkpt><trkpt lat="43.6829467" lon="11.8344383"><ele>345.3333333333333</ele><time>2026-05-03T14:34:16.641Z</time></trkpt><trkpt lat="43.682985" lon="11.8345517"><ele>344.66666666666663</ele><time>2026-05-03T14:34:17.642Z</time></trkpt><trkpt lat="43.68303" lon="11.8346567"><ele>344.0</ele><time>2026-05-03T14:34:18.641Z</time></trkpt><trkpt lat="43.6830767" lon="11.8347617"><ele>343.3333333333333</ele><time>2026-05-03T14:34:19.649Z</time></trkpt><trkpt lat="43.68312" lon="11.83486"><ele>342.6666666666667</ele><time>2026-05-03T14:34:20.649Z</time></trkpt><trkpt lat="43.6831533" lon="11.8349617"><ele>342.0</ele><time>2026-05-03T14:34:21.643Z</time></trkpt><trkpt lat="43.6831867" lon="11.835055"><ele>341.3333333333333</ele><time>2026-05-03T14:34:22.637Z</time></trkpt><trkpt lat="43.68322" lon="11.8351483"><ele>340.6666666666667</ele><time>2026-05-03T14:34:23.647Z</time></trkpt><trkpt lat="43.683255" lon="11.8352467"><ele>340.0</ele><time>2026-05-03T14:34:24.655Z</time></trkpt><trkpt lat="43.6833" lon="11.8353483"><ele>339.33333333333337</ele><time>2026-05-03T14:34:25.65Z</time></trkpt><trkpt lat="43.683345" lon="11.83545"><ele>338.6666666666667</ele><time>2026-05-03T14:34:26.644Z</time></trkpt><trkpt lat="43.6833783" lon="11.8355417"><ele>338.0</ele><time>2026-05-03T14:34:27.648Z</time></trkpt><trkpt lat="43.683415" lon="11.835635"><ele>338.0</ele><time>2026-05-03T14:34:28.647Z</time></trkpt><trkpt lat="43.6834533" lon="11.8357133"><ele>338.0</ele><time>2026-05-03T14:34:29.655Z</time></trkpt><trkpt lat="43.6834767" lon="11.8358433"><ele>338.0</ele><time>2026-05-03T14:34:31.647Z</time></trkpt><trkpt lat="43.68341" lon="11.8359267"><ele>338.0</ele><time>2026-05-03T14:34:33.666Z</time></trkpt><trkpt lat="43.68329" lon="11.835975"><ele>338.0</ele><time>2026-05-03T14:34:35.649Z</time></trkpt><trkpt lat="43.6832267" lon="11.836005"><ele>338.0</ele><time>2026-05-03T14:34:36.647Z</time></trkpt><trkpt lat="43.6831667" lon="11.8360417"><ele>338.0</ele><time>2026-05-03T14:34:37.639Z</time></trkpt><trkpt lat="43.6830567" lon="11.8361183"><ele>338.0</ele><time>2026-05-03T14:34:39.649Z</time></trkpt><trkpt lat="43.6829717" lon="11.8361667"><ele>338.0</ele><time>2026-05-03T14:34:41.638Z</time></trkpt><trkpt lat="43.682895" lon="11.8361233"><ele>338.0</ele><time>2026-05-03T14:34:44.652Z</time></trkpt><trkpt lat="43.6828383" lon="11.8359567"><ele>338.0</ele><time>2026-05-03T14:34:46.65Z</time></trkpt><trkpt lat="43.6828" lon="11.8358517"><ele>335.25</ele><time>2026-05-03T14:34:47.645Z</time></trkpt><trkpt lat="43.6827517" lon="11.8357217"><ele>332.5</ele><time>2026-05-03T14:34:48.643Z</time></trkpt><trkpt lat="43.6827" lon="11.8355833"><ele>329.75</ele><time>2026-05-03T14:34:49.648Z</time></trkpt><trkpt lat="43.6826517" lon="11.83543"><ele>327.0</ele><time>2026-05-03T14:34:50.647Z</time></trkpt><trkpt lat="43.6825917" lon="11.8352683"><ele>327.75</ele><time>2026-05-03T14:34:51.646Z</time></trkpt><trkpt lat="43.68253" lon="11.8350967"><ele>328.5</ele><time>2026-05-03T14:34:52.64Z</time></trkpt><trkpt lat="43.6824717" lon="11.83493"><ele>329.25</ele><time>2026-05-03T14:34:53.643Z</time></trkpt><trkpt lat="43.6824133" lon="11.83477"><ele>330.0</ele><time>2026-05-03T14:34:54.643Z</time></trkpt><trkpt lat="43.6823567" lon="11.834615"><ele>330.0</ele><time>2026-05-03T14:34:55.639Z</time></trkpt><trkpt lat="43.68231" lon="11.8344717"><ele>330.0</ele><time>2026-05-03T14:34:56.65Z</time></trkpt><trkpt lat="43.682255" lon="11.834335"><ele>330.0</ele><time>2026-05-03T14:34:57.645Z</time></trkpt><trkpt lat="43.682205" lon="11.8342033"><ele>330.0</ele><time>2026-05-03T14:34:58.662Z</time></trkpt><trkpt lat="43.682165" lon="11.8340683"><ele>330.0</ele><time>2026-05-03T14:34:59.65Z</time></trkpt><trkpt lat="43.6821383" lon="11.8339433"><ele>330.1666666666667</ele><time>2026-05-03T14:35:00.654Z</time></trkpt><trkpt lat="43.6821183" lon="11.8338233"><ele>330.3333333333333</ele><time>2026-05-03T14:35:01.644Z</time></trkpt><trkpt lat="43.68208" lon="11.833695"><ele>330.5</ele><time>2026-05-03T14:35:02.639Z</time></trkpt><trkpt lat="43.682055" lon="11.833575"><ele>330.66666666666663</ele><time>2026-05-03T14:35:03.645Z</time></trkpt><trkpt lat="43.6820417" lon="11.8334767"><ele>330.8333333333333</ele><time>2026-05-03T14:35:04.644Z</time></trkpt><trkpt lat="43.682045" lon="11.8333883"><ele>331.0</ele><time>2026-05-03T14:35:05.637Z</time></trkpt><trkpt lat="43.6821233" lon="11.8332683"><ele>331.16666666666663</ele><time>2026-05-03T14:35:07.659Z</time></trkpt><trkpt lat="43.6821917" lon="11.833245"><ele>331.3333333333333</ele><time>2026-05-03T14:35:08.638Z</time></trkpt><trkpt lat="43.6822783" lon="11.833245"><ele>331.5</ele><time>2026-05-03T14:35:09.644Z</time></trkpt><trkpt lat="43.6823733" lon="11.83325"><ele>331.6666666666667</ele><time>2026-05-03T14:35:10.647Z</time></trkpt><trkpt lat="43.682465" lon="11.8332483"><ele>331.83333333333337</ele><time>2026-05-03T14:35:11.655Z</time></trkpt><trkpt lat="43.6825533" lon="11.8332433"><ele>332.0</ele><time>2026-05-03T14:35:12.66Z</time></trkpt><trkpt lat="43.682625" lon="11.8332467"><ele>332.0</ele><time>2026-05-03T14:35:13.662Z</time></trkpt><trkpt lat="43.6827283" lon="11.8332467"><ele>332.0</ele><time>2026-05-03T14:35:15.653Z</time></trkpt><trkpt lat="43.68279" lon="11.83319"><ele>332.0</ele><time>2026-05-03T14:35:18.658Z</time></trkpt><trkpt lat="43.6828033" lon="11.8330467"><ele>332.0</ele><time>2026-05-03T14:35:20.647Z</time></trkpt><trkpt lat="43.68279" lon="11.8329383"><ele>332.0</ele><time>2026-05-03T14:35:21.651Z</time></trkpt><trkpt lat="43.6827767" lon="11.8328133"><ele>331.8</ele><time>2026-05-03T14:35:22.645Z</time></trkpt><trkpt lat="43.682765" lon="11.8326733"><ele>331.6</ele><time>2026-05-03T14:35:23.646Z</time></trkpt><trkpt lat="43.68275" lon="11.832525"><ele>331.40000000000003</ele><time>2026-05-03T14:35:24.643Z</time></trkpt><trkpt lat="43.6827433" lon="11.83238"><ele>331.20000000000005</ele><time>2026-05-03T14:35:25.648Z</time></trkpt><trkpt lat="43.6827383" lon="11.83224"><ele>331.0</ele><time>2026-05-03T14:35:26.657Z</time></trkpt><trkpt lat="43.6827317" lon="11.8321033"><ele>331.0</ele><time>2026-05-03T14:35:27.656Z</time></trkpt><trkpt lat="43.6827233" lon="11.8319767"><ele>331.0</ele><time>2026-05-03T14:35:28.648Z</time></trkpt><trkpt lat="43.6827233" lon="11.8318583"><ele>331.0</ele><time>2026-05-03T14:35:29.647Z</time></trkpt><trkpt lat="43.6827217" lon="11.8317467"><ele>331.0</ele><time>2026-05-03T14:35:30.646Z</time></trkpt><trkpt lat="43.6827167" lon="11.83163"><ele>331.0</ele><time>2026-05-03T14:35:31.636Z</time></trkpt><trkpt lat="43.6827117" lon="11.8315067"><ele>331.0</ele><time>2026-05-03T14:35:32.643Z</time></trkpt><trkpt lat="43.682705" lon="11.8313717"><ele>330.66666666666663</ele><time>2026-05-03T14:35:33.634Z</time></trkpt><trkpt lat="43.6827" lon="11.8312467"><ele>330.3333333333333</ele><time>2026-05-03T14:35:34.648Z</time></trkpt><trkpt lat="43.682705" lon="11.8311283"><ele>330.0</ele><time>2026-05-03T14:35:35.644Z</time></trkpt><trkpt lat="43.6827233" lon="11.8310217"><ele>329.6666666666667</ele><time>2026-05-03T14:35:36.64Z</time></trkpt><trkpt lat="43.6827533" lon="11.8309383"><ele>329.33333333333337</ele><time>2026-05-03T14:35:37.639Z</time></trkpt><trkpt lat="43.6828" lon="11.8308717"><ele>329.0</ele><time>2026-05-03T14:35:38.648Z</time></trkpt><trkpt lat="43.68291" lon="11.8308083"><ele>331.6</ele><time>2026-05-03T14:35:40.638Z</time></trkpt><trkpt lat="43.68301" lon="11.8307"><ele>334.2</ele><time>2026-05-03T14:35:42.64Z</time></trkpt><trkpt lat="43.68303" lon="11.8305983"><ele>336.8</ele><time>2026-05-03T14:35:43.644Z</time></trkpt><trkpt lat="43.6830317" lon="11.83048"><ele>339.40000000000003</ele><time>2026-05-03T14:35:44.643Z</time></trkpt><trkpt lat="43.683035" lon="11.8303567"><ele>342.0</ele><time>2026-05-03T14:35:45.65Z</time></trkpt><trkpt lat="43.6830383" lon="11.8302433"><ele>342.5</ele><time>2026-05-03T14:35:46.645Z</time></trkpt><trkpt lat="43.683045" lon="11.8301283"><ele>343.0</ele><time>2026-05-03T14:35:47.649Z</time></trkpt><trkpt lat="43.683055" lon="11.8300133"><ele>343.5</ele><time>2026-05-03T14:35:48.644Z</time></trkpt><trkpt lat="43.683065" lon="11.8298983"><ele>344.0</ele><time>2026-05-03T14:35:49.644Z</time></trkpt><trkpt lat="43.6830817" lon="11.8297867"><ele>344.5</ele><time>2026-05-03T14:35:50.641Z</time></trkpt><trkpt lat="43.683095" lon="11.8297"><ele>345.0</ele><time>2026-05-03T14:35:51.656Z</time></trkpt><trkpt lat="43.6831383" lon="11.829605"><ele>345.0</ele><time>2026-05-03T14:35:53.642Z</time></trkpt></trkseg></trk></gpx>